<?xml version='1.0' encoding='UTF-8'?><gpx version="1.1" creator="JPX - https://github.com/jenetics/jpx" xmlns="http://www.topografix.com/GPX/1/1"><trk><trkseg><trkpt lat="44.3192279" lon="11.7995275"><ele>47.0</ele><time>2026-04-25T06:28:04.053Z</time></trkpt><trkpt lat="44.3192212" lon="11.7996424"><ele>47.0</ele><time>2026-04-25T06:28:32.16Z</time></trkpt><trkpt lat="44.3192929" lon="11.7997171"><ele>47.0</ele><time>2026-04-25T06:28:34.05Z</time></trkpt><trkpt lat="44.3191879" lon="11.7998665"><ele>47.0</ele><time>2026-04-25T06:28:46.038Z</time></trkpt><trkpt lat="44.3192201" lon="11.7996225"><ele>47.0</ele><time>2026-04-25T06:28:51.043Z</time></trkpt><trkpt lat="44.3192297" lon="11.7994468"><ele>47.0</ele><time>2026-04-25T06:28:55.085Z</time></trkpt><trkpt lat="44.3192486" lon="11.7993387"><ele>47.0</ele><time>2026-04-25T06:28:57.084Z</time></trkpt><trkpt lat="44.3192255" lon="11.7994546"><ele>47.0</ele><time>2026-04-25T06:29:02.051Z</time></trkpt><trkpt lat="44.3191348" lon="11.7994977"><ele>47.0</ele><time>2026-04-25T06:29:08.076Z</time></trkpt><trkpt lat="44.3191477" lon="11.7995877"><ele>47.0</ele><time>2026-04-25T06:29:15.064Z</time></trkpt><trkpt lat="44.3192135" lon="11.7996038"><ele>47.0</ele><time>2026-04-25T06:29:42.072Z</time></trkpt><trkpt lat="44.3192841" lon="11.799574"><ele>47.0</ele><time>2026-04-25T06:34:33.082Z</time></trkpt><trkpt lat="44.3192186" lon="11.7995793"><ele>47.0</ele><time>2026-04-25T06:37:46.037Z</time></trkpt><trkpt lat="44.3191683" lon="11.799507"><ele>47.0</ele><time>2026-04-25T06:37:51.043Z</time></trkpt><trkpt lat="44.3191099" lon="11.7994452"><ele>47.0</ele><time>2026-04-25T06:37:54.041Z</time></trkpt><trkpt lat="44.3190458" lon="11.7993855"><ele>47.0</ele><time>2026-04-25T06:37:58.078Z</time></trkpt><trkpt lat="44.3189966" lon="11.7993289"><ele>47.0</ele><time>2026-04-25T06:38:05.07Z</time></trkpt><trkpt lat="44.3189378" lon="11.7992775"><ele>47.0</ele><time>2026-04-25T06:38:11.052Z</time></trkpt><trkpt lat="44.318858" lon="11.799232"><ele>47.0</ele><time>2026-04-25T06:38:15.116Z</time></trkpt><trkpt lat="44.3187876" lon="11.7992009"><ele>47.0</ele><time>2026-04-25T06:38:18.085Z</time></trkpt><trkpt lat="44.3187316" lon="11.79915"><ele>47.0</ele><time>2026-04-25T06:38:20.98Z</time></trkpt><trkpt lat="44.3186704" lon="11.7991078"><ele>47.0</ele><time>2026-04-25T06:38:25.055Z</time></trkpt><trkpt lat="44.3185994" lon="11.7990511"><ele>47.0</ele><time>2026-04-25T06:38:29.014Z</time></trkpt><trkpt lat="44.3185292" lon="11.7990125"><ele>46.666666666666664</ele><time>2026-04-25T06:38:32.062Z</time></trkpt><trkpt lat="44.3184625" lon="11.7989592"><ele>46.33333333333333</ele><time>2026-04-25T06:38:34.897Z</time></trkpt><trkpt lat="44.318398" lon="11.7988924"><ele>46.0</ele><time>2026-04-25T06:38:38.052Z</time></trkpt><trkpt lat="44.318336" lon="11.7988366"><ele>45.666666666666664</ele><time>2026-04-25T06:38:41.061Z</time></trkpt><trkpt lat="44.3182661" lon="11.7987717"><ele>45.333333333333336</ele><time>2026-04-25T06:38:44.092Z</time></trkpt><trkpt lat="44.3181854" lon="11.7987258"><ele>45.0</ele><time>2026-04-25T06:38:46.972Z</time></trkpt><trkpt lat="44.318114" lon="11.7986675"><ele>45.0</ele><time>2026-04-25T06:38:50.057Z</time></trkpt><trkpt lat="44.3180448" lon="11.7986152"><ele>45.0</ele><time>2026-04-25T06:38:53.098Z</time></trkpt><trkpt lat="44.3179761" lon="11.7985558"><ele>45.0</ele><time>2026-04-25T06:38:56.074Z</time></trkpt><trkpt lat="44.3179053" lon="11.7984986"><ele>45.0</ele><time>2026-04-25T06:38:59.101Z</time></trkpt><trkpt lat="44.3178324" lon="11.7984539"><ele>45.0</ele><time>2026-04-25T06:39:02.058Z</time></trkpt><trkpt lat="44.317773" lon="11.7983896"><ele>45.0</ele><time>2026-04-25T06:39:05.02Z</time></trkpt><trkpt lat="44.3177212" lon="11.7983395"><ele>45.0</ele><time>2026-04-25T06:39:08.076Z</time></trkpt><trkpt lat="44.3176534" lon="11.798285"><ele>45.0</ele><time>2026-04-25T06:39:11.094Z</time></trkpt><trkpt lat="44.3175991" lon="11.7981871"><ele>45.0</ele><time>2026-04-25T06:39:14.093Z</time></trkpt><trkpt lat="44.3176093" lon="11.7980639"><ele>45.0</ele><time>2026-04-25T06:39:16.97Z</time></trkpt><trkpt lat="44.31762" lon="11.7979755"><ele>45.0</ele><time>2026-04-25T06:39:19.036Z</time></trkpt><trkpt lat="44.3176453" lon="11.7978912"><ele>45.0</ele><time>2026-04-25T06:39:21.098Z</time></trkpt><trkpt lat="44.3176668" lon="11.7978083"><ele>45.0</ele><time>2026-04-25T06:39:23.095Z</time></trkpt><trkpt lat="44.3176912" lon="11.797727"><ele>44.833333333333336</ele><time>2026-04-25T06:39:25.106Z</time></trkpt><trkpt lat="44.3177267" lon="11.7976172"><ele>44.666666666666664</ele><time>2026-04-25T06:39:28.042Z</time></trkpt><trkpt lat="44.3177647" lon="11.7975071"><ele>44.5</ele><time>2026-04-25T06:39:31.016Z</time></trkpt><trkpt lat="44.3178045" lon="11.7973991"><ele>44.33333333333333</ele><time>2026-04-25T06:39:34.116Z</time></trkpt><trkpt lat="44.3178378" lon="11.7972917"><ele>44.166666666666664</ele><time>2026-04-25T06:39:37.08Z</time></trkpt><trkpt lat="44.3178709" lon="11.7971866"><ele>44.0</ele><time>2026-04-25T06:39:39.975Z</time></trkpt><trkpt lat="44.3178967" lon="11.797106"><ele>44.0</ele><time>2026-04-25T06:39:42.032Z</time></trkpt><trkpt lat="44.3179213" lon="11.7970164"><ele>44.0</ele><time>2026-04-25T06:39:44.096Z</time></trkpt><trkpt lat="44.3179631" lon="11.7969043"><ele>44.0</ele><time>2026-04-25T06:39:47.075Z</time></trkpt><trkpt lat="44.3180071" lon="11.7967997"><ele>44.0</ele><time>2026-04-25T06:39:50.053Z</time></trkpt><trkpt lat="44.3180495" lon="11.7966967"><ele>44.0</ele><time>2026-04-25T06:39:53.112Z</time></trkpt><trkpt lat="44.3180942" lon="11.796601"><ele>44.0</ele><time>2026-04-25T06:39:56.087Z</time></trkpt><trkpt lat="44.3181353" lon="11.7964952"><ele>43.800000000000004</ele><time>2026-04-25T06:39:59.021Z</time></trkpt><trkpt lat="44.3181748" lon="11.7963769"><ele>43.6</ele><time>2026-04-25T06:40:02.054Z</time></trkpt><trkpt lat="44.3182028" lon="11.7962656"><ele>43.4</ele><time>2026-04-25T06:40:05.072Z</time></trkpt><trkpt lat="44.3182237" lon="11.7961351"><ele>43.2</ele><time>2026-04-25T06:40:08.1Z</time></trkpt><trkpt lat="44.318246" lon="11.7960181"><ele>43.0</ele><time>2026-04-25T06:40:11.039Z</time></trkpt><trkpt lat="44.318278" lon="11.7958963"><ele>43.0</ele><time>2026-04-25T06:40:14.083Z</time></trkpt><trkpt lat="44.3183088" lon="11.7957867"><ele>43.0</ele><time>2026-04-25T06:40:17.071Z</time></trkpt><trkpt lat="44.3183414" lon="11.7956767"><ele>43.0</ele><time>2026-04-25T06:40:20.073Z</time></trkpt><trkpt lat="44.3183649" lon="11.7955885"><ele>43.0</ele><time>2026-04-25T06:40:22.078Z</time></trkpt><trkpt lat="44.318383" lon="11.7955012"><ele>43.0</ele><time>2026-04-25T06:40:24.095Z</time></trkpt><trkpt lat="44.3184112" lon="11.7953811"><ele>43.0</ele><time>2026-04-25T06:40:27.023Z</time></trkpt><trkpt lat="44.3184347" lon="11.7952646"><ele>43.0</ele><time>2026-04-25T06:40:30.11Z</time></trkpt><trkpt lat="44.318406" lon="11.7951785"><ele>43.0</ele><time>2026-04-25T06:40:33.014Z</time></trkpt><trkpt lat="44.3183349" lon="11.7951092"><ele>43.0</ele><time>2026-04-25T06:40:36.062Z</time></trkpt><trkpt lat="44.3182489" lon="11.7950696"><ele>43.0</ele><time>2026-04-25T06:40:39.106Z</time></trkpt><trkpt lat="44.3181764" lon="11.7950248"><ele>43.0</ele><time>2026-04-25T06:40:42.081Z</time></trkpt><trkpt lat="44.3181062" lon="11.7949875"><ele>43.0</ele><time>2026-04-25T06:40:45.101Z</time></trkpt><trkpt lat="44.3180308" lon="11.7949634"><ele>43.142857142857146</ele><time>2026-04-25T06:40:48.109Z</time></trkpt><trkpt lat="44.3179572" lon="11.7949365"><ele>43.285714285714285</ele><time>2026-04-25T06:40:51.09Z</time></trkpt><trkpt lat="44.3178887" lon="11.7949226"><ele>43.42857142857143</ele><time>2026-04-25T06:40:54.092Z</time></trkpt><trkpt lat="44.3178191" lon="11.7949089"><ele>43.57142857142857</ele><time>2026-04-25T06:40:57.119Z</time></trkpt><trkpt lat="44.3177497" lon="11.794901"><ele>43.714285714285715</ele><time>2026-04-25T06:41:00.065Z</time></trkpt><trkpt lat="44.3176777" lon="11.794908"><ele>43.85714285714286</ele><time>2026-04-25T06:41:03.098Z</time></trkpt><trkpt lat="44.3175955" lon="11.7948998"><ele>44.0</ele><time>2026-04-25T06:41:06.095Z</time></trkpt><trkpt lat="44.3175123" lon="11.7948903"><ele>44.0</ele><time>2026-04-25T06:41:09.098Z</time></trkpt><trkpt lat="44.3174187" lon="11.7948827"><ele>44.0</ele><time>2026-04-25T06:41:12.078Z</time></trkpt><trkpt lat="44.3173515" lon="11.7948844"><ele>44.0</ele><time>2026-04-25T06:41:14.09Z</time></trkpt><trkpt lat="44.3172847" lon="11.7948839"><ele>44.0</ele><time>2026-04-25T06:41:15.993Z</time></trkpt><trkpt lat="44.3172112" lon="11.7948942"><ele>44.0</ele><time>2026-04-25T06:41:18.055Z</time></trkpt><trkpt lat="44.3171424" lon="11.7949094"><ele>44.0</ele><time>2026-04-25T06:41:20.136Z</time></trkpt><trkpt lat="44.3170776" lon="11.7949207"><ele>44.0</ele><time>2026-04-25T06:41:22.056Z</time></trkpt><trkpt lat="44.3170129" lon="11.7949348"><ele>44.0</ele><time>2026-04-25T06:41:24.079Z</time></trkpt><trkpt lat="44.3169291" lon="11.7949507"><ele>44.0</ele><time>2026-04-25T06:41:27.022Z</time></trkpt><trkpt lat="44.3168665" lon="11.7949735"><ele>44.0</ele><time>2026-04-25T06:41:29.116Z</time></trkpt><trkpt lat="44.3168007" lon="11.7949915"><ele>44.0</ele><time>2026-04-25T06:41:31.109Z</time></trkpt><trkpt lat="44.3167341" lon="11.7949988"><ele>44.0</ele><time>2026-04-25T06:41:33.088Z</time></trkpt><trkpt lat="44.3166688" lon="11.7950034"><ele>44.0</ele><time>2026-04-25T06:41:35.093Z</time></trkpt><trkpt lat="44.3165828" lon="11.7950099"><ele>44.0</ele><time>2026-04-25T06:41:38.093Z</time></trkpt><trkpt lat="44.3164928" lon="11.7950056"><ele>44.0</ele><time>2026-04-25T06:41:41.055Z</time></trkpt><trkpt lat="44.316429" lon="11.7950036"><ele>44.0</ele><time>2026-04-25T06:41:43.072Z</time></trkpt><trkpt lat="44.3163332" lon="11.7950061"><ele>44.0</ele><time>2026-04-25T06:41:46.093Z</time></trkpt><trkpt lat="44.316268" lon="11.7950007"><ele>44.0</ele><time>2026-04-25T06:41:48.111Z</time></trkpt><trkpt lat="44.316178" lon="11.7950095"><ele>44.0</ele><time>2026-04-25T06:41:51.082Z</time></trkpt><trkpt lat="44.3160928" lon="11.7950257"><ele>44.0</ele><time>2026-04-25T06:41:54.07Z</time></trkpt><trkpt lat="44.3160029" lon="11.7950387"><ele>44.0</ele><time>2026-04-25T06:41:57.095Z</time></trkpt><trkpt lat="44.3159177" lon="11.7950352"><ele>44.0</ele><time>2026-04-25T06:42:00.03Z</time></trkpt><trkpt lat="44.315852" lon="11.7950251"><ele>44.0</ele><time>2026-04-25T06:42:02.112Z</time></trkpt><trkpt lat="44.3157877" lon="11.7950095"><ele>44.0</ele><time>2026-04-25T06:42:04.084Z</time></trkpt><trkpt lat="44.3157222" lon="11.7949757"><ele>44.0</ele><time>2026-04-25T06:42:06.076Z</time></trkpt><trkpt lat="44.3156411" lon="11.7949348"><ele>44.0</ele><time>2026-04-25T06:42:09.098Z</time></trkpt><trkpt lat="44.3155639" lon="11.7948916"><ele>44.0</ele><time>2026-04-25T06:42:12.121Z</time></trkpt><trkpt lat="44.3154866" lon="11.794844"><ele>44.0</ele><time>2026-04-25T06:42:15.11Z</time></trkpt><trkpt lat="44.3154124" lon="11.794785"><ele>44.0</ele><time>2026-04-25T06:42:18.132Z</time></trkpt><trkpt lat="44.3153436" lon="11.7947233"><ele>44.0</ele><time>2026-04-25T06:42:21.072Z</time></trkpt><trkpt lat="44.315271" lon="11.7946564"><ele>44.0</ele><time>2026-04-25T06:42:24.038Z</time></trkpt><trkpt lat="44.315216" lon="11.7946097"><ele>44.0</ele><time>2026-04-25T06:42:26.137Z</time></trkpt><trkpt lat="44.3151343" lon="11.794554"><ele>44.0</ele><time>2026-04-25T06:42:29.355Z</time></trkpt><trkpt lat="44.3150541" lon="11.7944916"><ele>44.0</ele><time>2026-04-25T06:42:32.48Z</time></trkpt><trkpt lat="44.3149797" lon="11.7944294"><ele>44.0</ele><time>2026-04-25T06:42:35.576Z</time></trkpt><trkpt lat="44.3149047" lon="11.794363"><ele>44.0</ele><time>2026-04-25T06:42:38.714Z</time></trkpt><trkpt lat="44.3148506" lon="11.7943149"><ele>44.0</ele><time>2026-04-25T06:42:41.074Z</time></trkpt><trkpt lat="44.3147756" lon="11.7942576"><ele>44.0</ele><time>2026-04-25T06:42:44.078Z</time></trkpt><trkpt lat="44.3146988" lon="11.7942013"><ele>44.0</ele><time>2026-04-25T06:42:47.017Z</time></trkpt><trkpt lat="44.3146377" lon="11.7941642"><ele>44.0</ele><time>2026-04-25T06:42:49.094Z</time></trkpt><trkpt lat="44.3145765" lon="11.7941379"><ele>44.0</ele><time>2026-04-25T06:42:51.119Z</time></trkpt><trkpt lat="44.3144894" lon="11.7940982"><ele>44.0</ele><time>2026-04-25T06:42:54.013Z</time></trkpt><trkpt lat="44.3144217" lon="11.7940729"><ele>44.0</ele><time>2026-04-25T06:42:56.136Z</time></trkpt><trkpt lat="44.3143407" lon="11.7940403"><ele>44.0</ele><time>2026-04-25T06:42:59.088Z</time></trkpt><trkpt lat="44.3142649" lon="11.7940121"><ele>44.0</ele><time>2026-04-25T06:43:02.068Z</time></trkpt><trkpt lat="44.3141848" lon="11.7939794"><ele>44.0</ele><time>2026-04-25T06:43:05.091Z</time></trkpt><trkpt lat="44.3141075" lon="11.7939554"><ele>44.0</ele><time>2026-04-25T06:43:08.037Z</time></trkpt><trkpt lat="44.3140231" lon="11.7939362"><ele>44.0</ele><time>2026-04-25T06:43:11.174Z</time></trkpt><trkpt lat="44.3139364" lon="11.793906"><ele>44.0</ele><time>2026-04-25T06:43:14.084Z</time></trkpt><trkpt lat="44.3138473" lon="11.7938654"><ele>44.0</ele><time>2026-04-25T06:43:17.098Z</time></trkpt><trkpt lat="44.3137695" lon="11.7938378"><ele>44.0</ele><time>2026-04-25T06:43:19.982Z</time></trkpt><trkpt lat="44.3136874" lon="11.7938273"><ele>44.0</ele><time>2026-04-25T06:43:23.081Z</time></trkpt><trkpt lat="44.3136135" lon="11.7938225"><ele>44.0</ele><time>2026-04-25T06:43:26.098Z</time></trkpt><trkpt lat="44.3135379" lon="11.7938162"><ele>44.0</ele><time>2026-04-25T06:43:29.022Z</time></trkpt><trkpt lat="44.3134508" lon="11.793821"><ele>44.0</ele><time>2026-04-25T06:43:32.079Z</time></trkpt><trkpt lat="44.313364" lon="11.7938197"><ele>44.0</ele><time>2026-04-25T06:43:35.06Z</time></trkpt><trkpt lat="44.3132776" lon="11.7938022"><ele>44.0</ele><time>2026-04-25T06:43:38.098Z</time></trkpt><trkpt lat="44.3132014" lon="11.7937915"><ele>44.0</ele><time>2026-04-25T06:43:40.656Z</time></trkpt><trkpt lat="44.3131334" lon="11.7937908"><ele>44.0</ele><time>2026-04-25T06:43:43.063Z</time></trkpt><trkpt lat="44.3130526" lon="11.7937929"><ele>44.0</ele><time>2026-04-25T06:43:46.109Z</time></trkpt><trkpt lat="44.3129753" lon="11.7937963"><ele>44.0</ele><time>2026-04-25T06:43:48.998Z</time></trkpt><trkpt lat="44.3128862" lon="11.7937924"><ele>44.0</ele><time>2026-04-25T06:43:52.083Z</time></trkpt><trkpt lat="44.3128064" lon="11.7937912"><ele>44.0</ele><time>2026-04-25T06:43:55.098Z</time></trkpt><trkpt lat="44.3127251" lon="11.7937983"><ele>44.0</ele><time>2026-04-25T06:43:58.105Z</time></trkpt><trkpt lat="44.3126382" lon="11.7938051"><ele>44.0</ele><time>2026-04-25T06:44:01.095Z</time></trkpt><trkpt lat="44.3125618" lon="11.793807"><ele>44.0</ele><time>2026-04-25T06:44:04.014Z</time></trkpt><trkpt lat="44.3124802" lon="11.7937983"><ele>44.0</ele><time>2026-04-25T06:44:07.111Z</time></trkpt><trkpt lat="44.3123953" lon="11.7937694"><ele>44.0</ele><time>2026-04-25T06:44:10.107Z</time></trkpt><trkpt lat="44.3123071" lon="11.7937428"><ele>43.83333333333333</ele><time>2026-04-25T06:44:13.111Z</time></trkpt><trkpt lat="44.3122261" lon="11.7937213"><ele>43.666666666666664</ele><time>2026-04-25T06:44:16.09Z</time></trkpt><trkpt lat="44.3121538" lon="11.7937052"><ele>43.5</ele><time>2026-04-25T06:44:19.121Z</time></trkpt><trkpt lat="44.3120773" lon="11.7936904"><ele>43.333333333333336</ele><time>2026-04-25T06:44:22.072Z</time></trkpt><trkpt lat="44.3119984" lon="11.7936648"><ele>43.16666666666667</ele><time>2026-04-25T06:44:25.093Z</time></trkpt><trkpt lat="44.3119229" lon="11.7936469"><ele>43.0</ele><time>2026-04-25T06:44:28.108Z</time></trkpt><trkpt lat="44.3118538" lon="11.7936387"><ele>43.0</ele><time>2026-04-25T06:44:31.091Z</time></trkpt><trkpt lat="44.3117792" lon="11.7936331"><ele>43.0</ele><time>2026-04-25T06:44:34.125Z</time></trkpt><trkpt lat="44.3117148" lon="11.7936129"><ele>43.0</ele><time>2026-04-25T06:44:37.015Z</time></trkpt><trkpt lat="44.3116428" lon="11.7935676"><ele>43.0</ele><time>2026-04-25T06:44:48.115Z</time></trkpt><trkpt lat="44.311549" lon="11.7935767"><ele>43.0</ele><time>2026-04-25T06:44:51.106Z</time></trkpt><trkpt lat="44.3114565" lon="11.7935644"><ele>43.0</ele><time>2026-04-25T06:44:54.067Z</time></trkpt><trkpt lat="44.3113912" lon="11.7935512"><ele>43.00000000000001</ele><time>2026-04-25T06:44:56.14Z</time></trkpt><trkpt lat="44.3113271" lon="11.7935437"><ele>43.0</ele><time>2026-04-25T06:44:58.121Z</time></trkpt><trkpt lat="44.3112448" lon="11.7935507"><ele>43.0</ele><time>2026-04-25T06:45:00.994Z</time></trkpt><trkpt lat="44.3111733" lon="11.7935706"><ele>43.0</ele><time>2026-04-25T06:45:03.791Z</time></trkpt><trkpt lat="44.3111099" lon="11.7935838"><ele>43.0</ele><time>2026-04-25T06:45:06.088Z</time></trkpt><trkpt lat="44.3110332" lon="11.793599"><ele>43.00000000000001</ele><time>2026-04-25T06:45:08.997Z</time></trkpt><trkpt lat="44.3109522" lon="11.7936053"><ele>43.0</ele><time>2026-04-25T06:45:12.081Z</time></trkpt><trkpt lat="44.3108706" lon="11.7936208"><ele>43.0</ele><time>2026-04-25T06:45:15.103Z</time></trkpt><trkpt lat="44.3107796" lon="11.7936297"><ele>43.0</ele><time>2026-04-25T06:45:18.103Z</time></trkpt><trkpt lat="44.3106935" lon="11.7936353"><ele>43.0</ele><time>2026-04-25T06:45:21.117Z</time></trkpt><trkpt lat="44.3106105" lon="11.7936552"><ele>43.0</ele><time>2026-04-25T06:45:24.11Z</time></trkpt><trkpt lat="44.3105263" lon="11.7936695"><ele>43.0</ele><time>2026-04-25T06:45:27.038Z</time></trkpt><trkpt lat="44.3104346" lon="11.793686"><ele>43.0</ele><time>2026-04-25T06:45:30.08Z</time></trkpt><trkpt lat="44.3103462" lon="11.7936981"><ele>43.0</ele><time>2026-04-25T06:45:33.089Z</time></trkpt><trkpt lat="44.310259" lon="11.7937011"><ele>43.0</ele><time>2026-04-25T06:45:36.056Z</time></trkpt><trkpt lat="44.3101659" lon="11.7936984"><ele>43.0</ele><time>2026-04-25T06:45:39.103Z</time></trkpt><trkpt lat="44.3100839" lon="11.7936981"><ele>43.0</ele><time>2026-04-25T06:45:41.999Z</time></trkpt><trkpt lat="44.3100073" lon="11.7937318"><ele>43.0</ele><time>2026-04-25T06:45:45.084Z</time></trkpt><trkpt lat="44.309977" lon="11.7938269"><ele>43.0</ele><time>2026-04-25T06:45:48.019Z</time></trkpt><trkpt lat="44.3100258" lon="11.793923"><ele>43.0</ele><time>2026-04-25T06:45:51.084Z</time></trkpt><trkpt lat="44.3100901" lon="11.7939892"><ele>43.0</ele><time>2026-04-25T06:45:53.996Z</time></trkpt><trkpt lat="44.3101517" lon="11.7940805"><ele>43.0</ele><time>2026-04-25T06:45:57.116Z</time></trkpt><trkpt lat="44.3102115" lon="11.7941608"><ele>43.0</ele><time>2026-04-25T06:46:00.101Z</time></trkpt><trkpt lat="44.3102718" lon="11.7942416"><ele>43.0</ele><time>2026-04-25T06:46:03.015Z</time></trkpt><trkpt lat="44.3103334" lon="11.7943339"><ele>43.0</ele><time>2026-04-25T06:46:06.079Z</time></trkpt><trkpt lat="44.3103833" lon="11.7944293"><ele>42.833333333333336</ele><time>2026-04-25T06:46:09.124Z</time></trkpt><trkpt lat="44.310445" lon="11.7945138"><ele>42.66666666666667</ele><time>2026-04-25T06:46:11.991Z</time></trkpt><trkpt lat="44.3104887" lon="11.7945803"><ele>42.5</ele><time>2026-04-25T06:46:14.114Z</time></trkpt><trkpt lat="44.3105472" lon="11.7946838"><ele>42.333333333333336</ele><time>2026-04-25T06:46:17.14Z</time></trkpt><trkpt lat="44.3105846" lon="11.7947577"><ele>42.166666666666664</ele><time>2026-04-25T06:46:19.11Z</time></trkpt><trkpt lat="44.3106426" lon="11.7948445"><ele>42.0</ele><time>2026-04-25T06:46:22.09Z</time></trkpt><trkpt lat="44.3107051" lon="11.7949382"><ele>42.0</ele><time>2026-04-25T06:46:25.107Z</time></trkpt><trkpt lat="44.3107667" lon="11.7950321"><ele>42.0</ele><time>2026-04-25T06:46:28.06Z</time></trkpt><trkpt lat="44.3108267" lon="11.795125"><ele>42.0</ele><time>2026-04-25T06:46:31.103Z</time></trkpt><trkpt lat="44.3108828" lon="11.7952089"><ele>42.0</ele><time>2026-04-25T06:46:33.997Z</time></trkpt><trkpt lat="44.3109482" lon="11.795288"><ele>42.0</ele><time>2026-04-25T06:46:37.131Z</time></trkpt><trkpt lat="44.3110037" lon="11.7953586"><ele>42.0</ele><time>2026-04-25T06:46:40.075Z</time></trkpt><trkpt lat="44.3110585" lon="11.79544"><ele>41.833333333333336</ele><time>2026-04-25T06:46:43.116Z</time></trkpt><trkpt lat="44.311112" lon="11.7955121"><ele>41.666666666666664</ele><time>2026-04-25T06:46:46.081Z</time></trkpt><trkpt lat="44.3111729" lon="11.7955913"><ele>41.5</ele><time>2026-04-25T06:46:49.113Z</time></trkpt><trkpt lat="44.3112234" lon="11.7956829"><ele>41.33333333333333</ele><time>2026-04-25T06:46:52.091Z</time></trkpt><trkpt lat="44.3112768" lon="11.7957674"><ele>41.166666666666664</ele><time>2026-04-25T06:46:55.087Z</time></trkpt><trkpt lat="44.3113289" lon="11.7958519"><ele>41.0</ele><time>2026-04-25T06:46:58.094Z</time></trkpt><trkpt lat="44.311377" lon="11.7959531"><ele>41.0</ele><time>2026-04-25T06:47:01.094Z</time></trkpt><trkpt lat="44.3114138" lon="11.7960636"><ele>41.0</ele><time>2026-04-25T06:47:04.084Z</time></trkpt><trkpt lat="44.3114544" lon="11.7961664"><ele>41.0</ele><time>2026-04-25T06:47:07.149Z</time></trkpt><trkpt lat="44.3115012" lon="11.7962636"><ele>41.0</ele><time>2026-04-25T06:47:10.101Z</time></trkpt><trkpt lat="44.3115553" lon="11.7963509"><ele>41.0</ele><time>2026-04-25T06:47:13.054Z</time></trkpt><trkpt lat="44.3116116" lon="11.7964473"><ele>41.0</ele><time>2026-04-25T06:47:16.137Z</time></trkpt><trkpt lat="44.3116694" lon="11.7965333"><ele>41.0</ele><time>2026-04-25T06:47:19.017Z</time></trkpt><trkpt lat="44.3117153" lon="11.7965972"><ele>41.0</ele><time>2026-04-25T06:47:21.112Z</time></trkpt><trkpt lat="44.3117755" lon="11.7966795"><ele>41.0</ele><time>2026-04-25T06:47:24.098Z</time></trkpt><trkpt lat="44.3118403" lon="11.7967609"><ele>41.0</ele><time>2026-04-25T06:47:27.039Z</time></trkpt><trkpt lat="44.311895" lon="11.7968072"><ele>41.0</ele><time>2026-04-25T06:47:29.099Z</time></trkpt><trkpt lat="44.3119615" lon="11.7968659"><ele>41.0</ele><time>2026-04-25T06:47:31.896Z</time></trkpt><trkpt lat="44.3120392" lon="11.7969222"><ele>41.0</ele><time>2026-04-25T06:47:35.073Z</time></trkpt><trkpt lat="44.312113" lon="11.7969803"><ele>41.0</ele><time>2026-04-25T06:47:38.073Z</time></trkpt><trkpt lat="44.3121792" lon="11.7970449"><ele>41.0</ele><time>2026-04-25T06:47:41.077Z</time></trkpt><trkpt lat="44.3122444" lon="11.7971133"><ele>41.0</ele><time>2026-04-25T06:47:44.08Z</time></trkpt><trkpt lat="44.3123173" lon="11.7971715"><ele>41.0</ele><time>2026-04-25T06:47:47.1Z</time></trkpt><trkpt lat="44.3123901" lon="11.7972273"><ele>41.0</ele><time>2026-04-25T06:47:50.079Z</time></trkpt><trkpt lat="44.3124615" lon="11.7972771"><ele>41.0</ele><time>2026-04-25T06:47:53.11Z</time></trkpt><trkpt lat="44.3125399" lon="11.7973342"><ele>41.0</ele><time>2026-04-25T06:47:56.093Z</time></trkpt><trkpt lat="44.3125949" lon="11.7973814"><ele>41.0</ele><time>2026-04-25T06:47:58.094Z</time></trkpt><trkpt lat="44.3126785" lon="11.7974366"><ele>41.0</ele><time>2026-04-25T06:48:01.034Z</time></trkpt><trkpt lat="44.3127605" lon="11.7974942"><ele>41.0</ele><time>2026-04-25T06:48:04.111Z</time></trkpt><trkpt lat="44.312839" lon="11.7975507"><ele>41.0</ele><time>2026-04-25T06:48:07.06Z</time></trkpt><trkpt lat="44.3129121" lon="11.7975915"><ele>41.0</ele><time>2026-04-25T06:48:10.098Z</time></trkpt><trkpt lat="44.3129856" lon="11.7976486"><ele>41.0</ele><time>2026-04-25T06:48:14.06Z</time></trkpt><trkpt lat="44.3130635" lon="11.7976989"><ele>41.0</ele><time>2026-04-25T06:48:17.094Z</time></trkpt><trkpt lat="44.3131444" lon="11.7977587"><ele>41.0</ele><time>2026-04-25T06:48:20.075Z</time></trkpt><trkpt lat="44.3132003" lon="11.7978011"><ele>41.0</ele><time>2026-04-25T06:48:22.08Z</time></trkpt><trkpt lat="44.3132708" lon="11.7978532"><ele>41.0</ele><time>2026-04-25T06:48:25.083Z</time></trkpt><trkpt lat="44.3133446" lon="11.7979037"><ele>41.166666666666664</ele><time>2026-04-25T06:48:28.103Z</time></trkpt><trkpt lat="44.3134156" lon="11.7979641"><ele>41.33333333333333</ele><time>2026-04-25T06:48:31.089Z</time></trkpt><trkpt lat="44.3134862" lon="11.7980302"><ele>41.5</ele><time>2026-04-25T06:48:34.133Z</time></trkpt><trkpt lat="44.3135496" lon="11.7980938"><ele>41.666666666666664</ele><time>2026-04-25T06:48:37.086Z</time></trkpt><trkpt lat="44.3136214" lon="11.7981347"><ele>41.833333333333336</ele><time>2026-04-25T06:48:40.066Z</time></trkpt><trkpt lat="44.3136924" lon="11.798178"><ele>42.0</ele><time>2026-04-25T06:48:43.015Z</time></trkpt><trkpt lat="44.3137573" lon="11.7982077"><ele>42.0</ele><time>2026-04-25T06:48:46.086Z</time></trkpt><trkpt lat="44.313834" lon="11.7982508"><ele>42.0</ele><time>2026-04-25T06:48:50.054Z</time></trkpt><trkpt lat="44.3138958" lon="11.7982892"><ele>42.0</ele><time>2026-04-25T06:48:53.094Z</time></trkpt><trkpt lat="44.3139738" lon="11.7983416"><ele>42.0</ele><time>2026-04-25T06:48:56.033Z</time></trkpt><trkpt lat="44.3140336" lon="11.7983836"><ele>42.0</ele><time>2026-04-25T06:48:58.103Z</time></trkpt><trkpt lat="44.3141132" lon="11.7984349"><ele>42.0</ele><time>2026-04-25T06:49:00.997Z</time></trkpt><trkpt lat="44.3141713" lon="11.7984721"><ele>42.0</ele><time>2026-04-25T06:49:03.079Z</time></trkpt><trkpt lat="44.314233" lon="11.7985095"><ele>42.0</ele><time>2026-04-25T06:49:05.099Z</time></trkpt><trkpt lat="44.3143175" lon="11.7985641"><ele>42.0</ele><time>2026-04-25T06:49:07.997Z</time></trkpt><trkpt lat="44.3143853" lon="11.7986043"><ele>42.0</ele><time>2026-04-25T06:49:10.078Z</time></trkpt><trkpt lat="44.3144649" lon="11.7986759"><ele>42.0</ele><time>2026-04-25T06:49:13.091Z</time></trkpt><trkpt lat="44.3145409" lon="11.7987515"><ele>42.0</ele><time>2026-04-25T06:49:16.095Z</time></trkpt><trkpt lat="44.3146123" lon="11.7988213"><ele>42.0</ele><time>2026-04-25T06:49:19.093Z</time></trkpt><trkpt lat="44.3146849" lon="11.7988912"><ele>42.0</ele><time>2026-04-25T06:49:22.095Z</time></trkpt><trkpt lat="44.3147634" lon="11.7989537"><ele>42.0</ele><time>2026-04-25T06:49:25.091Z</time></trkpt><trkpt lat="44.3148293" lon="11.7990045"><ele>42.0</ele><time>2026-04-25T06:49:28.075Z</time></trkpt><trkpt lat="44.3148976" lon="11.799057"><ele>42.0</ele><time>2026-04-25T06:49:31.113Z</time></trkpt><trkpt lat="44.3149602" lon="11.7991028"><ele>42.0</ele><time>2026-04-25T06:49:34.113Z</time></trkpt><trkpt lat="44.3150157" lon="11.7991583"><ele>42.166666666666664</ele><time>2026-04-25T06:49:37.996Z</time></trkpt><trkpt lat="44.3150887" lon="11.7992283"><ele>42.333333333333336</ele><time>2026-04-25T06:49:41.089Z</time></trkpt><trkpt lat="44.3151643" lon="11.7992932"><ele>42.5</ele><time>2026-04-25T06:49:44.138Z</time></trkpt><trkpt lat="44.3152497" lon="11.7993551"><ele>42.66666666666667</ele><time>2026-04-25T06:49:47.084Z</time></trkpt><trkpt lat="44.3153068" lon="11.799397"><ele>42.833333333333336</ele><time>2026-04-25T06:49:49.117Z</time></trkpt><trkpt lat="44.3153799" lon="11.7994488"><ele>43.0</ele><time>2026-04-25T06:49:52.018Z</time></trkpt><trkpt lat="44.3154588" lon="11.7995087"><ele>42.85714285714286</ele><time>2026-04-25T06:49:55.114Z</time></trkpt><trkpt lat="44.3155292" lon="11.7995714"><ele>42.714285714285715</ele><time>2026-04-25T06:49:58.084Z</time></trkpt><trkpt lat="44.3155927" lon="11.7996283"><ele>42.57142857142857</ele><time>2026-04-25T06:50:01.11Z</time></trkpt><trkpt lat="44.3156434" lon="11.7996812"><ele>42.42857142857143</ele><time>2026-04-25T06:50:04.056Z</time></trkpt><trkpt lat="44.3156987" lon="11.7997358"><ele>42.285714285714285</ele><time>2026-04-25T06:50:07.085Z</time></trkpt><trkpt lat="44.3157556" lon="11.79979"><ele>42.142857142857146</ele><time>2026-04-25T06:50:10.106Z</time></trkpt><trkpt lat="44.3158106" lon="11.7998424"><ele>42.0</ele><time>2026-04-25T06:50:13.113Z</time></trkpt><trkpt lat="44.315871" lon="11.7998915"><ele>42.0</ele><time>2026-04-25T06:50:16.032Z</time></trkpt><trkpt lat="44.3159491" lon="11.7999538"><ele>42.0</ele><time>2026-04-25T06:50:19.072Z</time></trkpt><trkpt lat="44.3160275" lon="11.8000179"><ele>42.0</ele><time>2026-04-25T06:50:22.1Z</time></trkpt><trkpt lat="44.3161104" lon="11.8000779"><ele>42.0</ele><time>2026-04-25T06:50:25.157Z</time></trkpt><trkpt lat="44.3161949" lon="11.8001369"><ele>42.0</ele><time>2026-04-25T06:50:28.122Z</time></trkpt><trkpt lat="44.3162755" lon="11.8001897"><ele>42.0</ele><time>2026-04-25T06:50:31.014Z</time></trkpt><trkpt lat="44.3163369" lon="11.8002361"><ele>42.0</ele><time>2026-04-25T06:50:33.086Z</time></trkpt><trkpt lat="44.3164192" lon="11.8002926"><ele>42.0</ele><time>2026-04-25T06:50:36.117Z</time></trkpt><trkpt lat="44.3165003" lon="11.800349"><ele>42.0</ele><time>2026-04-25T06:50:39.085Z</time></trkpt><trkpt lat="44.3165587" lon="11.8003892"><ele>42.0</ele><time>2026-04-25T06:50:41.109Z</time></trkpt><trkpt lat="44.3166388" lon="11.8004415"><ele>42.0</ele><time>2026-04-25T06:50:44.066Z</time></trkpt><trkpt lat="44.3167184" lon="11.800498"><ele>42.166666666666664</ele><time>2026-04-25T06:50:47.116Z</time></trkpt><trkpt lat="44.3167884" lon="11.8005214"><ele>42.333333333333336</ele><time>2026-04-25T06:50:49.999Z</time></trkpt><trkpt lat="44.3168334" lon="11.800438"><ele>42.5</ele><time>2026-04-25T06:50:53.109Z</time></trkpt><trkpt lat="44.3168765" lon="11.8003472"><ele>42.66666666666667</ele><time>2026-04-25T06:50:56.081Z</time></trkpt><trkpt lat="44.3169174" lon="11.8002515"><ele>42.833333333333336</ele><time>2026-04-25T06:50:59.113Z</time></trkpt><trkpt lat="44.3169599" lon="11.8001602"><ele>43.0</ele><time>2026-04-25T06:51:02.104Z</time></trkpt><trkpt lat="44.3170108" lon="11.8000794"><ele>43.0</ele><time>2026-04-25T06:51:05.034Z</time></trkpt><trkpt lat="44.3170943" lon="11.8000533"><ele>43.0</ele><time>2026-04-25T06:51:08.089Z</time></trkpt><trkpt lat="44.3171725" lon="11.8000962"><ele>43.0</ele><time>2026-04-25T06:51:11.02Z</time></trkpt><trkpt lat="44.317258" lon="11.8001439"><ele>43.0</ele><time>2026-04-25T06:51:14.109Z</time></trkpt><trkpt lat="44.317336" lon="11.8001962"><ele>43.0</ele><time>2026-04-25T06:51:17.091Z</time></trkpt><trkpt lat="44.3174154" lon="11.8002558"><ele>43.0</ele><time>2026-04-25T06:51:20.11Z</time></trkpt><trkpt lat="44.3174938" lon="11.8003101"><ele>43.16666666666667</ele><time>2026-04-25T06:51:23.099Z</time></trkpt><trkpt lat="44.3175687" lon="11.8003686"><ele>43.333333333333336</ele><time>2026-04-25T06:51:26.12Z</time></trkpt><trkpt lat="44.31765" lon="11.8004231"><ele>43.5</ele><time>2026-04-25T06:51:29.077Z</time></trkpt><trkpt lat="44.3177275" lon="11.8004794"><ele>43.666666666666664</ele><time>2026-04-25T06:51:32.037Z</time></trkpt><trkpt lat="44.3178038" lon="11.8005271"><ele>43.83333333333333</ele><time>2026-04-25T06:51:35.154Z</time></trkpt><trkpt lat="44.3178771" lon="11.8005763"><ele>44.0</ele><time>2026-04-25T06:51:38.098Z</time></trkpt><trkpt lat="44.3179556" lon="11.8006295"><ele>44.0</ele><time>2026-04-25T06:51:41.021Z</time></trkpt><trkpt lat="44.318015" lon="11.8006711"><ele>44.0</ele><time>2026-04-25T06:51:43.127Z</time></trkpt><trkpt lat="44.3180925" lon="11.800658"><ele>44.0</ele><time>2026-04-25T06:51:46.102Z</time></trkpt><trkpt lat="44.3181387" lon="11.8005769"><ele>44.0</ele><time>2026-04-25T06:51:48.997Z</time></trkpt><trkpt lat="44.3181806" lon="11.8004826"><ele>44.0</ele><time>2026-04-25T06:51:52.14Z</time></trkpt><trkpt lat="44.318227" lon="11.8003962"><ele>44.0</ele><time>2026-04-25T06:51:55.102Z</time></trkpt><trkpt lat="44.318269" lon="11.8003116"><ele>44.0</ele><time>2026-04-25T06:51:58.108Z</time></trkpt><trkpt lat="44.3183193" lon="11.8002209"><ele>44.33333333333333</ele><time>2026-04-25T06:52:01.102Z</time></trkpt><trkpt lat="44.3183703" lon="11.8001226"><ele>44.666666666666664</ele><time>2026-04-25T06:52:04.096Z</time></trkpt><trkpt lat="44.3184199" lon="11.8000185"><ele>45.0</ele><time>2026-04-25T06:52:07.069Z</time></trkpt><trkpt lat="44.318459" lon="11.7999405"><ele>45.333333333333336</ele><time>2026-04-25T06:52:09.16Z</time></trkpt><trkpt lat="44.3185005" lon="11.7998627"><ele>45.66666666666667</ele><time>2026-04-25T06:52:11.105Z</time></trkpt><trkpt lat="44.3185553" lon="11.7997464"><ele>46.0</ele><time>2026-04-25T06:52:14.021Z</time></trkpt><trkpt lat="44.3185939" lon="11.7996711"><ele>46.0</ele><time>2026-04-25T06:52:16.076Z</time></trkpt><trkpt lat="44.3186497" lon="11.7995711"><ele>46.0</ele><time>2026-04-25T06:52:19.13Z</time></trkpt><trkpt lat="44.3187015" lon="11.79946"><ele>46.0</ele><time>2026-04-25T06:52:22.083Z</time></trkpt><trkpt lat="44.3187473" lon="11.7993508"><ele>46.0</ele><time>2026-04-25T06:52:25.075Z</time></trkpt><trkpt lat="44.3187826" lon="11.7992671"><ele>46.0</ele><time>2026-04-25T06:52:28.124Z</time></trkpt><trkpt lat="44.3186997" lon="11.7992153"><ele>46.0</ele><time>2026-04-25T06:52:32.098Z</time></trkpt><trkpt lat="44.3186348" lon="11.7992145"><ele>45.833333333333336</ele><time>2026-04-25T06:52:34.097Z</time></trkpt><trkpt lat="44.3185574" lon="11.7991791"><ele>45.66666666666667</ele><time>2026-04-25T06:52:37.082Z</time></trkpt><trkpt lat="44.3184938" lon="11.7991267"><ele>45.5</ele><time>2026-04-25T06:52:40.07Z</time></trkpt><trkpt lat="44.3184286" lon="11.7990732"><ele>45.333333333333336</ele><time>2026-04-25T06:52:43.104Z</time></trkpt><trkpt lat="44.3183639" lon="11.7990073"><ele>45.166666666666664</ele><time>2026-04-25T06:52:46.038Z</time></trkpt><trkpt lat="44.3182911" lon="11.7989446"><ele>45.0</ele><time>2026-04-25T06:52:49.085Z</time></trkpt><trkpt lat="44.3182165" lon="11.798892"><ele>45.0</ele><time>2026-04-25T06:52:52.1Z</time></trkpt><trkpt lat="44.3181402" lon="11.7988235"><ele>45.0</ele><time>2026-04-25T06:52:55.071Z</time></trkpt><trkpt lat="44.3180634" lon="11.7987533"><ele>45.0</ele><time>2026-04-25T06:52:58.074Z</time></trkpt><trkpt lat="44.3179965" lon="11.7986963"><ele>45.0</ele><time>2026-04-25T06:53:01.019Z</time></trkpt><trkpt lat="44.3179284" lon="11.7986405"><ele>45.0</ele><time>2026-04-25T06:53:04.075Z</time></trkpt><trkpt lat="44.3178602" lon="11.7985903"><ele>45.0</ele><time>2026-04-25T06:53:07.014Z</time></trkpt><trkpt lat="44.3177843" lon="11.7985219"><ele>45.0</ele><time>2026-04-25T06:53:10.081Z</time></trkpt><trkpt lat="44.3177146" lon="11.7984446"><ele>45.0</ele><time>2026-04-25T06:53:13.123Z</time></trkpt><trkpt lat="44.3176402" lon="11.7983861"><ele>45.0</ele><time>2026-04-25T06:53:16.104Z</time></trkpt><trkpt lat="44.3175857" lon="11.7983342"><ele>45.0</ele><time>2026-04-25T06:53:18.11Z</time></trkpt><trkpt lat="44.3175202" lon="11.7982474"><ele>45.0</ele><time>2026-04-25T06:53:21Z</time></trkpt><trkpt lat="44.3174645" lon="11.7981854"><ele>45.0</ele><time>2026-04-25T06:53:23.089Z</time></trkpt><trkpt lat="44.3174058" lon="11.7981433"><ele>45.0</ele><time>2026-04-25T06:53:25.072Z</time></trkpt><trkpt lat="44.3173492" lon="11.7980943"><ele>45.0</ele><time>2026-04-25T06:53:27.102Z</time></trkpt><trkpt lat="44.3172737" lon="11.7980226"><ele>45.0</ele><time>2026-04-25T06:53:30.082Z</time></trkpt><trkpt lat="44.3171996" lon="11.7979601"><ele>45.0</ele><time>2026-04-25T06:53:33.112Z</time></trkpt><trkpt lat="44.3171258" lon="11.7978994"><ele>45.0</ele><time>2026-04-25T06:53:36.035Z</time></trkpt><trkpt lat="44.317067" lon="11.797851"><ele>45.0</ele><time>2026-04-25T06:53:38.083Z</time></trkpt><trkpt lat="44.3169921" lon="11.7977864"><ele>44.833333333333336</ele><time>2026-04-25T06:53:41.074Z</time></trkpt><trkpt lat="44.3169158" lon="11.7977184"><ele>44.666666666666664</ele><time>2026-04-25T06:53:44.114Z</time></trkpt><trkpt lat="44.3168363" lon="11.7976475"><ele>44.5</ele><time>2026-04-25T06:53:47.096Z</time></trkpt><trkpt lat="44.3167688" lon="11.7975838"><ele>44.33333333333333</ele><time>2026-04-25T06:53:50.038Z</time></trkpt><trkpt lat="44.316703" lon="11.7975328"><ele>44.166666666666664</ele><time>2026-04-25T06:53:53.084Z</time></trkpt><trkpt lat="44.3166378" lon="11.7974868"><ele>44.0</ele><time>2026-04-25T06:53:56.071Z</time></trkpt><trkpt lat="44.3165618" lon="11.797423"><ele>44.0</ele><time>2026-04-25T06:53:59.177Z</time></trkpt><trkpt lat="44.3165057" lon="11.7973752"><ele>44.0</ele><time>2026-04-25T06:54:01.092Z</time></trkpt><trkpt lat="44.316452" lon="11.7973255"><ele>44.0</ele><time>2026-04-25T06:54:03.052Z</time></trkpt><trkpt lat="44.3163888" lon="11.7972661"><ele>44.0</ele><time>2026-04-25T06:54:05.087Z</time></trkpt><trkpt lat="44.3163316" lon="11.7972164"><ele>44.0</ele><time>2026-04-25T06:54:07.102Z</time></trkpt><trkpt lat="44.3162559" lon="11.7971546"><ele>44.0</ele><time>2026-04-25T06:54:10.083Z</time></trkpt><trkpt lat="44.316184" lon="11.7970922"><ele>44.0</ele><time>2026-04-25T06:54:13.101Z</time></trkpt><trkpt lat="44.3161052" lon="11.7970352"><ele>43.83333333333333</ele><time>2026-04-25T06:54:16.086Z</time></trkpt><trkpt lat="44.3160256" lon="11.7969852"><ele>43.666666666666664</ele><time>2026-04-25T06:54:19.094Z</time></trkpt><trkpt lat="44.3159679" lon="11.7969469"><ele>43.5</ele><time>2026-04-25T06:54:21.089Z</time></trkpt><trkpt lat="44.3158861" lon="11.7968797"><ele>43.333333333333336</ele><time>2026-04-25T06:54:24.081Z</time></trkpt><trkpt lat="44.3158322" lon="11.7968337"><ele>43.16666666666667</ele><time>2026-04-25T06:54:26.081Z</time></trkpt><trkpt lat="44.3157564" lon="11.796772"><ele>43.0</ele><time>2026-04-25T06:54:29.077Z</time></trkpt><trkpt lat="44.3156766" lon="11.796716"><ele>43.0</ele><time>2026-04-25T06:54:32.091Z</time></trkpt><trkpt lat="44.3155962" lon="11.7966607"><ele>43.0</ele><time>2026-04-25T06:54:35.076Z</time></trkpt><trkpt lat="44.3155181" lon="11.7966063"><ele>43.0</ele><time>2026-04-25T06:54:38.107Z</time></trkpt><trkpt lat="44.3154433" lon="11.7965513"><ele>43.0</ele><time>2026-04-25T06:54:41.038Z</time></trkpt><trkpt lat="44.3153584" lon="11.7964877"><ele>43.0</ele><time>2026-04-25T06:54:44.095Z</time></trkpt><trkpt lat="44.3152796" lon="11.7964265"><ele>43.0</ele><time>2026-04-25T06:54:46.999Z</time></trkpt><trkpt lat="44.315221" lon="11.7963856"><ele>43.333333333333336</ele><time>2026-04-25T06:54:49.085Z</time></trkpt><trkpt lat="44.3151477" lon="11.7963281"><ele>43.66666666666667</ele><time>2026-04-25T06:54:52.103Z</time></trkpt><trkpt lat="44.3150832" lon="11.7962734"><ele>44.0</ele><time>2026-04-25T06:54:55.013Z</time></trkpt><trkpt lat="44.3150069" lon="11.7962158"><ele>44.333333333333336</ele><time>2026-04-25T06:54:58.109Z</time></trkpt><trkpt lat="44.314934" lon="11.7961598"><ele>44.666666666666664</ele><time>2026-04-25T06:55:01.097Z</time></trkpt><trkpt lat="44.3148623" lon="11.7961022"><ele>45.0</ele><time>2026-04-25T06:55:04.109Z</time></trkpt><trkpt lat="44.3147939" lon="11.7960418"><ele>44.833333333333336</ele><time>2026-04-25T06:55:07.077Z</time></trkpt><trkpt lat="44.3147259" lon="11.7959778"><ele>44.666666666666664</ele><time>2026-04-25T06:55:10.036Z</time></trkpt><trkpt lat="44.3146494" lon="11.7959147"><ele>44.5</ele><time>2026-04-25T06:55:13.107Z</time></trkpt><trkpt lat="44.3145765" lon="11.795851"><ele>44.33333333333333</ele><time>2026-04-25T06:55:16.111Z</time></trkpt><trkpt lat="44.3145059" lon="11.7957887"><ele>44.166666666666664</ele><time>2026-04-25T06:55:19.069Z</time></trkpt><trkpt lat="44.3144347" lon="11.7957288"><ele>44.0</ele><time>2026-04-25T06:55:22.085Z</time></trkpt><trkpt lat="44.3143551" lon="11.7956704"><ele>44.0</ele><time>2026-04-25T06:55:25.108Z</time></trkpt><trkpt lat="44.314279" lon="11.7956138"><ele>44.0</ele><time>2026-04-25T06:55:28.12Z</time></trkpt><trkpt lat="44.3142222" lon="11.7955758"><ele>44.0</ele><time>2026-04-25T06:55:30.127Z</time></trkpt><trkpt lat="44.3141405" lon="11.795517"><ele>44.0</ele><time>2026-04-25T06:55:33.117Z</time></trkpt><trkpt lat="44.3140627" lon="11.7954563"><ele>44.0</ele><time>2026-04-25T06:55:36.091Z</time></trkpt><trkpt lat="44.3139958" lon="11.7953532"><ele>44.0</ele><time>2026-04-25T06:55:39.108Z</time></trkpt><trkpt lat="44.3139769" lon="11.7952252"><ele>43.83333333333333</ele><time>2026-04-25T06:55:42.083Z</time></trkpt><trkpt lat="44.3140039" lon="11.7951063"><ele>43.666666666666664</ele><time>2026-04-25T06:55:45.077Z</time></trkpt><trkpt lat="44.314029" lon="11.7950247"><ele>43.5</ele><time>2026-04-25T06:55:47.103Z</time></trkpt><trkpt lat="44.3140672" lon="11.7949123"><ele>43.333333333333336</ele><time>2026-04-25T06:55:50.097Z</time></trkpt><trkpt lat="44.3141051" lon="11.7948018"><ele>43.16666666666667</ele><time>2026-04-25T06:55:53.056Z</time></trkpt><trkpt lat="44.3141427" lon="11.7946799"><ele>43.0</ele><time>2026-04-25T06:55:56.156Z</time></trkpt><trkpt lat="44.3141867" lon="11.7945736"><ele>43.0</ele><time>2026-04-25T06:55:59.139Z</time></trkpt><trkpt lat="44.3142138" lon="11.794465"><ele>43.0</ele><time>2026-04-25T06:56:02.079Z</time></trkpt><trkpt lat="44.3142323" lon="11.7943773"><ele>43.0</ele><time>2026-04-25T06:56:04.105Z</time></trkpt><trkpt lat="44.3142529" lon="11.7942939"><ele>43.0</ele><time>2026-04-25T06:56:06.09Z</time></trkpt><trkpt lat="44.3142866" lon="11.7941914"><ele>43.0</ele><time>2026-04-25T06:56:09.021Z</time></trkpt><trkpt lat="44.314324" lon="11.7940816"><ele>43.0</ele><time>2026-04-25T06:56:12.104Z</time></trkpt><trkpt lat="44.3143211" lon="11.7939796"><ele>43.16666666666667</ele><time>2026-04-25T06:56:15.132Z</time></trkpt><trkpt lat="44.3142356" lon="11.7939631"><ele>43.333333333333336</ele><time>2026-04-25T06:56:18.02Z</time></trkpt><trkpt lat="44.314173" lon="11.793949"><ele>43.5</ele><time>2026-04-25T06:56:20.134Z</time></trkpt><trkpt lat="44.3141094" lon="11.7939356"><ele>43.666666666666664</ele><time>2026-04-25T06:56:22.091Z</time></trkpt><trkpt lat="44.3140248" lon="11.7939161"><ele>43.83333333333333</ele><time>2026-04-25T06:56:25.091Z</time></trkpt><trkpt lat="44.3139486" lon="11.7938995"><ele>44.0</ele><time>2026-04-25T06:56:28.14Z</time></trkpt><trkpt lat="44.3138695" lon="11.7938724"><ele>44.0</ele><time>2026-04-25T06:56:31.102Z</time></trkpt><trkpt lat="44.3137886" lon="11.7938549"><ele>44.0</ele><time>2026-04-25T06:56:34.12Z</time></trkpt><trkpt lat="44.3137254" lon="11.7938313"><ele>44.0</ele><time>2026-04-25T06:56:36.122Z</time></trkpt><trkpt lat="44.3136635" lon="11.7938057"><ele>44.0</ele><time>2026-04-25T06:56:38.091Z</time></trkpt><trkpt lat="44.3135733" lon="11.7937795"><ele>44.0</ele><time>2026-04-25T06:56:41.097Z</time></trkpt><trkpt lat="44.313511" lon="11.7937653"><ele>44.0</ele><time>2026-04-25T06:56:43.11Z</time></trkpt><trkpt lat="44.3134435" lon="11.7937664"><ele>44.0</ele><time>2026-04-25T06:56:45.093Z</time></trkpt><trkpt lat="44.3133803" lon="11.7937719"><ele>44.0</ele><time>2026-04-25T06:56:47.019Z</time></trkpt><trkpt lat="44.3133137" lon="11.7937735"><ele>44.0</ele><time>2026-04-25T06:56:49.099Z</time></trkpt><trkpt lat="44.3132491" lon="11.7937693"><ele>44.0</ele><time>2026-04-25T06:56:51.084Z</time></trkpt><trkpt lat="44.3131596" lon="11.7937654"><ele>44.0</ele><time>2026-04-25T06:56:53.98Z</time></trkpt><trkpt lat="44.3130927" lon="11.7937688"><ele>44.0</ele><time>2026-04-25T06:56:56.063Z</time></trkpt><trkpt lat="44.3130265" lon="11.7937715"><ele>44.0</ele><time>2026-04-25T06:56:58.086Z</time></trkpt><trkpt lat="44.3129636" lon="11.7937769"><ele>44.0</ele><time>2026-04-25T06:57:00.101Z</time></trkpt><trkpt lat="44.3128732" lon="11.7937796"><ele>44.0</ele><time>2026-04-25T06:57:03.018Z</time></trkpt><trkpt lat="44.3127831" lon="11.7937778"><ele>44.0</ele><time>2026-04-25T06:57:06.112Z</time></trkpt><trkpt lat="44.3126897" lon="11.7937824"><ele>44.0</ele><time>2026-04-25T06:57:09.075Z</time></trkpt><trkpt lat="44.3126025" lon="11.7937779"><ele>44.0</ele><time>2026-04-25T06:57:12.08Z</time></trkpt><trkpt lat="44.3125119" lon="11.793785"><ele>44.0</ele><time>2026-04-25T06:57:15.089Z</time></trkpt><trkpt lat="44.3124298" lon="11.7937809"><ele>44.0</ele><time>2026-04-25T06:57:18.077Z</time></trkpt><trkpt lat="44.3123444" lon="11.7937715"><ele>44.0</ele><time>2026-04-25T06:57:21.135Z</time></trkpt><trkpt lat="44.3122558" lon="11.793753"><ele>44.0</ele><time>2026-04-25T06:57:24.091Z</time></trkpt><trkpt lat="44.3121656" lon="11.7937305"><ele>44.0</ele><time>2026-04-25T06:57:27.125Z</time></trkpt><trkpt lat="44.3120768" lon="11.7937015"><ele>44.0</ele><time>2026-04-25T06:57:30.103Z</time></trkpt><trkpt lat="44.3119879" lon="11.7936765"><ele>44.0</ele><time>2026-04-25T06:57:33.021Z</time></trkpt><trkpt lat="44.3119027" lon="11.7936634"><ele>44.0</ele><time>2026-04-25T06:57:36.112Z</time></trkpt><trkpt lat="44.311827" lon="11.7936444"><ele>43.83333333333333</ele><time>2026-04-25T06:57:39.103Z</time></trkpt><trkpt lat="44.3117513" lon="11.7936212"><ele>43.666666666666664</ele><time>2026-04-25T06:57:42.078Z</time></trkpt><trkpt lat="44.3116895" lon="11.7935989"><ele>43.5</ele><time>2026-04-25T06:57:44.099Z</time></trkpt><trkpt lat="44.3116277" lon="11.7935807"><ele>43.333333333333336</ele><time>2026-04-25T06:57:46.117Z</time></trkpt><trkpt lat="44.3115392" lon="11.7935566"><ele>43.16666666666667</ele><time>2026-04-25T06:57:49.049Z</time></trkpt><trkpt lat="44.3114727" lon="11.7935571"><ele>43.0</ele><time>2026-04-25T06:57:51.113Z</time></trkpt><trkpt lat="44.3113813" lon="11.793561"><ele>43.0</ele><time>2026-04-25T06:57:54.087Z</time></trkpt><trkpt lat="44.3112886" lon="11.7935671"><ele>43.0</ele><time>2026-04-25T06:57:57.066Z</time></trkpt><trkpt lat="44.3112246" lon="11.7935775"><ele>43.0</ele><time>2026-04-25T06:57:59.157Z</time></trkpt><trkpt lat="44.3111439" lon="11.7935913"><ele>43.0</ele><time>2026-04-25T06:58:02.092Z</time></trkpt><trkpt lat="44.3110553" lon="11.793614"><ele>43.0</ele><time>2026-04-25T06:58:05.04Z</time></trkpt><trkpt lat="44.3109866" lon="11.7936184"><ele>43.0</ele><time>2026-04-25T06:58:07.138Z</time></trkpt><trkpt lat="44.3109216" lon="11.7936198"><ele>43.0</ele><time>2026-04-25T06:58:09.119Z</time></trkpt><trkpt lat="44.3108563" lon="11.7936301"><ele>43.0</ele><time>2026-04-25T06:58:11.106Z</time></trkpt><trkpt lat="44.3107592" lon="11.7936394"><ele>43.0</ele><time>2026-04-25T06:58:14.072Z</time></trkpt><trkpt lat="44.3106924" lon="11.7936487"><ele>43.0</ele><time>2026-04-25T06:58:16.119Z</time></trkpt><trkpt lat="44.3106023" lon="11.7936632"><ele>43.0</ele><time>2026-04-25T06:58:19.105Z</time></trkpt><trkpt lat="44.3105137" lon="11.7936664"><ele>43.0</ele><time>2026-04-25T06:58:22.133Z</time></trkpt><trkpt lat="44.3104232" lon="11.7936832"><ele>43.0</ele><time>2026-04-25T06:58:25.116Z</time></trkpt><trkpt lat="44.3103409" lon="11.7936932"><ele>43.0</ele><time>2026-04-25T06:58:28.095Z</time></trkpt><trkpt lat="44.3102482" lon="11.7937054"><ele>43.0</ele><time>2026-04-25T06:58:31.112Z</time></trkpt><trkpt lat="44.3101835" lon="11.7937151"><ele>43.0</ele><time>2026-04-25T06:58:33.112Z</time></trkpt><trkpt lat="44.3101167" lon="11.7937258"><ele>43.0</ele><time>2026-04-25T06:58:35.063Z</time></trkpt><trkpt lat="44.3100423" lon="11.7937333"><ele>43.0</ele><time>2026-04-25T06:58:37.092Z</time></trkpt><trkpt lat="44.3099748" lon="11.7937328"><ele>43.0</ele><time>2026-04-25T06:58:39.093Z</time></trkpt><trkpt lat="44.3098804" lon="11.7937259"><ele>43.0</ele><time>2026-04-25T06:58:42.056Z</time></trkpt><trkpt lat="44.3098129" lon="11.7937276"><ele>43.0</ele><time>2026-04-25T06:58:44.099Z</time></trkpt><trkpt lat="44.3097234" lon="11.7937342"><ele>43.0</ele><time>2026-04-25T06:58:47.094Z</time></trkpt><trkpt lat="44.3096359" lon="11.7937493"><ele>43.0</ele><time>2026-04-25T06:58:50.104Z</time></trkpt><trkpt lat="44.3095494" lon="11.7937726"><ele>43.0</ele><time>2026-04-25T06:58:53.1Z</time></trkpt><trkpt lat="44.3094602" lon="11.7938048"><ele>43.00000000000001</ele><time>2026-04-25T06:58:56.081Z</time></trkpt><trkpt lat="44.3093976" lon="11.7938251"><ele>43.0</ele><time>2026-04-25T06:58:58.018Z</time></trkpt><trkpt lat="44.309332" lon="11.7938358"><ele>43.0</ele><time>2026-04-25T06:59:00.116Z</time></trkpt><trkpt lat="44.3092645" lon="11.7938388"><ele>43.0</ele><time>2026-04-25T06:59:02.061Z</time></trkpt><trkpt lat="44.3091986" lon="11.7938305"><ele>43.0</ele><time>2026-04-25T06:59:04.081Z</time></trkpt><trkpt lat="44.3091365" lon="11.7938085"><ele>43.00000000000001</ele><time>2026-04-25T06:59:06.074Z</time></trkpt><trkpt lat="44.3090482" lon="11.7937596"><ele>43.0</ele><time>2026-04-25T06:59:09.085Z</time></trkpt><trkpt lat="44.3089678" lon="11.7937029"><ele>43.0</ele><time>2026-04-25T06:59:12.113Z</time></trkpt><trkpt lat="44.3088888" lon="11.7936521"><ele>43.0</ele><time>2026-04-25T06:59:15.079Z</time></trkpt><trkpt lat="44.3088145" lon="11.7936031"><ele>43.0</ele><time>2026-04-25T06:59:18.091Z</time></trkpt><trkpt lat="44.3087427" lon="11.7935559"><ele>43.0</ele><time>2026-04-25T06:59:21.108Z</time></trkpt><trkpt lat="44.3086659" lon="11.7935106"><ele>43.0</ele><time>2026-04-25T06:59:24.081Z</time></trkpt><trkpt lat="44.3086056" lon="11.7934715"><ele>43.0</ele><time>2026-04-25T06:59:26.1Z</time></trkpt><trkpt lat="44.3085461" lon="11.7934313"><ele>43.16666666666667</ele><time>2026-04-25T06:59:28.111Z</time></trkpt><trkpt lat="44.3084637" lon="11.7933795"><ele>43.333333333333336</ele><time>2026-04-25T06:59:31.057Z</time></trkpt><trkpt lat="44.308383" lon="11.7933234"><ele>43.5</ele><time>2026-04-25T06:59:34.083Z</time></trkpt><trkpt lat="44.3083002" lon="11.7932677"><ele>43.666666666666664</ele><time>2026-04-25T06:59:37.073Z</time></trkpt><trkpt lat="44.308216" lon="11.7932179"><ele>43.83333333333333</ele><time>2026-04-25T06:59:40.177Z</time></trkpt><trkpt lat="44.3081565" lon="11.7931804"><ele>44.0</ele><time>2026-04-25T06:59:42.106Z</time></trkpt><trkpt lat="44.3080938" lon="11.7931413"><ele>44.33333333333333</ele><time>2026-04-25T06:59:44.085Z</time></trkpt><trkpt lat="44.3080357" lon="11.7931033"><ele>44.666666666666664</ele><time>2026-04-25T06:59:46.094Z</time></trkpt><trkpt lat="44.3079488" lon="11.793058"><ele>45.0</ele><time>2026-04-25T06:59:49.086Z</time></trkpt><trkpt lat="44.3078591" lon="11.7930357"><ele>45.333333333333336</ele><time>2026-04-25T06:59:52.094Z</time></trkpt><trkpt lat="44.3077714" lon="11.793044"><ele>45.66666666666667</ele><time>2026-04-25T06:59:55.109Z</time></trkpt><trkpt lat="44.3076895" lon="11.7930904"><ele>46.0</ele><time>2026-04-25T06:59:58.1Z</time></trkpt><trkpt lat="44.3076179" lon="11.7931377"><ele>46.0</ele><time>2026-04-25T07:00:01.072Z</time></trkpt><trkpt lat="44.3075389" lon="11.7931791"><ele>46.0</ele><time>2026-04-25T07:00:04.099Z</time></trkpt><trkpt lat="44.307451" lon="11.7932012"><ele>46.0</ele><time>2026-04-25T07:00:06.976Z</time></trkpt><trkpt lat="44.3073628" lon="11.7931876"><ele>46.0</ele><time>2026-04-25T07:00:10.029Z</time></trkpt><trkpt lat="44.3072996" lon="11.7931586"><ele>46.0</ele><time>2026-04-25T07:00:12.097Z</time></trkpt><trkpt lat="44.3072403" lon="11.7931138"><ele>46.0</ele><time>2026-04-25T07:00:14.098Z</time></trkpt><trkpt lat="44.3071632" lon="11.7930468"><ele>45.833333333333336</ele><time>2026-04-25T07:00:17.029Z</time></trkpt><trkpt lat="44.3070885" lon="11.7929656"><ele>45.66666666666667</ele><time>2026-04-25T07:00:20.157Z</time></trkpt><trkpt lat="44.3070204" lon="11.792883"><ele>45.5</ele><time>2026-04-25T07:00:23.097Z</time></trkpt><trkpt lat="44.3069586" lon="11.7928019"><ele>45.333333333333336</ele><time>2026-04-25T07:00:26.053Z</time></trkpt><trkpt lat="44.3068894" lon="11.7927181"><ele>45.166666666666664</ele><time>2026-04-25T07:00:29.114Z</time></trkpt><trkpt lat="44.3068291" lon="11.7926375"><ele>45.0</ele><time>2026-04-25T07:00:32.008Z</time></trkpt><trkpt lat="44.3067727" lon="11.7925611"><ele>45.0</ele><time>2026-04-25T07:00:35.098Z</time></trkpt><trkpt lat="44.3067097" lon="11.7924955"><ele>45.0</ele><time>2026-04-25T07:00:37.988Z</time></trkpt><trkpt lat="44.3066417" lon="11.7924097"><ele>45.0</ele><time>2026-04-25T07:00:41.152Z</time></trkpt><trkpt lat="44.3065986" lon="11.7923209"><ele>45.0</ele><time>2026-04-25T07:00:44.067Z</time></trkpt><trkpt lat="44.3065681" lon="11.7922183"><ele>45.0</ele><time>2026-04-25T07:00:47.134Z</time></trkpt><trkpt lat="44.3065557" lon="11.792104"><ele>45.0</ele><time>2026-04-25T07:00:50.079Z</time></trkpt><trkpt lat="44.3065501" lon="11.7919806"><ele>45.0</ele><time>2026-04-25T07:00:53.1Z</time></trkpt><trkpt lat="44.3065407" lon="11.791855"><ele>45.0</ele><time>2026-04-25T07:00:56.105Z</time></trkpt><trkpt lat="44.3065257" lon="11.7917286"><ele>45.0</ele><time>2026-04-25T07:00:59.055Z</time></trkpt><trkpt lat="44.3065171" lon="11.7916374"><ele>45.0</ele><time>2026-04-25T07:01:01.111Z</time></trkpt><trkpt lat="44.3065084" lon="11.7915133"><ele>45.0</ele><time>2026-04-25T07:01:04.089Z</time></trkpt><trkpt lat="44.3065072" lon="11.7913847"><ele>45.0</ele><time>2026-04-25T07:01:07.131Z</time></trkpt><trkpt lat="44.3065078" lon="11.791295"><ele>45.0</ele><time>2026-04-25T07:01:09.092Z</time></trkpt><trkpt lat="44.3065105" lon="11.7912024"><ele>45.0</ele><time>2026-04-25T07:01:11.132Z</time></trkpt><trkpt lat="44.3065233" lon="11.7910712"><ele>45.0</ele><time>2026-04-25T07:01:14.056Z</time></trkpt><trkpt lat="44.3065297" lon="11.7909766"><ele>45.0</ele><time>2026-04-25T07:01:16.053Z</time></trkpt><trkpt lat="44.3065455" lon="11.7908827"><ele>45.0</ele><time>2026-04-25T07:01:18.076Z</time></trkpt><trkpt lat="44.3065618" lon="11.7907905"><ele>45.0</ele><time>2026-04-25T07:01:20.088Z</time></trkpt><trkpt lat="44.3065804" lon="11.7906657"><ele>45.14285714285714</ele><time>2026-04-25T07:01:23.071Z</time></trkpt><trkpt lat="44.3066069" lon="11.7905465"><ele>45.28571428571429</ele><time>2026-04-25T07:01:26.082Z</time></trkpt><trkpt lat="44.3066271" lon="11.7904607"><ele>45.42857142857143</ele><time>2026-04-25T07:01:28.108Z</time></trkpt><trkpt lat="44.3066518" lon="11.7903787"><ele>45.57142857142857</ele><time>2026-04-25T07:01:30.08Z</time></trkpt><trkpt lat="44.3066867" lon="11.790294"><ele>45.71428571428571</ele><time>2026-04-25T07:01:32.082Z</time></trkpt><trkpt lat="44.3067237" lon="11.7902063"><ele>45.85714285714286</ele><time>2026-04-25T07:01:34.112Z</time></trkpt><trkpt lat="44.3067651" lon="11.7901172"><ele>46.0</ele><time>2026-04-25T07:01:36.121Z</time></trkpt><trkpt lat="44.3068066" lon="11.7900336"><ele>45.66666666666667</ele><time>2026-04-25T07:01:38.111Z</time></trkpt><trkpt lat="44.3068406" lon="11.7899563"><ele>45.333333333333336</ele><time>2026-04-25T07:01:40.063Z</time></trkpt><trkpt lat="44.3068902" lon="11.7898439"><ele>45.0</ele><time>2026-04-25T07:01:43.128Z</time></trkpt><trkpt lat="44.3069434" lon="11.7897392"><ele>44.666666666666664</ele><time>2026-04-25T07:01:46.096Z</time></trkpt><trkpt lat="44.3069855" lon="11.7896265"><ele>44.33333333333333</ele><time>2026-04-25T07:01:49.012Z</time></trkpt><trkpt lat="44.3070179" lon="11.7895461"><ele>44.0</ele><time>2026-04-25T07:01:51.112Z</time></trkpt><trkpt lat="44.3070474" lon="11.7894626"><ele>44.0</ele><time>2026-04-25T07:01:53.15Z</time></trkpt><trkpt lat="44.3070757" lon="11.7893829"><ele>44.0</ele><time>2026-04-25T07:01:55.091Z</time></trkpt><trkpt lat="44.3071075" lon="11.7893047"><ele>44.0</ele><time>2026-04-25T07:01:57.085Z</time></trkpt><trkpt lat="44.3071418" lon="11.7892257"><ele>44.0</ele><time>2026-04-25T07:01:59.101Z</time></trkpt><trkpt lat="44.3071877" lon="11.7891145"><ele>44.0</ele><time>2026-04-25T07:02:02.108Z</time></trkpt><trkpt lat="44.3072324" lon="11.7890124"><ele>44.0</ele><time>2026-04-25T07:02:05.089Z</time></trkpt><trkpt lat="44.3072761" lon="11.7889072"><ele>44.0</ele><time>2026-04-25T07:02:08.107Z</time></trkpt><trkpt lat="44.3073103" lon="11.7888263"><ele>44.0</ele><time>2026-04-25T07:02:10.116Z</time></trkpt><trkpt lat="44.3073476" lon="11.7887461"><ele>44.0</ele><time>2026-04-25T07:02:12.103Z</time></trkpt><trkpt lat="44.3073971" lon="11.7886322"><ele>44.0</ele><time>2026-04-25T07:02:15.052Z</time></trkpt><trkpt lat="44.3074345" lon="11.7885516"><ele>44.0</ele><time>2026-04-25T07:02:17.135Z</time></trkpt><trkpt lat="44.3074803" lon="11.7884416"><ele>44.0</ele><time>2026-04-25T07:02:20.095Z</time></trkpt><trkpt lat="44.307527" lon="11.7883358"><ele>44.166666666666664</ele><time>2026-04-25T07:02:23.046Z</time></trkpt><trkpt lat="44.3075642" lon="11.7882614"><ele>44.33333333333333</ele><time>2026-04-25T07:02:25.108Z</time></trkpt><trkpt lat="44.3076003" lon="11.7881851"><ele>44.5</ele><time>2026-04-25T07:02:27.132Z</time></trkpt><trkpt lat="44.3076459" lon="11.7880771"><ele>44.666666666666664</ele><time>2026-04-25T07:02:30.007Z</time></trkpt><trkpt lat="44.3076843" lon="11.7879628"><ele>44.833333333333336</ele><time>2026-04-25T07:02:33.11Z</time></trkpt><trkpt lat="44.3077201" lon="11.787846"><ele>45.0</ele><time>2026-04-25T07:02:36.073Z</time></trkpt><trkpt lat="44.3077471" lon="11.7877283"><ele>45.166666666666664</ele><time>2026-04-25T07:02:39.13Z</time></trkpt><trkpt lat="44.3077615" lon="11.7876015"><ele>45.333333333333336</ele><time>2026-04-25T07:02:42.11Z</time></trkpt><trkpt lat="44.3077694" lon="11.7874799"><ele>45.5</ele><time>2026-04-25T07:02:45.053Z</time></trkpt><trkpt lat="44.3077655" lon="11.787354"><ele>45.66666666666667</ele><time>2026-04-25T07:02:48.098Z</time></trkpt><trkpt lat="44.3077635" lon="11.7872291"><ele>45.833333333333336</ele><time>2026-04-25T07:02:51.089Z</time></trkpt><trkpt lat="44.3077636" lon="11.7871066"><ele>46.0</ele><time>2026-04-25T07:02:54.11Z</time></trkpt><trkpt lat="44.3077636" lon="11.7869864"><ele>46.0</ele><time>2026-04-25T07:02:57.126Z</time></trkpt><trkpt lat="44.3077701" lon="11.7868724"><ele>46.0</ele><time>2026-04-25T07:03:00.094Z</time></trkpt><trkpt lat="44.3077857" lon="11.786752"><ele>46.0</ele><time>2026-04-25T07:03:03.134Z</time></trkpt><trkpt lat="44.3078048" lon="11.7866346"><ele>46.0</ele><time>2026-04-25T07:03:06.072Z</time></trkpt><trkpt lat="44.3078301" lon="11.7865127"><ele>46.0</ele><time>2026-04-25T07:03:09.09Z</time></trkpt><trkpt lat="44.3078514" lon="11.7864018"><ele>46.0</ele><time>2026-04-25T07:03:11.989Z</time></trkpt><trkpt lat="44.3078728" lon="11.7862814"><ele>46.16666666666667</ele><time>2026-04-25T07:03:15.098Z</time></trkpt><trkpt lat="44.3078929" lon="11.786166"><ele>46.333333333333336</ele><time>2026-04-25T07:03:18.067Z</time></trkpt><trkpt lat="44.3079123" lon="11.7860432"><ele>46.5</ele><time>2026-04-25T07:03:21.108Z</time></trkpt><trkpt lat="44.3079405" lon="11.7859177"><ele>46.666666666666664</ele><time>2026-04-25T07:03:24.102Z</time></trkpt><trkpt lat="44.3079687" lon="11.7857917"><ele>46.83333333333333</ele><time>2026-04-25T07:03:27.07Z</time></trkpt><trkpt lat="44.3079901" lon="11.7857023"><ele>47.0</ele><time>2026-04-25T07:03:29.092Z</time></trkpt><trkpt lat="44.3080095" lon="11.7856155"><ele>47.2</ele><time>2026-04-25T07:03:31.117Z</time></trkpt><trkpt lat="44.3080491" lon="11.7855021"><ele>47.400000000000006</ele><time>2026-04-25T07:03:34.056Z</time></trkpt><trkpt lat="44.3080968" lon="11.7853816"><ele>47.599999999999994</ele><time>2026-04-25T07:03:37.102Z</time></trkpt><trkpt lat="44.3081432" lon="11.7852715"><ele>47.8</ele><time>2026-04-25T07:03:40.098Z</time></trkpt><trkpt lat="44.3081894" lon="11.7851655"><ele>48.0</ele><time>2026-04-25T07:03:43.006Z</time></trkpt><trkpt lat="44.308236" lon="11.7850582"><ele>48.0</ele><time>2026-04-25T07:03:46.073Z</time></trkpt><trkpt lat="44.3082765" lon="11.7849399"><ele>48.0</ele><time>2026-04-25T07:03:49.069Z</time></trkpt><trkpt lat="44.3083204" lon="11.7848263"><ele>48.0</ele><time>2026-04-25T07:03:52.051Z</time></trkpt><trkpt lat="44.3083559" lon="11.7847437"><ele>48.0</ele><time>2026-04-25T07:03:54.043Z</time></trkpt><trkpt lat="44.3083853" lon="11.7846376"><ele>48.0</ele><time>2026-04-25T07:03:57.052Z</time></trkpt><trkpt lat="44.308416" lon="11.7845325"><ele>48.0</ele><time>2026-04-25T07:04:00.028Z</time></trkpt><trkpt lat="44.3084546" lon="11.7844573"><ele>48.0</ele><time>2026-04-25T07:04:02.056Z</time></trkpt><trkpt lat="44.3084899" lon="11.7843824"><ele>48.0</ele><time>2026-04-25T07:04:04.054Z</time></trkpt><trkpt lat="44.3085329" lon="11.7842771"><ele>48.0</ele><time>2026-04-25T07:04:07.012Z</time></trkpt><trkpt lat="44.3085797" lon="11.7841653"><ele>48.0</ele><time>2026-04-25T07:04:10.053Z</time></trkpt><trkpt lat="44.308625" lon="11.7840614"><ele>48.0</ele><time>2026-04-25T07:04:12.984Z</time></trkpt><trkpt lat="44.3086574" lon="11.7839825"><ele>48.0</ele><time>2026-04-25T07:04:15.044Z</time></trkpt><trkpt lat="44.3086984" lon="11.7838754"><ele>48.0</ele><time>2026-04-25T07:04:17.951Z</time></trkpt><trkpt lat="44.3087371" lon="11.7838006"><ele>48.0</ele><time>2026-04-25T07:04:20.047Z</time></trkpt><trkpt lat="44.3087867" lon="11.7837101"><ele>48.0</ele><time>2026-04-25T07:04:23.047Z</time></trkpt><trkpt lat="44.3088249" lon="11.7836184"><ele>48.0</ele><time>2026-04-25T07:04:26.047Z</time></trkpt><trkpt lat="44.3088608" lon="11.7835161"><ele>48.0</ele><time>2026-04-25T07:04:29.107Z</time></trkpt><trkpt lat="44.3088927" lon="11.7834093"><ele>48.0</ele><time>2026-04-25T07:04:32.106Z</time></trkpt><trkpt lat="44.3089264" lon="11.7833338"><ele>48.166666666666664</ele><time>2026-04-25T07:04:34.059Z</time></trkpt><trkpt lat="44.3089759" lon="11.783235"><ele>48.33333333333333</ele><time>2026-04-25T07:04:37.008Z</time></trkpt><trkpt lat="44.3090094" lon="11.7831544"><ele>48.5</ele><time>2026-04-25T07:04:39.112Z</time></trkpt><trkpt lat="44.3090468" lon="11.7830681"><ele>48.666666666666664</ele><time>2026-04-25T07:04:41.089Z</time></trkpt><trkpt lat="44.3090837" lon="11.7829878"><ele>48.83333333333333</ele><time>2026-04-25T07:04:43.112Z</time></trkpt><trkpt lat="44.3091234" lon="11.7828732"><ele>49.0</ele><time>2026-04-25T07:04:46.052Z</time></trkpt><trkpt lat="44.3091597" lon="11.7827558"><ele>48.99999999999999</ele><time>2026-04-25T07:04:49.116Z</time></trkpt><trkpt lat="44.3091916" lon="11.7826781"><ele>49.0</ele><time>2026-04-25T07:04:51.09Z</time></trkpt><trkpt lat="44.3092262" lon="11.7826018"><ele>49.0</ele><time>2026-04-25T07:04:53.053Z</time></trkpt><trkpt lat="44.3092619" lon="11.7825229"><ele>49.0</ele><time>2026-04-25T07:04:55.089Z</time></trkpt><trkpt lat="44.309306" lon="11.7824103"><ele>48.99999999999999</ele><time>2026-04-25T07:04:58.078Z</time></trkpt><trkpt lat="44.3093522" lon="11.7823037"><ele>49.0</ele><time>2026-04-25T07:05:01.09Z</time></trkpt><trkpt lat="44.3094008" lon="11.7822003"><ele>48.99999999999999</ele><time>2026-04-25T07:05:04.099Z</time></trkpt><trkpt lat="44.3094539" lon="11.7820987"><ele>49.0</ele><time>2026-04-25T07:05:07.095Z</time></trkpt><trkpt lat="44.3094881" lon="11.7819873"><ele>49.0</ele><time>2026-04-25T07:05:10.054Z</time></trkpt><trkpt lat="44.3094801" lon="11.781857"><ele>49.0</ele><time>2026-04-25T07:05:13.098Z</time></trkpt><trkpt lat="44.309436" lon="11.7817398"><ele>48.99999999999999</ele><time>2026-04-25T07:05:16.079Z</time></trkpt><trkpt lat="44.3093887" lon="11.7816701"><ele>49.0</ele><time>2026-04-25T07:05:18.081Z</time></trkpt><trkpt lat="44.3093402" lon="11.7816105"><ele>48.99999999999999</ele><time>2026-04-25T07:05:20.128Z</time></trkpt><trkpt lat="44.3092716" lon="11.7815412"><ele>49.0</ele><time>2026-04-25T07:05:23.09Z</time></trkpt><trkpt lat="44.3092003" lon="11.7814859"><ele>49.0</ele><time>2026-04-25T07:05:26.116Z</time></trkpt><trkpt lat="44.3091307" lon="11.7814285"><ele>49.0</ele><time>2026-04-25T07:05:29.119Z</time></trkpt><trkpt lat="44.3090555" lon="11.7813761"><ele>48.99999999999999</ele><time>2026-04-25T07:05:32.106Z</time></trkpt><trkpt lat="44.3089749" lon="11.7813178"><ele>49.0</ele><time>2026-04-25T07:05:35.086Z</time></trkpt><trkpt lat="44.3089154" lon="11.7812827"><ele>49.166666666666664</ele><time>2026-04-25T07:05:37.099Z</time></trkpt><trkpt lat="44.308854" lon="11.7812567"><ele>49.33333333333333</ele><time>2026-04-25T07:05:39.08Z</time></trkpt><trkpt lat="44.3087682" lon="11.7812143"><ele>49.5</ele><time>2026-04-25T07:05:42.031Z</time></trkpt><trkpt lat="44.3086776" lon="11.7811773"><ele>49.66666666666667</ele><time>2026-04-25T07:05:45.098Z</time></trkpt><trkpt lat="44.3086114" lon="11.7811489"><ele>49.833333333333336</ele><time>2026-04-25T07:05:47.079Z</time></trkpt><trkpt lat="44.3085463" lon="11.7811197"><ele>50.0</ele><time>2026-04-25T07:05:49.036Z</time></trkpt><trkpt lat="44.3084807" lon="11.7810744"><ele>50.00000000000001</ele><time>2026-04-25T07:05:51.108Z</time></trkpt><trkpt lat="44.3084186" lon="11.7810437"><ele>50.0</ele><time>2026-04-25T07:05:53.084Z</time></trkpt><trkpt lat="44.3083323" lon="11.7810061"><ele>50.0</ele><time>2026-04-25T07:05:56.033Z</time></trkpt><trkpt lat="44.3082452" lon="11.7809636"><ele>50.0</ele><time>2026-04-25T07:05:59.113Z</time></trkpt><trkpt lat="44.3081584" lon="11.7809231"><ele>50.00000000000001</ele><time>2026-04-25T07:06:02.102Z</time></trkpt><trkpt lat="44.3080731" lon="11.7808774"><ele>50.0</ele><time>2026-04-25T07:06:05.087Z</time></trkpt><trkpt lat="44.307993" lon="11.7808404"><ele>50.16666666666667</ele><time>2026-04-25T07:06:08.058Z</time></trkpt><trkpt lat="44.3079128" lon="11.7807903"><ele>50.333333333333336</ele><time>2026-04-25T07:06:11.153Z</time></trkpt><trkpt lat="44.3078333" lon="11.780756"><ele>50.5</ele><time>2026-04-25T07:06:14.091Z</time></trkpt><trkpt lat="44.3077446" lon="11.7807198"><ele>50.66666666666667</ele><time>2026-04-25T07:06:17.108Z</time></trkpt><trkpt lat="44.3076625" lon="11.7806761"><ele>50.833333333333336</ele><time>2026-04-25T07:06:19.99Z</time></trkpt><trkpt lat="44.3075812" lon="11.7806258"><ele>51.0</ele><time>2026-04-25T07:06:23.086Z</time></trkpt><trkpt lat="44.307505" lon="11.7805845"><ele>51.0</ele><time>2026-04-25T07:06:26.05Z</time></trkpt><trkpt lat="44.3074292" lon="11.7805386"><ele>51.0</ele><time>2026-04-25T07:06:29.098Z</time></trkpt><trkpt lat="44.3073524" lon="11.7804849"><ele>51.0</ele><time>2026-04-25T07:06:32.079Z</time></trkpt><trkpt lat="44.3072918" lon="11.7804447"><ele>51.0</ele><time>2026-04-25T07:06:34.106Z</time></trkpt><trkpt lat="44.3072299" lon="11.7804078"><ele>51.0</ele><time>2026-04-25T07:06:36.1Z</time></trkpt><trkpt lat="44.3071402" lon="11.7803502"><ele>51.0</ele><time>2026-04-25T07:06:39.051Z</time></trkpt><trkpt lat="44.3070768" lon="11.7803012"><ele>50.833333333333336</ele><time>2026-04-25T07:06:41.153Z</time></trkpt><trkpt lat="44.3069957" lon="11.7802475"><ele>50.66666666666667</ele><time>2026-04-25T07:06:44.109Z</time></trkpt><trkpt lat="44.3069213" lon="11.780188"><ele>50.5</ele><time>2026-04-25T07:06:47.094Z</time></trkpt><trkpt lat="44.3068458" lon="11.7801167"><ele>50.333333333333336</ele><time>2026-04-25T07:06:50.102Z</time></trkpt><trkpt lat="44.3067752" lon="11.7800467"><ele>50.16666666666667</ele><time>2026-04-25T07:06:53.084Z</time></trkpt><trkpt lat="44.3067003" lon="11.7799729"><ele>50.0</ele><time>2026-04-25T07:06:56.08Z</time></trkpt><trkpt lat="44.3066305" lon="11.7798886"><ele>50.00000000000001</ele><time>2026-04-25T07:06:59.063Z</time></trkpt><trkpt lat="44.3065574" lon="11.779817"><ele>50.0</ele><time>2026-04-25T07:07:02.077Z</time></trkpt><trkpt lat="44.3064812" lon="11.7797576"><ele>50.0</ele><time>2026-04-25T07:07:05.121Z</time></trkpt><trkpt lat="44.3064206" lon="11.7796963"><ele>50.0</ele><time>2026-04-25T07:07:07.082Z</time></trkpt><trkpt lat="44.3063679" lon="11.7796318"><ele>50.00000000000001</ele><time>2026-04-25T07:07:09.033Z</time></trkpt><trkpt lat="44.3063091" lon="11.7795652"><ele>50.0</ele><time>2026-04-25T07:07:11.124Z</time></trkpt><trkpt lat="44.3062549" lon="11.7795072"><ele>49.833333333333336</ele><time>2026-04-25T07:07:13.091Z</time></trkpt><trkpt lat="44.3061806" lon="11.7794264"><ele>49.66666666666667</ele><time>2026-04-25T07:07:16.061Z</time></trkpt><trkpt lat="44.3061278" lon="11.7793734"><ele>49.5</ele><time>2026-04-25T07:07:18.074Z</time></trkpt><trkpt lat="44.3060555" lon="11.779291"><ele>49.33333333333333</ele><time>2026-04-25T07:07:21.086Z</time></trkpt><trkpt lat="44.3059922" lon="11.7792179"><ele>49.166666666666664</ele><time>2026-04-25T07:07:23.787Z</time></trkpt><trkpt lat="44.3059327" lon="11.7791539"><ele>49.0</ele><time>2026-04-25T07:07:26.095Z</time></trkpt><trkpt lat="44.3058608" lon="11.7790798"><ele>49.0</ele><time>2026-04-25T07:07:29.1Z</time></trkpt><trkpt lat="44.3057933" lon="11.7790096"><ele>49.0</ele><time>2026-04-25T07:07:32.081Z</time></trkpt><trkpt lat="44.3057204" lon="11.778933"><ele>49.0</ele><time>2026-04-25T07:07:35.097Z</time></trkpt><trkpt lat="44.3056696" lon="11.7788755"><ele>49.0</ele><time>2026-04-25T07:07:37.084Z</time></trkpt><trkpt lat="44.3056183" lon="11.778815"><ele>49.0</ele><time>2026-04-25T07:07:39.087Z</time></trkpt><trkpt lat="44.3055617" lon="11.7787581"><ele>49.0</ele><time>2026-04-25T07:07:41.087Z</time></trkpt><trkpt lat="44.3055075" lon="11.7787047"><ele>49.0</ele><time>2026-04-25T07:07:43.109Z</time></trkpt><trkpt lat="44.3054336" lon="11.7786286"><ele>48.99999999999999</ele><time>2026-04-25T07:07:46.092Z</time></trkpt><trkpt lat="44.3053818" lon="11.7785763"><ele>49.0</ele><time>2026-04-25T07:07:48.123Z</time></trkpt><trkpt lat="44.3053079" lon="11.7784958"><ele>49.0</ele><time>2026-04-25T07:07:51.098Z</time></trkpt><trkpt lat="44.305232" lon="11.778415"><ele>49.0</ele><time>2026-04-25T07:07:54.075Z</time></trkpt><trkpt lat="44.3051784" lon="11.7783591"><ele>48.99999999999999</ele><time>2026-04-25T07:07:56.117Z</time></trkpt><trkpt lat="44.305103" lon="11.7782849"><ele>49.0</ele><time>2026-04-25T07:07:59.048Z</time></trkpt><trkpt lat="44.3050508" lon="11.7782327"><ele>48.99999999999999</ele><time>2026-04-25T07:08:01.13Z</time></trkpt><trkpt lat="44.3049715" lon="11.7781602"><ele>49.0</ele><time>2026-04-25T07:08:04.087Z</time></trkpt><trkpt lat="44.3049003" lon="11.7780976"><ele>49.0</ele><time>2026-04-25T07:08:06.732Z</time></trkpt><trkpt lat="44.3048407" lon="11.7780454"><ele>49.0</ele><time>2026-04-25T07:08:09.081Z</time></trkpt><trkpt lat="44.3047871" lon="11.7779979"><ele>48.99999999999999</ele><time>2026-04-25T07:08:11.085Z</time></trkpt><trkpt lat="44.3047039" lon="11.7779282"><ele>49.0</ele><time>2026-04-25T07:08:14.029Z</time></trkpt><trkpt lat="44.3046425" lon="11.7778802"><ele>49.166666666666664</ele><time>2026-04-25T07:08:16.083Z</time></trkpt><trkpt lat="44.3045809" lon="11.7778345"><ele>49.33333333333333</ele><time>2026-04-25T07:08:18.114Z</time></trkpt><trkpt lat="44.3045247" lon="11.7777904"><ele>49.5</ele><time>2026-04-25T07:08:20.088Z</time></trkpt><trkpt lat="44.3044423" lon="11.7777309"><ele>49.66666666666667</ele><time>2026-04-25T07:08:23.087Z</time></trkpt><trkpt lat="44.3043828" lon="11.7776895"><ele>49.833333333333336</ele><time>2026-04-25T07:08:25.106Z</time></trkpt><trkpt lat="44.3043036" lon="11.777624"><ele>50.0</ele><time>2026-04-25T07:08:28.093Z</time></trkpt><trkpt lat="44.3042314" lon="11.7775642"><ele>50.00000000000001</ele><time>2026-04-25T07:08:31.071Z</time></trkpt><trkpt lat="44.304155" lon="11.7775093"><ele>50.0</ele><time>2026-04-25T07:08:34.088Z</time></trkpt><trkpt lat="44.3040833" lon="11.7774538"><ele>50.0</ele><time>2026-04-25T07:08:37.014Z</time></trkpt><trkpt lat="44.3040069" lon="11.777395"><ele>50.0</ele><time>2026-04-25T07:08:40.118Z</time></trkpt><trkpt lat="44.3039317" lon="11.7773343"><ele>50.00000000000001</ele><time>2026-04-25T07:08:43.107Z</time></trkpt><trkpt lat="44.3038501" lon="11.7772741"><ele>50.0</ele><time>2026-04-25T07:08:46.115Z</time></trkpt><trkpt lat="44.3037943" lon="11.7772333"><ele>50.00000000000001</ele><time>2026-04-25T07:08:48.123Z</time></trkpt><trkpt lat="44.3037377" lon="11.7771872"><ele>50.0</ele><time>2026-04-25T07:08:50.082Z</time></trkpt><trkpt lat="44.3036821" lon="11.777139"><ele>50.0</ele><time>2026-04-25T07:08:52.105Z</time></trkpt><trkpt lat="44.3036088" lon="11.7770838"><ele>50.0</ele><time>2026-04-25T07:08:55.101Z</time></trkpt><trkpt lat="44.3035384" lon="11.7770186"><ele>50.00000000000001</ele><time>2026-04-25T07:08:58.096Z</time></trkpt><trkpt lat="44.3034589" lon="11.7769553"><ele>50.0</ele><time>2026-04-25T07:09:01.092Z</time></trkpt><trkpt lat="44.3033841" lon="11.7768959"><ele>50.333333333333336</ele><time>2026-04-25T07:09:04.069Z</time></trkpt><trkpt lat="44.3033062" lon="11.7768409"><ele>50.66666666666667</ele><time>2026-04-25T07:09:07.125Z</time></trkpt><trkpt lat="44.3032267" lon="11.7767878"><ele>51.0</ele><time>2026-04-25T07:09:10.046Z</time></trkpt><trkpt lat="44.3031425" lon="11.7767284"><ele>51.33333333333333</ele><time>2026-04-25T07:09:13.112Z</time></trkpt><trkpt lat="44.3030661" lon="11.7766736"><ele>51.666666666666664</ele><time>2026-04-25T07:09:16.077Z</time></trkpt><trkpt lat="44.3029892" lon="11.7766177"><ele>52.0</ele><time>2026-04-25T07:09:19.086Z</time></trkpt><trkpt lat="44.3029115" lon="11.7765548"><ele>52.166666666666664</ele><time>2026-04-25T07:09:22.094Z</time></trkpt><trkpt lat="44.3028316" lon="11.7764921"><ele>52.33333333333333</ele><time>2026-04-25T07:09:25.108Z</time></trkpt><trkpt lat="44.3027521" lon="11.7764341"><ele>52.5</ele><time>2026-04-25T07:09:28.127Z</time></trkpt><trkpt lat="44.3026665" lon="11.7763843"><ele>52.66666666666667</ele><time>2026-04-25T07:09:31.087Z</time></trkpt><trkpt lat="44.302583" lon="11.7763258"><ele>52.833333333333336</ele><time>2026-04-25T07:09:34.105Z</time></trkpt><trkpt lat="44.3025289" lon="11.7762752"><ele>53.0</ele><time>2026-04-25T07:09:36.087Z</time></trkpt><trkpt lat="44.3024709" lon="11.7762299"><ele>53.0</ele><time>2026-04-25T07:09:38.09Z</time></trkpt><trkpt lat="44.3023868" lon="11.7761626"><ele>53.0</ele><time>2026-04-25T07:09:41.092Z</time></trkpt><trkpt lat="44.3023322" lon="11.7761177"><ele>53.0</ele><time>2026-04-25T07:09:43.107Z</time></trkpt><trkpt lat="44.3022524" lon="11.7760579"><ele>53.0</ele><time>2026-04-25T07:09:45.97Z</time></trkpt><trkpt lat="44.3021955" lon="11.7760155"><ele>53.0</ele><time>2026-04-25T07:09:48.061Z</time></trkpt><trkpt lat="44.302141" lon="11.7759703"><ele>53.0</ele><time>2026-04-25T07:09:50.09Z</time></trkpt><trkpt lat="44.3020867" lon="11.7759234"><ele>53.0</ele><time>2026-04-25T07:09:52.092Z</time></trkpt><trkpt lat="44.3020081" lon="11.7758534"><ele>52.66666666666667</ele><time>2026-04-25T07:09:55.052Z</time></trkpt><trkpt lat="44.3019528" lon="11.7758109"><ele>52.333333333333336</ele><time>2026-04-25T07:09:57.115Z</time></trkpt><trkpt lat="44.3018743" lon="11.7757445"><ele>52.0</ele><time>2026-04-25T07:10:00.079Z</time></trkpt><trkpt lat="44.3017985" lon="11.7756752"><ele>51.66666666666667</ele><time>2026-04-25T07:10:03.088Z</time></trkpt><trkpt lat="44.3017244" lon="11.7756064"><ele>51.333333333333336</ele><time>2026-04-25T07:10:05.974Z</time></trkpt><trkpt lat="44.301672" lon="11.775554"><ele>51.0</ele><time>2026-04-25T07:10:08.03Z</time></trkpt><trkpt lat="44.301598" lon="11.7754905"><ele>51.0</ele><time>2026-04-25T07:10:11.078Z</time></trkpt><trkpt lat="44.3015257" lon="11.7754257"><ele>51.0</ele><time>2026-04-25T07:10:14.022Z</time></trkpt><trkpt lat="44.3014495" lon="11.7753617"><ele>51.0</ele><time>2026-04-25T07:10:17.113Z</time></trkpt><trkpt lat="44.3013742" lon="11.7752959"><ele>51.0</ele><time>2026-04-25T07:10:20.064Z</time></trkpt><trkpt lat="44.3012985" lon="11.7752194"><ele>51.0</ele><time>2026-04-25T07:10:23.128Z</time></trkpt><trkpt lat="44.3012204" lon="11.7751571"><ele>51.0</ele><time>2026-04-25T07:10:26.086Z</time></trkpt><trkpt lat="44.3011493" lon="11.7750822"><ele>51.166666666666664</ele><time>2026-04-25T07:10:29.13Z</time></trkpt><trkpt lat="44.301083" lon="11.7750186"><ele>51.33333333333333</ele><time>2026-04-25T07:10:32.094Z</time></trkpt><trkpt lat="44.3010139" lon="11.7749596"><ele>51.5</ele><time>2026-04-25T07:10:35.106Z</time></trkpt><trkpt lat="44.3009482" lon="11.7748766"><ele>51.666666666666664</ele><time>2026-04-25T07:10:38.1Z</time></trkpt><trkpt lat="44.3008763" lon="11.7748138"><ele>51.83333333333333</ele><time>2026-04-25T07:10:41.113Z</time></trkpt><trkpt lat="44.3008091" lon="11.7747404"><ele>52.0</ele><time>2026-04-25T07:10:44.081Z</time></trkpt><trkpt lat="44.3007384" lon="11.7746792"><ele>51.99999999999999</ele><time>2026-04-25T07:10:47.109Z</time></trkpt><trkpt lat="44.3006665" lon="11.7746157"><ele>52.0</ele><time>2026-04-25T07:10:50.094Z</time></trkpt><trkpt lat="44.3006028" lon="11.774559"><ele>52.0</ele><time>2026-04-25T07:10:53.116Z</time></trkpt><trkpt lat="44.3005451" lon="11.7745004"><ele>52.0</ele><time>2026-04-25T07:10:55.996Z</time></trkpt><trkpt lat="44.3004814" lon="11.7744396"><ele>51.99999999999999</ele><time>2026-04-25T07:10:59.127Z</time></trkpt><trkpt lat="44.3004176" lon="11.7743748"><ele>52.0</ele><time>2026-04-25T07:11:02.058Z</time></trkpt><trkpt lat="44.3003429" lon="11.7743005"><ele>52.49999999999999</ele><time>2026-04-25T07:11:05.133Z</time></trkpt><trkpt lat="44.3002743" lon="11.7742395"><ele>53.0</ele><time>2026-04-25T07:11:08.038Z</time></trkpt><trkpt lat="44.3002107" lon="11.7741713"><ele>53.5</ele><time>2026-04-25T07:11:11.09Z</time></trkpt><trkpt lat="44.3001395" lon="11.7741087"><ele>54.0</ele><time>2026-04-25T07:11:14.075Z</time></trkpt><trkpt lat="44.3000616" lon="11.7740467"><ele>54.49999999999999</ele><time>2026-04-25T07:11:17.131Z</time></trkpt><trkpt lat="44.2999886" lon="11.7739788"><ele>55.0</ele><time>2026-04-25T07:11:20.048Z</time></trkpt><trkpt lat="44.2999158" lon="11.773915"><ele>54.99999999999999</ele><time>2026-04-25T07:11:23.087Z</time></trkpt><trkpt lat="44.2998533" lon="11.7738401"><ele>55.0</ele><time>2026-04-25T07:11:26.074Z</time></trkpt><trkpt lat="44.2997703" lon="11.7737848"><ele>55.0</ele><time>2026-04-25T07:11:29.1Z</time></trkpt><trkpt lat="44.299697" lon="11.7737239"><ele>55.0</ele><time>2026-04-25T07:11:32.072Z</time></trkpt><trkpt lat="44.2996249" lon="11.7736435"><ele>54.99999999999999</ele><time>2026-04-25T07:11:35.289Z</time></trkpt><trkpt lat="44.2995556" lon="11.7735663"><ele>55.0</ele><time>2026-04-25T07:11:38.486Z</time></trkpt><trkpt lat="44.2994852" lon="11.7734908"><ele>55.0</ele><time>2026-04-25T07:11:41.713Z</time></trkpt><trkpt lat="44.299413" lon="11.7734112"><ele>55.0</ele><time>2026-04-25T07:11:44.87Z</time></trkpt><trkpt lat="44.2993364" lon="11.7733428"><ele>55.0</ele><time>2026-04-25T07:11:48.044Z</time></trkpt><trkpt lat="44.2992655" lon="11.7732713"><ele>55.0</ele><time>2026-04-25T07:11:51.106Z</time></trkpt><trkpt lat="44.2991968" lon="11.7732046"><ele>55.0</ele><time>2026-04-25T07:11:54.111Z</time></trkpt><trkpt lat="44.299119" lon="11.7731254"><ele>54.99999999999999</ele><time>2026-04-25T07:11:58.088Z</time></trkpt><trkpt lat="44.2990549" lon="11.773061"><ele>55.0</ele><time>2026-04-25T07:12:01.083Z</time></trkpt><trkpt lat="44.2989894" lon="11.7729881"><ele>55.0</ele><time>2026-04-25T07:12:04.131Z</time></trkpt><trkpt lat="44.2989198" lon="11.7729245"><ele>55.0</ele><time>2026-04-25T07:12:07.101Z</time></trkpt><trkpt lat="44.2988512" lon="11.7728503"><ele>54.99999999999999</ele><time>2026-04-25T07:12:10.129Z</time></trkpt><trkpt lat="44.2987815" lon="11.7727737"><ele>55.0</ele><time>2026-04-25T07:12:13.087Z</time></trkpt><trkpt lat="44.2987131" lon="11.772701"><ele>55.49999999999999</ele><time>2026-04-25T07:12:16.072Z</time></trkpt><trkpt lat="44.2986461" lon="11.77263"><ele>56.0</ele><time>2026-04-25T07:12:19.092Z</time></trkpt><trkpt lat="44.2985808" lon="11.7725583"><ele>56.5</ele><time>2026-04-25T07:12:22.088Z</time></trkpt><trkpt lat="44.2985194" lon="11.7724937"><ele>57.0</ele><time>2026-04-25T07:12:25.058Z</time></trkpt><trkpt lat="44.2984565" lon="11.7724292"><ele>57.49999999999999</ele><time>2026-04-25T07:12:28.08Z</time></trkpt><trkpt lat="44.2983885" lon="11.7723577"><ele>58.0</ele><time>2026-04-25T07:12:31.085Z</time></trkpt><trkpt lat="44.2983221" lon="11.7722795"><ele>57.99999999999999</ele><time>2026-04-25T07:12:34.082Z</time></trkpt><trkpt lat="44.2982577" lon="11.7722061"><ele>58.0</ele><time>2026-04-25T07:12:37.162Z</time></trkpt><trkpt lat="44.2981994" lon="11.7721409"><ele>58.0</ele><time>2026-04-25T07:12:40.096Z</time></trkpt><trkpt lat="44.2981376" lon="11.7720682"><ele>58.0</ele><time>2026-04-25T07:12:43.113Z</time></trkpt><trkpt lat="44.2980728" lon="11.771995"><ele>57.99999999999999</ele><time>2026-04-25T07:12:46.125Z</time></trkpt><trkpt lat="44.2980036" lon="11.7719249"><ele>58.0</ele><time>2026-04-25T07:12:49.08Z</time></trkpt><trkpt lat="44.2979359" lon="11.7718536"><ele>58.166666666666664</ele><time>2026-04-25T07:12:52.103Z</time></trkpt><trkpt lat="44.2978721" lon="11.7717812"><ele>58.33333333333333</ele><time>2026-04-25T07:12:55.093Z</time></trkpt><trkpt lat="44.2978061" lon="11.7716954"><ele>58.5</ele><time>2026-04-25T07:12:58.11Z</time></trkpt><trkpt lat="44.2977412" lon="11.7716184"><ele>58.66666666666667</ele><time>2026-04-25T07:13:01.125Z</time></trkpt><trkpt lat="44.2976701" lon="11.7715464"><ele>58.833333333333336</ele><time>2026-04-25T07:13:04.061Z</time></trkpt><trkpt lat="44.2976026" lon="11.7714805"><ele>59.0</ele><time>2026-04-25T07:13:07.07Z</time></trkpt><trkpt lat="44.297545" lon="11.7714089"><ele>59.00000000000001</ele><time>2026-04-25T07:13:09.886Z</time></trkpt><trkpt lat="44.2974816" lon="11.7713219"><ele>59.0</ele><time>2026-04-25T07:13:13.074Z</time></trkpt><trkpt lat="44.2974233" lon="11.7712526"><ele>59.0</ele><time>2026-04-25T07:13:16.086Z</time></trkpt><trkpt lat="44.2973586" lon="11.771181"><ele>59.0</ele><time>2026-04-25T07:13:19.078Z</time></trkpt><trkpt lat="44.2972906" lon="11.7711038"><ele>59.00000000000001</ele><time>2026-04-25T07:13:22.099Z</time></trkpt><trkpt lat="44.2972215" lon="11.7710278"><ele>59.0</ele><time>2026-04-25T07:13:25.099Z</time></trkpt><trkpt lat="44.2971573" lon="11.7709477"><ele>59.00000000000001</ele><time>2026-04-25T07:13:28.098Z</time></trkpt><trkpt lat="44.2971018" lon="11.7708697"><ele>59.0</ele><time>2026-04-25T07:13:31.126Z</time></trkpt><trkpt lat="44.2970413" lon="11.7707922"><ele>59.0</ele><time>2026-04-25T07:13:34.066Z</time></trkpt><trkpt lat="44.2969767" lon="11.7707138"><ele>59.0</ele><time>2026-04-25T07:13:37.091Z</time></trkpt><trkpt lat="44.2969272" lon="11.7706387"><ele>59.00000000000001</ele><time>2026-04-25T07:13:40.034Z</time></trkpt><trkpt lat="44.2968674" lon="11.7705881"><ele>59.0</ele><time>2026-04-25T07:13:46.093Z</time></trkpt><trkpt lat="44.2968123" lon="11.7705285"><ele>59.00000000000001</ele><time>2026-04-25T07:13:49.092Z</time></trkpt><trkpt lat="44.2967447" lon="11.7704494"><ele>59.0</ele><time>2026-04-25T07:13:52.096Z</time></trkpt><trkpt lat="44.2966876" lon="11.7704067"><ele>59.0</ele><time>2026-04-25T07:13:54.091Z</time></trkpt><trkpt lat="44.2966296" lon="11.7703536"><ele>59.0</ele><time>2026-04-25T07:13:56.114Z</time></trkpt><trkpt lat="44.2965487" lon="11.7702931"><ele>59.00000000000001</ele><time>2026-04-25T07:13:59.097Z</time></trkpt><trkpt lat="44.2964969" lon="11.7702242"><ele>59.0</ele><time>2026-04-25T07:14:01.731Z</time></trkpt><trkpt lat="44.2964446" lon="11.7701699"><ele>59.333333333333336</ele><time>2026-04-25T07:14:04.166Z</time></trkpt><trkpt lat="44.2963993" lon="11.7700926"><ele>59.66666666666667</ele><time>2026-04-25T07:14:07.082Z</time></trkpt><trkpt lat="44.2963287" lon="11.7700484"><ele>60.0</ele><time>2026-04-25T07:14:10.114Z</time></trkpt><trkpt lat="44.2962514" lon="11.7700167"><ele>60.33333333333333</ele><time>2026-04-25T07:14:12.969Z</time></trkpt><trkpt lat="44.2961661" lon="11.7699827"><ele>60.666666666666664</ele><time>2026-04-25T07:14:16.071Z</time></trkpt><trkpt lat="44.2960924" lon="11.7699287"><ele>61.0</ele><time>2026-04-25T07:14:19.098Z</time></trkpt><trkpt lat="44.2960165" lon="11.7698849"><ele>60.99999999999999</ele><time>2026-04-25T07:14:22.111Z</time></trkpt><trkpt lat="44.2959516" lon="11.7698339"><ele>61.0</ele><time>2026-04-25T07:14:25.126Z</time></trkpt><trkpt lat="44.2958786" lon="11.7697806"><ele>61.0</ele><time>2026-04-25T07:14:28.113Z</time></trkpt><trkpt lat="44.2957982" lon="11.7697272"><ele>61.0</ele><time>2026-04-25T07:14:31.038Z</time></trkpt><trkpt lat="44.2957235" lon="11.7696592"><ele>60.99999999999999</ele><time>2026-04-25T07:14:34.092Z</time></trkpt><trkpt lat="44.2956518" lon="11.7695961"><ele>61.0</ele><time>2026-04-25T07:14:37.035Z</time></trkpt><trkpt lat="44.2955941" lon="11.769554"><ele>60.99999999999999</ele><time>2026-04-25T07:14:39.113Z</time></trkpt><trkpt lat="44.2955348" lon="11.7695179"><ele>61.0</ele><time>2026-04-25T07:14:41.099Z</time></trkpt><trkpt lat="44.2954678" lon="11.7694756"><ele>61.0</ele><time>2026-04-25T07:14:44.086Z</time></trkpt><trkpt lat="44.2953935" lon="11.7694084"><ele>61.0</ele><time>2026-04-25T07:14:47.084Z</time></trkpt><trkpt lat="44.2953165" lon="11.7693422"><ele>60.99999999999999</ele><time>2026-04-25T07:14:50.089Z</time></trkpt><trkpt lat="44.2952577" lon="11.7693055"><ele>61.0</ele><time>2026-04-25T07:14:52.097Z</time></trkpt><trkpt lat="44.2951835" lon="11.7692536"><ele>60.99999999999999</ele><time>2026-04-25T07:14:55.047Z</time></trkpt><trkpt lat="44.2951082" lon="11.7691955"><ele>61.0</ele><time>2026-04-25T07:14:58.073Z</time></trkpt><trkpt lat="44.2950319" lon="11.7691308"><ele>61.0</ele><time>2026-04-25T07:15:01.092Z</time></trkpt><trkpt lat="44.294963" lon="11.7690746"><ele>61.0</ele><time>2026-04-25T07:15:04.067Z</time></trkpt><trkpt lat="44.2948907" lon="11.7690092"><ele>60.99999999999999</ele><time>2026-04-25T07:15:07.13Z</time></trkpt><trkpt lat="44.2948148" lon="11.7689513"><ele>61.0</ele><time>2026-04-25T07:15:10.063Z</time></trkpt><trkpt lat="44.2947375" lon="11.7688877"><ele>60.33333333333333</ele><time>2026-04-25T07:15:13.015Z</time></trkpt><trkpt lat="44.2946757" lon="11.7688414"><ele>59.666666666666664</ele><time>2026-04-25T07:15:15.112Z</time></trkpt><trkpt lat="44.2946143" lon="11.7687946"><ele>59.0</ele><time>2026-04-25T07:15:17.121Z</time></trkpt><trkpt lat="44.2945571" lon="11.7687474"><ele>58.33333333333333</ele><time>2026-04-25T07:15:19.123Z</time></trkpt><trkpt lat="44.2944795" lon="11.7686791"><ele>57.666666666666664</ele><time>2026-04-25T07:15:22.075Z</time></trkpt><trkpt lat="44.2943966" lon="11.7686175"><ele>57.0</ele><time>2026-04-25T07:15:25.097Z</time></trkpt><trkpt lat="44.2943178" lon="11.7685579"><ele>57.333333333333336</ele><time>2026-04-25T07:15:28.035Z</time></trkpt><trkpt lat="44.2942405" lon="11.7684947"><ele>57.66666666666667</ele><time>2026-04-25T07:15:31.112Z</time></trkpt><trkpt lat="44.2941655" lon="11.7684215"><ele>58.0</ele><time>2026-04-25T07:15:34.086Z</time></trkpt><trkpt lat="44.2940878" lon="11.7683622"><ele>58.333333333333336</ele><time>2026-04-25T07:15:37.127Z</time></trkpt><trkpt lat="44.2940167" lon="11.7683026"><ele>58.66666666666667</ele><time>2026-04-25T07:15:40.085Z</time></trkpt><trkpt lat="44.2939412" lon="11.7682459"><ele>59.0</ele><time>2026-04-25T07:15:43.067Z</time></trkpt><trkpt lat="44.2938657" lon="11.7681855"><ele>59.00000000000001</ele><time>2026-04-25T07:15:46.079Z</time></trkpt><trkpt lat="44.2937905" lon="11.7681164"><ele>59.0</ele><time>2026-04-25T07:15:49.097Z</time></trkpt><trkpt lat="44.2937145" lon="11.7680456"><ele>59.0</ele><time>2026-04-25T07:15:52.106Z</time></trkpt><trkpt lat="44.29363" lon="11.767991"><ele>59.0</ele><time>2026-04-25T07:15:55.116Z</time></trkpt><trkpt lat="44.2935725" lon="11.7679525"><ele>59.00000000000001</ele><time>2026-04-25T07:15:57.107Z</time></trkpt><trkpt lat="44.2935159" lon="11.767912"><ele>59.0</ele><time>2026-04-25T07:15:59.107Z</time></trkpt><trkpt lat="44.2934539" lon="11.7678689"><ele>59.0</ele><time>2026-04-25T07:16:01.054Z</time></trkpt><trkpt lat="44.2933946" lon="11.7678225"><ele>59.0</ele><time>2026-04-25T07:16:03.124Z</time></trkpt><trkpt lat="44.2933416" lon="11.7677736"><ele>59.0</ele><time>2026-04-25T07:16:05.111Z</time></trkpt><trkpt lat="44.2932822" lon="11.7677249"><ele>59.0</ele><time>2026-04-25T07:16:07.117Z</time></trkpt><trkpt lat="44.2931982" lon="11.7676662"><ele>59.0</ele><time>2026-04-25T07:16:10.052Z</time></trkpt><trkpt lat="44.2931404" lon="11.7676229"><ele>59.0</ele><time>2026-04-25T07:16:12.137Z</time></trkpt><trkpt lat="44.2930727" lon="11.7675671"><ele>59.0</ele><time>2026-04-25T07:16:15.009Z</time></trkpt><trkpt lat="44.292994" lon="11.7675064"><ele>58.857142857142854</ele><time>2026-04-25T07:16:18.084Z</time></trkpt><trkpt lat="44.2929384" lon="11.7674632"><ele>58.71428571428572</ele><time>2026-04-25T07:16:20.068Z</time></trkpt><trkpt lat="44.2928547" lon="11.7674114"><ele>58.57142857142858</ele><time>2026-04-25T07:16:23.054Z</time></trkpt><trkpt lat="44.2927956" lon="11.7673807"><ele>58.42857142857143</ele><time>2026-04-25T07:16:25.106Z</time></trkpt><trkpt lat="44.2927367" lon="11.7673423"><ele>58.28571428571429</ele><time>2026-04-25T07:16:27.135Z</time></trkpt><trkpt lat="44.2926787" lon="11.7673037"><ele>58.14285714285715</ele><time>2026-04-25T07:16:29.079Z</time></trkpt><trkpt lat="44.2926207" lon="11.7672684"><ele>58.00000000000001</ele><time>2026-04-25T07:16:31.076Z</time></trkpt><trkpt lat="44.2925626" lon="11.7672325"><ele>57.99999999999999</ele><time>2026-04-25T07:16:33.094Z</time></trkpt><trkpt lat="44.2925016" lon="11.7672046"><ele>58.0</ele><time>2026-04-25T07:16:35.111Z</time></trkpt><trkpt lat="44.2924175" lon="11.7671622"><ele>58.0</ele><time>2026-04-25T07:16:38.087Z</time></trkpt><trkpt lat="44.2923363" lon="11.7671264"><ele>58.0</ele><time>2026-04-25T07:16:41.095Z</time></trkpt><trkpt lat="44.29225" lon="11.7670883"><ele>57.99999999999999</ele><time>2026-04-25T07:16:44.068Z</time></trkpt><trkpt lat="44.2921634" lon="11.7670535"><ele>58.0</ele><time>2026-04-25T07:16:47.118Z</time></trkpt><trkpt lat="44.2920805" lon="11.7670176"><ele>58.166666666666664</ele><time>2026-04-25T07:16:50.075Z</time></trkpt><trkpt lat="44.2920023" lon="11.7669728"><ele>58.33333333333333</ele><time>2026-04-25T07:16:53.086Z</time></trkpt><trkpt lat="44.2919236" lon="11.7669299"><ele>58.5</ele><time>2026-04-25T07:16:56.031Z</time></trkpt><trkpt lat="44.2918459" lon="11.766891"><ele>58.66666666666667</ele><time>2026-04-25T07:16:59.099Z</time></trkpt><trkpt lat="44.2917739" lon="11.766857"><ele>58.833333333333336</ele><time>2026-04-25T07:17:01.992Z</time></trkpt><trkpt lat="44.2916817" lon="11.7668239"><ele>59.0</ele><time>2026-04-25T07:17:05.103Z</time></trkpt><trkpt lat="44.2915972" lon="11.7667849"><ele>59.0</ele><time>2026-04-25T07:17:08.08Z</time></trkpt><trkpt lat="44.2915118" lon="11.7667345"><ele>59.0</ele><time>2026-04-25T07:17:11.116Z</time></trkpt><trkpt lat="44.2914497" lon="11.7666989"><ele>59.0</ele><time>2026-04-25T07:17:13.09Z</time></trkpt><trkpt lat="44.2913862" lon="11.7666701"><ele>59.0</ele><time>2026-04-25T07:17:15.009Z</time></trkpt><trkpt lat="44.2913195" lon="11.7666412"><ele>59.0</ele><time>2026-04-25T07:17:17.132Z</time></trkpt><trkpt lat="44.2912526" lon="11.7666135"><ele>59.0</ele><time>2026-04-25T07:17:19.088Z</time></trkpt><trkpt lat="44.2911891" lon="11.7665828"><ele>59.0</ele><time>2026-04-25T07:17:20.991Z</time></trkpt><trkpt lat="44.2911173" lon="11.7665562"><ele>58.00000000000001</ele><time>2026-04-25T07:17:23.098Z</time></trkpt><trkpt lat="44.2910543" lon="11.7665294"><ele>57.0</ele><time>2026-04-25T07:17:25.098Z</time></trkpt><trkpt lat="44.2909665" lon="11.7664856"><ele>56.0</ele><time>2026-04-25T07:17:27.974Z</time></trkpt><trkpt lat="44.2908823" lon="11.7664566"><ele>55.0</ele><time>2026-04-25T07:17:31.09Z</time></trkpt><trkpt lat="44.2908044" lon="11.7664101"><ele>54.00000000000001</ele><time>2026-04-25T07:17:34.087Z</time></trkpt><trkpt lat="44.2907429" lon="11.7663786"><ele>53.0</ele><time>2026-04-25T07:17:36.092Z</time></trkpt><trkpt lat="44.290653" lon="11.7663291"><ele>53.00000000000001</ele><time>2026-04-25T07:17:39.091Z</time></trkpt><trkpt lat="44.2905913" lon="11.7663001"><ele>53.0</ele><time>2026-04-25T07:17:41.097Z</time></trkpt><trkpt lat="44.2905112" lon="11.7662635"><ele>53.0</ele><time>2026-04-25T07:17:44.088Z</time></trkpt><trkpt lat="44.2904253" lon="11.7662265"><ele>53.0</ele><time>2026-04-25T07:17:47.035Z</time></trkpt><trkpt lat="44.2903599" lon="11.7661973"><ele>53.00000000000001</ele><time>2026-04-25T07:17:49.09Z</time></trkpt><trkpt lat="44.2902979" lon="11.766175"><ele>53.0</ele><time>2026-04-25T07:17:51.1Z</time></trkpt><trkpt lat="44.29021" lon="11.7661355"><ele>53.0</ele><time>2026-04-25T07:17:54.075Z</time></trkpt><trkpt lat="44.2901268" lon="11.7660965"><ele>53.0</ele><time>2026-04-25T07:17:57.101Z</time></trkpt><trkpt lat="44.2900655" lon="11.7660653"><ele>53.0</ele><time>2026-04-25T07:17:59.077Z</time></trkpt><trkpt lat="44.2900014" lon="11.7660353"><ele>53.0</ele><time>2026-04-25T07:18:01.097Z</time></trkpt><trkpt lat="44.2899426" lon="11.7660018"><ele>53.0</ele><time>2026-04-25T07:18:03.121Z</time></trkpt><trkpt lat="44.2898621" lon="11.7659562"><ele>53.0</ele><time>2026-04-25T07:18:06.013Z</time></trkpt><trkpt lat="44.289802" lon="11.7659257"><ele>53.0</ele><time>2026-04-25T07:18:08.124Z</time></trkpt><trkpt lat="44.2897098" lon="11.7658832"><ele>53.00000000000001</ele><time>2026-04-25T07:18:11.079Z</time></trkpt><trkpt lat="44.2896262" lon="11.7658437"><ele>53.0</ele><time>2026-04-25T07:18:14.05Z</time></trkpt><trkpt lat="44.2895434" lon="11.76581"><ele>53.0</ele><time>2026-04-25T07:18:17.106Z</time></trkpt><trkpt lat="44.2894576" lon="11.7657723"><ele>53.0</ele><time>2026-04-25T07:18:20.055Z</time></trkpt><trkpt lat="44.2893966" lon="11.7657458"><ele>53.00000000000001</ele><time>2026-04-25T07:18:22.106Z</time></trkpt><trkpt lat="44.2893099" lon="11.7657013"><ele>53.0</ele><time>2026-04-25T07:18:25.082Z</time></trkpt><trkpt lat="44.2892279" lon="11.7656576"><ele>53.00000000000001</ele><time>2026-04-25T07:18:28.09Z</time></trkpt><trkpt lat="44.2891446" lon="11.7656223"><ele>53.0</ele><time>2026-04-25T07:18:31.118Z</time></trkpt><trkpt lat="44.289062" lon="11.7655814"><ele>53.0</ele><time>2026-04-25T07:18:34.083Z</time></trkpt><trkpt lat="44.2889763" lon="11.765544"><ele>53.0</ele><time>2026-04-25T07:18:37.115Z</time></trkpt><trkpt lat="44.2888906" lon="11.7655104"><ele>53.00000000000001</ele><time>2026-04-25T07:18:40.053Z</time></trkpt><trkpt lat="44.288828" lon="11.7654821"><ele>53.0</ele><time>2026-04-25T07:18:42.088Z</time></trkpt><trkpt lat="44.2887369" lon="11.7654433"><ele>53.00000000000001</ele><time>2026-04-25T07:18:45.095Z</time></trkpt><trkpt lat="44.2886555" lon="11.7654073"><ele>53.0</ele><time>2026-04-25T07:18:48.106Z</time></trkpt><trkpt lat="44.2885745" lon="11.7653733"><ele>53.0</ele><time>2026-04-25T07:18:51.082Z</time></trkpt><trkpt lat="44.2884939" lon="11.7653367"><ele>53.0</ele><time>2026-04-25T07:18:54.126Z</time></trkpt><trkpt lat="44.2884037" lon="11.7652958"><ele>53.00000000000001</ele><time>2026-04-25T07:18:57.109Z</time></trkpt><trkpt lat="44.2883152" lon="11.7652563"><ele>53.0</ele><time>2026-04-25T07:19:00.085Z</time></trkpt><trkpt lat="44.2882305" lon="11.7652156"><ele>53.00000000000001</ele><time>2026-04-25T07:19:03.089Z</time></trkpt><trkpt lat="44.2881473" lon="11.7651758"><ele>53.0</ele><time>2026-04-25T07:19:06.054Z</time></trkpt><trkpt lat="44.2880663" lon="11.7651407"><ele>53.0</ele><time>2026-04-25T07:19:09.092Z</time></trkpt><trkpt lat="44.2879871" lon="11.7650981"><ele>53.0</ele><time>2026-04-25T07:19:12.054Z</time></trkpt><trkpt lat="44.2878993" lon="11.7650567"><ele>53.00000000000001</ele><time>2026-04-25T07:19:15.076Z</time></trkpt><trkpt lat="44.287816" lon="11.7650123"><ele>53.0</ele><time>2026-04-25T07:19:18.01Z</time></trkpt><trkpt lat="44.2877553" lon="11.7649822"><ele>53.00000000000001</ele><time>2026-04-25T07:19:20.09Z</time></trkpt><trkpt lat="44.2876751" lon="11.7649491"><ele>53.0</ele><time>2026-04-25T07:19:22.972Z</time></trkpt><trkpt lat="44.2876018" lon="11.7649206"><ele>53.0</ele><time>2026-04-25T07:19:26.094Z</time></trkpt><trkpt lat="44.2875207" lon="11.76489"><ele>53.0</ele><time>2026-04-25T07:19:29.051Z</time></trkpt><trkpt lat="44.2874287" lon="11.7648402"><ele>53.00000000000001</ele><time>2026-04-25T07:19:32.092Z</time></trkpt><trkpt lat="44.2873685" lon="11.7648026"><ele>53.0</ele><time>2026-04-25T07:19:34.074Z</time></trkpt><trkpt lat="44.2873043" lon="11.7647671"><ele>52.57142857142858</ele><time>2026-04-25T07:19:36.096Z</time></trkpt><trkpt lat="44.2872387" lon="11.7647383"><ele>52.14285714285714</ele><time>2026-04-25T07:19:38.055Z</time></trkpt><trkpt lat="44.2871781" lon="11.7647109"><ele>51.714285714285715</ele><time>2026-04-25T07:19:40.1Z</time></trkpt><trkpt lat="44.2870899" lon="11.7646663"><ele>51.28571428571429</ele><time>2026-04-25T07:19:43.095Z</time></trkpt><trkpt lat="44.2870292" lon="11.7646284"><ele>50.85714285714286</ele><time>2026-04-25T07:19:45.088Z</time></trkpt><trkpt lat="44.2869734" lon="11.7645857"><ele>50.42857142857143</ele><time>2026-04-25T07:19:47.084Z</time></trkpt><trkpt lat="44.2868979" lon="11.7645383"><ele>50.0</ele><time>2026-04-25T07:19:50.062Z</time></trkpt><trkpt lat="44.2868184" lon="11.7644917"><ele>50.00000000000001</ele><time>2026-04-25T07:19:53.106Z</time></trkpt><trkpt lat="44.2867312" lon="11.7644453"><ele>50.0</ele><time>2026-04-25T07:19:56.068Z</time></trkpt><trkpt lat="44.2866518" lon="11.7643946"><ele>50.0</ele><time>2026-04-25T07:19:59.095Z</time></trkpt><trkpt lat="44.2865797" lon="11.7643463"><ele>50.0</ele><time>2026-04-25T07:20:02.089Z</time></trkpt><trkpt lat="44.2865071" lon="11.7642965"><ele>50.00000000000001</ele><time>2026-04-25T07:20:05.092Z</time></trkpt><trkpt lat="44.2864302" lon="11.7642399"><ele>50.0</ele><time>2026-04-25T07:20:08.067Z</time></trkpt><trkpt lat="44.2863717" lon="11.7641999"><ele>49.833333333333336</ele><time>2026-04-25T07:20:10.078Z</time></trkpt><trkpt lat="44.2863036" lon="11.7641529"><ele>49.66666666666667</ele><time>2026-04-25T07:20:13.066Z</time></trkpt><trkpt lat="44.2862272" lon="11.7641009"><ele>49.5</ele><time>2026-04-25T07:20:16.074Z</time></trkpt><trkpt lat="44.2861493" lon="11.7640553"><ele>49.33333333333333</ele><time>2026-04-25T07:20:19.091Z</time></trkpt><trkpt lat="44.2860903" lon="11.7640235"><ele>49.166666666666664</ele><time>2026-04-25T07:20:21.08Z</time></trkpt><trkpt lat="44.2860039" lon="11.7639719"><ele>49.0</ele><time>2026-04-25T07:20:24.081Z</time></trkpt><trkpt lat="44.2859193" lon="11.7639264"><ele>48.99999999999999</ele><time>2026-04-25T07:20:27.092Z</time></trkpt><trkpt lat="44.285837" lon="11.7638944"><ele>49.0</ele><time>2026-04-25T07:20:30.014Z</time></trkpt><trkpt lat="44.285752" lon="11.7638653"><ele>49.0</ele><time>2026-04-25T07:20:33.095Z</time></trkpt><trkpt lat="44.2856683" lon="11.7638452"><ele>49.0</ele><time>2026-04-25T07:20:36.076Z</time></trkpt><trkpt lat="44.2855811" lon="11.7638163"><ele>48.99999999999999</ele><time>2026-04-25T07:20:39.107Z</time></trkpt><trkpt lat="44.285485" lon="11.7637855"><ele>49.0</ele><time>2026-04-25T07:20:42.096Z</time></trkpt><trkpt lat="44.2854003" lon="11.7637653"><ele>49.166666666666664</ele><time>2026-04-25T07:20:45.11Z</time></trkpt><trkpt lat="44.2853204" lon="11.7637395"><ele>49.33333333333333</ele><time>2026-04-25T07:20:48.096Z</time></trkpt><trkpt lat="44.2852311" lon="11.7637243"><ele>49.5</ele><time>2026-04-25T07:20:51.073Z</time></trkpt><trkpt lat="44.2851421" lon="11.7637074"><ele>49.66666666666667</ele><time>2026-04-25T07:20:54.122Z</time></trkpt><trkpt lat="44.2850548" lon="11.7636913"><ele>49.833333333333336</ele><time>2026-04-25T07:20:57.034Z</time></trkpt><trkpt lat="44.2849914" lon="11.7636861"><ele>50.0</ele><time>2026-04-25T07:20:59.051Z</time></trkpt><trkpt lat="44.2849173" lon="11.7636815"><ele>50.00000000000001</ele><time>2026-04-25T07:21:01.951Z</time></trkpt><trkpt lat="44.2848323" lon="11.7636693"><ele>50.0</ele><time>2026-04-25T07:21:05.062Z</time></trkpt><trkpt lat="44.2847432" lon="11.7636659"><ele>50.0</ele><time>2026-04-25T07:21:08.115Z</time></trkpt><trkpt lat="44.2846627" lon="11.763666"><ele>50.0</ele><time>2026-04-25T07:21:11.13Z</time></trkpt><trkpt lat="44.2845999" lon="11.7636749"><ele>50.00000000000001</ele><time>2026-04-25T07:21:13.108Z</time></trkpt><trkpt lat="44.2845031" lon="11.7636802"><ele>50.0</ele><time>2026-04-25T07:21:16.103Z</time></trkpt><trkpt lat="44.2844392" lon="11.7636733"><ele>50.333333333333336</ele><time>2026-04-25T07:21:18.107Z</time></trkpt><trkpt lat="44.2843493" lon="11.7636673"><ele>50.66666666666667</ele><time>2026-04-25T07:21:21.066Z</time></trkpt><trkpt lat="44.2842793" lon="11.7636711"><ele>51.0</ele><time>2026-04-25T07:21:23.093Z</time></trkpt><trkpt lat="44.2842147" lon="11.7636738"><ele>51.33333333333333</ele><time>2026-04-25T07:21:25.098Z</time></trkpt><trkpt lat="44.2841318" lon="11.7636782"><ele>51.666666666666664</ele><time>2026-04-25T07:21:28.1Z</time></trkpt><trkpt lat="44.2840445" lon="11.7636808"><ele>52.0</ele><time>2026-04-25T07:21:31.086Z</time></trkpt><trkpt lat="44.283962" lon="11.7636746"><ele>52.166666666666664</ele><time>2026-04-25T07:21:34.088Z</time></trkpt><trkpt lat="44.2838815" lon="11.7636632"><ele>52.33333333333333</ele><time>2026-04-25T07:21:37.086Z</time></trkpt><trkpt lat="44.2837992" lon="11.7636552"><ele>52.5</ele><time>2026-04-25T07:21:40.081Z</time></trkpt><trkpt lat="44.2837189" lon="11.7636496"><ele>52.66666666666667</ele><time>2026-04-25T07:21:43.088Z</time></trkpt><trkpt lat="44.2836366" lon="11.7636343"><ele>52.833333333333336</ele><time>2026-04-25T07:21:46.075Z</time></trkpt><trkpt lat="44.2835501" lon="11.7636045"><ele>53.0</ele><time>2026-04-25T07:21:49.069Z</time></trkpt><trkpt lat="44.2834666" lon="11.7635765"><ele>53.00000000000001</ele><time>2026-04-25T07:21:52.103Z</time></trkpt><trkpt lat="44.2833846" lon="11.763549"><ele>53.0</ele><time>2026-04-25T07:21:55.091Z</time></trkpt><trkpt lat="44.2832967" lon="11.7635095"><ele>53.0</ele><time>2026-04-25T07:21:58.067Z</time></trkpt><trkpt lat="44.2832112" lon="11.7634799"><ele>53.0</ele><time>2026-04-25T07:22:01.119Z</time></trkpt><trkpt lat="44.2831325" lon="11.7634513"><ele>53.00000000000001</ele><time>2026-04-25T07:22:04.087Z</time></trkpt><trkpt lat="44.2830585" lon="11.7634231"><ele>53.0</ele><time>2026-04-25T07:22:07.078Z</time></trkpt><trkpt lat="44.2829816" lon="11.7633862"><ele>53.00000000000001</ele><time>2026-04-25T07:22:10.11Z</time></trkpt><trkpt lat="44.2829074" lon="11.7633353"><ele>53.0</ele><time>2026-04-25T07:22:13.097Z</time></trkpt><trkpt lat="44.2828312" lon="11.7632872"><ele>53.0</ele><time>2026-04-25T07:22:16.123Z</time></trkpt><trkpt lat="44.2827657" lon="11.7632412"><ele>53.0</ele><time>2026-04-25T07:22:19.044Z</time></trkpt><trkpt lat="44.282689" lon="11.7631867"><ele>53.00000000000001</ele><time>2026-04-25T07:22:22.105Z</time></trkpt><trkpt lat="44.2826145" lon="11.7631315"><ele>53.0</ele><time>2026-04-25T07:22:25.01Z</time></trkpt><trkpt lat="44.2825342" lon="11.7630726"><ele>53.00000000000001</ele><time>2026-04-25T07:22:28.102Z</time></trkpt><trkpt lat="44.2824651" lon="11.7630093"><ele>53.0</ele><time>2026-04-25T07:22:31.082Z</time></trkpt><trkpt lat="44.2823942" lon="11.7629479"><ele>53.0</ele><time>2026-04-25T07:22:34.1Z</time></trkpt><trkpt lat="44.2823194" lon="11.7628953"><ele>53.0</ele><time>2026-04-25T07:22:37.014Z</time></trkpt><trkpt lat="44.2822445" lon="11.7628251"><ele>53.00000000000001</ele><time>2026-04-25T07:22:40.051Z</time></trkpt><trkpt lat="44.2821821" lon="11.7627555"><ele>53.0</ele><time>2026-04-25T07:22:42.967Z</time></trkpt><trkpt lat="44.2821166" lon="11.7626799"><ele>53.50000000000001</ele><time>2026-04-25T07:22:46.095Z</time></trkpt><trkpt lat="44.2820531" lon="11.762611"><ele>54.0</ele><time>2026-04-25T07:22:49.087Z</time></trkpt><trkpt lat="44.2819869" lon="11.7625382"><ele>54.5</ele><time>2026-04-25T07:22:52.093Z</time></trkpt><trkpt lat="44.2819341" lon="11.7624815"><ele>55.0</ele><time>2026-04-25T07:22:54.121Z</time></trkpt><trkpt lat="44.2818685" lon="11.7623958"><ele>55.50000000000001</ele><time>2026-04-25T07:22:57.068Z</time></trkpt><trkpt lat="44.2818073" lon="11.7623166"><ele>56.0</ele><time>2026-04-25T07:23:00.124Z</time></trkpt><trkpt lat="44.2817488" lon="11.7622348"><ele>56.00000000000001</ele><time>2026-04-25T07:23:03.082Z</time></trkpt><trkpt lat="44.2816951" lon="11.7621526"><ele>56.0</ele><time>2026-04-25T07:23:06.095Z</time></trkpt><trkpt lat="44.2816413" lon="11.762078"><ele>56.0</ele><time>2026-04-25T07:23:09.073Z</time></trkpt><trkpt lat="44.2815862" lon="11.7620032"><ele>56.0</ele><time>2026-04-25T07:23:12.092Z</time></trkpt><trkpt lat="44.2815347" lon="11.7619161"><ele>56.00000000000001</ele><time>2026-04-25T07:23:15.087Z</time></trkpt><trkpt lat="44.2814844" lon="11.7618384"><ele>56.0</ele><time>2026-04-25T07:23:18.109Z</time></trkpt><trkpt lat="44.2814372" lon="11.7617443"><ele>56.00000000000001</ele><time>2026-04-25T07:23:21.109Z</time></trkpt><trkpt lat="44.281389" lon="11.7616517"><ele>56.0</ele><time>2026-04-25T07:23:24.074Z</time></trkpt><trkpt lat="44.2813381" lon="11.7615655"><ele>56.0</ele><time>2026-04-25T07:23:27.065Z</time></trkpt><trkpt lat="44.2812847" lon="11.7614808"><ele>56.0</ele><time>2026-04-25T07:23:30.092Z</time></trkpt><trkpt lat="44.281233" lon="11.7613926"><ele>56.00000000000001</ele><time>2026-04-25T07:23:33.029Z</time></trkpt><trkpt lat="44.2811882" lon="11.7613012"><ele>56.0</ele><time>2026-04-25T07:23:36.109Z</time></trkpt><trkpt lat="44.2811458" lon="11.7612174"><ele>56.00000000000001</ele><time>2026-04-25T07:23:39.101Z</time></trkpt><trkpt lat="44.281099" lon="11.7611287"><ele>56.0</ele><time>2026-04-25T07:23:42.082Z</time></trkpt><trkpt lat="44.2810519" lon="11.7610424"><ele>56.0</ele><time>2026-04-25T07:23:45.079Z</time></trkpt><trkpt lat="44.2809997" lon="11.760956"><ele>56.0</ele><time>2026-04-25T07:23:48.05Z</time></trkpt><trkpt lat="44.2809591" lon="11.7608613"><ele>56.00000000000001</ele><time>2026-04-25T07:23:51.116Z</time></trkpt><trkpt lat="44.2809171" lon="11.7607724"><ele>56.0</ele><time>2026-04-25T07:23:54.088Z</time></trkpt><trkpt lat="44.2808682" lon="11.7606686"><ele>56.50000000000001</ele><time>2026-04-25T07:23:57.108Z</time></trkpt><trkpt lat="44.280818" lon="11.7605691"><ele>57.0</ele><time>2026-04-25T07:24:00.046Z</time></trkpt><trkpt lat="44.280766" lon="11.760476"><ele>57.5</ele><time>2026-04-25T07:24:03.087Z</time></trkpt><trkpt lat="44.280712" lon="11.7603847"><ele>58.0</ele><time>2026-04-25T07:24:06.057Z</time></trkpt><trkpt lat="44.2806631" lon="11.7602926"><ele>58.50000000000001</ele><time>2026-04-25T07:24:09.091Z</time></trkpt><trkpt lat="44.2806237" lon="11.7602078"><ele>59.0</ele><time>2026-04-25T07:24:12.015Z</time></trkpt><trkpt lat="44.2805777" lon="11.7601216"><ele>59.00000000000001</ele><time>2026-04-25T07:24:15.097Z</time></trkpt><trkpt lat="44.2805324" lon="11.7600339"><ele>59.0</ele><time>2026-04-25T07:24:18.075Z</time></trkpt><trkpt lat="44.2804822" lon="11.759944"><ele>59.0</ele><time>2026-04-25T07:24:21.094Z</time></trkpt><trkpt lat="44.2804315" lon="11.7598662"><ele>59.0</ele><time>2026-04-25T07:24:24.032Z</time></trkpt><trkpt lat="44.2803746" lon="11.7597781"><ele>59.00000000000001</ele><time>2026-04-25T07:24:27.13Z</time></trkpt><trkpt lat="44.2803275" lon="11.7596801"><ele>59.0</ele><time>2026-04-25T07:24:30.003Z</time></trkpt><trkpt lat="44.2802773" lon="11.7595754"><ele>59.00000000000001</ele><time>2026-04-25T07:24:33.154Z</time></trkpt><trkpt lat="44.2802317" lon="11.7594796"><ele>59.0</ele><time>2026-04-25T07:24:36.092Z</time></trkpt><trkpt lat="44.2801785" lon="11.7593836"><ele>59.0</ele><time>2026-04-25T07:24:39.084Z</time></trkpt><trkpt lat="44.2801257" lon="11.7592866"><ele>59.0</ele><time>2026-04-25T07:24:42.113Z</time></trkpt><trkpt lat="44.2800735" lon="11.759193"><ele>59.00000000000001</ele><time>2026-04-25T07:24:45.01Z</time></trkpt><trkpt lat="44.2800197" lon="11.7591033"><ele>59.0</ele><time>2026-04-25T07:24:48.086Z</time></trkpt><trkpt lat="44.2799659" lon="11.7590095"><ele>58.50000000000001</ele><time>2026-04-25T07:24:51.075Z</time></trkpt><trkpt lat="44.2799152" lon="11.7589095"><ele>58.0</ele><time>2026-04-25T07:24:54.099Z</time></trkpt><trkpt lat="44.2798684" lon="11.7588104"><ele>57.5</ele><time>2026-04-25T07:24:57.091Z</time></trkpt><trkpt lat="44.2798151" lon="11.7587126"><ele>57.0</ele><time>2026-04-25T07:25:00.095Z</time></trkpt><trkpt lat="44.2797657" lon="11.7586192"><ele>56.50000000000001</ele><time>2026-04-25T07:25:03.069Z</time></trkpt><trkpt lat="44.2797191" lon="11.7585274"><ele>56.0</ele><time>2026-04-25T07:25:06.072Z</time></trkpt><trkpt lat="44.2796651" lon="11.7584196"><ele>57.50000000000001</ele><time>2026-04-25T07:25:09.081Z</time></trkpt><trkpt lat="44.2796077" lon="11.758318"><ele>59.0</ele><time>2026-04-25T07:25:12.034Z</time></trkpt><trkpt lat="44.2795495" lon="11.7582234"><ele>60.5</ele><time>2026-04-25T07:25:15.101Z</time></trkpt><trkpt lat="44.2794947" lon="11.758131"><ele>62.0</ele><time>2026-04-25T07:25:18.098Z</time></trkpt><trkpt lat="44.2794378" lon="11.7580433"><ele>63.50000000000001</ele><time>2026-04-25T07:25:21.046Z</time></trkpt><trkpt lat="44.2793924" lon="11.7579764"><ele>65.0</ele><time>2026-04-25T07:25:23.147Z</time></trkpt><trkpt lat="44.2793421" lon="11.7578748"><ele>65.0</ele><time>2026-04-25T07:25:26.1Z</time></trkpt><trkpt lat="44.2792965" lon="11.7577753"><ele>65.0</ele><time>2026-04-25T07:25:29.057Z</time></trkpt><trkpt lat="44.2792363" lon="11.7576936"><ele>65.0</ele><time>2026-04-25T07:25:32.117Z</time></trkpt><trkpt lat="44.2791769" lon="11.757619"><ele>65.0</ele><time>2026-04-25T07:25:35.029Z</time></trkpt><trkpt lat="44.2791067" lon="11.7575378"><ele>65.0</ele><time>2026-04-25T07:25:38.115Z</time></trkpt><trkpt lat="44.279042" lon="11.7574522"><ele>65.0</ele><time>2026-04-25T07:25:41.048Z</time></trkpt><trkpt lat="44.2789917" lon="11.7573936"><ele>66.33333333333334</ele><time>2026-04-25T07:25:43.117Z</time></trkpt><trkpt lat="44.2789211" lon="11.7573206"><ele>67.66666666666667</ele><time>2026-04-25T07:25:46.093Z</time></trkpt><trkpt lat="44.2788552" lon="11.7572529"><ele>69.0</ele><time>2026-04-25T07:25:49.085Z</time></trkpt><trkpt lat="44.2787886" lon="11.7571863"><ele>70.33333333333333</ele><time>2026-04-25T07:25:52.088Z</time></trkpt><trkpt lat="44.2787221" lon="11.7571102"><ele>71.66666666666666</ele><time>2026-04-25T07:25:55.051Z</time></trkpt><trkpt lat="44.2786503" lon="11.7570417"><ele>73.0</ele><time>2026-04-25T07:25:58.106Z</time></trkpt><trkpt lat="44.2785825" lon="11.7569821"><ele>73.0</ele><time>2026-04-25T07:26:01.013Z</time></trkpt><trkpt lat="44.278514" lon="11.7569228"><ele>73.0</ele><time>2026-04-25T07:26:04.086Z</time></trkpt><trkpt lat="44.2784448" lon="11.7568601"><ele>73.0</ele><time>2026-04-25T07:26:07.079Z</time></trkpt><trkpt lat="44.2783761" lon="11.7567931"><ele>73.0</ele><time>2026-04-25T07:26:10.156Z</time></trkpt><trkpt lat="44.2783148" lon="11.7567295"><ele>73.0</ele><time>2026-04-25T07:26:12.991Z</time></trkpt><trkpt lat="44.2782478" lon="11.7566624"><ele>73.0</ele><time>2026-04-25T07:26:16.104Z</time></trkpt><trkpt lat="44.2781866" lon="11.7566032"><ele>73.0</ele><time>2026-04-25T07:26:19.026Z</time></trkpt><trkpt lat="44.2781196" lon="11.7565368"><ele>73.0</ele><time>2026-04-25T07:26:22.118Z</time></trkpt><trkpt lat="44.2780661" lon="11.7564645"><ele>73.0</ele><time>2026-04-25T07:26:25.032Z</time></trkpt><trkpt lat="44.2780181" lon="11.7564045"><ele>73.0</ele><time>2026-04-25T07:26:27.147Z</time></trkpt><trkpt lat="44.2779458" lon="11.7563262"><ele>73.0</ele><time>2026-04-25T07:26:30.121Z</time></trkpt><trkpt lat="44.2778852" lon="11.7562418"><ele>73.0</ele><time>2026-04-25T07:26:33.077Z</time></trkpt><trkpt lat="44.2778319" lon="11.7561538"><ele>73.0</ele><time>2026-04-25T07:26:35.992Z</time></trkpt><trkpt lat="44.2777713" lon="11.7560681"><ele>73.0</ele><time>2026-04-25T07:26:39.073Z</time></trkpt><trkpt lat="44.2777168" lon="11.7559805"><ele>73.0</ele><time>2026-04-25T07:26:42.108Z</time></trkpt><trkpt lat="44.277673" lon="11.7558892"><ele>73.0</ele><time>2026-04-25T07:26:45.09Z</time></trkpt><trkpt lat="44.2776309" lon="11.75579"><ele>73.0</ele><time>2026-04-25T07:26:48.099Z</time></trkpt><trkpt lat="44.277604" lon="11.7556911"><ele>73.0</ele><time>2026-04-25T07:26:51.096Z</time></trkpt><trkpt lat="44.2775886" lon="11.7555831"><ele>73.0</ele><time>2026-04-25T07:26:54.072Z</time></trkpt><trkpt lat="44.2775675" lon="11.7554691"><ele>73.0</ele><time>2026-04-25T07:26:57.093Z</time></trkpt><trkpt lat="44.2775319" lon="11.755361"><ele>73.0</ele><time>2026-04-25T07:27:00.117Z</time></trkpt><trkpt lat="44.2774731" lon="11.755263"><ele>73.0</ele><time>2026-04-25T07:27:03.193Z</time></trkpt><trkpt lat="44.2774267" lon="11.7552023"><ele>73.0</ele><time>2026-04-25T07:27:05.25Z</time></trkpt><trkpt lat="44.2773611" lon="11.7551147"><ele>73.0</ele><time>2026-04-25T07:27:08.365Z</time></trkpt><trkpt lat="44.2773099" lon="11.7550199"><ele>73.16666666666666</ele><time>2026-04-25T07:27:11.573Z</time></trkpt><trkpt lat="44.2772743" lon="11.7549088"><ele>73.33333333333333</ele><time>2026-04-25T07:27:14.692Z</time></trkpt><trkpt lat="44.2772357" lon="11.7548005"><ele>73.5</ele><time>2026-04-25T07:27:17.869Z</time></trkpt><trkpt lat="44.2772042" lon="11.7546897"><ele>73.66666666666667</ele><time>2026-04-25T07:27:21.047Z</time></trkpt><trkpt lat="44.2771746" lon="11.7545799"><ele>73.83333333333334</ele><time>2026-04-25T07:27:24.118Z</time></trkpt><trkpt lat="44.277145" lon="11.7544795"><ele>74.0</ele><time>2026-04-25T07:27:27.006Z</time></trkpt><trkpt lat="44.2771328" lon="11.7543704"><ele>74.16666666666667</ele><time>2026-04-25T07:27:30.094Z</time></trkpt><trkpt lat="44.27712" lon="11.7542662"><ele>74.33333333333334</ele><time>2026-04-25T07:27:33.098Z</time></trkpt><trkpt lat="44.2771026" lon="11.75416"><ele>74.5</ele><time>2026-04-25T07:27:36.124Z</time></trkpt><trkpt lat="44.2770911" lon="11.7540621"><ele>74.66666666666667</ele><time>2026-04-25T07:27:39.006Z</time></trkpt><trkpt lat="44.2770858" lon="11.7539569"><ele>74.83333333333333</ele><time>2026-04-25T07:27:42.087Z</time></trkpt><trkpt lat="44.2770788" lon="11.7538519"><ele>75.0</ele><time>2026-04-25T07:27:45.012Z</time></trkpt><trkpt lat="44.2770765" lon="11.7537297"><ele>75.0</ele><time>2026-04-25T07:27:48.109Z</time></trkpt><trkpt lat="44.2770786" lon="11.7536121"><ele>75.0</ele><time>2026-04-25T07:27:50.987Z</time></trkpt><trkpt lat="44.2770776" lon="11.7534905"><ele>75.0</ele><time>2026-04-25T07:27:54.082Z</time></trkpt><trkpt lat="44.27708" lon="11.7533817"><ele>75.0</ele><time>2026-04-25T07:27:56.988Z</time></trkpt><trkpt lat="44.2770845" lon="11.7532647"><ele>75.0</ele><time>2026-04-25T07:28:00.062Z</time></trkpt><trkpt lat="44.2770929" lon="11.753146"><ele>75.0</ele><time>2026-04-25T07:28:03.103Z</time></trkpt><trkpt lat="44.2770993" lon="11.7530323"><ele>75.0</ele><time>2026-04-25T07:28:06.089Z</time></trkpt><trkpt lat="44.2771114" lon="11.7529108"><ele>75.0</ele><time>2026-04-25T07:28:09.102Z</time></trkpt><trkpt lat="44.2771273" lon="11.7527896"><ele>75.0</ele><time>2026-04-25T07:28:12.151Z</time></trkpt><trkpt lat="44.2771405" lon="11.7526634"><ele>75.0</ele><time>2026-04-25T07:28:15.089Z</time></trkpt><trkpt lat="44.2771404" lon="11.7525456"><ele>75.0</ele><time>2026-04-25T07:28:18.011Z</time></trkpt><trkpt lat="44.2771312" lon="11.7524295"><ele>75.0</ele><time>2026-04-25T07:28:21.152Z</time></trkpt><trkpt lat="44.2771328" lon="11.7523089"><ele>74.5</ele><time>2026-04-25T07:28:24.112Z</time></trkpt><trkpt lat="44.2771346" lon="11.7521814"><ele>74.0</ele><time>2026-04-25T07:28:27.114Z</time></trkpt><trkpt lat="44.2771308" lon="11.7520552"><ele>73.5</ele><time>2026-04-25T07:28:30.082Z</time></trkpt><trkpt lat="44.2771271" lon="11.7519287"><ele>73.0</ele><time>2026-04-25T07:28:33.08Z</time></trkpt><trkpt lat="44.2771175" lon="11.7518094"><ele>72.5</ele><time>2026-04-25T07:28:36.084Z</time></trkpt><trkpt lat="44.277105" lon="11.7516893"><ele>72.0</ele><time>2026-04-25T07:28:39.084Z</time></trkpt><trkpt lat="44.2770952" lon="11.7515824"><ele>72.00000000000001</ele><time>2026-04-25T07:28:42.097Z</time></trkpt><trkpt lat="44.2770858" lon="11.7514829"><ele>72.0</ele><time>2026-04-25T07:28:45.03Z</time></trkpt><trkpt lat="44.2770738" lon="11.7513781"><ele>72.0</ele><time>2026-04-25T07:28:48.125Z</time></trkpt><trkpt lat="44.277056" lon="11.7512787"><ele>72.0</ele><time>2026-04-25T07:28:51.007Z</time></trkpt><trkpt lat="44.2770406" lon="11.7511577"><ele>72.0</ele><time>2026-04-25T07:28:54.111Z</time></trkpt><trkpt lat="44.277017" lon="11.7510659"><ele>72.00000000000001</ele><time>2026-04-25T07:28:56.654Z</time></trkpt><trkpt lat="44.2769939" lon="11.7509815"><ele>72.0</ele><time>2026-04-25T07:28:59.122Z</time></trkpt><trkpt lat="44.2769702" lon="11.7508753"><ele>72.83333333333333</ele><time>2026-04-25T07:29:01.968Z</time></trkpt><trkpt lat="44.2769424" lon="11.750759"><ele>73.66666666666667</ele><time>2026-04-25T07:29:05.103Z</time></trkpt><trkpt lat="44.2769178" lon="11.750646"><ele>74.5</ele><time>2026-04-25T07:29:08.115Z</time></trkpt><trkpt lat="44.2768979" lon="11.7505332"><ele>75.33333333333334</ele><time>2026-04-25T07:29:11.078Z</time></trkpt><trkpt lat="44.2768734" lon="11.7504268"><ele>76.16666666666667</ele><time>2026-04-25T07:29:14.084Z</time></trkpt><trkpt lat="44.2768434" lon="11.7503135"><ele>77.0</ele><time>2026-04-25T07:29:17.076Z</time></trkpt><trkpt lat="44.2768159" lon="11.7501944"><ele>77.33333333333334</ele><time>2026-04-25T07:29:20.106Z</time></trkpt><trkpt lat="44.276791" lon="11.7500831"><ele>77.66666666666667</ele><time>2026-04-25T07:29:23.035Z</time></trkpt><trkpt lat="44.2767637" lon="11.7499758"><ele>78.0</ele><time>2026-04-25T07:29:26.063Z</time></trkpt><trkpt lat="44.2767351" lon="11.7498673"><ele>78.33333333333333</ele><time>2026-04-25T07:29:29.092Z</time></trkpt><trkpt lat="44.276716" lon="11.7497552"><ele>78.66666666666666</ele><time>2026-04-25T07:29:32.109Z</time></trkpt><trkpt lat="44.2766925" lon="11.7496382"><ele>79.0</ele><time>2026-04-25T07:29:35.103Z</time></trkpt><trkpt lat="44.2766693" lon="11.749525"><ele>79.0</ele><time>2026-04-25T07:29:38.11Z</time></trkpt><trkpt lat="44.2766471" lon="11.7494159"><ele>79.0</ele><time>2026-04-25T07:29:41.081Z</time></trkpt><trkpt lat="44.2766227" lon="11.7493064"><ele>79.0</ele><time>2026-04-25T07:29:44.109Z</time></trkpt><trkpt lat="44.2766121" lon="11.7491945"><ele>79.0</ele><time>2026-04-25T07:29:47.106Z</time></trkpt><trkpt lat="44.2766002" lon="11.7490812"><ele>79.0</ele><time>2026-04-25T07:29:50.097Z</time></trkpt><trkpt lat="44.2765858" lon="11.7489638"><ele>79.0</ele><time>2026-04-25T07:29:53.113Z</time></trkpt><trkpt lat="44.2765758" lon="11.7488464"><ele>79.16666666666666</ele><time>2026-04-25T07:29:56.104Z</time></trkpt><trkpt lat="44.2765696" lon="11.7487363"><ele>79.33333333333333</ele><time>2026-04-25T07:29:59.103Z</time></trkpt><trkpt lat="44.2765592" lon="11.7486164"><ele>79.5</ele><time>2026-04-25T07:30:02.117Z</time></trkpt><trkpt lat="44.2765468" lon="11.7484923"><ele>79.66666666666667</ele><time>2026-04-25T07:30:05.104Z</time></trkpt><trkpt lat="44.2765414" lon="11.7483727"><ele>79.83333333333334</ele><time>2026-04-25T07:30:08.067Z</time></trkpt><trkpt lat="44.2765426" lon="11.7482587"><ele>80.0</ele><time>2026-04-25T07:30:11.112Z</time></trkpt><trkpt lat="44.2765461" lon="11.7481399"><ele>80.0</ele><time>2026-04-25T07:30:14.09Z</time></trkpt><trkpt lat="44.2765485" lon="11.7480157"><ele>80.0</ele><time>2026-04-25T07:30:17.099Z</time></trkpt><trkpt lat="44.2765605" lon="11.7479029"><ele>80.0</ele><time>2026-04-25T07:30:20.032Z</time></trkpt><trkpt lat="44.2765786" lon="11.74778"><ele>80.0</ele><time>2026-04-25T07:30:23.115Z</time></trkpt><trkpt lat="44.2765898" lon="11.7476619"><ele>80.0</ele><time>2026-04-25T07:30:26.096Z</time></trkpt><trkpt lat="44.2766065" lon="11.7475487"><ele>80.0</ele><time>2026-04-25T07:30:29.127Z</time></trkpt><trkpt lat="44.2766199" lon="11.7474371"><ele>80.0</ele><time>2026-04-25T07:30:32.075Z</time></trkpt><trkpt lat="44.2766275" lon="11.7473304"><ele>80.0</ele><time>2026-04-25T07:30:34.988Z</time></trkpt><trkpt lat="44.276639" lon="11.7472185"><ele>80.0</ele><time>2026-04-25T07:30:38.044Z</time></trkpt><trkpt lat="44.2766612" lon="11.7470931"><ele>80.0</ele><time>2026-04-25T07:30:41.104Z</time></trkpt><trkpt lat="44.2766747" lon="11.7469739"><ele>80.0</ele><time>2026-04-25T07:30:44.13Z</time></trkpt><trkpt lat="44.276684" lon="11.7468819"><ele>80.0</ele><time>2026-04-25T07:30:46.105Z</time></trkpt><trkpt lat="44.2766969" lon="11.7467651"><ele>80.0</ele><time>2026-04-25T07:30:49.048Z</time></trkpt><trkpt lat="44.2767042" lon="11.7466473"><ele>80.0</ele><time>2026-04-25T07:30:52.091Z</time></trkpt><trkpt lat="44.2767139" lon="11.7465442"><ele>80.0</ele><time>2026-04-25T07:30:55.032Z</time></trkpt><trkpt lat="44.2767304" lon="11.7464355"><ele>80.0</ele><time>2026-04-25T07:30:58.106Z</time></trkpt><trkpt lat="44.2767578" lon="11.7463248"><ele>80.0</ele><time>2026-04-25T07:31:01.077Z</time></trkpt><trkpt lat="44.276765" lon="11.746206"><ele>80.0</ele><time>2026-04-25T07:31:04.165Z</time></trkpt><trkpt lat="44.2767918" lon="11.746099"><ele>80.0</ele><time>2026-04-25T07:31:07.036Z</time></trkpt><trkpt lat="44.2768271" lon="11.7459952"><ele>80.0</ele><time>2026-04-25T07:31:10.097Z</time></trkpt><trkpt lat="44.27686" lon="11.7459004"><ele>80.0</ele><time>2026-04-25T07:31:14.084Z</time></trkpt><trkpt lat="44.276822" lon="11.7458201"><ele>80.0</ele><time>2026-04-25T07:31:44.104Z</time></trkpt><trkpt lat="44.2768101" lon="11.7457251"><ele>80.0</ele><time>2026-04-25T07:32:00.112Z</time></trkpt><trkpt lat="44.2768162" lon="11.7456217"><ele>80.0</ele><time>2026-04-25T07:32:07.068Z</time></trkpt><trkpt lat="44.2768285" lon="11.7455215"><ele>80.0</ele><time>2026-04-25T07:32:13.085Z</time></trkpt><trkpt lat="44.2768304" lon="11.7454205"><ele>80.0</ele><time>2026-04-25T07:32:19.104Z</time></trkpt><trkpt lat="44.2768407" lon="11.7453197"><ele>80.0</ele><time>2026-04-25T07:32:25.085Z</time></trkpt><trkpt lat="44.2768536" lon="11.7452327"><ele>80.0</ele><time>2026-04-25T07:32:30.086Z</time></trkpt><trkpt lat="44.2768671" lon="11.7451424"><ele>80.0</ele><time>2026-04-25T07:32:35.107Z</time></trkpt><trkpt lat="44.2768845" lon="11.7450552"><ele>80.0</ele><time>2026-04-25T07:32:39.991Z</time></trkpt><trkpt lat="44.2768922" lon="11.7449666"><ele>80.0</ele><time>2026-04-25T07:32:43.095Z</time></trkpt><trkpt lat="44.2769076" lon="11.7448541"><ele>80.0</ele><time>2026-04-25T07:32:47.103Z</time></trkpt><trkpt lat="44.2769196" lon="11.7447613"><ele>80.0</ele><time>2026-04-25T07:32:50.111Z</time></trkpt><trkpt lat="44.2769347" lon="11.7446478"><ele>80.0</ele><time>2026-04-25T07:32:53.104Z</time></trkpt><trkpt lat="44.276947" lon="11.744538"><ele>80.0</ele><time>2026-04-25T07:32:55.986Z</time></trkpt><trkpt lat="44.2769472" lon="11.7444232"><ele>80.0</ele><time>2026-04-25T07:32:59.09Z</time></trkpt><trkpt lat="44.27696" lon="11.7443078"><ele>80.0</ele><time>2026-04-25T07:33:02.107Z</time></trkpt><trkpt lat="44.2769649" lon="11.7441929"><ele>80.0</ele><time>2026-04-25T07:33:05.035Z</time></trkpt><trkpt lat="44.2769413" lon="11.7440713"><ele>80.33333333333334</ele><time>2026-04-25T07:33:08.089Z</time></trkpt><trkpt lat="44.2769394" lon="11.7439499"><ele>80.66666666666667</ele><time>2026-04-25T07:33:11.15Z</time></trkpt><trkpt lat="44.2769432" lon="11.7438313"><ele>81.0</ele><time>2026-04-25T07:33:14.062Z</time></trkpt><trkpt lat="44.2769475" lon="11.7437111"><ele>81.33333333333333</ele><time>2026-04-25T07:33:17.085Z</time></trkpt><trkpt lat="44.2769447" lon="11.7435955"><ele>81.66666666666666</ele><time>2026-04-25T07:33:20.108Z</time></trkpt><trkpt lat="44.2769404" lon="11.7434795"><ele>82.0</ele><time>2026-04-25T07:33:23.104Z</time></trkpt><trkpt lat="44.2769275" lon="11.743369"><ele>82.0</ele><time>2026-04-25T07:33:26.032Z</time></trkpt><trkpt lat="44.2769209" lon="11.7432556"><ele>82.0</ele><time>2026-04-25T07:33:29.102Z</time></trkpt><trkpt lat="44.2769198" lon="11.7431385"><ele>82.0</ele><time>2026-04-25T07:33:32.1Z</time></trkpt><trkpt lat="44.2769121" lon="11.74302"><ele>82.0</ele><time>2026-04-25T07:33:35.054Z</time></trkpt><trkpt lat="44.2769047" lon="11.7429016"><ele>82.0</ele><time>2026-04-25T07:33:38.107Z</time></trkpt><trkpt lat="44.2768983" lon="11.7427848"><ele>82.0</ele><time>2026-04-25T07:33:41.013Z</time></trkpt><trkpt lat="44.2768939" lon="11.7426645"><ele>81.83333333333333</ele><time>2026-04-25T07:33:44.128Z</time></trkpt><trkpt lat="44.2768917" lon="11.742544"><ele>81.66666666666666</ele><time>2026-04-25T07:33:47.12Z</time></trkpt><trkpt lat="44.2768809" lon="11.7424271"><ele>81.5</ele><time>2026-04-25T07:33:50.028Z</time></trkpt><trkpt lat="44.2768682" lon="11.7423096"><ele>81.33333333333333</ele><time>2026-04-25T07:33:53.094Z</time></trkpt><trkpt lat="44.2768547" lon="11.742197"><ele>81.16666666666667</ele><time>2026-04-25T07:33:56.104Z</time></trkpt><trkpt lat="44.2768503" lon="11.7420877"><ele>81.0</ele><time>2026-04-25T07:33:59.068Z</time></trkpt><trkpt lat="44.2768472" lon="11.741967"><ele>81.33333333333333</ele><time>2026-04-25T07:34:02.129Z</time></trkpt><trkpt lat="44.2768394" lon="11.7418537"><ele>81.66666666666667</ele><time>2026-04-25T07:34:05.116Z</time></trkpt><trkpt lat="44.276828" lon="11.7417405"><ele>82.0</ele><time>2026-04-25T07:34:08.108Z</time></trkpt><trkpt lat="44.276817" lon="11.7416268"><ele>82.33333333333334</ele><time>2026-04-25T07:34:11.109Z</time></trkpt><trkpt lat="44.2768122" lon="11.7415041"><ele>82.66666666666667</ele><time>2026-04-25T07:34:14.068Z</time></trkpt><trkpt lat="44.2768205" lon="11.7413829"><ele>83.0</ele><time>2026-04-25T07:34:17.13Z</time></trkpt><trkpt lat="44.2768493" lon="11.7412761"><ele>83.0</ele><time>2026-04-25T07:34:19.993Z</time></trkpt><trkpt lat="44.2768781" lon="11.7411669"><ele>83.0</ele><time>2026-04-25T07:34:23.132Z</time></trkpt><trkpt lat="44.2768944" lon="11.7410709"><ele>83.0</ele><time>2026-04-25T07:34:26.107Z</time></trkpt><trkpt lat="44.2768782" lon="11.7409715"><ele>83.0</ele><time>2026-04-25T07:34:29.089Z</time></trkpt><trkpt lat="44.2768338" lon="11.7408751"><ele>83.0</ele><time>2026-04-25T07:34:32.126Z</time></trkpt><trkpt lat="44.2767949" lon="11.7407714"><ele>83.0</ele><time>2026-04-25T07:34:35.113Z</time></trkpt><trkpt lat="44.276761" lon="11.7406725"><ele>83.16666666666667</ele><time>2026-04-25T07:34:38.122Z</time></trkpt><trkpt lat="44.2767363" lon="11.7405677"><ele>83.33333333333334</ele><time>2026-04-25T07:34:40.985Z</time></trkpt><trkpt lat="44.2767218" lon="11.7404458"><ele>83.5</ele><time>2026-04-25T07:34:44.088Z</time></trkpt><trkpt lat="44.2767106" lon="11.7403299"><ele>83.66666666666667</ele><time>2026-04-25T07:34:47.115Z</time></trkpt><trkpt lat="44.2767009" lon="11.7402101"><ele>83.83333333333333</ele><time>2026-04-25T07:34:50.068Z</time></trkpt><trkpt lat="44.2766881" lon="11.7400811"><ele>84.0</ele><time>2026-04-25T07:34:53.104Z</time></trkpt><trkpt lat="44.2766732" lon="11.7399592"><ele>84.0</ele><time>2026-04-25T07:34:56.007Z</time></trkpt><trkpt lat="44.2766579" lon="11.7398373"><ele>84.0</ele><time>2026-04-25T07:34:59.089Z</time></trkpt><trkpt lat="44.2766524" lon="11.7397186"><ele>84.0</ele><time>2026-04-25T07:35:02.102Z</time></trkpt><trkpt lat="44.2766428" lon="11.7396076"><ele>84.0</ele><time>2026-04-25T07:35:05.057Z</time></trkpt><trkpt lat="44.2766277" lon="11.7394883"><ele>84.0</ele><time>2026-04-25T07:35:08.123Z</time></trkpt><trkpt lat="44.276618" lon="11.739376"><ele>84.0</ele><time>2026-04-25T07:35:10.989Z</time></trkpt><trkpt lat="44.2766083" lon="11.7392622"><ele>84.16666666666667</ele><time>2026-04-25T07:35:14.057Z</time></trkpt><trkpt lat="44.2766002" lon="11.7391485"><ele>84.33333333333333</ele><time>2026-04-25T07:35:17.107Z</time></trkpt><trkpt lat="44.2765901" lon="11.7390399"><ele>84.5</ele><time>2026-04-25T07:35:20.106Z</time></trkpt><trkpt lat="44.2765793" lon="11.7389198"><ele>84.66666666666666</ele><time>2026-04-25T07:35:23.099Z</time></trkpt><trkpt lat="44.2765739" lon="11.7387987"><ele>84.83333333333333</ele><time>2026-04-25T07:35:26.1Z</time></trkpt><trkpt lat="44.2765639" lon="11.7386844"><ele>85.0</ele><time>2026-04-25T07:35:29.099Z</time></trkpt><trkpt lat="44.2765563" lon="11.7385631"><ele>85.5</ele><time>2026-04-25T07:35:32.088Z</time></trkpt><trkpt lat="44.2765523" lon="11.7384746"><ele>86.0</ele><time>2026-04-25T07:35:34.075Z</time></trkpt><trkpt lat="44.2765423" lon="11.7383506"><ele>86.5</ele><time>2026-04-25T07:35:36.99Z</time></trkpt><trkpt lat="44.2765298" lon="11.7382638"><ele>87.0</ele><time>2026-04-25T07:35:39.099Z</time></trkpt><trkpt lat="44.2765152" lon="11.7381416"><ele>87.5</ele><time>2026-04-25T07:35:42.107Z</time></trkpt><trkpt lat="44.2765056" lon="11.7380209"><ele>88.0</ele><time>2026-04-25T07:35:44.988Z</time></trkpt><trkpt lat="44.2764977" lon="11.7378915"><ele>88.0</ele><time>2026-04-25T07:35:48.109Z</time></trkpt><trkpt lat="44.2764866" lon="11.737764"><ele>88.0</ele><time>2026-04-25T07:35:51.124Z</time></trkpt><trkpt lat="44.2764783" lon="11.7376509"><ele>88.0</ele><time>2026-04-25T07:35:54.011Z</time></trkpt><trkpt lat="44.2764777" lon="11.7375258"><ele>88.0</ele><time>2026-04-25T07:35:57.101Z</time></trkpt><trkpt lat="44.2764774" lon="11.7374035"><ele>88.0</ele><time>2026-04-25T07:36:00.069Z</time></trkpt><trkpt lat="44.2764799" lon="11.737283"><ele>88.0</ele><time>2026-04-25T07:36:03.123Z</time></trkpt><trkpt lat="44.2764803" lon="11.7371627"><ele>88.0</ele><time>2026-04-25T07:36:06.072Z</time></trkpt><trkpt lat="44.276481" lon="11.7370405"><ele>88.0</ele><time>2026-04-25T07:36:09.068Z</time></trkpt><trkpt lat="44.2764805" lon="11.7369258"><ele>88.0</ele><time>2026-04-25T07:36:12.119Z</time></trkpt><trkpt lat="44.2764832" lon="11.7368171"><ele>88.0</ele><time>2026-04-25T07:36:15.025Z</time></trkpt><trkpt lat="44.2764769" lon="11.7367035"><ele>88.0</ele><time>2026-04-25T07:36:18.112Z</time></trkpt><trkpt lat="44.2764755" lon="11.7365967"><ele>88.0</ele><time>2026-04-25T07:36:20.971Z</time></trkpt><trkpt lat="44.2764738" lon="11.7364808"><ele>87.66666666666666</ele><time>2026-04-25T07:36:24.094Z</time></trkpt><trkpt lat="44.2764797" lon="11.7363689"><ele>87.33333333333333</ele><time>2026-04-25T07:36:27.086Z</time></trkpt><trkpt lat="44.2764677" lon="11.7362588"><ele>87.0</ele><time>2026-04-25T07:36:30.055Z</time></trkpt><trkpt lat="44.2764606" lon="11.7361485"><ele>86.66666666666667</ele><time>2026-04-25T07:36:33.104Z</time></trkpt><trkpt lat="44.2764627" lon="11.7360374"><ele>86.33333333333334</ele><time>2026-04-25T07:36:36.073Z</time></trkpt><trkpt lat="44.2764527" lon="11.7359172"><ele>86.0</ele><time>2026-04-25T07:36:39.054Z</time></trkpt><trkpt lat="44.2764442" lon="11.7358057"><ele>86.0</ele><time>2026-04-25T07:36:42.097Z</time></trkpt><trkpt lat="44.2764393" lon="11.7356994"><ele>86.0</ele><time>2026-04-25T07:36:45.064Z</time></trkpt><trkpt lat="44.27644" lon="11.7355914"><ele>86.0</ele><time>2026-04-25T07:36:48.094Z</time></trkpt><trkpt lat="44.2764369" lon="11.7354806"><ele>86.0</ele><time>2026-04-25T07:36:51.068Z</time></trkpt><trkpt lat="44.2764381" lon="11.7353585"><ele>86.0</ele><time>2026-04-25T07:36:54.112Z</time></trkpt><trkpt lat="44.2764377" lon="11.7352405"><ele>86.0</ele><time>2026-04-25T07:36:57.028Z</time></trkpt><trkpt lat="44.276436" lon="11.7351108"><ele>85.83333333333334</ele><time>2026-04-25T07:37:00.168Z</time></trkpt><trkpt lat="44.2764255" lon="11.7349983"><ele>85.66666666666667</ele><time>2026-04-25T07:37:03.103Z</time></trkpt><trkpt lat="44.2764245" lon="11.73489"><ele>85.5</ele><time>2026-04-25T07:37:06.004Z</time></trkpt><trkpt lat="44.2764242" lon="11.7347745"><ele>85.33333333333333</ele><time>2026-04-25T07:37:09.088Z</time></trkpt><trkpt lat="44.2764163" lon="11.7346498"><ele>85.16666666666666</ele><time>2026-04-25T07:37:12.121Z</time></trkpt><trkpt lat="44.2764122" lon="11.7345258"><ele>85.0</ele><time>2026-04-25T07:37:15.029Z</time></trkpt><trkpt lat="44.2764043" lon="11.734404"><ele>85.16666666666666</ele><time>2026-04-25T07:37:18.093Z</time></trkpt><trkpt lat="44.2764038" lon="11.7342875"><ele>85.33333333333333</ele><time>2026-04-25T07:37:21.086Z</time></trkpt><trkpt lat="44.2763987" lon="11.7341762"><ele>85.5</ele><time>2026-04-25T07:37:24.008Z</time></trkpt><trkpt lat="44.2763906" lon="11.7340616"><ele>85.66666666666667</ele><time>2026-04-25T07:37:27.115Z</time></trkpt><trkpt lat="44.2763961" lon="11.7339473"><ele>85.83333333333334</ele><time>2026-04-25T07:37:30.114Z</time></trkpt><trkpt lat="44.2763913" lon="11.733836"><ele>86.0</ele><time>2026-04-25T07:37:33.076Z</time></trkpt><trkpt lat="44.2763841" lon="11.7337383"><ele>86.0</ele><time>2026-04-25T07:37:36.088Z</time></trkpt><trkpt lat="44.2763802" lon="11.7336438"><ele>86.0</ele><time>2026-04-25T07:37:39.011Z</time></trkpt><trkpt lat="44.2763796" lon="11.7335346"><ele>86.0</ele><time>2026-04-25T07:37:42.11Z</time></trkpt><trkpt lat="44.2763764" lon="11.7334216"><ele>86.0</ele><time>2026-04-25T07:37:45.103Z</time></trkpt><trkpt lat="44.2763711" lon="11.7333177"><ele>86.0</ele><time>2026-04-25T07:37:47.787Z</time></trkpt><trkpt lat="44.276368" lon="11.7332245"><ele>86.0</ele><time>2026-04-25T07:37:50.113Z</time></trkpt><trkpt lat="44.2763616" lon="11.7331088"><ele>86.16666666666667</ele><time>2026-04-25T07:37:53.094Z</time></trkpt><trkpt lat="44.2763667" lon="11.7329938"><ele>86.33333333333334</ele><time>2026-04-25T07:37:56.084Z</time></trkpt><trkpt lat="44.2763697" lon="11.7328777"><ele>86.5</ele><time>2026-04-25T07:37:59.105Z</time></trkpt><trkpt lat="44.2763659" lon="11.7327547"><ele>86.66666666666667</ele><time>2026-04-25T07:38:02.086Z</time></trkpt><trkpt lat="44.2763602" lon="11.73264"><ele>86.83333333333333</ele><time>2026-04-25T07:38:05.011Z</time></trkpt><trkpt lat="44.2763585" lon="11.7325241"><ele>87.0</ele><time>2026-04-25T07:38:08.108Z</time></trkpt><trkpt lat="44.2763605" lon="11.7324082"><ele>87.16666666666667</ele><time>2026-04-25T07:38:11.012Z</time></trkpt><trkpt lat="44.2763644" lon="11.7322888"><ele>87.33333333333333</ele><time>2026-04-25T07:38:14.118Z</time></trkpt><trkpt lat="44.2763531" lon="11.7321803"><ele>87.5</ele><time>2026-04-25T07:38:17.092Z</time></trkpt><trkpt lat="44.2763449" lon="11.7320656"><ele>87.66666666666666</ele><time>2026-04-25T07:38:20.141Z</time></trkpt><trkpt lat="44.2763426" lon="11.7319499"><ele>87.83333333333333</ele><time>2026-04-25T07:38:23.102Z</time></trkpt><trkpt lat="44.2763419" lon="11.7318368"><ele>88.0</ele><time>2026-04-25T07:38:26.122Z</time></trkpt><trkpt lat="44.2763419" lon="11.7317177"><ele>88.0</ele><time>2026-04-25T07:38:29.096Z</time></trkpt><trkpt lat="44.2763438" lon="11.7316039"><ele>88.0</ele><time>2026-04-25T07:38:32.097Z</time></trkpt><trkpt lat="44.2763457" lon="11.7315014"><ele>88.0</ele><time>2026-04-25T07:38:35.115Z</time></trkpt><trkpt lat="44.2763468" lon="11.7313864"><ele>88.0</ele><time>2026-04-25T07:38:38.103Z</time></trkpt><trkpt lat="44.2763475" lon="11.7312794"><ele>88.0</ele><time>2026-04-25T07:38:41.083Z</time></trkpt><trkpt lat="44.2763433" lon="11.7311722"><ele>88.0</ele><time>2026-04-25T07:38:44.097Z</time></trkpt><trkpt lat="44.2763475" lon="11.7310643"><ele>88.16666666666666</ele><time>2026-04-25T07:38:47.092Z</time></trkpt><trkpt lat="44.2763529" lon="11.7309603"><ele>88.33333333333333</ele><time>2026-04-25T07:38:50.11Z</time></trkpt><trkpt lat="44.2763601" lon="11.7308479"><ele>88.5</ele><time>2026-04-25T07:38:53.068Z</time></trkpt><trkpt lat="44.2763645" lon="11.7307262"><ele>88.66666666666667</ele><time>2026-04-25T07:38:56.086Z</time></trkpt><trkpt lat="44.2763686" lon="11.7305986"><ele>88.83333333333334</ele><time>2026-04-25T07:38:59.07Z</time></trkpt><trkpt lat="44.2763647" lon="11.7304776"><ele>89.0</ele><time>2026-04-25T07:39:02.075Z</time></trkpt><trkpt lat="44.2763584" lon="11.7303623"><ele>89.0</ele><time>2026-04-25T07:39:05.094Z</time></trkpt><trkpt lat="44.2763536" lon="11.7302502"><ele>89.0</ele><time>2026-04-25T07:39:08.074Z</time></trkpt><trkpt lat="44.2763558" lon="11.7301306"><ele>89.0</ele><time>2026-04-25T07:39:11.109Z</time></trkpt><trkpt lat="44.2763595" lon="11.7300233"><ele>89.0</ele><time>2026-04-25T07:39:14.106Z</time></trkpt><trkpt lat="44.276352" lon="11.7299195"><ele>89.0</ele><time>2026-04-25T07:39:17.079Z</time></trkpt><trkpt lat="44.2763397" lon="11.7298124"><ele>89.0</ele><time>2026-04-25T07:39:20.09Z</time></trkpt><trkpt lat="44.2763346" lon="11.7296913"><ele>89.16666666666667</ele><time>2026-04-25T07:39:23.11Z</time></trkpt><trkpt lat="44.2763375" lon="11.7295773"><ele>89.33333333333334</ele><time>2026-04-25T07:39:26.009Z</time></trkpt><trkpt lat="44.2763373" lon="11.7294591"><ele>89.5</ele><time>2026-04-25T07:39:29.12Z</time></trkpt><trkpt lat="44.2763345" lon="11.7293626"><ele>89.66666666666667</ele><time>2026-04-25T07:39:32.01Z</time></trkpt><trkpt lat="44.2763319" lon="11.7292581"><ele>89.83333333333333</ele><time>2026-04-25T07:39:35.054Z</time></trkpt><trkpt lat="44.2763317" lon="11.7291484"><ele>90.0</ele><time>2026-04-25T07:39:38.085Z</time></trkpt><trkpt lat="44.2763337" lon="11.7290297"><ele>90.33333333333333</ele><time>2026-04-25T07:39:41.124Z</time></trkpt><trkpt lat="44.2763306" lon="11.7289171"><ele>90.66666666666667</ele><time>2026-04-25T07:39:44.026Z</time></trkpt><trkpt lat="44.2763293" lon="11.7288286"><ele>91.0</ele><time>2026-04-25T07:39:46.146Z</time></trkpt><trkpt lat="44.2763246" lon="11.7287129"><ele>91.33333333333334</ele><time>2026-04-25T07:39:49.077Z</time></trkpt><trkpt lat="44.2763194" lon="11.7286044"><ele>91.66666666666667</ele><time>2026-04-25T07:39:52.08Z</time></trkpt><trkpt lat="44.2763158" lon="11.7284956"><ele>92.0</ele><time>2026-04-25T07:39:55.012Z</time></trkpt><trkpt lat="44.276308" lon="11.7283875"><ele>92.16666666666667</ele><time>2026-04-25T07:39:58.079Z</time></trkpt><trkpt lat="44.2763043" lon="11.7282722"><ele>92.33333333333334</ele><time>2026-04-25T07:40:01.117Z</time></trkpt><trkpt lat="44.2763016" lon="11.7281624"><ele>92.5</ele><time>2026-04-25T07:40:04.109Z</time></trkpt><trkpt lat="44.2762996" lon="11.7280532"><ele>92.66666666666667</ele><time>2026-04-25T07:40:07.1Z</time></trkpt><trkpt lat="44.2762964" lon="11.7279501"><ele>92.83333333333333</ele><time>2026-04-25T07:40:10.106Z</time></trkpt><trkpt lat="44.2762981" lon="11.7278593"><ele>93.0</ele><time>2026-04-25T07:40:14.1Z</time></trkpt><trkpt lat="44.2763034" lon="11.7277532"><ele>93.0</ele><time>2026-04-25T07:40:17.099Z</time></trkpt><trkpt lat="44.2763045" lon="11.7276261"><ele>93.0</ele><time>2026-04-25T07:40:21.125Z</time></trkpt><trkpt lat="44.2763113" lon="11.7275281"><ele>93.0</ele><time>2026-04-25T07:40:24.078Z</time></trkpt><trkpt lat="44.2763157" lon="11.7274128"><ele>93.0</ele><time>2026-04-25T07:40:27.115Z</time></trkpt><trkpt lat="44.276318" lon="11.7273026"><ele>93.0</ele><time>2026-04-25T07:40:30.129Z</time></trkpt><trkpt lat="44.2763206" lon="11.727205"><ele>93.0</ele><time>2026-04-25T07:40:33.01Z</time></trkpt><trkpt lat="44.2762931" lon="11.7271034"><ele>93.0</ele><time>2026-04-25T07:40:36.131Z</time></trkpt><trkpt lat="44.2762538" lon="11.7270157"><ele>93.0</ele><time>2026-04-25T07:40:39.092Z</time></trkpt><trkpt lat="44.2762413" lon="11.726909"><ele>93.0</ele><time>2026-04-25T07:40:42.087Z</time></trkpt><trkpt lat="44.2762214" lon="11.7268085"><ele>93.0</ele><time>2026-04-25T07:40:45.126Z</time></trkpt><trkpt lat="44.2761972" lon="11.7267075"><ele>93.0</ele><time>2026-04-25T07:40:48.082Z</time></trkpt><trkpt lat="44.2761761" lon="11.7266069"><ele>93.0</ele><time>2026-04-25T07:40:51.146Z</time></trkpt><trkpt lat="44.2761596" lon="11.7265068"><ele>93.33333333333333</ele><time>2026-04-25T07:40:54.032Z</time></trkpt><trkpt lat="44.2761439" lon="11.7263988"><ele>93.66666666666667</ele><time>2026-04-25T07:40:57.12Z</time></trkpt><trkpt lat="44.2761239" lon="11.7262943"><ele>94.0</ele><time>2026-04-25T07:41:00.006Z</time></trkpt><trkpt lat="44.2761008" lon="11.7261857"><ele>94.33333333333334</ele><time>2026-04-25T07:41:03.093Z</time></trkpt><trkpt lat="44.2760803" lon="11.7260776"><ele>94.66666666666667</ele><time>2026-04-25T07:41:06.08Z</time></trkpt><trkpt lat="44.2760559" lon="11.7259627"><ele>95.0</ele><time>2026-04-25T07:41:09.108Z</time></trkpt><trkpt lat="44.2760295" lon="11.7258528"><ele>95.28571428571429</ele><time>2026-04-25T07:41:12.109Z</time></trkpt><trkpt lat="44.2760029" lon="11.7257413"><ele>95.57142857142858</ele><time>2026-04-25T07:41:15.111Z</time></trkpt><trkpt lat="44.2759795" lon="11.7256359"><ele>95.85714285714286</ele><time>2026-04-25T07:41:18.102Z</time></trkpt><trkpt lat="44.2759616" lon="11.7255502"><ele>96.14285714285714</ele><time>2026-04-25T07:41:21.132Z</time></trkpt><trkpt lat="44.2759447" lon="11.7254636"><ele>96.42857142857143</ele><time>2026-04-25T07:41:28.126Z</time></trkpt><trkpt lat="44.2759273" lon="11.7253669"><ele>96.71428571428571</ele><time>2026-04-25T07:41:34.063Z</time></trkpt><trkpt lat="44.2759115" lon="11.7252724"><ele>97.0</ele><time>2026-04-25T07:41:37.056Z</time></trkpt><trkpt lat="44.2758923" lon="11.7251883"><ele>97.16666666666667</ele><time>2026-04-25T07:41:40.088Z</time></trkpt><trkpt lat="44.2758717" lon="11.7250931"><ele>97.33333333333334</ele><time>2026-04-25T07:41:43.087Z</time></trkpt><trkpt lat="44.2758461" lon="11.7249888"><ele>97.5</ele><time>2026-04-25T07:41:46.093Z</time></trkpt><trkpt lat="44.2758299" lon="11.7248742"><ele>97.66666666666666</ele><time>2026-04-25T07:41:49.076Z</time></trkpt><trkpt lat="44.2758077" lon="11.7247609"><ele>97.83333333333333</ele><time>2026-04-25T07:41:52.119Z</time></trkpt><trkpt lat="44.2757734" lon="11.724649"><ele>98.0</ele><time>2026-04-25T07:41:55.101Z</time></trkpt><trkpt lat="44.2757332" lon="11.7245379"><ele>97.99999999999999</ele><time>2026-04-25T07:41:58.006Z</time></trkpt><trkpt lat="44.2757003" lon="11.7244217"><ele>98.0</ele><time>2026-04-25T07:42:01.091Z</time></trkpt><trkpt lat="44.2756789" lon="11.7243176"><ele>98.0</ele><time>2026-04-25T07:42:04.046Z</time></trkpt><trkpt lat="44.2756614" lon="11.7242186"><ele>98.0</ele><time>2026-04-25T07:42:07.08Z</time></trkpt><trkpt lat="44.2756413" lon="11.7241185"><ele>97.99999999999999</ele><time>2026-04-25T07:42:10.055Z</time></trkpt><trkpt lat="44.2756156" lon="11.7240166"><ele>98.0</ele><time>2026-04-25T07:42:12.871Z</time></trkpt><trkpt lat="44.2755821" lon="11.7239038"><ele>97.49999999999999</ele><time>2026-04-25T07:42:16.107Z</time></trkpt><trkpt lat="44.2755526" lon="11.7237978"><ele>97.0</ele><time>2026-04-25T07:42:19.028Z</time></trkpt><trkpt lat="44.2755282" lon="11.7236822"><ele>96.5</ele><time>2026-04-25T07:42:22.103Z</time></trkpt><trkpt lat="44.2755044" lon="11.7235758"><ele>96.0</ele><time>2026-04-25T07:42:25.077Z</time></trkpt><trkpt lat="44.2754795" lon="11.7234678"><ele>95.5</ele><time>2026-04-25T07:42:28.092Z</time></trkpt><trkpt lat="44.2754576" lon="11.7233614"><ele>95.0</ele><time>2026-04-25T07:42:31.092Z</time></trkpt><trkpt lat="44.2754377" lon="11.7232553"><ele>94.66666666666667</ele><time>2026-04-25T07:42:34.088Z</time></trkpt><trkpt lat="44.2754172" lon="11.7231376"><ele>94.33333333333334</ele><time>2026-04-25T07:42:37.109Z</time></trkpt><trkpt lat="44.2754022" lon="11.7230512"><ele>94.0</ele><time>2026-04-25T07:42:39.09Z</time></trkpt><trkpt lat="44.2753826" lon="11.7229386"><ele>93.66666666666667</ele><time>2026-04-25T07:42:42.092Z</time></trkpt><trkpt lat="44.2753908" lon="11.7228297"><ele>93.33333333333333</ele><time>2026-04-25T07:42:45.09Z</time></trkpt><trkpt lat="44.2754497" lon="11.7227522"><ele>93.0</ele><time>2026-04-25T07:42:48.079Z</time></trkpt><trkpt lat="44.2755141" lon="11.7226927"><ele>93.66666666666667</ele><time>2026-04-25T07:42:51.097Z</time></trkpt><trkpt lat="44.2755953" lon="11.7226623"><ele>94.33333333333334</ele><time>2026-04-25T07:42:54.125Z</time></trkpt><trkpt lat="44.2756735" lon="11.722635"><ele>95.0</ele><time>2026-04-25T07:42:58.005Z</time></trkpt><trkpt lat="44.2757396" lon="11.7226023"><ele>95.66666666666667</ele><time>2026-04-25T07:43:02.074Z</time></trkpt><trkpt lat="44.2758051" lon="11.7225747"><ele>96.33333333333334</ele><time>2026-04-25T07:43:06.026Z</time></trkpt><trkpt lat="44.2758734" lon="11.7225336"><ele>97.0</ele><time>2026-04-25T07:43:09.129Z</time></trkpt><trkpt lat="44.2759512" lon="11.7224874"><ele>97.66666666666667</ele><time>2026-04-25T07:43:13.049Z</time></trkpt><trkpt lat="44.2760212" lon="11.7224416"><ele>98.33333333333334</ele><time>2026-04-25T07:43:16.097Z</time></trkpt><trkpt lat="44.2760814" lon="11.7224003"><ele>99.0</ele><time>2026-04-25T07:43:19.095Z</time></trkpt><trkpt lat="44.2761493" lon="11.7223561"><ele>99.66666666666666</ele><time>2026-04-25T07:43:22.067Z</time></trkpt><trkpt lat="44.2762149" lon="11.7222898"><ele>100.33333333333333</ele><time>2026-04-25T07:43:25.083Z</time></trkpt><trkpt lat="44.2762706" lon="11.7222123"><ele>101.0</ele><time>2026-04-25T07:43:28.095Z</time></trkpt><trkpt lat="44.2763133" lon="11.72209"><ele>100.99999999999999</ele><time>2026-04-25T07:43:31.082Z</time></trkpt><trkpt lat="44.2763286" lon="11.7219907"><ele>101.0</ele><time>2026-04-25T07:43:33.141Z</time></trkpt><trkpt lat="44.2763344" lon="11.7219012"><ele>101.0</ele><time>2026-04-25T07:43:35.09Z</time></trkpt><trkpt lat="44.2763308" lon="11.7217766"><ele>101.0</ele><time>2026-04-25T07:43:38.081Z</time></trkpt><trkpt lat="44.2763084" lon="11.7216611"><ele>100.99999999999999</ele><time>2026-04-25T07:43:41.057Z</time></trkpt><trkpt lat="44.2763095" lon="11.7215644"><ele>101.0</ele><time>2026-04-25T07:43:43.099Z</time></trkpt><trkpt lat="44.276293" lon="11.7214551"><ele>100.49999999999999</ele><time>2026-04-25T07:43:46.007Z</time></trkpt><trkpt lat="44.2762561" lon="11.7213639"><ele>100.0</ele><time>2026-04-25T07:43:48.885Z</time></trkpt><trkpt lat="44.2762083" lon="11.721275"><ele>99.5</ele><time>2026-04-25T07:43:52.113Z</time></trkpt><trkpt lat="44.2761727" lon="11.7211765"><ele>99.0</ele><time>2026-04-25T07:43:56.045Z</time></trkpt><trkpt lat="44.2761388" lon="11.7210647"><ele>98.49999999999999</ele><time>2026-04-25T07:44:00.03Z</time></trkpt><trkpt lat="44.2760782" lon="11.7209956"><ele>98.0</ele><time>2026-04-25T07:44:03.099Z</time></trkpt><trkpt lat="44.2759984" lon="11.7209547"><ele>97.28571428571429</ele><time>2026-04-25T07:44:06.06Z</time></trkpt><trkpt lat="44.2759191" lon="11.7209262"><ele>96.57142857142857</ele><time>2026-04-25T07:44:09.101Z</time></trkpt><trkpt lat="44.2758444" lon="11.7209004"><ele>95.85714285714286</ele><time>2026-04-25T07:44:12.025Z</time></trkpt><trkpt lat="44.2757736" lon="11.7209009"><ele>95.14285714285714</ele><time>2026-04-25T07:44:14.098Z</time></trkpt><trkpt lat="44.2757029" lon="11.72089"><ele>94.42857142857143</ele><time>2026-04-25T07:44:16.082Z</time></trkpt><trkpt lat="44.2756373" lon="11.7208637"><ele>93.71428571428572</ele><time>2026-04-25T07:44:18.089Z</time></trkpt><trkpt lat="44.2755654" lon="11.7208448"><ele>93.0</ele><time>2026-04-25T07:44:20.074Z</time></trkpt><trkpt lat="44.2754753" lon="11.7208357"><ele>92.00000000000001</ele><time>2026-04-25T07:44:23.165Z</time></trkpt><trkpt lat="44.2754075" lon="11.7208307"><ele>91.0</ele><time>2026-04-25T07:44:25.076Z</time></trkpt><trkpt lat="44.2753412" lon="11.7208371"><ele>90.0</ele><time>2026-04-25T07:44:27.048Z</time></trkpt><trkpt lat="44.2752706" lon="11.7208497"><ele>89.0</ele><time>2026-04-25T07:44:29.107Z</time></trkpt><trkpt lat="44.2752067" lon="11.7208617"><ele>88.0</ele><time>2026-04-25T07:44:31.068Z</time></trkpt><trkpt lat="44.275124" lon="11.7208766"><ele>87.00000000000001</ele><time>2026-04-25T07:44:34.112Z</time></trkpt><trkpt lat="44.2750382" lon="11.7209126"><ele>86.0</ele><time>2026-04-25T07:44:37.082Z</time></trkpt><trkpt lat="44.2749504" lon="11.7209441"><ele>86.0</ele><time>2026-04-25T07:44:40.061Z</time></trkpt><trkpt lat="44.27488" lon="11.720953"><ele>86.0</ele><time>2026-04-25T07:44:42.054Z</time></trkpt><trkpt lat="44.2748134" lon="11.7209621"><ele>86.0</ele><time>2026-04-25T07:44:44.092Z</time></trkpt><trkpt lat="44.2747456" lon="11.7209867"><ele>86.0</ele><time>2026-04-25T07:44:46.092Z</time></trkpt><trkpt lat="44.2746543" lon="11.7210194"><ele>86.0</ele><time>2026-04-25T07:44:49.036Z</time></trkpt><trkpt lat="44.2745722" lon="11.7210735"><ele>86.0</ele><time>2026-04-25T07:44:52.072Z</time></trkpt><trkpt lat="44.2744956" lon="11.7211424"><ele>84.66666666666667</ele><time>2026-04-25T07:44:55.088Z</time></trkpt><trkpt lat="44.274438" lon="11.7212294"><ele>83.33333333333334</ele><time>2026-04-25T07:44:58.067Z</time></trkpt><trkpt lat="44.274391" lon="11.7213439"><ele>82.0</ele><time>2026-04-25T07:45:01.062Z</time></trkpt><trkpt lat="44.2743503" lon="11.7214613"><ele>80.66666666666667</ele><time>2026-04-25T07:45:04.089Z</time></trkpt><trkpt lat="44.2743152" lon="11.7215799"><ele>79.33333333333333</ele><time>2026-04-25T07:45:07.11Z</time></trkpt><trkpt lat="44.274276" lon="11.7216824"><ele>78.0</ele><time>2026-04-25T07:45:10.056Z</time></trkpt><trkpt lat="44.2742395" lon="11.7217894"><ele>78.33333333333333</ele><time>2026-04-25T07:45:13.091Z</time></trkpt><trkpt lat="44.2741997" lon="11.7218996"><ele>78.66666666666667</ele><time>2026-04-25T07:45:16.082Z</time></trkpt><trkpt lat="44.2741415" lon="11.7219827"><ele>79.0</ele><time>2026-04-25T07:45:19.087Z</time></trkpt><trkpt lat="44.2740631" lon="11.7220439"><ele>79.33333333333334</ele><time>2026-04-25T07:45:22.082Z</time></trkpt><trkpt lat="44.2739839" lon="11.7221041"><ele>79.66666666666667</ele><time>2026-04-25T07:45:25.099Z</time></trkpt><trkpt lat="44.2739018" lon="11.7221401"><ele>80.0</ele><time>2026-04-25T07:45:28.098Z</time></trkpt><trkpt lat="44.27382" lon="11.7221448"><ele>78.16666666666667</ele><time>2026-04-25T07:45:31.078Z</time></trkpt><trkpt lat="44.2737457" lon="11.7221523"><ele>76.33333333333334</ele><time>2026-04-25T07:45:34.098Z</time></trkpt><trkpt lat="44.2736815" lon="11.7221458"><ele>74.5</ele><time>2026-04-25T07:45:37.105Z</time></trkpt><trkpt lat="44.2736078" lon="11.7221394"><ele>72.66666666666667</ele><time>2026-04-25T07:45:42.117Z</time></trkpt><trkpt lat="44.2735223" lon="11.7221044"><ele>70.83333333333333</ele><time>2026-04-25T07:45:55.112Z</time></trkpt><trkpt lat="44.2734686" lon="11.722028"><ele>69.0</ele><time>2026-04-25T07:46:19.052Z</time></trkpt><trkpt lat="44.2733909" lon="11.7219795"><ele>69.0</ele><time>2026-04-25T07:46:22.08Z</time></trkpt><trkpt lat="44.2733126" lon="11.7219346"><ele>69.0</ele><time>2026-04-25T07:46:25.108Z</time></trkpt><trkpt lat="44.2732374" lon="11.7218892"><ele>69.0</ele><time>2026-04-25T07:46:28.091Z</time></trkpt><trkpt lat="44.273162" lon="11.7218401"><ele>69.0</ele><time>2026-04-25T07:46:31.113Z</time></trkpt><trkpt lat="44.2730886" lon="11.7217954"><ele>69.0</ele><time>2026-04-25T07:46:34.047Z</time></trkpt><trkpt lat="44.2730237" lon="11.721748"><ele>69.0</ele><time>2026-04-25T07:46:37.086Z</time></trkpt><trkpt lat="44.2729611" lon="11.7216947"><ele>69.5</ele><time>2026-04-25T07:46:40.132Z</time></trkpt><trkpt lat="44.2728892" lon="11.721642"><ele>70.0</ele><time>2026-04-25T07:46:44.065Z</time></trkpt><trkpt lat="44.2728156" lon="11.7215883"><ele>70.5</ele><time>2026-04-25T07:46:48.077Z</time></trkpt><trkpt lat="44.2727578" lon="11.7215275"><ele>71.0</ele><time>2026-04-25T07:46:51.098Z</time></trkpt><trkpt lat="44.2727012" lon="11.7214717"><ele>71.5</ele><time>2026-04-25T07:46:54.082Z</time></trkpt><trkpt lat="44.2726426" lon="11.7214067"><ele>72.0</ele><time>2026-04-25T07:46:57.065Z</time></trkpt><trkpt lat="44.2725817" lon="11.721344"><ele>72.0</ele><time>2026-04-25T07:47:00.105Z</time></trkpt><trkpt lat="44.2725275" lon="11.7212897"><ele>72.0</ele><time>2026-04-25T07:47:03.09Z</time></trkpt><trkpt lat="44.2724665" lon="11.7212235"><ele>72.0</ele><time>2026-04-25T07:47:07.084Z</time></trkpt><trkpt lat="44.2724075" lon="11.7211658"><ele>72.0</ele><time>2026-04-25T07:47:10.079Z</time></trkpt><trkpt lat="44.2723383" lon="11.7210982"><ele>72.0</ele><time>2026-04-25T07:47:13.095Z</time></trkpt><trkpt lat="44.2722688" lon="11.7210297"><ele>72.0</ele><time>2026-04-25T07:47:16.13Z</time></trkpt><trkpt lat="44.2722201" lon="11.720967"><ele>72.33333333333333</ele><time>2026-04-25T07:47:18.099Z</time></trkpt><trkpt lat="44.2721512" lon="11.7208836"><ele>72.66666666666667</ele><time>2026-04-25T07:47:21.071Z</time></trkpt><trkpt lat="44.2720824" lon="11.7208001"><ele>73.0</ele><time>2026-04-25T07:47:24.098Z</time></trkpt><trkpt lat="44.2720256" lon="11.7207133"><ele>73.33333333333334</ele><time>2026-04-25T07:47:27.135Z</time></trkpt><trkpt lat="44.2719685" lon="11.7206176"><ele>73.66666666666667</ele><time>2026-04-25T07:47:30.094Z</time></trkpt><trkpt lat="44.2719106" lon="11.7205212"><ele>74.0</ele><time>2026-04-25T07:47:33.083Z</time></trkpt><trkpt lat="44.2718748" lon="11.7204415"><ele>74.0</ele><time>2026-04-25T07:47:35.112Z</time></trkpt><trkpt lat="44.2718439" lon="11.720352"><ele>74.0</ele><time>2026-04-25T07:47:37.088Z</time></trkpt><trkpt lat="44.2718072" lon="11.7202296"><ele>74.0</ele><time>2026-04-25T07:47:40.134Z</time></trkpt><trkpt lat="44.2717846" lon="11.720144"><ele>74.0</ele><time>2026-04-25T07:47:42.078Z</time></trkpt><trkpt lat="44.2717495" lon="11.7200236"><ele>74.0</ele><time>2026-04-25T07:47:45.092Z</time></trkpt><trkpt lat="44.2717165" lon="11.7199136"><ele>74.0</ele><time>2026-04-25T07:47:48.067Z</time></trkpt><trkpt lat="44.2716845" lon="11.7198071"><ele>74.14285714285714</ele><time>2026-04-25T07:47:51.091Z</time></trkpt><trkpt lat="44.2716519" lon="11.7197021"><ele>74.28571428571428</ele><time>2026-04-25T07:47:54.088Z</time></trkpt><trkpt lat="44.2716139" lon="11.7195986"><ele>74.42857142857142</ele><time>2026-04-25T07:47:57.128Z</time></trkpt><trkpt lat="44.2715748" lon="11.719503"><ele>74.57142857142857</ele><time>2026-04-25T07:48:00.077Z</time></trkpt><trkpt lat="44.2715429" lon="11.7194173"><ele>74.71428571428571</ele><time>2026-04-25T07:48:03.073Z</time></trkpt><trkpt lat="44.2715192" lon="11.7193341"><ele>74.85714285714285</ele><time>2026-04-25T07:48:06.029Z</time></trkpt><trkpt lat="44.2714927" lon="11.7192435"><ele>75.0</ele><time>2026-04-25T07:48:09.099Z</time></trkpt><trkpt lat="44.2714668" lon="11.7191611"><ele>75.14285714285714</ele><time>2026-04-25T07:48:11.713Z</time></trkpt><trkpt lat="44.2714348" lon="11.7190553"><ele>75.28571428571428</ele><time>2026-04-25T07:48:15.108Z</time></trkpt><trkpt lat="44.271407" lon="11.7189652"><ele>75.42857142857142</ele><time>2026-04-25T07:48:18.105Z</time></trkpt><trkpt lat="44.2713809" lon="11.7188748"><ele>75.57142857142857</ele><time>2026-04-25T07:48:21.094Z</time></trkpt><trkpt lat="44.271353" lon="11.7187813"><ele>75.71428571428572</ele><time>2026-04-25T07:48:24.132Z</time></trkpt><trkpt lat="44.2713224" lon="11.71869"><ele>75.85714285714285</ele><time>2026-04-25T07:48:27.117Z</time></trkpt><trkpt lat="44.2712912" lon="11.7185918"><ele>76.0</ele><time>2026-04-25T07:48:30.12Z</time></trkpt><trkpt lat="44.2712515" lon="11.7184821"><ele>76.0</ele><time>2026-04-25T07:48:33.076Z</time></trkpt><trkpt lat="44.27122" lon="11.718374"><ele>76.0</ele><time>2026-04-25T07:48:36.086Z</time></trkpt><trkpt lat="44.2711983" lon="11.7182865"><ele>76.0</ele><time>2026-04-25T07:48:38.607Z</time></trkpt><trkpt lat="44.2711798" lon="11.7182017"><ele>76.0</ele><time>2026-04-25T07:48:41.068Z</time></trkpt><trkpt lat="44.2711697" lon="11.718082"><ele>76.0</ele><time>2026-04-25T07:48:44.067Z</time></trkpt><trkpt lat="44.2711651" lon="11.7179666"><ele>76.0</ele><time>2026-04-25T07:48:47.114Z</time></trkpt><trkpt lat="44.2711647" lon="11.7178552"><ele>76.0</ele><time>2026-04-25T07:48:50.088Z</time></trkpt><trkpt lat="44.2711639" lon="11.7177369"><ele>76.0</ele><time>2026-04-25T07:48:53.095Z</time></trkpt><trkpt lat="44.2711625" lon="11.7176458"><ele>76.0</ele><time>2026-04-25T07:48:55.131Z</time></trkpt><trkpt lat="44.2711598" lon="11.7175567"><ele>76.0</ele><time>2026-04-25T07:48:57.101Z</time></trkpt><trkpt lat="44.2711601" lon="11.717467"><ele>76.0</ele><time>2026-04-25T07:48:59.09Z</time></trkpt><trkpt lat="44.2711637" lon="11.7173416"><ele>76.0</ele><time>2026-04-25T07:49:02.029Z</time></trkpt><trkpt lat="44.2711636" lon="11.7172241"><ele>75.66666666666666</ele><time>2026-04-25T07:49:05.118Z</time></trkpt><trkpt lat="44.2711673" lon="11.7171222"><ele>75.33333333333333</ele><time>2026-04-25T07:49:08.028Z</time></trkpt><trkpt lat="44.2711768" lon="11.71701"><ele>75.0</ele><time>2026-04-25T07:49:11.106Z</time></trkpt><trkpt lat="44.2711895" lon="11.7169033"><ele>74.66666666666667</ele><time>2026-04-25T07:49:14.081Z</time></trkpt><trkpt lat="44.2711948" lon="11.7167955"><ele>74.33333333333334</ele><time>2026-04-25T07:49:17.096Z</time></trkpt><trkpt lat="44.2712059" lon="11.7166899"><ele>74.0</ele><time>2026-04-25T07:49:20.032Z</time></trkpt><trkpt lat="44.2712097" lon="11.7165767"><ele>73.66666666666667</ele><time>2026-04-25T07:49:23.102Z</time></trkpt><trkpt lat="44.2712135" lon="11.716463"><ele>73.33333333333334</ele><time>2026-04-25T07:49:26.031Z</time></trkpt><trkpt lat="44.2712208" lon="11.7163383"><ele>73.0</ele><time>2026-04-25T07:49:29.1Z</time></trkpt><trkpt lat="44.2712288" lon="11.7162226"><ele>72.66666666666667</ele><time>2026-04-25T07:49:31.99Z</time></trkpt><trkpt lat="44.2712331" lon="11.7160921"><ele>72.33333333333333</ele><time>2026-04-25T07:49:35.101Z</time></trkpt><trkpt lat="44.271238" lon="11.7159747"><ele>72.0</ele><time>2026-04-25T07:49:38.025Z</time></trkpt><trkpt lat="44.2712375" lon="11.7158836"><ele>72.0</ele><time>2026-04-25T07:49:40.15Z</time></trkpt><trkpt lat="44.2712358" lon="11.7157545"><ele>72.0</ele><time>2026-04-25T07:49:43.089Z</time></trkpt><trkpt lat="44.2712314" lon="11.7156292"><ele>72.0</ele><time>2026-04-25T07:49:46.073Z</time></trkpt><trkpt lat="44.2712303" lon="11.7155025"><ele>72.0</ele><time>2026-04-25T07:49:49.078Z</time></trkpt><trkpt lat="44.2712389" lon="11.7153732"><ele>72.0</ele><time>2026-04-25T07:49:52.098Z</time></trkpt><trkpt lat="44.2712442" lon="11.7152853"><ele>72.0</ele><time>2026-04-25T07:49:54.094Z</time></trkpt><trkpt lat="44.2712548" lon="11.7151568"><ele>72.0</ele><time>2026-04-25T07:49:57.113Z</time></trkpt><trkpt lat="44.2712582" lon="11.7150668"><ele>72.0</ele><time>2026-04-25T07:49:59.089Z</time></trkpt><trkpt lat="44.2712598" lon="11.7149733"><ele>72.0</ele><time>2026-04-25T07:50:01.012Z</time></trkpt><trkpt lat="44.2712622" lon="11.7148834"><ele>72.0</ele><time>2026-04-25T07:50:03.131Z</time></trkpt><trkpt lat="44.2712657" lon="11.7147673"><ele>72.0</ele><time>2026-04-25T07:50:06.087Z</time></trkpt><trkpt lat="44.2712714" lon="11.7146423"><ele>72.0</ele><time>2026-04-25T07:50:09.094Z</time></trkpt><trkpt lat="44.2712789" lon="11.714524"><ele>72.0</ele><time>2026-04-25T07:50:12.079Z</time></trkpt><trkpt lat="44.2712839" lon="11.7144156"><ele>72.0</ele><time>2026-04-25T07:50:15.094Z</time></trkpt><trkpt lat="44.2712972" lon="11.7143128"><ele>72.0</ele><time>2026-04-25T07:50:18.033Z</time></trkpt><trkpt lat="44.2713084" lon="11.7142084"><ele>72.0</ele><time>2026-04-25T07:50:21.086Z</time></trkpt><trkpt lat="44.2713197" lon="11.7140977"><ele>72.0</ele><time>2026-04-25T07:50:24.086Z</time></trkpt><trkpt lat="44.271324" lon="11.7139774"><ele>72.0</ele><time>2026-04-25T07:50:27.114Z</time></trkpt><trkpt lat="44.2713339" lon="11.713851"><ele>71.66666666666667</ele><time>2026-04-25T07:50:30.112Z</time></trkpt><trkpt lat="44.271339" lon="11.7137582"><ele>71.33333333333333</ele><time>2026-04-25T07:50:32.115Z</time></trkpt><trkpt lat="44.2713479" lon="11.7136328"><ele>71.0</ele><time>2026-04-25T07:50:35.058Z</time></trkpt><trkpt lat="44.2713497" lon="11.7135407"><ele>70.66666666666666</ele><time>2026-04-25T07:50:37.15Z</time></trkpt><trkpt lat="44.2713512" lon="11.7134502"><ele>70.33333333333333</ele><time>2026-04-25T07:50:39.103Z</time></trkpt><trkpt lat="44.2713562" lon="11.7133227"><ele>70.0</ele><time>2026-04-25T07:50:42.09Z</time></trkpt><trkpt lat="44.2713602" lon="11.7131963"><ele>70.0</ele><time>2026-04-25T07:50:45.098Z</time></trkpt><trkpt lat="44.2713675" lon="11.713077"><ele>70.0</ele><time>2026-04-25T07:50:48.045Z</time></trkpt><trkpt lat="44.2713711" lon="11.7129597"><ele>70.0</ele><time>2026-04-25T07:50:51.085Z</time></trkpt><trkpt lat="44.2713803" lon="11.7128411"><ele>70.0</ele><time>2026-04-25T07:50:54.078Z</time></trkpt><trkpt lat="44.2713866" lon="11.7127251"><ele>70.0</ele><time>2026-04-25T07:50:57.115Z</time></trkpt><trkpt lat="44.2713957" lon="11.7126218"><ele>70.0</ele><time>2026-04-25T07:51:00.089Z</time></trkpt><trkpt lat="44.2714041" lon="11.7125121"><ele>70.0</ele><time>2026-04-25T07:51:03.102Z</time></trkpt><trkpt lat="44.2714125" lon="11.7123983"><ele>70.0</ele><time>2026-04-25T07:51:06.089Z</time></trkpt><trkpt lat="44.2714184" lon="11.7122837"><ele>70.0</ele><time>2026-04-25T07:51:09.083Z</time></trkpt><trkpt lat="44.2714297" lon="11.7121713"><ele>70.0</ele><time>2026-04-25T07:51:12.151Z</time></trkpt><trkpt lat="44.2714317" lon="11.7120629"><ele>70.0</ele><time>2026-04-25T07:51:15.083Z</time></trkpt><trkpt lat="44.2714372" lon="11.7119445"><ele>70.0</ele><time>2026-04-25T07:51:18.095Z</time></trkpt><trkpt lat="44.2714416" lon="11.7118311"><ele>70.0</ele><time>2026-04-25T07:51:21.009Z</time></trkpt><trkpt lat="44.271447" lon="11.7117118"><ele>70.0</ele><time>2026-04-25T07:51:24.125Z</time></trkpt><trkpt lat="44.2714516" lon="11.7116011"><ele>70.0</ele><time>2026-04-25T07:51:26.989Z</time></trkpt><trkpt lat="44.2714639" lon="11.7114875"><ele>70.0</ele><time>2026-04-25T07:51:30.082Z</time></trkpt><trkpt lat="44.2714742" lon="11.7113753"><ele>70.0</ele><time>2026-04-25T07:51:33.085Z</time></trkpt><trkpt lat="44.2714901" lon="11.7112669"><ele>70.0</ele><time>2026-04-25T07:51:36.086Z</time></trkpt><trkpt lat="44.2714966" lon="11.7111559"><ele>70.16666666666666</ele><time>2026-04-25T07:51:39.012Z</time></trkpt><trkpt lat="44.2715059" lon="11.7110422"><ele>70.33333333333333</ele><time>2026-04-25T07:51:42.085Z</time></trkpt><trkpt lat="44.2715142" lon="11.7109319"><ele>70.5</ele><time>2026-04-25T07:51:45.01Z</time></trkpt><trkpt lat="44.271522" lon="11.7108276"><ele>70.66666666666667</ele><time>2026-04-25T07:51:48.096Z</time></trkpt><trkpt lat="44.2715279" lon="11.7107224"><ele>70.83333333333334</ele><time>2026-04-25T07:51:51.037Z</time></trkpt><trkpt lat="44.2715373" lon="11.7106085"><ele>71.0</ele><time>2026-04-25T07:51:54.093Z</time></trkpt><trkpt lat="44.2715453" lon="11.7105024"><ele>71.0</ele><time>2026-04-25T07:51:57.107Z</time></trkpt><trkpt lat="44.2715529" lon="11.7103994"><ele>71.0</ele><time>2026-04-25T07:52:00.097Z</time></trkpt><trkpt lat="44.2715643" lon="11.7102884"><ele>71.0</ele><time>2026-04-25T07:52:03.107Z</time></trkpt><trkpt lat="44.2715759" lon="11.7101884"><ele>71.0</ele><time>2026-04-25T07:52:06.029Z</time></trkpt><trkpt lat="44.2715794" lon="11.710081"><ele>71.0</ele><time>2026-04-25T07:52:09.11Z</time></trkpt><trkpt lat="44.2715844" lon="11.7099784"><ele>71.0</ele><time>2026-04-25T07:52:12.067Z</time></trkpt><trkpt lat="44.271593" lon="11.7098678"><ele>71.28571428571428</ele><time>2026-04-25T07:52:15.109Z</time></trkpt><trkpt lat="44.2716024" lon="11.7097597"><ele>71.57142857142857</ele><time>2026-04-25T07:52:18.077Z</time></trkpt><trkpt lat="44.2716091" lon="11.7096562"><ele>71.85714285714286</ele><time>2026-04-25T07:52:21.083Z</time></trkpt><trkpt lat="44.2716192" lon="11.7095506"><ele>72.14285714285714</ele><time>2026-04-25T07:52:24.099Z</time></trkpt><trkpt lat="44.2716293" lon="11.7094473"><ele>72.42857142857143</ele><time>2026-04-25T07:52:27.091Z</time></trkpt><trkpt lat="44.2716388" lon="11.7093442"><ele>72.71428571428571</ele><time>2026-04-25T07:52:30.084Z</time></trkpt><trkpt lat="44.2716495" lon="11.7092467"><ele>73.0</ele><time>2026-04-25T07:52:33.057Z</time></trkpt><trkpt lat="44.2716585" lon="11.7091488"><ele>73.14285714285714</ele><time>2026-04-25T07:52:36.027Z</time></trkpt><trkpt lat="44.2716622" lon="11.7090506"><ele>73.28571428571429</ele><time>2026-04-25T07:52:39.094Z</time></trkpt><trkpt lat="44.2716586" lon="11.7089516"><ele>73.42857142857143</ele><time>2026-04-25T07:52:42.086Z</time></trkpt><trkpt lat="44.2716635" lon="11.7088504"><ele>73.57142857142857</ele><time>2026-04-25T07:52:45.115Z</time></trkpt><trkpt lat="44.271673" lon="11.7087549"><ele>73.71428571428571</ele><time>2026-04-25T07:52:48.106Z</time></trkpt><trkpt lat="44.2716759" lon="11.7086623"><ele>73.85714285714286</ele><time>2026-04-25T07:52:51.085Z</time></trkpt><trkpt lat="44.2716861" lon="11.7085657"><ele>74.0</ele><time>2026-04-25T07:52:54.076Z</time></trkpt><trkpt lat="44.2716964" lon="11.7084558"><ele>74.16666666666667</ele><time>2026-04-25T07:52:57.152Z</time></trkpt><trkpt lat="44.2716987" lon="11.7083548"><ele>74.33333333333334</ele><time>2026-04-25T07:53:00.058Z</time></trkpt><trkpt lat="44.2716943" lon="11.708249"><ele>74.5</ele><time>2026-04-25T07:53:03.058Z</time></trkpt><trkpt lat="44.2716823" lon="11.7081495"><ele>74.66666666666667</ele><time>2026-04-25T07:53:06.074Z</time></trkpt><trkpt lat="44.2716719" lon="11.7080372"><ele>74.83333333333333</ele><time>2026-04-25T07:53:09.069Z</time></trkpt><trkpt lat="44.2716616" lon="11.7079268"><ele>75.0</ele><time>2026-04-25T07:53:12.116Z</time></trkpt><trkpt lat="44.2716595" lon="11.7078107"><ele>74.83333333333333</ele><time>2026-04-25T07:53:15.026Z</time></trkpt><trkpt lat="44.2716552" lon="11.7077161"><ele>74.66666666666667</ele><time>2026-04-25T07:53:17.107Z</time></trkpt><trkpt lat="44.2716549" lon="11.707599"><ele>74.5</ele><time>2026-04-25T07:53:19.992Z</time></trkpt><trkpt lat="44.2716436" lon="11.7074801"><ele>74.33333333333334</ele><time>2026-04-25T07:53:23.076Z</time></trkpt><trkpt lat="44.2716331" lon="11.7073656"><ele>74.16666666666667</ele><time>2026-04-25T07:53:26.082Z</time></trkpt><trkpt lat="44.271626" lon="11.7072531"><ele>74.0</ele><time>2026-04-25T07:53:29.09Z</time></trkpt><trkpt lat="44.2716173" lon="11.7071425"><ele>74.0</ele><time>2026-04-25T07:53:32.053Z</time></trkpt><trkpt lat="44.2716074" lon="11.7070312"><ele>74.0</ele><time>2026-04-25T07:53:35.094Z</time></trkpt><trkpt lat="44.2715966" lon="11.7069254"><ele>74.0</ele><time>2026-04-25T07:53:38.1Z</time></trkpt><trkpt lat="44.2715837" lon="11.7068278"><ele>74.0</ele><time>2026-04-25T07:53:41.01Z</time></trkpt><trkpt lat="44.2715726" lon="11.706732"><ele>74.0</ele><time>2026-04-25T07:53:44.11Z</time></trkpt><trkpt lat="44.2715568" lon="11.706639"><ele>74.0</ele><time>2026-04-25T07:53:47.084Z</time></trkpt><trkpt lat="44.2715467" lon="11.7065425"><ele>74.0</ele><time>2026-04-25T07:53:50.082Z</time></trkpt><trkpt lat="44.2715364" lon="11.7064418"><ele>74.16666666666667</ele><time>2026-04-25T07:53:53.086Z</time></trkpt><trkpt lat="44.2715279" lon="11.7063339"><ele>74.33333333333334</ele><time>2026-04-25T07:53:56.027Z</time></trkpt><trkpt lat="44.2715203" lon="11.7062209"><ele>74.5</ele><time>2026-04-25T07:53:59.102Z</time></trkpt><trkpt lat="44.2715134" lon="11.7061051"><ele>74.66666666666667</ele><time>2026-04-25T07:54:02.094Z</time></trkpt><trkpt lat="44.2715005" lon="11.7059776"><ele>74.83333333333333</ele><time>2026-04-25T07:54:05.119Z</time></trkpt><trkpt lat="44.271489" lon="11.7058551"><ele>75.0</ele><time>2026-04-25T07:54:08.096Z</time></trkpt><trkpt lat="44.2714798" lon="11.7057328"><ele>75.5</ele><time>2026-04-25T07:54:11.103Z</time></trkpt><trkpt lat="44.2714657" lon="11.7056179"><ele>76.0</ele><time>2026-04-25T07:54:14.11Z</time></trkpt><trkpt lat="44.2714548" lon="11.7055006"><ele>76.5</ele><time>2026-04-25T07:54:17.08Z</time></trkpt><trkpt lat="44.2714455" lon="11.7053855"><ele>77.0</ele><time>2026-04-25T07:54:20.094Z</time></trkpt><trkpt lat="44.2714441" lon="11.705277"><ele>77.5</ele><time>2026-04-25T07:54:23.057Z</time></trkpt><trkpt lat="44.271427" lon="11.7051683"><ele>78.0</ele><time>2026-04-25T07:54:26.105Z</time></trkpt><trkpt lat="44.2714127" lon="11.7050586"><ele>78.0</ele><time>2026-04-25T07:54:29.09Z</time></trkpt><trkpt lat="44.2714171" lon="11.7049404"><ele>78.0</ele><time>2026-04-25T07:54:32.07Z</time></trkpt><trkpt lat="44.2714077" lon="11.7048266"><ele>78.0</ele><time>2026-04-25T07:54:35.101Z</time></trkpt><trkpt lat="44.2713957" lon="11.7047155"><ele>78.0</ele><time>2026-04-25T07:54:38.011Z</time></trkpt><trkpt lat="44.2713821" lon="11.7046096"><ele>78.0</ele><time>2026-04-25T07:54:41.113Z</time></trkpt><trkpt lat="44.2713758" lon="11.7045089"><ele>78.0</ele><time>2026-04-25T07:54:44.009Z</time></trkpt><trkpt lat="44.2713721" lon="11.7043832"><ele>78.16666666666667</ele><time>2026-04-25T07:54:47.085Z</time></trkpt><trkpt lat="44.2713573" lon="11.7042662"><ele>78.33333333333333</ele><time>2026-04-25T07:54:49.991Z</time></trkpt><trkpt lat="44.2713516" lon="11.7041445"><ele>78.5</ele><time>2026-04-25T07:54:53.087Z</time></trkpt><trkpt lat="44.2713386" lon="11.7040347"><ele>78.66666666666666</ele><time>2026-04-25T07:54:56.029Z</time></trkpt><trkpt lat="44.2713256" lon="11.7039183"><ele>78.83333333333333</ele><time>2026-04-25T07:54:59.113Z</time></trkpt><trkpt lat="44.2713106" lon="11.7038089"><ele>79.0</ele><time>2026-04-25T07:55:02.06Z</time></trkpt><trkpt lat="44.2713017" lon="11.7037048"><ele>79.0</ele><time>2026-04-25T07:55:05.113Z</time></trkpt><trkpt lat="44.2713008" lon="11.7036161"><ele>79.0</ele><time>2026-04-25T07:55:08.073Z</time></trkpt><trkpt lat="44.2713096" lon="11.7035138"><ele>79.0</ele><time>2026-04-25T07:55:11.089Z</time></trkpt><trkpt lat="44.2712981" lon="11.7033959"><ele>79.0</ele><time>2026-04-25T07:55:14.056Z</time></trkpt><trkpt lat="44.2712827" lon="11.7032671"><ele>79.0</ele><time>2026-04-25T07:55:17.105Z</time></trkpt><trkpt lat="44.2712615" lon="11.7031461"><ele>79.0</ele><time>2026-04-25T07:55:20.082Z</time></trkpt><trkpt lat="44.2712491" lon="11.7030288"><ele>79.16666666666666</ele><time>2026-04-25T07:55:23.092Z</time></trkpt><trkpt lat="44.2712402" lon="11.7029116"><ele>79.33333333333333</ele><time>2026-04-25T07:55:26.068Z</time></trkpt><trkpt lat="44.2712348" lon="11.7028082"><ele>79.5</ele><time>2026-04-25T07:55:29.117Z</time></trkpt><trkpt lat="44.2712358" lon="11.7026968"><ele>79.66666666666667</ele><time>2026-04-25T07:55:32.073Z</time></trkpt><trkpt lat="44.2712371" lon="11.7025742"><ele>79.83333333333334</ele><time>2026-04-25T07:55:35.109Z</time></trkpt><trkpt lat="44.2712363" lon="11.7024485"><ele>80.0</ele><time>2026-04-25T07:55:38.07Z</time></trkpt><trkpt lat="44.2712392" lon="11.7023248"><ele>80.0</ele><time>2026-04-25T07:55:41.114Z</time></trkpt><trkpt lat="44.2712477" lon="11.7022065"><ele>80.0</ele><time>2026-04-25T07:55:44.096Z</time></trkpt><trkpt lat="44.2712517" lon="11.7020863"><ele>80.0</ele><time>2026-04-25T07:55:47.11Z</time></trkpt><trkpt lat="44.2712627" lon="11.7019726"><ele>80.0</ele><time>2026-04-25T07:55:49.93Z</time></trkpt><trkpt lat="44.2712779" lon="11.7018767"><ele>80.0</ele><time>2026-04-25T07:55:52.08Z</time></trkpt><trkpt lat="44.2712954" lon="11.7017914"><ele>80.0</ele><time>2026-04-25T07:55:54.103Z</time></trkpt><trkpt lat="44.2713216" lon="11.7016742"><ele>80.0</ele><time>2026-04-25T07:55:57.005Z</time></trkpt><trkpt lat="44.2713502" lon="11.7015531"><ele>80.0</ele><time>2026-04-25T07:56:00.139Z</time></trkpt><trkpt lat="44.2713709" lon="11.70145"><ele>80.0</ele><time>2026-04-25T07:56:03.111Z</time></trkpt><trkpt lat="44.2713957" lon="11.7013307"><ele>80.0</ele><time>2026-04-25T07:56:06.09Z</time></trkpt><trkpt lat="44.2714206" lon="11.7012178"><ele>80.0</ele><time>2026-04-25T07:56:09.088Z</time></trkpt><trkpt lat="44.2714449" lon="11.7011104"><ele>80.0</ele><time>2026-04-25T07:56:12.063Z</time></trkpt><trkpt lat="44.2714722" lon="11.7009982"><ele>80.83333333333334</ele><time>2026-04-25T07:56:15.102Z</time></trkpt><trkpt lat="44.271504" lon="11.7008947"><ele>81.66666666666667</ele><time>2026-04-25T07:56:18.048Z</time></trkpt><trkpt lat="44.2715343" lon="11.7007879"><ele>82.5</ele><time>2026-04-25T07:56:21.096Z</time></trkpt><trkpt lat="44.2715677" lon="11.7006836"><ele>83.33333333333333</ele><time>2026-04-25T07:56:24.08Z</time></trkpt><trkpt lat="44.2716065" lon="11.7005832"><ele>84.16666666666666</ele><time>2026-04-25T07:56:27.119Z</time></trkpt><trkpt lat="44.2716397" lon="11.7004906"><ele>85.0</ele><time>2026-04-25T07:56:30.107Z</time></trkpt><trkpt lat="44.2716739" lon="11.7003992"><ele>85.0</ele><time>2026-04-25T07:56:33.104Z</time></trkpt><trkpt lat="44.2717089" lon="11.7003066"><ele>85.0</ele><time>2026-04-25T07:56:36.091Z</time></trkpt><trkpt lat="44.2717515" lon="11.700218"><ele>85.0</ele><time>2026-04-25T07:56:39.079Z</time></trkpt><trkpt lat="44.2718017" lon="11.7001254"><ele>85.0</ele><time>2026-04-25T07:56:42.147Z</time></trkpt><trkpt lat="44.2718542" lon="11.7000377"><ele>85.0</ele><time>2026-04-25T07:56:45.095Z</time></trkpt><trkpt lat="44.2719028" lon="11.6999435"><ele>85.0</ele><time>2026-04-25T07:56:48.091Z</time></trkpt><trkpt lat="44.2719444" lon="11.6998524"><ele>84.33333333333333</ele><time>2026-04-25T07:56:51.092Z</time></trkpt><trkpt lat="44.2719794" lon="11.6997621"><ele>83.66666666666666</ele><time>2026-04-25T07:56:54.088Z</time></trkpt><trkpt lat="44.2720186" lon="11.6996848"><ele>83.0</ele><time>2026-04-25T07:56:57.102Z</time></trkpt><trkpt lat="44.272064" lon="11.6996106"><ele>82.33333333333333</ele><time>2026-04-25T07:57:00.05Z</time></trkpt><trkpt lat="44.2721183" lon="11.6995147"><ele>81.66666666666667</ele><time>2026-04-25T07:57:03.107Z</time></trkpt><trkpt lat="44.2721753" lon="11.6994207"><ele>81.0</ele><time>2026-04-25T07:57:06.104Z</time></trkpt><trkpt lat="44.2722305" lon="11.6993299"><ele>82.16666666666667</ele><time>2026-04-25T07:57:09.087Z</time></trkpt><trkpt lat="44.2722803" lon="11.6992376"><ele>83.33333333333333</ele><time>2026-04-25T07:57:12.091Z</time></trkpt><trkpt lat="44.2723299" lon="11.6991517"><ele>84.5</ele><time>2026-04-25T07:57:15.032Z</time></trkpt><trkpt lat="44.2723801" lon="11.6990593"><ele>85.66666666666666</ele><time>2026-04-25T07:57:18.088Z</time></trkpt><trkpt lat="44.2724281" lon="11.6989717"><ele>86.83333333333333</ele><time>2026-04-25T07:57:21.007Z</time></trkpt><trkpt lat="44.2724678" lon="11.6988781"><ele>88.0</ele><time>2026-04-25T07:57:24.062Z</time></trkpt><trkpt lat="44.2725077" lon="11.6987886"><ele>88.0</ele><time>2026-04-25T07:57:27.006Z</time></trkpt><trkpt lat="44.2725416" lon="11.6987029"><ele>88.0</ele><time>2026-04-25T07:57:30.083Z</time></trkpt><trkpt lat="44.2725828" lon="11.6986269"><ele>88.0</ele><time>2026-04-25T07:57:33.047Z</time></trkpt><trkpt lat="44.2726279" lon="11.6985456"><ele>88.0</ele><time>2026-04-25T07:57:36.071Z</time></trkpt><trkpt lat="44.2726672" lon="11.6984559"><ele>88.0</ele><time>2026-04-25T07:57:39.056Z</time></trkpt><trkpt lat="44.272699" lon="11.6983611"><ele>88.0</ele><time>2026-04-25T07:57:42.096Z</time></trkpt><trkpt lat="44.2727343" lon="11.6982587"><ele>88.0</ele><time>2026-04-25T07:57:45.113Z</time></trkpt><trkpt lat="44.2727697" lon="11.6981568"><ele>87.66666666666666</ele><time>2026-04-25T07:57:48.096Z</time></trkpt><trkpt lat="44.2727929" lon="11.6980509"><ele>87.33333333333333</ele><time>2026-04-25T07:57:51.113Z</time></trkpt><trkpt lat="44.2728004" lon="11.6979522"><ele>87.0</ele><time>2026-04-25T07:57:54.063Z</time></trkpt><trkpt lat="44.2727978" lon="11.6978418"><ele>86.66666666666667</ele><time>2026-04-25T07:57:57.105Z</time></trkpt><trkpt lat="44.2728021" lon="11.6977359"><ele>86.33333333333334</ele><time>2026-04-25T07:58:00.076Z</time></trkpt><trkpt lat="44.2727852" lon="11.6976238"><ele>86.0</ele><time>2026-04-25T07:58:03.13Z</time></trkpt><trkpt lat="44.2727657" lon="11.697525"><ele>86.00000000000001</ele><time>2026-04-25T07:58:05.987Z</time></trkpt><trkpt lat="44.2727429" lon="11.6974288"><ele>86.0</ele><time>2026-04-25T07:58:09.097Z</time></trkpt><trkpt lat="44.2727152" lon="11.6973363"><ele>86.0</ele><time>2026-04-25T07:58:12.105Z</time></trkpt><trkpt lat="44.2726814" lon="11.697232"><ele>86.0</ele><time>2026-04-25T07:58:16.074Z</time></trkpt><trkpt lat="44.2726541" lon="11.6971232"><ele>86.0</ele><time>2026-04-25T07:58:20.057Z</time></trkpt><trkpt lat="44.2726188" lon="11.6970404"><ele>86.00000000000001</ele><time>2026-04-25T07:58:23.086Z</time></trkpt><trkpt lat="44.2725903" lon="11.6969551"><ele>86.0</ele><time>2026-04-25T07:58:26.092Z</time></trkpt><trkpt lat="44.2725464" lon="11.696877"><ele>86.14285714285715</ele><time>2026-04-25T07:58:29.029Z</time></trkpt><trkpt lat="44.2724925" lon="11.6968169"><ele>86.28571428571429</ele><time>2026-04-25T07:58:32.077Z</time></trkpt><trkpt lat="44.2724414" lon="11.6967584"><ele>86.42857142857143</ele><time>2026-04-25T07:58:35.089Z</time></trkpt><trkpt lat="44.272395" lon="11.6966912"><ele>86.57142857142858</ele><time>2026-04-25T07:58:38.111Z</time></trkpt><trkpt lat="44.2723243" lon="11.6966421"><ele>86.71428571428572</ele><time>2026-04-25T07:58:42.098Z</time></trkpt><trkpt lat="44.2722554" lon="11.696619"><ele>86.85714285714286</ele><time>2026-04-25T07:58:45.087Z</time></trkpt><trkpt lat="44.2721828" lon="11.6965904"><ele>87.0</ele><time>2026-04-25T07:58:48.067Z</time></trkpt><trkpt lat="44.2721214" lon="11.6965436"><ele>87.0</ele><time>2026-04-25T07:58:50.771Z</time></trkpt><trkpt lat="44.2720638" lon="11.6965076"><ele>87.0</ele><time>2026-04-25T07:58:53.088Z</time></trkpt><trkpt lat="44.2719907" lon="11.6964649"><ele>87.0</ele><time>2026-04-25T07:58:56.092Z</time></trkpt><trkpt lat="44.2719115" lon="11.6964379"><ele>87.0</ele><time>2026-04-25T07:58:59.094Z</time></trkpt><trkpt lat="44.2718382" lon="11.696425"><ele>87.0</ele><time>2026-04-25T07:59:02.078Z</time></trkpt><trkpt lat="44.2717666" lon="11.6963982"><ele>87.0</ele><time>2026-04-25T07:59:05.071Z</time></trkpt><trkpt lat="44.2717017" lon="11.696367"><ele>87.0</ele><time>2026-04-25T07:59:08.11Z</time></trkpt><trkpt lat="44.2716207" lon="11.6963376"><ele>87.0</ele><time>2026-04-25T07:59:12.148Z</time></trkpt><trkpt lat="44.2715579" lon="11.6963121"><ele>87.0</ele><time>2026-04-25T07:59:15.028Z</time></trkpt><trkpt lat="44.2714965" lon="11.6962821"><ele>87.0</ele><time>2026-04-25T07:59:18.096Z</time></trkpt><trkpt lat="44.2714352" lon="11.6962477"><ele>87.0</ele><time>2026-04-25T07:59:21.087Z</time></trkpt><trkpt lat="44.2713712" lon="11.6962148"><ele>87.0</ele><time>2026-04-25T07:59:24.027Z</time></trkpt><trkpt lat="44.2713112" lon="11.696164"><ele>87.0</ele><time>2026-04-25T07:59:27.109Z</time></trkpt><trkpt lat="44.2712551" lon="11.6961079"><ele>87.0</ele><time>2026-04-25T07:59:30.089Z</time></trkpt><trkpt lat="44.2712024" lon="11.6960498"><ele>87.71428571428571</ele><time>2026-04-25T07:59:33.047Z</time></trkpt><trkpt lat="44.2711447" lon="11.6959859"><ele>88.42857142857143</ele><time>2026-04-25T07:59:36.068Z</time></trkpt><trkpt lat="44.2710878" lon="11.6959301"><ele>89.14285714285714</ele><time>2026-04-25T07:59:39.114Z</time></trkpt><trkpt lat="44.2710831" lon="11.6958379"><ele>89.85714285714286</ele><time>2026-04-25T07:59:42.07Z</time></trkpt><trkpt lat="44.2711179" lon="11.6957338"><ele>90.57142857142857</ele><time>2026-04-25T07:59:45.1Z</time></trkpt><trkpt lat="44.2711568" lon="11.6956384"><ele>91.28571428571429</ele><time>2026-04-25T07:59:48.064Z</time></trkpt><trkpt lat="44.2711878" lon="11.6955495"><ele>92.0</ele><time>2026-04-25T07:59:51.08Z</time></trkpt><trkpt lat="44.2712257" lon="11.6954578"><ele>92.0</ele><time>2026-04-25T07:59:54.096Z</time></trkpt><trkpt lat="44.2712629" lon="11.6953745"><ele>92.0</ele><time>2026-04-25T07:59:57.045Z</time></trkpt><trkpt lat="44.2712838" lon="11.6952741"><ele>92.0</ele><time>2026-04-25T08:00:00.086Z</time></trkpt><trkpt lat="44.2713041" lon="11.6951808"><ele>92.0</ele><time>2026-04-25T08:00:03.113Z</time></trkpt><trkpt lat="44.2712989" lon="11.6950833"><ele>92.0</ele><time>2026-04-25T08:00:06.063Z</time></trkpt><trkpt lat="44.271263" lon="11.6949942"><ele>92.0</ele><time>2026-04-25T08:00:09.006Z</time></trkpt><trkpt lat="44.2711954" lon="11.6949632"><ele>92.0</ele><time>2026-04-25T08:00:12.078Z</time></trkpt><trkpt lat="44.2711244" lon="11.6950009"><ele>93.14285714285715</ele><time>2026-04-25T08:00:15.147Z</time></trkpt><trkpt lat="44.2710638" lon="11.695039"><ele>94.28571428571428</ele><time>2026-04-25T08:00:18.028Z</time></trkpt><trkpt lat="44.2709954" lon="11.6950597"><ele>95.42857142857143</ele><time>2026-04-25T08:00:21.086Z</time></trkpt><trkpt lat="44.2709281" lon="11.6950725"><ele>96.57142857142858</ele><time>2026-04-25T08:00:24.071Z</time></trkpt><trkpt lat="44.2708594" lon="11.6950865"><ele>97.71428571428572</ele><time>2026-04-25T08:00:27.09Z</time></trkpt><trkpt lat="44.2707936" lon="11.695091"><ele>98.85714285714286</ele><time>2026-04-25T08:00:30.078Z</time></trkpt><trkpt lat="44.2707312" lon="11.6950709"><ele>100.0</ele><time>2026-04-25T08:00:33.078Z</time></trkpt><trkpt lat="44.2706869" lon="11.695007"><ele>100.00000000000001</ele><time>2026-04-25T08:00:36.074Z</time></trkpt><trkpt lat="44.2706432" lon="11.6949084"><ele>100.0</ele><time>2026-04-25T08:00:40.1Z</time></trkpt><trkpt lat="44.2706106" lon="11.6948099"><ele>100.0</ele><time>2026-04-25T08:00:44.109Z</time></trkpt><trkpt lat="44.2705665" lon="11.6947132"><ele>100.0</ele><time>2026-04-25T08:00:48.053Z</time></trkpt><trkpt lat="44.2705348" lon="11.694629"><ele>100.00000000000001</ele><time>2026-04-25T08:00:51.083Z</time></trkpt><trkpt lat="44.2704981" lon="11.6945408"><ele>100.0</ele><time>2026-04-25T08:00:55.085Z</time></trkpt><trkpt lat="44.2704776" lon="11.694453"><ele>100.14285714285715</ele><time>2026-04-25T08:00:58.113Z</time></trkpt><trkpt lat="44.2704719" lon="11.6943401"><ele>100.28571428571429</ele><time>2026-04-25T08:01:02.08Z</time></trkpt><trkpt lat="44.2704673" lon="11.6942475"><ele>100.42857142857143</ele><time>2026-04-25T08:01:05.111Z</time></trkpt><trkpt lat="44.2704722" lon="11.6941495"><ele>100.57142857142858</ele><time>2026-04-25T08:01:08.07Z</time></trkpt><trkpt lat="44.2704748" lon="11.6940519"><ele>100.71428571428571</ele><time>2026-04-25T08:01:11.009Z</time></trkpt><trkpt lat="44.2704888" lon="11.6939524"><ele>100.85714285714286</ele><time>2026-04-25T08:01:14.108Z</time></trkpt><trkpt lat="44.2705044" lon="11.693854"><ele>101.0</ele><time>2026-04-25T08:01:17.069Z</time></trkpt><trkpt lat="44.2705221" lon="11.6937546"><ele>101.0</ele><time>2026-04-25T08:01:20.095Z</time></trkpt><trkpt lat="44.2705516" lon="11.6936644"><ele>101.0</ele><time>2026-04-25T08:01:23.104Z</time></trkpt><trkpt lat="44.2705849" lon="11.6935802"><ele>101.0</ele><time>2026-04-25T08:01:26.101Z</time></trkpt><trkpt lat="44.2706139" lon="11.6934889"><ele>101.0</ele><time>2026-04-25T08:01:29.11Z</time></trkpt><trkpt lat="44.270638" lon="11.6933975"><ele>101.0</ele><time>2026-04-25T08:01:32.077Z</time></trkpt><trkpt lat="44.2706617" lon="11.6933065"><ele>101.0</ele><time>2026-04-25T08:01:35.074Z</time></trkpt><trkpt lat="44.2706838" lon="11.6932121"><ele>101.0</ele><time>2026-04-25T08:01:38.082Z</time></trkpt><trkpt lat="44.270707" lon="11.69312"><ele>102.57142857142857</ele><time>2026-04-25T08:01:41.115Z</time></trkpt><trkpt lat="44.2707283" lon="11.6930319"><ele>104.14285714285714</ele><time>2026-04-25T08:01:44.101Z</time></trkpt><trkpt lat="44.2707508" lon="11.6929377"><ele>105.71428571428572</ele><time>2026-04-25T08:01:47.078Z</time></trkpt><trkpt lat="44.270776" lon="11.6928439"><ele>107.28571428571428</ele><time>2026-04-25T08:01:50.095Z</time></trkpt><trkpt lat="44.2708052" lon="11.6927508"><ele>108.85714285714286</ele><time>2026-04-25T08:01:53.094Z</time></trkpt><trkpt lat="44.2708311" lon="11.6926594"><ele>110.42857142857143</ele><time>2026-04-25T08:01:56.099Z</time></trkpt><trkpt lat="44.2708448" lon="11.6925667"><ele>112.0</ele><time>2026-04-25T08:01:59.108Z</time></trkpt><trkpt lat="44.2708658" lon="11.6924633"><ele>112.16666666666667</ele><time>2026-04-25T08:02:02.051Z</time></trkpt><trkpt lat="44.2708918" lon="11.6923543"><ele>112.33333333333334</ele><time>2026-04-25T08:02:05.101Z</time></trkpt><trkpt lat="44.2709143" lon="11.6922465"><ele>112.5</ele><time>2026-04-25T08:02:08.115Z</time></trkpt><trkpt lat="44.2709264" lon="11.6921381"><ele>112.66666666666666</ele><time>2026-04-25T08:02:11.094Z</time></trkpt><trkpt lat="44.2709402" lon="11.6920352"><ele>112.83333333333333</ele><time>2026-04-25T08:02:14.098Z</time></trkpt><trkpt lat="44.2709612" lon="11.6919334"><ele>113.0</ele><time>2026-04-25T08:02:17.026Z</time></trkpt><trkpt lat="44.2709811" lon="11.6918349"><ele>112.66666666666666</ele><time>2026-04-25T08:02:20.054Z</time></trkpt><trkpt lat="44.2709954" lon="11.6917268"><ele>112.33333333333333</ele><time>2026-04-25T08:02:23.098Z</time></trkpt><trkpt lat="44.2710177" lon="11.6916208"><ele>112.0</ele><time>2026-04-25T08:02:26.082Z</time></trkpt><trkpt lat="44.2710413" lon="11.6914936"><ele>111.66666666666666</ele><time>2026-04-25T08:02:29.094Z</time></trkpt><trkpt lat="44.2710469" lon="11.6913929"><ele>111.33333333333333</ele><time>2026-04-25T08:02:32.068Z</time></trkpt><trkpt lat="44.2710607" lon="11.6912774"><ele>111.0</ele><time>2026-04-25T08:02:35.1Z</time></trkpt><trkpt lat="44.2710777" lon="11.6911539"><ele>109.8</ele><time>2026-04-25T08:02:38.095Z</time></trkpt><trkpt lat="44.2710936" lon="11.691031"><ele>108.6</ele><time>2026-04-25T08:02:41.074Z</time></trkpt><trkpt lat="44.2711062" lon="11.6909088"><ele>107.4</ele><time>2026-04-25T08:02:44.131Z</time></trkpt><trkpt lat="44.2711091" lon="11.69078"><ele>106.2</ele><time>2026-04-25T08:02:47.1Z</time></trkpt><trkpt lat="44.2710967" lon="11.6906599"><ele>105.0</ele><time>2026-04-25T08:02:50.07Z</time></trkpt><trkpt lat="44.2710805" lon="11.6905285"><ele>105.0</ele><time>2026-04-25T08:02:53.073Z</time></trkpt><trkpt lat="44.2710639" lon="11.6904176"><ele>105.0</ele><time>2026-04-25T08:02:56.095Z</time></trkpt><trkpt lat="44.2710422" lon="11.6903045"><ele>105.0</ele><time>2026-04-25T08:02:59.053Z</time></trkpt><trkpt lat="44.2710184" lon="11.6901926"><ele>105.0</ele><time>2026-04-25T08:03:02.093Z</time></trkpt><trkpt lat="44.2709871" lon="11.6900779"><ele>105.0</ele><time>2026-04-25T08:03:05.047Z</time></trkpt><trkpt lat="44.270956" lon="11.6900001"><ele>105.0</ele><time>2026-04-25T08:03:07.151Z</time></trkpt><trkpt lat="44.2709265" lon="11.6898878"><ele>104.16666666666667</ele><time>2026-04-25T08:03:09.976Z</time></trkpt><trkpt lat="44.2708964" lon="11.6897773"><ele>103.33333333333334</ele><time>2026-04-25T08:03:13.1Z</time></trkpt><trkpt lat="44.2708596" lon="11.6896589"><ele>102.5</ele><time>2026-04-25T08:03:16.11Z</time></trkpt><trkpt lat="44.2708173" lon="11.6895402"><ele>101.66666666666667</ele><time>2026-04-25T08:03:19.082Z</time></trkpt><trkpt lat="44.2707897" lon="11.6894608"><ele>100.83333333333334</ele><time>2026-04-25T08:03:21.116Z</time></trkpt><trkpt lat="44.2707613" lon="11.6893794"><ele>100.0</ele><time>2026-04-25T08:03:23.08Z</time></trkpt><trkpt lat="44.2707275" lon="11.6892651"><ele>100.0</ele><time>2026-04-25T08:03:26.104Z</time></trkpt><trkpt lat="44.2706879" lon="11.6891439"><ele>100.0</ele><time>2026-04-25T08:03:29.086Z</time></trkpt><trkpt lat="44.2706596" lon="11.6890327"><ele>100.0</ele><time>2026-04-25T08:03:32.068Z</time></trkpt><trkpt lat="44.2706351" lon="11.6889157"><ele>100.0</ele><time>2026-04-25T08:03:35.08Z</time></trkpt><trkpt lat="44.2706191" lon="11.6887935"><ele>100.0</ele><time>2026-04-25T08:03:38.069Z</time></trkpt><trkpt lat="44.2706111" lon="11.6886588"><ele>100.50000000000001</ele><time>2026-04-25T08:03:41.093Z</time></trkpt><trkpt lat="44.2706048" lon="11.6885296"><ele>101.0</ele><time>2026-04-25T08:03:44.127Z</time></trkpt><trkpt lat="44.2705994" lon="11.6884053"><ele>101.5</ele><time>2026-04-25T08:03:47.106Z</time></trkpt><trkpt lat="44.2706049" lon="11.6882827"><ele>102.0</ele><time>2026-04-25T08:03:50.088Z</time></trkpt><trkpt lat="44.2706055" lon="11.6881643"><ele>102.50000000000001</ele><time>2026-04-25T08:03:53.045Z</time></trkpt><trkpt lat="44.2706101" lon="11.6880492"><ele>103.0</ele><time>2026-04-25T08:03:56.089Z</time></trkpt><trkpt lat="44.2706037" lon="11.687932"><ele>100.00000000000001</ele><time>2026-04-25T08:03:59.078Z</time></trkpt><trkpt lat="44.2706009" lon="11.6878105"><ele>97.0</ele><time>2026-04-25T08:04:02.111Z</time></trkpt><trkpt lat="44.2705991" lon="11.6876901"><ele>94.0</ele><time>2026-04-25T08:04:05.111Z</time></trkpt><trkpt lat="44.2705963" lon="11.6875667"><ele>91.0</ele><time>2026-04-25T08:04:08.062Z</time></trkpt><trkpt lat="44.2705989" lon="11.6874757"><ele>88.0</ele><time>2026-04-25T08:04:10.087Z</time></trkpt><trkpt lat="44.2705978" lon="11.6873817"><ele>85.0</ele><time>2026-04-25T08:04:12.096Z</time></trkpt><trkpt lat="44.2705893" lon="11.6872501"><ele>85.0</ele><time>2026-04-25T08:04:15.091Z</time></trkpt><trkpt lat="44.2705746" lon="11.6871224"><ele>85.0</ele><time>2026-04-25T08:04:18.074Z</time></trkpt><trkpt lat="44.2705677" lon="11.6870001"><ele>85.0</ele><time>2026-04-25T08:04:21.077Z</time></trkpt><trkpt lat="44.2705658" lon="11.6868759"><ele>85.0</ele><time>2026-04-25T08:04:24.071Z</time></trkpt><trkpt lat="44.2705541" lon="11.6867557"><ele>85.0</ele><time>2026-04-25T08:04:27.107Z</time></trkpt><trkpt lat="44.2705348" lon="11.6866423"><ele>85.0</ele><time>2026-04-25T08:04:30.063Z</time></trkpt><trkpt lat="44.2705077" lon="11.6865279"><ele>85.33333333333333</ele><time>2026-04-25T08:04:33.111Z</time></trkpt><trkpt lat="44.2704712" lon="11.6864187"><ele>85.66666666666666</ele><time>2026-04-25T08:04:36.086Z</time></trkpt><trkpt lat="44.2704365" lon="11.686316"><ele>86.0</ele><time>2026-04-25T08:04:39.082Z</time></trkpt><trkpt lat="44.2703985" lon="11.6862145"><ele>86.33333333333333</ele><time>2026-04-25T08:04:42.03Z</time></trkpt><trkpt lat="44.2703635" lon="11.6861092"><ele>86.66666666666667</ele><time>2026-04-25T08:04:45.07Z</time></trkpt><trkpt lat="44.2703249" lon="11.6860086"><ele>87.0</ele><time>2026-04-25T08:04:48.097Z</time></trkpt><trkpt lat="44.2702805" lon="11.6859198"><ele>87.5</ele><time>2026-04-25T08:04:51.097Z</time></trkpt><trkpt lat="44.2702412" lon="11.6858322"><ele>88.0</ele><time>2026-04-25T08:04:54.085Z</time></trkpt><trkpt lat="44.2701983" lon="11.6857462"><ele>88.5</ele><time>2026-04-25T08:04:57.055Z</time></trkpt><trkpt lat="44.2701524" lon="11.6856593"><ele>89.0</ele><time>2026-04-25T08:05:00.054Z</time></trkpt><trkpt lat="44.2701034" lon="11.6855848"><ele>89.5</ele><time>2026-04-25T08:05:03.085Z</time></trkpt><trkpt lat="44.2700554" lon="11.6855084"><ele>90.0</ele><time>2026-04-25T08:05:06.063Z</time></trkpt><trkpt lat="44.2700227" lon="11.6854087"><ele>90.0</ele><time>2026-04-25T08:05:09.087Z</time></trkpt><trkpt lat="44.2699961" lon="11.6853055"><ele>90.0</ele><time>2026-04-25T08:05:12.103Z</time></trkpt><trkpt lat="44.2699689" lon="11.6851955"><ele>90.0</ele><time>2026-04-25T08:05:15.091Z</time></trkpt><trkpt lat="44.2699409" lon="11.6850863"><ele>90.0</ele><time>2026-04-25T08:05:18.128Z</time></trkpt><trkpt lat="44.2699151" lon="11.6849896"><ele>90.0</ele><time>2026-04-25T08:05:21.012Z</time></trkpt><trkpt lat="44.2698797" lon="11.6848834"><ele>90.0</ele><time>2026-04-25T08:05:24.095Z</time></trkpt><trkpt lat="44.2698455" lon="11.6847825"><ele>90.16666666666667</ele><time>2026-04-25T08:05:27.03Z</time></trkpt><trkpt lat="44.2698046" lon="11.6846698"><ele>90.33333333333333</ele><time>2026-04-25T08:05:30.114Z</time></trkpt><trkpt lat="44.2697485" lon="11.6845758"><ele>90.5</ele><time>2026-04-25T08:05:33.034Z</time></trkpt><trkpt lat="44.2696809" lon="11.6844916"><ele>90.66666666666666</ele><time>2026-04-25T08:05:36.126Z</time></trkpt><trkpt lat="44.2696203" lon="11.6844301"><ele>90.83333333333333</ele><time>2026-04-25T08:05:39.069Z</time></trkpt><trkpt lat="44.2695552" lon="11.684376"><ele>91.0</ele><time>2026-04-25T08:05:42.089Z</time></trkpt><trkpt lat="44.269487" lon="11.6843182"><ele>91.0</ele><time>2026-04-25T08:05:45.107Z</time></trkpt><trkpt lat="44.2694233" lon="11.6842746"><ele>91.0</ele><time>2026-04-25T08:05:48.098Z</time></trkpt><trkpt lat="44.2693583" lon="11.6842481"><ele>91.0</ele><time>2026-04-25T08:05:51.173Z</time></trkpt><trkpt lat="44.2692781" lon="11.6842489"><ele>91.0</ele><time>2026-04-25T08:05:54.083Z</time></trkpt><trkpt lat="44.2691881" lon="11.6842556"><ele>91.0</ele><time>2026-04-25T08:05:57.129Z</time></trkpt><trkpt lat="44.2691088" lon="11.6842624"><ele>91.0</ele><time>2026-04-25T08:06:00.012Z</time></trkpt><trkpt lat="44.2690298" lon="11.684273"><ele>91.0</ele><time>2026-04-25T08:06:03.104Z</time></trkpt><trkpt lat="44.2689514" lon="11.6842839"><ele>91.0</ele><time>2026-04-25T08:06:06.027Z</time></trkpt><trkpt lat="44.2688735" lon="11.6842995"><ele>91.0</ele><time>2026-04-25T08:06:09.116Z</time></trkpt><trkpt lat="44.2688081" lon="11.6842913"><ele>91.0</ele><time>2026-04-25T08:06:12.094Z</time></trkpt><trkpt lat="44.2687307" lon="11.6842747"><ele>91.0</ele><time>2026-04-25T08:06:15.08Z</time></trkpt><trkpt lat="44.2686533" lon="11.6842734"><ele>91.0</ele><time>2026-04-25T08:06:18.097Z</time></trkpt><trkpt lat="44.2685802" lon="11.6842641"><ele>91.14285714285714</ele><time>2026-04-25T08:06:21.101Z</time></trkpt><trkpt lat="44.2685106" lon="11.6842537"><ele>91.28571428571428</ele><time>2026-04-25T08:06:24.095Z</time></trkpt><trkpt lat="44.2684369" lon="11.6842344"><ele>91.42857142857143</ele><time>2026-04-25T08:06:27.153Z</time></trkpt><trkpt lat="44.2683625" lon="11.6842201"><ele>91.57142857142857</ele><time>2026-04-25T08:06:30.033Z</time></trkpt><trkpt lat="44.2682864" lon="11.6841841"><ele>91.71428571428571</ele><time>2026-04-25T08:06:33.102Z</time></trkpt><trkpt lat="44.2682181" lon="11.6841484"><ele>91.85714285714286</ele><time>2026-04-25T08:06:36.146Z</time></trkpt><trkpt lat="44.2681561" lon="11.6841203"><ele>92.0</ele><time>2026-04-25T08:06:39.049Z</time></trkpt><trkpt lat="44.2680934" lon="11.6840706"><ele>92.0</ele><time>2026-04-25T08:06:42.078Z</time></trkpt><trkpt lat="44.2680367" lon="11.6840139"><ele>92.0</ele><time>2026-04-25T08:06:45.094Z</time></trkpt><trkpt lat="44.2679845" lon="11.6839544"><ele>92.0</ele><time>2026-04-25T08:06:48.113Z</time></trkpt><trkpt lat="44.2679214" lon="11.6838717"><ele>92.0</ele><time>2026-04-25T08:06:52.095Z</time></trkpt><trkpt lat="44.2678685" lon="11.6838148"><ele>92.0</ele><time>2026-04-25T08:06:55.078Z</time></trkpt><trkpt lat="44.2678116" lon="11.6837511"><ele>92.0</ele><time>2026-04-25T08:06:58.101Z</time></trkpt><trkpt lat="44.2677542" lon="11.6836746"><ele>92.0</ele><time>2026-04-25T08:07:01.134Z</time></trkpt><trkpt lat="44.2676954" lon="11.6835919"><ele>92.66666666666667</ele><time>2026-04-25T08:07:04.079Z</time></trkpt><trkpt lat="44.2676391" lon="11.6835191"><ele>93.33333333333334</ele><time>2026-04-25T08:07:07.126Z</time></trkpt><trkpt lat="44.2675813" lon="11.6834519"><ele>94.0</ele><time>2026-04-25T08:07:10.086Z</time></trkpt><trkpt lat="44.2675242" lon="11.6833781"><ele>94.66666666666667</ele><time>2026-04-25T08:07:13.107Z</time></trkpt><trkpt lat="44.267469" lon="11.6833001"><ele>95.33333333333333</ele><time>2026-04-25T08:07:16.037Z</time></trkpt><trkpt lat="44.2674059" lon="11.683232"><ele>96.0</ele><time>2026-04-25T08:07:19.104Z</time></trkpt><trkpt lat="44.2673532" lon="11.6831634"><ele>96.0</ele><time>2026-04-25T08:07:22.052Z</time></trkpt><trkpt lat="44.2672965" lon="11.6830968"><ele>96.0</ele><time>2026-04-25T08:07:25.072Z</time></trkpt><trkpt lat="44.2672407" lon="11.6830258"><ele>96.0</ele><time>2026-04-25T08:07:28.141Z</time></trkpt><trkpt lat="44.2671834" lon="11.6829572"><ele>96.0</ele><time>2026-04-25T08:07:31.08Z</time></trkpt><trkpt lat="44.2671256" lon="11.6828899"><ele>96.0</ele><time>2026-04-25T08:07:34.113Z</time></trkpt><trkpt lat="44.2670635" lon="11.6828196"><ele>96.0</ele><time>2026-04-25T08:07:36.996Z</time></trkpt><trkpt lat="44.2669925" lon="11.6827385"><ele>95.83333333333333</ele><time>2026-04-25T08:07:40.076Z</time></trkpt><trkpt lat="44.266935" lon="11.6826545"><ele>95.66666666666667</ele><time>2026-04-25T08:07:43.01Z</time></trkpt><trkpt lat="44.2668708" lon="11.6825773"><ele>95.5</ele><time>2026-04-25T08:07:46.061Z</time></trkpt><trkpt lat="44.2668126" lon="11.6824968"><ele>95.33333333333334</ele><time>2026-04-25T08:07:49.034Z</time></trkpt><trkpt lat="44.2667499" lon="11.6824218"><ele>95.16666666666667</ele><time>2026-04-25T08:07:52.109Z</time></trkpt><trkpt lat="44.2666884" lon="11.6823484"><ele>95.0</ele><time>2026-04-25T08:07:55.066Z</time></trkpt><trkpt lat="44.2666308" lon="11.682264"><ele>95.0</ele><time>2026-04-25T08:07:58.125Z</time></trkpt><trkpt lat="44.2665783" lon="11.6821881"><ele>95.0</ele><time>2026-04-25T08:08:01.069Z</time></trkpt><trkpt lat="44.266525" lon="11.6821094"><ele>95.0</ele><time>2026-04-25T08:08:04.03Z</time></trkpt><trkpt lat="44.2664891" lon="11.6820151"><ele>95.0</ele><time>2026-04-25T08:08:07.077Z</time></trkpt><trkpt lat="44.2664618" lon="11.6819206"><ele>95.0</ele><time>2026-04-25T08:08:10.054Z</time></trkpt><trkpt lat="44.2664411" lon="11.6818211"><ele>95.0</ele><time>2026-04-25T08:08:13.08Z</time></trkpt><trkpt lat="44.2664382" lon="11.6817098"><ele>95.33333333333334</ele><time>2026-04-25T08:08:16.096Z</time></trkpt><trkpt lat="44.2664519" lon="11.6816031"><ele>95.66666666666667</ele><time>2026-04-25T08:08:19.099Z</time></trkpt><trkpt lat="44.2664669" lon="11.6814937"><ele>96.0</ele><time>2026-04-25T08:08:22.089Z</time></trkpt><trkpt lat="44.2664895" lon="11.6813899"><ele>96.33333333333334</ele><time>2026-04-25T08:08:25.087Z</time></trkpt><trkpt lat="44.2665135" lon="11.6812837"><ele>96.66666666666667</ele><time>2026-04-25T08:08:28.105Z</time></trkpt><trkpt lat="44.2665607" lon="11.6811813"><ele>97.0</ele><time>2026-04-25T08:08:31.048Z</time></trkpt><trkpt lat="44.2665771" lon="11.6810946"><ele>97.00000000000001</ele><time>2026-04-25T08:08:33.086Z</time></trkpt><trkpt lat="44.2666072" lon="11.6809718"><ele>97.0</ele><time>2026-04-25T08:08:36.094Z</time></trkpt><trkpt lat="44.2666406" lon="11.6808483"><ele>97.0</ele><time>2026-04-25T08:08:39.133Z</time></trkpt><trkpt lat="44.2666656" lon="11.6807656"><ele>97.0</ele><time>2026-04-25T08:08:41.091Z</time></trkpt><trkpt lat="44.2667027" lon="11.6806324"><ele>97.00000000000001</ele><time>2026-04-25T08:08:44.088Z</time></trkpt><trkpt lat="44.266716" lon="11.6805351"><ele>97.0</ele><time>2026-04-25T08:08:47.127Z</time></trkpt><trkpt lat="44.2667183" lon="11.680422"><ele>97.00000000000001</ele><time>2026-04-25T08:08:50.121Z</time></trkpt><trkpt lat="44.2667108" lon="11.6803086"><ele>97.0</ele><time>2026-04-25T08:08:53.086Z</time></trkpt><trkpt lat="44.2666947" lon="11.6801928"><ele>97.0</ele><time>2026-04-25T08:08:56.064Z</time></trkpt><trkpt lat="44.2666693" lon="11.6800925"><ele>97.0</ele><time>2026-04-25T08:08:59.053Z</time></trkpt><trkpt lat="44.2666347" lon="11.6799841"><ele>97.00000000000001</ele><time>2026-04-25T08:09:02.087Z</time></trkpt><trkpt lat="44.2665958" lon="11.6798735"><ele>97.0</ele><time>2026-04-25T08:09:05.091Z</time></trkpt><trkpt lat="44.2665566" lon="11.6797611"><ele>96.16666666666667</ele><time>2026-04-25T08:09:08.111Z</time></trkpt><trkpt lat="44.2665133" lon="11.6796529"><ele>95.33333333333334</ele><time>2026-04-25T08:09:11.052Z</time></trkpt><trkpt lat="44.2664783" lon="11.6795784"><ele>94.5</ele><time>2026-04-25T08:09:13.147Z</time></trkpt><trkpt lat="44.2664349" lon="11.6794818"><ele>93.66666666666667</ele><time>2026-04-25T08:09:15.987Z</time></trkpt><trkpt lat="44.2663931" lon="11.679386"><ele>92.83333333333334</ele><time>2026-04-25T08:09:19.093Z</time></trkpt><trkpt lat="44.2663518" lon="11.6792916"><ele>92.0</ele><time>2026-04-25T08:09:22.051Z</time></trkpt><trkpt lat="44.2663106" lon="11.6791924"><ele>91.83333333333334</ele><time>2026-04-25T08:09:25.11Z</time></trkpt><trkpt lat="44.2662669" lon="11.6790947"><ele>91.66666666666667</ele><time>2026-04-25T08:09:28.072Z</time></trkpt><trkpt lat="44.2662298" lon="11.6789886"><ele>91.5</ele><time>2026-04-25T08:09:31.106Z</time></trkpt><trkpt lat="44.2661822" lon="11.6788922"><ele>91.33333333333333</ele><time>2026-04-25T08:09:34.11Z</time></trkpt><trkpt lat="44.2661388" lon="11.6788028"><ele>91.16666666666666</ele><time>2026-04-25T08:09:37.063Z</time></trkpt><trkpt lat="44.2660915" lon="11.6787054"><ele>91.0</ele><time>2026-04-25T08:09:40.118Z</time></trkpt><trkpt lat="44.2660445" lon="11.6786155"><ele>91.33333333333333</ele><time>2026-04-25T08:09:42.988Z</time></trkpt><trkpt lat="44.2660032" lon="11.678524"><ele>91.66666666666666</ele><time>2026-04-25T08:09:46.096Z</time></trkpt><trkpt lat="44.2659636" lon="11.678445"><ele>92.0</ele><time>2026-04-25T08:09:49.033Z</time></trkpt><trkpt lat="44.2659198" lon="11.6783628"><ele>92.33333333333333</ele><time>2026-04-25T08:09:52.08Z</time></trkpt><trkpt lat="44.2658769" lon="11.6782786"><ele>92.66666666666667</ele><time>2026-04-25T08:09:55.074Z</time></trkpt><trkpt lat="44.2658315" lon="11.6781788"><ele>93.0</ele><time>2026-04-25T08:09:58.1Z</time></trkpt><trkpt lat="44.2657782" lon="11.678085"><ele>93.0</ele><time>2026-04-25T08:10:01.09Z</time></trkpt><trkpt lat="44.2657316" lon="11.6779856"><ele>93.0</ele><time>2026-04-25T08:10:04.104Z</time></trkpt><trkpt lat="44.2656819" lon="11.6778937"><ele>93.0</ele><time>2026-04-25T08:10:07.109Z</time></trkpt><trkpt lat="44.2656331" lon="11.6778011"><ele>93.0</ele><time>2026-04-25T08:10:10.091Z</time></trkpt><trkpt lat="44.2655841" lon="11.677705"><ele>93.0</ele><time>2026-04-25T08:10:13.101Z</time></trkpt><trkpt lat="44.2655386" lon="11.6776094"><ele>93.0</ele><time>2026-04-25T08:10:16.08Z</time></trkpt><trkpt lat="44.2654921" lon="11.6775181"><ele>92.83333333333333</ele><time>2026-04-25T08:10:19.157Z</time></trkpt><trkpt lat="44.2654387" lon="11.6774329"><ele>92.66666666666667</ele><time>2026-04-25T08:10:22.075Z</time></trkpt><trkpt lat="44.2653793" lon="11.6773439"><ele>92.5</ele><time>2026-04-25T08:10:25.111Z</time></trkpt><trkpt lat="44.2653226" lon="11.6772628"><ele>92.33333333333334</ele><time>2026-04-25T08:10:28.068Z</time></trkpt><trkpt lat="44.2652684" lon="11.6771831"><ele>92.16666666666667</ele><time>2026-04-25T08:10:31.082Z</time></trkpt><trkpt lat="44.2652151" lon="11.6771052"><ele>92.0</ele><time>2026-04-25T08:10:34.082Z</time></trkpt><trkpt lat="44.2651591" lon="11.6770275"><ele>92.0</ele><time>2026-04-25T08:10:37.081Z</time></trkpt><trkpt lat="44.2651024" lon="11.6769387"><ele>92.0</ele><time>2026-04-25T08:10:40.104Z</time></trkpt><trkpt lat="44.2650469" lon="11.6768599"><ele>92.0</ele><time>2026-04-25T08:10:43.095Z</time></trkpt><trkpt lat="44.2649859" lon="11.6767718"><ele>92.0</ele><time>2026-04-25T08:10:46.102Z</time></trkpt><trkpt lat="44.2649265" lon="11.6766835"><ele>92.0</ele><time>2026-04-25T08:10:49.079Z</time></trkpt><trkpt lat="44.2648592" lon="11.6765987"><ele>92.0</ele><time>2026-04-25T08:10:52.109Z</time></trkpt><trkpt lat="44.2647931" lon="11.6765204"><ele>91.83333333333334</ele><time>2026-04-25T08:10:55.088Z</time></trkpt><trkpt lat="44.2647339" lon="11.6764392"><ele>91.66666666666667</ele><time>2026-04-25T08:10:58.066Z</time></trkpt><trkpt lat="44.2646744" lon="11.6763675"><ele>91.5</ele><time>2026-04-25T08:11:01.092Z</time></trkpt><trkpt lat="44.2646112" lon="11.6762876"><ele>91.33333333333333</ele><time>2026-04-25T08:11:04.112Z</time></trkpt><trkpt lat="44.2645532" lon="11.6762074"><ele>91.16666666666666</ele><time>2026-04-25T08:11:07.126Z</time></trkpt><trkpt lat="44.2645031" lon="11.6761192"><ele>91.0</ele><time>2026-04-25T08:11:10.085Z</time></trkpt><trkpt lat="44.264439" lon="11.6760421"><ele>91.0</ele><time>2026-04-25T08:11:13.096Z</time></trkpt><trkpt lat="44.2643856" lon="11.6759706"><ele>91.0</ele><time>2026-04-25T08:11:16.034Z</time></trkpt><trkpt lat="44.2643318" lon="11.6758911"><ele>91.0</ele><time>2026-04-25T08:11:19.098Z</time></trkpt><trkpt lat="44.2642739" lon="11.6758087"><ele>91.0</ele><time>2026-04-25T08:11:22.071Z</time></trkpt><trkpt lat="44.2642173" lon="11.6757261"><ele>91.0</ele><time>2026-04-25T08:11:25.105Z</time></trkpt><trkpt lat="44.26416" lon="11.6756487"><ele>91.0</ele><time>2026-04-25T08:11:28.083Z</time></trkpt><trkpt lat="44.2641022" lon="11.6755695"><ele>91.0</ele><time>2026-04-25T08:11:31.142Z</time></trkpt><trkpt lat="44.2640462" lon="11.675492"><ele>91.0</ele><time>2026-04-25T08:11:34.107Z</time></trkpt><trkpt lat="44.2639865" lon="11.6754158"><ele>91.0</ele><time>2026-04-25T08:11:37.124Z</time></trkpt><trkpt lat="44.263931" lon="11.6753458"><ele>91.0</ele><time>2026-04-25T08:11:40.107Z</time></trkpt><trkpt lat="44.2638716" lon="11.6752778"><ele>91.0</ele><time>2026-04-25T08:11:43.11Z</time></trkpt><trkpt lat="44.263819" lon="11.6752017"><ele>91.0</ele><time>2026-04-25T08:11:46.177Z</time></trkpt><trkpt lat="44.2637708" lon="11.6751351"><ele>91.33333333333333</ele><time>2026-04-25T08:11:49.015Z</time></trkpt><trkpt lat="44.2637181" lon="11.6750587"><ele>91.66666666666666</ele><time>2026-04-25T08:11:52.107Z</time></trkpt><trkpt lat="44.2636598" lon="11.6749888"><ele>92.0</ele><time>2026-04-25T08:11:55.097Z</time></trkpt><trkpt lat="44.2636028" lon="11.6749255"><ele>92.33333333333333</ele><time>2026-04-25T08:11:58.089Z</time></trkpt><trkpt lat="44.2635459" lon="11.6748632"><ele>92.66666666666667</ele><time>2026-04-25T08:12:01.028Z</time></trkpt><trkpt lat="44.2634963" lon="11.6747752"><ele>93.0</ele><time>2026-04-25T08:12:04.095Z</time></trkpt><trkpt lat="44.263444" lon="11.6746962"><ele>93.0</ele><time>2026-04-25T08:12:07.088Z</time></trkpt><trkpt lat="44.2633942" lon="11.6746188"><ele>93.0</ele><time>2026-04-25T08:12:10.081Z</time></trkpt><trkpt lat="44.2633406" lon="11.6745384"><ele>93.0</ele><time>2026-04-25T08:12:13.128Z</time></trkpt><trkpt lat="44.2632865" lon="11.6744466"><ele>93.0</ele><time>2026-04-25T08:12:16.091Z</time></trkpt><trkpt lat="44.2632321" lon="11.6743593"><ele>93.0</ele><time>2026-04-25T08:12:19.111Z</time></trkpt><trkpt lat="44.2631883" lon="11.6742793"><ele>93.0</ele><time>2026-04-25T08:12:22.037Z</time></trkpt><trkpt lat="44.2631508" lon="11.6741958"><ele>93.14285714285715</ele><time>2026-04-25T08:12:25.115Z</time></trkpt><trkpt lat="44.2631246" lon="11.6741115"><ele>93.28571428571429</ele><time>2026-04-25T08:12:28.113Z</time></trkpt><trkpt lat="44.2631009" lon="11.6740171"><ele>93.42857142857143</ele><time>2026-04-25T08:12:31.106Z</time></trkpt><trkpt lat="44.2630681" lon="11.6739205"><ele>93.57142857142858</ele><time>2026-04-25T08:12:34.11Z</time></trkpt><trkpt lat="44.263047" lon="11.6738235"><ele>93.71428571428571</ele><time>2026-04-25T08:12:37.088Z</time></trkpt><trkpt lat="44.2630203" lon="11.6737202"><ele>93.85714285714286</ele><time>2026-04-25T08:12:40.102Z</time></trkpt><trkpt lat="44.2630028" lon="11.6736182"><ele>94.0</ele><time>2026-04-25T08:12:43.091Z</time></trkpt><trkpt lat="44.2629897" lon="11.6735189"><ele>94.83333333333333</ele><time>2026-04-25T08:12:46.106Z</time></trkpt><trkpt lat="44.2629731" lon="11.6734183"><ele>95.66666666666666</ele><time>2026-04-25T08:12:49.099Z</time></trkpt><trkpt lat="44.2629543" lon="11.6733075"><ele>96.5</ele><time>2026-04-25T08:12:52.054Z</time></trkpt><trkpt lat="44.2629338" lon="11.6731993"><ele>97.33333333333333</ele><time>2026-04-25T08:12:55.067Z</time></trkpt><trkpt lat="44.2629162" lon="11.6730856"><ele>98.16666666666667</ele><time>2026-04-25T08:12:58.107Z</time></trkpt><trkpt lat="44.262902" lon="11.6729759"><ele>99.0</ele><time>2026-04-25T08:13:01.117Z</time></trkpt><trkpt lat="44.2628947" lon="11.6728668"><ele>99.71428571428572</ele><time>2026-04-25T08:13:04.088Z</time></trkpt><trkpt lat="44.2628827" lon="11.6727663"><ele>100.42857142857142</ele><time>2026-04-25T08:13:06.935Z</time></trkpt><trkpt lat="44.2628663" lon="11.6726547"><ele>101.14285714285714</ele><time>2026-04-25T08:13:10.152Z</time></trkpt><trkpt lat="44.2628562" lon="11.6725487"><ele>101.85714285714286</ele><time>2026-04-25T08:13:13.078Z</time></trkpt><trkpt lat="44.2628476" lon="11.6724436"><ele>102.57142857142858</ele><time>2026-04-25T08:13:16.116Z</time></trkpt><trkpt lat="44.2628383" lon="11.6723452"><ele>103.28571428571428</ele><time>2026-04-25T08:13:19.064Z</time></trkpt><trkpt lat="44.2628335" lon="11.6722536"><ele>104.0</ele><time>2026-04-25T08:13:22.114Z</time></trkpt><trkpt lat="44.2628308" lon="11.6721613"><ele>104.0</ele><time>2026-04-25T08:13:25.132Z</time></trkpt><trkpt lat="44.2628343" lon="11.6720687"><ele>104.0</ele><time>2026-04-25T08:13:28.1Z</time></trkpt><trkpt lat="44.2628129" lon="11.6719834"><ele>104.0</ele><time>2026-04-25T08:13:31.099Z</time></trkpt><trkpt lat="44.2627699" lon="11.6719155"><ele>104.0</ele><time>2026-04-25T08:13:34.034Z</time></trkpt><trkpt lat="44.2627115" lon="11.671864"><ele>104.0</ele><time>2026-04-25T08:13:37.098Z</time></trkpt><trkpt lat="44.2626372" lon="11.6718599"><ele>104.0</ele><time>2026-04-25T08:13:40.08Z</time></trkpt><trkpt lat="44.262558" lon="11.671842"><ele>104.0</ele><time>2026-04-25T08:13:43.097Z</time></trkpt><trkpt lat="44.2624857" lon="11.6718346"><ele>104.57142857142857</ele><time>2026-04-25T08:13:46.132Z</time></trkpt><trkpt lat="44.2624197" lon="11.6718422"><ele>105.14285714285715</ele><time>2026-04-25T08:13:52.983Z</time></trkpt><trkpt lat="44.2623527" lon="11.6718672"><ele>105.71428571428572</ele><time>2026-04-25T08:13:56.052Z</time></trkpt><trkpt lat="44.2622902" lon="11.6718977"><ele>106.28571428571428</ele><time>2026-04-25T08:13:59.034Z</time></trkpt><trkpt lat="44.2622186" lon="11.6719569"><ele>106.85714285714286</ele><time>2026-04-25T08:14:03.049Z</time></trkpt><trkpt lat="44.2621812" lon="11.6720298"><ele>107.42857142857143</ele><time>2026-04-25T08:14:05.975Z</time></trkpt><trkpt lat="44.262153" lon="11.6721124"><ele>108.0</ele><time>2026-04-25T08:14:09.072Z</time></trkpt><trkpt lat="44.2621655" lon="11.6722106"><ele>107.42857142857143</ele><time>2026-04-25T08:14:11.98Z</time></trkpt><trkpt lat="44.2621789" lon="11.6723006"><ele>106.85714285714286</ele><time>2026-04-25T08:14:15.06Z</time></trkpt><trkpt lat="44.2621956" lon="11.6724108"><ele>106.28571428571428</ele><time>2026-04-25T08:14:19.097Z</time></trkpt><trkpt lat="44.262196" lon="11.672504"><ele>105.71428571428572</ele><time>2026-04-25T08:14:22.051Z</time></trkpt><trkpt lat="44.2621746" lon="11.6725959"><ele>105.14285714285715</ele><time>2026-04-25T08:14:25.103Z</time></trkpt><trkpt lat="44.2621564" lon="11.6726828"><ele>104.57142857142857</ele><time>2026-04-25T08:14:28.086Z</time></trkpt><trkpt lat="44.262119" lon="11.6727887"><ele>104.0</ele><time>2026-04-25T08:14:32.074Z</time></trkpt><trkpt lat="44.2620493" lon="11.6728533"><ele>103.99999999999999</ele><time>2026-04-25T08:14:35.057Z</time></trkpt><trkpt lat="44.2619751" lon="11.6729018"><ele>104.0</ele><time>2026-04-25T08:14:38.099Z</time></trkpt><trkpt lat="44.2619037" lon="11.6729188"><ele>104.0</ele><time>2026-04-25T08:14:41.087Z</time></trkpt><trkpt lat="44.2618412" lon="11.6729004"><ele>104.0</ele><time>2026-04-25T08:14:44.095Z</time></trkpt><trkpt lat="44.2617647" lon="11.6728493"><ele>103.99999999999999</ele><time>2026-04-25T08:14:48.195Z</time></trkpt><trkpt lat="44.2616878" lon="11.6727981"><ele>104.0</ele><time>2026-04-25T08:14:52.48Z</time></trkpt><trkpt lat="44.2616314" lon="11.6727438"><ele>104.85714285714285</ele><time>2026-04-25T08:14:55.781Z</time></trkpt><trkpt lat="44.2615793" lon="11.6726761"><ele>105.71428571428572</ele><time>2026-04-25T08:14:59.022Z</time></trkpt><trkpt lat="44.261542" lon="11.6726038"><ele>106.57142857142857</ele><time>2026-04-25T08:15:02.081Z</time></trkpt><trkpt lat="44.2615144" lon="11.6725226"><ele>107.42857142857142</ele><time>2026-04-25T08:15:05.091Z</time></trkpt><trkpt lat="44.2614729" lon="11.6724188"><ele>108.28571428571428</ele><time>2026-04-25T08:15:09.115Z</time></trkpt><trkpt lat="44.2614284" lon="11.6723253"><ele>109.14285714285714</ele><time>2026-04-25T08:15:13.085Z</time></trkpt><trkpt lat="44.2613994" lon="11.6722272"><ele>110.0</ele><time>2026-04-25T08:15:17.067Z</time></trkpt><trkpt lat="44.2613772" lon="11.6721199"><ele>109.99999999999999</ele><time>2026-04-25T08:15:21.035Z</time></trkpt><trkpt lat="44.2613475" lon="11.6720309"><ele>110.0</ele><time>2026-04-25T08:15:25.026Z</time></trkpt><trkpt lat="44.2612961" lon="11.671947"><ele>110.0</ele><time>2026-04-25T08:15:29.075Z</time></trkpt><trkpt lat="44.2612439" lon="11.6718941"><ele>110.0</ele><time>2026-04-25T08:15:32.082Z</time></trkpt><trkpt lat="44.261195" lon="11.6718367"><ele>110.0</ele><time>2026-04-25T08:15:35.076Z</time></trkpt><trkpt lat="44.2611411" lon="11.671773"><ele>109.99999999999999</ele><time>2026-04-25T08:15:38.062Z</time></trkpt><trkpt lat="44.2610763" lon="11.6717294"><ele>110.0</ele><time>2026-04-25T08:15:41.083Z</time></trkpt><trkpt lat="44.2610107" lon="11.6716923"><ele>110.85714285714285</ele><time>2026-04-25T08:15:44.066Z</time></trkpt><trkpt lat="44.2609509" lon="11.6716491"><ele>111.71428571428572</ele><time>2026-04-25T08:15:47.018Z</time></trkpt><trkpt lat="44.2608871" lon="11.6716095"><ele>112.57142857142858</ele><time>2026-04-25T08:15:50.103Z</time></trkpt><trkpt lat="44.2608251" lon="11.6715669"><ele>113.42857142857143</ele><time>2026-04-25T08:15:53.058Z</time></trkpt><trkpt lat="44.2607771" lon="11.6715022"><ele>114.28571428571429</ele><time>2026-04-25T08:15:56.093Z</time></trkpt><trkpt lat="44.2607317" lon="11.6714295"><ele>115.14285714285715</ele><time>2026-04-25T08:15:59.077Z</time></trkpt><trkpt lat="44.2606629" lon="11.6713909"><ele>116.00000000000001</ele><time>2026-04-25T08:16:02.1Z</time></trkpt><trkpt lat="44.2605992" lon="11.6713391"><ele>115.99999999999999</ele><time>2026-04-25T08:16:05.075Z</time></trkpt><trkpt lat="44.2605419" lon="11.6712686"><ele>116.0</ele><time>2026-04-25T08:16:08.085Z</time></trkpt><trkpt lat="44.2604818" lon="11.6711922"><ele>116.0</ele><time>2026-04-25T08:16:11.105Z</time></trkpt><trkpt lat="44.2604231" lon="11.6711261"><ele>116.0</ele><time>2026-04-25T08:16:14.002Z</time></trkpt><trkpt lat="44.2603551" lon="11.671059"><ele>115.99999999999999</ele><time>2026-04-25T08:16:17.139Z</time></trkpt><trkpt lat="44.2602903" lon="11.6709993"><ele>116.0</ele><time>2026-04-25T08:16:20.074Z</time></trkpt><trkpt lat="44.2602266" lon="11.6709478"><ele>117.49999999999999</ele><time>2026-04-25T08:16:23.067Z</time></trkpt><trkpt lat="44.2601627" lon="11.6708914"><ele>119.0</ele><time>2026-04-25T08:16:26.097Z</time></trkpt><trkpt lat="44.2601013" lon="11.6708367"><ele>120.5</ele><time>2026-04-25T08:16:29.088Z</time></trkpt><trkpt lat="44.2600307" lon="11.6707788"><ele>122.0</ele><time>2026-04-25T08:16:32.097Z</time></trkpt><trkpt lat="44.2599559" lon="11.6707146"><ele>123.49999999999999</ele><time>2026-04-25T08:16:35.418Z</time></trkpt><trkpt lat="44.259879" lon="11.6706385"><ele>125.0</ele><time>2026-04-25T08:16:38.579Z</time></trkpt><trkpt lat="44.2598312" lon="11.6705813"><ele>122.16666666666666</ele><time>2026-04-25T08:16:40.726Z</time></trkpt><trkpt lat="44.2597693" lon="11.6705028"><ele>119.33333333333333</ele><time>2026-04-25T08:16:43.956Z</time></trkpt><trkpt lat="44.2597203" lon="11.6704177"><ele>116.5</ele><time>2026-04-25T08:16:47.107Z</time></trkpt><trkpt lat="44.2596848" lon="11.6703193"><ele>113.66666666666666</ele><time>2026-04-25T08:16:50.083Z</time></trkpt><trkpt lat="44.2596575" lon="11.670218"><ele>110.83333333333333</ele><time>2026-04-25T08:16:53.072Z</time></trkpt><trkpt lat="44.2596419" lon="11.6701219"><ele>108.0</ele><time>2026-04-25T08:16:56.119Z</time></trkpt><trkpt lat="44.2596381" lon="11.670028"><ele>108.0</ele><time>2026-04-25T08:16:58.998Z</time></trkpt><trkpt lat="44.2596429" lon="11.6699307"><ele>108.0</ele><time>2026-04-25T08:17:02.056Z</time></trkpt><trkpt lat="44.2596656" lon="11.6698407"><ele>108.0</ele><time>2026-04-25T08:17:04.978Z</time></trkpt><trkpt lat="44.2596702" lon="11.6697516"><ele>108.0</ele><time>2026-04-25T08:17:11.103Z</time></trkpt><trkpt lat="44.2596669" lon="11.6696606"><ele>108.0</ele><time>2026-04-25T08:17:26.096Z</time></trkpt><trkpt lat="44.2596785" lon="11.6695713"><ele>108.0</ele><time>2026-04-25T08:17:31.105Z</time></trkpt><trkpt lat="44.2597107" lon="11.6694817"><ele>108.0</ele><time>2026-04-25T08:17:34.083Z</time></trkpt><trkpt lat="44.2597218" lon="11.6693792"><ele>107.5</ele><time>2026-04-25T08:17:37.02Z</time></trkpt><trkpt lat="44.2597364" lon="11.669272"><ele>107.0</ele><time>2026-04-25T08:17:40.117Z</time></trkpt><trkpt lat="44.2597486" lon="11.6691619"><ele>106.5</ele><time>2026-04-25T08:17:43.019Z</time></trkpt><trkpt lat="44.2597598" lon="11.6690486"><ele>106.0</ele><time>2026-04-25T08:17:46.069Z</time></trkpt><trkpt lat="44.2597695" lon="11.6689343"><ele>105.5</ele><time>2026-04-25T08:17:49.04Z</time></trkpt><trkpt lat="44.2597714" lon="11.6688333"><ele>105.0</ele><time>2026-04-25T08:17:52.088Z</time></trkpt><trkpt lat="44.2597705" lon="11.668727"><ele>105.0</ele><time>2026-04-25T08:17:55.071Z</time></trkpt><trkpt lat="44.2597579" lon="11.6686201"><ele>105.0</ele><time>2026-04-25T08:17:58.07Z</time></trkpt><trkpt lat="44.2597359" lon="11.6685104"><ele>105.0</ele><time>2026-04-25T08:18:01.103Z</time></trkpt><trkpt lat="44.2597175" lon="11.6684025"><ele>105.0</ele><time>2026-04-25T08:18:04.056Z</time></trkpt><trkpt lat="44.2596886" lon="11.6682967"><ele>105.0</ele><time>2026-04-25T08:18:07.109Z</time></trkpt><trkpt lat="44.2596657" lon="11.6681973"><ele>105.0</ele><time>2026-04-25T08:18:10.084Z</time></trkpt><trkpt lat="44.2596422" lon="11.6681038"><ele>105.85714285714286</ele><time>2026-04-25T08:18:13.065Z</time></trkpt><trkpt lat="44.2596157" lon="11.6680115"><ele>106.71428571428572</ele><time>2026-04-25T08:18:16.059Z</time></trkpt><trkpt lat="44.2595877" lon="11.667918"><ele>107.57142857142857</ele><time>2026-04-25T08:18:19.114Z</time></trkpt><trkpt lat="44.2595568" lon="11.6678305"><ele>108.42857142857143</ele><time>2026-04-25T08:18:21.998Z</time></trkpt><trkpt lat="44.2595203" lon="11.6677425"><ele>109.28571428571429</ele><time>2026-04-25T08:18:25.077Z</time></trkpt><trkpt lat="44.259493" lon="11.6676476"><ele>110.14285714285714</ele><time>2026-04-25T08:18:28.02Z</time></trkpt><trkpt lat="44.2594771" lon="11.667543"><ele>111.0</ele><time>2026-04-25T08:18:31.074Z</time></trkpt><trkpt lat="44.2594574" lon="11.6674435"><ele>112.14285714285714</ele><time>2026-04-25T08:18:34.001Z</time></trkpt><trkpt lat="44.2594274" lon="11.6673472"><ele>113.28571428571429</ele><time>2026-04-25T08:18:37.1Z</time></trkpt><trkpt lat="44.2594008" lon="11.6672595"><ele>114.42857142857143</ele><time>2026-04-25T08:18:40.057Z</time></trkpt><trkpt lat="44.2593754" lon="11.667171"><ele>115.57142857142857</ele><time>2026-04-25T08:18:43.04Z</time></trkpt><trkpt lat="44.2593456" lon="11.667079"><ele>116.71428571428572</ele><time>2026-04-25T08:18:46.101Z</time></trkpt><trkpt lat="44.2593187" lon="11.6669855"><ele>117.85714285714286</ele><time>2026-04-25T08:18:49.071Z</time></trkpt><trkpt lat="44.259286" lon="11.6668882"><ele>119.0</ele><time>2026-04-25T08:18:52.1Z</time></trkpt><trkpt lat="44.2592559" lon="11.6667965"><ele>119.33333333333333</ele><time>2026-04-25T08:18:55.021Z</time></trkpt><trkpt lat="44.2592292" lon="11.6666889"><ele>119.66666666666666</ele><time>2026-04-25T08:18:58.089Z</time></trkpt><trkpt lat="44.259203" lon="11.6665818"><ele>120.0</ele><time>2026-04-25T08:19:01.099Z</time></trkpt><trkpt lat="44.259169" lon="11.6664802"><ele>120.33333333333334</ele><time>2026-04-25T08:19:04.066Z</time></trkpt><trkpt lat="44.2591342" lon="11.6663701"><ele>120.66666666666667</ele><time>2026-04-25T08:19:07.068Z</time></trkpt><trkpt lat="44.2591061" lon="11.6662557"><ele>121.0</ele><time>2026-04-25T08:19:10.083Z</time></trkpt><trkpt lat="44.2590772" lon="11.6661403"><ele>121.50000000000001</ele><time>2026-04-25T08:19:13.119Z</time></trkpt><trkpt lat="44.2590552" lon="11.6660333"><ele>122.0</ele><time>2026-04-25T08:19:16.066Z</time></trkpt><trkpt lat="44.2590326" lon="11.665929"><ele>122.5</ele><time>2026-04-25T08:19:19.119Z</time></trkpt><trkpt lat="44.2590091" lon="11.6658255"><ele>123.0</ele><time>2026-04-25T08:19:22.059Z</time></trkpt><trkpt lat="44.2589854" lon="11.6657088"><ele>123.50000000000001</ele><time>2026-04-25T08:19:25.111Z</time></trkpt><trkpt lat="44.2589624" lon="11.6656002"><ele>124.0</ele><time>2026-04-25T08:19:27.976Z</time></trkpt><trkpt lat="44.2589472" lon="11.6654795"><ele>121.50000000000001</ele><time>2026-04-25T08:19:31.134Z</time></trkpt><trkpt lat="44.2589417" lon="11.6653694"><ele>119.0</ele><time>2026-04-25T08:19:34.073Z</time></trkpt><trkpt lat="44.2589376" lon="11.6652537"><ele>116.5</ele><time>2026-04-25T08:19:37.076Z</time></trkpt><trkpt lat="44.2589285" lon="11.6651318"><ele>114.0</ele><time>2026-04-25T08:19:40.092Z</time></trkpt><trkpt lat="44.25893" lon="11.6650092"><ele>111.50000000000001</ele><time>2026-04-25T08:19:43.083Z</time></trkpt><trkpt lat="44.2589315" lon="11.6648849"><ele>109.0</ele><time>2026-04-25T08:19:46.072Z</time></trkpt><trkpt lat="44.2589282" lon="11.6647684"><ele>109.16666666666667</ele><time>2026-04-25T08:19:49.064Z</time></trkpt><trkpt lat="44.2589216" lon="11.6646519"><ele>109.33333333333334</ele><time>2026-04-25T08:19:52.083Z</time></trkpt><trkpt lat="44.2589236" lon="11.6645362"><ele>109.5</ele><time>2026-04-25T08:19:55.077Z</time></trkpt><trkpt lat="44.2589249" lon="11.6644085"><ele>109.66666666666666</ele><time>2026-04-25T08:19:58.099Z</time></trkpt><trkpt lat="44.2589245" lon="11.6642943"><ele>109.83333333333333</ele><time>2026-04-25T08:20:01.078Z</time></trkpt><trkpt lat="44.2589228" lon="11.6641865"><ele>110.0</ele><time>2026-04-25T08:20:04.086Z</time></trkpt><trkpt lat="44.2589228" lon="11.6640795"><ele>109.99999999999999</ele><time>2026-04-25T08:20:07.046Z</time></trkpt><trkpt lat="44.2589226" lon="11.6639641"><ele>110.0</ele><time>2026-04-25T08:20:10.079Z</time></trkpt><trkpt lat="44.2589283" lon="11.663846"><ele>110.0</ele><time>2026-04-25T08:20:13.022Z</time></trkpt><trkpt lat="44.2589364" lon="11.6637213"><ele>110.0</ele><time>2026-04-25T08:20:16.085Z</time></trkpt><trkpt lat="44.2589335" lon="11.6635985"><ele>109.99999999999999</ele><time>2026-04-25T08:20:19.043Z</time></trkpt><trkpt lat="44.2589248" lon="11.6634719"><ele>110.0</ele><time>2026-04-25T08:20:22.074Z</time></trkpt><trkpt lat="44.2589139" lon="11.6633495"><ele>110.33333333333333</ele><time>2026-04-25T08:20:25.021Z</time></trkpt><trkpt lat="44.2589049" lon="11.6632607"><ele>110.66666666666666</ele><time>2026-04-25T08:20:27.081Z</time></trkpt><trkpt lat="44.2588884" lon="11.6631469"><ele>111.0</ele><time>2026-04-25T08:20:30.072Z</time></trkpt><trkpt lat="44.2588721" lon="11.6630366"><ele>111.33333333333334</ele><time>2026-04-25T08:20:33.129Z</time></trkpt><trkpt lat="44.258848" lon="11.6629362"><ele>111.66666666666667</ele><time>2026-04-25T08:20:36.096Z</time></trkpt><trkpt lat="44.2588194" lon="11.6628346"><ele>112.0</ele><time>2026-04-25T08:20:39.108Z</time></trkpt><trkpt lat="44.2587925" lon="11.6627335"><ele>112.66666666666667</ele><time>2026-04-25T08:20:42.025Z</time></trkpt><trkpt lat="44.2587613" lon="11.6626366"><ele>113.33333333333334</ele><time>2026-04-25T08:20:45.129Z</time></trkpt><trkpt lat="44.2587281" lon="11.6625416"><ele>114.0</ele><time>2026-04-25T08:20:48.059Z</time></trkpt><trkpt lat="44.2586941" lon="11.6624308"><ele>114.66666666666666</ele><time>2026-04-25T08:20:51.104Z</time></trkpt><trkpt lat="44.2586664" lon="11.6623294"><ele>115.33333333333333</ele><time>2026-04-25T08:20:54.001Z</time></trkpt><trkpt lat="44.2586359" lon="11.6622409"><ele>116.0</ele><time>2026-04-25T08:20:57.093Z</time></trkpt><trkpt lat="44.2586018" lon="11.6621579"><ele>116.00000000000001</ele><time>2026-04-25T08:21:00.049Z</time></trkpt><trkpt lat="44.2585624" lon="11.6620777"><ele>116.0</ele><time>2026-04-25T08:21:03.056Z</time></trkpt><trkpt lat="44.2585308" lon="11.661993"><ele>116.00000000000001</ele><time>2026-04-25T08:21:06.083Z</time></trkpt><trkpt lat="44.258496" lon="11.6619128"><ele>116.00000000000001</ele><time>2026-04-25T08:21:09.103Z</time></trkpt><trkpt lat="44.258435" lon="11.6618462"><ele>116.0</ele><time>2026-04-25T08:21:11.998Z</time></trkpt><trkpt lat="44.2583759" lon="11.6617831"><ele>116.00000000000001</ele><time>2026-04-25T08:21:15.111Z</time></trkpt><trkpt lat="44.2583186" lon="11.6617262"><ele>116.00000000000001</ele><time>2026-04-25T08:21:18Z</time></trkpt><trkpt lat="44.2582629" lon="11.6616559"><ele>115.57142857142858</ele><time>2026-04-25T08:21:21.109Z</time></trkpt><trkpt lat="44.2582077" lon="11.6615977"><ele>115.14285714285714</ele><time>2026-04-25T08:21:24.064Z</time></trkpt><trkpt lat="44.2581584" lon="11.6615324"><ele>114.71428571428572</ele><time>2026-04-25T08:21:27.096Z</time></trkpt><trkpt lat="44.2581156" lon="11.661464"><ele>114.28571428571429</ele><time>2026-04-25T08:21:30.043Z</time></trkpt><trkpt lat="44.258061" lon="11.6614069"><ele>113.85714285714286</ele><time>2026-04-25T08:21:33.074Z</time></trkpt><trkpt lat="44.2579969" lon="11.661361"><ele>113.42857142857143</ele><time>2026-04-25T08:21:36.092Z</time></trkpt><trkpt lat="44.2579288" lon="11.6613039"><ele>113.0</ele><time>2026-04-25T08:21:40.002Z</time></trkpt><trkpt lat="44.2578562" lon="11.6612548"><ele>113.0</ele><time>2026-04-25T08:21:43.961Z</time></trkpt><trkpt lat="44.2577751" lon="11.6612257"><ele>113.0</ele><time>2026-04-25T08:21:48.074Z</time></trkpt><trkpt lat="44.2577163" lon="11.6611928"><ele>113.0</ele><time>2026-04-25T08:21:51.093Z</time></trkpt><trkpt lat="44.2576653" lon="11.6611379"><ele>113.0</ele><time>2026-04-25T08:21:54.08Z</time></trkpt><trkpt lat="44.257623" lon="11.6610717"><ele>113.0</ele><time>2026-04-25T08:21:57.109Z</time></trkpt><trkpt lat="44.2575755" lon="11.6610128"><ele>113.0</ele><time>2026-04-25T08:21:59.999Z</time></trkpt><trkpt lat="44.2575172" lon="11.6609548"><ele>113.0</ele><time>2026-04-25T08:22:03.062Z</time></trkpt><trkpt lat="44.2574635" lon="11.6608914"><ele>113.42857142857143</ele><time>2026-04-25T08:22:06.079Z</time></trkpt><trkpt lat="44.2574094" lon="11.6608345"><ele>113.85714285714286</ele><time>2026-04-25T08:22:08.98Z</time></trkpt><trkpt lat="44.2573495" lon="11.6607761"><ele>114.28571428571429</ele><time>2026-04-25T08:22:12.087Z</time></trkpt><trkpt lat="44.2573002" lon="11.6607142"><ele>114.71428571428572</ele><time>2026-04-25T08:22:15.017Z</time></trkpt><trkpt lat="44.2572534" lon="11.660639"><ele>115.14285714285714</ele><time>2026-04-25T08:22:18.074Z</time></trkpt><trkpt lat="44.2572031" lon="11.660564"><ele>115.57142857142858</ele><time>2026-04-25T08:22:21.061Z</time></trkpt><trkpt lat="44.2571516" lon="11.660496"><ele>116.00000000000001</ele><time>2026-04-25T08:22:24.062Z</time></trkpt><trkpt lat="44.2570957" lon="11.6604294"><ele>116.00000000000001</ele><time>2026-04-25T08:22:27.12Z</time></trkpt><trkpt lat="44.2570475" lon="11.6603695"><ele>116.0</ele><time>2026-04-25T08:22:30.001Z</time></trkpt><trkpt lat="44.2569902" lon="11.660286"><ele>116.00000000000001</ele><time>2026-04-25T08:22:34.066Z</time></trkpt><trkpt lat="44.2569364" lon="11.6602209"><ele>116.00000000000001</ele><time>2026-04-25T08:22:37.123Z</time></trkpt><trkpt lat="44.2568874" lon="11.6601586"><ele>116.0</ele><time>2026-04-25T08:22:40.079Z</time></trkpt><trkpt lat="44.2568345" lon="11.6600901"><ele>116.00000000000001</ele><time>2026-04-25T08:22:43.096Z</time></trkpt><trkpt lat="44.2567769" lon="11.6600232"><ele>116.00000000000001</ele><time>2026-04-25T08:22:46.064Z</time></trkpt><trkpt lat="44.2567186" lon="11.6599618"><ele>116.85714285714288</ele><time>2026-04-25T08:22:49.061Z</time></trkpt><trkpt lat="44.2566589" lon="11.6598986"><ele>117.71428571428572</ele><time>2026-04-25T08:22:52.116Z</time></trkpt><trkpt lat="44.2566045" lon="11.6598384"><ele>118.57142857142857</ele><time>2026-04-25T08:22:55.11Z</time></trkpt><trkpt lat="44.2565452" lon="11.6597832"><ele>119.42857142857143</ele><time>2026-04-25T08:22:58.102Z</time></trkpt><trkpt lat="44.2564918" lon="11.6597195"><ele>120.28571428571428</ele><time>2026-04-25T08:23:01.021Z</time></trkpt><trkpt lat="44.256439" lon="11.6596491"><ele>121.14285714285712</ele><time>2026-04-25T08:23:04.073Z</time></trkpt><trkpt lat="44.2563828" lon="11.6595854"><ele>121.99999999999999</ele><time>2026-04-25T08:23:07.109Z</time></trkpt><trkpt lat="44.2563232" lon="11.6595292"><ele>121.99999999999999</ele><time>2026-04-25T08:23:10.098Z</time></trkpt><trkpt lat="44.2562639" lon="11.6594701"><ele>122.0</ele><time>2026-04-25T08:23:13.105Z</time></trkpt><trkpt lat="44.2562099" lon="11.6594172"><ele>121.99999999999999</ele><time>2026-04-25T08:23:16.038Z</time></trkpt><trkpt lat="44.2561572" lon="11.6593521"><ele>121.99999999999999</ele><time>2026-04-25T08:23:19.064Z</time></trkpt><trkpt lat="44.2560966" lon="11.6592839"><ele>122.0</ele><time>2026-04-25T08:23:22.123Z</time></trkpt><trkpt lat="44.256042" lon="11.6592092"><ele>121.99999999999999</ele><time>2026-04-25T08:23:25.08Z</time></trkpt><trkpt lat="44.2559831" lon="11.6591359"><ele>121.99999999999999</ele><time>2026-04-25T08:23:28.172Z</time></trkpt><trkpt lat="44.2559163" lon="11.6590656"><ele>122.49999999999999</ele><time>2026-04-25T08:23:31.381Z</time></trkpt><trkpt lat="44.2558506" lon="11.6589989"><ele>123.0</ele><time>2026-04-25T08:23:34.576Z</time></trkpt><trkpt lat="44.2557763" lon="11.6589393"><ele>123.5</ele><time>2026-04-25T08:23:37.798Z</time></trkpt><trkpt lat="44.2557086" lon="11.6588672"><ele>124.0</ele><time>2026-04-25T08:23:40.997Z</time></trkpt><trkpt lat="44.2556487" lon="11.658787"><ele>124.49999999999999</ele><time>2026-04-25T08:23:44.195Z</time></trkpt><trkpt lat="44.2555911" lon="11.6587249"><ele>125.0</ele><time>2026-04-25T08:23:47.039Z</time></trkpt><trkpt lat="44.2555363" lon="11.6586664"><ele>127.14285714285714</ele><time>2026-04-25T08:23:50.1Z</time></trkpt><trkpt lat="44.2554778" lon="11.6586051"><ele>129.28571428571428</ele><time>2026-04-25T08:23:53.112Z</time></trkpt><trkpt lat="44.2554156" lon="11.6585429"><ele>131.42857142857144</ele><time>2026-04-25T08:23:56.076Z</time></trkpt><trkpt lat="44.2553674" lon="11.6584605"><ele>133.57142857142856</ele><time>2026-04-25T08:23:59.101Z</time></trkpt><trkpt lat="44.2553113" lon="11.658395"><ele>135.71428571428572</ele><time>2026-04-25T08:24:02.089Z</time></trkpt><trkpt lat="44.2552524" lon="11.6583371"><ele>137.85714285714286</ele><time>2026-04-25T08:24:05.061Z</time></trkpt><trkpt lat="44.2551941" lon="11.6582769"><ele>140.0</ele><time>2026-04-25T08:24:08.069Z</time></trkpt><trkpt lat="44.2551358" lon="11.6582167"><ele>140.0</ele><time>2026-04-25T08:24:11.091Z</time></trkpt><trkpt lat="44.2550794" lon="11.6581549"><ele>140.0</ele><time>2026-04-25T08:24:14.035Z</time></trkpt><trkpt lat="44.2550213" lon="11.6581046"><ele>140.0</ele><time>2026-04-25T08:24:17.061Z</time></trkpt><trkpt lat="44.2549556" lon="11.6580666"><ele>140.0</ele><time>2026-04-25T08:24:20.078Z</time></trkpt><trkpt lat="44.2548841" lon="11.6580311"><ele>140.0</ele><time>2026-04-25T08:24:23.088Z</time></trkpt><trkpt lat="44.2548136" lon="11.6579813"><ele>140.0</ele><time>2026-04-25T08:24:26.041Z</time></trkpt><trkpt lat="44.2547458" lon="11.6579394"><ele>140.0</ele><time>2026-04-25T08:24:28.996Z</time></trkpt><trkpt lat="44.2546807" lon="11.6579047"><ele>140.83333333333331</ele><time>2026-04-25T08:24:32.055Z</time></trkpt><trkpt lat="44.2546156" lon="11.6578618"><ele>141.66666666666666</ele><time>2026-04-25T08:24:35.101Z</time></trkpt><trkpt lat="44.2545543" lon="11.6578169"><ele>142.5</ele><time>2026-04-25T08:24:38.069Z</time></trkpt><trkpt lat="44.2544831" lon="11.6577821"><ele>143.33333333333334</ele><time>2026-04-25T08:24:41.144Z</time></trkpt><trkpt lat="44.2544117" lon="11.6577372"><ele>144.16666666666669</ele><time>2026-04-25T08:24:44.085Z</time></trkpt><trkpt lat="44.2543343" lon="11.6577095"><ele>145.0</ele><time>2026-04-25T08:24:47.079Z</time></trkpt><trkpt lat="44.2542583" lon="11.6576731"><ele>145.0</ele><time>2026-04-25T08:24:50.043Z</time></trkpt><trkpt lat="44.2541854" lon="11.6576361"><ele>145.0</ele><time>2026-04-25T08:24:53.088Z</time></trkpt><trkpt lat="44.2541174" lon="11.6576002"><ele>145.0</ele><time>2026-04-25T08:24:56.16Z</time></trkpt><trkpt lat="44.2540598" lon="11.6575605"><ele>145.0</ele><time>2026-04-25T08:24:59.061Z</time></trkpt><trkpt lat="44.2539989" lon="11.6575338"><ele>145.0</ele><time>2026-04-25T08:25:02.085Z</time></trkpt><trkpt lat="44.2539386" lon="11.6575017"><ele>145.0</ele><time>2026-04-25T08:25:05.075Z</time></trkpt><trkpt lat="44.2538781" lon="11.6574651"><ele>145.0</ele><time>2026-04-25T08:25:08.015Z</time></trkpt><trkpt lat="44.2538098" lon="11.6574276"><ele>144.0</ele><time>2026-04-25T08:25:11.084Z</time></trkpt><trkpt lat="44.2537397" lon="11.6573911"><ele>143.0</ele><time>2026-04-25T08:25:14.098Z</time></trkpt><trkpt lat="44.2536721" lon="11.6573593"><ele>142.0</ele><time>2026-04-25T08:25:17.073Z</time></trkpt><trkpt lat="44.2536082" lon="11.6573252"><ele>141.0</ele><time>2026-04-25T08:25:20.058Z</time></trkpt><trkpt lat="44.2535498" lon="11.6572878"><ele>140.0</ele><time>2026-04-25T08:25:23.102Z</time></trkpt><trkpt lat="44.2534721" lon="11.6572488"><ele>139.0</ele><time>2026-04-25T08:25:27.097Z</time></trkpt><trkpt lat="44.2534109" lon="11.6572132"><ele>138.0</ele><time>2026-04-25T08:25:30.077Z</time></trkpt><trkpt lat="44.2533475" lon="11.6571865"><ele>138.0</ele><time>2026-04-25T08:25:33.134Z</time></trkpt><trkpt lat="44.2532643" lon="11.657163"><ele>138.0</ele><time>2026-04-25T08:25:37.098Z</time></trkpt><trkpt lat="44.2531958" lon="11.6571442"><ele>138.0</ele><time>2026-04-25T08:25:40.084Z</time></trkpt><trkpt lat="44.2531269" lon="11.6571251"><ele>138.0</ele><time>2026-04-25T08:25:43.096Z</time></trkpt><trkpt lat="44.2530503" lon="11.6571112"><ele>138.0</ele><time>2026-04-25T08:25:46.064Z</time></trkpt><trkpt lat="44.2529741" lon="11.6571041"><ele>138.0</ele><time>2026-04-25T08:25:49.07Z</time></trkpt><trkpt lat="44.2528968" lon="11.6570964"><ele>137.71428571428572</ele><time>2026-04-25T08:25:52.088Z</time></trkpt><trkpt lat="44.2528254" lon="11.6570908"><ele>137.42857142857144</ele><time>2026-04-25T08:25:55.153Z</time></trkpt><trkpt lat="44.2527561" lon="11.657102"><ele>137.14285714285714</ele><time>2026-04-25T08:25:58.071Z</time></trkpt><trkpt lat="44.2526782" lon="11.6571092"><ele>136.85714285714286</ele><time>2026-04-25T08:26:01.075Z</time></trkpt><trkpt lat="44.252613" lon="11.6571235"><ele>136.57142857142856</ele><time>2026-04-25T08:26:03.723Z</time></trkpt><trkpt lat="44.2525332" lon="11.6571343"><ele>136.28571428571428</ele><time>2026-04-25T08:26:07.107Z</time></trkpt><trkpt lat="44.2524631" lon="11.6571439"><ele>136.0</ele><time>2026-04-25T08:26:10.069Z</time></trkpt><trkpt lat="44.2523878" lon="11.6571521"><ele>135.99999999999997</ele><time>2026-04-25T08:26:13.1Z</time></trkpt><trkpt lat="44.2523211" lon="11.6571704"><ele>136.0</ele><time>2026-04-25T08:26:16.099Z</time></trkpt><trkpt lat="44.2522569" lon="11.6571817"><ele>136.0</ele><time>2026-04-25T08:26:19.02Z</time></trkpt><trkpt lat="44.2521893" lon="11.6571974"><ele>136.0</ele><time>2026-04-25T08:26:22.074Z</time></trkpt><trkpt lat="44.2521211" lon="11.6572132"><ele>136.0</ele><time>2026-04-25T08:26:25.079Z</time></trkpt><trkpt lat="44.2520514" lon="11.6572168"><ele>135.99999999999997</ele><time>2026-04-25T08:26:28.063Z</time></trkpt><trkpt lat="44.251974" lon="11.6572202"><ele>136.0</ele><time>2026-04-25T08:26:31.077Z</time></trkpt><trkpt lat="44.251895" lon="11.6572122"><ele>135.5</ele><time>2026-04-25T08:26:34.031Z</time></trkpt><trkpt lat="44.2518094" lon="11.6572147"><ele>135.0</ele><time>2026-04-25T08:26:37.07Z</time></trkpt><trkpt lat="44.2517351" lon="11.6572209"><ele>134.5</ele><time>2026-04-25T08:26:40.06Z</time></trkpt><trkpt lat="44.2516601" lon="11.6572199"><ele>134.0</ele><time>2026-04-25T08:26:43.063Z</time></trkpt><trkpt lat="44.2515789" lon="11.657223"><ele>133.5</ele><time>2026-04-25T08:26:46.121Z</time></trkpt><trkpt lat="44.2514943" lon="11.6572267"><ele>133.0</ele><time>2026-04-25T08:26:49.073Z</time></trkpt><trkpt lat="44.2514063" lon="11.6572219"><ele>132.0</ele><time>2026-04-25T08:26:52.07Z</time></trkpt><trkpt lat="44.2513176" lon="11.6572167"><ele>131.0</ele><time>2026-04-25T08:26:55.099Z</time></trkpt><trkpt lat="44.2512361" lon="11.6572126"><ele>130.0</ele><time>2026-04-25T08:26:58.078Z</time></trkpt><trkpt lat="44.2511586" lon="11.657203"><ele>129.0</ele><time>2026-04-25T08:27:01.071Z</time></trkpt><trkpt lat="44.2510798" lon="11.6572099"><ele>128.0</ele><time>2026-04-25T08:27:04.102Z</time></trkpt><trkpt lat="44.2510061" lon="11.6572164"><ele>127.0</ele><time>2026-04-25T08:27:07.105Z</time></trkpt><trkpt lat="44.2509209" lon="11.6572175"><ele>127.00000000000001</ele><time>2026-04-25T08:27:10.175Z</time></trkpt><trkpt lat="44.2508422" lon="11.6572153"><ele>127.0</ele><time>2026-04-25T08:27:13.317Z</time></trkpt><trkpt lat="44.2507585" lon="11.6571933"><ele>127.0</ele><time>2026-04-25T08:27:16.496Z</time></trkpt><trkpt lat="44.2506734" lon="11.6571668"><ele>127.0</ele><time>2026-04-25T08:27:19.674Z</time></trkpt><trkpt lat="44.2505906" lon="11.6571298"><ele>127.00000000000001</ele><time>2026-04-25T08:27:22.906Z</time></trkpt><trkpt lat="44.2505147" lon="11.6570788"><ele>127.0</ele><time>2026-04-25T08:27:26.103Z</time></trkpt><trkpt lat="44.2504519" lon="11.6570317"><ele>125.66666666666667</ele><time>2026-04-25T08:27:29.094Z</time></trkpt><trkpt lat="44.2503876" lon="11.6569776"><ele>124.33333333333334</ele><time>2026-04-25T08:27:32.074Z</time></trkpt><trkpt lat="44.2503188" lon="11.656929"><ele>123.0</ele><time>2026-04-25T08:27:35.048Z</time></trkpt><trkpt lat="44.250252" lon="11.6568652"><ele>121.66666666666666</ele><time>2026-04-25T08:27:38.055Z</time></trkpt><trkpt lat="44.2501833" lon="11.6568019"><ele>120.33333333333333</ele><time>2026-04-25T08:27:41.103Z</time></trkpt><trkpt lat="44.250113" lon="11.6567337"><ele>119.0</ele><time>2026-04-25T08:27:44.091Z</time></trkpt><trkpt lat="44.2500467" lon="11.6566619"><ele>118.99999999999999</ele><time>2026-04-25T08:27:47.101Z</time></trkpt><trkpt lat="44.2499791" lon="11.6566024"><ele>119.0</ele><time>2026-04-25T08:27:50.127Z</time></trkpt><trkpt lat="44.2499158" lon="11.6565528"><ele>119.0</ele><time>2026-04-25T08:27:53.122Z</time></trkpt><trkpt lat="44.2498568" lon="11.656488"><ele>119.0</ele><time>2026-04-25T08:27:56.108Z</time></trkpt><trkpt lat="44.2497943" lon="11.6564224"><ele>118.99999999999999</ele><time>2026-04-25T08:27:59.075Z</time></trkpt><trkpt lat="44.2497274" lon="11.6563586"><ele>119.0</ele><time>2026-04-25T08:28:02.079Z</time></trkpt><trkpt lat="44.2496631" lon="11.6562988"><ele>118.42857142857143</ele><time>2026-04-25T08:28:05.095Z</time></trkpt><trkpt lat="44.2496058" lon="11.6562365"><ele>117.85714285714286</ele><time>2026-04-25T08:28:08.079Z</time></trkpt><trkpt lat="44.2495451" lon="11.6561722"><ele>117.28571428571428</ele><time>2026-04-25T08:28:11.103Z</time></trkpt><trkpt lat="44.2494828" lon="11.6561088"><ele>116.71428571428571</ele><time>2026-04-25T08:28:14.12Z</time></trkpt><trkpt lat="44.2494208" lon="11.6560499"><ele>116.14285714285714</ele><time>2026-04-25T08:28:17.075Z</time></trkpt><trkpt lat="44.2493609" lon="11.6559903"><ele>115.57142857142856</ele><time>2026-04-25T08:28:20.101Z</time></trkpt><trkpt lat="44.2493093" lon="11.655923"><ele>114.99999999999999</ele><time>2026-04-25T08:28:23.084Z</time></trkpt><trkpt lat="44.2492494" lon="11.6558733"><ele>117.57142857142856</ele><time>2026-04-25T08:28:26.075Z</time></trkpt><trkpt lat="44.2491942" lon="11.6558139"><ele>120.14285714285714</ele><time>2026-04-25T08:28:29.004Z</time></trkpt><trkpt lat="44.2491273" lon="11.6557639"><ele>122.71428571428571</ele><time>2026-04-25T08:28:32.075Z</time></trkpt><trkpt lat="44.2490677" lon="11.6557138"><ele>125.28571428571428</ele><time>2026-04-25T08:28:35.018Z</time></trkpt><trkpt lat="44.2490249" lon="11.6556377"><ele>127.85714285714286</ele><time>2026-04-25T08:28:38.108Z</time></trkpt><trkpt lat="44.2489801" lon="11.6555682"><ele>130.42857142857142</ele><time>2026-04-25T08:28:41.04Z</time></trkpt><trkpt lat="44.2489483" lon="11.6554781"><ele>133.0</ele><time>2026-04-25T08:28:44.079Z</time></trkpt><trkpt lat="44.2489187" lon="11.6553969"><ele>134.0</ele><time>2026-04-25T08:28:47.076Z</time></trkpt><trkpt lat="44.2488957" lon="11.6553145"><ele>135.0</ele><time>2026-04-25T08:28:50.107Z</time></trkpt><trkpt lat="44.2488746" lon="11.6552049"><ele>136.0</ele><time>2026-04-25T08:28:54.084Z</time></trkpt><trkpt lat="44.2488749" lon="11.6551132"><ele>137.0</ele><time>2026-04-25T08:28:57.064Z</time></trkpt><trkpt lat="44.2488772" lon="11.6549989"><ele>138.0</ele><time>2026-04-25T08:29:01.086Z</time></trkpt><trkpt lat="44.2488784" lon="11.6549105"><ele>139.0</ele><time>2026-04-25T08:29:04.085Z</time></trkpt><trkpt lat="44.2488809" lon="11.6548091"><ele>140.0</ele><time>2026-04-25T08:29:07.102Z</time></trkpt><trkpt lat="44.248889" lon="11.6547213"><ele>142.16666666666666</ele><time>2026-04-25T08:29:10.004Z</time></trkpt><trkpt lat="44.2488939" lon="11.654611"><ele>144.33333333333331</ele><time>2026-04-25T08:29:14.071Z</time></trkpt><trkpt lat="44.2488929" lon="11.6544935"><ele>146.5</ele><time>2026-04-25T08:29:18.073Z</time></trkpt><trkpt lat="44.2489091" lon="11.654398"><ele>148.66666666666666</ele><time>2026-04-25T08:29:21.04Z</time></trkpt><trkpt lat="44.2489223" lon="11.6542839"><ele>150.83333333333334</ele><time>2026-04-25T08:29:24.998Z</time></trkpt><trkpt lat="44.2489057" lon="11.6541704"><ele>153.0</ele><time>2026-04-25T08:29:29.105Z</time></trkpt><trkpt lat="44.2488789" lon="11.6540866"><ele>153.14285714285714</ele><time>2026-04-25T08:29:32.107Z</time></trkpt><trkpt lat="44.2488907" lon="11.6539936"><ele>153.28571428571428</ele><time>2026-04-25T08:29:35.099Z</time></trkpt><trkpt lat="44.2488836" lon="11.6538738"><ele>153.42857142857144</ele><time>2026-04-25T08:29:39.085Z</time></trkpt><trkpt lat="44.2488848" lon="11.6537744"><ele>153.57142857142856</ele><time>2026-04-25T08:29:42.072Z</time></trkpt><trkpt lat="44.2488891" lon="11.6536803"><ele>153.71428571428572</ele><time>2026-04-25T08:29:45.116Z</time></trkpt><trkpt lat="44.2488927" lon="11.6535889"><ele>153.85714285714286</ele><time>2026-04-25T08:29:48.083Z</time></trkpt><trkpt lat="44.2488876" lon="11.6534745"><ele>154.0</ele><time>2026-04-25T08:29:52.02Z</time></trkpt><trkpt lat="44.2488908" lon="11.6533825"><ele>154.0</ele><time>2026-04-25T08:29:55.115Z</time></trkpt><trkpt lat="44.2488863" lon="11.6532885"><ele>154.0</ele><time>2026-04-25T08:29:58.099Z</time></trkpt><trkpt lat="44.2488809" lon="11.6531961"><ele>154.0</ele><time>2026-04-25T08:30:01.091Z</time></trkpt><trkpt lat="44.248884" lon="11.6531008"><ele>154.0</ele><time>2026-04-25T08:30:04.101Z</time></trkpt><trkpt lat="44.248887" lon="11.6529994"><ele>154.0</ele><time>2026-04-25T08:30:07.076Z</time></trkpt><trkpt lat="44.2488885" lon="11.6529046"><ele>154.0</ele><time>2026-04-25T08:30:10.073Z</time></trkpt><trkpt lat="44.248893" lon="11.6527907"><ele>154.0</ele><time>2026-04-25T08:30:14.081Z</time></trkpt><trkpt lat="44.2488882" lon="11.6526921"><ele>154.71428571428572</ele><time>2026-04-25T08:30:17.124Z</time></trkpt><trkpt lat="44.248871" lon="11.6526019"><ele>155.42857142857144</ele><time>2026-04-25T08:30:20.116Z</time></trkpt><trkpt lat="44.2488483" lon="11.6525186"><ele>156.14285714285714</ele><time>2026-04-25T08:30:23.06Z</time></trkpt><trkpt lat="44.2488201" lon="11.6524358"><ele>156.85714285714286</ele><time>2026-04-25T08:30:26.104Z</time></trkpt><trkpt lat="44.2487849" lon="11.6523622"><ele>157.57142857142858</ele><time>2026-04-25T08:30:29.097Z</time></trkpt><trkpt lat="44.2487322" lon="11.6522722"><ele>158.28571428571428</ele><time>2026-04-25T08:30:33.122Z</time></trkpt><trkpt lat="44.2486818" lon="11.6521844"><ele>159.0</ele><time>2026-04-25T08:30:37.08Z</time></trkpt><trkpt lat="44.2486236" lon="11.6521056"><ele>159.0</ele><time>2026-04-25T08:30:41.078Z</time></trkpt><trkpt lat="44.248563" lon="11.6520446"><ele>159.0</ele><time>2026-04-25T08:30:45.07Z</time></trkpt><trkpt lat="44.248504" lon="11.6519844"><ele>159.0</ele><time>2026-04-25T08:30:49.078Z</time></trkpt><trkpt lat="44.2484443" lon="11.6519243"><ele>159.0</ele><time>2026-04-25T08:30:53.08Z</time></trkpt><trkpt lat="44.2483812" lon="11.6518665"><ele>159.0</ele><time>2026-04-25T08:30:57.046Z</time></trkpt><trkpt lat="44.2483282" lon="11.6518183"><ele>159.0</ele><time>2026-04-25T08:31:00.065Z</time></trkpt><trkpt lat="44.2482716" lon="11.6517715"><ele>159.0</ele><time>2026-04-25T08:31:03.124Z</time></trkpt><trkpt lat="44.2482162" lon="11.651714"><ele>159.28571428571428</ele><time>2026-04-25T08:31:06.077Z</time></trkpt><trkpt lat="44.2481619" lon="11.651662"><ele>159.57142857142858</ele><time>2026-04-25T08:31:09.101Z</time></trkpt><trkpt lat="44.2481038" lon="11.6516091"><ele>159.85714285714286</ele><time>2026-04-25T08:31:12.121Z</time></trkpt><trkpt lat="44.2480242" lon="11.6515639"><ele>160.14285714285714</ele><time>2026-04-25T08:31:16.116Z</time></trkpt><trkpt lat="44.2479655" lon="11.6515288"><ele>160.42857142857144</ele><time>2026-04-25T08:31:18.995Z</time></trkpt><trkpt lat="44.2479051" lon="11.6514879"><ele>160.71428571428572</ele><time>2026-04-25T08:31:22.095Z</time></trkpt><trkpt lat="44.247845" lon="11.6514431"><ele>161.0</ele><time>2026-04-25T08:31:25.103Z</time></trkpt><trkpt lat="44.2477702" lon="11.6513877"><ele>161.0</ele><time>2026-04-25T08:31:29.073Z</time></trkpt><trkpt lat="44.2477134" lon="11.6513427"><ele>161.0</ele><time>2026-04-25T08:31:32.072Z</time></trkpt><trkpt lat="44.2476559" lon="11.6512913"><ele>161.0</ele><time>2026-04-25T08:31:35.117Z</time></trkpt><trkpt lat="44.2475953" lon="11.6512409"><ele>161.0</ele><time>2026-04-25T08:31:38.06Z</time></trkpt><trkpt lat="44.2475355" lon="11.6511849"><ele>161.0</ele><time>2026-04-25T08:31:41.105Z</time></trkpt><trkpt lat="44.2474732" lon="11.6511387"><ele>161.0</ele><time>2026-04-25T08:31:44.121Z</time></trkpt><trkpt lat="44.2473998" lon="11.6510815"><ele>161.0</ele><time>2026-04-25T08:31:48.104Z</time></trkpt><trkpt lat="44.2473336" lon="11.6510228"><ele>161.5</ele><time>2026-04-25T08:31:52.074Z</time></trkpt><trkpt lat="44.2472666" lon="11.6509662"><ele>162.0</ele><time>2026-04-25T08:31:56.075Z</time></trkpt><trkpt lat="44.2472002" lon="11.6509066"><ele>162.5</ele><time>2026-04-25T08:32:00.003Z</time></trkpt><trkpt lat="44.2471429" lon="11.6508621"><ele>163.0</ele><time>2026-04-25T08:32:03.127Z</time></trkpt><trkpt lat="44.247069" lon="11.6508086"><ele>163.5</ele><time>2026-04-25T08:32:07.101Z</time></trkpt><trkpt lat="44.2469989" lon="11.6507543"><ele>164.0</ele><time>2026-04-25T08:32:11.107Z</time></trkpt><trkpt lat="44.2469288" lon="11.6506915"><ele>163.99999999999997</ele><time>2026-04-25T08:32:15.081Z</time></trkpt><trkpt lat="44.2468773" lon="11.6506344"><ele>164.0</ele><time>2026-04-25T08:32:18.068Z</time></trkpt><trkpt lat="44.246837" lon="11.6505544"><ele>164.0</ele><time>2026-04-25T08:32:21.095Z</time></trkpt><trkpt lat="44.2467775" lon="11.6505098"><ele>164.0</ele><time>2026-04-25T08:32:24.044Z</time></trkpt><trkpt lat="44.2467168" lon="11.6504741"><ele>164.0</ele><time>2026-04-25T08:32:27.079Z</time></trkpt><trkpt lat="44.2466495" lon="11.650453"><ele>163.99999999999997</ele><time>2026-04-25T08:32:30.096Z</time></trkpt><trkpt lat="44.2465969" lon="11.6503951"><ele>164.0</ele><time>2026-04-25T08:32:33.1Z</time></trkpt><trkpt lat="44.2465248" lon="11.6503286"><ele>164.14285714285714</ele><time>2026-04-25T08:32:37.126Z</time></trkpt><trkpt lat="44.2464624" lon="11.6502818"><ele>164.28571428571428</ele><time>2026-04-25T08:32:40.084Z</time></trkpt><trkpt lat="44.2463993" lon="11.6502306"><ele>164.42857142857144</ele><time>2026-04-25T08:32:43.112Z</time></trkpt><trkpt lat="44.2463436" lon="11.6501796"><ele>164.57142857142856</ele><time>2026-04-25T08:32:46.085Z</time></trkpt><trkpt lat="44.2462873" lon="11.6501228"><ele>164.71428571428572</ele><time>2026-04-25T08:32:49.074Z</time></trkpt><trkpt lat="44.2462228" lon="11.6500657"><ele>164.85714285714286</ele><time>2026-04-25T08:32:52.123Z</time></trkpt><trkpt lat="44.2461531" lon="11.6500093"><ele>165.0</ele><time>2026-04-25T08:32:55.058Z</time></trkpt><trkpt lat="44.2460824" lon="11.6499592"><ele>164.71428571428572</ele><time>2026-04-25T08:32:58.104Z</time></trkpt><trkpt lat="44.2460217" lon="11.6499103"><ele>164.42857142857144</ele><time>2026-04-25T08:33:01.108Z</time></trkpt><trkpt lat="44.2459626" lon="11.6498592"><ele>164.14285714285717</ele><time>2026-04-25T08:33:04.062Z</time></trkpt><trkpt lat="44.2459024" lon="11.6498033"><ele>163.85714285714286</ele><time>2026-04-25T08:33:07.085Z</time></trkpt><trkpt lat="44.2458403" lon="11.64975"><ele>163.57142857142856</ele><time>2026-04-25T08:33:10.084Z</time></trkpt><trkpt lat="44.2457824" lon="11.6496957"><ele>163.2857142857143</ele><time>2026-04-25T08:33:12.998Z</time></trkpt><trkpt lat="44.2457152" lon="11.6496418"><ele>163.0</ele><time>2026-04-25T08:33:16.106Z</time></trkpt><trkpt lat="44.2456554" lon="11.6495935"><ele>163.0</ele><time>2026-04-25T08:33:19.079Z</time></trkpt><trkpt lat="44.2456024" lon="11.6495413"><ele>163.0</ele><time>2026-04-25T08:33:22.067Z</time></trkpt><trkpt lat="44.24555" lon="11.6494823"><ele>163.0</ele><time>2026-04-25T08:33:25.095Z</time></trkpt><trkpt lat="44.2454989" lon="11.6494267"><ele>163.0</ele><time>2026-04-25T08:33:28.022Z</time></trkpt><trkpt lat="44.2454468" lon="11.6493689"><ele>163.0</ele><time>2026-04-25T08:33:30.899Z</time></trkpt><trkpt lat="44.245389" lon="11.6492967"><ele>163.0</ele><time>2026-04-25T08:33:34.11Z</time></trkpt><trkpt lat="44.2453378" lon="11.6492265"><ele>163.0</ele><time>2026-04-25T08:33:37.019Z</time></trkpt><trkpt lat="44.2452826" lon="11.649151"><ele>163.0</ele><time>2026-04-25T08:33:40.07Z</time></trkpt><trkpt lat="44.2452376" lon="11.6490734"><ele>163.0</ele><time>2026-04-25T08:33:43.083Z</time></trkpt><trkpt lat="44.2451973" lon="11.648993"><ele>163.0</ele><time>2026-04-25T08:33:46.066Z</time></trkpt><trkpt lat="44.2451551" lon="11.6489078"><ele>163.0</ele><time>2026-04-25T08:33:49.097Z</time></trkpt><trkpt lat="44.2451166" lon="11.6488113"><ele>163.0</ele><time>2026-04-25T08:33:52.093Z</time></trkpt><trkpt lat="44.2450836" lon="11.6487162"><ele>163.0</ele><time>2026-04-25T08:33:55.087Z</time></trkpt><trkpt lat="44.2450559" lon="11.6486255"><ele>163.0</ele><time>2026-04-25T08:33:58.088Z</time></trkpt><trkpt lat="44.2450275" lon="11.6485376"><ele>163.42857142857144</ele><time>2026-04-25T08:34:01.035Z</time></trkpt><trkpt lat="44.2450099" lon="11.6484486"><ele>163.85714285714283</ele><time>2026-04-25T08:34:04.115Z</time></trkpt><trkpt lat="44.2449904" lon="11.648335"><ele>164.28571428571428</ele><time>2026-04-25T08:34:08.069Z</time></trkpt><trkpt lat="44.2449687" lon="11.6482468"><ele>164.71428571428572</ele><time>2026-04-25T08:34:11.096Z</time></trkpt><trkpt lat="44.244957" lon="11.6481562"><ele>165.14285714285717</ele><time>2026-04-25T08:34:14.065Z</time></trkpt><trkpt lat="44.2449488" lon="11.6480601"><ele>165.57142857142856</ele><time>2026-04-25T08:34:17.094Z</time></trkpt><trkpt lat="44.2449383" lon="11.6479641"><ele>166.0</ele><time>2026-04-25T08:34:20.1Z</time></trkpt><trkpt lat="44.2449247" lon="11.6478779"><ele>166.28571428571428</ele><time>2026-04-25T08:34:23.003Z</time></trkpt><trkpt lat="44.244906" lon="11.6477926"><ele>166.57142857142858</ele><time>2026-04-25T08:34:26.079Z</time></trkpt><trkpt lat="44.2448949" lon="11.6477032"><ele>166.85714285714286</ele><time>2026-04-25T08:34:29.103Z</time></trkpt><trkpt lat="44.2448912" lon="11.6476134"><ele>167.14285714285714</ele><time>2026-04-25T08:34:32.022Z</time></trkpt><trkpt lat="44.2448857" lon="11.6475154"><ele>167.42857142857144</ele><time>2026-04-25T08:34:35.1Z</time></trkpt><trkpt lat="44.2448711" lon="11.6474267"><ele>167.71428571428572</ele><time>2026-04-25T08:34:38.067Z</time></trkpt><trkpt lat="44.244854" lon="11.6473354"><ele>168.0</ele><time>2026-04-25T08:34:41.07Z</time></trkpt><trkpt lat="44.2448315" lon="11.6472464"><ele>168.0</ele><time>2026-04-25T08:34:44.084Z</time></trkpt><trkpt lat="44.2448074" lon="11.6471511"><ele>168.0</ele><time>2026-04-25T08:34:47.046Z</time></trkpt><trkpt lat="44.2447821" lon="11.6470547"><ele>168.0</ele><time>2026-04-25T08:34:50.024Z</time></trkpt><trkpt lat="44.2447493" lon="11.646966"><ele>168.0</ele><time>2026-04-25T08:34:53.095Z</time></trkpt><trkpt lat="44.2447113" lon="11.6468869"><ele>168.0</ele><time>2026-04-25T08:34:56.092Z</time></trkpt><trkpt lat="44.2446731" lon="11.6468052"><ele>168.0</ele><time>2026-04-25T08:34:59.084Z</time></trkpt><trkpt lat="44.2446329" lon="11.6467193"><ele>168.0</ele><time>2026-04-25T08:35:02.069Z</time></trkpt><trkpt lat="44.244589" lon="11.6466305"><ele>168.14285714285714</ele><time>2026-04-25T08:35:05.025Z</time></trkpt><trkpt lat="44.2445388" lon="11.6465467"><ele>168.28571428571428</ele><time>2026-04-25T08:35:08.092Z</time></trkpt><trkpt lat="44.2444837" lon="11.64647"><ele>168.42857142857144</ele><time>2026-04-25T08:35:11.103Z</time></trkpt><trkpt lat="44.2444283" lon="11.646412"><ele>168.57142857142856</ele><time>2026-04-25T08:35:14.089Z</time></trkpt><trkpt lat="44.2443674" lon="11.6463616"><ele>168.71428571428572</ele><time>2026-04-25T08:35:17.123Z</time></trkpt><trkpt lat="44.2443127" lon="11.6463112"><ele>168.85714285714286</ele><time>2026-04-25T08:35:20.003Z</time></trkpt><trkpt lat="44.244253" lon="11.6462513"><ele>169.0</ele><time>2026-04-25T08:35:23.095Z</time></trkpt><trkpt lat="44.2441936" lon="11.6461964"><ele>169.0</ele><time>2026-04-25T08:35:26.108Z</time></trkpt><trkpt lat="44.2441408" lon="11.6461339"><ele>169.0</ele><time>2026-04-25T08:35:29.002Z</time></trkpt><trkpt lat="44.2440828" lon="11.64608"><ele>169.0</ele><time>2026-04-25T08:35:32.049Z</time></trkpt><trkpt lat="44.2440335" lon="11.6459982"><ele>169.0</ele><time>2026-04-25T08:35:35.062Z</time></trkpt><trkpt lat="44.243981" lon="11.6459495"><ele>169.0</ele><time>2026-04-25T08:35:38.086Z</time></trkpt><trkpt lat="44.2439101" lon="11.6459179"><ele>169.0</ele><time>2026-04-25T08:35:41.18Z</time></trkpt><trkpt lat="44.2438392" lon="11.6458925"><ele>169.0</ele><time>2026-04-25T08:35:44.362Z</time></trkpt><trkpt lat="44.2437675" lon="11.6458573"><ele>169.0</ele><time>2026-04-25T08:35:47.58Z</time></trkpt><trkpt lat="44.2437068" lon="11.6457917"><ele>169.0</ele><time>2026-04-25T08:35:50.8Z</time></trkpt><trkpt lat="44.2436602" lon="11.6456999"><ele>169.0</ele><time>2026-04-25T08:35:54.04Z</time></trkpt><trkpt lat="44.2436012" lon="11.6456274"><ele>169.0</ele><time>2026-04-25T08:35:57.077Z</time></trkpt><trkpt lat="44.2435306" lon="11.6455759"><ele>169.0</ele><time>2026-04-25T08:36:00.099Z</time></trkpt><trkpt lat="44.2434661" lon="11.6455258"><ele>169.0</ele><time>2026-04-25T08:36:02.979Z</time></trkpt><trkpt lat="44.2434018" lon="11.6454519"><ele>169.0</ele><time>2026-04-25T08:36:06.109Z</time></trkpt><trkpt lat="44.2433502" lon="11.6453845"><ele>169.0</ele><time>2026-04-25T08:36:09.075Z</time></trkpt><trkpt lat="44.2433013" lon="11.6453143"><ele>169.0</ele><time>2026-04-25T08:36:12.081Z</time></trkpt><trkpt lat="44.2432471" lon="11.6452467"><ele>169.0</ele><time>2026-04-25T08:36:15.101Z</time></trkpt><trkpt lat="44.2431879" lon="11.6451891"><ele>169.0</ele><time>2026-04-25T08:36:18.015Z</time></trkpt><trkpt lat="44.2431232" lon="11.6451352"><ele>169.0</ele><time>2026-04-25T08:36:21.092Z</time></trkpt><trkpt lat="44.2430696" lon="11.645081"><ele>169.0</ele><time>2026-04-25T08:36:24.1Z</time></trkpt><trkpt lat="44.2430123" lon="11.6450307"><ele>169.57142857142858</ele><time>2026-04-25T08:36:27.055Z</time></trkpt><trkpt lat="44.2429516" lon="11.6449686"><ele>170.14285714285714</ele><time>2026-04-25T08:36:30.102Z</time></trkpt><trkpt lat="44.2428883" lon="11.6449227"><ele>170.71428571428572</ele><time>2026-04-25T08:36:33.061Z</time></trkpt><trkpt lat="44.2428224" lon="11.6448716"><ele>171.28571428571428</ele><time>2026-04-25T08:36:36.099Z</time></trkpt><trkpt lat="44.2427608" lon="11.6448181"><ele>171.85714285714286</ele><time>2026-04-25T08:36:39.08Z</time></trkpt><trkpt lat="44.2427101" lon="11.6447563"><ele>172.42857142857142</ele><time>2026-04-25T08:36:42.074Z</time></trkpt><trkpt lat="44.2426541" lon="11.6446927"><ele>173.0</ele><time>2026-04-25T08:36:45.108Z</time></trkpt><trkpt lat="44.2425912" lon="11.6446338"><ele>173.0</ele><time>2026-04-25T08:36:48.082Z</time></trkpt><trkpt lat="44.2425253" lon="11.6445838"><ele>173.0</ele><time>2026-04-25T08:36:51.091Z</time></trkpt><trkpt lat="44.2424642" lon="11.6445361"><ele>173.0</ele><time>2026-04-25T08:36:54.088Z</time></trkpt><trkpt lat="44.2424094" lon="11.6444849"><ele>173.0</ele><time>2026-04-25T08:36:57.085Z</time></trkpt><trkpt lat="44.242352" lon="11.6444451"><ele>173.0</ele><time>2026-04-25T08:37:00.283Z</time></trkpt><trkpt lat="44.2422848" lon="11.6444315"><ele>173.0</ele><time>2026-04-25T08:37:03.543Z</time></trkpt><trkpt lat="44.2422161" lon="11.6443891"><ele>173.0</ele><time>2026-04-25T08:37:06.804Z</time></trkpt><trkpt lat="44.2421548" lon="11.6443279"><ele>173.57142857142856</ele><time>2026-04-25T08:37:10.047Z</time></trkpt><trkpt lat="44.2420939" lon="11.6442818"><ele>174.14285714285717</ele><time>2026-04-25T08:37:13.09Z</time></trkpt><trkpt lat="44.2420377" lon="11.6442326"><ele>174.71428571428572</ele><time>2026-04-25T08:37:16.096Z</time></trkpt><trkpt lat="44.2419841" lon="11.644172"><ele>175.28571428571428</ele><time>2026-04-25T08:37:19.081Z</time></trkpt><trkpt lat="44.2419278" lon="11.6441253"><ele>175.85714285714283</ele><time>2026-04-25T08:37:22.083Z</time></trkpt><trkpt lat="44.2418607" lon="11.6440737"><ele>176.42857142857144</ele><time>2026-04-25T08:37:25.1Z</time></trkpt><trkpt lat="44.2418" lon="11.6440197"><ele>177.0</ele><time>2026-04-25T08:37:28.06Z</time></trkpt><trkpt lat="44.2417341" lon="11.6439533"><ele>177.0</ele><time>2026-04-25T08:37:32.002Z</time></trkpt><trkpt lat="44.2416776" lon="11.643909"><ele>177.0</ele><time>2026-04-25T08:37:35.1Z</time></trkpt><trkpt lat="44.2416075" lon="11.6438483"><ele>177.0</ele><time>2026-04-25T08:37:39.1Z</time></trkpt><trkpt lat="44.2415484" lon="11.6437996"><ele>177.0</ele><time>2026-04-25T08:37:42.121Z</time></trkpt><trkpt lat="44.2414704" lon="11.6437483"><ele>177.0</ele><time>2026-04-25T08:37:46.096Z</time></trkpt><trkpt lat="44.241424" lon="11.643677"><ele>177.0</ele><time>2026-04-25T08:37:49.083Z</time></trkpt><trkpt lat="44.2413749" lon="11.643617"><ele>177.0</ele><time>2026-04-25T08:37:52.077Z</time></trkpt><trkpt lat="44.241307" lon="11.6435355"><ele>177.14285714285714</ele><time>2026-04-25T08:37:56.086Z</time></trkpt><trkpt lat="44.2412478" lon="11.643485"><ele>177.28571428571428</ele><time>2026-04-25T08:37:59.053Z</time></trkpt><trkpt lat="44.2411825" lon="11.6434444"><ele>177.42857142857142</ele><time>2026-04-25T08:38:02.092Z</time></trkpt><trkpt lat="44.2411175" lon="11.6433893"><ele>177.57142857142856</ele><time>2026-04-25T08:38:05.105Z</time></trkpt><trkpt lat="44.2410536" lon="11.6433301"><ele>177.71428571428572</ele><time>2026-04-25T08:38:08.06Z</time></trkpt><trkpt lat="44.2409959" lon="11.6432758"><ele>177.85714285714283</ele><time>2026-04-25T08:38:11.075Z</time></trkpt><trkpt lat="44.2409272" lon="11.6432272"><ele>178.0</ele><time>2026-04-25T08:38:14.099Z</time></trkpt><trkpt lat="44.2408672" lon="11.6431743"><ele>177.99999999999997</ele><time>2026-04-25T08:38:17.057Z</time></trkpt><trkpt lat="44.2408163" lon="11.6431146"><ele>178.0</ele><time>2026-04-25T08:38:20.09Z</time></trkpt><trkpt lat="44.240761" lon="11.6430596"><ele>178.0</ele><time>2026-04-25T08:38:23.115Z</time></trkpt><trkpt lat="44.2407076" lon="11.6430042"><ele>178.0</ele><time>2026-04-25T08:38:26.024Z</time></trkpt><trkpt lat="44.2406464" lon="11.6429415"><ele>178.0</ele><time>2026-04-25T08:38:29.078Z</time></trkpt><trkpt lat="44.2405856" lon="11.6428809"><ele>177.99999999999997</ele><time>2026-04-25T08:38:32.144Z</time></trkpt><trkpt lat="44.2405233" lon="11.6428262"><ele>178.0</ele><time>2026-04-25T08:38:35.058Z</time></trkpt><trkpt lat="44.2404581" lon="11.642772"><ele>177.85714285714283</ele><time>2026-04-25T08:38:38.089Z</time></trkpt><trkpt lat="44.2404051" lon="11.6427096"><ele>177.71428571428572</ele><time>2026-04-25T08:38:41.088Z</time></trkpt><trkpt lat="44.2403539" lon="11.6426461"><ele>177.57142857142856</ele><time>2026-04-25T08:38:44.037Z</time></trkpt><trkpt lat="44.2403065" lon="11.6425804"><ele>177.42857142857142</ele><time>2026-04-25T08:38:47.092Z</time></trkpt><trkpt lat="44.2402624" lon="11.6425019"><ele>177.28571428571428</ele><time>2026-04-25T08:38:50.143Z</time></trkpt><trkpt lat="44.2402238" lon="11.6424279"><ele>177.14285714285714</ele><time>2026-04-25T08:38:53.022Z</time></trkpt><trkpt lat="44.24019" lon="11.6423496"><ele>177.0</ele><time>2026-04-25T08:38:56.089Z</time></trkpt><trkpt lat="44.2401553" lon="11.642271"><ele>177.0</ele><time>2026-04-25T08:38:59.096Z</time></trkpt><trkpt lat="44.2401178" lon="11.6421927"><ele>177.0</ele><time>2026-04-25T08:39:02.072Z</time></trkpt><trkpt lat="44.240083" lon="11.642114"><ele>177.0</ele><time>2026-04-25T08:39:05.087Z</time></trkpt><trkpt lat="44.2400462" lon="11.6420406"><ele>177.0</ele><time>2026-04-25T08:39:08.114Z</time></trkpt><trkpt lat="44.2400108" lon="11.6419373"><ele>177.0</ele><time>2026-04-25T08:39:12.086Z</time></trkpt><trkpt lat="44.2399926" lon="11.6418505"><ele>177.0</ele><time>2026-04-25T08:39:15.109Z</time></trkpt><trkpt lat="44.2399611" lon="11.641771"><ele>177.0</ele><time>2026-04-25T08:39:18.087Z</time></trkpt><trkpt lat="44.2399266" lon="11.641694"><ele>176.85714285714286</ele><time>2026-04-25T08:39:21.015Z</time></trkpt><trkpt lat="44.2398848" lon="11.6416229"><ele>176.7142857142857</ele><time>2026-04-25T08:39:24.108Z</time></trkpt><trkpt lat="44.2398455" lon="11.6415486"><ele>176.57142857142856</ele><time>2026-04-25T08:39:27.119Z</time></trkpt><trkpt lat="44.2398024" lon="11.6414704"><ele>176.42857142857144</ele><time>2026-04-25T08:39:30.084Z</time></trkpt><trkpt lat="44.2397609" lon="11.6413987"><ele>176.28571428571428</ele><time>2026-04-25T08:39:33.114Z</time></trkpt><trkpt lat="44.2397201" lon="11.6413207"><ele>176.14285714285714</ele><time>2026-04-25T08:39:36.109Z</time></trkpt><trkpt lat="44.2396773" lon="11.6412387"><ele>176.0</ele><time>2026-04-25T08:39:39.144Z</time></trkpt><trkpt lat="44.2396211" lon="11.6411555"><ele>177.66666666666666</ele><time>2026-04-25T08:39:43.101Z</time></trkpt><trkpt lat="44.2395627" lon="11.6410761"><ele>179.33333333333331</ele><time>2026-04-25T08:39:47.079Z</time></trkpt><trkpt lat="44.2395141" lon="11.640986"><ele>181.0</ele><time>2026-04-25T08:39:51.013Z</time></trkpt><trkpt lat="44.2394643" lon="11.6408874"><ele>182.66666666666666</ele><time>2026-04-25T08:39:55.063Z</time></trkpt><trkpt lat="44.2394099" lon="11.6407992"><ele>184.33333333333334</ele><time>2026-04-25T08:39:59.075Z</time></trkpt><trkpt lat="44.2393532" lon="11.640716"><ele>186.0</ele><time>2026-04-25T08:40:03.003Z</time></trkpt><trkpt lat="44.2393118" lon="11.6406448"><ele>186.00000000000003</ele><time>2026-04-25T08:40:06.116Z</time></trkpt><trkpt lat="44.2392614" lon="11.640577"><ele>186.0</ele><time>2026-04-25T08:40:09.119Z</time></trkpt><trkpt lat="44.2392105" lon="11.6405029"><ele>186.0</ele><time>2026-04-25T08:40:12.098Z</time></trkpt><trkpt lat="44.2391654" lon="11.6404389"><ele>186.0</ele><time>2026-04-25T08:40:15.1Z</time></trkpt><trkpt lat="44.2391202" lon="11.640371"><ele>186.0</ele><time>2026-04-25T08:40:18.12Z</time></trkpt><trkpt lat="44.2390558" lon="11.6403159"><ele>186.00000000000003</ele><time>2026-04-25T08:40:22.066Z</time></trkpt><trkpt lat="44.2389875" lon="11.6402572"><ele>186.0</ele><time>2026-04-25T08:40:26.087Z</time></trkpt><trkpt lat="44.2389198" lon="11.6402075"><ele>186.14285714285717</ele><time>2026-04-25T08:40:30.06Z</time></trkpt><trkpt lat="44.2388573" lon="11.640143"><ele>186.28571428571428</ele><time>2026-04-25T08:40:34.11Z</time></trkpt><trkpt lat="44.2387912" lon="11.6400765"><ele>186.42857142857144</ele><time>2026-04-25T08:40:38.102Z</time></trkpt><trkpt lat="44.2387381" lon="11.6400242"><ele>186.57142857142858</ele><time>2026-04-25T08:40:41.138Z</time></trkpt><trkpt lat="44.238679" lon="11.6399732"><ele>186.71428571428572</ele><time>2026-04-25T08:40:45.095Z</time></trkpt><trkpt lat="44.238627" lon="11.6399187"><ele>186.85714285714286</ele><time>2026-04-25T08:40:49.103Z</time></trkpt><trkpt lat="44.2385624" lon="11.6398695"><ele>187.0</ele><time>2026-04-25T08:40:53.075Z</time></trkpt><trkpt lat="44.2384903" lon="11.6398359"><ele>187.0</ele><time>2026-04-25T08:40:57.036Z</time></trkpt><trkpt lat="44.2384177" lon="11.6397831"><ele>187.0</ele><time>2026-04-25T08:41:01.041Z</time></trkpt><trkpt lat="44.2383481" lon="11.6397204"><ele>187.0</ele><time>2026-04-25T08:41:05.075Z</time></trkpt><trkpt lat="44.2382987" lon="11.63966"><ele>187.0</ele><time>2026-04-25T08:41:08.083Z</time></trkpt><trkpt lat="44.2382413" lon="11.6396169"><ele>187.0</ele><time>2026-04-25T08:41:11.08Z</time></trkpt><trkpt lat="44.238171" lon="11.6395848"><ele>187.0</ele><time>2026-04-25T08:41:14.058Z</time></trkpt><trkpt lat="44.2380907" lon="11.6395625"><ele>186.16666666666669</ele><time>2026-04-25T08:41:17.098Z</time></trkpt><trkpt lat="44.2380181" lon="11.6395435"><ele>185.33333333333334</ele><time>2026-04-25T08:41:20.122Z</time></trkpt><trkpt lat="44.2379354" lon="11.6395332"><ele>184.5</ele><time>2026-04-25T08:41:24.06Z</time></trkpt><trkpt lat="44.2378687" lon="11.6395251"><ele>183.66666666666666</ele><time>2026-04-25T08:41:27.095Z</time></trkpt><trkpt lat="44.2377917" lon="11.6395142"><ele>182.83333333333331</ele><time>2026-04-25T08:41:30.133Z</time></trkpt><trkpt lat="44.2377196" lon="11.6394924"><ele>182.0</ele><time>2026-04-25T08:41:32.975Z</time></trkpt><trkpt lat="44.2376381" lon="11.6394758"><ele>182.0</ele><time>2026-04-25T08:41:36.072Z</time></trkpt><trkpt lat="44.2375695" lon="11.6394528"><ele>182.0</ele><time>2026-04-25T08:41:39.09Z</time></trkpt><trkpt lat="44.2375046" lon="11.6394279"><ele>182.0</ele><time>2026-04-25T08:41:42.069Z</time></trkpt><trkpt lat="44.2374359" lon="11.6393956"><ele>182.0</ele><time>2026-04-25T08:41:45.104Z</time></trkpt><trkpt lat="44.2373768" lon="11.6393573"><ele>182.0</ele><time>2026-04-25T08:41:48.12Z</time></trkpt><trkpt lat="44.2373076" lon="11.6393021"><ele>182.0</ele><time>2026-04-25T08:41:52.078Z</time></trkpt><trkpt lat="44.2372485" lon="11.6392486"><ele>182.0</ele><time>2026-04-25T08:41:55.091Z</time></trkpt><trkpt lat="44.237184" lon="11.6391898"><ele>182.0</ele><time>2026-04-25T08:41:58.1Z</time></trkpt><trkpt lat="44.2371155" lon="11.6391236"><ele>182.0</ele><time>2026-04-25T08:42:00.897Z</time></trkpt><trkpt lat="44.2370379" lon="11.6390452"><ele>182.0</ele><time>2026-04-25T08:42:04.039Z</time></trkpt><trkpt lat="44.2369673" lon="11.6389741"><ele>182.0</ele><time>2026-04-25T08:42:07.104Z</time></trkpt><trkpt lat="44.2368975" lon="11.6389102"><ele>182.0</ele><time>2026-04-25T08:42:10.117Z</time></trkpt><trkpt lat="44.2368239" lon="11.6388464"><ele>182.0</ele><time>2026-04-25T08:42:13.08Z</time></trkpt><trkpt lat="44.236751" lon="11.6387705"><ele>182.0</ele><time>2026-04-25T08:42:16.085Z</time></trkpt><trkpt lat="44.2366821" lon="11.6387045"><ele>182.0</ele><time>2026-04-25T08:42:19.07Z</time></trkpt><trkpt lat="44.2366105" lon="11.6386412"><ele>182.0</ele><time>2026-04-25T08:42:22.099Z</time></trkpt><trkpt lat="44.2365481" lon="11.6385815"><ele>182.0</ele><time>2026-04-25T08:42:25.093Z</time></trkpt><trkpt lat="44.2364948" lon="11.638515"><ele>182.0</ele><time>2026-04-25T08:42:28.094Z</time></trkpt><trkpt lat="44.2364452" lon="11.6384547"><ele>182.0</ele><time>2026-04-25T08:42:30.999Z</time></trkpt><trkpt lat="44.2363975" lon="11.6383963"><ele>182.0</ele><time>2026-04-25T08:42:34.077Z</time></trkpt><trkpt lat="44.2363471" lon="11.6383417"><ele>182.28571428571428</ele><time>2026-04-25T08:42:37.055Z</time></trkpt><trkpt lat="44.2362966" lon="11.6382884"><ele>182.57142857142856</ele><time>2026-04-25T08:42:40.072Z</time></trkpt><trkpt lat="44.2362381" lon="11.6382449"><ele>182.85714285714286</ele><time>2026-04-25T08:42:43.091Z</time></trkpt><trkpt lat="44.236179" lon="11.6381951"><ele>183.14285714285714</ele><time>2026-04-25T08:42:46.022Z</time></trkpt><trkpt lat="44.236124" lon="11.6381216"><ele>183.42857142857142</ele><time>2026-04-25T08:42:49.074Z</time></trkpt><trkpt lat="44.2360679" lon="11.6380362"><ele>183.71428571428572</ele><time>2026-04-25T08:42:52.126Z</time></trkpt><trkpt lat="44.2360141" lon="11.6379669"><ele>184.0</ele><time>2026-04-25T08:42:55.002Z</time></trkpt><trkpt lat="44.2359564" lon="11.6379073"><ele>184.0</ele><time>2026-04-25T08:42:58.087Z</time></trkpt><trkpt lat="44.2358983" lon="11.6378474"><ele>184.0</ele><time>2026-04-25T08:43:01.126Z</time></trkpt><trkpt lat="44.2358397" lon="11.6377817"><ele>184.0</ele><time>2026-04-25T08:43:04.043Z</time></trkpt><trkpt lat="44.2357841" lon="11.6377163"><ele>184.0</ele><time>2026-04-25T08:43:07.069Z</time></trkpt><trkpt lat="44.2357294" lon="11.6376509"><ele>184.0</ele><time>2026-04-25T08:43:10.114Z</time></trkpt><trkpt lat="44.2356694" lon="11.6375961"><ele>184.0</ele><time>2026-04-25T08:43:12.986Z</time></trkpt><trkpt lat="44.2356011" lon="11.6375261"><ele>184.0</ele><time>2026-04-25T08:43:16.087Z</time></trkpt><trkpt lat="44.2355387" lon="11.6374667"><ele>184.14285714285714</ele><time>2026-04-25T08:43:19.089Z</time></trkpt><trkpt lat="44.2354785" lon="11.6374052"><ele>184.28571428571428</ele><time>2026-04-25T08:43:22.076Z</time></trkpt><trkpt lat="44.2354175" lon="11.6373323"><ele>184.42857142857142</ele><time>2026-04-25T08:43:25.15Z</time></trkpt><trkpt lat="44.2353594" lon="11.637273"><ele>184.57142857142856</ele><time>2026-04-25T08:43:28.016Z</time></trkpt><trkpt lat="44.2352997" lon="11.6372061"><ele>184.71428571428572</ele><time>2026-04-25T08:43:31.112Z</time></trkpt><trkpt lat="44.2352379" lon="11.6371463"><ele>184.85714285714283</ele><time>2026-04-25T08:43:34.103Z</time></trkpt><trkpt lat="44.2351851" lon="11.6370902"><ele>185.0</ele><time>2026-04-25T08:43:37.07Z</time></trkpt><trkpt lat="44.235131" lon="11.6370374"><ele>184.99999999999997</ele><time>2026-04-25T08:43:40.099Z</time></trkpt><trkpt lat="44.2350792" lon="11.6369833"><ele>185.0</ele><time>2026-04-25T08:43:43.093Z</time></trkpt><trkpt lat="44.2350356" lon="11.6369182"><ele>185.0</ele><time>2026-04-25T08:43:46.068Z</time></trkpt><trkpt lat="44.2349741" lon="11.6368483"><ele>185.0</ele><time>2026-04-25T08:43:50.003Z</time></trkpt><trkpt lat="44.2349171" lon="11.6367936"><ele>185.0</ele><time>2026-04-25T08:43:53.065Z</time></trkpt><trkpt lat="44.2348488" lon="11.63673"><ele>184.99999999999997</ele><time>2026-04-25T08:43:57.091Z</time></trkpt><trkpt lat="44.2347807" lon="11.636682"><ele>185.0</ele><time>2026-04-25T08:44:01.071Z</time></trkpt><trkpt lat="44.2347096" lon="11.6366243"><ele>185.42857142857142</ele><time>2026-04-25T08:44:05.088Z</time></trkpt><trkpt lat="44.2346503" lon="11.6365735"><ele>185.85714285714286</ele><time>2026-04-25T08:44:08.065Z</time></trkpt><trkpt lat="44.2345937" lon="11.6365239"><ele>186.28571428571428</ele><time>2026-04-25T08:44:11.096Z</time></trkpt><trkpt lat="44.234539" lon="11.6364499"><ele>186.71428571428572</ele><time>2026-04-25T08:44:15.142Z</time></trkpt><trkpt lat="44.2344833" lon="11.6363832"><ele>187.14285714285714</ele><time>2026-04-25T08:44:19.102Z</time></trkpt><trkpt lat="44.2344173" lon="11.6363155"><ele>187.57142857142856</ele><time>2026-04-25T08:44:23.089Z</time></trkpt><trkpt lat="44.2343625" lon="11.6362702"><ele>188.0</ele><time>2026-04-25T08:44:26.023Z</time></trkpt><trkpt lat="44.2343106" lon="11.6362136"><ele>188.0</ele><time>2026-04-25T08:44:29.088Z</time></trkpt><trkpt lat="44.2342516" lon="11.6361669"><ele>188.0</ele><time>2026-04-25T08:44:32.101Z</time></trkpt><trkpt lat="44.2341928" lon="11.6361121"><ele>188.0</ele><time>2026-04-25T08:44:35.013Z</time></trkpt><trkpt lat="44.2341313" lon="11.6360566"><ele>188.0</ele><time>2026-04-25T08:44:38.092Z</time></trkpt><trkpt lat="44.2340726" lon="11.6360149"><ele>188.0</ele><time>2026-04-25T08:44:41.093Z</time></trkpt><trkpt lat="44.2340156" lon="11.6359622"><ele>188.0</ele><time>2026-04-25T08:44:44.049Z</time></trkpt><trkpt lat="44.2339617" lon="11.6359071"><ele>188.0</ele><time>2026-04-25T08:44:47.078Z</time></trkpt><trkpt lat="44.2339064" lon="11.6358456"><ele>188.28571428571428</ele><time>2026-04-25T08:44:50.084Z</time></trkpt><trkpt lat="44.233851" lon="11.6357848"><ele>188.57142857142856</ele><time>2026-04-25T08:44:53.07Z</time></trkpt><trkpt lat="44.2337881" lon="11.6357264"><ele>188.85714285714286</ele><time>2026-04-25T08:44:56.098Z</time></trkpt><trkpt lat="44.2337273" lon="11.6356658"><ele>189.14285714285714</ele><time>2026-04-25T08:44:59.097Z</time></trkpt><trkpt lat="44.2336769" lon="11.635611"><ele>189.42857142857144</ele><time>2026-04-25T08:45:02.107Z</time></trkpt><trkpt lat="44.2336147" lon="11.6355383"><ele>189.71428571428572</ele><time>2026-04-25T08:45:06.065Z</time></trkpt><trkpt lat="44.2335499" lon="11.6354678"><ele>190.0</ele><time>2026-04-25T08:45:10.106Z</time></trkpt><trkpt lat="44.2334839" lon="11.6354046"><ele>190.0</ele><time>2026-04-25T08:45:14.085Z</time></trkpt><trkpt lat="44.2334173" lon="11.6353382"><ele>190.0</ele><time>2026-04-25T08:45:18.034Z</time></trkpt><trkpt lat="44.2333685" lon="11.6352736"><ele>190.0</ele><time>2026-04-25T08:45:21.115Z</time></trkpt><trkpt lat="44.2333179" lon="11.6352078"><ele>190.0</ele><time>2026-04-25T08:45:24.096Z</time></trkpt><trkpt lat="44.2332777" lon="11.6351392"><ele>190.0</ele><time>2026-04-25T08:45:27.035Z</time></trkpt><trkpt lat="44.2332155" lon="11.6350681"><ele>190.0</ele><time>2026-04-25T08:45:30.991Z</time></trkpt><trkpt lat="44.2331369" lon="11.6350309"><ele>190.0</ele><time>2026-04-25T08:45:35.098Z</time></trkpt><trkpt lat="44.2330729" lon="11.6349861"><ele>190.0</ele><time>2026-04-25T08:45:38.083Z</time></trkpt><trkpt lat="44.2330108" lon="11.6349279"><ele>190.0</ele><time>2026-04-25T08:45:42.052Z</time></trkpt><trkpt lat="44.2329545" lon="11.6348486"><ele>190.0</ele><time>2026-04-25T08:45:46.071Z</time></trkpt><trkpt lat="44.2328961" lon="11.634787"><ele>190.0</ele><time>2026-04-25T08:45:49.067Z</time></trkpt><trkpt lat="44.2328303" lon="11.6347265"><ele>190.0</ele><time>2026-04-25T08:45:52.031Z</time></trkpt><trkpt lat="44.2327643" lon="11.6346582"><ele>190.0</ele><time>2026-04-25T08:45:55.106Z</time></trkpt><trkpt lat="44.2327002" lon="11.634585"><ele>190.0</ele><time>2026-04-25T08:45:58.075Z</time></trkpt><trkpt lat="44.2326483" lon="11.6345351"><ele>190.0</ele><time>2026-04-25T08:46:00.094Z</time></trkpt><trkpt lat="44.2325799" lon="11.6344649"><ele>190.0</ele><time>2026-04-25T08:46:03.069Z</time></trkpt><trkpt lat="44.232519" lon="11.6343969"><ele>190.0</ele><time>2026-04-25T08:46:06.084Z</time></trkpt><trkpt lat="44.2324522" lon="11.6343257"><ele>190.0</ele><time>2026-04-25T08:46:09.074Z</time></trkpt><trkpt lat="44.2323874" lon="11.6342573"><ele>190.0</ele><time>2026-04-25T08:46:12.103Z</time></trkpt><trkpt lat="44.2323281" lon="11.6341865"><ele>190.5</ele><time>2026-04-25T08:46:15.091Z</time></trkpt><trkpt lat="44.2322667" lon="11.6341125"><ele>191.0</ele><time>2026-04-25T08:46:18.114Z</time></trkpt><trkpt lat="44.2322051" lon="11.6340501"><ele>191.5</ele><time>2026-04-25T08:46:20.994Z</time></trkpt><trkpt lat="44.2321406" lon="11.6339848"><ele>192.0</ele><time>2026-04-25T08:46:24.081Z</time></trkpt><trkpt lat="44.2320891" lon="11.6339189"><ele>192.49999999999997</ele><time>2026-04-25T08:46:26.997Z</time></trkpt><trkpt lat="44.2320299" lon="11.633857"><ele>193.0</ele><time>2026-04-25T08:46:30.097Z</time></trkpt><trkpt lat="44.2319732" lon="11.6337947"><ele>193.00000000000003</ele><time>2026-04-25T08:46:33.063Z</time></trkpt><trkpt lat="44.2319226" lon="11.6337375"><ele>193.0</ele><time>2026-04-25T08:46:36.104Z</time></trkpt><trkpt lat="44.2318686" lon="11.6336732"><ele>193.0</ele><time>2026-04-25T08:46:39.064Z</time></trkpt><trkpt lat="44.2318037" lon="11.633605"><ele>193.0</ele><time>2026-04-25T08:46:42.096Z</time></trkpt><trkpt lat="44.2317431" lon="11.633532"><ele>193.0</ele><time>2026-04-25T08:46:45.087Z</time></trkpt><trkpt lat="44.2316855" lon="11.633466"><ele>193.00000000000003</ele><time>2026-04-25T08:46:48.066Z</time></trkpt><trkpt lat="44.2316284" lon="11.6333955"><ele>193.0</ele><time>2026-04-25T08:46:51.091Z</time></trkpt><trkpt lat="44.2315678" lon="11.6333357"><ele>192.83333333333331</ele><time>2026-04-25T08:46:54.072Z</time></trkpt><trkpt lat="44.2315052" lon="11.6332857"><ele>192.66666666666666</ele><time>2026-04-25T08:46:57.093Z</time></trkpt><trkpt lat="44.2314483" lon="11.633222"><ele>192.5</ele><time>2026-04-25T08:47:00.08Z</time></trkpt><trkpt lat="44.2313866" lon="11.6331525"><ele>192.33333333333331</ele><time>2026-04-25T08:47:03.028Z</time></trkpt><trkpt lat="44.2313196" lon="11.6330862"><ele>192.16666666666666</ele><time>2026-04-25T08:47:06.093Z</time></trkpt><trkpt lat="44.2312567" lon="11.6330228"><ele>192.0</ele><time>2026-04-25T08:47:09.088Z</time></trkpt><trkpt lat="44.2311965" lon="11.6329635"><ele>191.99999999999997</ele><time>2026-04-25T08:47:12.077Z</time></trkpt><trkpt lat="44.2311346" lon="11.6329022"><ele>192.0</ele><time>2026-04-25T08:47:15.068Z</time></trkpt><trkpt lat="44.2310721" lon="11.6328312"><ele>192.0</ele><time>2026-04-25T08:47:18.105Z</time></trkpt><trkpt lat="44.2310139" lon="11.6327654"><ele>192.0</ele><time>2026-04-25T08:47:21.045Z</time></trkpt><trkpt lat="44.23096" lon="11.6327015"><ele>192.0</ele><time>2026-04-25T08:47:24.13Z</time></trkpt><trkpt lat="44.2309075" lon="11.6326408"><ele>191.99999999999997</ele><time>2026-04-25T08:47:27.016Z</time></trkpt><trkpt lat="44.2308472" lon="11.6325874"><ele>192.0</ele><time>2026-04-25T08:47:30.099Z</time></trkpt><trkpt lat="44.2307872" lon="11.6325275"><ele>192.42857142857142</ele><time>2026-04-25T08:47:33.096Z</time></trkpt><trkpt lat="44.2307277" lon="11.6324695"><ele>192.85714285714286</ele><time>2026-04-25T08:47:36.035Z</time></trkpt><trkpt lat="44.2306711" lon="11.6324061"><ele>193.28571428571428</ele><time>2026-04-25T08:47:39.077Z</time></trkpt><trkpt lat="44.2306129" lon="11.6323476"><ele>193.71428571428572</ele><time>2026-04-25T08:47:42.106Z</time></trkpt><trkpt lat="44.2305516" lon="11.6322787"><ele>194.14285714285714</ele><time>2026-04-25T08:47:45.061Z</time></trkpt><trkpt lat="44.2304914" lon="11.6322036"><ele>194.57142857142856</ele><time>2026-04-25T08:47:48.104Z</time></trkpt><trkpt lat="44.2304412" lon="11.6321345"><ele>195.0</ele><time>2026-04-25T08:47:51.073Z</time></trkpt><trkpt lat="44.2303823" lon="11.6320689"><ele>194.5</ele><time>2026-04-25T08:47:54.066Z</time></trkpt><trkpt lat="44.2303179" lon="11.6320011"><ele>194.0</ele><time>2026-04-25T08:47:57.11Z</time></trkpt><trkpt lat="44.2302559" lon="11.6319386"><ele>193.5</ele><time>2026-04-25T08:48:00.057Z</time></trkpt><trkpt lat="44.2301954" lon="11.6318688"><ele>193.0</ele><time>2026-04-25T08:48:03.099Z</time></trkpt><trkpt lat="44.2301346" lon="11.6318169"><ele>192.5</ele><time>2026-04-25T08:48:06.105Z</time></trkpt><trkpt lat="44.2300682" lon="11.6317411"><ele>192.0</ele><time>2026-04-25T08:48:10.049Z</time></trkpt><trkpt lat="44.2300185" lon="11.6316732"><ele>191.99999999999997</ele><time>2026-04-25T08:48:13.097Z</time></trkpt><trkpt lat="44.2299649" lon="11.6316086"><ele>192.0</ele><time>2026-04-25T08:48:16.114Z</time></trkpt><trkpt lat="44.2299062" lon="11.6315545"><ele>192.0</ele><time>2026-04-25T08:48:19.084Z</time></trkpt><trkpt lat="44.2298455" lon="11.6314992"><ele>192.0</ele><time>2026-04-25T08:48:22.129Z</time></trkpt><trkpt lat="44.2297926" lon="11.6314408"><ele>192.0</ele><time>2026-04-25T08:48:25.032Z</time></trkpt><trkpt lat="44.2297316" lon="11.6313892"><ele>191.99999999999997</ele><time>2026-04-25T08:48:28.089Z</time></trkpt><trkpt lat="44.2296682" lon="11.6313321"><ele>192.0</ele><time>2026-04-25T08:48:31.11Z</time></trkpt><trkpt lat="44.2296079" lon="11.6312729"><ele>191.99999999999997</ele><time>2026-04-25T08:48:34.08Z</time></trkpt><trkpt lat="44.2295511" lon="11.6312095"><ele>192.0</ele><time>2026-04-25T08:48:37.092Z</time></trkpt><trkpt lat="44.2294912" lon="11.6311543"><ele>192.0</ele><time>2026-04-25T08:48:40.077Z</time></trkpt><trkpt lat="44.2294304" lon="11.6310932"><ele>192.0</ele><time>2026-04-25T08:48:43.11Z</time></trkpt><trkpt lat="44.2293726" lon="11.6310357"><ele>192.0</ele><time>2026-04-25T08:48:46.053Z</time></trkpt><trkpt lat="44.2293215" lon="11.6309801"><ele>191.99999999999997</ele><time>2026-04-25T08:48:49.022Z</time></trkpt><trkpt lat="44.2292639" lon="11.6309148"><ele>192.0</ele><time>2026-04-25T08:48:52.128Z</time></trkpt><trkpt lat="44.2292073" lon="11.6308599"><ele>192.28571428571428</ele><time>2026-04-25T08:48:55.079Z</time></trkpt><trkpt lat="44.2291527" lon="11.6308014"><ele>192.57142857142856</ele><time>2026-04-25T08:48:58.092Z</time></trkpt><trkpt lat="44.2291016" lon="11.6307376"><ele>192.85714285714283</ele><time>2026-04-25T08:49:01.027Z</time></trkpt><trkpt lat="44.2290369" lon="11.6306763"><ele>193.14285714285714</ele><time>2026-04-25T08:49:04.081Z</time></trkpt><trkpt lat="44.2289784" lon="11.63062"><ele>193.42857142857144</ele><time>2026-04-25T08:49:07.071Z</time></trkpt><trkpt lat="44.2289284" lon="11.6305617"><ele>193.7142857142857</ele><time>2026-04-25T08:49:10.09Z</time></trkpt><trkpt lat="44.2288696" lon="11.6305015"><ele>194.0</ele><time>2026-04-25T08:49:13.105Z</time></trkpt><trkpt lat="44.2288101" lon="11.6304375"><ele>193.85714285714286</ele><time>2026-04-25T08:49:16.072Z</time></trkpt><trkpt lat="44.2287529" lon="11.6303767"><ele>193.71428571428572</ele><time>2026-04-25T08:49:19.095Z</time></trkpt><trkpt lat="44.2286945" lon="11.630318"><ele>193.57142857142858</ele><time>2026-04-25T08:49:21.99Z</time></trkpt><trkpt lat="44.22863" lon="11.6302482"><ele>193.42857142857144</ele><time>2026-04-25T08:49:25.104Z</time></trkpt><trkpt lat="44.2285751" lon="11.6301799"><ele>193.28571428571428</ele><time>2026-04-25T08:49:28.057Z</time></trkpt><trkpt lat="44.2285158" lon="11.6301198"><ele>193.14285714285717</ele><time>2026-04-25T08:49:31.075Z</time></trkpt><trkpt lat="44.2284585" lon="11.6300579"><ele>193.0</ele><time>2026-04-25T08:49:34.063Z</time></trkpt><trkpt lat="44.2284025" lon="11.6299942"><ele>193.00000000000003</ele><time>2026-04-25T08:49:37.117Z</time></trkpt><trkpt lat="44.2283436" lon="11.6299317"><ele>193.0</ele><time>2026-04-25T08:49:40.092Z</time></trkpt><trkpt lat="44.2282903" lon="11.6298649"><ele>193.0</ele><time>2026-04-25T08:49:43.084Z</time></trkpt><trkpt lat="44.228228" lon="11.6297964"><ele>193.0</ele><time>2026-04-25T08:49:46.066Z</time></trkpt><trkpt lat="44.2281688" lon="11.6297216"><ele>193.0</ele><time>2026-04-25T08:49:49.086Z</time></trkpt><trkpt lat="44.2281171" lon="11.6296584"><ele>193.00000000000003</ele><time>2026-04-25T08:49:52.137Z</time></trkpt><trkpt lat="44.2280629" lon="11.629595"><ele>193.0</ele><time>2026-04-25T08:49:55.072Z</time></trkpt><trkpt lat="44.2280077" lon="11.6295406"><ele>193.42857142857144</ele><time>2026-04-25T08:49:58.082Z</time></trkpt><trkpt lat="44.2279378" lon="11.6294722"><ele>193.85714285714286</ele><time>2026-04-25T08:50:02.106Z</time></trkpt><trkpt lat="44.2278847" lon="11.629418"><ele>194.28571428571428</ele><time>2026-04-25T08:50:05.078Z</time></trkpt><trkpt lat="44.2278303" lon="11.6293619"><ele>194.71428571428572</ele><time>2026-04-25T08:50:08.093Z</time></trkpt><trkpt lat="44.227772" lon="11.6292997"><ele>195.14285714285714</ele><time>2026-04-25T08:50:11.092Z</time></trkpt><trkpt lat="44.2277132" lon="11.6292364"><ele>195.57142857142858</ele><time>2026-04-25T08:50:14.105Z</time></trkpt><trkpt lat="44.2276563" lon="11.6291855"><ele>196.0</ele><time>2026-04-25T08:50:17.106Z</time></trkpt><trkpt lat="44.2276043" lon="11.6291333"><ele>196.0</ele><time>2026-04-25T08:50:20.06Z</time></trkpt><trkpt lat="44.2275497" lon="11.6290807"><ele>196.0</ele><time>2026-04-25T08:50:23.091Z</time></trkpt><trkpt lat="44.227497" lon="11.6290271"><ele>196.0</ele><time>2026-04-25T08:50:26.1Z</time></trkpt><trkpt lat="44.2274448" lon="11.628976"><ele>196.0</ele><time>2026-04-25T08:50:29.049Z</time></trkpt><trkpt lat="44.2273937" lon="11.628919"><ele>196.0</ele><time>2026-04-25T08:50:32.071Z</time></trkpt><trkpt lat="44.2273414" lon="11.6288541"><ele>196.0</ele><time>2026-04-25T08:50:35.096Z</time></trkpt><trkpt lat="44.2272838" lon="11.6287899"><ele>196.0</ele><time>2026-04-25T08:50:38.325Z</time></trkpt><trkpt lat="44.2272212" lon="11.6287258"><ele>195.99999999999997</ele><time>2026-04-25T08:50:41.549Z</time></trkpt><trkpt lat="44.2271568" lon="11.628663"><ele>196.0</ele><time>2026-04-25T08:50:44.749Z</time></trkpt><trkpt lat="44.2270986" lon="11.6286033"><ele>196.0</ele><time>2026-04-25T08:50:47.969Z</time></trkpt><trkpt lat="44.227041" lon="11.6285375"><ele>196.0</ele><time>2026-04-25T08:50:51.123Z</time></trkpt><trkpt lat="44.2269766" lon="11.6284706"><ele>195.99999999999997</ele><time>2026-04-25T08:50:54.03Z</time></trkpt><trkpt lat="44.2269136" lon="11.6284019"><ele>196.0</ele><time>2026-04-25T08:50:57.077Z</time></trkpt><trkpt lat="44.2268563" lon="11.6283378"><ele>196.14285714285714</ele><time>2026-04-25T08:51:00.095Z</time></trkpt><trkpt lat="44.2268039" lon="11.6282783"><ele>196.28571428571428</ele><time>2026-04-25T08:51:03.09Z</time></trkpt><trkpt lat="44.2267487" lon="11.6282196"><ele>196.42857142857144</ele><time>2026-04-25T08:51:06.081Z</time></trkpt><trkpt lat="44.2266922" lon="11.6281601"><ele>196.57142857142856</ele><time>2026-04-25T08:51:08.989Z</time></trkpt><trkpt lat="44.2266377" lon="11.6280948"><ele>196.71428571428572</ele><time>2026-04-25T08:51:12.088Z</time></trkpt><trkpt lat="44.2265889" lon="11.6280272"><ele>196.85714285714286</ele><time>2026-04-25T08:51:15.097Z</time></trkpt><trkpt lat="44.2265287" lon="11.6279498"><ele>197.0</ele><time>2026-04-25T08:51:19.032Z</time></trkpt><trkpt lat="44.2264792" lon="11.6278823"><ele>196.71428571428572</ele><time>2026-04-25T08:51:22.055Z</time></trkpt><trkpt lat="44.2264304" lon="11.6278161"><ele>196.42857142857144</ele><time>2026-04-25T08:51:25.071Z</time></trkpt><trkpt lat="44.2263774" lon="11.6277475"><ele>196.14285714285714</ele><time>2026-04-25T08:51:28.103Z</time></trkpt><trkpt lat="44.226327" lon="11.627678"><ele>195.85714285714286</ele><time>2026-04-25T08:51:31.096Z</time></trkpt><trkpt lat="44.2262781" lon="11.6276138"><ele>195.57142857142856</ele><time>2026-04-25T08:51:34.009Z</time></trkpt><trkpt lat="44.2262247" lon="11.627541"><ele>195.28571428571428</ele><time>2026-04-25T08:51:37.086Z</time></trkpt><trkpt lat="44.2261748" lon="11.627473"><ele>195.0</ele><time>2026-04-25T08:51:40.11Z</time></trkpt><trkpt lat="44.2261143" lon="11.6273915"><ele>195.0</ele><time>2026-04-25T08:51:44.087Z</time></trkpt><trkpt lat="44.2260709" lon="11.6273206"><ele>195.0</ele><time>2026-04-25T08:51:47.062Z</time></trkpt><trkpt lat="44.2260242" lon="11.62725"><ele>195.0</ele><time>2026-04-25T08:51:50.088Z</time></trkpt><trkpt lat="44.2259772" lon="11.6271826"><ele>195.0</ele><time>2026-04-25T08:51:53.088Z</time></trkpt><trkpt lat="44.2259281" lon="11.6271162"><ele>195.0</ele><time>2026-04-25T08:51:56.053Z</time></trkpt><trkpt lat="44.2258789" lon="11.6270542"><ele>195.0</ele><time>2026-04-25T08:51:59.101Z</time></trkpt><trkpt lat="44.2258142" lon="11.6269781"><ele>195.0</ele><time>2026-04-25T08:52:03.101Z</time></trkpt><trkpt lat="44.2257504" lon="11.6269067"><ele>194.85714285714286</ele><time>2026-04-25T08:52:07.108Z</time></trkpt><trkpt lat="44.2257026" lon="11.6268479"><ele>194.71428571428572</ele><time>2026-04-25T08:52:10.091Z</time></trkpt><trkpt lat="44.2256439" lon="11.6267746"><ele>194.57142857142856</ele><time>2026-04-25T08:52:14.008Z</time></trkpt><trkpt lat="44.2255823" lon="11.6267046"><ele>194.42857142857144</ele><time>2026-04-25T08:52:18.106Z</time></trkpt><trkpt lat="44.2255313" lon="11.6266497"><ele>194.2857142857143</ele><time>2026-04-25T08:52:21.182Z</time></trkpt><trkpt lat="44.2254723" lon="11.6265861"><ele>194.14285714285714</ele><time>2026-04-25T08:52:24.075Z</time></trkpt><trkpt lat="44.2254014" lon="11.6265312"><ele>194.0</ele><time>2026-04-25T08:52:27.124Z</time></trkpt><trkpt lat="44.2253395" lon="11.6264754"><ele>194.0</ele><time>2026-04-25T08:52:30.132Z</time></trkpt><trkpt lat="44.2252872" lon="11.6264189"><ele>194.0</ele><time>2026-04-25T08:52:33.038Z</time></trkpt><trkpt lat="44.2252403" lon="11.6263558"><ele>194.0</ele><time>2026-04-25T08:52:36.09Z</time></trkpt><trkpt lat="44.2251909" lon="11.6262886"><ele>194.0</ele><time>2026-04-25T08:52:39.1Z</time></trkpt><trkpt lat="44.2251403" lon="11.6262262"><ele>194.0</ele><time>2026-04-25T08:52:42.091Z</time></trkpt><trkpt lat="44.2250891" lon="11.6261627"><ele>194.0</ele><time>2026-04-25T08:52:45.076Z</time></trkpt><trkpt lat="44.2250419" lon="11.6261026"><ele>194.0</ele><time>2026-04-25T08:52:48.089Z</time></trkpt><trkpt lat="44.2249886" lon="11.62604"><ele>194.28571428571428</ele><time>2026-04-25T08:52:51.097Z</time></trkpt><trkpt lat="44.2249352" lon="11.6259696"><ele>194.57142857142858</ele><time>2026-04-25T08:52:54.079Z</time></trkpt><trkpt lat="44.2248759" lon="11.6258925"><ele>194.85714285714286</ele><time>2026-04-25T08:52:57.12Z</time></trkpt><trkpt lat="44.2248294" lon="11.6258269"><ele>195.14285714285714</ele><time>2026-04-25T08:52:59.692Z</time></trkpt><trkpt lat="44.2247844" lon="11.6257609"><ele>195.42857142857144</ele><time>2026-04-25T08:53:02.07Z</time></trkpt><trkpt lat="44.2247284" lon="11.6256892"><ele>195.71428571428572</ele><time>2026-04-25T08:53:05.045Z</time></trkpt><trkpt lat="44.2246718" lon="11.625626"><ele>196.0</ele><time>2026-04-25T08:53:08.083Z</time></trkpt><trkpt lat="44.2246226" lon="11.6255584"><ele>196.0</ele><time>2026-04-25T08:53:11.098Z</time></trkpt><trkpt lat="44.2245727" lon="11.6254941"><ele>196.0</ele><time>2026-04-25T08:53:14.089Z</time></trkpt><trkpt lat="44.2245146" lon="11.6254285"><ele>196.0</ele><time>2026-04-25T08:53:17.08Z</time></trkpt><trkpt lat="44.2244603" lon="11.6253636"><ele>196.0</ele><time>2026-04-25T08:53:20.089Z</time></trkpt><trkpt lat="44.2244023" lon="11.6253084"><ele>196.0</ele><time>2026-04-25T08:53:23.086Z</time></trkpt><trkpt lat="44.224325" lon="11.6253063"><ele>196.0</ele><time>2026-04-25T08:53:26.098Z</time></trkpt><trkpt lat="44.2242538" lon="11.6253007"><ele>196.0</ele><time>2026-04-25T08:53:29.11Z</time></trkpt><trkpt lat="44.224191" lon="11.62529"><ele>196.0</ele><time>2026-04-25T08:53:34.11Z</time></trkpt><trkpt lat="44.2241218" lon="11.6252873"><ele>196.0</ele><time>2026-04-25T08:53:40.072Z</time></trkpt><trkpt lat="44.2240559" lon="11.6252836"><ele>196.0</ele><time>2026-04-25T08:53:45.096Z</time></trkpt><trkpt lat="44.2239939" lon="11.6252667"><ele>196.0</ele><time>2026-04-25T08:54:00.052Z</time></trkpt><trkpt lat="44.2238898" lon="11.6252803"><ele>196.0</ele><time>2026-04-25T08:54:40.093Z</time></trkpt><trkpt lat="44.2238231" lon="11.6252771"><ele>196.0</ele><time>2026-04-25T08:54:56.102Z</time></trkpt><trkpt lat="44.223756" lon="11.6252875"><ele>196.0</ele><time>2026-04-25T08:55:07.112Z</time></trkpt><trkpt lat="44.223687" lon="11.6253335"><ele>196.0</ele><time>2026-04-25T08:55:17.086Z</time></trkpt><trkpt lat="44.2236244" lon="11.6253498"><ele>196.0</ele><time>2026-04-25T08:55:23.091Z</time></trkpt><trkpt lat="44.2235595" lon="11.6253388"><ele>196.0</ele><time>2026-04-25T08:55:29.104Z</time></trkpt><trkpt lat="44.223498" lon="11.6253156"><ele>196.0</ele><time>2026-04-25T08:55:33.972Z</time></trkpt><trkpt lat="44.2234331" lon="11.6252876"><ele>196.0</ele><time>2026-04-25T08:55:39.092Z</time></trkpt><trkpt lat="44.2233691" lon="11.6252674"><ele>196.0</ele><time>2026-04-25T08:55:44.085Z</time></trkpt><trkpt lat="44.2232944" lon="11.6252485"><ele>196.0</ele><time>2026-04-25T08:55:49.08Z</time></trkpt><trkpt lat="44.2232315" lon="11.6252249"><ele>196.0</ele><time>2026-04-25T08:55:54.094Z</time></trkpt><trkpt lat="44.2231631" lon="11.6252055"><ele>196.0</ele><time>2026-04-25T08:56:01.08Z</time></trkpt><trkpt lat="44.2230959" lon="11.6251875"><ele>196.0</ele><time>2026-04-25T08:56:06.083Z</time></trkpt><trkpt lat="44.2230315" lon="11.6251727"><ele>196.0</ele><time>2026-04-25T08:56:10.083Z</time></trkpt><trkpt lat="44.222969" lon="11.6251472"><ele>196.0</ele><time>2026-04-25T08:56:13.093Z</time></trkpt><trkpt lat="44.2229111" lon="11.6251073"><ele>196.0</ele><time>2026-04-25T08:56:16.056Z</time></trkpt><trkpt lat="44.2228447" lon="11.6251596"><ele>196.0</ele><time>2026-04-25T08:56:20.079Z</time></trkpt><trkpt lat="44.222782" lon="11.6252149"><ele>196.0</ele><time>2026-04-25T08:56:24.092Z</time></trkpt><trkpt lat="44.2227287" lon="11.6252692"><ele>196.0</ele><time>2026-04-25T08:56:28.047Z</time></trkpt><trkpt lat="44.2226745" lon="11.6253316"><ele>196.0</ele><time>2026-04-25T08:56:31.05Z</time></trkpt><trkpt lat="44.2226248" lon="11.6254136"><ele>196.0</ele><time>2026-04-25T08:56:34.066Z</time></trkpt><trkpt lat="44.2225966" lon="11.6255045"><ele>196.0</ele><time>2026-04-25T08:56:36.965Z</time></trkpt><trkpt lat="44.222604" lon="11.6256104"><ele>196.0</ele><time>2026-04-25T08:56:39.83Z</time></trkpt><trkpt lat="44.2226377" lon="11.6256888"><ele>196.0</ele><time>2026-04-25T08:56:41.778Z</time></trkpt><trkpt lat="44.2226713" lon="11.6257734"><ele>194.66666666666666</ele><time>2026-04-25T08:56:43.671Z</time></trkpt><trkpt lat="44.2227002" lon="11.6258516"><ele>193.33333333333331</ele><time>2026-04-25T08:56:45.546Z</time></trkpt><trkpt lat="44.2227495" lon="11.6259536"><ele>192.0</ele><time>2026-04-25T08:56:48.545Z</time></trkpt><trkpt lat="44.2227885" lon="11.626038"><ele>190.66666666666666</ele><time>2026-04-25T08:56:50.949Z</time></trkpt><trkpt lat="44.2228297" lon="11.6261254"><ele>189.33333333333331</ele><time>2026-04-25T08:56:54.088Z</time></trkpt><trkpt lat="44.2228718" lon="11.6262244"><ele>188.0</ele><time>2026-04-25T08:56:58.055Z</time></trkpt><trkpt lat="44.2229117" lon="11.6263075"><ele>186.33333333333331</ele><time>2026-04-25T08:57:02.099Z</time></trkpt><trkpt lat="44.2229454" lon="11.6263841"><ele>184.66666666666666</ele><time>2026-04-25T08:57:05.031Z</time></trkpt><trkpt lat="44.2229881" lon="11.626484"><ele>183.0</ele><time>2026-04-25T08:57:08.1Z</time></trkpt><trkpt lat="44.223036" lon="11.6265854"><ele>181.33333333333334</ele><time>2026-04-25T08:57:11.091Z</time></trkpt><trkpt lat="44.2230843" lon="11.6266802"><ele>179.66666666666669</ele><time>2026-04-25T08:57:14.013Z</time></trkpt><trkpt lat="44.2231384" lon="11.6267835"><ele>178.0</ele><time>2026-04-25T08:57:17.088Z</time></trkpt><trkpt lat="44.2231799" lon="11.6268627"><ele>178.0</ele><time>2026-04-25T08:57:19.93Z</time></trkpt><trkpt lat="44.2232138" lon="11.6269575"><ele>178.0</ele><time>2026-04-25T08:57:23.076Z</time></trkpt><trkpt lat="44.2232494" lon="11.6270543"><ele>178.0</ele><time>2026-04-25T08:57:26.029Z</time></trkpt><trkpt lat="44.2232902" lon="11.6271541"><ele>178.0</ele><time>2026-04-25T08:57:28.871Z</time></trkpt><trkpt lat="44.2233307" lon="11.6272475"><ele>178.0</ele><time>2026-04-25T08:57:31.816Z</time></trkpt><trkpt lat="44.2233844" lon="11.6273214"><ele>178.0</ele><time>2026-04-25T08:57:34.786Z</time></trkpt><trkpt lat="44.2234597" lon="11.6273602"><ele>175.7142857142857</ele><time>2026-04-25T08:57:37.968Z</time></trkpt><trkpt lat="44.2235238" lon="11.6273826"><ele>173.42857142857142</ele><time>2026-04-25T08:57:41.081Z</time></trkpt><trkpt lat="44.2235853" lon="11.6274068"><ele>171.14285714285714</ele><time>2026-04-25T08:57:44.052Z</time></trkpt><trkpt lat="44.2236533" lon="11.6274609"><ele>168.85714285714283</ele><time>2026-04-25T08:57:49.008Z</time></trkpt><trkpt lat="44.2237235" lon="11.6275133"><ele>166.57142857142856</ele><time>2026-04-25T08:57:53.091Z</time></trkpt><trkpt lat="44.2237983" lon="11.6275208"><ele>164.28571428571428</ele><time>2026-04-25T08:57:56.026Z</time></trkpt><trkpt lat="44.223882" lon="11.6275272"><ele>162.0</ele><time>2026-04-25T08:57:59.08Z</time></trkpt><trkpt lat="44.2239615" lon="11.6275368"><ele>162.14285714285714</ele><time>2026-04-25T08:58:02.029Z</time></trkpt><trkpt lat="44.2240376" lon="11.6275318"><ele>162.28571428571428</ele><time>2026-04-25T08:58:05.09Z</time></trkpt><trkpt lat="44.2241179" lon="11.6275181"><ele>162.42857142857144</ele><time>2026-04-25T08:58:08.083Z</time></trkpt><trkpt lat="44.2241865" lon="11.6275411"><ele>162.57142857142856</ele><time>2026-04-25T08:58:11.096Z</time></trkpt><trkpt lat="44.2242382" lon="11.6275979"><ele>162.7142857142857</ele><time>2026-04-25T08:58:14.087Z</time></trkpt><trkpt lat="44.224287" lon="11.6276733"><ele>162.85714285714286</ele><time>2026-04-25T08:58:18.08Z</time></trkpt><trkpt lat="44.2243248" lon="11.6277649"><ele>163.0</ele><time>2026-04-25T08:58:22.072Z</time></trkpt><trkpt lat="44.2243607" lon="11.6278439"><ele>163.0</ele><time>2026-04-25T08:58:25.104Z</time></trkpt><trkpt lat="44.2243902" lon="11.6279349"><ele>163.0</ele><time>2026-04-25T08:58:28.057Z</time></trkpt><trkpt lat="44.2244195" lon="11.6280322"><ele>163.0</ele><time>2026-04-25T08:58:31.059Z</time></trkpt><trkpt lat="44.2244445" lon="11.6281298"><ele>163.0</ele><time>2026-04-25T08:58:34.098Z</time></trkpt><trkpt lat="44.2244738" lon="11.628225"><ele>163.0</ele><time>2026-04-25T08:58:36.973Z</time></trkpt><trkpt lat="44.2245046" lon="11.6283156"><ele>163.0</ele><time>2026-04-25T08:58:40.092Z</time></trkpt><trkpt lat="44.224547" lon="11.6283956"><ele>163.0</ele><time>2026-04-25T08:58:43.088Z</time></trkpt><trkpt lat="44.2246284" lon="11.6284248"><ele>163.0</ele><time>2026-04-25T08:58:46.068Z</time></trkpt><trkpt lat="44.224722" lon="11.6284276"><ele>163.0</ele><time>2026-04-25T08:58:49.077Z</time></trkpt><trkpt lat="44.2248066" lon="11.6284481"><ele>163.0</ele><time>2026-04-25T08:58:52.078Z</time></trkpt><trkpt lat="44.2248754" lon="11.6284973"><ele>163.0</ele><time>2026-04-25T08:58:54.991Z</time></trkpt><trkpt lat="44.2249245" lon="11.6285703"><ele>163.0</ele><time>2026-04-25T08:58:58.111Z</time></trkpt><trkpt lat="44.2249334" lon="11.6286772"><ele>163.0</ele><time>2026-04-25T08:59:01.009Z</time></trkpt><trkpt lat="44.2249062" lon="11.6287804"><ele>164.0</ele><time>2026-04-25T08:59:04.101Z</time></trkpt><trkpt lat="44.2248686" lon="11.6288854"><ele>165.0</ele><time>2026-04-25T08:59:07.075Z</time></trkpt><trkpt lat="44.2248263" lon="11.6289818"><ele>166.0</ele><time>2026-04-25T08:59:10.07Z</time></trkpt><trkpt lat="44.2247822" lon="11.629078"><ele>167.0</ele><time>2026-04-25T08:59:13.108Z</time></trkpt><trkpt lat="44.2247386" lon="11.6291668"><ele>168.0</ele><time>2026-04-25T08:59:16.082Z</time></trkpt><trkpt lat="44.2246951" lon="11.6292562"><ele>169.0</ele><time>2026-04-25T08:59:19.074Z</time></trkpt><trkpt lat="44.2246525" lon="11.6293478"><ele>169.0</ele><time>2026-04-25T08:59:22.058Z</time></trkpt><trkpt lat="44.2246104" lon="11.6294363"><ele>169.0</ele><time>2026-04-25T08:59:25.101Z</time></trkpt><trkpt lat="44.2245677" lon="11.629529"><ele>169.0</ele><time>2026-04-25T08:59:28.013Z</time></trkpt><trkpt lat="44.224533" lon="11.629604"><ele>169.0</ele><time>2026-04-25T08:59:30.144Z</time></trkpt><trkpt lat="44.2244854" lon="11.6296964"><ele>169.0</ele><time>2026-04-25T08:59:32.975Z</time></trkpt><trkpt lat="44.2244319" lon="11.6297719"><ele>169.0</ele><time>2026-04-25T08:59:36.113Z</time></trkpt><trkpt lat="44.2243853" lon="11.629859"><ele>169.5</ele><time>2026-04-25T08:59:39.088Z</time></trkpt><trkpt lat="44.2243914" lon="11.6299794"><ele>170.0</ele><time>2026-04-25T08:59:42.077Z</time></trkpt><trkpt lat="44.2244454" lon="11.6300484"><ele>170.5</ele><time>2026-04-25T08:59:44.067Z</time></trkpt><trkpt lat="44.224505" lon="11.630145"><ele>171.0</ele><time>2026-04-25T08:59:47.088Z</time></trkpt><trkpt lat="44.2245288" lon="11.6302599"><ele>171.5</ele><time>2026-04-25T08:59:50.01Z</time></trkpt><trkpt lat="44.224521" lon="11.6303706"><ele>172.0</ele><time>2026-04-25T08:59:53.091Z</time></trkpt><trkpt lat="44.2245021" lon="11.6304629"><ele>172.00000000000003</ele><time>2026-04-25T08:59:56.109Z</time></trkpt><trkpt lat="44.2244877" lon="11.6305493"><ele>172.0</ele><time>2026-04-25T08:59:59.077Z</time></trkpt><trkpt lat="44.2244741" lon="11.6306523"><ele>172.0</ele><time>2026-04-25T09:00:02.068Z</time></trkpt><trkpt lat="44.2244722" lon="11.6307515"><ele>172.0</ele><time>2026-04-25T09:00:05.008Z</time></trkpt><trkpt lat="44.2244784" lon="11.6308426"><ele>172.0</ele><time>2026-04-25T09:00:08.084Z</time></trkpt><trkpt lat="44.2244915" lon="11.6309418"><ele>172.00000000000003</ele><time>2026-04-25T09:00:11.103Z</time></trkpt><trkpt lat="44.224511" lon="11.6310472"><ele>172.0</ele><time>2026-04-25T09:00:13.994Z</time></trkpt><trkpt lat="44.2245311" lon="11.6311705"><ele>174.83333333333334</ele><time>2026-04-25T09:00:17.065Z</time></trkpt><trkpt lat="44.2245495" lon="11.6312928"><ele>177.66666666666669</ele><time>2026-04-25T09:00:20.006Z</time></trkpt><trkpt lat="44.224562" lon="11.6313808"><ele>180.5</ele><time>2026-04-25T09:00:22.084Z</time></trkpt><trkpt lat="44.2245825" lon="11.6315023"><ele>183.33333333333334</ele><time>2026-04-25T09:00:24.975Z</time></trkpt><trkpt lat="44.2246098" lon="11.6316203"><ele>186.16666666666666</ele><time>2026-04-25T09:00:28.111Z</time></trkpt><trkpt lat="44.2246472" lon="11.6317203"><ele>189.0</ele><time>2026-04-25T09:00:31.092Z</time></trkpt><trkpt lat="44.2246806" lon="11.631818"><ele>189.0</ele><time>2026-04-25T09:00:34.094Z</time></trkpt><trkpt lat="44.2247225" lon="11.6319177"><ele>189.0</ele><time>2026-04-25T09:00:37.084Z</time></trkpt><trkpt lat="44.2247578" lon="11.6320175"><ele>189.0</ele><time>2026-04-25T09:00:40.072Z</time></trkpt><trkpt lat="44.2247991" lon="11.6321185"><ele>189.0</ele><time>2026-04-25T09:00:43.05Z</time></trkpt><trkpt lat="44.2248404" lon="11.6322106"><ele>189.0</ele><time>2026-04-25T09:00:46.083Z</time></trkpt><trkpt lat="44.2248926" lon="11.6322943"><ele>189.0</ele><time>2026-04-25T09:00:49.067Z</time></trkpt><trkpt lat="44.224963" lon="11.6323505"><ele>188.66666666666666</ele><time>2026-04-25T09:00:52.079Z</time></trkpt><trkpt lat="44.2250331" lon="11.6324042"><ele>188.33333333333334</ele><time>2026-04-25T09:00:55.098Z</time></trkpt><trkpt lat="44.2251091" lon="11.632453"><ele>188.0</ele><time>2026-04-25T09:00:58.067Z</time></trkpt><trkpt lat="44.2251855" lon="11.6324955"><ele>187.66666666666669</ele><time>2026-04-25T09:01:01.058Z</time></trkpt><trkpt lat="44.2252559" lon="11.6325379"><ele>187.33333333333334</ele><time>2026-04-25T09:01:04.175Z</time></trkpt><trkpt lat="44.2253152" lon="11.6325735"><ele>187.0</ele><time>2026-04-25T09:01:07.061Z</time></trkpt><trkpt lat="44.2253903" lon="11.6326145"><ele>187.0</ele><time>2026-04-25T09:01:10.995Z</time></trkpt><trkpt lat="44.2254666" lon="11.6326501"><ele>187.0</ele><time>2026-04-25T09:01:14.101Z</time></trkpt><trkpt lat="44.2255442" lon="11.6326523"><ele>187.0</ele><time>2026-04-25T09:01:17.013Z</time></trkpt><trkpt lat="44.2256095" lon="11.6326299"><ele>187.0</ele><time>2026-04-25T09:01:19.126Z</time></trkpt><trkpt lat="44.2256697" lon="11.6326022"><ele>187.0</ele><time>2026-04-25T09:01:21.092Z</time></trkpt><trkpt lat="44.2257561" lon="11.6325761"><ele>187.0</ele><time>2026-04-25T09:01:24.093Z</time></trkpt><trkpt lat="44.2258354" lon="11.6325528"><ele>183.0</ele><time>2026-04-25T09:01:27.101Z</time></trkpt><trkpt lat="44.225902" lon="11.6325226"><ele>179.0</ele><time>2026-04-25T09:01:30.109Z</time></trkpt><trkpt lat="44.2259695" lon="11.6324935"><ele>175.0</ele><time>2026-04-25T09:01:33.086Z</time></trkpt><trkpt lat="44.226049" lon="11.6324532"><ele>171.0</ele><time>2026-04-25T09:01:36.086Z</time></trkpt><trkpt lat="44.2261238" lon="11.6324032"><ele>167.0</ele><time>2026-04-25T09:01:39.089Z</time></trkpt><trkpt lat="44.2261919" lon="11.6323551"><ele>163.0</ele><time>2026-04-25T09:01:42.088Z</time></trkpt><trkpt lat="44.2262583" lon="11.6323107"><ele>163.0</ele><time>2026-04-25T09:01:45.1Z</time></trkpt><trkpt lat="44.2263257" lon="11.6322749"><ele>163.0</ele><time>2026-04-25T09:01:48.063Z</time></trkpt><trkpt lat="44.2263873" lon="11.6322483"><ele>163.0</ele><time>2026-04-25T09:01:50.089Z</time></trkpt><trkpt lat="44.2264753" lon="11.6322246"><ele>163.0</ele><time>2026-04-25T09:01:53.052Z</time></trkpt><trkpt lat="44.2265572" lon="11.6322058"><ele>163.0</ele><time>2026-04-25T09:01:56.094Z</time></trkpt><trkpt lat="44.2266334" lon="11.632186"><ele>163.0</ele><time>2026-04-25T09:01:58.977Z</time></trkpt><trkpt lat="44.2267173" lon="11.6321647"><ele>162.14285714285714</ele><time>2026-04-25T09:02:02.098Z</time></trkpt><trkpt lat="44.226794" lon="11.632153"><ele>161.28571428571428</ele><time>2026-04-25T09:02:04.713Z</time></trkpt><trkpt lat="44.2268616" lon="11.6321457"><ele>160.42857142857142</ele><time>2026-04-25T09:02:07.125Z</time></trkpt><trkpt lat="44.2269377" lon="11.6321379"><ele>159.57142857142856</ele><time>2026-04-25T09:02:10.081Z</time></trkpt><trkpt lat="44.2270034" lon="11.6321262"><ele>158.71428571428572</ele><time>2026-04-25T09:02:13.109Z</time></trkpt><trkpt lat="44.227078" lon="11.6321174"><ele>157.85714285714283</ele><time>2026-04-25T09:02:16.139Z</time></trkpt><trkpt lat="44.227153" lon="11.6321037"><ele>157.0</ele><time>2026-04-25T09:02:19.014Z</time></trkpt><trkpt lat="44.2272252" lon="11.6320788"><ele>156.99999999999997</ele><time>2026-04-25T09:02:22.083Z</time></trkpt><trkpt lat="44.2272998" lon="11.6320494"><ele>157.0</ele><time>2026-04-25T09:02:26.08Z</time></trkpt><trkpt lat="44.2273653" lon="11.6320057"><ele>157.0</ele><time>2026-04-25T09:02:29.996Z</time></trkpt><trkpt lat="44.2273446" lon="11.6319011"><ele>157.0</ele><time>2026-04-25T09:02:34.058Z</time></trkpt><trkpt lat="44.2272813" lon="11.631875"><ele>157.0</ele><time>2026-04-25T09:02:40.081Z</time></trkpt><trkpt lat="44.2272174" lon="11.6318558"><ele>156.99999999999997</ele><time>2026-04-25T09:02:47.084Z</time></trkpt><trkpt lat="44.2271468" lon="11.6318478"><ele>157.0</ele><time>2026-04-25T09:02:54.095Z</time></trkpt><trkpt lat="44.2270906" lon="11.6318876"><ele>157.0</ele><time>2026-04-25T09:03:02.11Z</time></trkpt><trkpt lat="44.2271022" lon="11.6320013"><ele>157.0</ele><time>2026-04-25T09:03:06.072Z</time></trkpt><trkpt lat="44.2271137" lon="11.6321029"><ele>157.0</ele><time>2026-04-25T09:03:09.072Z</time></trkpt><trkpt lat="44.2271234" lon="11.6322074"><ele>157.0</ele><time>2026-04-25T09:03:12.076Z</time></trkpt><trkpt lat="44.2271359" lon="11.6323148"><ele>157.0</ele><time>2026-04-25T09:03:14.977Z</time></trkpt><trkpt lat="44.2271508" lon="11.6324406"><ele>157.0</ele><time>2026-04-25T09:03:18.128Z</time></trkpt><trkpt lat="44.2271591" lon="11.6325384"><ele>157.0</ele><time>2026-04-25T09:03:21.008Z</time></trkpt><trkpt lat="44.22717" lon="11.6326457"><ele>157.0</ele><time>2026-04-25T09:03:24.088Z</time></trkpt><trkpt lat="44.2271855" lon="11.6327414"><ele>157.0</ele><time>2026-04-25T09:03:27.169Z</time></trkpt><trkpt lat="44.2272105" lon="11.6328407"><ele>157.0</ele><time>2026-04-25T09:03:31.103Z</time></trkpt><trkpt lat="44.2272398" lon="11.6329428"><ele>157.0</ele><time>2026-04-25T09:03:35.087Z</time></trkpt><trkpt lat="44.2272584" lon="11.6330573"><ele>157.0</ele><time>2026-04-25T09:03:39.104Z</time></trkpt><trkpt lat="44.2272618" lon="11.6331494"><ele>159.28571428571428</ele><time>2026-04-25T09:03:42.112Z</time></trkpt><trkpt lat="44.2272506" lon="11.6332595"><ele>161.57142857142856</ele><time>2026-04-25T09:03:46.073Z</time></trkpt><trkpt lat="44.2272358" lon="11.6333571"><ele>163.85714285714283</ele><time>2026-04-25T09:03:49.435Z</time></trkpt><trkpt lat="44.2272274" lon="11.6334461"><ele>166.14285714285714</ele><time>2026-04-25T09:03:52.654Z</time></trkpt><trkpt lat="44.2272054" lon="11.633545"><ele>168.42857142857144</ele><time>2026-04-25T09:03:57.083Z</time></trkpt><trkpt lat="44.2271902" lon="11.6336354"><ele>170.7142857142857</ele><time>2026-04-25T09:04:01.107Z</time></trkpt><trkpt lat="44.2271854" lon="11.6337257"><ele>173.0</ele><time>2026-04-25T09:04:06.095Z</time></trkpt><trkpt lat="44.2271657" lon="11.6338173"><ele>174.28571428571428</ele><time>2026-04-25T09:04:12.114Z</time></trkpt><trkpt lat="44.2271382" lon="11.6338992"><ele>175.57142857142858</ele><time>2026-04-25T09:04:18.12Z</time></trkpt><trkpt lat="44.2271043" lon="11.6339836"><ele>176.85714285714286</ele><time>2026-04-25T09:04:23.093Z</time></trkpt><trkpt lat="44.2270476" lon="11.6340352"><ele>178.14285714285714</ele><time>2026-04-25T09:04:28.081Z</time></trkpt><trkpt lat="44.2269798" lon="11.6340679"><ele>179.42857142857144</ele><time>2026-04-25T09:04:33.13Z</time></trkpt><trkpt lat="44.2269145" lon="11.6340541"><ele>180.71428571428572</ele><time>2026-04-25T09:04:38.104Z</time></trkpt><trkpt lat="44.2268511" lon="11.6340021"><ele>182.0</ele><time>2026-04-25T09:04:44.099Z</time></trkpt><trkpt lat="44.2268228" lon="11.6339203"><ele>182.0</ele><time>2026-04-25T09:04:49.086Z</time></trkpt><trkpt lat="44.2268343" lon="11.6338318"><ele>182.0</ele><time>2026-04-25T09:04:54.101Z</time></trkpt><trkpt lat="44.2268689" lon="11.6337425"><ele>182.0</ele><time>2026-04-25T09:04:59.112Z</time></trkpt><trkpt lat="44.2269116" lon="11.633656"><ele>182.0</ele><time>2026-04-25T09:05:04.106Z</time></trkpt><trkpt lat="44.2269436" lon="11.6335711"><ele>182.0</ele><time>2026-04-25T09:05:08.086Z</time></trkpt><trkpt lat="44.2269628" lon="11.6334867"><ele>182.0</ele><time>2026-04-25T09:05:11.026Z</time></trkpt><trkpt lat="44.2269639" lon="11.6333987"><ele>182.0</ele><time>2026-04-25T09:05:14.087Z</time></trkpt><trkpt lat="44.2269246" lon="11.6333163"><ele>182.0</ele><time>2026-04-25T09:05:20.075Z</time></trkpt><trkpt lat="44.2268418" lon="11.6333134"><ele>182.0</ele><time>2026-04-25T09:05:24.095Z</time></trkpt><trkpt lat="44.2267701" lon="11.6333553"><ele>182.0</ele><time>2026-04-25T09:05:29.098Z</time></trkpt><trkpt lat="44.2267112" lon="11.633407"><ele>182.0</ele><time>2026-04-25T09:05:33.998Z</time></trkpt><trkpt lat="44.2266788" lon="11.6334829"><ele>182.0</ele><time>2026-04-25T09:05:38.049Z</time></trkpt><trkpt lat="44.2266705" lon="11.6335813"><ele>182.0</ele><time>2026-04-25T09:05:43.082Z</time></trkpt><trkpt lat="44.2266756" lon="11.6336807"><ele>182.0</ele><time>2026-04-25T09:05:48.087Z</time></trkpt><trkpt lat="44.2266698" lon="11.6337909"><ele>182.0</ele><time>2026-04-25T09:05:53.036Z</time></trkpt><trkpt lat="44.2266496" lon="11.633884"><ele>182.0</ele><time>2026-04-25T09:05:57.098Z</time></trkpt><trkpt lat="44.2266508" lon="11.6339807"><ele>182.0</ele><time>2026-04-25T09:06:02.096Z</time></trkpt><trkpt lat="44.2266739" lon="11.6340668"><ele>182.0</ele><time>2026-04-25T09:06:07.106Z</time></trkpt><trkpt lat="44.2266991" lon="11.6341618"><ele>182.0</ele><time>2026-04-25T09:06:12.092Z</time></trkpt><trkpt lat="44.226738" lon="11.6342423"><ele>182.0</ele><time>2026-04-25T09:06:17.089Z</time></trkpt><trkpt lat="44.2267789" lon="11.6343219"><ele>182.0</ele><time>2026-04-25T09:06:22.077Z</time></trkpt><trkpt lat="44.2268068" lon="11.6344179"><ele>182.28571428571428</ele><time>2026-04-25T09:06:27.097Z</time></trkpt><trkpt lat="44.226809" lon="11.6345273"><ele>182.57142857142856</ele><time>2026-04-25T09:06:32.065Z</time></trkpt><trkpt lat="44.2267854" lon="11.634611"><ele>182.85714285714286</ele><time>2026-04-25T09:06:36.085Z</time></trkpt><trkpt lat="44.2267415" lon="11.6346758"><ele>183.14285714285714</ele><time>2026-04-25T09:06:41.099Z</time></trkpt><trkpt lat="44.2266823" lon="11.6347083"><ele>183.42857142857142</ele><time>2026-04-25T09:06:46.072Z</time></trkpt><trkpt lat="44.2266191" lon="11.6347111"><ele>183.71428571428572</ele><time>2026-04-25T09:06:51.104Z</time></trkpt><trkpt lat="44.2265578" lon="11.6346848"><ele>184.0</ele><time>2026-04-25T09:06:58.058Z</time></trkpt><trkpt lat="44.2265162" lon="11.6346177"><ele>184.0</ele><time>2026-04-25T09:07:29.086Z</time></trkpt><trkpt lat="44.226488" lon="11.6345349"><ele>184.0</ele><time>2026-04-25T09:07:36.087Z</time></trkpt><trkpt lat="44.2264619" lon="11.634448"><ele>184.0</ele><time>2026-04-25T09:07:44.079Z</time></trkpt><trkpt lat="44.226446" lon="11.6343592"><ele>184.0</ele><time>2026-04-25T09:07:51.091Z</time></trkpt><trkpt lat="44.2264311" lon="11.6342621"><ele>184.0</ele><time>2026-04-25T09:07:57.096Z</time></trkpt><trkpt lat="44.2264148" lon="11.6341681"><ele>184.0</ele><time>2026-04-25T09:08:03.096Z</time></trkpt><trkpt lat="44.2263921" lon="11.634085"><ele>184.0</ele><time>2026-04-25T09:08:08.067Z</time></trkpt><trkpt lat="44.2263868" lon="11.6339876"><ele>185.0</ele><time>2026-04-25T09:08:13.068Z</time></trkpt><trkpt lat="44.2263979" lon="11.6338743"><ele>186.0</ele><time>2026-04-25T09:08:17.096Z</time></trkpt><trkpt lat="44.2263814" lon="11.6337824"><ele>187.0</ele><time>2026-04-25T09:08:20.104Z</time></trkpt><trkpt lat="44.2263575" lon="11.6336877"><ele>188.0</ele><time>2026-04-25T09:08:23.074Z</time></trkpt><trkpt lat="44.2263218" lon="11.6336016"><ele>189.0</ele><time>2026-04-25T09:08:26.062Z</time></trkpt><trkpt lat="44.2262593" lon="11.633532"><ele>190.0</ele><time>2026-04-25T09:08:29.071Z</time></trkpt><trkpt lat="44.2261934" lon="11.6335076"><ele>191.0</ele><time>2026-04-25T09:08:32.133Z</time></trkpt><trkpt lat="44.2261111" lon="11.6335275"><ele>191.0</ele><time>2026-04-25T09:08:36.127Z</time></trkpt><trkpt lat="44.2260628" lon="11.6336052"><ele>191.0</ele><time>2026-04-25T09:08:40.009Z</time></trkpt><trkpt lat="44.2260726" lon="11.633709"><ele>191.0</ele><time>2026-04-25T09:08:44.083Z</time></trkpt><trkpt lat="44.226088" lon="11.633806"><ele>191.0</ele><time>2026-04-25T09:08:48.075Z</time></trkpt><trkpt lat="44.2260944" lon="11.6338937"><ele>191.0</ele><time>2026-04-25T09:08:52.061Z</time></trkpt><trkpt lat="44.2261075" lon="11.6339849"><ele>191.0</ele><time>2026-04-25T09:08:55.992Z</time></trkpt><trkpt lat="44.2261244" lon="11.6340855"><ele>191.0</ele><time>2026-04-25T09:09:01.093Z</time></trkpt><trkpt lat="44.2261466" lon="11.634185"><ele>192.71428571428572</ele><time>2026-04-25T09:09:05.009Z</time></trkpt><trkpt lat="44.2261625" lon="11.6342732"><ele>194.42857142857142</ele><time>2026-04-25T09:09:08.078Z</time></trkpt><trkpt lat="44.2261741" lon="11.6343746"><ele>196.14285714285714</ele><time>2026-04-25T09:09:12.09Z</time></trkpt><trkpt lat="44.2261701" lon="11.6344665"><ele>197.85714285714286</ele><time>2026-04-25T09:09:16.053Z</time></trkpt><trkpt lat="44.2261752" lon="11.6345698"><ele>199.57142857142856</ele><time>2026-04-25T09:09:20.134Z</time></trkpt><trkpt lat="44.2261822" lon="11.6346747"><ele>201.28571428571428</ele><time>2026-04-25T09:09:24.056Z</time></trkpt><trkpt lat="44.2261949" lon="11.6347869"><ele>203.0</ele><time>2026-04-25T09:09:28.088Z</time></trkpt><trkpt lat="44.2262023" lon="11.6348959"><ele>203.42857142857142</ele><time>2026-04-25T09:09:32.072Z</time></trkpt><trkpt lat="44.2262222" lon="11.6350073"><ele>203.85714285714286</ele><time>2026-04-25T09:09:36.106Z</time></trkpt><trkpt lat="44.2262325" lon="11.635112"><ele>204.28571428571428</ele><time>2026-04-25T09:09:40.018Z</time></trkpt><trkpt lat="44.2262336" lon="11.6352213"><ele>204.71428571428572</ele><time>2026-04-25T09:09:44.089Z</time></trkpt><trkpt lat="44.2262362" lon="11.6353217"><ele>205.14285714285714</ele><time>2026-04-25T09:09:48.076Z</time></trkpt><trkpt lat="44.2262438" lon="11.6354124"><ele>205.57142857142856</ele><time>2026-04-25T09:09:52.083Z</time></trkpt><trkpt lat="44.2262453" lon="11.6355115"><ele>206.0</ele><time>2026-04-25T09:09:56.088Z</time></trkpt><trkpt lat="44.2262472" lon="11.635613"><ele>207.28571428571428</ele><time>2026-04-25T09:10:01.065Z</time></trkpt><trkpt lat="44.2262439" lon="11.6357037"><ele>208.57142857142856</ele><time>2026-04-25T09:10:04.969Z</time></trkpt><trkpt lat="44.2262548" lon="11.6358049"><ele>209.85714285714283</ele><time>2026-04-25T09:10:09.044Z</time></trkpt><trkpt lat="44.2262695" lon="11.6359056"><ele>211.14285714285714</ele><time>2026-04-25T09:10:13.111Z</time></trkpt><trkpt lat="44.2262713" lon="11.6360099"><ele>212.42857142857144</ele><time>2026-04-25T09:10:17.092Z</time></trkpt><trkpt lat="44.2262812" lon="11.6361112"><ele>213.7142857142857</ele><time>2026-04-25T09:10:21.115Z</time></trkpt><trkpt lat="44.2262984" lon="11.6362063"><ele>215.0</ele><time>2026-04-25T09:10:25.012Z</time></trkpt><trkpt lat="44.2263234" lon="11.6362974"><ele>214.28571428571428</ele><time>2026-04-25T09:10:29.084Z</time></trkpt><trkpt lat="44.2263435" lon="11.6363897"><ele>213.57142857142858</ele><time>2026-04-25T09:10:33.128Z</time></trkpt><trkpt lat="44.2263735" lon="11.6364745"><ele>212.85714285714286</ele><time>2026-04-25T09:10:37.091Z</time></trkpt><trkpt lat="44.226413" lon="11.6365678"><ele>212.14285714285714</ele><time>2026-04-25T09:10:41.084Z</time></trkpt><trkpt lat="44.2264539" lon="11.6366521"><ele>211.42857142857144</ele><time>2026-04-25T09:10:44.99Z</time></trkpt><trkpt lat="44.2264911" lon="11.6367353"><ele>210.71428571428572</ele><time>2026-04-25T09:10:49.089Z</time></trkpt><trkpt lat="44.2265214" lon="11.6368267"><ele>210.0</ele><time>2026-04-25T09:10:54.083Z</time></trkpt><trkpt lat="44.2265645" lon="11.6369026"><ele>212.57142857142856</ele><time>2026-04-25T09:11:00.087Z</time></trkpt><trkpt lat="44.2265869" lon="11.6369941"><ele>215.14285714285714</ele><time>2026-04-25T09:11:05.263Z</time></trkpt><trkpt lat="44.22662" lon="11.6370757"><ele>217.71428571428572</ele><time>2026-04-25T09:11:10.094Z</time></trkpt><trkpt lat="44.2266591" lon="11.6371586"><ele>220.28571428571428</ele><time>2026-04-25T09:11:15.079Z</time></trkpt><trkpt lat="44.2267016" lon="11.6372417"><ele>222.85714285714283</ele><time>2026-04-25T09:11:20.078Z</time></trkpt><trkpt lat="44.2267474" lon="11.6373104"><ele>225.42857142857142</ele><time>2026-04-25T09:11:25.079Z</time></trkpt><trkpt lat="44.2267931" lon="11.6373767"><ele>228.0</ele><time>2026-04-25T09:11:30.088Z</time></trkpt><trkpt lat="44.226827" lon="11.6374536"><ele>228.0</ele><time>2026-04-25T09:11:35.089Z</time></trkpt><trkpt lat="44.2268586" lon="11.6375401"><ele>227.99999999999997</ele><time>2026-04-25T09:11:41.092Z</time></trkpt><trkpt lat="44.2268776" lon="11.6376288"><ele>228.0</ele><time>2026-04-25T09:11:45.066Z</time></trkpt><trkpt lat="44.2269074" lon="11.6377098"><ele>228.0</ele><time>2026-04-25T09:11:48.095Z</time></trkpt><trkpt lat="44.2269464" lon="11.6377964"><ele>227.99999999999997</ele><time>2026-04-25T09:11:52.099Z</time></trkpt><trkpt lat="44.2269925" lon="11.637878"><ele>228.0</ele><time>2026-04-25T09:11:56.099Z</time></trkpt><trkpt lat="44.2270404" lon="11.6379535"><ele>228.0</ele><time>2026-04-25T09:12:00.065Z</time></trkpt><trkpt lat="44.2270996" lon="11.6380186"><ele>227.5</ele><time>2026-04-25T09:12:04.1Z</time></trkpt><trkpt lat="44.2271417" lon="11.6380981"><ele>227.0</ele><time>2026-04-25T09:12:08.075Z</time></trkpt><trkpt lat="44.227185" lon="11.6381941"><ele>226.5</ele><time>2026-04-25T09:12:13.095Z</time></trkpt><trkpt lat="44.2272361" lon="11.6382687"><ele>226.0</ele><time>2026-04-25T09:12:17.02Z</time></trkpt><trkpt lat="44.2272855" lon="11.6383559"><ele>225.5</ele><time>2026-04-25T09:12:21.071Z</time></trkpt><trkpt lat="44.2273448" lon="11.6384082"><ele>225.0</ele><time>2026-04-25T09:12:25.076Z</time></trkpt><trkpt lat="44.2274015" lon="11.6384798"><ele>225.00000000000003</ele><time>2026-04-25T09:12:29.094Z</time></trkpt><trkpt lat="44.2274595" lon="11.6385469"><ele>225.0</ele><time>2026-04-25T09:12:33.082Z</time></trkpt><trkpt lat="44.2275208" lon="11.6386048"><ele>225.00000000000003</ele><time>2026-04-25T09:12:37.098Z</time></trkpt><trkpt lat="44.2275759" lon="11.6386794"><ele>225.00000000000003</ele><time>2026-04-25T09:12:41.078Z</time></trkpt><trkpt lat="44.2276304" lon="11.638745"><ele>225.0</ele><time>2026-04-25T09:12:45.035Z</time></trkpt><trkpt lat="44.2276868" lon="11.6388191"><ele>225.00000000000003</ele><time>2026-04-25T09:12:49.132Z</time></trkpt><trkpt lat="44.2277326" lon="11.6388934"><ele>225.00000000000003</ele><time>2026-04-25T09:12:53.071Z</time></trkpt><trkpt lat="44.2277814" lon="11.6389681"><ele>228.42857142857144</ele><time>2026-04-25T09:12:56.997Z</time></trkpt><trkpt lat="44.2278276" lon="11.6390419"><ele>231.85714285714286</ele><time>2026-04-25T09:13:01.101Z</time></trkpt><trkpt lat="44.2278719" lon="11.6391123"><ele>235.28571428571428</ele><time>2026-04-25T09:13:05.108Z</time></trkpt><trkpt lat="44.2279149" lon="11.6391941"><ele>238.71428571428572</ele><time>2026-04-25T09:13:09.115Z</time></trkpt><trkpt lat="44.2279525" lon="11.6392859"><ele>242.1428571428571</ele><time>2026-04-25T09:13:13.087Z</time></trkpt><trkpt lat="44.2279917" lon="11.6393717"><ele>245.57142857142856</ele><time>2026-04-25T09:13:16.991Z</time></trkpt><trkpt lat="44.228032" lon="11.639448"><ele>249.0</ele><time>2026-04-25T09:13:21.979Z</time></trkpt><trkpt lat="44.2280768" lon="11.6395249"><ele>250.14285714285714</ele><time>2026-04-25T09:13:28.087Z</time></trkpt><trkpt lat="44.2281159" lon="11.639604"><ele>251.28571428571428</ele><time>2026-04-25T09:13:34.076Z</time></trkpt><trkpt lat="44.2281568" lon="11.6396738"><ele>252.42857142857142</ele><time>2026-04-25T09:13:39.082Z</time></trkpt><trkpt lat="44.2282036" lon="11.6397433"><ele>253.57142857142856</ele><time>2026-04-25T09:13:44.025Z</time></trkpt><trkpt lat="44.2282497" lon="11.6398046"><ele>254.71428571428572</ele><time>2026-04-25T09:13:49.088Z</time></trkpt><trkpt lat="44.2282938" lon="11.6398837"><ele>255.85714285714283</ele><time>2026-04-25T09:13:54.08Z</time></trkpt><trkpt lat="44.228331" lon="11.6399696"><ele>257.0</ele><time>2026-04-25T09:13:59.052Z</time></trkpt><trkpt lat="44.2283664" lon="11.6400614"><ele>253.50000000000003</ele><time>2026-04-25T09:14:04.106Z</time></trkpt><trkpt lat="44.2283865" lon="11.640171"><ele>250.0</ele><time>2026-04-25T09:14:09.112Z</time></trkpt><trkpt lat="44.2283837" lon="11.6402809"><ele>246.5</ele><time>2026-04-25T09:14:13.069Z</time></trkpt><trkpt lat="44.2283526" lon="11.6403795"><ele>243.0</ele><time>2026-04-25T09:14:17.068Z</time></trkpt><trkpt lat="44.2282987" lon="11.6404508"><ele>239.50000000000003</ele><time>2026-04-25T09:14:21.07Z</time></trkpt><trkpt lat="44.2282429" lon="11.6405306"><ele>236.0</ele><time>2026-04-25T09:14:25.118Z</time></trkpt><trkpt lat="44.2281784" lon="11.6405892"><ele>238.50000000000003</ele><time>2026-04-25T09:14:29.068Z</time></trkpt><trkpt lat="44.228112" lon="11.6406374"><ele>241.0</ele><time>2026-04-25T09:14:33.081Z</time></trkpt><trkpt lat="44.2280432" lon="11.6406862"><ele>243.5</ele><time>2026-04-25T09:14:37.094Z</time></trkpt><trkpt lat="44.2279718" lon="11.6407389"><ele>246.0</ele><time>2026-04-25T09:14:41.097Z</time></trkpt><trkpt lat="44.2279002" lon="11.6407975"><ele>248.50000000000003</ele><time>2026-04-25T09:14:45.123Z</time></trkpt><trkpt lat="44.2278409" lon="11.6408741"><ele>251.0</ele><time>2026-04-25T09:14:49.095Z</time></trkpt><trkpt lat="44.2277756" lon="11.6409416"><ele>251.00000000000003</ele><time>2026-04-25T09:14:53.091Z</time></trkpt><trkpt lat="44.2277192" lon="11.6410093"><ele>251.0</ele><time>2026-04-25T09:14:57.085Z</time></trkpt><trkpt lat="44.2276665" lon="11.6410753"><ele>251.0</ele><time>2026-04-25T09:15:01.074Z</time></trkpt><trkpt lat="44.2276054" lon="11.641148"><ele>251.0</ele><time>2026-04-25T09:15:05.114Z</time></trkpt><trkpt lat="44.2275473" lon="11.6412236"><ele>251.00000000000003</ele><time>2026-04-25T09:15:09.117Z</time></trkpt><trkpt lat="44.2275003" lon="11.6412997"><ele>251.0</ele><time>2026-04-25T09:15:13.086Z</time></trkpt><trkpt lat="44.227452" lon="11.6413771"><ele>250.28571428571425</ele><time>2026-04-25T09:15:17.063Z</time></trkpt><trkpt lat="44.2273917" lon="11.6414473"><ele>249.57142857142856</ele><time>2026-04-25T09:15:21.109Z</time></trkpt><trkpt lat="44.2273392" lon="11.6415175"><ele>248.85714285714286</ele><time>2026-04-25T09:15:25.11Z</time></trkpt><trkpt lat="44.2272871" lon="11.6415804"><ele>248.14285714285714</ele><time>2026-04-25T09:15:28.975Z</time></trkpt><trkpt lat="44.2272376" lon="11.6416413"><ele>247.42857142857144</ele><time>2026-04-25T09:15:32.977Z</time></trkpt><trkpt lat="44.2271838" lon="11.6417059"><ele>246.71428571428575</ele><time>2026-04-25T09:15:37.017Z</time></trkpt><trkpt lat="44.2271276" lon="11.641782"><ele>246.00000000000003</ele><time>2026-04-25T09:15:41.055Z</time></trkpt><trkpt lat="44.2270789" lon="11.641855"><ele>247.28571428571433</ele><time>2026-04-25T09:15:45.066Z</time></trkpt><trkpt lat="44.2270251" lon="11.6419245"><ele>248.57142857142858</ele><time>2026-04-25T09:15:49.154Z</time></trkpt><trkpt lat="44.2269787" lon="11.6419988"><ele>249.8571428571429</ele><time>2026-04-25T09:15:53.09Z</time></trkpt><trkpt lat="44.2269342" lon="11.6420623"><ele>251.14285714285717</ele><time>2026-04-25T09:15:56.126Z</time></trkpt><trkpt lat="44.2268832" lon="11.6421313"><ele>252.42857142857144</ele><time>2026-04-25T09:16:00.084Z</time></trkpt><trkpt lat="44.2268285" lon="11.6421962"><ele>253.71428571428572</ele><time>2026-04-25T09:16:04.077Z</time></trkpt><trkpt lat="44.2267712" lon="11.6422685"><ele>255.0</ele><time>2026-04-25T09:16:08.077Z</time></trkpt><trkpt lat="44.2267159" lon="11.6423376"><ele>255.0</ele><time>2026-04-25T09:16:12.115Z</time></trkpt><trkpt lat="44.2266622" lon="11.6424102"><ele>255.00000000000003</ele><time>2026-04-25T09:16:16.099Z</time></trkpt><trkpt lat="44.2266072" lon="11.6424887"><ele>255.0</ele><time>2026-04-25T09:16:20.099Z</time></trkpt><trkpt lat="44.2265565" lon="11.6425656"><ele>255.0</ele><time>2026-04-25T09:16:24.08Z</time></trkpt><trkpt lat="44.2265088" lon="11.642642"><ele>255.00000000000003</ele><time>2026-04-25T09:16:28.066Z</time></trkpt><trkpt lat="44.2264679" lon="11.6427109"><ele>255.0</ele><time>2026-04-25T09:16:32.034Z</time></trkpt><trkpt lat="44.2264169" lon="11.642767"><ele>255.0</ele><time>2026-04-25T09:16:37.112Z</time></trkpt><trkpt lat="44.2263678" lon="11.6428314"><ele>256.8571428571429</ele><time>2026-04-25T09:16:42.083Z</time></trkpt><trkpt lat="44.2263232" lon="11.6428967"><ele>258.7142857142857</ele><time>2026-04-25T09:16:47.102Z</time></trkpt><trkpt lat="44.2262748" lon="11.6429613"><ele>260.57142857142856</ele><time>2026-04-25T09:16:52.103Z</time></trkpt><trkpt lat="44.2262249" lon="11.6430214"><ele>262.42857142857144</ele><time>2026-04-25T09:16:57.09Z</time></trkpt><trkpt lat="44.2261757" lon="11.6430891"><ele>264.2857142857143</ele><time>2026-04-25T09:17:02.104Z</time></trkpt><trkpt lat="44.2261237" lon="11.6431557"><ele>266.14285714285717</ele><time>2026-04-25T09:17:08.095Z</time></trkpt><trkpt lat="44.2260756" lon="11.6432166"><ele>268.0</ele><time>2026-04-25T09:17:13.116Z</time></trkpt><trkpt lat="44.2260191" lon="11.643284"><ele>268.0</ele><time>2026-04-25T09:17:19.093Z</time></trkpt><trkpt lat="44.2259702" lon="11.6433483"><ele>268.0</ele><time>2026-04-25T09:17:24.071Z</time></trkpt><trkpt lat="44.2259221" lon="11.6434137"><ele>268.0</ele><time>2026-04-25T09:17:29.074Z</time></trkpt><trkpt lat="44.2258757" lon="11.6434833"><ele>268.0</ele><time>2026-04-25T09:17:35.118Z</time></trkpt><trkpt lat="44.225832" lon="11.6435496"><ele>268.0</ele><time>2026-04-25T09:17:40.094Z</time></trkpt><trkpt lat="44.225778" lon="11.6436121"><ele>268.0</ele><time>2026-04-25T09:17:45.098Z</time></trkpt><trkpt lat="44.2257352" lon="11.6436872"><ele>268.0</ele><time>2026-04-25T09:17:50.097Z</time></trkpt><trkpt lat="44.2256914" lon="11.6437563"><ele>268.8571428571429</ele><time>2026-04-25T09:17:55.093Z</time></trkpt><trkpt lat="44.2256351" lon="11.6438277"><ele>269.7142857142857</ele><time>2026-04-25T09:18:01.067Z</time></trkpt><trkpt lat="44.2255805" lon="11.6438907"><ele>270.57142857142856</ele><time>2026-04-25T09:18:07.113Z</time></trkpt><trkpt lat="44.2255268" lon="11.6439531"><ele>271.42857142857144</ele><time>2026-04-25T09:18:13.078Z</time></trkpt><trkpt lat="44.2254658" lon="11.6440097"><ele>272.2857142857143</ele><time>2026-04-25T09:18:19.075Z</time></trkpt><trkpt lat="44.2254071" lon="11.6440643"><ele>273.14285714285717</ele><time>2026-04-25T09:18:24.016Z</time></trkpt><trkpt lat="44.2253446" lon="11.6441025"><ele>274.0</ele><time>2026-04-25T09:18:27.082Z</time></trkpt><trkpt lat="44.2252814" lon="11.6441334"><ele>274.0</ele><time>2026-04-25T09:18:30.109Z</time></trkpt><trkpt lat="44.2252077" lon="11.6441489"><ele>274.0</ele><time>2026-04-25T09:18:34.068Z</time></trkpt><trkpt lat="44.2251325" lon="11.6441547"><ele>274.0</ele><time>2026-04-25T09:18:38.096Z</time></trkpt><trkpt lat="44.2250482" lon="11.6441568"><ele>274.0</ele><time>2026-04-25T09:18:42.118Z</time></trkpt><trkpt lat="44.2249645" lon="11.6441857"><ele>274.0</ele><time>2026-04-25T09:18:46.109Z</time></trkpt><trkpt lat="44.224896" lon="11.6442028"><ele>274.0</ele><time>2026-04-25T09:18:49.073Z</time></trkpt><trkpt lat="44.2248328" lon="11.6442197"><ele>275.8571428571429</ele><time>2026-04-25T09:18:51.965Z</time></trkpt><trkpt lat="44.2247685" lon="11.6442432"><ele>277.7142857142857</ele><time>2026-04-25T09:18:55.093Z</time></trkpt><trkpt lat="44.224687" lon="11.6442702"><ele>279.57142857142856</ele><time>2026-04-25T09:18:58.995Z</time></trkpt><trkpt lat="44.2246111" lon="11.6442953"><ele>281.42857142857144</ele><time>2026-04-25T09:19:02.995Z</time></trkpt><trkpt lat="44.2245396" lon="11.644314"><ele>283.2857142857143</ele><time>2026-04-25T09:19:06.956Z</time></trkpt><trkpt lat="44.2244676" lon="11.6443467"><ele>285.14285714285717</ele><time>2026-04-25T09:19:10.075Z</time></trkpt><trkpt lat="44.2244025" lon="11.6443913"><ele>287.0</ele><time>2026-04-25T09:19:13.036Z</time></trkpt><trkpt lat="44.2243359" lon="11.6444584"><ele>285.7142857142857</ele><time>2026-04-25T09:19:17.078Z</time></trkpt><trkpt lat="44.2242808" lon="11.6445285"><ele>284.42857142857144</ele><time>2026-04-25T09:19:20.996Z</time></trkpt><trkpt lat="44.2242335" lon="11.6445986"><ele>283.1428571428571</ele><time>2026-04-25T09:19:24.122Z</time></trkpt><trkpt lat="44.2241856" lon="11.6446724"><ele>281.8571428571429</ele><time>2026-04-25T09:19:28.093Z</time></trkpt><trkpt lat="44.2241321" lon="11.6447354"><ele>280.57142857142856</ele><time>2026-04-25T09:19:32.109Z</time></trkpt><trkpt lat="44.2240739" lon="11.644812"><ele>279.2857142857143</ele><time>2026-04-25T09:19:36.094Z</time></trkpt><trkpt lat="44.2240217" lon="11.6448991"><ele>278.0</ele><time>2026-04-25T09:19:40.095Z</time></trkpt><trkpt lat="44.2239581" lon="11.6449495"><ele>281.2857142857143</ele><time>2026-04-25T09:19:44.08Z</time></trkpt><trkpt lat="44.2238973" lon="11.6449939"><ele>284.57142857142856</ele><time>2026-04-25T09:19:48.105Z</time></trkpt><trkpt lat="44.2238555" lon="11.645076"><ele>287.8571428571429</ele><time>2026-04-25T09:19:52.062Z</time></trkpt><trkpt lat="44.2238284" lon="11.6451676"><ele>291.1428571428571</ele><time>2026-04-25T09:19:56.07Z</time></trkpt><trkpt lat="44.2238225" lon="11.6452689"><ele>294.42857142857144</ele><time>2026-04-25T09:20:00.056Z</time></trkpt><trkpt lat="44.223823" lon="11.6453574"><ele>297.7142857142857</ele><time>2026-04-25T09:20:03.095Z</time></trkpt><trkpt lat="44.2238388" lon="11.6454581"><ele>301.0</ele><time>2026-04-25T09:20:07.069Z</time></trkpt><trkpt lat="44.2238601" lon="11.6455679"><ele>300.5</ele><time>2026-04-25T09:20:11.079Z</time></trkpt><trkpt lat="44.2238908" lon="11.645667"><ele>300.0</ele><time>2026-04-25T09:20:14.997Z</time></trkpt><trkpt lat="44.2239279" lon="11.6457512"><ele>299.5</ele><time>2026-04-25T09:20:19.019Z</time></trkpt><trkpt lat="44.2239669" lon="11.6458567"><ele>299.0</ele><time>2026-04-25T09:20:23.041Z</time></trkpt><trkpt lat="44.2239979" lon="11.6459544"><ele>298.5</ele><time>2026-04-25T09:20:26.071Z</time></trkpt><trkpt lat="44.2240431" lon="11.6460409"><ele>298.0</ele><time>2026-04-25T09:20:30.071Z</time></trkpt><trkpt lat="44.2240842" lon="11.6461388"><ele>298.0</ele><time>2026-04-25T09:20:34.078Z</time></trkpt><trkpt lat="44.2241196" lon="11.6462334"><ele>298.0</ele><time>2026-04-25T09:20:38.034Z</time></trkpt><trkpt lat="44.224158" lon="11.6463116"><ele>298.0</ele><time>2026-04-25T09:20:42.04Z</time></trkpt><trkpt lat="44.2242034" lon="11.6463989"><ele>298.0</ele><time>2026-04-25T09:20:46.078Z</time></trkpt><trkpt lat="44.2242347" lon="11.6464922"><ele>298.0</ele><time>2026-04-25T09:20:50.069Z</time></trkpt><trkpt lat="44.2242564" lon="11.6465775"><ele>298.0</ele><time>2026-04-25T09:20:54.082Z</time></trkpt><trkpt lat="44.224293" lon="11.646671"><ele>298.0</ele><time>2026-04-25T09:20:59.107Z</time></trkpt><trkpt lat="44.2243213" lon="11.6467571"><ele>298.0</ele><time>2026-04-25T09:21:04.095Z</time></trkpt><trkpt lat="44.2243407" lon="11.6468459"><ele>298.0</ele><time>2026-04-25T09:21:10.068Z</time></trkpt><trkpt lat="44.2243488" lon="11.6469352"><ele>298.0</ele><time>2026-04-25T09:21:20.092Z</time></trkpt><trkpt lat="44.2243766" lon="11.6470264"><ele>298.0</ele><time>2026-04-25T09:21:25.112Z</time></trkpt><trkpt lat="44.2243893" lon="11.6471213"><ele>298.0</ele><time>2026-04-25T09:21:30.091Z</time></trkpt><trkpt lat="44.2244102" lon="11.6472224"><ele>298.0</ele><time>2026-04-25T09:21:36.101Z</time></trkpt><trkpt lat="44.2244094" lon="11.6473238"><ele>298.0</ele><time>2026-04-25T09:21:42.068Z</time></trkpt><trkpt lat="44.2244028" lon="11.6474221"><ele>298.42857142857144</ele><time>2026-04-25T09:21:47.071Z</time></trkpt><trkpt lat="44.2244039" lon="11.6475137"><ele>298.85714285714283</ele><time>2026-04-25T09:22:06.085Z</time></trkpt><trkpt lat="44.224388" lon="11.6476114"><ele>299.2857142857143</ele><time>2026-04-25T09:22:12.054Z</time></trkpt><trkpt lat="44.2243815" lon="11.6477099"><ele>299.7142857142857</ele><time>2026-04-25T09:22:17.066Z</time></trkpt><trkpt lat="44.2243782" lon="11.6478037"><ele>300.1428571428571</ele><time>2026-04-25T09:22:21.974Z</time></trkpt><trkpt lat="44.2243758" lon="11.647903"><ele>300.57142857142856</ele><time>2026-04-25T09:22:28.093Z</time></trkpt><trkpt lat="44.2243592" lon="11.6479897"><ele>301.0</ele><time>2026-04-25T09:22:33.079Z</time></trkpt><trkpt lat="44.224354" lon="11.6480813"><ele>301.85714285714283</ele><time>2026-04-25T09:22:38.082Z</time></trkpt><trkpt lat="44.2243471" lon="11.6481742"><ele>302.7142857142857</ele><time>2026-04-25T09:22:44.084Z</time></trkpt><trkpt lat="44.2243426" lon="11.6482744"><ele>303.57142857142856</ele><time>2026-04-25T09:22:50.088Z</time></trkpt><trkpt lat="44.2243356" lon="11.6483845"><ele>304.42857142857144</ele><time>2026-04-25T09:22:55.072Z</time></trkpt><trkpt lat="44.2243257" lon="11.6484831"><ele>305.2857142857143</ele><time>2026-04-25T09:23:00.073Z</time></trkpt><trkpt lat="44.2243162" lon="11.6485762"><ele>306.1428571428571</ele><time>2026-04-25T09:23:07.119Z</time></trkpt><trkpt lat="44.2243148" lon="11.6486754"><ele>307.0</ele><time>2026-04-25T09:23:12.997Z</time></trkpt><trkpt lat="44.2243109" lon="11.6487643"><ele>307.71428571428567</ele><time>2026-04-25T09:23:18.069Z</time></trkpt><trkpt lat="44.2243011" lon="11.6488692"><ele>308.42857142857144</ele><time>2026-04-25T09:23:24.088Z</time></trkpt><trkpt lat="44.2242983" lon="11.6489643"><ele>309.1428571428571</ele><time>2026-04-25T09:23:29.094Z</time></trkpt><trkpt lat="44.2242938" lon="11.6490644"><ele>309.85714285714283</ele><time>2026-04-25T09:23:35.094Z</time></trkpt><trkpt lat="44.2242719" lon="11.6491492"><ele>310.57142857142856</ele><time>2026-04-25T09:23:40.09Z</time></trkpt><trkpt lat="44.2242547" lon="11.6492432"><ele>311.2857142857143</ele><time>2026-04-25T09:23:46.113Z</time></trkpt><trkpt lat="44.2242294" lon="11.6493397"><ele>312.0</ele><time>2026-04-25T09:23:53.068Z</time></trkpt><trkpt lat="44.2241881" lon="11.6494336"><ele>311.5714285714286</ele><time>2026-04-25T09:23:58.082Z</time></trkpt><trkpt lat="44.2241484" lon="11.6495073"><ele>311.1428571428571</ele><time>2026-04-25T09:24:00.996Z</time></trkpt><trkpt lat="44.2241077" lon="11.6495822"><ele>310.7142857142857</ele><time>2026-04-25T09:24:04.093Z</time></trkpt><trkpt lat="44.2240636" lon="11.6496454"><ele>310.28571428571433</ele><time>2026-04-25T09:24:07.078Z</time></trkpt><trkpt lat="44.2239958" lon="11.6497132"><ele>309.8571428571429</ele><time>2026-04-25T09:24:11.13Z</time></trkpt><trkpt lat="44.2239495" lon="11.649787"><ele>309.42857142857144</ele><time>2026-04-25T09:24:15.085Z</time></trkpt><trkpt lat="44.2238855" lon="11.6498419"><ele>309.0</ele><time>2026-04-25T09:24:19.084Z</time></trkpt><trkpt lat="44.2238254" lon="11.6498844"><ele>310.7142857142857</ele><time>2026-04-25T09:24:22.089Z</time></trkpt><trkpt lat="44.2237493" lon="11.6499294"><ele>312.42857142857144</ele><time>2026-04-25T09:24:26.071Z</time></trkpt><trkpt lat="44.2236796" lon="11.6499836"><ele>314.1428571428571</ele><time>2026-04-25T09:24:30.068Z</time></trkpt><trkpt lat="44.2236214" lon="11.6500302"><ele>315.8571428571429</ele><time>2026-04-25T09:24:33.739Z</time></trkpt><trkpt lat="44.2235659" lon="11.6500955"><ele>317.57142857142856</ele><time>2026-04-25T09:24:39.072Z</time></trkpt><trkpt lat="44.2235213" lon="11.650158"><ele>319.2857142857143</ele><time>2026-04-25T09:24:44.092Z</time></trkpt><trkpt lat="44.2234891" lon="11.6502416"><ele>321.0</ele><time>2026-04-25T09:24:49.074Z</time></trkpt><trkpt lat="44.2234557" lon="11.650325"><ele>320.99999999999994</ele><time>2026-04-25T09:24:54.074Z</time></trkpt><trkpt lat="44.2234264" lon="11.6504149"><ele>321.0</ele><time>2026-04-25T09:25:00.085Z</time></trkpt><trkpt lat="44.2233967" lon="11.6504947"><ele>321.0</ele><time>2026-04-25T09:25:05.102Z</time></trkpt><trkpt lat="44.2233523" lon="11.6505604"><ele>321.0</ele><time>2026-04-25T09:25:19.095Z</time></trkpt><trkpt lat="44.2233274" lon="11.6506587"><ele>321.0</ele><time>2026-04-25T09:25:23.994Z</time></trkpt><trkpt lat="44.2232903" lon="11.6507389"><ele>320.99999999999994</ele><time>2026-04-25T09:25:27.1Z</time></trkpt><trkpt lat="44.2232644" lon="11.6508258"><ele>321.0</ele><time>2026-04-25T09:25:30.112Z</time></trkpt><trkpt lat="44.2232448" lon="11.6509337"><ele>321.0</ele><time>2026-04-25T09:25:34.114Z</time></trkpt><trkpt lat="44.2232125" lon="11.651037"><ele>321.0</ele><time>2026-04-25T09:25:38.019Z</time></trkpt><trkpt lat="44.2231888" lon="11.6511401"><ele>321.0</ele><time>2026-04-25T09:25:42.06Z</time></trkpt><trkpt lat="44.2231867" lon="11.6512492"><ele>321.0</ele><time>2026-04-25T09:25:46.015Z</time></trkpt><trkpt lat="44.2231893" lon="11.651362"><ele>321.0</ele><time>2026-04-25T09:25:50.073Z</time></trkpt><trkpt lat="44.223189" lon="11.6514633"><ele>321.0</ele><time>2026-04-25T09:25:54.076Z</time></trkpt><trkpt lat="44.2231882" lon="11.6515704"><ele>321.1666666666667</ele><time>2026-04-25T09:25:58.109Z</time></trkpt><trkpt lat="44.2231815" lon="11.6516906"><ele>321.3333333333333</ele><time>2026-04-25T09:26:02.317Z</time></trkpt><trkpt lat="44.2231702" lon="11.6517848"><ele>321.5</ele><time>2026-04-25T09:26:05.575Z</time></trkpt><trkpt lat="44.2231449" lon="11.6518955"><ele>321.66666666666663</ele><time>2026-04-25T09:26:09.912Z</time></trkpt><trkpt lat="44.2231034" lon="11.6519881"><ele>321.8333333333333</ele><time>2026-04-25T09:26:14.061Z</time></trkpt><trkpt lat="44.223056" lon="11.65208"><ele>322.0</ele><time>2026-04-25T09:26:18.035Z</time></trkpt><trkpt lat="44.2230008" lon="11.652144"><ele>324.2857142857143</ele><time>2026-04-25T09:26:22.078Z</time></trkpt><trkpt lat="44.2229356" lon="11.6521844"><ele>326.57142857142856</ele><time>2026-04-25T09:26:26.087Z</time></trkpt><trkpt lat="44.222863" lon="11.6522186"><ele>328.8571428571429</ele><time>2026-04-25T09:26:30.087Z</time></trkpt><trkpt lat="44.2227888" lon="11.6522455"><ele>331.1428571428571</ele><time>2026-04-25T09:26:34.072Z</time></trkpt><trkpt lat="44.2227227" lon="11.6522926"><ele>333.42857142857144</ele><time>2026-04-25T09:26:38.093Z</time></trkpt><trkpt lat="44.2226501" lon="11.6523163"><ele>335.7142857142857</ele><time>2026-04-25T09:26:42.091Z</time></trkpt><trkpt lat="44.2225782" lon="11.6523348"><ele>338.0</ele><time>2026-04-25T09:26:46.087Z</time></trkpt><trkpt lat="44.222516" lon="11.652363"><ele>338.0</ele><time>2026-04-25T09:26:49.102Z</time></trkpt><trkpt lat="44.2224567" lon="11.6523944"><ele>338.0</ele><time>2026-04-25T09:26:52.088Z</time></trkpt><trkpt lat="44.2223939" lon="11.652455"><ele>338.0</ele><time>2026-04-25T09:26:56.08Z</time></trkpt><trkpt lat="44.2223367" lon="11.6525314"><ele>338.0</ele><time>2026-04-25T09:27:00.083Z</time></trkpt><trkpt lat="44.2222908" lon="11.6526135"><ele>338.0</ele><time>2026-04-25T09:27:04.072Z</time></trkpt><trkpt lat="44.2222593" lon="11.6527083"><ele>338.0</ele><time>2026-04-25T09:27:08.092Z</time></trkpt><trkpt lat="44.2222504" lon="11.6528089"><ele>338.0</ele><time>2026-04-25T09:27:13.098Z</time></trkpt><trkpt lat="44.2222402" lon="11.652904"><ele>339.1666666666667</ele><time>2026-04-25T09:27:17.081Z</time></trkpt><trkpt lat="44.2222307" lon="11.6530052"><ele>340.33333333333337</ele><time>2026-04-25T09:27:21.109Z</time></trkpt><trkpt lat="44.2222219" lon="11.6531274"><ele>341.5</ele><time>2026-04-25T09:27:25.092Z</time></trkpt><trkpt lat="44.2222064" lon="11.653223"><ele>342.6666666666667</ele><time>2026-04-25T09:27:28.151Z</time></trkpt><trkpt lat="44.2221886" lon="11.6533174"><ele>343.8333333333333</ele><time>2026-04-25T09:27:31.415Z</time></trkpt><trkpt lat="44.2221777" lon="11.6534282"><ele>345.0</ele><time>2026-04-25T09:27:34.998Z</time></trkpt><trkpt lat="44.2221603" lon="11.653523"><ele>345.0</ele><time>2026-04-25T09:27:38.071Z</time></trkpt><trkpt lat="44.2221373" lon="11.6536214"><ele>345.0</ele><time>2026-04-25T09:27:41.072Z</time></trkpt><trkpt lat="44.2221161" lon="11.6537161"><ele>345.0</ele><time>2026-04-25T09:27:44.029Z</time></trkpt><trkpt lat="44.2220992" lon="11.6538189"><ele>345.0</ele><time>2026-04-25T09:27:47.072Z</time></trkpt><trkpt lat="44.2220878" lon="11.6539165"><ele>345.0</ele><time>2026-04-25T09:27:50.111Z</time></trkpt><trkpt lat="44.2220732" lon="11.6540098"><ele>345.0</ele><time>2026-04-25T09:27:52.617Z</time></trkpt><trkpt lat="44.2220601" lon="11.6541261"><ele>345.0</ele><time>2026-04-25T09:27:56.081Z</time></trkpt><trkpt lat="44.2220547" lon="11.6542193"><ele>345.0</ele><time>2026-04-25T09:27:59.058Z</time></trkpt><trkpt lat="44.2220488" lon="11.654336"><ele>345.0</ele><time>2026-04-25T09:28:03.012Z</time></trkpt><trkpt lat="44.2220488" lon="11.6544323"><ele>345.0</ele><time>2026-04-25T09:28:06.062Z</time></trkpt><trkpt lat="44.2220434" lon="11.6545352"><ele>345.0</ele><time>2026-04-25T09:28:09.11Z</time></trkpt><trkpt lat="44.22205" lon="11.6546255"><ele>345.0</ele><time>2026-04-25T09:28:12.074Z</time></trkpt><trkpt lat="44.2220485" lon="11.6547278"><ele>345.0</ele><time>2026-04-25T09:28:15.067Z</time></trkpt><trkpt lat="44.2220446" lon="11.6548288"><ele>345.0</ele><time>2026-04-25T09:28:18.043Z</time></trkpt><trkpt lat="44.2220467" lon="11.6549328"><ele>345.0</ele><time>2026-04-25T09:28:21.076Z</time></trkpt><trkpt lat="44.2220508" lon="11.6550301"><ele>345.0</ele><time>2026-04-25T09:28:24.11Z</time></trkpt><trkpt lat="44.2220595" lon="11.6551481"><ele>345.0</ele><time>2026-04-25T09:28:28.073Z</time></trkpt><trkpt lat="44.2220665" lon="11.6552547"><ele>345.0</ele><time>2026-04-25T09:28:32.076Z</time></trkpt><trkpt lat="44.2220679" lon="11.6553594"><ele>345.0</ele><time>2026-04-25T09:28:36.098Z</time></trkpt><trkpt lat="44.2220734" lon="11.655475"><ele>345.0</ele><time>2026-04-25T09:28:40.067Z</time></trkpt><trkpt lat="44.222087" lon="11.6555803"><ele>345.0</ele><time>2026-04-25T09:28:43.072Z</time></trkpt><trkpt lat="44.2221168" lon="11.6556849"><ele>345.0</ele><time>2026-04-25T09:28:46.08Z</time></trkpt><trkpt lat="44.2221432" lon="11.6557853"><ele>345.0</ele><time>2026-04-25T09:28:49.093Z</time></trkpt><trkpt lat="44.22218" lon="11.655869"><ele>345.0</ele><time>2026-04-25T09:28:52.078Z</time></trkpt><trkpt lat="44.2222287" lon="11.6559357"><ele>345.0</ele><time>2026-04-25T09:28:55.098Z</time></trkpt><trkpt lat="44.222287" lon="11.6559817"><ele>345.0</ele><time>2026-04-25T09:28:58.056Z</time></trkpt><trkpt lat="44.2223605" lon="11.6560378"><ele>345.0</ele><time>2026-04-25T09:29:01.977Z</time></trkpt><trkpt lat="44.2224242" lon="11.6560742"><ele>343.57142857142856</ele><time>2026-04-25T09:29:06.008Z</time></trkpt><trkpt lat="44.2225031" lon="11.6560907"><ele>342.1428571428571</ele><time>2026-04-25T09:29:11.088Z</time></trkpt><trkpt lat="44.2225727" lon="11.6560825"><ele>340.71428571428567</ele><time>2026-04-25T09:29:14.097Z</time></trkpt><trkpt lat="44.2226443" lon="11.6560557"><ele>339.2857142857143</ele><time>2026-04-25T09:29:17.099Z</time></trkpt><trkpt lat="44.2227224" lon="11.6560359"><ele>337.85714285714283</ele><time>2026-04-25T09:29:20.06Z</time></trkpt><trkpt lat="44.2227952" lon="11.6560223"><ele>336.4285714285714</ele><time>2026-04-25T09:29:23.085Z</time></trkpt><trkpt lat="44.222858" lon="11.6559994"><ele>335.0</ele><time>2026-04-25T09:29:26.049Z</time></trkpt><trkpt lat="44.2229213" lon="11.6559775"><ele>334.99999999999994</ele><time>2026-04-25T09:29:28.999Z</time></trkpt><trkpt lat="44.2229795" lon="11.6559419"><ele>335.0</ele><time>2026-04-25T09:29:32.074Z</time></trkpt><trkpt lat="44.2230523" lon="11.6559004"><ele>335.0</ele><time>2026-04-25T09:29:36.08Z</time></trkpt><trkpt lat="44.2231152" lon="11.655864"><ele>335.0</ele><time>2026-04-25T09:29:39.112Z</time></trkpt><trkpt lat="44.2231839" lon="11.6558241"><ele>335.0</ele><time>2026-04-25T09:29:43.084Z</time></trkpt><trkpt lat="44.2232569" lon="11.6558118"><ele>334.99999999999994</ele><time>2026-04-25T09:29:47.074Z</time></trkpt><trkpt lat="44.2233294" lon="11.6558097"><ele>335.0</ele><time>2026-04-25T09:29:51.096Z</time></trkpt><trkpt lat="44.2234019" lon="11.6558281"><ele>334.57142857142856</ele><time>2026-04-25T09:29:55.08Z</time></trkpt><trkpt lat="44.2234667" lon="11.6558936"><ele>334.1428571428571</ele><time>2026-04-25T09:29:59.118Z</time></trkpt><trkpt lat="44.2235166" lon="11.6559777"><ele>333.71428571428567</ele><time>2026-04-25T09:30:03.095Z</time></trkpt><trkpt lat="44.2235485" lon="11.656078"><ele>333.2857142857143</ele><time>2026-04-25T09:30:07.059Z</time></trkpt><trkpt lat="44.2235776" lon="11.6561576"><ele>332.8571428571429</ele><time>2026-04-25T09:30:10.075Z</time></trkpt><trkpt lat="44.2236074" lon="11.6562355"><ele>332.4285714285714</ele><time>2026-04-25T09:30:13.085Z</time></trkpt><trkpt lat="44.2236442" lon="11.6563091"><ele>332.0</ele><time>2026-04-25T09:30:16.063Z</time></trkpt><trkpt lat="44.2236864" lon="11.6563748"><ele>333.1666666666667</ele><time>2026-04-25T09:30:19.084Z</time></trkpt><trkpt lat="44.2237278" lon="11.6564578"><ele>334.33333333333337</ele><time>2026-04-25T09:30:24.054Z</time></trkpt><trkpt lat="44.2237948" lon="11.6565107"><ele>335.5</ele><time>2026-04-25T09:30:28.06Z</time></trkpt><trkpt lat="44.2238496" lon="11.656575"><ele>336.6666666666667</ele><time>2026-04-25T09:30:31.084Z</time></trkpt><trkpt lat="44.2239025" lon="11.6566419"><ele>337.8333333333333</ele><time>2026-04-25T09:30:34.081Z</time></trkpt><trkpt lat="44.2239599" lon="11.6567227"><ele>339.0</ele><time>2026-04-25T09:30:37.083Z</time></trkpt><trkpt lat="44.2240086" lon="11.6568062"><ele>339.0</ele><time>2026-04-25T09:30:40.082Z</time></trkpt><trkpt lat="44.2240548" lon="11.6568939"><ele>339.0</ele><time>2026-04-25T09:30:42.976Z</time></trkpt><trkpt lat="44.2241021" lon="11.656987"><ele>339.0</ele><time>2026-04-25T09:30:46.096Z</time></trkpt><trkpt lat="44.2241456" lon="11.6570647"><ele>339.0</ele><time>2026-04-25T09:30:49.071Z</time></trkpt><trkpt lat="44.2241941" lon="11.6571657"><ele>339.0</ele><time>2026-04-25T09:30:53.082Z</time></trkpt><trkpt lat="44.2242552" lon="11.657243"><ele>339.0</ele><time>2026-04-25T09:30:57.013Z</time></trkpt><trkpt lat="44.2243161" lon="11.6572756"><ele>339.0</ele><time>2026-04-25T09:31:00.079Z</time></trkpt><trkpt lat="44.2243964" lon="11.657255"><ele>339.0</ele><time>2026-04-25T09:31:04.079Z</time></trkpt><trkpt lat="44.2244589" lon="11.6572006"><ele>339.0</ele><time>2026-04-25T09:31:08.09Z</time></trkpt><trkpt lat="44.2245011" lon="11.6571291"><ele>339.0</ele><time>2026-04-25T09:31:11.077Z</time></trkpt><trkpt lat="44.2245398" lon="11.6570595"><ele>339.0</ele><time>2026-04-25T09:31:14.072Z</time></trkpt><trkpt lat="44.2245839" lon="11.6569646"><ele>339.0</ele><time>2026-04-25T09:31:18.073Z</time></trkpt><trkpt lat="44.2246285" lon="11.6568747"><ele>339.0</ele><time>2026-04-25T09:31:22.069Z</time></trkpt><trkpt lat="44.2246693" lon="11.656781"><ele>339.0</ele><time>2026-04-25T09:31:25.996Z</time></trkpt><trkpt lat="44.2246884" lon="11.6566873"><ele>339.0</ele><time>2026-04-25T09:31:31.038Z</time></trkpt><trkpt lat="44.224695" lon="11.6565891"><ele>339.0</ele><time>2026-04-25T09:31:37.072Z</time></trkpt><trkpt lat="44.2247074" lon="11.6564962"><ele>339.0</ele><time>2026-04-25T09:31:42.072Z</time></trkpt><trkpt lat="44.2247254" lon="11.6564009"><ele>339.0</ele><time>2026-04-25T09:31:47.084Z</time></trkpt><trkpt lat="44.2247492" lon="11.6563081"><ele>339.0</ele><time>2026-04-25T09:31:52.093Z</time></trkpt><trkpt lat="44.2247894" lon="11.6562364"><ele>339.0</ele><time>2026-04-25T09:31:57.091Z</time></trkpt><trkpt lat="44.2248317" lon="11.6561548"><ele>338.85714285714283</ele><time>2026-04-25T09:32:02.081Z</time></trkpt><trkpt lat="44.2248962" lon="11.6560949"><ele>338.7142857142857</ele><time>2026-04-25T09:32:07.082Z</time></trkpt><trkpt lat="44.2249621" lon="11.6560526"><ele>338.57142857142856</ele><time>2026-04-25T09:32:12.009Z</time></trkpt><trkpt lat="44.2250261" lon="11.6560199"><ele>338.42857142857144</ele><time>2026-04-25T09:32:17.074Z</time></trkpt><trkpt lat="44.2250956" lon="11.656003"><ele>338.2857142857143</ele><time>2026-04-25T09:32:24.077Z</time></trkpt><trkpt lat="44.2251654" lon="11.6559913"><ele>338.14285714285717</ele><time>2026-04-25T09:32:30.075Z</time></trkpt><trkpt lat="44.2252319" lon="11.6559858"><ele>338.0</ele><time>2026-04-25T09:32:36.076Z</time></trkpt><trkpt lat="44.2253094" lon="11.6559691"><ele>338.0</ele><time>2026-04-25T09:32:42.089Z</time></trkpt><trkpt lat="44.2253729" lon="11.6559526"><ele>338.0</ele><time>2026-04-25T09:32:46.101Z</time></trkpt><trkpt lat="44.2254476" lon="11.6559355"><ele>338.0</ele><time>2026-04-25T09:32:51.091Z</time></trkpt><trkpt lat="44.2255141" lon="11.6559049"><ele>338.0</ele><time>2026-04-25T09:32:56.072Z</time></trkpt><trkpt lat="44.2255778" lon="11.6558807"><ele>338.0</ele><time>2026-04-25T09:33:00.094Z</time></trkpt><trkpt lat="44.2256474" lon="11.6558448"><ele>338.0</ele><time>2026-04-25T09:33:04.006Z</time></trkpt><trkpt lat="44.2257176" lon="11.6557967"><ele>338.0</ele><time>2026-04-25T09:33:09.07Z</time></trkpt><trkpt lat="44.2257766" lon="11.6557498"><ele>340.7142857142857</ele><time>2026-04-25T09:33:15.088Z</time></trkpt><trkpt lat="44.2258246" lon="11.6556807"><ele>343.42857142857144</ele><time>2026-04-25T09:33:22.062Z</time></trkpt><trkpt lat="44.2258803" lon="11.6556145"><ele>346.1428571428571</ele><time>2026-04-25T09:33:27.989Z</time></trkpt><trkpt lat="44.2259512" lon="11.6555962"><ele>348.8571428571429</ele><time>2026-04-25T09:33:35.101Z</time></trkpt><trkpt lat="44.2260219" lon="11.6555935"><ele>351.57142857142856</ele><time>2026-04-25T09:33:40.075Z</time></trkpt><trkpt lat="44.2260942" lon="11.6556246"><ele>354.2857142857143</ele><time>2026-04-25T09:33:45.058Z</time></trkpt><trkpt lat="44.2261596" lon="11.6556832"><ele>357.0</ele><time>2026-04-25T09:33:50.077Z</time></trkpt><trkpt lat="44.2262277" lon="11.6557295"><ele>357.0</ele><time>2026-04-25T09:33:55.083Z</time></trkpt><trkpt lat="44.2262792" lon="11.6557967"><ele>357.0</ele><time>2026-04-25T09:34:00.105Z</time></trkpt><trkpt lat="44.2263271" lon="11.6558688"><ele>357.0</ele><time>2026-04-25T09:34:05.087Z</time></trkpt><trkpt lat="44.2263693" lon="11.6559412"><ele>357.0</ele><time>2026-04-25T09:34:10.065Z</time></trkpt><trkpt lat="44.2264121" lon="11.6560064"><ele>357.0</ele><time>2026-04-25T09:34:16.045Z</time></trkpt><trkpt lat="44.2264596" lon="11.6560742"><ele>357.0</ele><time>2026-04-25T09:34:24.082Z</time></trkpt><trkpt lat="44.2265319" lon="11.6560917"><ele>357.0</ele><time>2026-04-25T09:34:32.093Z</time></trkpt><trkpt lat="44.226598" lon="11.6560729"><ele>357.14285714285717</ele><time>2026-04-25T09:34:36.133Z</time></trkpt><trkpt lat="44.2266619" lon="11.6560541"><ele>357.2857142857143</ele><time>2026-04-25T09:34:40.078Z</time></trkpt><trkpt lat="44.226737" lon="11.6560307"><ele>357.42857142857144</ele><time>2026-04-25T09:34:45.108Z</time></trkpt><trkpt lat="44.2268086" lon="11.6559919"><ele>357.57142857142856</ele><time>2026-04-25T09:34:50.079Z</time></trkpt><trkpt lat="44.2268705" lon="11.6559591"><ele>357.7142857142857</ele><time>2026-04-25T09:34:54.064Z</time></trkpt><trkpt lat="44.2269326" lon="11.6559064"><ele>357.8571428571429</ele><time>2026-04-25T09:34:57.037Z</time></trkpt><trkpt lat="44.2269909" lon="11.655856"><ele>358.0</ele><time>2026-04-25T09:35:00.064Z</time></trkpt><trkpt lat="44.2270709" lon="11.6557991"><ele>358.0</ele><time>2026-04-25T09:35:04.058Z</time></trkpt><trkpt lat="44.2271369" lon="11.6557347"><ele>358.0</ele><time>2026-04-25T09:35:08.069Z</time></trkpt><trkpt lat="44.2272049" lon="11.6556871"><ele>358.0</ele><time>2026-04-25T09:35:12.095Z</time></trkpt><trkpt lat="44.2272887" lon="11.6556523"><ele>358.0</ele><time>2026-04-25T09:35:16.076Z</time></trkpt><trkpt lat="44.2273585" lon="11.6556695"><ele>358.0</ele><time>2026-04-25T09:35:19.075Z</time></trkpt><trkpt lat="44.227418" lon="11.6557171"><ele>358.0</ele><time>2026-04-25T09:35:22.076Z</time></trkpt><trkpt lat="44.2274636" lon="11.6557871"><ele>358.7142857142857</ele><time>2026-04-25T09:35:25.011Z</time></trkpt><trkpt lat="44.227509" lon="11.6558481"><ele>359.42857142857144</ele><time>2026-04-25T09:35:28.098Z</time></trkpt><trkpt lat="44.2275458" lon="11.6559206"><ele>360.1428571428571</ele><time>2026-04-25T09:35:31.116Z</time></trkpt><trkpt lat="44.2275818" lon="11.6559934"><ele>360.8571428571429</ele><time>2026-04-25T09:35:34.076Z</time></trkpt><trkpt lat="44.2276199" lon="11.6560939"><ele>361.57142857142856</ele><time>2026-04-25T09:35:38.01Z</time></trkpt><trkpt lat="44.2276613" lon="11.6561774"><ele>362.2857142857143</ele><time>2026-04-25T09:35:42.013Z</time></trkpt><trkpt lat="44.2276743" lon="11.6562729"><ele>363.0</ele><time>2026-04-25T09:35:46.09Z</time></trkpt><trkpt lat="44.2276731" lon="11.6563735"><ele>364.85714285714283</ele><time>2026-04-25T09:35:50.084Z</time></trkpt><trkpt lat="44.2276601" lon="11.6564791"><ele>366.7142857142857</ele><time>2026-04-25T09:35:54.092Z</time></trkpt><trkpt lat="44.2276492" lon="11.6565869"><ele>368.57142857142856</ele><time>2026-04-25T09:35:58.079Z</time></trkpt><trkpt lat="44.2276339" lon="11.6566798"><ele>370.42857142857144</ele><time>2026-04-25T09:36:02.095Z</time></trkpt><trkpt lat="44.2276191" lon="11.6567871"><ele>372.2857142857143</ele><time>2026-04-25T09:36:06.083Z</time></trkpt><trkpt lat="44.2276125" lon="11.6568838"><ele>374.1428571428571</ele><time>2026-04-25T09:36:10.076Z</time></trkpt><trkpt lat="44.2276092" lon="11.6569864"><ele>376.0</ele><time>2026-04-25T09:36:14.087Z</time></trkpt><trkpt lat="44.2276026" lon="11.6570913"><ele>376.42857142857144</ele><time>2026-04-25T09:36:18.095Z</time></trkpt><trkpt lat="44.227591" lon="11.6571859"><ele>376.85714285714283</ele><time>2026-04-25T09:36:22.079Z</time></trkpt><trkpt lat="44.2275786" lon="11.6572807"><ele>377.28571428571433</ele><time>2026-04-25T09:36:25.98Z</time></trkpt><trkpt lat="44.2275698" lon="11.6573722"><ele>377.7142857142857</ele><time>2026-04-25T09:36:29.107Z</time></trkpt><trkpt lat="44.2275569" lon="11.6574585"><ele>378.14285714285717</ele><time>2026-04-25T09:36:31.993Z</time></trkpt><trkpt lat="44.2275383" lon="11.6575478"><ele>378.5714285714286</ele><time>2026-04-25T09:36:35.096Z</time></trkpt><trkpt lat="44.2275058" lon="11.6576595"><ele>379.0</ele><time>2026-04-25T09:36:39.096Z</time></trkpt><trkpt lat="44.2274823" lon="11.6577714"><ele>378.42857142857144</ele><time>2026-04-25T09:36:42.996Z</time></trkpt><trkpt lat="44.2274647" lon="11.6578666"><ele>377.8571428571429</ele><time>2026-04-25T09:36:46.08Z</time></trkpt><trkpt lat="44.2274415" lon="11.6579698"><ele>377.28571428571433</ele><time>2026-04-25T09:36:49.011Z</time></trkpt><trkpt lat="44.2274167" lon="11.6580728"><ele>376.7142857142857</ele><time>2026-04-25T09:36:52.084Z</time></trkpt><trkpt lat="44.2273916" lon="11.6581685"><ele>376.1428571428571</ele><time>2026-04-25T09:36:55.016Z</time></trkpt><trkpt lat="44.227367" lon="11.6582729"><ele>375.5714285714286</ele><time>2026-04-25T09:36:58.105Z</time></trkpt><trkpt lat="44.2273448" lon="11.6583625"><ele>375.0</ele><time>2026-04-25T09:37:01.039Z</time></trkpt><trkpt lat="44.2273247" lon="11.6584507"><ele>378.14285714285717</ele><time>2026-04-25T09:37:04.088Z</time></trkpt><trkpt lat="44.227301" lon="11.6585396"><ele>381.2857142857143</ele><time>2026-04-25T09:37:07.084Z</time></trkpt><trkpt lat="44.2272769" lon="11.6586268"><ele>384.42857142857144</ele><time>2026-04-25T09:37:10.06Z</time></trkpt><trkpt lat="44.2272499" lon="11.6587132"><ele>387.57142857142856</ele><time>2026-04-25T09:37:13.096Z</time></trkpt><trkpt lat="44.2272277" lon="11.6588227"><ele>390.71428571428567</ele><time>2026-04-25T09:37:17.081Z</time></trkpt><trkpt lat="44.2272033" lon="11.6589277"><ele>393.85714285714283</ele><time>2026-04-25T09:37:21.083Z</time></trkpt><trkpt lat="44.2271761" lon="11.6590369"><ele>397.0</ele><time>2026-04-25T09:37:25.127Z</time></trkpt><trkpt lat="44.2271542" lon="11.6591231"><ele>397.0</ele><time>2026-04-25T09:37:28.132Z</time></trkpt><trkpt lat="44.227133" lon="11.6592151"><ele>397.0</ele><time>2026-04-25T09:37:31.08Z</time></trkpt><trkpt lat="44.2271057" lon="11.6592993"><ele>397.0</ele><time>2026-04-25T09:37:34.104Z</time></trkpt><trkpt lat="44.2270785" lon="11.6593811"><ele>397.0</ele><time>2026-04-25T09:37:37.036Z</time></trkpt><trkpt lat="44.2270555" lon="11.6594764"><ele>397.0</ele><time>2026-04-25T09:37:40.111Z</time></trkpt><trkpt lat="44.2270339" lon="11.6595671"><ele>397.0</ele><time>2026-04-25T09:37:42.961Z</time></trkpt><trkpt lat="44.2270187" lon="11.6596694"><ele>397.0</ele><time>2026-04-25T09:37:46.064Z</time></trkpt><trkpt lat="44.2270053" lon="11.6597641"><ele>396.57142857142856</ele><time>2026-04-25T09:37:49.121Z</time></trkpt><trkpt lat="44.2269955" lon="11.6598511"><ele>396.1428571428571</ele><time>2026-04-25T09:37:52.071Z</time></trkpt><trkpt lat="44.2269746" lon="11.6599445"><ele>395.7142857142857</ele><time>2026-04-25T09:37:55.093Z</time></trkpt><trkpt lat="44.2269608" lon="11.6600338"><ele>395.2857142857143</ele><time>2026-04-25T09:37:58.068Z</time></trkpt><trkpt lat="44.2269511" lon="11.6601252"><ele>394.8571428571429</ele><time>2026-04-25T09:38:01.124Z</time></trkpt><trkpt lat="44.2269402" lon="11.660214"><ele>394.42857142857144</ele><time>2026-04-25T09:38:04.085Z</time></trkpt><trkpt lat="44.226937" lon="11.6603143"><ele>394.0</ele><time>2026-04-25T09:38:07.104Z</time></trkpt><trkpt lat="44.2269286" lon="11.6604068"><ele>393.57142857142856</ele><time>2026-04-25T09:38:10.051Z</time></trkpt><trkpt lat="44.2269256" lon="11.6605054"><ele>393.14285714285717</ele><time>2026-04-25T09:38:13.09Z</time></trkpt><trkpt lat="44.2269231" lon="11.6606014"><ele>392.71428571428567</ele><time>2026-04-25T09:38:16.057Z</time></trkpt><trkpt lat="44.2269198" lon="11.6606978"><ele>392.2857142857143</ele><time>2026-04-25T09:38:19.115Z</time></trkpt><trkpt lat="44.2269185" lon="11.6608149"><ele>391.85714285714283</ele><time>2026-04-25T09:38:23.101Z</time></trkpt><trkpt lat="44.2269156" lon="11.6609066"><ele>391.4285714285714</ele><time>2026-04-25T09:38:26.061Z</time></trkpt><trkpt lat="44.2269086" lon="11.6610237"><ele>391.0</ele><time>2026-04-25T09:38:30.069Z</time></trkpt><trkpt lat="44.2268985" lon="11.6611163"><ele>390.2857142857143</ele><time>2026-04-25T09:38:33.119Z</time></trkpt><trkpt lat="44.2268887" lon="11.6612196"><ele>389.57142857142856</ele><time>2026-04-25T09:38:37.094Z</time></trkpt><trkpt lat="44.2268768" lon="11.6613227"><ele>388.8571428571429</ele><time>2026-04-25T09:38:41.102Z</time></trkpt><trkpt lat="44.2268588" lon="11.6614186"><ele>388.1428571428571</ele><time>2026-04-25T09:38:45.109Z</time></trkpt><trkpt lat="44.2268496" lon="11.6615232"><ele>387.42857142857144</ele><time>2026-04-25T09:38:49.09Z</time></trkpt><trkpt lat="44.2268271" lon="11.6616172"><ele>386.7142857142857</ele><time>2026-04-25T09:38:53.067Z</time></trkpt><trkpt lat="44.2267894" lon="11.6617184"><ele>386.0</ele><time>2026-04-25T09:38:57.135Z</time></trkpt><trkpt lat="44.2267499" lon="11.6617886"><ele>386.00000000000006</ele><time>2026-04-25T09:39:00.061Z</time></trkpt><trkpt lat="44.2266969" lon="11.6618772"><ele>386.0</ele><time>2026-04-25T09:39:04.02Z</time></trkpt><trkpt lat="44.2266508" lon="11.6619498"><ele>386.0</ele><time>2026-04-25T09:39:07.091Z</time></trkpt><trkpt lat="44.2266049" lon="11.6620115"><ele>386.0</ele><time>2026-04-25T09:39:10.105Z</time></trkpt><trkpt lat="44.226561" lon="11.6620769"><ele>386.0</ele><time>2026-04-25T09:39:13.038Z</time></trkpt><trkpt lat="44.2265138" lon="11.6621382"><ele>386.00000000000006</ele><time>2026-04-25T09:39:16.068Z</time></trkpt><trkpt lat="44.2264751" lon="11.6622096"><ele>386.0</ele><time>2026-04-25T09:39:19.116Z</time></trkpt><trkpt lat="44.2264512" lon="11.6623203"><ele>387.5714285714286</ele><time>2026-04-25T09:39:23.082Z</time></trkpt><trkpt lat="44.2264412" lon="11.6624381"><ele>389.14285714285717</ele><time>2026-04-25T09:39:27.07Z</time></trkpt><trkpt lat="44.2264455" lon="11.662526"><ele>390.7142857142857</ele><time>2026-04-25T09:39:30.074Z</time></trkpt><trkpt lat="44.2264618" lon="11.6626309"><ele>392.28571428571433</ele><time>2026-04-25T09:39:34.094Z</time></trkpt><trkpt lat="44.2264645" lon="11.6627367"><ele>393.85714285714283</ele><time>2026-04-25T09:39:38.101Z</time></trkpt><trkpt lat="44.2264575" lon="11.6628296"><ele>395.42857142857144</ele><time>2026-04-25T09:39:41.015Z</time></trkpt><trkpt lat="44.2264523" lon="11.662934"><ele>397.0</ele><time>2026-04-25T09:39:44.06Z</time></trkpt><trkpt lat="44.2264407" lon="11.6630304"><ele>397.0</ele><time>2026-04-25T09:39:47.031Z</time></trkpt><trkpt lat="44.2264267" lon="11.663121"><ele>397.0</ele><time>2026-04-25T09:39:50.067Z</time></trkpt><trkpt lat="44.2264108" lon="11.6632167"><ele>397.0</ele><time>2026-04-25T09:39:53.074Z</time></trkpt><trkpt lat="44.2263954" lon="11.6633103"><ele>397.0</ele><time>2026-04-25T09:39:56.075Z</time></trkpt><trkpt lat="44.2263668" lon="11.6633914"><ele>397.0</ele><time>2026-04-25T09:39:59.096Z</time></trkpt><trkpt lat="44.2263316" lon="11.663465"><ele>397.0</ele><time>2026-04-25T09:40:02.07Z</time></trkpt><trkpt lat="44.2262924" lon="11.6635372"><ele>397.0</ele><time>2026-04-25T09:40:04.995Z</time></trkpt><trkpt lat="44.2262472" lon="11.6636118"><ele>396.1428571428571</ele><time>2026-04-25T09:40:08.081Z</time></trkpt><trkpt lat="44.2261911" lon="11.663679"><ele>395.2857142857143</ele><time>2026-04-25T09:40:12.077Z</time></trkpt><trkpt lat="44.2261265" lon="11.66374"><ele>394.42857142857144</ele><time>2026-04-25T09:40:16.102Z</time></trkpt><trkpt lat="44.2260719" lon="11.6637939"><ele>393.57142857142856</ele><time>2026-04-25T09:40:19.097Z</time></trkpt><trkpt lat="44.2260209" lon="11.6638502"><ele>392.7142857142857</ele><time>2026-04-25T09:40:22.061Z</time></trkpt><trkpt lat="44.2259744" lon="11.6639145"><ele>391.85714285714283</ele><time>2026-04-25T09:40:25.1Z</time></trkpt><trkpt lat="44.2259178" lon="11.6639921"><ele>391.0</ele><time>2026-04-25T09:40:29.083Z</time></trkpt><trkpt lat="44.2258623" lon="11.6640628"><ele>390.99999999999994</ele><time>2026-04-25T09:40:33.078Z</time></trkpt><trkpt lat="44.2258058" lon="11.6641462"><ele>391.0</ele><time>2026-04-25T09:40:37.105Z</time></trkpt><trkpt lat="44.2257637" lon="11.6642193"><ele>391.0</ele><time>2026-04-25T09:40:42.082Z</time></trkpt><trkpt lat="44.2257202" lon="11.6642836"><ele>391.0</ele><time>2026-04-25T09:40:47.102Z</time></trkpt><trkpt lat="44.2256711" lon="11.664366"><ele>391.0</ele><time>2026-04-25T09:40:53.083Z</time></trkpt><trkpt lat="44.2256201" lon="11.6644326"><ele>390.99999999999994</ele><time>2026-04-25T09:40:58.081Z</time></trkpt><trkpt lat="44.2255723" lon="11.6644992"><ele>391.0</ele><time>2026-04-25T09:41:03.087Z</time></trkpt><trkpt lat="44.2255217" lon="11.6645538"><ele>392.4285714285714</ele><time>2026-04-25T09:41:08.103Z</time></trkpt><trkpt lat="44.2254577" lon="11.6646053"><ele>393.85714285714283</ele><time>2026-04-25T09:41:14.085Z</time></trkpt><trkpt lat="44.2253868" lon="11.6646646"><ele>395.2857142857143</ele><time>2026-04-25T09:41:23.083Z</time></trkpt><trkpt lat="44.2253378" lon="11.6647212"><ele>396.71428571428567</ele><time>2026-04-25T09:41:27.109Z</time></trkpt><trkpt lat="44.2252726" lon="11.6647658"><ele>398.14285714285717</ele><time>2026-04-25T09:41:33.088Z</time></trkpt><trkpt lat="44.2252038" lon="11.664809"><ele>399.57142857142856</ele><time>2026-04-25T09:41:39.097Z</time></trkpt><trkpt lat="44.22514" lon="11.6648498"><ele>401.0</ele><time>2026-04-25T09:41:45.097Z</time></trkpt><trkpt lat="44.2250833" lon="11.6648936"><ele>401.0</ele><time>2026-04-25T09:41:50.096Z</time></trkpt><trkpt lat="44.2250256" lon="11.6649437"><ele>401.0</ele><time>2026-04-25T09:41:53.951Z</time></trkpt><trkpt lat="44.2249765" lon="11.6650128"><ele>401.0</ele><time>2026-04-25T09:41:58.033Z</time></trkpt><trkpt lat="44.2249369" lon="11.6650964"><ele>401.0</ele><time>2026-04-25T09:42:02.104Z</time></trkpt><trkpt lat="44.2248975" lon="11.6651829"><ele>401.0</ele><time>2026-04-25T09:42:06.101Z</time></trkpt><trkpt lat="44.2248693" lon="11.6652812"><ele>401.0</ele><time>2026-04-25T09:42:10.092Z</time></trkpt><trkpt lat="44.2248483" lon="11.6653864"><ele>401.0</ele><time>2026-04-25T09:42:14.084Z</time></trkpt><trkpt lat="44.2248215" lon="11.6654759"><ele>404.14285714285717</ele><time>2026-04-25T09:42:18.097Z</time></trkpt><trkpt lat="44.2247981" lon="11.665574"><ele>407.28571428571433</ele><time>2026-04-25T09:42:22.112Z</time></trkpt><trkpt lat="44.2247892" lon="11.665665"><ele>410.42857142857144</ele><time>2026-04-25T09:42:26.095Z</time></trkpt><trkpt lat="44.2247797" lon="11.6657746"><ele>413.57142857142856</ele><time>2026-04-25T09:42:31.021Z</time></trkpt><trkpt lat="44.2247765" lon="11.6658719"><ele>416.7142857142857</ele><time>2026-04-25T09:42:35.089Z</time></trkpt><trkpt lat="44.224765" lon="11.6659654"><ele>419.85714285714283</ele><time>2026-04-25T09:42:39.097Z</time></trkpt><trkpt lat="44.2247469" lon="11.666074"><ele>423.0</ele><time>2026-04-25T09:42:43.155Z</time></trkpt><trkpt lat="44.2247402" lon="11.6661639"><ele>423.1428571428571</ele><time>2026-04-25T09:42:47.109Z</time></trkpt><trkpt lat="44.2247362" lon="11.6662517"><ele>423.28571428571433</ele><time>2026-04-25T09:42:51.106Z</time></trkpt><trkpt lat="44.2247258" lon="11.6663618"><ele>423.42857142857144</ele><time>2026-04-25T09:42:56.075Z</time></trkpt><trkpt lat="44.22472" lon="11.6664591"><ele>423.57142857142856</ele><time>2026-04-25T09:43:01.09Z</time></trkpt><trkpt lat="44.2247085" lon="11.666548"><ele>423.71428571428567</ele><time>2026-04-25T09:43:05.077Z</time></trkpt><trkpt lat="44.2246988" lon="11.666655"><ele>423.8571428571429</ele><time>2026-04-25T09:43:10.085Z</time></trkpt><trkpt lat="44.2246888" lon="11.6667573"><ele>424.0</ele><time>2026-04-25T09:43:15.056Z</time></trkpt><trkpt lat="44.2246803" lon="11.666858"><ele>423.42857142857144</ele><time>2026-04-25T09:43:20.108Z</time></trkpt><trkpt lat="44.2246707" lon="11.6669549"><ele>422.85714285714283</ele><time>2026-04-25T09:43:24.092Z</time></trkpt><trkpt lat="44.2246696" lon="11.6670582"><ele>422.2857142857143</ele><time>2026-04-25T09:43:28.043Z</time></trkpt><trkpt lat="44.2246648" lon="11.6671552"><ele>421.7142857142857</ele><time>2026-04-25T09:43:32.13Z</time></trkpt><trkpt lat="44.2246475" lon="11.6672511"><ele>421.1428571428571</ele><time>2026-04-25T09:43:36.092Z</time></trkpt><trkpt lat="44.2246218" lon="11.6673428"><ele>420.57142857142856</ele><time>2026-04-25T09:43:40.047Z</time></trkpt><trkpt lat="44.2245827" lon="11.6674239"><ele>420.0</ele><time>2026-04-25T09:43:44.098Z</time></trkpt><trkpt lat="44.2245412" lon="11.6674946"><ele>420.0</ele><time>2026-04-25T09:43:49.114Z</time></trkpt><trkpt lat="44.2244815" lon="11.6675574"><ele>420.0</ele><time>2026-04-25T09:43:54.094Z</time></trkpt><trkpt lat="44.2244201" lon="11.6676136"><ele>420.0</ele><time>2026-04-25T09:43:59.087Z</time></trkpt><trkpt lat="44.2243656" lon="11.6676693"><ele>420.0</ele><time>2026-04-25T09:44:04.082Z</time></trkpt><trkpt lat="44.224309" lon="11.6677248"><ele>420.0</ele><time>2026-04-25T09:44:10.082Z</time></trkpt><trkpt lat="44.2242433" lon="11.6677631"><ele>420.0</ele><time>2026-04-25T09:44:16.083Z</time></trkpt><trkpt lat="44.224181" lon="11.6678227"><ele>420.0</ele><time>2026-04-25T09:44:22.106Z</time></trkpt><trkpt lat="44.2241305" lon="11.6678829"><ele>419.7142857142857</ele><time>2026-04-25T09:44:27.095Z</time></trkpt><trkpt lat="44.2240786" lon="11.6679376"><ele>419.42857142857144</ele><time>2026-04-25T09:44:32.095Z</time></trkpt><trkpt lat="44.2240169" lon="11.6679932"><ele>419.1428571428571</ele><time>2026-04-25T09:44:38.066Z</time></trkpt><trkpt lat="44.2239653" lon="11.6680607"><ele>418.8571428571429</ele><time>2026-04-25T09:44:44.101Z</time></trkpt><trkpt lat="44.2239226" lon="11.6681256"><ele>418.57142857142856</ele><time>2026-04-25T09:44:49.098Z</time></trkpt><trkpt lat="44.2238749" lon="11.6682066"><ele>418.2857142857143</ele><time>2026-04-25T09:44:55.102Z</time></trkpt><trkpt lat="44.223844" lon="11.6682902"><ele>418.0</ele><time>2026-04-25T09:45:00.082Z</time></trkpt><trkpt lat="44.2238176" lon="11.6683751"><ele>420.42857142857144</ele><time>2026-04-25T09:45:05.089Z</time></trkpt><trkpt lat="44.2237946" lon="11.6684579"><ele>422.85714285714283</ele><time>2026-04-25T09:45:10.079Z</time></trkpt><trkpt lat="44.2237741" lon="11.6685496"><ele>425.28571428571433</ele><time>2026-04-25T09:45:16.071Z</time></trkpt><trkpt lat="44.2237471" lon="11.6686384"><ele>427.7142857142857</ele><time>2026-04-25T09:45:21.103Z</time></trkpt><trkpt lat="44.2237205" lon="11.6687295"><ele>430.14285714285717</ele><time>2026-04-25T09:45:26.075Z</time></trkpt><trkpt lat="44.2237054" lon="11.6688275"><ele>432.5714285714286</ele><time>2026-04-25T09:45:31.107Z</time></trkpt><trkpt lat="44.2236711" lon="11.668914"><ele>435.0</ele><time>2026-04-25T09:45:36.09Z</time></trkpt><trkpt lat="44.2236341" lon="11.6689969"><ele>435.14285714285717</ele><time>2026-04-25T09:45:42.094Z</time></trkpt><trkpt lat="44.2236117" lon="11.6690803"><ele>435.2857142857143</ele><time>2026-04-25T09:45:47.098Z</time></trkpt><trkpt lat="44.2235838" lon="11.6691774"><ele>435.42857142857144</ele><time>2026-04-25T09:45:53.02Z</time></trkpt><trkpt lat="44.2235587" lon="11.6692756"><ele>435.57142857142856</ele><time>2026-04-25T09:45:58.103Z</time></trkpt><trkpt lat="44.2235356" lon="11.6693797"><ele>435.7142857142857</ele><time>2026-04-25T09:46:03.093Z</time></trkpt><trkpt lat="44.2235166" lon="11.6694744"><ele>435.8571428571429</ele><time>2026-04-25T09:46:08.087Z</time></trkpt><trkpt lat="44.2235015" lon="11.6695605"><ele>436.0</ele><time>2026-04-25T09:46:16.088Z</time></trkpt><trkpt lat="44.2234847" lon="11.6696459"><ele>436.00000000000006</ele><time>2026-04-25T09:46:21.126Z</time></trkpt><trkpt lat="44.2234676" lon="11.6697491"><ele>436.0</ele><time>2026-04-25T09:46:26.089Z</time></trkpt><trkpt lat="44.2234552" lon="11.6698519"><ele>436.0</ele><time>2026-04-25T09:46:30.089Z</time></trkpt><trkpt lat="44.2234463" lon="11.66996"><ele>436.0</ele><time>2026-04-25T09:46:34.086Z</time></trkpt><trkpt lat="44.2234459" lon="11.6700701"><ele>436.00000000000006</ele><time>2026-04-25T09:46:38.082Z</time></trkpt><trkpt lat="44.223447" lon="11.6701719"><ele>436.0</ele><time>2026-04-25T09:46:42.06Z</time></trkpt><trkpt lat="44.2234558" lon="11.6702819"><ele>435.2857142857143</ele><time>2026-04-25T09:46:46.088Z</time></trkpt><trkpt lat="44.2234639" lon="11.6703705"><ele>434.57142857142856</ele><time>2026-04-25T09:46:49.113Z</time></trkpt><trkpt lat="44.2234719" lon="11.6704682"><ele>433.8571428571429</ele><time>2026-04-25T09:46:52.937Z</time></trkpt><trkpt lat="44.2234821" lon="11.6705554"><ele>433.1428571428571</ele><time>2026-04-25T09:46:56.017Z</time></trkpt><trkpt lat="44.2234793" lon="11.6706597"><ele>432.4285714285714</ele><time>2026-04-25T09:46:59.989Z</time></trkpt><trkpt lat="44.2234832" lon="11.6707629"><ele>431.7142857142857</ele><time>2026-04-25T09:47:04.954Z</time></trkpt><trkpt lat="44.2234887" lon="11.6708636"><ele>431.0</ele><time>2026-04-25T09:47:10.077Z</time></trkpt><trkpt lat="44.2234929" lon="11.6709586"><ele>431.0</ele><time>2026-04-25T09:47:15.091Z</time></trkpt><trkpt lat="44.2235087" lon="11.6710485"><ele>431.0</ele><time>2026-04-25T09:47:21.081Z</time></trkpt><trkpt lat="44.2235267" lon="11.671155"><ele>431.0</ele><time>2026-04-25T09:47:44.094Z</time></trkpt><trkpt lat="44.2235449" lon="11.671244"><ele>431.0</ele><time>2026-04-25T09:47:55.096Z</time></trkpt><trkpt lat="44.2235549" lon="11.671335"><ele>431.0</ele><time>2026-04-25T09:48:00.079Z</time></trkpt><trkpt lat="44.2235648" lon="11.6714311"><ele>431.0</ele><time>2026-04-25T09:48:04.089Z</time></trkpt><trkpt lat="44.2235808" lon="11.671543"><ele>431.0</ele><time>2026-04-25T09:48:08.066Z</time></trkpt><trkpt lat="44.2235944" lon="11.6716419"><ele>430.5714285714286</ele><time>2026-04-25T09:48:12.071Z</time></trkpt><trkpt lat="44.2235995" lon="11.6717347"><ele>430.1428571428571</ele><time>2026-04-25T09:48:15.088Z</time></trkpt><trkpt lat="44.2236011" lon="11.6718231"><ele>429.7142857142857</ele><time>2026-04-25T09:48:17.986Z</time></trkpt><trkpt lat="44.2235928" lon="11.6719204"><ele>429.28571428571433</ele><time>2026-04-25T09:48:21.085Z</time></trkpt><trkpt lat="44.2235839" lon="11.6720123"><ele>428.8571428571429</ele><time>2026-04-25T09:48:24.069Z</time></trkpt><trkpt lat="44.2235563" lon="11.6721055"><ele>428.42857142857144</ele><time>2026-04-25T09:48:27.088Z</time></trkpt><trkpt lat="44.2235133" lon="11.6722068"><ele>428.0</ele><time>2026-04-25T09:48:30.064Z</time></trkpt><trkpt lat="44.2234587" lon="11.6722913"><ele>426.8333333333333</ele><time>2026-04-25T09:48:32.78Z</time></trkpt><trkpt lat="44.2234126" lon="11.6723654"><ele>425.66666666666663</ele><time>2026-04-25T09:48:35.051Z</time></trkpt><trkpt lat="44.2233448" lon="11.672442"><ele>424.5</ele><time>2026-04-25T09:48:38.064Z</time></trkpt><trkpt lat="44.2232823" lon="11.6725137"><ele>423.33333333333337</ele><time>2026-04-25T09:48:41.08Z</time></trkpt><trkpt lat="44.2232189" lon="11.6725803"><ele>422.1666666666667</ele><time>2026-04-25T09:48:44.029Z</time></trkpt><trkpt lat="44.2231576" lon="11.6726463"><ele>421.0</ele><time>2026-04-25T09:48:47.104Z</time></trkpt><trkpt lat="44.2230895" lon="11.67271"><ele>424.50000000000006</ele><time>2026-04-25T09:48:50.081Z</time></trkpt><trkpt lat="44.2230059" lon="11.6727762"><ele>428.0</ele><time>2026-04-25T09:48:53.076Z</time></trkpt><trkpt lat="44.2229225" lon="11.6728208"><ele>431.5</ele><time>2026-04-25T09:48:56.082Z</time></trkpt><trkpt lat="44.2228465" lon="11.672853"><ele>435.0</ele><time>2026-04-25T09:48:59.022Z</time></trkpt><trkpt lat="44.2227664" lon="11.6728845"><ele>438.50000000000006</ele><time>2026-04-25T09:49:02.095Z</time></trkpt><trkpt lat="44.222697" lon="11.6729259"><ele>442.0</ele><time>2026-04-25T09:49:05.093Z</time></trkpt><trkpt lat="44.2226319" lon="11.6729761"><ele>442.00000000000006</ele><time>2026-04-25T09:49:08.103Z</time></trkpt><trkpt lat="44.2225604" lon="11.6730141"><ele>442.0</ele><time>2026-04-25T09:49:11.1Z</time></trkpt><trkpt lat="44.2224955" lon="11.673057"><ele>442.0</ele><time>2026-04-25T09:49:13.986Z</time></trkpt><trkpt lat="44.2224185" lon="11.6730874"><ele>442.0</ele><time>2026-04-25T09:49:17.095Z</time></trkpt><trkpt lat="44.2223334" lon="11.6731089"><ele>442.00000000000006</ele><time>2026-04-25T09:49:20.095Z</time></trkpt><trkpt lat="44.2222494" lon="11.6731276"><ele>442.0</ele><time>2026-04-25T09:49:23.088Z</time></trkpt><trkpt lat="44.2221653" lon="11.6731338"><ele>441.1666666666667</ele><time>2026-04-25T09:49:26.089Z</time></trkpt><trkpt lat="44.2220799" lon="11.6731074"><ele>440.33333333333337</ele><time>2026-04-25T09:49:29.043Z</time></trkpt><trkpt lat="44.2219957" lon="11.6730738"><ele>439.5</ele><time>2026-04-25T09:49:32.087Z</time></trkpt><trkpt lat="44.2219171" lon="11.6730457"><ele>438.66666666666663</ele><time>2026-04-25T09:49:35.095Z</time></trkpt><trkpt lat="44.2218413" lon="11.6730019"><ele>437.8333333333333</ele><time>2026-04-25T09:49:38.078Z</time></trkpt><trkpt lat="44.2217645" lon="11.6729513"><ele>437.0</ele><time>2026-04-25T09:49:41.098Z</time></trkpt><trkpt lat="44.22169" lon="11.6728983"><ele>436.99999999999994</ele><time>2026-04-25T09:49:44.069Z</time></trkpt><trkpt lat="44.2216175" lon="11.6728367"><ele>437.0</ele><time>2026-04-25T09:49:47.091Z</time></trkpt><trkpt lat="44.2215473" lon="11.6727843"><ele>437.0</ele><time>2026-04-25T09:49:50.128Z</time></trkpt><trkpt lat="44.2214728" lon="11.6727485"><ele>437.0</ele><time>2026-04-25T09:49:53.081Z</time></trkpt><trkpt lat="44.221404" lon="11.6727653"><ele>436.99999999999994</ele><time>2026-04-25T09:49:56.087Z</time></trkpt><trkpt lat="44.2213551" lon="11.6728605"><ele>437.0</ele><time>2026-04-25T09:49:59.086Z</time></trkpt><trkpt lat="44.221319" lon="11.672958"><ele>432.3333333333333</ele><time>2026-04-25T09:50:02.102Z</time></trkpt><trkpt lat="44.2212921" lon="11.6730485"><ele>427.66666666666663</ele><time>2026-04-25T09:50:05.104Z</time></trkpt><trkpt lat="44.221292" lon="11.6731633"><ele>423.0</ele><time>2026-04-25T09:50:08.027Z</time></trkpt><trkpt lat="44.221303" lon="11.6732582"><ele>418.33333333333337</ele><time>2026-04-25T09:50:10.156Z</time></trkpt><trkpt lat="44.2213144" lon="11.6733764"><ele>413.6666666666667</ele><time>2026-04-25T09:50:13.089Z</time></trkpt><trkpt lat="44.2213063" lon="11.6734883"><ele>409.0</ele><time>2026-04-25T09:50:16.123Z</time></trkpt><trkpt lat="44.2212962" lon="11.6735867"><ele>409.7142857142857</ele><time>2026-04-25T09:50:19.004Z</time></trkpt><trkpt lat="44.2212861" lon="11.6736854"><ele>410.42857142857144</ele><time>2026-04-25T09:50:22.073Z</time></trkpt><trkpt lat="44.2212818" lon="11.6737767"><ele>411.14285714285717</ele><time>2026-04-25T09:50:25.045Z</time></trkpt><trkpt lat="44.2212741" lon="11.6738826"><ele>411.8571428571429</ele><time>2026-04-25T09:50:29.073Z</time></trkpt><trkpt lat="44.2212589" lon="11.6739949"><ele>412.57142857142856</ele><time>2026-04-25T09:50:33.099Z</time></trkpt><trkpt lat="44.2212375" lon="11.6740939"><ele>413.28571428571433</ele><time>2026-04-25T09:50:36.064Z</time></trkpt><trkpt lat="44.2212003" lon="11.6741773"><ele>414.0</ele><time>2026-04-25T09:50:39.108Z</time></trkpt><trkpt lat="44.2211631" lon="11.6742532"><ele>414.0</ele><time>2026-04-25T09:50:41.708Z</time></trkpt><trkpt lat="44.2211201" lon="11.6743526"><ele>414.0</ele><time>2026-04-25T09:50:45.085Z</time></trkpt><trkpt lat="44.2210748" lon="11.6744516"><ele>414.0</ele><time>2026-04-25T09:50:48.119Z</time></trkpt><trkpt lat="44.2210271" lon="11.6745522"><ele>414.0</ele><time>2026-04-25T09:50:51.066Z</time></trkpt><trkpt lat="44.220975" lon="11.6746377"><ele>414.0</ele><time>2026-04-25T09:50:54.078Z</time></trkpt><trkpt lat="44.2209273" lon="11.6747272"><ele>414.0</ele><time>2026-04-25T09:50:57.081Z</time></trkpt><trkpt lat="44.2208801" lon="11.6748138"><ele>415.3333333333333</ele><time>2026-04-25T09:51:00.126Z</time></trkpt><trkpt lat="44.2208368" lon="11.6748998"><ele>416.66666666666663</ele><time>2026-04-25T09:51:03.071Z</time></trkpt><trkpt lat="44.220783" lon="11.6749898"><ele>418.0</ele><time>2026-04-25T09:51:06.066Z</time></trkpt><trkpt lat="44.2207365" lon="11.6750528"><ele>419.3333333333333</ele><time>2026-04-25T09:51:08.073Z</time></trkpt><trkpt lat="44.2206649" lon="11.6751207"><ele>420.66666666666663</ele><time>2026-04-25T09:51:11.087Z</time></trkpt><trkpt lat="44.2205939" lon="11.6751811"><ele>422.0</ele><time>2026-04-25T09:51:14.089Z</time></trkpt><trkpt lat="44.2205121" lon="11.6752466"><ele>421.3333333333333</ele><time>2026-04-25T09:51:17.091Z</time></trkpt><trkpt lat="44.2204557" lon="11.675289"><ele>420.66666666666663</ele><time>2026-04-25T09:51:19.081Z</time></trkpt><trkpt lat="44.2203813" lon="11.6753397"><ele>420.0</ele><time>2026-04-25T09:51:22.097Z</time></trkpt><trkpt lat="44.220312" lon="11.675386"><ele>419.33333333333337</ele><time>2026-04-25T09:51:25.003Z</time></trkpt><trkpt lat="44.2202454" lon="11.6754468"><ele>418.6666666666667</ele><time>2026-04-25T09:51:28.1Z</time></trkpt><trkpt lat="44.220199" lon="11.6755408"><ele>418.0</ele><time>2026-04-25T09:51:31.023Z</time></trkpt><trkpt lat="44.2201587" lon="11.675636"><ele>418.0</ele><time>2026-04-25T09:51:34.069Z</time></trkpt><trkpt lat="44.2201235" lon="11.6757291"><ele>418.0</ele><time>2026-04-25T09:51:37.076Z</time></trkpt><trkpt lat="44.2201018" lon="11.6758134"><ele>418.0</ele><time>2026-04-25T09:51:40.105Z</time></trkpt><trkpt lat="44.2200794" lon="11.6758975"><ele>418.0</ele><time>2026-04-25T09:51:43.099Z</time></trkpt><trkpt lat="44.2200435" lon="11.6759721"><ele>418.0</ele><time>2026-04-25T09:51:46.092Z</time></trkpt><trkpt lat="44.2200027" lon="11.6760783"><ele>418.0</ele><time>2026-04-25T09:51:50.056Z</time></trkpt><trkpt lat="44.2199783" lon="11.6761756"><ele>418.0</ele><time>2026-04-25T09:51:53.087Z</time></trkpt><trkpt lat="44.21997" lon="11.6762719"><ele>416.85714285714283</ele><time>2026-04-25T09:51:55.987Z</time></trkpt><trkpt lat="44.2199702" lon="11.6763806"><ele>415.71428571428567</ele><time>2026-04-25T09:51:59.081Z</time></trkpt><trkpt lat="44.2199984" lon="11.6764803"><ele>414.57142857142856</ele><time>2026-04-25T09:52:02.049Z</time></trkpt><trkpt lat="44.2200519" lon="11.6765528"><ele>413.42857142857144</ele><time>2026-04-25T09:52:05.087Z</time></trkpt><trkpt lat="44.2201227" lon="11.6765985"><ele>412.2857142857143</ele><time>2026-04-25T09:52:08.123Z</time></trkpt><trkpt lat="44.220183" lon="11.6766347"><ele>411.14285714285717</ele><time>2026-04-25T09:52:11.028Z</time></trkpt><trkpt lat="44.2202518" lon="11.6766779"><ele>410.0</ele><time>2026-04-25T09:52:14.071Z</time></trkpt><trkpt lat="44.2203183" lon="11.6767204"><ele>409.99999999999994</ele><time>2026-04-25T09:52:17.078Z</time></trkpt><trkpt lat="44.2203878" lon="11.6767772"><ele>410.0</ele><time>2026-04-25T09:52:20.08Z</time></trkpt><trkpt lat="44.2204581" lon="11.6768403"><ele>410.0</ele><time>2026-04-25T09:52:23.085Z</time></trkpt><trkpt lat="44.2205229" lon="11.6769094"><ele>410.0</ele><time>2026-04-25T09:52:26.085Z</time></trkpt><trkpt lat="44.220583" lon="11.6769836"><ele>409.99999999999994</ele><time>2026-04-25T09:52:29.11Z</time></trkpt><trkpt lat="44.2206477" lon="11.6770462"><ele>410.0</ele><time>2026-04-25T09:52:32.082Z</time></trkpt><trkpt lat="44.220716" lon="11.6771112"><ele>408.66666666666663</ele><time>2026-04-25T09:52:35.064Z</time></trkpt><trkpt lat="44.220779" lon="11.6771722"><ele>407.3333333333333</ele><time>2026-04-25T09:52:37.984Z</time></trkpt><trkpt lat="44.2208444" lon="11.6772466"><ele>406.0</ele><time>2026-04-25T09:52:41.08Z</time></trkpt><trkpt lat="44.2209066" lon="11.6773336"><ele>404.66666666666663</ele><time>2026-04-25T09:52:44.063Z</time></trkpt><trkpt lat="44.2209596" lon="11.6774294"><ele>403.3333333333333</ele><time>2026-04-25T09:52:46.987Z</time></trkpt><trkpt lat="44.2210036" lon="11.6775367"><ele>402.0</ele><time>2026-04-25T09:52:50.088Z</time></trkpt><trkpt lat="44.2210383" lon="11.6776427"><ele>402.0</ele><time>2026-04-25T09:52:53.097Z</time></trkpt><trkpt lat="44.2210608" lon="11.6777467"><ele>402.0</ele><time>2026-04-25T09:52:56.107Z</time></trkpt><trkpt lat="44.2210769" lon="11.6778619"><ele>402.0</ele><time>2026-04-25T09:52:59.09Z</time></trkpt><trkpt lat="44.2210962" lon="11.6779782"><ele>402.0</ele><time>2026-04-25T09:53:02.022Z</time></trkpt><trkpt lat="44.2211228" lon="11.678095"><ele>402.0</ele><time>2026-04-25T09:53:05.101Z</time></trkpt><trkpt lat="44.221159" lon="11.6782152"><ele>402.0</ele><time>2026-04-25T09:53:08.1Z</time></trkpt><trkpt lat="44.2211937" lon="11.6783295"><ele>399.8333333333333</ele><time>2026-04-25T09:53:11.006Z</time></trkpt><trkpt lat="44.2212291" lon="11.6784469"><ele>397.66666666666663</ele><time>2026-04-25T09:53:14.11Z</time></trkpt><trkpt lat="44.2212606" lon="11.6785679"><ele>395.5</ele><time>2026-04-25T09:53:17.096Z</time></trkpt><trkpt lat="44.221291" lon="11.6786835"><ele>393.3333333333333</ele><time>2026-04-25T09:53:20.021Z</time></trkpt><trkpt lat="44.2213068" lon="11.6787962"><ele>391.16666666666663</ele><time>2026-04-25T09:53:23.141Z</time></trkpt><trkpt lat="44.2213044" lon="11.6788979"><ele>389.0</ele><time>2026-04-25T09:53:26.086Z</time></trkpt><trkpt lat="44.2212896" lon="11.679"><ele>387.42857142857144</ele><time>2026-04-25T09:53:29.093Z</time></trkpt><trkpt lat="44.2212702" lon="11.6790889"><ele>385.85714285714283</ele><time>2026-04-25T09:53:32.065Z</time></trkpt><trkpt lat="44.2212543" lon="11.6791778"><ele>384.2857142857143</ele><time>2026-04-25T09:53:35.027Z</time></trkpt><trkpt lat="44.2212367" lon="11.6792727"><ele>382.7142857142857</ele><time>2026-04-25T09:53:38.089Z</time></trkpt><trkpt lat="44.2212202" lon="11.6793687"><ele>381.1428571428571</ele><time>2026-04-25T09:53:41.056Z</time></trkpt><trkpt lat="44.2212023" lon="11.6794667"><ele>379.57142857142856</ele><time>2026-04-25T09:53:44.104Z</time></trkpt><trkpt lat="44.2211809" lon="11.6795797"><ele>378.0</ele><time>2026-04-25T09:53:47.102Z</time></trkpt><trkpt lat="44.2211484" lon="11.6796937"><ele>378.0</ele><time>2026-04-25T09:53:50.086Z</time></trkpt><trkpt lat="44.2211053" lon="11.6798103"><ele>378.0</ele><time>2026-04-25T09:53:53.102Z</time></trkpt><trkpt lat="44.2210506" lon="11.6799094"><ele>378.0</ele><time>2026-04-25T09:53:56.03Z</time></trkpt><trkpt lat="44.2210129" lon="11.6799863"><ele>378.0</ele><time>2026-04-25T09:53:58.091Z</time></trkpt><trkpt lat="44.2209751" lon="11.6800941"><ele>378.0</ele><time>2026-04-25T09:54:01.006Z</time></trkpt><trkpt lat="44.220961" lon="11.6802167"><ele>378.0</ele><time>2026-04-25T09:54:04.066Z</time></trkpt><trkpt lat="44.2209685" lon="11.6803251"><ele>376.5</ele><time>2026-04-25T09:54:06.989Z</time></trkpt><trkpt lat="44.2209944" lon="11.6804336"><ele>375.0</ele><time>2026-04-25T09:54:10.16Z</time></trkpt><trkpt lat="44.2210372" lon="11.6805271"><ele>373.5</ele><time>2026-04-25T09:54:13.287Z</time></trkpt><trkpt lat="44.2210882" lon="11.6806047"><ele>372.0</ele><time>2026-04-25T09:54:16.41Z</time></trkpt><trkpt lat="44.2211528" lon="11.6806801"><ele>370.5</ele><time>2026-04-25T09:54:19.547Z</time></trkpt><trkpt lat="44.221219" lon="11.6807571"><ele>369.0</ele><time>2026-04-25T09:54:22.665Z</time></trkpt><trkpt lat="44.2212758" lon="11.6808084"><ele>369.0</ele><time>2026-04-25T09:54:25.111Z</time></trkpt><trkpt lat="44.2213475" lon="11.6808702"><ele>369.0</ele><time>2026-04-25T09:54:28.078Z</time></trkpt><trkpt lat="44.2214258" lon="11.6809157"><ele>369.0</ele><time>2026-04-25T09:54:30.99Z</time></trkpt><trkpt lat="44.2214872" lon="11.6809406"><ele>369.0</ele><time>2026-04-25T09:54:33.076Z</time></trkpt><trkpt lat="44.2215696" lon="11.6809628"><ele>369.0</ele><time>2026-04-25T09:54:36.077Z</time></trkpt><trkpt lat="44.221652" lon="11.6809852"><ele>369.0</ele><time>2026-04-25T09:54:39.003Z</time></trkpt><trkpt lat="44.2217143" lon="11.6809984"><ele>371.2</ele><time>2026-04-25T09:54:41.083Z</time></trkpt><trkpt lat="44.2218023" lon="11.6810096"><ele>373.4</ele><time>2026-04-25T09:54:44.078Z</time></trkpt><trkpt lat="44.2218966" lon="11.6809962"><ele>375.6</ele><time>2026-04-25T09:54:47.085Z</time></trkpt><trkpt lat="44.2219831" lon="11.6809614"><ele>377.8</ele><time>2026-04-25T09:54:50.049Z</time></trkpt><trkpt lat="44.222061" lon="11.680888"><ele>380.0</ele><time>2026-04-25T09:54:53.094Z</time></trkpt><trkpt lat="44.2221292" lon="11.6808149"><ele>380.0</ele><time>2026-04-25T09:54:55.988Z</time></trkpt><trkpt lat="44.2222021" lon="11.6807283"><ele>380.0</ele><time>2026-04-25T09:54:58.942Z</time></trkpt><trkpt lat="44.2222546" lon="11.6806649"><ele>380.0</ele><time>2026-04-25T09:55:00.968Z</time></trkpt><trkpt lat="44.2223076" lon="11.6805721"><ele>380.0</ele><time>2026-04-25T09:55:04.002Z</time></trkpt><trkpt lat="44.2223583" lon="11.6804865"><ele>380.0</ele><time>2026-04-25T09:55:07.081Z</time></trkpt><trkpt lat="44.2224066" lon="11.6804117"><ele>380.0</ele><time>2026-04-25T09:55:10.073Z</time></trkpt><trkpt lat="44.2224469" lon="11.6803285"><ele>379.1666666666667</ele><time>2026-04-25T09:55:13.113Z</time></trkpt><trkpt lat="44.2224842" lon="11.6802296"><ele>378.33333333333337</ele><time>2026-04-25T09:55:16.107Z</time></trkpt><trkpt lat="44.2225274" lon="11.6801339"><ele>377.5</ele><time>2026-04-25T09:55:19.089Z</time></trkpt><trkpt lat="44.2225703" lon="11.6800432"><ele>376.6666666666667</ele><time>2026-04-25T09:55:22.082Z</time></trkpt><trkpt lat="44.222606" lon="11.679953"><ele>375.8333333333333</ele><time>2026-04-25T09:55:24.983Z</time></trkpt><trkpt lat="44.2226422" lon="11.6798561"><ele>375.0</ele><time>2026-04-25T09:55:28.079Z</time></trkpt><trkpt lat="44.2226734" lon="11.6797636"><ele>375.0</ele><time>2026-04-25T09:55:31.071Z</time></trkpt><trkpt lat="44.2227064" lon="11.6796702"><ele>375.0</ele><time>2026-04-25T09:55:34.103Z</time></trkpt><trkpt lat="44.2227404" lon="11.6795923"><ele>375.0</ele><time>2026-04-25T09:55:37.096Z</time></trkpt><trkpt lat="44.2228126" lon="11.6795682"><ele>375.0</ele><time>2026-04-25T09:55:40.092Z</time></trkpt><trkpt lat="44.2228912" lon="11.6795612"><ele>375.0</ele><time>2026-04-25T09:55:43.089Z</time></trkpt><trkpt lat="44.2229655" lon="11.6796067"><ele>375.0</ele><time>2026-04-25T09:55:46.089Z</time></trkpt><trkpt lat="44.2229992" lon="11.6797069"><ele>375.0</ele><time>2026-04-25T09:55:49.073Z</time></trkpt><trkpt lat="44.2230223" lon="11.6798239"><ele>375.0</ele><time>2026-04-25T09:55:52.082Z</time></trkpt><trkpt lat="44.2230451" lon="11.679936"><ele>375.0</ele><time>2026-04-25T09:55:54.99Z</time></trkpt><trkpt lat="44.2230526" lon="11.6800694"><ele>375.0</ele><time>2026-04-25T09:55:58.087Z</time></trkpt><trkpt lat="44.2230499" lon="11.68016"><ele>375.0</ele><time>2026-04-25T09:56:00.106Z</time></trkpt><trkpt lat="44.223037" lon="11.680288"><ele>375.0</ele><time>2026-04-25T09:56:03.097Z</time></trkpt><trkpt lat="44.2230356" lon="11.6804021"><ele>373.6666666666667</ele><time>2026-04-25T09:56:06.064Z</time></trkpt><trkpt lat="44.2230359" lon="11.680509"><ele>372.3333333333333</ele><time>2026-04-25T09:56:09.06Z</time></trkpt><trkpt lat="44.2230443" lon="11.6806154"><ele>371.0</ele><time>2026-04-25T09:56:12.128Z</time></trkpt><trkpt lat="44.2230447" lon="11.6807192"><ele>369.66666666666663</ele><time>2026-04-25T09:56:15.007Z</time></trkpt><trkpt lat="44.2230246" lon="11.6808221"><ele>368.3333333333333</ele><time>2026-04-25T09:56:18.068Z</time></trkpt><trkpt lat="44.2229985" lon="11.6809387"><ele>367.0</ele><time>2026-04-25T09:56:21.072Z</time></trkpt><trkpt lat="44.2229703" lon="11.6810482"><ele>366.3333333333333</ele><time>2026-04-25T09:56:24.095Z</time></trkpt><trkpt lat="44.222944" lon="11.6811436"><ele>365.66666666666663</ele><time>2026-04-25T09:56:27.066Z</time></trkpt><trkpt lat="44.2229204" lon="11.6812464"><ele>365.0</ele><time>2026-04-25T09:56:30.077Z</time></trkpt><trkpt lat="44.2228962" lon="11.6813465"><ele>364.3333333333333</ele><time>2026-04-25T09:56:33.077Z</time></trkpt><trkpt lat="44.2228777" lon="11.6814467"><ele>363.6666666666667</ele><time>2026-04-25T09:56:36.083Z</time></trkpt><trkpt lat="44.2228536" lon="11.6815548"><ele>363.0</ele><time>2026-04-25T09:56:39.089Z</time></trkpt><trkpt lat="44.2228362" lon="11.6816555"><ele>362.99999999999994</ele><time>2026-04-25T09:56:42.09Z</time></trkpt><trkpt lat="44.2228137" lon="11.6817546"><ele>363.0</ele><time>2026-04-25T09:56:45.101Z</time></trkpt><trkpt lat="44.2227929" lon="11.6818508"><ele>363.0</ele><time>2026-04-25T09:56:47.98Z</time></trkpt><trkpt lat="44.2227703" lon="11.6819394"><ele>363.0</ele><time>2026-04-25T09:56:51.094Z</time></trkpt><trkpt lat="44.2227435" lon="11.6820348"><ele>363.0</ele><time>2026-04-25T09:56:54.001Z</time></trkpt><trkpt lat="44.2227133" lon="11.6821412"><ele>362.99999999999994</ele><time>2026-04-25T09:56:57.091Z</time></trkpt><trkpt lat="44.2226755" lon="11.6822243"><ele>363.0</ele><time>2026-04-25T09:57:00.042Z</time></trkpt><trkpt lat="44.2226191" lon="11.6822848"><ele>361.8333333333333</ele><time>2026-04-25T09:57:03.091Z</time></trkpt><trkpt lat="44.2225493" lon="11.6823456"><ele>360.6666666666667</ele><time>2026-04-25T09:57:06.1Z</time></trkpt><trkpt lat="44.222468" lon="11.6824185"><ele>359.5</ele><time>2026-04-25T09:57:09.108Z</time></trkpt><trkpt lat="44.2223948" lon="11.6824766"><ele>358.33333333333337</ele><time>2026-04-25T09:57:11.888Z</time></trkpt><trkpt lat="44.222339" lon="11.6825247"><ele>357.1666666666667</ele><time>2026-04-25T09:57:14.085Z</time></trkpt><trkpt lat="44.2222682" lon="11.682598"><ele>356.0</ele><time>2026-04-25T09:57:17.07Z</time></trkpt><trkpt lat="44.2222048" lon="11.6826823"><ele>354.6666666666667</ele><time>2026-04-25T09:57:20.103Z</time></trkpt><trkpt lat="44.2221605" lon="11.6827834"><ele>353.33333333333337</ele><time>2026-04-25T09:57:23.076Z</time></trkpt><trkpt lat="44.2221465" lon="11.682892"><ele>352.0</ele><time>2026-04-25T09:57:26.063Z</time></trkpt><trkpt lat="44.2221448" lon="11.6829992"><ele>350.6666666666667</ele><time>2026-04-25T09:57:29.085Z</time></trkpt><trkpt lat="44.222139" lon="11.6831047"><ele>349.3333333333333</ele><time>2026-04-25T09:57:32.023Z</time></trkpt><trkpt lat="44.2221319" lon="11.6832196"><ele>348.0</ele><time>2026-04-25T09:57:35.088Z</time></trkpt><trkpt lat="44.2221288" lon="11.6833347"><ele>348.0</ele><time>2026-04-25T09:57:38.076Z</time></trkpt><trkpt lat="44.2221208" lon="11.6834225"><ele>348.0</ele><time>2026-04-25T09:57:40.07Z</time></trkpt><trkpt lat="44.2221095" lon="11.6835388"><ele>348.0</ele><time>2026-04-25T09:57:43.097Z</time></trkpt><trkpt lat="44.222099" lon="11.6836546"><ele>348.0</ele><time>2026-04-25T09:57:46.059Z</time></trkpt><trkpt lat="44.2220823" lon="11.6837707"><ele>348.0</ele><time>2026-04-25T09:57:49.083Z</time></trkpt><trkpt lat="44.2220568" lon="11.6838807"><ele>348.0</ele><time>2026-04-25T09:57:51.999Z</time></trkpt><trkpt lat="44.2220171" lon="11.6839937"><ele>345.6666666666667</ele><time>2026-04-25T09:57:55.087Z</time></trkpt><trkpt lat="44.2219683" lon="11.6840915"><ele>343.3333333333333</ele><time>2026-04-25T09:57:58.051Z</time></trkpt><trkpt lat="44.2219023" lon="11.6841595"><ele>341.0</ele><time>2026-04-25T09:58:01.098Z</time></trkpt><trkpt lat="44.2218378" lon="11.6841817"><ele>338.66666666666663</ele><time>2026-04-25T09:58:04.051Z</time></trkpt><trkpt lat="44.2217671" lon="11.6841928"><ele>336.3333333333333</ele><time>2026-04-25T09:58:07.091Z</time></trkpt><trkpt lat="44.2216955" lon="11.6842076"><ele>334.0</ele><time>2026-04-25T09:58:10.025Z</time></trkpt><trkpt lat="44.221627" lon="11.6842839"><ele>334.0</ele><time>2026-04-25T09:58:13.107Z</time></trkpt><trkpt lat="44.2215989" lon="11.6843835"><ele>334.0</ele><time>2026-04-25T09:58:16.079Z</time></trkpt><trkpt lat="44.2216232" lon="11.6844838"><ele>334.0</ele><time>2026-04-25T09:58:19.104Z</time></trkpt><trkpt lat="44.2216888" lon="11.6845413"><ele>334.0</ele><time>2026-04-25T09:58:22.091Z</time></trkpt><trkpt lat="44.2217681" lon="11.6845532"><ele>334.0</ele><time>2026-04-25T09:58:25.1Z</time></trkpt><trkpt lat="44.2218418" lon="11.684514"><ele>334.0</ele><time>2026-04-25T09:58:28.073Z</time></trkpt><trkpt lat="44.2219011" lon="11.6844489"><ele>334.0</ele><time>2026-04-25T09:58:31.101Z</time></trkpt><trkpt lat="44.2219497" lon="11.6843896"><ele>334.0</ele><time>2026-04-25T09:58:34.075Z</time></trkpt><trkpt lat="44.2220078" lon="11.6843051"><ele>334.0</ele><time>2026-04-25T09:58:38.121Z</time></trkpt><trkpt lat="44.2220485" lon="11.6842378"><ele>334.0</ele><time>2026-04-25T09:58:41.097Z</time></trkpt><trkpt lat="44.2221035" lon="11.6841704"><ele>334.0</ele><time>2026-04-25T09:58:44.068Z</time></trkpt><trkpt lat="44.2221655" lon="11.6841062"><ele>334.0</ele><time>2026-04-25T09:58:47.098Z</time></trkpt><trkpt lat="44.2222195" lon="11.6840336"><ele>334.0</ele><time>2026-04-25T09:58:49.979Z</time></trkpt><trkpt lat="44.2222775" lon="11.6839589"><ele>332.3333333333333</ele><time>2026-04-25T09:58:53.107Z</time></trkpt><trkpt lat="44.222337" lon="11.6838992"><ele>330.66666666666663</ele><time>2026-04-25T09:58:56.099Z</time></trkpt><trkpt lat="44.2224001" lon="11.6838481"><ele>329.0</ele><time>2026-04-25T09:58:59.096Z</time></trkpt><trkpt lat="44.2224626" lon="11.6837941"><ele>327.3333333333333</ele><time>2026-04-25T09:59:02.081Z</time></trkpt><trkpt lat="44.2225248" lon="11.6837405"><ele>325.6666666666667</ele><time>2026-04-25T09:59:04.969Z</time></trkpt><trkpt lat="44.2225939" lon="11.6836904"><ele>324.0</ele><time>2026-04-25T09:59:08.072Z</time></trkpt><trkpt lat="44.2226658" lon="11.683633"><ele>326.5</ele><time>2026-04-25T09:59:11.079Z</time></trkpt><trkpt lat="44.2227397" lon="11.683583"><ele>329.0</ele><time>2026-04-25T09:59:14.083Z</time></trkpt><trkpt lat="44.2228137" lon="11.6835277"><ele>331.5</ele><time>2026-04-25T09:59:17.083Z</time></trkpt><trkpt lat="44.2228904" lon="11.6834626"><ele>334.0</ele><time>2026-04-25T09:59:20.079Z</time></trkpt><trkpt lat="44.2229607" lon="11.683398"><ele>336.5</ele><time>2026-04-25T09:59:23.065Z</time></trkpt><trkpt lat="44.2230311" lon="11.6833101"><ele>339.0</ele><time>2026-04-25T09:59:26.083Z</time></trkpt><trkpt lat="44.2230982" lon="11.6832224"><ele>335.8333333333333</ele><time>2026-04-25T09:59:29.057Z</time></trkpt><trkpt lat="44.2231488" lon="11.6831677"><ele>332.6666666666667</ele><time>2026-04-25T09:59:31.083Z</time></trkpt><trkpt lat="44.2232189" lon="11.683086"><ele>329.5</ele><time>2026-04-25T09:59:34.088Z</time></trkpt><trkpt lat="44.2232825" lon="11.6830146"><ele>326.33333333333337</ele><time>2026-04-25T09:59:37.043Z</time></trkpt><trkpt lat="44.2233521" lon="11.6829436"><ele>323.1666666666667</ele><time>2026-04-25T09:59:40.082Z</time></trkpt><trkpt lat="44.2234146" lon="11.6828849"><ele>320.0</ele><time>2026-04-25T09:59:43.004Z</time></trkpt><trkpt lat="44.2234769" lon="11.6828143"><ele>323.0</ele><time>2026-04-25T09:59:46.12Z</time></trkpt><trkpt lat="44.2235375" lon="11.6827473"><ele>326.0</ele><time>2026-04-25T09:59:49.082Z</time></trkpt><trkpt lat="44.2236073" lon="11.6826887"><ele>329.0</ele><time>2026-04-25T09:59:52.056Z</time></trkpt><trkpt lat="44.2236833" lon="11.6826352"><ele>332.0</ele><time>2026-04-25T09:59:55.072Z</time></trkpt><trkpt lat="44.2237613" lon="11.6825903"><ele>335.0</ele><time>2026-04-25T09:59:58.099Z</time></trkpt><trkpt lat="44.2238294" lon="11.6825495"><ele>338.0</ele><time>2026-04-25T10:00:00.989Z</time></trkpt><trkpt lat="44.2238956" lon="11.6825185"><ele>338.0</ele><time>2026-04-25T10:00:04.1Z</time></trkpt><trkpt lat="44.2239748" lon="11.6824693"><ele>338.0</ele><time>2026-04-25T10:00:08.048Z</time></trkpt><trkpt lat="44.2240428" lon="11.682417"><ele>338.0</ele><time>2026-04-25T10:00:11.155Z</time></trkpt><trkpt lat="44.2240969" lon="11.6823476"><ele>338.0</ele><time>2026-04-25T10:00:14.075Z</time></trkpt><trkpt lat="44.2241349" lon="11.6822627"><ele>338.0</ele><time>2026-04-25T10:00:17.081Z</time></trkpt><trkpt lat="44.2241682" lon="11.6821569"><ele>338.0</ele><time>2026-04-25T10:00:20.086Z</time></trkpt><trkpt lat="44.2242124" lon="11.6820597"><ele>334.6666666666667</ele><time>2026-04-25T10:00:23.007Z</time></trkpt><trkpt lat="44.2242852" lon="11.6819818"><ele>331.33333333333337</ele><time>2026-04-25T10:00:26.08Z</time></trkpt><trkpt lat="44.2243512" lon="11.6819545"><ele>328.0</ele><time>2026-04-25T10:00:28.093Z</time></trkpt><trkpt lat="44.2244206" lon="11.6819715"><ele>324.6666666666667</ele><time>2026-04-25T10:00:30.077Z</time></trkpt><trkpt lat="44.22448" lon="11.6820149"><ele>321.3333333333333</ele><time>2026-04-25T10:00:32.042Z</time></trkpt><trkpt lat="44.2245273" lon="11.6821224"><ele>318.0</ele><time>2026-04-25T10:00:35.105Z</time></trkpt><trkpt lat="44.2245268" lon="11.6822535"><ele>318.0</ele><time>2026-04-25T10:00:38.063Z</time></trkpt><trkpt lat="44.2244885" lon="11.6823558"><ele>318.0</ele><time>2026-04-25T10:00:41.12Z</time></trkpt><trkpt lat="44.2244352" lon="11.6824457"><ele>318.0</ele><time>2026-04-25T10:00:44.075Z</time></trkpt><trkpt lat="44.2243766" lon="11.682548"><ele>318.0</ele><time>2026-04-25T10:00:47.06Z</time></trkpt><trkpt lat="44.2243395" lon="11.6826449"><ele>318.0</ele><time>2026-04-25T10:00:50.065Z</time></trkpt><trkpt lat="44.2243101" lon="11.6827423"><ele>318.0</ele><time>2026-04-25T10:00:53.068Z</time></trkpt><trkpt lat="44.2242824" lon="11.6828436"><ele>316.1666666666667</ele><time>2026-04-25T10:00:56.087Z</time></trkpt><trkpt lat="44.224257" lon="11.6829522"><ele>314.3333333333333</ele><time>2026-04-25T10:00:59.043Z</time></trkpt><trkpt lat="44.2242411" lon="11.6830757"><ele>312.5</ele><time>2026-04-25T10:01:02.079Z</time></trkpt><trkpt lat="44.2242277" lon="11.683197"><ele>310.66666666666663</ele><time>2026-04-25T10:01:05Z</time></trkpt><trkpt lat="44.2242237" lon="11.683321"><ele>308.8333333333333</ele><time>2026-04-25T10:01:08.085Z</time></trkpt><trkpt lat="44.2242227" lon="11.6834357"><ele>307.0</ele><time>2026-04-25T10:01:11.097Z</time></trkpt><trkpt lat="44.2242137" lon="11.6835582"><ele>305.66666666666663</ele><time>2026-04-25T10:01:14.045Z</time></trkpt><trkpt lat="44.2241936" lon="11.6836838"><ele>304.3333333333333</ele><time>2026-04-25T10:01:17.09Z</time></trkpt><trkpt lat="44.224178" lon="11.6838"><ele>303.0</ele><time>2026-04-25T10:01:20.044Z</time></trkpt><trkpt lat="44.2241549" lon="11.6839114"><ele>301.6666666666667</ele><time>2026-04-25T10:01:23.101Z</time></trkpt><trkpt lat="44.2241231" lon="11.6840059"><ele>300.33333333333337</ele><time>2026-04-25T10:01:25.988Z</time></trkpt><trkpt lat="44.2240831" lon="11.684108"><ele>299.0</ele><time>2026-04-25T10:01:29.092Z</time></trkpt><trkpt lat="44.2240385" lon="11.6842061"><ele>299.0</ele><time>2026-04-25T10:01:32.084Z</time></trkpt><trkpt lat="44.2239871" lon="11.6842961"><ele>299.0</ele><time>2026-04-25T10:01:35.091Z</time></trkpt><trkpt lat="44.223932" lon="11.6843768"><ele>299.0</ele><time>2026-04-25T10:01:38.072Z</time></trkpt><trkpt lat="44.2238648" lon="11.6844273"><ele>299.0</ele><time>2026-04-25T10:01:41.081Z</time></trkpt><trkpt lat="44.2237974" lon="11.6844633"><ele>299.0</ele><time>2026-04-25T10:01:44.026Z</time></trkpt><trkpt lat="44.2237289" lon="11.6845028"><ele>299.0</ele><time>2026-04-25T10:01:47.072Z</time></trkpt><trkpt lat="44.2236593" lon="11.6845401"><ele>298.0</ele><time>2026-04-25T10:01:50.048Z</time></trkpt><trkpt lat="44.2235881" lon="11.6845816"><ele>297.0</ele><time>2026-04-25T10:01:53.096Z</time></trkpt><trkpt lat="44.2235188" lon="11.6846309"><ele>296.0</ele><time>2026-04-25T10:01:56.095Z</time></trkpt><trkpt lat="44.2234509" lon="11.6846825"><ele>295.0</ele><time>2026-04-25T10:01:59.093Z</time></trkpt><trkpt lat="44.2233818" lon="11.6847407"><ele>294.0</ele><time>2026-04-25T10:02:02.08Z</time></trkpt><trkpt lat="44.2233191" lon="11.684801"><ele>293.0</ele><time>2026-04-25T10:02:05.11Z</time></trkpt><trkpt lat="44.2232605" lon="11.6848725"><ele>293.0</ele><time>2026-04-25T10:02:08.104Z</time></trkpt><trkpt lat="44.2232055" lon="11.6849435"><ele>293.0</ele><time>2026-04-25T10:02:11.042Z</time></trkpt><trkpt lat="44.2231534" lon="11.6850215"><ele>293.0</ele><time>2026-04-25T10:02:14.097Z</time></trkpt><trkpt lat="44.2231001" lon="11.6851024"><ele>293.0</ele><time>2026-04-25T10:02:17.053Z</time></trkpt><trkpt lat="44.2230469" lon="11.6851764"><ele>293.0</ele><time>2026-04-25T10:02:20.086Z</time></trkpt><trkpt lat="44.2229972" lon="11.6852578"><ele>293.0</ele><time>2026-04-25T10:02:23.051Z</time></trkpt><trkpt lat="44.2229469" lon="11.6853392"><ele>292.6666666666667</ele><time>2026-04-25T10:02:26.085Z</time></trkpt><trkpt lat="44.2228984" lon="11.6854165"><ele>292.33333333333337</ele><time>2026-04-25T10:02:29.005Z</time></trkpt><trkpt lat="44.2228473" lon="11.685504"><ele>292.0</ele><time>2026-04-25T10:02:32.06Z</time></trkpt><trkpt lat="44.2227952" lon="11.6855899"><ele>291.6666666666667</ele><time>2026-04-25T10:02:35.008Z</time></trkpt><trkpt lat="44.2227456" lon="11.6856903"><ele>291.3333333333333</ele><time>2026-04-25T10:02:38.083Z</time></trkpt><trkpt lat="44.2227035" lon="11.685797"><ele>291.0</ele><time>2026-04-25T10:02:40.992Z</time></trkpt><trkpt lat="44.2226685" lon="11.6858754"><ele>291.0</ele><time>2026-04-25T10:02:43.045Z</time></trkpt><trkpt lat="44.2226198" lon="11.6859746"><ele>291.0</ele><time>2026-04-25T10:02:45.867Z</time></trkpt><trkpt lat="44.2225691" lon="11.686039"><ele>291.0</ele><time>2026-04-25T10:02:47.982Z</time></trkpt><trkpt lat="44.2225193" lon="11.6860934"><ele>291.0</ele><time>2026-04-25T10:02:50.089Z</time></trkpt><trkpt lat="44.2224528" lon="11.6861466"><ele>291.0</ele><time>2026-04-25T10:02:53.095Z</time></trkpt><trkpt lat="44.2223743" lon="11.6861812"><ele>291.0</ele><time>2026-04-25T10:02:56.128Z</time></trkpt><trkpt lat="44.2223003" lon="11.6862058"><ele>288.6666666666667</ele><time>2026-04-25T10:02:59.069Z</time></trkpt><trkpt lat="44.2222288" lon="11.6862342"><ele>286.3333333333333</ele><time>2026-04-25T10:03:02.063Z</time></trkpt><trkpt lat="44.2221656" lon="11.6862552"><ele>284.0</ele><time>2026-04-25T10:03:05.098Z</time></trkpt><trkpt lat="44.222097" lon="11.6862884"><ele>281.66666666666663</ele><time>2026-04-25T10:03:08.006Z</time></trkpt><trkpt lat="44.2220134" lon="11.6863412"><ele>279.3333333333333</ele><time>2026-04-25T10:03:11.145Z</time></trkpt><trkpt lat="44.221937" lon="11.6864098"><ele>277.0</ele><time>2026-04-25T10:03:14.087Z</time></trkpt><trkpt lat="44.2218687" lon="11.6864754"><ele>277.0</ele><time>2026-04-25T10:03:17.031Z</time></trkpt><trkpt lat="44.2217964" lon="11.6865462"><ele>277.0</ele><time>2026-04-25T10:03:20.105Z</time></trkpt><trkpt lat="44.2217273" lon="11.686601"><ele>277.0</ele><time>2026-04-25T10:03:23.063Z</time></trkpt><trkpt lat="44.2216598" lon="11.6866321"><ele>277.0</ele><time>2026-04-25T10:03:26.078Z</time></trkpt><trkpt lat="44.2215919" lon="11.6866511"><ele>277.0</ele><time>2026-04-25T10:03:29.085Z</time></trkpt><trkpt lat="44.2215276" lon="11.6866797"><ele>277.0</ele><time>2026-04-25T10:03:32.026Z</time></trkpt><trkpt lat="44.2214691" lon="11.6867224"><ele>277.0</ele><time>2026-04-25T10:03:35.078Z</time></trkpt><trkpt lat="44.2214257" lon="11.686803"><ele>276.16666666666663</ele><time>2026-04-25T10:03:38.051Z</time></trkpt><trkpt lat="44.2214168" lon="11.6869147"><ele>275.3333333333333</ele><time>2026-04-25T10:03:41.082Z</time></trkpt><trkpt lat="44.2214585" lon="11.6870038"><ele>274.5</ele><time>2026-04-25T10:03:44.059Z</time></trkpt><trkpt lat="44.2215327" lon="11.6870312"><ele>273.6666666666667</ele><time>2026-04-25T10:03:47.068Z</time></trkpt><trkpt lat="44.2216015" lon="11.6870112"><ele>272.83333333333337</ele><time>2026-04-25T10:03:50.064Z</time></trkpt><trkpt lat="44.2216798" lon="11.6869751"><ele>272.0</ele><time>2026-04-25T10:03:53.095Z</time></trkpt><trkpt lat="44.2217642" lon="11.6869559"><ele>269.5</ele><time>2026-04-25T10:03:56.073Z</time></trkpt><trkpt lat="44.2218538" lon="11.6869423"><ele>267.0</ele><time>2026-04-25T10:03:59.101Z</time></trkpt><trkpt lat="44.2219291" lon="11.6869376"><ele>264.5</ele><time>2026-04-25T10:04:02.068Z</time></trkpt><trkpt lat="44.2220125" lon="11.6869388"><ele>262.0</ele><time>2026-04-25T10:04:05.04Z</time></trkpt><trkpt lat="44.222097" lon="11.6869388"><ele>259.5</ele><time>2026-04-25T10:04:08.041Z</time></trkpt><trkpt lat="44.2221771" lon="11.6869532"><ele>257.0</ele><time>2026-04-25T10:04:11.027Z</time></trkpt><trkpt lat="44.2222508" lon="11.6869739"><ele>257.5</ele><time>2026-04-25T10:04:14.084Z</time></trkpt><trkpt lat="44.2223227" lon="11.6870001"><ele>258.0</ele><time>2026-04-25T10:04:17.043Z</time></trkpt><trkpt lat="44.2223959" lon="11.6870204"><ele>258.5</ele><time>2026-04-25T10:04:20.09Z</time></trkpt><trkpt lat="44.2224668" lon="11.6870535"><ele>259.0</ele><time>2026-04-25T10:04:22.983Z</time></trkpt><trkpt lat="44.2225384" lon="11.6870867"><ele>259.5</ele><time>2026-04-25T10:04:26.093Z</time></trkpt><trkpt lat="44.2226113" lon="11.6871293"><ele>260.0</ele><time>2026-04-25T10:04:29.088Z</time></trkpt><trkpt lat="44.2226847" lon="11.6871712"><ele>260.0</ele><time>2026-04-25T10:04:32.106Z</time></trkpt><trkpt lat="44.2227455" lon="11.6872029"><ele>260.0</ele><time>2026-04-25T10:04:34.902Z</time></trkpt><trkpt lat="44.222824" lon="11.687226"><ele>260.0</ele><time>2026-04-25T10:04:38.083Z</time></trkpt><trkpt lat="44.2229017" lon="11.6872207"><ele>260.0</ele><time>2026-04-25T10:04:41.105Z</time></trkpt><trkpt lat="44.2229786" lon="11.6871854"><ele>260.0</ele><time>2026-04-25T10:04:44.1Z</time></trkpt><trkpt lat="44.2230523" lon="11.6871161"><ele>260.0</ele><time>2026-04-25T10:04:47.073Z</time></trkpt><trkpt lat="44.2231064" lon="11.6870582"><ele>260.0</ele><time>2026-04-25T10:04:49.091Z</time></trkpt><trkpt lat="44.2231715" lon="11.6869794"><ele>260.0</ele><time>2026-04-25T10:04:52.079Z</time></trkpt><trkpt lat="44.2232308" lon="11.6868954"><ele>260.0</ele><time>2026-04-25T10:04:55.073Z</time></trkpt><trkpt lat="44.2232766" lon="11.6868024"><ele>260.0</ele><time>2026-04-25T10:04:58.088Z</time></trkpt><trkpt lat="44.2233274" lon="11.6867156"><ele>260.0</ele><time>2026-04-25T10:05:01.049Z</time></trkpt><trkpt lat="44.223383" lon="11.6866304"><ele>260.0</ele><time>2026-04-25T10:05:04.079Z</time></trkpt><trkpt lat="44.2234387" lon="11.6865491"><ele>260.0</ele><time>2026-04-25T10:05:07.078Z</time></trkpt><trkpt lat="44.2234881" lon="11.6864685"><ele>260.0</ele><time>2026-04-25T10:05:10.08Z</time></trkpt><trkpt lat="44.2235539" lon="11.6864085"><ele>260.0</ele><time>2026-04-25T10:05:13.097Z</time></trkpt><trkpt lat="44.2236225" lon="11.6863695"><ele>260.0</ele><time>2026-04-25T10:05:15.98Z</time></trkpt><trkpt lat="44.2237027" lon="11.6863934"><ele>260.0</ele><time>2026-04-25T10:05:19.077Z</time></trkpt><trkpt lat="44.2237601" lon="11.6864801"><ele>260.0</ele><time>2026-04-25T10:05:22.091Z</time></trkpt><trkpt lat="44.2237839" lon="11.6865838"><ele>260.0</ele><time>2026-04-25T10:05:25.029Z</time></trkpt><trkpt lat="44.2237836" lon="11.6866979"><ele>260.0</ele><time>2026-04-25T10:05:28.093Z</time></trkpt><trkpt lat="44.2237513" lon="11.6868243"><ele>260.0</ele><time>2026-04-25T10:05:31.085Z</time></trkpt><trkpt lat="44.2237378" lon="11.6869192"><ele>260.0</ele><time>2026-04-25T10:05:33.069Z</time></trkpt><trkpt lat="44.2237319" lon="11.6870113"><ele>260.0</ele><time>2026-04-25T10:05:35.045Z</time></trkpt><trkpt lat="44.2237267" lon="11.6871022"><ele>260.0</ele><time>2026-04-25T10:05:37.113Z</time></trkpt><trkpt lat="44.223743" lon="11.68722"><ele>258.6666666666667</ele><time>2026-04-25T10:05:40.096Z</time></trkpt><trkpt lat="44.2237648" lon="11.6873342"><ele>257.33333333333337</ele><time>2026-04-25T10:05:43.031Z</time></trkpt><trkpt lat="44.2237887" lon="11.6874455"><ele>256.0</ele><time>2026-04-25T10:05:46.092Z</time></trkpt><trkpt lat="44.2238028" lon="11.6875465"><ele>254.66666666666669</ele><time>2026-04-25T10:05:49.004Z</time></trkpt><trkpt lat="44.2238056" lon="11.6876518"><ele>253.33333333333334</ele><time>2026-04-25T10:05:52.041Z</time></trkpt><trkpt lat="44.2238042" lon="11.687756"><ele>252.0</ele><time>2026-04-25T10:05:55.07Z</time></trkpt><trkpt lat="44.2238013" lon="11.6878691"><ele>251.33333333333334</ele><time>2026-04-25T10:05:59.08Z</time></trkpt><trkpt lat="44.2237991" lon="11.6879621"><ele>250.66666666666669</ele><time>2026-04-25T10:06:02.079Z</time></trkpt><trkpt lat="44.2237902" lon="11.6880727"><ele>250.0</ele><time>2026-04-25T10:06:04.987Z</time></trkpt><trkpt lat="44.2237775" lon="11.6882034"><ele>249.33333333333334</ele><time>2026-04-25T10:06:08.085Z</time></trkpt><trkpt lat="44.2237718" lon="11.6882935"><ele>248.66666666666669</ele><time>2026-04-25T10:06:10.091Z</time></trkpt><trkpt lat="44.2237667" lon="11.6883836"><ele>248.0</ele><time>2026-04-25T10:06:12.106Z</time></trkpt><trkpt lat="44.2237759" lon="11.6885089"><ele>245.50000000000003</ele><time>2026-04-25T10:06:14.983Z</time></trkpt><trkpt lat="44.2237942" lon="11.688597"><ele>243.0</ele><time>2026-04-25T10:06:17.1Z</time></trkpt><trkpt lat="44.2237968" lon="11.6887136"><ele>240.5</ele><time>2026-04-25T10:06:20.058Z</time></trkpt><trkpt lat="44.2237676" lon="11.6888246"><ele>238.0</ele><time>2026-04-25T10:06:23.03Z</time></trkpt><trkpt lat="44.2237159" lon="11.6889162"><ele>235.50000000000003</ele><time>2026-04-25T10:06:26.083Z</time></trkpt><trkpt lat="44.2236459" lon="11.6889898"><ele>233.0</ele><time>2026-04-25T10:06:29.085Z</time></trkpt><trkpt lat="44.2235725" lon="11.6890434"><ele>233.00000000000003</ele><time>2026-04-25T10:06:32.059Z</time></trkpt><trkpt lat="44.2234867" lon="11.6890565"><ele>233.0</ele><time>2026-04-25T10:06:35.086Z</time></trkpt><trkpt lat="44.2234106" lon="11.6890569"><ele>233.0</ele><time>2026-04-25T10:06:38.108Z</time></trkpt><trkpt lat="44.223336" lon="11.689073"><ele>233.0</ele><time>2026-04-25T10:06:41.096Z</time></trkpt><trkpt lat="44.2232563" lon="11.6890695"><ele>233.00000000000003</ele><time>2026-04-25T10:06:44.103Z</time></trkpt><trkpt lat="44.2231742" lon="11.689052"><ele>233.0</ele><time>2026-04-25T10:06:47.095Z</time></trkpt><trkpt lat="44.2230935" lon="11.6890301"><ele>232.14285714285717</ele><time>2026-04-25T10:06:50.004Z</time></trkpt><trkpt lat="44.2230223" lon="11.6890039"><ele>231.28571428571428</ele><time>2026-04-25T10:06:53.095Z</time></trkpt><trkpt lat="44.2229547" lon="11.6889798"><ele>230.42857142857144</ele><time>2026-04-25T10:06:56.075Z</time></trkpt><trkpt lat="44.2228843" lon="11.6889696"><ele>229.57142857142858</ele><time>2026-04-25T10:06:59.088Z</time></trkpt><trkpt lat="44.2228134" lon="11.6889785"><ele>228.71428571428572</ele><time>2026-04-25T10:07:02.091Z</time></trkpt><trkpt lat="44.2227429" lon="11.6889968"><ele>227.85714285714286</ele><time>2026-04-25T10:07:05.119Z</time></trkpt><trkpt lat="44.2226762" lon="11.6890137"><ele>227.0</ele><time>2026-04-25T10:07:08.027Z</time></trkpt><trkpt lat="44.2226013" lon="11.6890056"><ele>227.00000000000003</ele><time>2026-04-25T10:07:11.099Z</time></trkpt><trkpt lat="44.2225304" lon="11.6889797"><ele>227.0</ele><time>2026-04-25T10:07:14.029Z</time></trkpt><trkpt lat="44.2224635" lon="11.6889456"><ele>227.0</ele><time>2026-04-25T10:07:16.823Z</time></trkpt><trkpt lat="44.2223967" lon="11.6888909"><ele>227.0</ele><time>2026-04-25T10:07:19.988Z</time></trkpt><trkpt lat="44.2223327" lon="11.6888263"><ele>227.00000000000003</ele><time>2026-04-25T10:07:23.085Z</time></trkpt><trkpt lat="44.2222666" lon="11.688758"><ele>227.0</ele><time>2026-04-25T10:07:26.099Z</time></trkpt><trkpt lat="44.2221927" lon="11.6887453"><ele>227.0</ele><time>2026-04-25T10:07:29.111Z</time></trkpt><trkpt lat="44.2221276" lon="11.6887876"><ele>227.00000000000003</ele><time>2026-04-25T10:07:32.078Z</time></trkpt><trkpt lat="44.2220775" lon="11.6888658"><ele>227.0</ele><time>2026-04-25T10:07:35.125Z</time></trkpt><trkpt lat="44.2220686" lon="11.6889596"><ele>227.0</ele><time>2026-04-25T10:07:38.056Z</time></trkpt><trkpt lat="44.2221203" lon="11.689034"><ele>227.00000000000003</ele><time>2026-04-25T10:07:41.1Z</time></trkpt><trkpt lat="44.2221923" lon="11.6890652"><ele>227.0</ele><time>2026-04-25T10:07:44.007Z</time></trkpt><trkpt lat="44.2222727" lon="11.68909"><ele>227.0</ele><time>2026-04-25T10:07:47.118Z</time></trkpt><trkpt lat="44.2223452" lon="11.689113"><ele>227.00000000000003</ele><time>2026-04-25T10:07:50.096Z</time></trkpt><trkpt lat="44.2224209" lon="11.6891439"><ele>227.0</ele><time>2026-04-25T10:07:53.103Z</time></trkpt><trkpt lat="44.2224914" lon="11.6891892"><ele>227.0</ele><time>2026-04-25T10:07:56.081Z</time></trkpt><trkpt lat="44.222559" lon="11.6892381"><ele>227.0</ele><time>2026-04-25T10:07:59.072Z</time></trkpt><trkpt lat="44.2226258" lon="11.6892845"><ele>227.00000000000003</ele><time>2026-04-25T10:08:02.095Z</time></trkpt><trkpt lat="44.2226959" lon="11.6893363"><ele>227.0</ele><time>2026-04-25T10:08:04.981Z</time></trkpt><trkpt lat="44.2227651" lon="11.6894036"><ele>223.66666666666669</ele><time>2026-04-25T10:08:08.064Z</time></trkpt><trkpt lat="44.2228322" lon="11.6894649"><ele>220.33333333333334</ele><time>2026-04-25T10:08:11.1Z</time></trkpt><trkpt lat="44.2228998" lon="11.6895239"><ele>217.0</ele><time>2026-04-25T10:08:14.08Z</time></trkpt><trkpt lat="44.2229599" lon="11.6895818"><ele>213.66666666666669</ele><time>2026-04-25T10:08:17.099Z</time></trkpt><trkpt lat="44.2230179" lon="11.6896351"><ele>210.33333333333334</ele><time>2026-04-25T10:08:20.063Z</time></trkpt><trkpt lat="44.2230747" lon="11.6896923"><ele>207.0</ele><time>2026-04-25T10:08:23.095Z</time></trkpt><trkpt lat="44.2231389" lon="11.6897566"><ele>207.83333333333334</ele><time>2026-04-25T10:08:26.06Z</time></trkpt><trkpt lat="44.2232053" lon="11.6898214"><ele>208.66666666666669</ele><time>2026-04-25T10:08:29.102Z</time></trkpt><trkpt lat="44.2232649" lon="11.6898731"><ele>209.5</ele><time>2026-04-25T10:08:32.082Z</time></trkpt><trkpt lat="44.2233255" lon="11.6899272"><ele>210.33333333333334</ele><time>2026-04-25T10:08:35.128Z</time></trkpt><trkpt lat="44.2233918" lon="11.6899645"><ele>211.16666666666669</ele><time>2026-04-25T10:08:38.083Z</time></trkpt><trkpt lat="44.2234626" lon="11.6900122"><ele>212.0</ele><time>2026-04-25T10:08:41.082Z</time></trkpt><trkpt lat="44.2235363" lon="11.6900584"><ele>212.00000000000003</ele><time>2026-04-25T10:08:43.989Z</time></trkpt><trkpt lat="44.2236168" lon="11.6901073"><ele>212.0</ele><time>2026-04-25T10:08:47.078Z</time></trkpt><trkpt lat="44.223695" lon="11.6901596"><ele>212.0</ele><time>2026-04-25T10:08:50.109Z</time></trkpt><trkpt lat="44.223765" lon="11.6902006"><ele>212.0</ele><time>2026-04-25T10:08:53.036Z</time></trkpt><trkpt lat="44.2238387" lon="11.6902539"><ele>212.00000000000003</ele><time>2026-04-25T10:08:56.091Z</time></trkpt><trkpt lat="44.2239048" lon="11.6903203"><ele>212.0</ele><time>2026-04-25T10:08:59.081Z</time></trkpt><trkpt lat="44.2239715" lon="11.690391"><ele>210.66666666666669</ele><time>2026-04-25T10:09:02.073Z</time></trkpt><trkpt lat="44.2240379" lon="11.6904673"><ele>209.33333333333334</ele><time>2026-04-25T10:09:05.083Z</time></trkpt><trkpt lat="44.2241094" lon="11.6905386"><ele>208.0</ele><time>2026-04-25T10:09:08.061Z</time></trkpt><trkpt lat="44.2241819" lon="11.6906093"><ele>206.66666666666669</ele><time>2026-04-25T10:09:11.045Z</time></trkpt><trkpt lat="44.2242464" lon="11.6906719"><ele>205.33333333333334</ele><time>2026-04-25T10:09:14.085Z</time></trkpt><trkpt lat="44.2243123" lon="11.6907407"><ele>204.0</ele><time>2026-04-25T10:09:17.043Z</time></trkpt><trkpt lat="44.2243777" lon="11.6908239"><ele>204.0</ele><time>2026-04-25T10:09:20.091Z</time></trkpt><trkpt lat="44.2244324" lon="11.6909103"><ele>204.0</ele><time>2026-04-25T10:09:23.113Z</time></trkpt><trkpt lat="44.2244852" lon="11.6909997"><ele>204.0</ele><time>2026-04-25T10:09:26.105Z</time></trkpt><trkpt lat="44.2245432" lon="11.6910812"><ele>204.0</ele><time>2026-04-25T10:09:29.096Z</time></trkpt><trkpt lat="44.2246002" lon="11.6911539"><ele>204.0</ele><time>2026-04-25T10:09:32.095Z</time></trkpt><trkpt lat="44.224652" lon="11.6912269"><ele>204.0</ele><time>2026-04-25T10:09:35.089Z</time></trkpt><trkpt lat="44.2247023" lon="11.6913088"><ele>203.16666666666666</ele><time>2026-04-25T10:09:38.079Z</time></trkpt><trkpt lat="44.224757" lon="11.6913866"><ele>202.33333333333331</ele><time>2026-04-25T10:09:41.023Z</time></trkpt><trkpt lat="44.2248187" lon="11.6914618"><ele>201.5</ele><time>2026-04-25T10:09:44.09Z</time></trkpt><trkpt lat="44.2248788" lon="11.6915346"><ele>200.66666666666666</ele><time>2026-04-25T10:09:47.082Z</time></trkpt><trkpt lat="44.2249376" lon="11.6916065"><ele>199.83333333333331</ele><time>2026-04-25T10:09:50.099Z</time></trkpt><trkpt lat="44.2250032" lon="11.6916767"><ele>199.0</ele><time>2026-04-25T10:09:53.091Z</time></trkpt><trkpt lat="44.2250722" lon="11.6917433"><ele>198.99999999999997</ele><time>2026-04-25T10:09:56.106Z</time></trkpt><trkpt lat="44.2251432" lon="11.6918082"><ele>199.0</ele><time>2026-04-25T10:09:59.087Z</time></trkpt><trkpt lat="44.2252194" lon="11.69186"><ele>199.0</ele><time>2026-04-25T10:10:02.027Z</time></trkpt><trkpt lat="44.2252957" lon="11.6919086"><ele>199.0</ele><time>2026-04-25T10:10:05.086Z</time></trkpt><trkpt lat="44.2253647" lon="11.6919591"><ele>198.99999999999997</ele><time>2026-04-25T10:10:08.007Z</time></trkpt><trkpt lat="44.2254385" lon="11.6920155"><ele>199.0</ele><time>2026-04-25T10:10:11.106Z</time></trkpt><trkpt lat="44.2255066" lon="11.6920711"><ele>197.49999999999997</ele><time>2026-04-25T10:10:14.085Z</time></trkpt><trkpt lat="44.225575" lon="11.6921322"><ele>196.0</ele><time>2026-04-25T10:10:17.084Z</time></trkpt><trkpt lat="44.2256346" lon="11.6922032"><ele>194.5</ele><time>2026-04-25T10:10:20.079Z</time></trkpt><trkpt lat="44.2256845" lon="11.6922748"><ele>193.0</ele><time>2026-04-25T10:10:23.048Z</time></trkpt><trkpt lat="44.2257329" lon="11.6923519"><ele>191.5</ele><time>2026-04-25T10:10:26.135Z</time></trkpt><trkpt lat="44.2257601" lon="11.692444"><ele>190.0</ele><time>2026-04-25T10:10:29.108Z</time></trkpt><trkpt lat="44.2257803" lon="11.692548"><ele>190.0</ele><time>2026-04-25T10:10:32.102Z</time></trkpt><trkpt lat="44.2258005" lon="11.6926508"><ele>190.0</ele><time>2026-04-25T10:10:35.079Z</time></trkpt><trkpt lat="44.2258346" lon="11.6927484"><ele>190.0</ele><time>2026-04-25T10:10:38.086Z</time></trkpt><trkpt lat="44.2258757" lon="11.6928391"><ele>190.0</ele><time>2026-04-25T10:10:41.09Z</time></trkpt><trkpt lat="44.2259225" lon="11.6929306"><ele>190.0</ele><time>2026-04-25T10:10:44.083Z</time></trkpt><trkpt lat="44.2259757" lon="11.6930275"><ele>190.0</ele><time>2026-04-25T10:10:47.092Z</time></trkpt><trkpt lat="44.2260158" lon="11.6931322"><ele>189.0</ele><time>2026-04-25T10:10:50.004Z</time></trkpt><trkpt lat="44.2260414" lon="11.6932213"><ele>188.0</ele><time>2026-04-25T10:10:52.099Z</time></trkpt><trkpt lat="44.226071" lon="11.6933364"><ele>187.0</ele><time>2026-04-25T10:10:55.083Z</time></trkpt><trkpt lat="44.2260833" lon="11.6934443"><ele>186.0</ele><time>2026-04-25T10:10:58.046Z</time></trkpt><trkpt lat="44.2260757" lon="11.6935446"><ele>185.0</ele><time>2026-04-25T10:11:01.083Z</time></trkpt><trkpt lat="44.2260578" lon="11.6936485"><ele>184.0</ele><time>2026-04-25T10:11:04.082Z</time></trkpt><trkpt lat="44.2260407" lon="11.6937569"><ele>182.16666666666669</ele><time>2026-04-25T10:11:07.083Z</time></trkpt><trkpt lat="44.2260171" lon="11.6938651"><ele>180.33333333333334</ele><time>2026-04-25T10:11:10.04Z</time></trkpt><trkpt lat="44.2259808" lon="11.6939672"><ele>178.5</ele><time>2026-04-25T10:11:13.1Z</time></trkpt><trkpt lat="44.2259308" lon="11.6940517"><ele>176.66666666666666</ele><time>2026-04-25T10:11:16.085Z</time></trkpt><trkpt lat="44.22586" lon="11.6941132"><ele>174.83333333333331</ele><time>2026-04-25T10:11:19.157Z</time></trkpt><trkpt lat="44.2257818" lon="11.6941379"><ele>173.0</ele><time>2026-04-25T10:11:22.094Z</time></trkpt><trkpt lat="44.2257053" lon="11.6941555"><ele>173.14285714285714</ele><time>2026-04-25T10:11:25.094Z</time></trkpt><trkpt lat="44.2256321" lon="11.6941792"><ele>173.2857142857143</ele><time>2026-04-25T10:11:28.021Z</time></trkpt><trkpt lat="44.2255601" lon="11.6942104"><ele>173.42857142857144</ele><time>2026-04-25T10:11:31.095Z</time></trkpt><trkpt lat="44.2254943" lon="11.6942344"><ele>173.57142857142856</ele><time>2026-04-25T10:11:34.07Z</time></trkpt><trkpt lat="44.22543" lon="11.6942486"><ele>173.71428571428572</ele><time>2026-04-25T10:11:37.108Z</time></trkpt><trkpt lat="44.2253493" lon="11.6942651"><ele>173.85714285714286</ele><time>2026-04-25T10:11:40.089Z</time></trkpt><trkpt lat="44.225273" lon="11.6942751"><ele>174.0</ele><time>2026-04-25T10:11:43.068Z</time></trkpt><trkpt lat="44.2252096" lon="11.6942855"><ele>174.0</ele><time>2026-04-25T10:11:46.091Z</time></trkpt><trkpt lat="44.2251464" lon="11.694336"><ele>174.0</ele><time>2026-04-25T10:11:49.02Z</time></trkpt><trkpt lat="44.2251018" lon="11.6944348"><ele>174.0</ele><time>2026-04-25T10:11:52.109Z</time></trkpt><trkpt lat="44.2251074" lon="11.6945416"><ele>174.0</ele><time>2026-04-25T10:11:55.1Z</time></trkpt><trkpt lat="44.2251567" lon="11.694632"><ele>174.0</ele><time>2026-04-25T10:11:58.088Z</time></trkpt><trkpt lat="44.2252196" lon="11.694716"><ele>174.0</ele><time>2026-04-25T10:12:01.094Z</time></trkpt><trkpt lat="44.2252785" lon="11.6947922"><ele>172.5</ele><time>2026-04-25T10:12:03.983Z</time></trkpt><trkpt lat="44.2253424" lon="11.6948701"><ele>171.0</ele><time>2026-04-25T10:12:07.06Z</time></trkpt><trkpt lat="44.2254001" lon="11.6949424"><ele>169.5</ele><time>2026-04-25T10:12:10.09Z</time></trkpt><trkpt lat="44.2254514" lon="11.6950061"><ele>168.0</ele><time>2026-04-25T10:12:13.108Z</time></trkpt><trkpt lat="44.2255051" lon="11.6950765"><ele>166.5</ele><time>2026-04-25T10:12:16.008Z</time></trkpt><trkpt lat="44.2255694" lon="11.6951467"><ele>165.0</ele><time>2026-04-25T10:12:19.092Z</time></trkpt><trkpt lat="44.2256348" lon="11.6952125"><ele>164.57142857142858</ele><time>2026-04-25T10:12:22.116Z</time></trkpt><trkpt lat="44.2256962" lon="11.695269"><ele>164.14285714285714</ele><time>2026-04-25T10:12:25.047Z</time></trkpt><trkpt lat="44.2257581" lon="11.6953157"><ele>163.71428571428572</ele><time>2026-04-25T10:12:28.1Z</time></trkpt><trkpt lat="44.2258246" lon="11.6953433"><ele>163.28571428571428</ele><time>2026-04-25T10:12:33.04Z</time></trkpt><trkpt lat="44.2258936" lon="11.6953375"><ele>162.85714285714286</ele><time>2026-04-25T10:12:40.081Z</time></trkpt><trkpt lat="44.2259606" lon="11.6953381"><ele>162.42857142857144</ele><time>2026-04-25T10:12:46.087Z</time></trkpt><trkpt lat="44.2260296" lon="11.6953401"><ele>162.0</ele><time>2026-04-25T10:12:52.111Z</time></trkpt><trkpt lat="44.2261095" lon="11.6953118"><ele>162.0</ele><time>2026-04-25T10:13:11.087Z</time></trkpt><trkpt lat="44.2261783" lon="11.6952664"><ele>162.0</ele><time>2026-04-25T10:13:14.006Z</time></trkpt><trkpt lat="44.2262692" lon="11.6952367"><ele>162.0</ele><time>2026-04-25T10:13:17.098Z</time></trkpt><trkpt lat="44.2263323" lon="11.6952652"><ele>162.0</ele><time>2026-04-25T10:13:19.112Z</time></trkpt><trkpt lat="44.2264091" lon="11.6952828"><ele>162.0</ele><time>2026-04-25T10:13:22.096Z</time></trkpt><trkpt lat="44.226489" lon="11.6952982"><ele>162.0</ele><time>2026-04-25T10:13:25.098Z</time></trkpt><trkpt lat="44.2265708" lon="11.6952979"><ele>161.83333333333334</ele><time>2026-04-25T10:13:28.084Z</time></trkpt><trkpt lat="44.2266499" lon="11.6953001"><ele>161.66666666666666</ele><time>2026-04-25T10:13:31.104Z</time></trkpt><trkpt lat="44.2267308" lon="11.6953078"><ele>161.5</ele><time>2026-04-25T10:13:34.103Z</time></trkpt><trkpt lat="44.226814" lon="11.6953163"><ele>161.33333333333331</ele><time>2026-04-25T10:13:37.118Z</time></trkpt><trkpt lat="44.2268935" lon="11.6953208"><ele>161.16666666666666</ele><time>2026-04-25T10:13:40.087Z</time></trkpt><trkpt lat="44.2269667" lon="11.6953553"><ele>161.0</ele><time>2026-04-25T10:13:43.024Z</time></trkpt><trkpt lat="44.2270434" lon="11.6954147"><ele>161.0</ele><time>2026-04-25T10:13:46.081Z</time></trkpt><trkpt lat="44.2271211" lon="11.6954733"><ele>161.0</ele><time>2026-04-25T10:13:49.103Z</time></trkpt><trkpt lat="44.2271966" lon="11.6955179"><ele>161.0</ele><time>2026-04-25T10:13:52.044Z</time></trkpt><trkpt lat="44.2272562" lon="11.695557"><ele>161.0</ele><time>2026-04-25T10:13:54.089Z</time></trkpt><trkpt lat="44.2273314" lon="11.6956174"><ele>161.0</ele><time>2026-04-25T10:13:57.097Z</time></trkpt><trkpt lat="44.227401" lon="11.6956789"><ele>161.0</ele><time>2026-04-25T10:14:00.089Z</time></trkpt><trkpt lat="44.2274704" lon="11.6957302"><ele>160.71428571428572</ele><time>2026-04-25T10:14:03.099Z</time></trkpt><trkpt lat="44.2275354" lon="11.6957764"><ele>160.42857142857144</ele><time>2026-04-25T10:14:05.999Z</time></trkpt><trkpt lat="44.2276059" lon="11.6958319"><ele>160.14285714285714</ele><time>2026-04-25T10:14:09.118Z</time></trkpt><trkpt lat="44.2276676" lon="11.6958903"><ele>159.85714285714286</ele><time>2026-04-25T10:14:12.071Z</time></trkpt><trkpt lat="44.2277189" lon="11.6959482"><ele>159.57142857142858</ele><time>2026-04-25T10:14:15.092Z</time></trkpt><trkpt lat="44.2277737" lon="11.6960052"><ele>159.28571428571428</ele><time>2026-04-25T10:14:18.092Z</time></trkpt><trkpt lat="44.2278372" lon="11.6960566"><ele>159.0</ele><time>2026-04-25T10:14:21.074Z</time></trkpt><trkpt lat="44.2279041" lon="11.6960999"><ele>159.0</ele><time>2026-04-25T10:14:23.861Z</time></trkpt><trkpt lat="44.2279823" lon="11.6961597"><ele>159.0</ele><time>2026-04-25T10:14:27.075Z</time></trkpt><trkpt lat="44.2280517" lon="11.6962311"><ele>159.0</ele><time>2026-04-25T10:14:30.109Z</time></trkpt><trkpt lat="44.2281123" lon="11.6962953"><ele>159.0</ele><time>2026-04-25T10:14:33.105Z</time></trkpt><trkpt lat="44.2281574" lon="11.6963797"><ele>159.0</ele><time>2026-04-25T10:14:36.057Z</time></trkpt><trkpt lat="44.2281998" lon="11.6964645"><ele>159.0</ele><time>2026-04-25T10:14:39.103Z</time></trkpt><trkpt lat="44.2282215" lon="11.6965556"><ele>159.42857142857142</ele><time>2026-04-25T10:14:42.088Z</time></trkpt><trkpt lat="44.228229" lon="11.6966528"><ele>159.85714285714286</ele><time>2026-04-25T10:14:45.123Z</time></trkpt><trkpt lat="44.2282233" lon="11.6967506"><ele>160.28571428571428</ele><time>2026-04-25T10:14:48.067Z</time></trkpt><trkpt lat="44.2282175" lon="11.6968479"><ele>160.71428571428572</ele><time>2026-04-25T10:14:51.088Z</time></trkpt><trkpt lat="44.228201" lon="11.6969604"><ele>161.14285714285714</ele><time>2026-04-25T10:14:55.084Z</time></trkpt><trkpt lat="44.2281881" lon="11.6970476"><ele>161.57142857142858</ele><time>2026-04-25T10:14:58.064Z</time></trkpt><trkpt lat="44.2281829" lon="11.6971587"><ele>162.0</ele><time>2026-04-25T10:15:02.092Z</time></trkpt><trkpt lat="44.228191" lon="11.6972469"><ele>161.85714285714286</ele><time>2026-04-25T10:15:05.068Z</time></trkpt><trkpt lat="44.228203" lon="11.6973335"><ele>161.71428571428572</ele><time>2026-04-25T10:15:08.082Z</time></trkpt><trkpt lat="44.2282153" lon="11.6974278"><ele>161.57142857142856</ele><time>2026-04-25T10:15:11.071Z</time></trkpt><trkpt lat="44.2282204" lon="11.6975276"><ele>161.42857142857144</ele><time>2026-04-25T10:15:14.101Z</time></trkpt><trkpt lat="44.2282449" lon="11.6976227"><ele>161.28571428571428</ele><time>2026-04-25T10:15:17.079Z</time></trkpt><trkpt lat="44.2282734" lon="11.6977188"><ele>161.14285714285714</ele><time>2026-04-25T10:15:20.101Z</time></trkpt><trkpt lat="44.2282984" lon="11.6978183"><ele>161.0</ele><time>2026-04-25T10:15:23.098Z</time></trkpt><trkpt lat="44.2283158" lon="11.6979176"><ele>161.0</ele><time>2026-04-25T10:15:26.083Z</time></trkpt><trkpt lat="44.2283345" lon="11.6980026"><ele>161.0</ele><time>2026-04-25T10:15:29.086Z</time></trkpt><trkpt lat="44.2283576" lon="11.6980896"><ele>161.0</ele><time>2026-04-25T10:15:32.067Z</time></trkpt><trkpt lat="44.228383" lon="11.6981821"><ele>161.0</ele><time>2026-04-25T10:15:35.149Z</time></trkpt><trkpt lat="44.2284138" lon="11.6982838"><ele>161.0</ele><time>2026-04-25T10:15:39Z</time></trkpt><trkpt lat="44.2284522" lon="11.698374"><ele>161.0</ele><time>2026-04-25T10:15:43.098Z</time></trkpt><trkpt lat="44.228475" lon="11.6984591"><ele>161.0</ele><time>2026-04-25T10:15:46.057Z</time></trkpt><trkpt lat="44.2284945" lon="11.6985481"><ele>160.71428571428572</ele><time>2026-04-25T10:15:49.095Z</time></trkpt><trkpt lat="44.2285138" lon="11.6986387"><ele>160.42857142857144</ele><time>2026-04-25T10:15:52.082Z</time></trkpt><trkpt lat="44.2285382" lon="11.6987258"><ele>160.14285714285714</ele><time>2026-04-25T10:15:55.11Z</time></trkpt><trkpt lat="44.2285648" lon="11.6988082"><ele>159.85714285714286</ele><time>2026-04-25T10:15:57.985Z</time></trkpt><trkpt lat="44.2285975" lon="11.6989041"><ele>159.57142857142858</ele><time>2026-04-25T10:16:01.103Z</time></trkpt><trkpt lat="44.2286223" lon="11.6990055"><ele>159.28571428571428</ele><time>2026-04-25T10:16:04.103Z</time></trkpt><trkpt lat="44.2286475" lon="11.6991047"><ele>159.0</ele><time>2026-04-25T10:16:07.08Z</time></trkpt><trkpt lat="44.2286609" lon="11.6992163"><ele>159.0</ele><time>2026-04-25T10:16:10.104Z</time></trkpt><trkpt lat="44.2286978" lon="11.6993161"><ele>159.0</ele><time>2026-04-25T10:16:13.088Z</time></trkpt><trkpt lat="44.228732" lon="11.6994186"><ele>159.0</ele><time>2026-04-25T10:16:16.083Z</time></trkpt><trkpt lat="44.228761" lon="11.6995204"><ele>159.0</ele><time>2026-04-25T10:16:19.083Z</time></trkpt><trkpt lat="44.228782" lon="11.6996302"><ele>159.0</ele><time>2026-04-25T10:16:22.077Z</time></trkpt><trkpt lat="44.2288015" lon="11.699738"><ele>159.0</ele><time>2026-04-25T10:16:25.064Z</time></trkpt><trkpt lat="44.2288261" lon="11.6998467"><ele>159.14285714285714</ele><time>2026-04-25T10:16:28.097Z</time></trkpt><trkpt lat="44.2288499" lon="11.6999509"><ele>159.2857142857143</ele><time>2026-04-25T10:16:30.988Z</time></trkpt><trkpt lat="44.228879" lon="11.700052"><ele>159.42857142857144</ele><time>2026-04-25T10:16:34.093Z</time></trkpt><trkpt lat="44.2289135" lon="11.7001498"><ele>159.57142857142856</ele><time>2026-04-25T10:16:37.062Z</time></trkpt><trkpt lat="44.2289417" lon="11.700236"><ele>159.71428571428572</ele><time>2026-04-25T10:16:40.061Z</time></trkpt><trkpt lat="44.2289648" lon="11.7003218"><ele>159.85714285714286</ele><time>2026-04-25T10:16:43.071Z</time></trkpt><trkpt lat="44.228993" lon="11.7004086"><ele>160.0</ele><time>2026-04-25T10:16:46.102Z</time></trkpt><trkpt lat="44.2290241" lon="11.7004878"><ele>159.28571428571428</ele><time>2026-04-25T10:16:49.097Z</time></trkpt><trkpt lat="44.2290501" lon="11.7005787"><ele>158.57142857142858</ele><time>2026-04-25T10:16:52.1Z</time></trkpt><trkpt lat="44.2290775" lon="11.7006719"><ele>157.85714285714286</ele><time>2026-04-25T10:16:55.091Z</time></trkpt><trkpt lat="44.2291085" lon="11.7007689"><ele>157.14285714285714</ele><time>2026-04-25T10:16:58.1Z</time></trkpt><trkpt lat="44.2291345" lon="11.7008588"><ele>156.42857142857142</ele><time>2026-04-25T10:17:01.118Z</time></trkpt><trkpt lat="44.2291633" lon="11.7009536"><ele>155.71428571428572</ele><time>2026-04-25T10:17:04.082Z</time></trkpt><trkpt lat="44.2291887" lon="11.7010538"><ele>155.0</ele><time>2026-04-25T10:17:07.102Z</time></trkpt><trkpt lat="44.2292157" lon="11.70115"><ele>154.57142857142858</ele><time>2026-04-25T10:17:10.082Z</time></trkpt><trkpt lat="44.2292451" lon="11.7012409"><ele>154.14285714285714</ele><time>2026-04-25T10:17:13.102Z</time></trkpt><trkpt lat="44.2292756" lon="11.701335"><ele>153.71428571428572</ele><time>2026-04-25T10:17:16.025Z</time></trkpt><trkpt lat="44.229302" lon="11.7014268"><ele>153.28571428571428</ele><time>2026-04-25T10:17:19.092Z</time></trkpt><trkpt lat="44.2293298" lon="11.7015211"><ele>152.85714285714286</ele><time>2026-04-25T10:17:21.964Z</time></trkpt><trkpt lat="44.2293533" lon="11.7016219"><ele>152.42857142857142</ele><time>2026-04-25T10:17:25.106Z</time></trkpt><trkpt lat="44.2293882" lon="11.7017055"><ele>152.0</ele><time>2026-04-25T10:17:28.083Z</time></trkpt><trkpt lat="44.2294213" lon="11.7017813"><ele>152.0</ele><time>2026-04-25T10:17:31.106Z</time></trkpt><trkpt lat="44.2294589" lon="11.7018868"><ele>152.0</ele><time>2026-04-25T10:17:35.029Z</time></trkpt><trkpt lat="44.2294873" lon="11.7019837"><ele>152.0</ele><time>2026-04-25T10:17:38.099Z</time></trkpt><trkpt lat="44.229512" lon="11.7020855"><ele>152.0</ele><time>2026-04-25T10:17:41.04Z</time></trkpt><trkpt lat="44.2295276" lon="11.7021949"><ele>152.0</ele><time>2026-04-25T10:17:44.096Z</time></trkpt><trkpt lat="44.229541" lon="11.7022855"><ele>152.0</ele><time>2026-04-25T10:17:46.646Z</time></trkpt><trkpt lat="44.2295487" lon="11.7023974"><ele>151.85714285714286</ele><time>2026-04-25T10:17:50.086Z</time></trkpt><trkpt lat="44.229557" lon="11.702492"><ele>151.71428571428572</ele><time>2026-04-25T10:17:53.076Z</time></trkpt><trkpt lat="44.2295605" lon="11.7025955"><ele>151.57142857142858</ele><time>2026-04-25T10:17:56.119Z</time></trkpt><trkpt lat="44.2295698" lon="11.7026905"><ele>151.42857142857144</ele><time>2026-04-25T10:17:59.097Z</time></trkpt><trkpt lat="44.229578" lon="11.7027859"><ele>151.28571428571428</ele><time>2026-04-25T10:18:02.1Z</time></trkpt><trkpt lat="44.2295845" lon="11.7028781"><ele>151.14285714285717</ele><time>2026-04-25T10:18:05.089Z</time></trkpt><trkpt lat="44.2295922" lon="11.7029731"><ele>151.0</ele><time>2026-04-25T10:18:08.081Z</time></trkpt><trkpt lat="44.2295994" lon="11.7030734"><ele>151.00000000000003</ele><time>2026-04-25T10:18:12.069Z</time></trkpt><trkpt lat="44.229597" lon="11.7031886"><ele>151.0</ele><time>2026-04-25T10:18:16.097Z</time></trkpt><trkpt lat="44.2295996" lon="11.7032878"><ele>151.0</ele><time>2026-04-25T10:18:19.1Z</time></trkpt><trkpt lat="44.2296116" lon="11.703387"><ele>151.0</ele><time>2026-04-25T10:18:22.052Z</time></trkpt><trkpt lat="44.2296215" lon="11.7034931"><ele>151.0</ele><time>2026-04-25T10:18:25.104Z</time></trkpt><trkpt lat="44.2296239" lon="11.7035853"><ele>151.00000000000003</ele><time>2026-04-25T10:18:28.089Z</time></trkpt><trkpt lat="44.229628" lon="11.7036769"><ele>151.0</ele><time>2026-04-25T10:18:31.091Z</time></trkpt><trkpt lat="44.2296322" lon="11.7037696"><ele>151.00000000000003</ele><time>2026-04-25T10:18:34.094Z</time></trkpt><trkpt lat="44.2296408" lon="11.7038582"><ele>151.0</ele><time>2026-04-25T10:18:37.094Z</time></trkpt><trkpt lat="44.2296465" lon="11.7039538"><ele>151.0</ele><time>2026-04-25T10:18:40.088Z</time></trkpt><trkpt lat="44.2296514" lon="11.7040504"><ele>151.0</ele><time>2026-04-25T10:18:43.093Z</time></trkpt><trkpt lat="44.2296578" lon="11.7041445"><ele>151.0</ele><time>2026-04-25T10:18:45.989Z</time></trkpt><trkpt lat="44.2296553" lon="11.7042513"><ele>151.00000000000003</ele><time>2026-04-25T10:18:49.1Z</time></trkpt><trkpt lat="44.229656" lon="11.704348"><ele>151.0</ele><time>2026-04-25T10:18:52.089Z</time></trkpt><trkpt lat="44.2296586" lon="11.7044424"><ele>150.71428571428572</ele><time>2026-04-25T10:18:55.105Z</time></trkpt><trkpt lat="44.2296661" lon="11.7045398"><ele>150.42857142857144</ele><time>2026-04-25T10:18:58.078Z</time></trkpt><trkpt lat="44.229664" lon="11.7046449"><ele>150.14285714285714</ele><time>2026-04-25T10:19:01.081Z</time></trkpt><trkpt lat="44.229671" lon="11.7047497"><ele>149.85714285714286</ele><time>2026-04-25T10:19:04.088Z</time></trkpt><trkpt lat="44.2296806" lon="11.7048511"><ele>149.57142857142856</ele><time>2026-04-25T10:19:07.121Z</time></trkpt><trkpt lat="44.2296905" lon="11.7049642"><ele>149.28571428571428</ele><time>2026-04-25T10:19:11.075Z</time></trkpt><trkpt lat="44.2296914" lon="11.70506"><ele>149.0</ele><time>2026-04-25T10:19:14.11Z</time></trkpt><trkpt lat="44.2296944" lon="11.705171"><ele>149.28571428571428</ele><time>2026-04-25T10:19:18.083Z</time></trkpt><trkpt lat="44.2297013" lon="11.7052585"><ele>149.57142857142856</ele><time>2026-04-25T10:19:21.097Z</time></trkpt><trkpt lat="44.2297078" lon="11.7053498"><ele>149.85714285714286</ele><time>2026-04-25T10:19:24.066Z</time></trkpt><trkpt lat="44.2297113" lon="11.7054459"><ele>150.14285714285714</ele><time>2026-04-25T10:19:27.066Z</time></trkpt><trkpt lat="44.2297197" lon="11.7055372"><ele>150.42857142857144</ele><time>2026-04-25T10:19:30.065Z</time></trkpt><trkpt lat="44.2297318" lon="11.7056301"><ele>150.71428571428572</ele><time>2026-04-25T10:19:33.099Z</time></trkpt><trkpt lat="44.2297262" lon="11.705746"><ele>151.0</ele><time>2026-04-25T10:19:37.079Z</time></trkpt><trkpt lat="44.2297352" lon="11.7058341"><ele>151.00000000000003</ele><time>2026-04-25T10:19:40.021Z</time></trkpt><trkpt lat="44.2297505" lon="11.7059258"><ele>151.0</ele><time>2026-04-25T10:19:43.116Z</time></trkpt><trkpt lat="44.2297469" lon="11.7060187"><ele>151.0</ele><time>2026-04-25T10:19:46.052Z</time></trkpt><trkpt lat="44.2297431" lon="11.7061097"><ele>151.0</ele><time>2026-04-25T10:19:49.127Z</time></trkpt><trkpt lat="44.2297533" lon="11.706206"><ele>151.0</ele><time>2026-04-25T10:19:52.079Z</time></trkpt><trkpt lat="44.2297564" lon="11.7062989"><ele>151.00000000000003</ele><time>2026-04-25T10:19:55.05Z</time></trkpt><trkpt lat="44.2297583" lon="11.7063933"><ele>151.0</ele><time>2026-04-25T10:19:58.104Z</time></trkpt><trkpt lat="44.2297617" lon="11.7064899"><ele>151.0</ele><time>2026-04-25T10:20:01.101Z</time></trkpt><trkpt lat="44.2297714" lon="11.706606"><ele>151.0</ele><time>2026-04-25T10:20:05.086Z</time></trkpt><trkpt lat="44.2297851" lon="11.7067199"><ele>151.0</ele><time>2026-04-25T10:20:09.099Z</time></trkpt><trkpt lat="44.2298021" lon="11.7068307"><ele>151.0</ele><time>2026-04-25T10:20:13.122Z</time></trkpt><trkpt lat="44.2298144" lon="11.7069312"><ele>151.0</ele><time>2026-04-25T10:20:17.058Z</time></trkpt><trkpt lat="44.2298372" lon="11.7070205"><ele>151.0</ele><time>2026-04-25T10:20:20.098Z</time></trkpt><trkpt lat="44.2298597" lon="11.7071141"><ele>150.14285714285717</ele><time>2026-04-25T10:20:23.089Z</time></trkpt><trkpt lat="44.2298855" lon="11.7072021"><ele>149.28571428571428</ele><time>2026-04-25T10:20:26.096Z</time></trkpt><trkpt lat="44.2299167" lon="11.7072862"><ele>148.42857142857144</ele><time>2026-04-25T10:20:29.127Z</time></trkpt><trkpt lat="44.229959" lon="11.7073573"><ele>147.57142857142858</ele><time>2026-04-25T10:20:32.102Z</time></trkpt><trkpt lat="44.2300039" lon="11.7074303"><ele>146.71428571428572</ele><time>2026-04-25T10:20:35.134Z</time></trkpt><trkpt lat="44.2300637" lon="11.7075055"><ele>145.85714285714286</ele><time>2026-04-25T10:20:39.088Z</time></trkpt><trkpt lat="44.230114" lon="11.7075706"><ele>145.0</ele><time>2026-04-25T10:20:42.1Z</time></trkpt><trkpt lat="44.2301682" lon="11.7076293"><ele>145.0</ele><time>2026-04-25T10:20:45.119Z</time></trkpt><trkpt lat="44.2302298" lon="11.7076822"><ele>145.0</ele><time>2026-04-25T10:20:49.083Z</time></trkpt><trkpt lat="44.2302725" lon="11.7077536"><ele>145.0</ele><time>2026-04-25T10:20:53.002Z</time></trkpt><trkpt lat="44.2303207" lon="11.707812"><ele>145.0</ele><time>2026-04-25T10:20:56.073Z</time></trkpt><trkpt lat="44.23037" lon="11.7078751"><ele>145.0</ele><time>2026-04-25T10:20:59.106Z</time></trkpt><trkpt lat="44.2304368" lon="11.707945"><ele>145.0</ele><time>2026-04-25T10:21:03.007Z</time></trkpt><trkpt lat="44.2305" lon="11.7079929"><ele>145.0</ele><time>2026-04-25T10:21:06.093Z</time></trkpt><trkpt lat="44.2305578" lon="11.7080552"><ele>145.28571428571428</ele><time>2026-04-25T10:21:09.08Z</time></trkpt><trkpt lat="44.2306136" lon="11.7081176"><ele>145.57142857142858</ele><time>2026-04-25T10:21:12.102Z</time></trkpt><trkpt lat="44.230668" lon="11.708174"><ele>145.85714285714286</ele><time>2026-04-25T10:21:15.109Z</time></trkpt><trkpt lat="44.230728" lon="11.708229"><ele>146.14285714285714</ele><time>2026-04-25T10:21:18.097Z</time></trkpt><trkpt lat="44.2307848" lon="11.7082823"><ele>146.42857142857144</ele><time>2026-04-25T10:21:21.121Z</time></trkpt><trkpt lat="44.2308403" lon="11.7083459"><ele>146.71428571428572</ele><time>2026-04-25T10:21:24.118Z</time></trkpt><trkpt lat="44.2308959" lon="11.7084122"><ele>147.0</ele><time>2026-04-25T10:21:27.075Z</time></trkpt><trkpt lat="44.230947" lon="11.7084768"><ele>147.42857142857142</ele><time>2026-04-25T10:21:30.095Z</time></trkpt><trkpt lat="44.2310035" lon="11.7085349"><ele>147.85714285714286</ele><time>2026-04-25T10:21:33.018Z</time></trkpt><trkpt lat="44.2310658" lon="11.7085901"><ele>148.28571428571428</ele><time>2026-04-25T10:21:36.083Z</time></trkpt><trkpt lat="44.2311282" lon="11.7086469"><ele>148.71428571428572</ele><time>2026-04-25T10:21:38.991Z</time></trkpt><trkpt lat="44.2311928" lon="11.7087111"><ele>149.14285714285714</ele><time>2026-04-25T10:21:42.111Z</time></trkpt><trkpt lat="44.2312536" lon="11.7087657"><ele>149.57142857142856</ele><time>2026-04-25T10:21:45.028Z</time></trkpt><trkpt lat="44.2313152" lon="11.7088154"><ele>150.0</ele><time>2026-04-25T10:21:48.097Z</time></trkpt><trkpt lat="44.2313704" lon="11.7088706"><ele>149.99999999999997</ele><time>2026-04-25T10:21:51.021Z</time></trkpt><trkpt lat="44.2314265" lon="11.7089282"><ele>150.0</ele><time>2026-04-25T10:21:54.076Z</time></trkpt><trkpt lat="44.2314779" lon="11.7089793"><ele>150.0</ele><time>2026-04-25T10:21:57.061Z</time></trkpt><trkpt lat="44.2315285" lon="11.7090633"><ele>150.0</ele><time>2026-04-25T10:22:01.085Z</time></trkpt><trkpt lat="44.2315883" lon="11.7091411"><ele>150.0</ele><time>2026-04-25T10:22:05.091Z</time></trkpt><trkpt lat="44.2316291" lon="11.7092159"><ele>149.99999999999997</ele><time>2026-04-25T10:22:08.087Z</time></trkpt><trkpt lat="44.2316624" lon="11.7092915"><ele>150.0</ele><time>2026-04-25T10:22:11.081Z</time></trkpt><trkpt lat="44.2316942" lon="11.7093774"><ele>149.0</ele><time>2026-04-25T10:22:14.098Z</time></trkpt><trkpt lat="44.2317243" lon="11.7094863"><ele>148.0</ele><time>2026-04-25T10:22:18.076Z</time></trkpt><trkpt lat="44.2317429" lon="11.709579"><ele>147.0</ele><time>2026-04-25T10:22:21.104Z</time></trkpt><trkpt lat="44.2317636" lon="11.7096834"><ele>146.0</ele><time>2026-04-25T10:22:25.104Z</time></trkpt><trkpt lat="44.2317795" lon="11.709782"><ele>145.0</ele><time>2026-04-25T10:22:28.282Z</time></trkpt><trkpt lat="44.2317891" lon="11.7098871"><ele>144.0</ele><time>2026-04-25T10:22:31.462Z</time></trkpt><trkpt lat="44.2318086" lon="11.7099959"><ele>144.00000000000003</ele><time>2026-04-25T10:22:34.979Z</time></trkpt><trkpt lat="44.23182" lon="11.7100848"><ele>144.0</ele><time>2026-04-25T10:22:38.099Z</time></trkpt><trkpt lat="44.2318371" lon="11.7101763"><ele>144.0</ele><time>2026-04-25T10:22:41.077Z</time></trkpt><trkpt lat="44.2318518" lon="11.7102865"><ele>144.0</ele><time>2026-04-25T10:22:45.095Z</time></trkpt><trkpt lat="44.2318602" lon="11.7103747"><ele>144.0</ele><time>2026-04-25T10:22:48.1Z</time></trkpt><trkpt lat="44.231874" lon="11.7104714"><ele>144.00000000000003</ele><time>2026-04-25T10:22:51.055Z</time></trkpt><trkpt lat="44.2318885" lon="11.7105715"><ele>144.0</ele><time>2026-04-25T10:22:54.1Z</time></trkpt><trkpt lat="44.231906" lon="11.7106622"><ele>143.42857142857144</ele><time>2026-04-25T10:22:57.024Z</time></trkpt><trkpt lat="44.2319146" lon="11.7107525"><ele>142.85714285714286</ele><time>2026-04-25T10:23:00.094Z</time></trkpt><trkpt lat="44.2319341" lon="11.7108567"><ele>142.28571428571428</ele><time>2026-04-25T10:23:04.068Z</time></trkpt><trkpt lat="44.2319575" lon="11.7109487"><ele>141.71428571428572</ele><time>2026-04-25T10:23:08.098Z</time></trkpt><trkpt lat="44.2319841" lon="11.7110292"><ele>141.14285714285714</ele><time>2026-04-25T10:23:11.1Z</time></trkpt><trkpt lat="44.2320264" lon="11.7111048"><ele>140.57142857142858</ele><time>2026-04-25T10:23:14.027Z</time></trkpt><trkpt lat="44.2320754" lon="11.7111721"><ele>140.0</ele><time>2026-04-25T10:23:17.101Z</time></trkpt><trkpt lat="44.2321224" lon="11.711234"><ele>139.83333333333331</ele><time>2026-04-25T10:23:20.049Z</time></trkpt><trkpt lat="44.2321926" lon="11.7112947"><ele>139.66666666666666</ele><time>2026-04-25T10:23:24.11Z</time></trkpt><trkpt lat="44.2322668" lon="11.7113444"><ele>139.5</ele><time>2026-04-25T10:23:28.074Z</time></trkpt><trkpt lat="44.2323445" lon="11.7113928"><ele>139.33333333333334</ele><time>2026-04-25T10:23:32.167Z</time></trkpt><trkpt lat="44.2324236" lon="11.7114379"><ele>139.16666666666669</ele><time>2026-04-25T10:23:36.046Z</time></trkpt><trkpt lat="44.2324901" lon="11.7114681"><ele>139.0</ele><time>2026-04-25T10:23:39.1Z</time></trkpt><trkpt lat="44.232559" lon="11.7115061"><ele>139.0</ele><time>2026-04-25T10:23:42.099Z</time></trkpt><trkpt lat="44.2326218" lon="11.7115484"><ele>139.0</ele><time>2026-04-25T10:23:45.093Z</time></trkpt><trkpt lat="44.2326875" lon="11.7115908"><ele>139.0</ele><time>2026-04-25T10:23:48.067Z</time></trkpt><trkpt lat="44.2327487" lon="11.7116325"><ele>139.0</ele><time>2026-04-25T10:23:51.101Z</time></trkpt><trkpt lat="44.2328125" lon="11.7116686"><ele>139.0</ele><time>2026-04-25T10:23:54.099Z</time></trkpt><trkpt lat="44.2328839" lon="11.7117141"><ele>139.0</ele><time>2026-04-25T10:23:58.01Z</time></trkpt><trkpt lat="44.2329529" lon="11.7117514"><ele>139.0</ele><time>2026-04-25T10:24:02.083Z</time></trkpt><trkpt lat="44.2330228" lon="11.7117818"><ele>139.0</ele><time>2026-04-25T10:24:06.092Z</time></trkpt><trkpt lat="44.233086" lon="11.7118082"><ele>139.0</ele><time>2026-04-25T10:24:09.125Z</time></trkpt><trkpt lat="44.2331486" lon="11.7118378"><ele>139.0</ele><time>2026-04-25T10:24:12.093Z</time></trkpt><trkpt lat="44.2332121" lon="11.7118784"><ele>139.0</ele><time>2026-04-25T10:24:15.097Z</time></trkpt><trkpt lat="44.233271" lon="11.7119122"><ele>139.0</ele><time>2026-04-25T10:24:18.001Z</time></trkpt><trkpt lat="44.2333295" lon="11.7119594"><ele>139.0</ele><time>2026-04-25T10:24:21.104Z</time></trkpt><trkpt lat="44.2333901" lon="11.7119999"><ele>139.0</ele><time>2026-04-25T10:24:24.021Z</time></trkpt><trkpt lat="44.2334539" lon="11.7120523"><ele>139.14285714285714</ele><time>2026-04-25T10:24:27.104Z</time></trkpt><trkpt lat="44.2335166" lon="11.7120965"><ele>139.28571428571428</ele><time>2026-04-25T10:24:30.026Z</time></trkpt><trkpt lat="44.2335829" lon="11.7121297"><ele>139.42857142857144</ele><time>2026-04-25T10:24:33.099Z</time></trkpt><trkpt lat="44.2336603" lon="11.7121616"><ele>139.57142857142856</ele><time>2026-04-25T10:24:37.1Z</time></trkpt><trkpt lat="44.2337294" lon="11.7122009"><ele>139.71428571428572</ele><time>2026-04-25T10:24:41.018Z</time></trkpt><trkpt lat="44.2337855" lon="11.7122429"><ele>139.85714285714286</ele><time>2026-04-25T10:24:44.079Z</time></trkpt><trkpt lat="44.2338446" lon="11.7122832"><ele>140.0</ele><time>2026-04-25T10:24:47.064Z</time></trkpt><trkpt lat="44.2339141" lon="11.7123343"><ele>140.16666666666666</ele><time>2026-04-25T10:24:51.089Z</time></trkpt><trkpt lat="44.2339826" lon="11.7123928"><ele>140.33333333333331</ele><time>2026-04-25T10:24:55.079Z</time></trkpt><trkpt lat="44.2340439" lon="11.7124639"><ele>140.5</ele><time>2026-04-25T10:24:59.116Z</time></trkpt><trkpt lat="44.2340984" lon="11.7125446"><ele>140.66666666666666</ele><time>2026-04-25T10:25:03.121Z</time></trkpt><trkpt lat="44.2341429" lon="11.7126413"><ele>140.83333333333334</ele><time>2026-04-25T10:25:07.061Z</time></trkpt><trkpt lat="44.2341857" lon="11.7127131"><ele>141.0</ele><time>2026-04-25T10:25:10.076Z</time></trkpt><trkpt lat="44.234226" lon="11.7127809"><ele>142.14285714285714</ele><time>2026-04-25T10:25:13.078Z</time></trkpt><trkpt lat="44.2342674" lon="11.7128778"><ele>143.28571428571428</ele><time>2026-04-25T10:25:17.102Z</time></trkpt><trkpt lat="44.234304" lon="11.7129721"><ele>144.42857142857142</ele><time>2026-04-25T10:25:21.043Z</time></trkpt><trkpt lat="44.2343486" lon="11.7130648"><ele>145.57142857142856</ele><time>2026-04-25T10:25:25.076Z</time></trkpt><trkpt lat="44.2343979" lon="11.7131508"><ele>146.7142857142857</ele><time>2026-04-25T10:25:29.105Z</time></trkpt><trkpt lat="44.2344376" lon="11.7132239"><ele>147.85714285714286</ele><time>2026-04-25T10:25:32.021Z</time></trkpt><trkpt lat="44.2344718" lon="11.7132979"><ele>149.0</ele><time>2026-04-25T10:25:34.866Z</time></trkpt><trkpt lat="44.234507" lon="11.713377"><ele>149.0</ele><time>2026-04-25T10:25:38.063Z</time></trkpt><trkpt lat="44.234545" lon="11.7134696"><ele>149.0</ele><time>2026-04-25T10:25:42.058Z</time></trkpt><trkpt lat="44.2345864" lon="11.7135683"><ele>149.0</ele><time>2026-04-25T10:25:46.087Z</time></trkpt><trkpt lat="44.2346319" lon="11.7136494"><ele>149.0</ele><time>2026-04-25T10:25:50.104Z</time></trkpt><trkpt lat="44.2346672" lon="11.7137395"><ele>149.0</ele><time>2026-04-25T10:25:56.062Z</time></trkpt><trkpt lat="44.2347076" lon="11.7138155"><ele>149.0</ele><time>2026-04-25T10:26:01.073Z</time></trkpt><trkpt lat="44.2347601" lon="11.7138725"><ele>149.0</ele><time>2026-04-25T10:26:06.08Z</time></trkpt><trkpt lat="44.2348141" lon="11.7139328"><ele>147.85714285714286</ele><time>2026-04-25T10:26:11.119Z</time></trkpt><trkpt lat="44.2348709" lon="11.7139955"><ele>146.7142857142857</ele><time>2026-04-25T10:26:16.093Z</time></trkpt><trkpt lat="44.2349196" lon="11.7140515"><ele>145.57142857142856</ele><time>2026-04-25T10:26:21.086Z</time></trkpt><trkpt lat="44.2349715" lon="11.7141078"><ele>144.42857142857142</ele><time>2026-04-25T10:26:26.11Z</time></trkpt><trkpt lat="44.2350219" lon="11.7141713"><ele>143.28571428571428</ele><time>2026-04-25T10:26:32.089Z</time></trkpt><trkpt lat="44.2350706" lon="11.7142276"><ele>142.14285714285714</ele><time>2026-04-25T10:26:38.083Z</time></trkpt><trkpt lat="44.2351219" lon="11.714279"><ele>141.0</ele><time>2026-04-25T10:26:43.082Z</time></trkpt><trkpt lat="44.2351751" lon="11.7143403"><ele>141.0</ele><time>2026-04-25T10:26:48.058Z</time></trkpt><trkpt lat="44.235226" lon="11.7143947"><ele>141.0</ele><time>2026-04-25T10:26:53.086Z</time></trkpt><trkpt lat="44.2352882" lon="11.7144491"><ele>141.0</ele><time>2026-04-25T10:26:58.092Z</time></trkpt><trkpt lat="44.2353443" lon="11.7144981"><ele>141.0</ele><time>2026-04-25T10:27:01.072Z</time></trkpt><trkpt lat="44.2353978" lon="11.7145521"><ele>141.0</ele><time>2026-04-25T10:27:04.098Z</time></trkpt><trkpt lat="44.2354625" lon="11.7146087"><ele>141.0</ele><time>2026-04-25T10:27:07.097Z</time></trkpt><trkpt lat="44.2355202" lon="11.7146571"><ele>141.0</ele><time>2026-04-25T10:27:11.944Z</time></trkpt><trkpt lat="44.2355797" lon="11.7147021"><ele>141.85714285714286</ele><time>2026-04-25T10:27:18.089Z</time></trkpt><trkpt lat="44.235649" lon="11.7147462"><ele>142.71428571428572</ele><time>2026-04-25T10:27:24.091Z</time></trkpt><trkpt lat="44.2357077" lon="11.7147884"><ele>143.57142857142856</ele><time>2026-04-25T10:27:29.085Z</time></trkpt><trkpt lat="44.235764" lon="11.7148372"><ele>144.42857142857144</ele><time>2026-04-25T10:27:34.081Z</time></trkpt><trkpt lat="44.2358155" lon="11.7149008"><ele>145.28571428571428</ele><time>2026-04-25T10:27:39.065Z</time></trkpt><trkpt lat="44.2358666" lon="11.7149586"><ele>146.14285714285714</ele><time>2026-04-25T10:27:44.073Z</time></trkpt><trkpt lat="44.2359208" lon="11.7150169"><ele>147.0</ele><time>2026-04-25T10:27:49.089Z</time></trkpt><trkpt lat="44.2359646" lon="11.7150934"><ele>147.0</ele><time>2026-04-25T10:27:55.087Z</time></trkpt><trkpt lat="44.2359878" lon="11.715194"><ele>147.0</ele><time>2026-04-25T10:28:01.121Z</time></trkpt><trkpt lat="44.236016" lon="11.7152776"><ele>147.0</ele><time>2026-04-25T10:28:06.073Z</time></trkpt><trkpt lat="44.2360525" lon="11.715364"><ele>147.0</ele><time>2026-04-25T10:28:12.078Z</time></trkpt><trkpt lat="44.2360788" lon="11.7154456"><ele>147.0</ele><time>2026-04-25T10:28:19.102Z</time></trkpt><trkpt lat="44.2360882" lon="11.7155354"><ele>147.0</ele><time>2026-04-25T10:28:26.089Z</time></trkpt><trkpt lat="44.2360893" lon="11.715634"><ele>147.0</ele><time>2026-04-25T10:28:32.117Z</time></trkpt><trkpt lat="44.2360982" lon="11.7157346"><ele>147.57142857142858</ele><time>2026-04-25T10:28:38.098Z</time></trkpt><trkpt lat="44.2361118" lon="11.7158393"><ele>148.14285714285714</ele><time>2026-04-25T10:28:44.085Z</time></trkpt><trkpt lat="44.2361277" lon="11.7159368"><ele>148.71428571428572</ele><time>2026-04-25T10:28:49.087Z</time></trkpt><trkpt lat="44.2361437" lon="11.7160231"><ele>149.28571428571428</ele><time>2026-04-25T10:28:54.074Z</time></trkpt><trkpt lat="44.2361658" lon="11.7161068"><ele>149.85714285714286</ele><time>2026-04-25T10:28:59.143Z</time></trkpt><trkpt lat="44.2362078" lon="11.7161851"><ele>150.42857142857144</ele><time>2026-04-25T10:29:04.083Z</time></trkpt><trkpt lat="44.2362551" lon="11.7162563"><ele>151.0</ele><time>2026-04-25T10:29:09.1Z</time></trkpt><trkpt lat="44.2362904" lon="11.7163295"><ele>152.00000000000003</ele><time>2026-04-25T10:29:13.089Z</time></trkpt><trkpt lat="44.2363371" lon="11.716408"><ele>153.0</ele><time>2026-04-25T10:29:18.103Z</time></trkpt><trkpt lat="44.2363812" lon="11.7164789"><ele>154.0</ele><time>2026-04-25T10:29:23.105Z</time></trkpt><trkpt lat="44.2364187" lon="11.7165503"><ele>155.0</ele><time>2026-04-25T10:29:28.083Z</time></trkpt><trkpt lat="44.2364628" lon="11.7166198"><ele>156.0</ele><time>2026-04-25T10:29:33.086Z</time></trkpt><trkpt lat="44.2365037" lon="11.7167006"><ele>157.00000000000003</ele><time>2026-04-25T10:29:39.098Z</time></trkpt><trkpt lat="44.2365359" lon="11.7167893"><ele>158.0</ele><time>2026-04-25T10:29:45.101Z</time></trkpt><trkpt lat="44.2365747" lon="11.7168609"><ele>155.71428571428572</ele><time>2026-04-25T10:29:50.081Z</time></trkpt><trkpt lat="44.236611" lon="11.7169484"><ele>153.42857142857144</ele><time>2026-04-25T10:29:55.095Z</time></trkpt><trkpt lat="44.2366287" lon="11.7170391"><ele>151.14285714285714</ele><time>2026-04-25T10:30:00.032Z</time></trkpt><trkpt lat="44.2366448" lon="11.7171313"><ele>148.85714285714286</ele><time>2026-04-25T10:30:05.092Z</time></trkpt><trkpt lat="44.2366568" lon="11.7172209"><ele>146.57142857142856</ele><time>2026-04-25T10:30:10.102Z</time></trkpt><trkpt lat="44.2366615" lon="11.7173167"><ele>144.28571428571428</ele><time>2026-04-25T10:30:16.088Z</time></trkpt><trkpt lat="44.2366535" lon="11.7174209"><ele>142.0</ele><time>2026-04-25T10:30:22.071Z</time></trkpt><trkpt lat="44.2366537" lon="11.7175139"><ele>142.0</ele><time>2026-04-25T10:30:27.099Z</time></trkpt><trkpt lat="44.2366616" lon="11.7176079"><ele>142.0</ele><time>2026-04-25T10:30:32.087Z</time></trkpt><trkpt lat="44.2366636" lon="11.7176991"><ele>142.0</ele><time>2026-04-25T10:30:37.106Z</time></trkpt><trkpt lat="44.2366644" lon="11.7177893"><ele>142.0</ele><time>2026-04-25T10:30:43.101Z</time></trkpt><trkpt lat="44.2366665" lon="11.717878"><ele>142.0</ele><time>2026-04-25T10:30:49.091Z</time></trkpt><trkpt lat="44.2366609" lon="11.7179799"><ele>142.0</ele><time>2026-04-25T10:30:54.091Z</time></trkpt><trkpt lat="44.236663" lon="11.7180736"><ele>142.0</ele><time>2026-04-25T10:30:59.108Z</time></trkpt><trkpt lat="44.2366722" lon="11.7181743"><ele>142.14285714285714</ele><time>2026-04-25T10:31:07.106Z</time></trkpt><trkpt lat="44.2366754" lon="11.7182645"><ele>142.28571428571428</ele><time>2026-04-25T10:31:12.094Z</time></trkpt><trkpt lat="44.2366786" lon="11.7183635"><ele>142.42857142857142</ele><time>2026-04-25T10:31:17.108Z</time></trkpt><trkpt lat="44.2366849" lon="11.7184534"><ele>142.57142857142856</ele><time>2026-04-25T10:31:22.075Z</time></trkpt><trkpt lat="44.2366985" lon="11.7185502"><ele>142.71428571428572</ele><time>2026-04-25T10:31:28.081Z</time></trkpt><trkpt lat="44.2367196" lon="11.7186516"><ele>142.85714285714283</ele><time>2026-04-25T10:31:32.049Z</time></trkpt><trkpt lat="44.2367392" lon="11.7187509"><ele>143.0</ele><time>2026-04-25T10:31:35.068Z</time></trkpt><trkpt lat="44.2367499" lon="11.7188456"><ele>144.0</ele><time>2026-04-25T10:31:38.08Z</time></trkpt><trkpt lat="44.2367615" lon="11.7189542"><ele>145.0</ele><time>2026-04-25T10:31:42.089Z</time></trkpt><trkpt lat="44.2367782" lon="11.7190652"><ele>146.0</ele><time>2026-04-25T10:31:46.007Z</time></trkpt><trkpt lat="44.2367884" lon="11.71917"><ele>147.0</ele><time>2026-04-25T10:31:49.067Z</time></trkpt><trkpt lat="44.2368045" lon="11.7192625"><ele>148.0</ele><time>2026-04-25T10:31:52.088Z</time></trkpt><trkpt lat="44.2368021" lon="11.7193641"><ele>149.0</ele><time>2026-04-25T10:31:56.044Z</time></trkpt><trkpt lat="44.2367954" lon="11.719473"><ele>149.14285714285714</ele><time>2026-04-25T10:32:00.079Z</time></trkpt><trkpt lat="44.236785" lon="11.7195668"><ele>149.28571428571428</ele><time>2026-04-25T10:32:04.084Z</time></trkpt><trkpt lat="44.2367635" lon="11.7196587"><ele>149.42857142857142</ele><time>2026-04-25T10:32:08.153Z</time></trkpt><trkpt lat="44.2367353" lon="11.7197471"><ele>149.57142857142856</ele><time>2026-04-25T10:32:12.046Z</time></trkpt><trkpt lat="44.2367042" lon="11.7198276"><ele>149.71428571428572</ele><time>2026-04-25T10:32:16.093Z</time></trkpt><trkpt lat="44.2366674" lon="11.7199104"><ele>149.85714285714283</ele><time>2026-04-25T10:32:20.12Z</time></trkpt><trkpt lat="44.2366406" lon="11.7200085"><ele>150.0</ele><time>2026-04-25T10:32:24.025Z</time></trkpt><trkpt lat="44.2366286" lon="11.7200962"><ele>149.99999999999997</ele><time>2026-04-25T10:32:27.094Z</time></trkpt><trkpt lat="44.2366139" lon="11.7201888"><ele>150.0</ele><time>2026-04-25T10:32:30.02Z</time></trkpt><trkpt lat="44.2365957" lon="11.7202851"><ele>150.0</ele><time>2026-04-25T10:32:33.085Z</time></trkpt><trkpt lat="44.2365799" lon="11.720392"><ele>150.0</ele><time>2026-04-25T10:32:37.105Z</time></trkpt><trkpt lat="44.2365639" lon="11.7204961"><ele>150.0</ele><time>2026-04-25T10:32:41.031Z</time></trkpt><trkpt lat="44.2365805" lon="11.7205921"><ele>149.99999999999997</ele><time>2026-04-25T10:32:44.093Z</time></trkpt><trkpt lat="44.2365818" lon="11.7206875"><ele>150.0</ele><time>2026-04-25T10:32:47.067Z</time></trkpt><trkpt lat="44.2365693" lon="11.7208025"><ele>150.28571428571428</ele><time>2026-04-25T10:32:51.001Z</time></trkpt><trkpt lat="44.2365685" lon="11.7209016"><ele>150.57142857142856</ele><time>2026-04-25T10:32:54.096Z</time></trkpt><trkpt lat="44.2365824" lon="11.7209989"><ele>150.85714285714283</ele><time>2026-04-25T10:32:57.088Z</time></trkpt><trkpt lat="44.2366162" lon="11.7211034"><ele>151.14285714285714</ele><time>2026-04-25T10:33:01.028Z</time></trkpt><trkpt lat="44.236654" lon="11.7211749"><ele>151.42857142857144</ele><time>2026-04-25T10:33:04.091Z</time></trkpt><trkpt lat="44.2367026" lon="11.7212347"><ele>151.7142857142857</ele><time>2026-04-25T10:33:07.043Z</time></trkpt><trkpt lat="44.236758" lon="11.7212825"><ele>152.0</ele><time>2026-04-25T10:33:10.059Z</time></trkpt><trkpt lat="44.2368361" lon="11.7213249"><ele>152.0</ele><time>2026-04-25T10:33:14.095Z</time></trkpt><trkpt lat="44.2369009" lon="11.7213511"><ele>152.0</ele><time>2026-04-25T10:33:17.073Z</time></trkpt><trkpt lat="44.2369704" lon="11.7213751"><ele>152.0</ele><time>2026-04-25T10:33:20.085Z</time></trkpt><trkpt lat="44.2370334" lon="11.7214094"><ele>152.0</ele><time>2026-04-25T10:33:23.096Z</time></trkpt><trkpt lat="44.2371064" lon="11.7214448"><ele>152.0</ele><time>2026-04-25T10:33:27.079Z</time></trkpt><trkpt lat="44.2371809" lon="11.7214811"><ele>152.0</ele><time>2026-04-25T10:33:31.079Z</time></trkpt><trkpt lat="44.2372434" lon="11.7215162"><ele>152.0</ele><time>2026-04-25T10:33:34.085Z</time></trkpt><trkpt lat="44.2373071" lon="11.721549"><ele>151.33333333333331</ele><time>2026-04-25T10:33:37.09Z</time></trkpt><trkpt lat="44.2373842" lon="11.7215935"><ele>150.66666666666666</ele><time>2026-04-25T10:33:40.981Z</time></trkpt><trkpt lat="44.2374443" lon="11.7216444"><ele>150.0</ele><time>2026-04-25T10:33:44.064Z</time></trkpt><trkpt lat="44.2375041" lon="11.7217209"><ele>149.33333333333334</ele><time>2026-04-25T10:33:48.046Z</time></trkpt><trkpt lat="44.2375643" lon="11.7217967"><ele>148.66666666666669</ele><time>2026-04-25T10:33:52.103Z</time></trkpt><trkpt lat="44.2376092" lon="11.7218748"><ele>148.0</ele><time>2026-04-25T10:33:55.029Z</time></trkpt><trkpt lat="44.2376573" lon="11.7219643"><ele>148.0</ele><time>2026-04-25T10:33:59.064Z</time></trkpt><trkpt lat="44.2376993" lon="11.7220573"><ele>148.0</ele><time>2026-04-25T10:34:03.093Z</time></trkpt><trkpt lat="44.2377345" lon="11.7221346"><ele>148.0</ele><time>2026-04-25T10:34:06.024Z</time></trkpt><trkpt lat="44.2377648" lon="11.7222166"><ele>148.0</ele><time>2026-04-25T10:34:09.087Z</time></trkpt><trkpt lat="44.2377906" lon="11.7223016"><ele>148.0</ele><time>2026-04-25T10:34:12.043Z</time></trkpt><trkpt lat="44.2378227" lon="11.7223975"><ele>148.0</ele><time>2026-04-25T10:34:16.074Z</time></trkpt><trkpt lat="44.2378492" lon="11.7224919"><ele>148.0</ele><time>2026-04-25T10:34:20.105Z</time></trkpt><trkpt lat="44.237864" lon="11.722595"><ele>148.0</ele><time>2026-04-25T10:34:24.055Z</time></trkpt><trkpt lat="44.2378958" lon="11.7226936"><ele>148.0</ele><time>2026-04-25T10:34:27.103Z</time></trkpt><trkpt lat="44.2379314" lon="11.7227873"><ele>148.0</ele><time>2026-04-25T10:34:30.067Z</time></trkpt><trkpt lat="44.2379795" lon="11.7228671"><ele>148.0</ele><time>2026-04-25T10:34:33.001Z</time></trkpt><trkpt lat="44.2380379" lon="11.7229454"><ele>148.0</ele><time>2026-04-25T10:34:36.108Z</time></trkpt><trkpt lat="44.2381006" lon="11.7230243"><ele>148.0</ele><time>2026-04-25T10:34:39.092Z</time></trkpt><trkpt lat="44.2381536" lon="11.7231113"><ele>146.85714285714286</ele><time>2026-04-25T10:34:41.98Z</time></trkpt><trkpt lat="44.2381967" lon="11.7231859"><ele>145.71428571428572</ele><time>2026-04-25T10:34:45.109Z</time></trkpt><trkpt lat="44.2382658" lon="11.7232517"><ele>144.57142857142856</ele><time>2026-04-25T10:34:49.107Z</time></trkpt><trkpt lat="44.2383205" lon="11.7233066"><ele>143.42857142857144</ele><time>2026-04-25T10:34:52.094Z</time></trkpt><trkpt lat="44.2383743" lon="11.7233612"><ele>142.28571428571428</ele><time>2026-04-25T10:34:55.089Z</time></trkpt><trkpt lat="44.238431" lon="11.7234154"><ele>141.14285714285714</ele><time>2026-04-25T10:34:58.007Z</time></trkpt><trkpt lat="44.2384876" lon="11.723472"><ele>140.0</ele><time>2026-04-25T10:35:01.086Z</time></trkpt><trkpt lat="44.2385535" lon="11.72353"><ele>139.14285714285714</ele><time>2026-04-25T10:35:04.081Z</time></trkpt><trkpt lat="44.2386215" lon="11.7235882"><ele>138.28571428571428</ele><time>2026-04-25T10:35:07.106Z</time></trkpt><trkpt lat="44.2386884" lon="11.7236334"><ele>137.42857142857144</ele><time>2026-04-25T10:35:10.101Z</time></trkpt><trkpt lat="44.2387514" lon="11.7236832"><ele>136.57142857142856</ele><time>2026-04-25T10:35:13.023Z</time></trkpt><trkpt lat="44.2388127" lon="11.7237292"><ele>135.71428571428572</ele><time>2026-04-25T10:35:16.091Z</time></trkpt><trkpt lat="44.23887" lon="11.7237759"><ele>134.85714285714286</ele><time>2026-04-25T10:35:19.027Z</time></trkpt><trkpt lat="44.2389337" lon="11.723831"><ele>134.0</ele><time>2026-04-25T10:35:22.105Z</time></trkpt><trkpt lat="44.2389943" lon="11.7238824"><ele>134.0</ele><time>2026-04-25T10:35:25.083Z</time></trkpt><trkpt lat="44.2390507" lon="11.7239386"><ele>134.0</ele><time>2026-04-25T10:35:28.104Z</time></trkpt><trkpt lat="44.2391117" lon="11.723995"><ele>134.0</ele><time>2026-04-25T10:35:31.087Z</time></trkpt><trkpt lat="44.2391825" lon="11.7240458"><ele>134.0</ele><time>2026-04-25T10:35:34.086Z</time></trkpt><trkpt lat="44.2392488" lon="11.7240919"><ele>134.0</ele><time>2026-04-25T10:35:37.089Z</time></trkpt><trkpt lat="44.2393112" lon="11.7241447"><ele>134.0</ele><time>2026-04-25T10:35:40.086Z</time></trkpt><trkpt lat="44.2393708" lon="11.7241959"><ele>134.0</ele><time>2026-04-25T10:35:43.102Z</time></trkpt><trkpt lat="44.2394417" lon="11.7242591"><ele>134.0</ele><time>2026-04-25T10:35:47.103Z</time></trkpt><trkpt lat="44.2395017" lon="11.7243194"><ele>134.0</ele><time>2026-04-25T10:35:50.098Z</time></trkpt><trkpt lat="44.2395617" lon="11.7243921"><ele>134.0</ele><time>2026-04-25T10:35:53.131Z</time></trkpt><trkpt lat="44.2396117" lon="11.7244561"><ele>134.0</ele><time>2026-04-25T10:35:56.077Z</time></trkpt><trkpt lat="44.2396561" lon="11.7245271"><ele>134.0</ele><time>2026-04-25T10:35:59.093Z</time></trkpt><trkpt lat="44.2396851" lon="11.7246155"><ele>134.0</ele><time>2026-04-25T10:36:02.025Z</time></trkpt><trkpt lat="44.239712" lon="11.7247105"><ele>134.0</ele><time>2026-04-25T10:36:05.097Z</time></trkpt><trkpt lat="44.2397321" lon="11.7247985"><ele>134.42857142857144</ele><time>2026-04-25T10:36:08.074Z</time></trkpt><trkpt lat="44.2397531" lon="11.7248874"><ele>134.85714285714286</ele><time>2026-04-25T10:36:11.098Z</time></trkpt><trkpt lat="44.2397694" lon="11.7249789"><ele>135.28571428571428</ele><time>2026-04-25T10:36:14.002Z</time></trkpt><trkpt lat="44.2397843" lon="11.7250766"><ele>135.71428571428572</ele><time>2026-04-25T10:36:17.096Z</time></trkpt><trkpt lat="44.2398073" lon="11.7251662"><ele>136.14285714285714</ele><time>2026-04-25T10:36:20.026Z</time></trkpt><trkpt lat="44.2398253" lon="11.7252614"><ele>136.57142857142858</ele><time>2026-04-25T10:36:23.088Z</time></trkpt><trkpt lat="44.2398405" lon="11.7253534"><ele>137.0</ele><time>2026-04-25T10:36:26.056Z</time></trkpt><trkpt lat="44.2398579" lon="11.7254379"><ele>134.2857142857143</ele><time>2026-04-25T10:36:29.007Z</time></trkpt><trkpt lat="44.2398787" lon="11.7255348"><ele>131.57142857142858</ele><time>2026-04-25T10:36:32.063Z</time></trkpt><trkpt lat="44.2398984" lon="11.7256289"><ele>128.85714285714286</ele><time>2026-04-25T10:36:35.103Z</time></trkpt><trkpt lat="44.23992" lon="11.7257225"><ele>126.14285714285715</ele><time>2026-04-25T10:36:38.083Z</time></trkpt><trkpt lat="44.2399314" lon="11.725821"><ele>123.42857142857144</ele><time>2026-04-25T10:36:41.099Z</time></trkpt><trkpt lat="44.2399439" lon="11.7259246"><ele>120.71428571428571</ele><time>2026-04-25T10:36:44.068Z</time></trkpt><trkpt lat="44.2399394" lon="11.7260308"><ele>118.0</ele><time>2026-04-25T10:36:47.1Z</time></trkpt><trkpt lat="44.2399238" lon="11.7261351"><ele>117.42857142857142</ele><time>2026-04-25T10:36:50.082Z</time></trkpt><trkpt lat="44.2399066" lon="11.726234"><ele>116.85714285714286</ele><time>2026-04-25T10:36:53.09Z</time></trkpt><trkpt lat="44.2398897" lon="11.7263321"><ele>116.28571428571428</ele><time>2026-04-25T10:36:56.028Z</time></trkpt><trkpt lat="44.239861" lon="11.726431"><ele>115.71428571428571</ele><time>2026-04-25T10:37:00.106Z</time></trkpt><trkpt lat="44.2398262" lon="11.7265215"><ele>115.14285714285714</ele><time>2026-04-25T10:37:04.079Z</time></trkpt><trkpt lat="44.2397725" lon="11.7265981"><ele>114.57142857142857</ele><time>2026-04-25T10:37:08.087Z</time></trkpt><trkpt lat="44.2397301" lon="11.7266728"><ele>114.0</ele><time>2026-04-25T10:37:11.104Z</time></trkpt><trkpt lat="44.239689" lon="11.7267552"><ele>113.28571428571428</ele><time>2026-04-25T10:37:14.089Z</time></trkpt><trkpt lat="44.2396545" lon="11.7268464"><ele>112.57142857142856</ele><time>2026-04-25T10:37:17.097Z</time></trkpt><trkpt lat="44.2396281" lon="11.7269555"><ele>111.85714285714286</ele><time>2026-04-25T10:37:20.091Z</time></trkpt><trkpt lat="44.2396145" lon="11.7270553"><ele>111.14285714285714</ele><time>2026-04-25T10:37:23.074Z</time></trkpt><trkpt lat="44.2396225" lon="11.72715"><ele>110.42857142857143</ele><time>2026-04-25T10:37:26.065Z</time></trkpt><trkpt lat="44.2396604" lon="11.7272306"><ele>109.71428571428572</ele><time>2026-04-25T10:37:29.004Z</time></trkpt><trkpt lat="44.2397264" lon="11.7272735"><ele>109.0</ele><time>2026-04-25T10:37:32.099Z</time></trkpt><trkpt lat="44.2398057" lon="11.727265"><ele>109.0</ele><time>2026-04-25T10:37:35.109Z</time></trkpt><trkpt lat="44.2398698" lon="11.7271858"><ele>109.0</ele><time>2026-04-25T10:37:38.086Z</time></trkpt><trkpt lat="44.2399065" lon="11.7270932"><ele>109.0</ele><time>2026-04-25T10:37:41.021Z</time></trkpt><trkpt lat="44.2399341" lon="11.7270024"><ele>109.0</ele><time>2026-04-25T10:37:44.113Z</time></trkpt><trkpt lat="44.2399573" lon="11.726914"><ele>109.0</ele><time>2026-04-25T10:37:47.046Z</time></trkpt><trkpt lat="44.2399885" lon="11.726826"><ele>109.0</ele><time>2026-04-25T10:37:50.104Z</time></trkpt><trkpt lat="44.2400425" lon="11.7267714"><ele>109.0</ele><time>2026-04-25T10:37:53.046Z</time></trkpt><trkpt lat="44.2401151" lon="11.7267509"><ele>109.0</ele><time>2026-04-25T10:37:56.081Z</time></trkpt><trkpt lat="44.240183" lon="11.7267741"><ele>109.0</ele><time>2026-04-25T10:37:59.102Z</time></trkpt><trkpt lat="44.2402307" lon="11.7268353"><ele>109.0</ele><time>2026-04-25T10:38:02.081Z</time></trkpt><trkpt lat="44.2402471" lon="11.7269268"><ele>109.0</ele><time>2026-04-25T10:38:05.043Z</time></trkpt><trkpt lat="44.2402445" lon="11.7270269"><ele>109.0</ele><time>2026-04-25T10:38:08.102Z</time></trkpt><trkpt lat="44.2402464" lon="11.7271334"><ele>109.0</ele><time>2026-04-25T10:38:11.102Z</time></trkpt><trkpt lat="44.2402424" lon="11.7272453"><ele>109.0</ele><time>2026-04-25T10:38:14.103Z</time></trkpt><trkpt lat="44.2402583" lon="11.7273593"><ele>109.00000000000001</ele><time>2026-04-25T10:38:17.094Z</time></trkpt><trkpt lat="44.2402824" lon="11.7274665"><ele>109.0</ele><time>2026-04-25T10:38:20.033Z</time></trkpt><trkpt lat="44.2403304" lon="11.7275607"><ele>109.0</ele><time>2026-04-25T10:38:23.053Z</time></trkpt><trkpt lat="44.2403845" lon="11.7276454"><ele>109.0</ele><time>2026-04-25T10:38:26.102Z</time></trkpt><trkpt lat="44.2404392" lon="11.7277154"><ele>109.00000000000001</ele><time>2026-04-25T10:38:29.07Z</time></trkpt><trkpt lat="44.2404965" lon="11.7277905"><ele>109.0</ele><time>2026-04-25T10:38:32.049Z</time></trkpt><trkpt lat="44.2405511" lon="11.7278739"><ele>109.66666666666667</ele><time>2026-04-25T10:38:35.089Z</time></trkpt><trkpt lat="44.240602" lon="11.7279508"><ele>110.33333333333334</ele><time>2026-04-25T10:38:38.081Z</time></trkpt><trkpt lat="44.2406588" lon="11.7280298"><ele>111.0</ele><time>2026-04-25T10:38:41.058Z</time></trkpt><trkpt lat="44.2407169" lon="11.7281158"><ele>111.66666666666666</ele><time>2026-04-25T10:38:44.127Z</time></trkpt><trkpt lat="44.2407712" lon="11.7282044"><ele>112.33333333333333</ele><time>2026-04-25T10:38:47.087Z</time></trkpt><trkpt lat="44.2408223" lon="11.7282883"><ele>113.0</ele><time>2026-04-25T10:38:50.004Z</time></trkpt><trkpt lat="44.240877" lon="11.728368"><ele>113.14285714285714</ele><time>2026-04-25T10:38:53.063Z</time></trkpt><trkpt lat="44.2409226" lon="11.7284542"><ele>113.28571428571428</ele><time>2026-04-25T10:38:56.08Z</time></trkpt><trkpt lat="44.2409497" lon="11.7285494"><ele>113.42857142857142</ele><time>2026-04-25T10:38:59.095Z</time></trkpt><trkpt lat="44.2409715" lon="11.7286386"><ele>113.57142857142857</ele><time>2026-04-25T10:39:02.076Z</time></trkpt><trkpt lat="44.2409844" lon="11.7287308"><ele>113.7142857142857</ele><time>2026-04-25T10:39:05.108Z</time></trkpt><trkpt lat="44.2410144" lon="11.7288387"><ele>113.85714285714285</ele><time>2026-04-25T10:39:09.093Z</time></trkpt><trkpt lat="44.2410396" lon="11.728929"><ele>114.0</ele><time>2026-04-25T10:39:13.1Z</time></trkpt><trkpt lat="44.2410705" lon="11.729015"><ele>114.0</ele><time>2026-04-25T10:39:17.081Z</time></trkpt><trkpt lat="44.2410911" lon="11.7291023"><ele>113.99999999999999</ele><time>2026-04-25T10:39:21.084Z</time></trkpt><trkpt lat="44.2411091" lon="11.7291932"><ele>114.0</ele><time>2026-04-25T10:39:25.073Z</time></trkpt><trkpt lat="44.2411197" lon="11.729294"><ele>114.0</ele><time>2026-04-25T10:39:29.098Z</time></trkpt><trkpt lat="44.2411405" lon="11.7293913"><ele>113.99999999999999</ele><time>2026-04-25T10:39:33.131Z</time></trkpt><trkpt lat="44.2411715" lon="11.7294836"><ele>114.0</ele><time>2026-04-25T10:39:37.078Z</time></trkpt><trkpt lat="44.241192" lon="11.7295686"><ele>114.0</ele><time>2026-04-25T10:39:41.085Z</time></trkpt><trkpt lat="44.2412164" lon="11.7296686"><ele>114.0</ele><time>2026-04-25T10:39:45.1Z</time></trkpt><trkpt lat="44.2412517" lon="11.7297729"><ele>113.99999999999999</ele><time>2026-04-25T10:39:49.096Z</time></trkpt><trkpt lat="44.2412808" lon="11.729852"><ele>114.0</ele><time>2026-04-25T10:39:52.068Z</time></trkpt><trkpt lat="44.24131" lon="11.7299374"><ele>114.0</ele><time>2026-04-25T10:39:55.092Z</time></trkpt><trkpt lat="44.2413339" lon="11.7300208"><ele>113.99999999999999</ele><time>2026-04-25T10:39:58.074Z</time></trkpt><trkpt lat="44.2413828" lon="11.7301142"><ele>114.0</ele><time>2026-04-25T10:40:02.084Z</time></trkpt><trkpt lat="44.2414171" lon="11.7301881"><ele>114.0</ele><time>2026-04-25T10:40:05.107Z</time></trkpt><trkpt lat="44.2414655" lon="11.7302876"><ele>111.5</ele><time>2026-04-25T10:40:09.147Z</time></trkpt><trkpt lat="44.2415119" lon="11.730381"><ele>109.0</ele><time>2026-04-25T10:40:13.082Z</time></trkpt><trkpt lat="44.2415691" lon="11.7304556"><ele>106.5</ele><time>2026-04-25T10:40:17.029Z</time></trkpt><trkpt lat="44.2416315" lon="11.7305279"><ele>104.0</ele><time>2026-04-25T10:40:21.083Z</time></trkpt><trkpt lat="44.2416932" lon="11.7305707"><ele>101.5</ele><time>2026-04-25T10:40:24.106Z</time></trkpt><trkpt lat="44.2417733" lon="11.730601"><ele>99.0</ele><time>2026-04-25T10:40:28.074Z</time></trkpt><trkpt lat="44.2418471" lon="11.7306166"><ele>99.0</ele><time>2026-04-25T10:40:31.987Z</time></trkpt><trkpt lat="44.2419121" lon="11.7306015"><ele>99.0</ele><time>2026-04-25T10:40:35.094Z</time></trkpt><trkpt lat="44.2419785" lon="11.7305947"><ele>99.0</ele><time>2026-04-25T10:40:38.099Z</time></trkpt><trkpt lat="44.2420578" lon="11.7305914"><ele>99.0</ele><time>2026-04-25T10:40:42.004Z</time></trkpt><trkpt lat="44.2421223" lon="11.7305794"><ele>99.0</ele><time>2026-04-25T10:40:45.076Z</time></trkpt><trkpt lat="44.2422029" lon="11.7305765"><ele>99.0</ele><time>2026-04-25T10:40:49.093Z</time></trkpt><trkpt lat="44.2422849" lon="11.7305702"><ele>99.0</ele><time>2026-04-25T10:40:53.078Z</time></trkpt><trkpt lat="44.2423494" lon="11.7305451"><ele>98.0</ele><time>2026-04-25T10:40:55.989Z</time></trkpt><trkpt lat="44.2424115" lon="11.7305214"><ele>97.0</ele><time>2026-04-25T10:40:59.092Z</time></trkpt><trkpt lat="44.2424917" lon="11.7305159"><ele>96.0</ele><time>2026-04-25T10:41:03.144Z</time></trkpt><trkpt lat="44.2425753" lon="11.7305468"><ele>95.0</ele><time>2026-04-25T10:41:07.068Z</time></trkpt><trkpt lat="44.2426341" lon="11.7305789"><ele>94.0</ele><time>2026-04-25T10:41:10.094Z</time></trkpt><trkpt lat="44.2426972" lon="11.7306414"><ele>93.0</ele><time>2026-04-25T10:41:14.085Z</time></trkpt><trkpt lat="44.2427484" lon="11.7307358"><ele>93.00000000000001</ele><time>2026-04-25T10:41:18.103Z</time></trkpt><trkpt lat="44.2427973" lon="11.7308219"><ele>93.0</ele><time>2026-04-25T10:41:22.006Z</time></trkpt><trkpt lat="44.2428367" lon="11.7308948"><ele>93.0</ele><time>2026-04-25T10:41:25.129Z</time></trkpt><trkpt lat="44.2428834" lon="11.7309764"><ele>93.0</ele><time>2026-04-25T10:41:29.091Z</time></trkpt><trkpt lat="44.2429317" lon="11.7310599"><ele>93.0</ele><time>2026-04-25T10:41:35.067Z</time></trkpt><trkpt lat="44.2429676" lon="11.7311433"><ele>93.00000000000001</ele><time>2026-04-25T10:41:41.111Z</time></trkpt><trkpt lat="44.2430078" lon="11.7312175"><ele>93.0</ele><time>2026-04-25T10:41:46.028Z</time></trkpt><trkpt lat="44.2430492" lon="11.7313043"><ele>93.14285714285715</ele><time>2026-04-25T10:41:52.094Z</time></trkpt><trkpt lat="44.2430884" lon="11.7313868"><ele>93.28571428571429</ele><time>2026-04-25T10:41:58.086Z</time></trkpt><trkpt lat="44.2431108" lon="11.7314699"><ele>93.42857142857143</ele><time>2026-04-25T10:42:04.092Z</time></trkpt><trkpt lat="44.2431613" lon="11.7315519"><ele>93.57142857142858</ele><time>2026-04-25T10:42:19.101Z</time></trkpt><trkpt lat="44.2431888" lon="11.7316391"><ele>93.71428571428571</ele><time>2026-04-25T10:42:27.091Z</time></trkpt><trkpt lat="44.2432403" lon="11.7317186"><ele>93.85714285714286</ele><time>2026-04-25T10:42:33.11Z</time></trkpt><trkpt lat="44.2432764" lon="11.7318003"><ele>94.0</ele><time>2026-04-25T10:42:43.113Z</time></trkpt><trkpt lat="44.2433278" lon="11.7318627"><ele>93.28571428571428</ele><time>2026-04-25T10:42:48.091Z</time></trkpt><trkpt lat="44.2433727" lon="11.7319398"><ele>92.57142857142857</ele><time>2026-04-25T10:42:53.092Z</time></trkpt><trkpt lat="44.2434085" lon="11.7320262"><ele>91.85714285714286</ele><time>2026-04-25T10:42:58.104Z</time></trkpt><trkpt lat="44.2434463" lon="11.7321118"><ele>91.14285714285714</ele><time>2026-04-25T10:43:03.103Z</time></trkpt><trkpt lat="44.2434889" lon="11.7321908"><ele>90.42857142857143</ele><time>2026-04-25T10:43:08.087Z</time></trkpt><trkpt lat="44.2435309" lon="11.7322586"><ele>89.71428571428571</ele><time>2026-04-25T10:43:13.096Z</time></trkpt><trkpt lat="44.2435736" lon="11.7323291"><ele>89.0</ele><time>2026-04-25T10:43:18.095Z</time></trkpt><trkpt lat="44.2436062" lon="11.7324145"><ele>88.99999999999999</ele><time>2026-04-25T10:43:24.097Z</time></trkpt><trkpt lat="44.2436466" lon="11.7324844"><ele>89.0</ele><time>2026-04-25T10:43:29.079Z</time></trkpt><trkpt lat="44.2436876" lon="11.7325516"><ele>89.0</ele><time>2026-04-25T10:43:34.091Z</time></trkpt><trkpt lat="44.2437349" lon="11.732631"><ele>89.0</ele><time>2026-04-25T10:43:40.08Z</time></trkpt><trkpt lat="44.2437909" lon="11.7327002"><ele>89.0</ele><time>2026-04-25T10:43:46.109Z</time></trkpt><trkpt lat="44.2438282" lon="11.7327723"><ele>88.99999999999999</ele><time>2026-04-25T10:43:51.088Z</time></trkpt><trkpt lat="44.2438729" lon="11.7328387"><ele>89.0</ele><time>2026-04-25T10:43:56.079Z</time></trkpt><trkpt lat="44.243916" lon="11.7329181"><ele>89.14285714285714</ele><time>2026-04-25T10:44:02.084Z</time></trkpt><trkpt lat="44.243953" lon="11.732991"><ele>89.28571428571428</ele><time>2026-04-25T10:44:07.086Z</time></trkpt><trkpt lat="44.2439852" lon="11.7330688"><ele>89.42857142857142</ele><time>2026-04-25T10:44:12.089Z</time></trkpt><trkpt lat="44.2440258" lon="11.7331496"><ele>89.57142857142857</ele><time>2026-04-25T10:44:18.092Z</time></trkpt><trkpt lat="44.2440685" lon="11.7332313"><ele>89.71428571428572</ele><time>2026-04-25T10:44:24.107Z</time></trkpt><trkpt lat="44.244103" lon="11.7333101"><ele>89.85714285714285</ele><time>2026-04-25T10:44:29.091Z</time></trkpt><trkpt lat="44.244154" lon="11.7333632"><ele>90.0</ele><time>2026-04-25T10:44:34.068Z</time></trkpt><trkpt lat="44.2442165" lon="11.7333764"><ele>90.0</ele><time>2026-04-25T10:44:39.086Z</time></trkpt><trkpt lat="44.2442787" lon="11.7333375"><ele>90.0</ele><time>2026-04-25T10:44:44.089Z</time></trkpt><trkpt lat="44.244338" lon="11.7332987"><ele>90.0</ele><time>2026-04-25T10:44:48.093Z</time></trkpt><trkpt lat="44.2443976" lon="11.7332433"><ele>90.0</ele><time>2026-04-25T10:44:51.125Z</time></trkpt><trkpt lat="44.2444469" lon="11.733179"><ele>90.0</ele><time>2026-04-25T10:44:54.086Z</time></trkpt><trkpt lat="44.2445101" lon="11.7331224"><ele>90.0</ele><time>2026-04-25T10:44:57.092Z</time></trkpt><trkpt lat="44.2445704" lon="11.7330634"><ele>90.0</ele><time>2026-04-25T10:45:00.1Z</time></trkpt><trkpt lat="44.2446235" lon="11.7330064"><ele>90.0</ele><time>2026-04-25T10:45:03.073Z</time></trkpt><trkpt lat="44.2446751" lon="11.7329328"><ele>90.0</ele><time>2026-04-25T10:45:06.108Z</time></trkpt><trkpt lat="44.2447299" lon="11.7328738"><ele>90.0</ele><time>2026-04-25T10:45:09.064Z</time></trkpt><trkpt lat="44.2447974" lon="11.7328203"><ele>90.0</ele><time>2026-04-25T10:45:13.095Z</time></trkpt><trkpt lat="44.2448565" lon="11.7327667"><ele>90.0</ele><time>2026-04-25T10:45:17.085Z</time></trkpt><trkpt lat="44.2449087" lon="11.732702"><ele>90.0</ele><time>2026-04-25T10:45:21.105Z</time></trkpt><trkpt lat="44.2449601" lon="11.7326375"><ele>90.0</ele><time>2026-04-25T10:45:27.093Z</time></trkpt><trkpt lat="44.2450191" lon="11.7326052"><ele>90.42857142857143</ele><time>2026-04-25T10:45:33.099Z</time></trkpt><trkpt lat="44.2450987" lon="11.7325638"><ele>90.85714285714286</ele><time>2026-04-25T10:45:39.091Z</time></trkpt><trkpt lat="44.2451722" lon="11.7325322"><ele>91.28571428571429</ele><time>2026-04-25T10:45:45.082Z</time></trkpt><trkpt lat="44.2452375" lon="11.7325231"><ele>91.71428571428572</ele><time>2026-04-25T10:45:50.105Z</time></trkpt><trkpt lat="44.2453076" lon="11.7325385"><ele>92.14285714285714</ele><time>2026-04-25T10:45:56.072Z</time></trkpt><trkpt lat="44.2453714" lon="11.7325911"><ele>92.57142857142858</ele><time>2026-04-25T10:46:02.098Z</time></trkpt><trkpt lat="44.2454259" lon="11.7326523"><ele>93.0</ele><time>2026-04-25T10:46:07.096Z</time></trkpt><trkpt lat="44.2454657" lon="11.7327314"><ele>92.14285714285715</ele><time>2026-04-25T10:46:12.083Z</time></trkpt><trkpt lat="44.2455028" lon="11.7328067"><ele>91.28571428571429</ele><time>2026-04-25T10:46:17.069Z</time></trkpt><trkpt lat="44.2455439" lon="11.7328942"><ele>90.42857142857143</ele><time>2026-04-25T10:46:23.094Z</time></trkpt><trkpt lat="44.2455844" lon="11.7329788"><ele>89.57142857142858</ele><time>2026-04-25T10:46:29.084Z</time></trkpt><trkpt lat="44.2456229" lon="11.7330525"><ele>88.71428571428572</ele><time>2026-04-25T10:46:34.091Z</time></trkpt><trkpt lat="44.2456607" lon="11.7331282"><ele>87.85714285714286</ele><time>2026-04-25T10:46:39.092Z</time></trkpt><trkpt lat="44.2456932" lon="11.7332038"><ele>87.0</ele><time>2026-04-25T10:46:44.089Z</time></trkpt><trkpt lat="44.2457218" lon="11.7332859"><ele>88.14285714285714</ele><time>2026-04-25T10:46:49.147Z</time></trkpt><trkpt lat="44.2457584" lon="11.7333773"><ele>89.28571428571429</ele><time>2026-04-25T10:46:55.105Z</time></trkpt><trkpt lat="44.2457932" lon="11.7334575"><ele>90.42857142857143</ele><time>2026-04-25T10:47:00.099Z</time></trkpt><trkpt lat="44.2458302" lon="11.7335462"><ele>91.57142857142857</ele><time>2026-04-25T10:47:06.08Z</time></trkpt><trkpt lat="44.2458597" lon="11.7336359"><ele>92.71428571428572</ele><time>2026-04-25T10:47:11.105Z</time></trkpt><trkpt lat="44.2458873" lon="11.7337219"><ele>93.85714285714286</ele><time>2026-04-25T10:47:16.085Z</time></trkpt><trkpt lat="44.2459151" lon="11.7338135"><ele>95.0</ele><time>2026-04-25T10:47:21.061Z</time></trkpt><trkpt lat="44.2459468" lon="11.7338997"><ele>95.0</ele><time>2026-04-25T10:47:26.062Z</time></trkpt><trkpt lat="44.245984" lon="11.7339921"><ele>95.0</ele><time>2026-04-25T10:47:32.07Z</time></trkpt><trkpt lat="44.2460356" lon="11.7340626"><ele>95.0</ele><time>2026-04-25T10:47:36.969Z</time></trkpt><trkpt lat="44.2460887" lon="11.7341145"><ele>95.0</ele><time>2026-04-25T10:47:41.085Z</time></trkpt><trkpt lat="44.2461538" lon="11.7341507"><ele>95.0</ele><time>2026-04-25T10:47:46.061Z</time></trkpt><trkpt lat="44.2462192" lon="11.7341421"><ele>95.0</ele><time>2026-04-25T10:47:51.085Z</time></trkpt><trkpt lat="44.2462853" lon="11.7341017"><ele>95.0</ele><time>2026-04-25T10:47:56.084Z</time></trkpt><trkpt lat="44.2463508" lon="11.734045"><ele>95.0</ele><time>2026-04-25T10:48:01.071Z</time></trkpt><trkpt lat="44.2464095" lon="11.7339819"><ele>95.0</ele><time>2026-04-25T10:48:06.097Z</time></trkpt><trkpt lat="44.2464625" lon="11.7339069"><ele>95.0</ele><time>2026-04-25T10:48:10.09Z</time></trkpt><trkpt lat="44.2465323" lon="11.7338367"><ele>95.0</ele><time>2026-04-25T10:48:14.16Z</time></trkpt><trkpt lat="44.2465952" lon="11.733783"><ele>95.0</ele><time>2026-04-25T10:48:18.089Z</time></trkpt><trkpt lat="44.2466562" lon="11.7337277"><ele>95.0</ele><time>2026-04-25T10:48:22.082Z</time></trkpt><trkpt lat="44.2467075" lon="11.7336713"><ele>95.0</ele><time>2026-04-25T10:48:26.087Z</time></trkpt><trkpt lat="44.2467607" lon="11.7336032"><ele>98.71428571428572</ele><time>2026-04-25T10:48:31.103Z</time></trkpt><trkpt lat="44.2468238" lon="11.7335519"><ele>102.42857142857143</ele><time>2026-04-25T10:48:36.096Z</time></trkpt><trkpt lat="44.2468936" lon="11.7334955"><ele>106.14285714285714</ele><time>2026-04-25T10:48:41.081Z</time></trkpt><trkpt lat="44.2469635" lon="11.7334607"><ele>109.85714285714286</ele><time>2026-04-25T10:48:45.078Z</time></trkpt><trkpt lat="44.2470326" lon="11.7334583"><ele>113.57142857142856</ele><time>2026-04-25T10:48:49.104Z</time></trkpt><trkpt lat="44.2470958" lon="11.7334621"><ele>117.28571428571428</ele><time>2026-04-25T10:48:53.065Z</time></trkpt><trkpt lat="44.2471629" lon="11.7334809"><ele>121.0</ele><time>2026-04-25T10:48:58.005Z</time></trkpt><trkpt lat="44.2472284" lon="11.7335127"><ele>120.42857142857142</ele><time>2026-04-25T10:49:02.098Z</time></trkpt><trkpt lat="44.2472898" lon="11.7335612"><ele>119.85714285714285</ele><time>2026-04-25T10:49:06.098Z</time></trkpt><trkpt lat="44.2473517" lon="11.7336394"><ele>119.28571428571428</ele><time>2026-04-25T10:49:11.112Z</time></trkpt><trkpt lat="44.2474043" lon="11.7337001"><ele>118.71428571428572</ele><time>2026-04-25T10:49:15.085Z</time></trkpt><trkpt lat="44.2474566" lon="11.7337776"><ele>118.14285714285715</ele><time>2026-04-25T10:49:19.988Z</time></trkpt><trkpt lat="44.2475002" lon="11.7338531"><ele>117.57142857142858</ele><time>2026-04-25T10:49:25.083Z</time></trkpt><trkpt lat="44.2475453" lon="11.733923"><ele>117.0</ele><time>2026-04-25T10:49:31.108Z</time></trkpt><trkpt lat="44.2475888" lon="11.7339993"><ele>117.0</ele><time>2026-04-25T10:49:36.106Z</time></trkpt><trkpt lat="44.247629" lon="11.7340683"><ele>117.00000000000001</ele><time>2026-04-25T10:49:41.097Z</time></trkpt><trkpt lat="44.2476711" lon="11.7341482"><ele>117.0</ele><time>2026-04-25T10:49:47.13Z</time></trkpt><trkpt lat="44.2477156" lon="11.7342245"><ele>117.0</ele><time>2026-04-25T10:49:52.093Z</time></trkpt><trkpt lat="44.24776" lon="11.7342871"><ele>117.00000000000001</ele><time>2026-04-25T10:49:55.105Z</time></trkpt><trkpt lat="44.2478093" lon="11.7343704"><ele>117.0</ele><time>2026-04-25T10:49:59.143Z</time></trkpt><trkpt lat="44.2478602" lon="11.7344478"><ele>117.0</ele><time>2026-04-25T10:50:03.12Z</time></trkpt><trkpt lat="44.2479058" lon="11.7345219"><ele>116.85714285714286</ele><time>2026-04-25T10:50:07.021Z</time></trkpt><trkpt lat="44.2479512" lon="11.7345851"><ele>116.71428571428572</ele><time>2026-04-25T10:50:11.08Z</time></trkpt><trkpt lat="44.247994" lon="11.7346769"><ele>116.57142857142858</ele><time>2026-04-25T10:50:15.061Z</time></trkpt><trkpt lat="44.2480495" lon="11.7347463"><ele>116.42857142857144</ele><time>2026-04-25T10:50:19.066Z</time></trkpt><trkpt lat="44.2480951" lon="11.7348129"><ele>116.28571428571429</ele><time>2026-04-25T10:50:23.075Z</time></trkpt><trkpt lat="44.2481402" lon="11.7348967"><ele>116.14285714285717</ele><time>2026-04-25T10:50:27.041Z</time></trkpt><trkpt lat="44.2481896" lon="11.7349855"><ele>116.00000000000001</ele><time>2026-04-25T10:50:30.961Z</time></trkpt><trkpt lat="44.2482404" lon="11.7350486"><ele>116.14285714285717</ele><time>2026-04-25T10:50:34.061Z</time></trkpt><trkpt lat="44.2482929" lon="11.7350997"><ele>116.28571428571429</ele><time>2026-04-25T10:50:36.98Z</time></trkpt><trkpt lat="44.2483442" lon="11.7351555"><ele>116.42857142857144</ele><time>2026-04-25T10:50:40.099Z</time></trkpt><trkpt lat="44.2484017" lon="11.7352295"><ele>116.57142857142858</ele><time>2026-04-25T10:50:44.097Z</time></trkpt><trkpt lat="44.2484559" lon="11.7353152"><ele>116.71428571428572</ele><time>2026-04-25T10:50:48.103Z</time></trkpt><trkpt lat="44.2485046" lon="11.7353765"><ele>116.85714285714286</ele><time>2026-04-25T10:50:51.105Z</time></trkpt><trkpt lat="44.2485578" lon="11.7354531"><ele>117.0</ele><time>2026-04-25T10:50:55.06Z</time></trkpt><trkpt lat="44.2486283" lon="11.7355096"><ele>117.0</ele><time>2026-04-25T10:50:59.101Z</time></trkpt><trkpt lat="44.2486828" lon="11.7355543"><ele>117.00000000000001</ele><time>2026-04-25T10:51:02.12Z</time></trkpt><trkpt lat="44.2487473" lon="11.7356042"><ele>117.0</ele><time>2026-04-25T10:51:06.043Z</time></trkpt><trkpt lat="44.2488099" lon="11.7356624"><ele>117.0</ele><time>2026-04-25T10:51:10.095Z</time></trkpt><trkpt lat="44.2488717" lon="11.7357346"><ele>117.00000000000001</ele><time>2026-04-25T10:51:14.093Z</time></trkpt><trkpt lat="44.2489279" lon="11.7358034"><ele>117.0</ele><time>2026-04-25T10:51:17.98Z</time></trkpt><trkpt lat="44.2489891" lon="11.7358589"><ele>117.0</ele><time>2026-04-25T10:51:22.081Z</time></trkpt><trkpt lat="44.2490515" lon="11.7359197"><ele>117.42857142857143</ele><time>2026-04-25T10:51:26.1Z</time></trkpt><trkpt lat="44.2491105" lon="11.7359598"><ele>117.85714285714286</ele><time>2026-04-25T10:51:30.112Z</time></trkpt><trkpt lat="44.2491733" lon="11.7360156"><ele>118.28571428571429</ele><time>2026-04-25T10:51:34.089Z</time></trkpt><trkpt lat="44.2492271" lon="11.7360635"><ele>118.71428571428572</ele><time>2026-04-25T10:51:37.118Z</time></trkpt><trkpt lat="44.2492864" lon="11.7361119"><ele>119.14285714285714</ele><time>2026-04-25T10:51:40.071Z</time></trkpt><trkpt lat="44.2493516" lon="11.7361662"><ele>119.57142857142858</ele><time>2026-04-25T10:51:43.125Z</time></trkpt><trkpt lat="44.2494077" lon="11.7362167"><ele>120.0</ele><time>2026-04-25T10:51:46.074Z</time></trkpt><trkpt lat="44.2494603" lon="11.7362738"><ele>120.16666666666667</ele><time>2026-04-25T10:51:49.129Z</time></trkpt><trkpt lat="44.2495256" lon="11.7363316"><ele>120.33333333333334</ele><time>2026-04-25T10:51:53.041Z</time></trkpt><trkpt lat="44.2495797" lon="11.7363792"><ele>120.5</ele><time>2026-04-25T10:51:56.09Z</time></trkpt><trkpt lat="44.2496401" lon="11.7364465"><ele>120.66666666666667</ele><time>2026-04-25T10:52:00.081Z</time></trkpt><trkpt lat="44.2497055" lon="11.7365046"><ele>120.83333333333334</ele><time>2026-04-25T10:52:04.08Z</time></trkpt><trkpt lat="44.2497794" lon="11.7365449"><ele>121.0</ele><time>2026-04-25T10:52:08.098Z</time></trkpt><trkpt lat="44.2498469" lon="11.7365986"><ele>121.0</ele><time>2026-04-25T10:52:12.077Z</time></trkpt><trkpt lat="44.2498976" lon="11.7366555"><ele>120.99999999999999</ele><time>2026-04-25T10:52:15.098Z</time></trkpt><trkpt lat="44.2499594" lon="11.7367083"><ele>121.0</ele><time>2026-04-25T10:52:18.103Z</time></trkpt><trkpt lat="44.2500282" lon="11.7367608"><ele>121.0</ele><time>2026-04-25T10:52:21.062Z</time></trkpt><trkpt lat="44.250092" lon="11.7368055"><ele>120.99999999999999</ele><time>2026-04-25T10:52:24.086Z</time></trkpt><trkpt lat="44.2501538" lon="11.7368425"><ele>121.0</ele><time>2026-04-25T10:52:27.082Z</time></trkpt><trkpt lat="44.2502172" lon="11.7368891"><ele>121.0</ele><time>2026-04-25T10:52:30.087Z</time></trkpt><trkpt lat="44.2502721" lon="11.7369374"><ele>121.0</ele><time>2026-04-25T10:52:33.112Z</time></trkpt><trkpt lat="44.2503447" lon="11.736997"><ele>120.99999999999999</ele><time>2026-04-25T10:52:37.083Z</time></trkpt><trkpt lat="44.2504109" lon="11.7370505"><ele>121.0</ele><time>2026-04-25T10:52:41.002Z</time></trkpt><trkpt lat="44.2504696" lon="11.7370889"><ele>121.0</ele><time>2026-04-25T10:52:44.111Z</time></trkpt><trkpt lat="44.2505212" lon="11.7371415"><ele>120.99999999999999</ele><time>2026-04-25T10:52:47.038Z</time></trkpt><trkpt lat="44.2505753" lon="11.7371867"><ele>121.0</ele><time>2026-04-25T10:52:50.095Z</time></trkpt><trkpt lat="44.2506363" lon="11.7372255"><ele>121.0</ele><time>2026-04-25T10:52:53.064Z</time></trkpt><trkpt lat="44.2507076" lon="11.7372715"><ele>121.0</ele><time>2026-04-25T10:52:57.071Z</time></trkpt><trkpt lat="44.2507723" lon="11.7373326"><ele>120.99999999999999</ele><time>2026-04-25T10:53:01.092Z</time></trkpt><trkpt lat="44.2508267" lon="11.7373797"><ele>121.0</ele><time>2026-04-25T10:53:04.104Z</time></trkpt><trkpt lat="44.2508904" lon="11.7374449"><ele>121.0</ele><time>2026-04-25T10:53:08.051Z</time></trkpt><trkpt lat="44.2509656" lon="11.7375043"><ele>120.99999999999999</ele><time>2026-04-25T10:53:12.093Z</time></trkpt><trkpt lat="44.2510261" lon="11.7375532"><ele>121.0</ele><time>2026-04-25T10:53:15.109Z</time></trkpt><trkpt lat="44.2510863" lon="11.7375988"><ele>121.0</ele><time>2026-04-25T10:53:18.072Z</time></trkpt><trkpt lat="44.2511468" lon="11.7376485"><ele>121.0</ele><time>2026-04-25T10:53:21.107Z</time></trkpt><trkpt lat="44.2512062" lon="11.7376912"><ele>120.99999999999999</ele><time>2026-04-25T10:53:24.087Z</time></trkpt><trkpt lat="44.2512665" lon="11.7377368"><ele>121.0</ele><time>2026-04-25T10:53:27.127Z</time></trkpt><trkpt lat="44.2513407" lon="11.7377931"><ele>121.0</ele><time>2026-04-25T10:53:31.129Z</time></trkpt><trkpt lat="44.2513944" lon="11.7378404"><ele>120.99999999999999</ele><time>2026-04-25T10:53:34.09Z</time></trkpt><trkpt lat="44.2514615" lon="11.7378995"><ele>121.0</ele><time>2026-04-25T10:53:38.078Z</time></trkpt><trkpt lat="44.2515302" lon="11.7379469"><ele>121.0</ele><time>2026-04-25T10:53:42.03Z</time></trkpt><trkpt lat="44.2515868" lon="11.7379869"><ele>120.0</ele><time>2026-04-25T10:53:45.1Z</time></trkpt><trkpt lat="44.2516454" lon="11.7380362"><ele>118.99999999999999</ele><time>2026-04-25T10:53:48.038Z</time></trkpt><trkpt lat="44.2516962" lon="11.7380884"><ele>118.0</ele><time>2026-04-25T10:53:51.142Z</time></trkpt><trkpt lat="44.2517709" lon="11.7381391"><ele>117.0</ele><time>2026-04-25T10:53:55.139Z</time></trkpt><trkpt lat="44.2518274" lon="11.7381813"><ele>115.99999999999999</ele><time>2026-04-25T10:53:58.098Z</time></trkpt><trkpt lat="44.2518919" lon="11.7382299"><ele>115.0</ele><time>2026-04-25T10:54:01.139Z</time></trkpt><trkpt lat="44.2519454" lon="11.738277"><ele>114.0</ele><time>2026-04-25T10:54:04.091Z</time></trkpt><trkpt lat="44.2520053" lon="11.7383317"><ele>114.0</ele><time>2026-04-25T10:54:07.106Z</time></trkpt><trkpt lat="44.2520698" lon="11.7383777"><ele>114.0</ele><time>2026-04-25T10:54:10.115Z</time></trkpt><trkpt lat="44.2521452" lon="11.7384264"><ele>114.0</ele><time>2026-04-25T10:54:14.096Z</time></trkpt><trkpt lat="44.2522045" lon="11.7384774"><ele>114.0</ele><time>2026-04-25T10:54:17.1Z</time></trkpt><trkpt lat="44.2522813" lon="11.7385355"><ele>114.0</ele><time>2026-04-25T10:54:21.148Z</time></trkpt><trkpt lat="44.2523511" lon="11.7385943"><ele>114.0</ele><time>2026-04-25T10:54:25.004Z</time></trkpt><trkpt lat="44.2524101" lon="11.7386517"><ele>113.71428571428571</ele><time>2026-04-25T10:54:28.081Z</time></trkpt><trkpt lat="44.2524666" lon="11.7387075"><ele>113.42857142857142</ele><time>2026-04-25T10:54:31.1Z</time></trkpt><trkpt lat="44.2525277" lon="11.7387579"><ele>113.14285714285714</ele><time>2026-04-25T10:54:34.107Z</time></trkpt><trkpt lat="44.2525844" lon="11.7388066"><ele>112.85714285714286</ele><time>2026-04-25T10:54:37.092Z</time></trkpt><trkpt lat="44.2526397" lon="11.7388557"><ele>112.57142857142857</ele><time>2026-04-25T10:54:40.004Z</time></trkpt><trkpt lat="44.2526948" lon="11.7389052"><ele>112.28571428571428</ele><time>2026-04-25T10:54:43.076Z</time></trkpt><trkpt lat="44.2527632" lon="11.7389724"><ele>112.0</ele><time>2026-04-25T10:54:47.004Z</time></trkpt><trkpt lat="44.2528163" lon="11.739027"><ele>112.0</ele><time>2026-04-25T10:54:50.098Z</time></trkpt><trkpt lat="44.2528704" lon="11.7390847"><ele>112.0</ele><time>2026-04-25T10:54:53.038Z</time></trkpt><trkpt lat="44.2529271" lon="11.7391379"><ele>112.0</ele><time>2026-04-25T10:54:56.07Z</time></trkpt><trkpt lat="44.2529797" lon="11.7391927"><ele>112.0</ele><time>2026-04-25T10:54:59.007Z</time></trkpt><trkpt lat="44.2530286" lon="11.7392582"><ele>112.0</ele><time>2026-04-25T10:55:02.143Z</time></trkpt><trkpt lat="44.2530996" lon="11.739322"><ele>112.0</ele><time>2026-04-25T10:55:06.082Z</time></trkpt><trkpt lat="44.2531525" lon="11.7393733"><ele>112.0</ele><time>2026-04-25T10:55:09.09Z</time></trkpt><trkpt lat="44.2532064" lon="11.7394258"><ele>111.57142857142857</ele><time>2026-04-25T10:55:12.106Z</time></trkpt><trkpt lat="44.2532509" lon="11.7394942"><ele>111.14285714285714</ele><time>2026-04-25T10:55:15.09Z</time></trkpt><trkpt lat="44.2533054" lon="11.7395536"><ele>110.71428571428572</ele><time>2026-04-25T10:55:18.083Z</time></trkpt><trkpt lat="44.2533559" lon="11.7396148"><ele>110.28571428571428</ele><time>2026-04-25T10:55:21.124Z</time></trkpt><trkpt lat="44.2534157" lon="11.7396921"><ele>109.85714285714286</ele><time>2026-04-25T10:55:25.112Z</time></trkpt><trkpt lat="44.2534642" lon="11.7397562"><ele>109.42857142857143</ele><time>2026-04-25T10:55:28.127Z</time></trkpt><trkpt lat="44.2535077" lon="11.7398227"><ele>109.0</ele><time>2026-04-25T10:55:31.111Z</time></trkpt><trkpt lat="44.2535661" lon="11.7398922"><ele>109.0</ele><time>2026-04-25T10:55:35.086Z</time></trkpt><trkpt lat="44.2536142" lon="11.7399528"><ele>109.0</ele><time>2026-04-25T10:55:38.078Z</time></trkpt><trkpt lat="44.2536708" lon="11.7400222"><ele>109.0</ele><time>2026-04-25T10:55:42.073Z</time></trkpt><trkpt lat="44.2537208" lon="11.7400844"><ele>109.0</ele><time>2026-04-25T10:55:45.091Z</time></trkpt><trkpt lat="44.2537686" lon="11.7401571"><ele>109.0</ele><time>2026-04-25T10:55:48.021Z</time></trkpt><trkpt lat="44.253809" lon="11.7402292"><ele>109.0</ele><time>2026-04-25T10:55:51.082Z</time></trkpt><trkpt lat="44.2538683" lon="11.7402946"><ele>109.0</ele><time>2026-04-25T10:55:55.083Z</time></trkpt><trkpt lat="44.2539321" lon="11.7403755"><ele>108.28571428571429</ele><time>2026-04-25T10:55:59.123Z</time></trkpt><trkpt lat="44.253992" lon="11.7404473"><ele>107.57142857142858</ele><time>2026-04-25T10:56:03.062Z</time></trkpt><trkpt lat="44.2540385" lon="11.7405077"><ele>106.85714285714286</ele><time>2026-04-25T10:56:06.084Z</time></trkpt><trkpt lat="44.2540893" lon="11.7405668"><ele>106.14285714285714</ele><time>2026-04-25T10:56:09.074Z</time></trkpt><trkpt lat="44.2541516" lon="11.7406404"><ele>105.42857142857143</ele><time>2026-04-25T10:56:13.026Z</time></trkpt><trkpt lat="44.2542051" lon="11.7407139"><ele>104.71428571428571</ele><time>2026-04-25T10:56:17.086Z</time></trkpt><trkpt lat="44.2542662" lon="11.7407929"><ele>104.0</ele><time>2026-04-25T10:56:21.123Z</time></trkpt><trkpt lat="44.2543156" lon="11.7408563"><ele>104.0</ele><time>2026-04-25T10:56:24.085Z</time></trkpt><trkpt lat="44.2543601" lon="11.740929"><ele>104.0</ele><time>2026-04-25T10:56:28.074Z</time></trkpt><trkpt lat="44.2544149" lon="11.7410031"><ele>104.0</ele><time>2026-04-25T10:56:32.11Z</time></trkpt><trkpt lat="44.2544659" lon="11.7410635"><ele>104.0</ele><time>2026-04-25T10:56:35.08Z</time></trkpt><trkpt lat="44.2545243" lon="11.741133"><ele>104.0</ele><time>2026-04-25T10:56:38.073Z</time></trkpt><trkpt lat="44.2545781" lon="11.7411977"><ele>104.0</ele><time>2026-04-25T10:56:41.109Z</time></trkpt><trkpt lat="44.2546413" lon="11.7412689"><ele>104.0</ele><time>2026-04-25T10:56:45.083Z</time></trkpt><trkpt lat="44.2546918" lon="11.741342"><ele>103.71428571428571</ele><time>2026-04-25T10:56:49.009Z</time></trkpt><trkpt lat="44.254739" lon="11.7414025"><ele>103.42857142857143</ele><time>2026-04-25T10:56:52.098Z</time></trkpt><trkpt lat="44.2547853" lon="11.7414635"><ele>103.14285714285714</ele><time>2026-04-25T10:56:55.004Z</time></trkpt><trkpt lat="44.2548419" lon="11.7415354"><ele>102.85714285714286</ele><time>2026-04-25T10:56:59.074Z</time></trkpt><trkpt lat="44.2549008" lon="11.7416042"><ele>102.57142857142858</ele><time>2026-04-25T10:57:03.109Z</time></trkpt><trkpt lat="44.2549615" lon="11.741687"><ele>102.28571428571429</ele><time>2026-04-25T10:57:07.079Z</time></trkpt><trkpt lat="44.2550198" lon="11.7417686"><ele>102.0</ele><time>2026-04-25T10:57:11.079Z</time></trkpt><trkpt lat="44.2550778" lon="11.7418408"><ele>100.57142857142857</ele><time>2026-04-25T10:57:15.103Z</time></trkpt><trkpt lat="44.255133" lon="11.7419157"><ele>99.14285714285714</ele><time>2026-04-25T10:57:19.084Z</time></trkpt><trkpt lat="44.2551896" lon="11.7419873"><ele>97.71428571428572</ele><time>2026-04-25T10:57:23.071Z</time></trkpt><trkpt lat="44.2552442" lon="11.7420449"><ele>96.28571428571428</ele><time>2026-04-25T10:57:26.092Z</time></trkpt><trkpt lat="44.2552991" lon="11.742109"><ele>94.85714285714285</ele><time>2026-04-25T10:57:29.105Z</time></trkpt><trkpt lat="44.2553445" lon="11.7421751"><ele>93.42857142857143</ele><time>2026-04-25T10:57:32.092Z</time></trkpt><trkpt lat="44.2553891" lon="11.7422469"><ele>92.0</ele><time>2026-04-25T10:57:35.101Z</time></trkpt><trkpt lat="44.2554512" lon="11.7423238"><ele>92.0</ele><time>2026-04-25T10:57:39.012Z</time></trkpt><trkpt lat="44.255511" lon="11.7423979"><ele>92.0</ele><time>2026-04-25T10:57:43.088Z</time></trkpt><trkpt lat="44.2555672" lon="11.7424793"><ele>92.0</ele><time>2026-04-25T10:57:47.081Z</time></trkpt><trkpt lat="44.2556243" lon="11.7425637"><ele>92.0</ele><time>2026-04-25T10:57:51.123Z</time></trkpt><trkpt lat="44.2556864" lon="11.7426394"><ele>92.0</ele><time>2026-04-25T10:57:54.999Z</time></trkpt><trkpt lat="44.2557359" lon="11.7427013"><ele>92.0</ele><time>2026-04-25T10:57:58.088Z</time></trkpt><trkpt lat="44.2557783" lon="11.7427681"><ele>92.42857142857143</ele><time>2026-04-25T10:58:01.028Z</time></trkpt><trkpt lat="44.2558383" lon="11.742841"><ele>92.85714285714285</ele><time>2026-04-25T10:58:05.09Z</time></trkpt><trkpt lat="44.2558959" lon="11.7429112"><ele>93.28571428571428</ele><time>2026-04-25T10:58:09.071Z</time></trkpt><trkpt lat="44.2559584" lon="11.7429864"><ele>93.71428571428572</ele><time>2026-04-25T10:58:13.102Z</time></trkpt><trkpt lat="44.2560154" lon="11.7430598"><ele>94.14285714285714</ele><time>2026-04-25T10:58:17.008Z</time></trkpt><trkpt lat="44.25606" lon="11.7431273"><ele>94.57142857142857</ele><time>2026-04-25T10:58:20.118Z</time></trkpt><trkpt lat="44.2561139" lon="11.7431815"><ele>95.0</ele><time>2026-04-25T10:58:23.104Z</time></trkpt><trkpt lat="44.2561648" lon="11.7432485"><ele>95.0</ele><time>2026-04-25T10:58:26.134Z</time></trkpt><trkpt lat="44.2562087" lon="11.743317"><ele>95.0</ele><time>2026-04-25T10:58:29.091Z</time></trkpt><trkpt lat="44.2562575" lon="11.7433799"><ele>95.0</ele><time>2026-04-25T10:58:32.082Z</time></trkpt><trkpt lat="44.2563169" lon="11.7434498"><ele>95.0</ele><time>2026-04-25T10:58:36.091Z</time></trkpt><trkpt lat="44.256366" lon="11.7435121"><ele>95.0</ele><time>2026-04-25T10:58:39.101Z</time></trkpt><trkpt lat="44.2564123" lon="11.7435742"><ele>95.0</ele><time>2026-04-25T10:58:42.097Z</time></trkpt><trkpt lat="44.2564628" lon="11.743636"><ele>95.0</ele><time>2026-04-25T10:58:45.068Z</time></trkpt><trkpt lat="44.2565103" lon="11.7436996"><ele>95.66666666666667</ele><time>2026-04-25T10:58:48.086Z</time></trkpt><trkpt lat="44.2565528" lon="11.7437651"><ele>96.33333333333334</ele><time>2026-04-25T10:58:51.111Z</time></trkpt><trkpt lat="44.2566195" lon="11.7438439"><ele>97.0</ele><time>2026-04-25T10:58:55.086Z</time></trkpt><trkpt lat="44.2566745" lon="11.7439153"><ele>97.66666666666667</ele><time>2026-04-25T10:58:58.073Z</time></trkpt><trkpt lat="44.2567255" lon="11.7439889"><ele>98.33333333333333</ele><time>2026-04-25T10:59:01.029Z</time></trkpt><trkpt lat="44.2567829" lon="11.7440596"><ele>99.0</ele><time>2026-04-25T10:59:04.095Z</time></trkpt><trkpt lat="44.2568391" lon="11.7441275"><ele>99.0</ele><time>2026-04-25T10:59:07.008Z</time></trkpt><trkpt lat="44.2569015" lon="11.7441925"><ele>99.0</ele><time>2026-04-25T10:59:10.082Z</time></trkpt><trkpt lat="44.2569623" lon="11.7442536"><ele>99.0</ele><time>2026-04-25T10:59:13.108Z</time></trkpt><trkpt lat="44.257019" lon="11.7443008"><ele>99.0</ele><time>2026-04-25T10:59:16.103Z</time></trkpt><trkpt lat="44.2570792" lon="11.7443451"><ele>99.0</ele><time>2026-04-25T10:59:20.103Z</time></trkpt><trkpt lat="44.2571555" lon="11.7443532"><ele>99.0</ele><time>2026-04-25T10:59:24.025Z</time></trkpt><trkpt lat="44.2572244" lon="11.7443338"><ele>99.0</ele><time>2026-04-25T10:59:27.089Z</time></trkpt><trkpt lat="44.257285" lon="11.7442904"><ele>98.28571428571429</ele><time>2026-04-25T10:59:30.075Z</time></trkpt><trkpt lat="44.25734" lon="11.7442375"><ele>97.57142857142857</ele><time>2026-04-25T10:59:33.058Z</time></trkpt><trkpt lat="44.2573964" lon="11.7441721"><ele>96.85714285714286</ele><time>2026-04-25T10:59:36.082Z</time></trkpt><trkpt lat="44.2574451" lon="11.7440953"><ele>96.14285714285714</ele><time>2026-04-25T10:59:39.023Z</time></trkpt><trkpt lat="44.2574833" lon="11.7440058"><ele>95.42857142857142</ele><time>2026-04-25T10:59:42.091Z</time></trkpt><trkpt lat="44.2575101" lon="11.7439043"><ele>94.71428571428571</ele><time>2026-04-25T10:59:45.095Z</time></trkpt><trkpt lat="44.2575215" lon="11.7437947"><ele>94.0</ele><time>2026-04-25T10:59:48.032Z</time></trkpt><trkpt lat="44.2575255" lon="11.7436848"><ele>94.0</ele><time>2026-04-25T10:59:51.082Z</time></trkpt><trkpt lat="44.2575278" lon="11.743592"><ele>94.0</ele><time>2026-04-25T10:59:54.096Z</time></trkpt><trkpt lat="44.2575318" lon="11.743498"><ele>94.0</ele><time>2026-04-25T10:59:57.084Z</time></trkpt><trkpt lat="44.2575437" lon="11.7434004"><ele>94.0</ele><time>2026-04-25T11:00:00.088Z</time></trkpt><trkpt lat="44.2575536" lon="11.7433017"><ele>94.0</ele><time>2026-04-25T11:00:03.074Z</time></trkpt><trkpt lat="44.2575521" lon="11.7432022"><ele>94.0</ele><time>2026-04-25T11:00:06.082Z</time></trkpt><trkpt lat="44.2575398" lon="11.7431031"><ele>94.0</ele><time>2026-04-25T11:00:09.114Z</time></trkpt><trkpt lat="44.2575477" lon="11.7430137"><ele>93.42857142857143</ele><time>2026-04-25T11:00:12.006Z</time></trkpt><trkpt lat="44.2575798" lon="11.7429323"><ele>92.85714285714286</ele><time>2026-04-25T11:00:15.09Z</time></trkpt><trkpt lat="44.2575883" lon="11.7428364"><ele>92.28571428571428</ele><time>2026-04-25T11:00:18.108Z</time></trkpt><trkpt lat="44.2576001" lon="11.7427412"><ele>91.71428571428572</ele><time>2026-04-25T11:00:21.094Z</time></trkpt><trkpt lat="44.2576072" lon="11.7426454"><ele>91.14285714285715</ele><time>2026-04-25T11:00:24.025Z</time></trkpt><trkpt lat="44.2576045" lon="11.7425528"><ele>90.57142857142857</ele><time>2026-04-25T11:00:27.065Z</time></trkpt><trkpt lat="44.2576055" lon="11.7424587"><ele>90.0</ele><time>2026-04-25T11:00:30.031Z</time></trkpt><trkpt lat="44.257604" lon="11.7423647"><ele>89.66666666666667</ele><time>2026-04-25T11:00:33.086Z</time></trkpt><trkpt lat="44.2576064" lon="11.7422681"><ele>89.33333333333333</ele><time>2026-04-25T11:00:36.025Z</time></trkpt><trkpt lat="44.2576171" lon="11.7421534"><ele>89.0</ele><time>2026-04-25T11:00:40.097Z</time></trkpt><trkpt lat="44.2576331" lon="11.7420349"><ele>88.66666666666666</ele><time>2026-04-25T11:00:44.101Z</time></trkpt><trkpt lat="44.2576407" lon="11.7419337"><ele>88.33333333333333</ele><time>2026-04-25T11:00:47.08Z</time></trkpt><trkpt lat="44.2576433" lon="11.7418359"><ele>88.0</ele><time>2026-04-25T11:00:50.108Z</time></trkpt><trkpt lat="44.2576679" lon="11.7417434"><ele>87.57142857142857</ele><time>2026-04-25T11:00:53.097Z</time></trkpt><trkpt lat="44.2577124" lon="11.7416506"><ele>87.14285714285714</ele><time>2026-04-25T11:00:56.103Z</time></trkpt><trkpt lat="44.2577584" lon="11.7415658"><ele>86.71428571428572</ele><time>2026-04-25T11:00:59.093Z</time></trkpt><trkpt lat="44.2578045" lon="11.7414932"><ele>86.28571428571428</ele><time>2026-04-25T11:01:02.093Z</time></trkpt><trkpt lat="44.2578457" lon="11.7414238"><ele>85.85714285714285</ele><time>2026-04-25T11:01:05.083Z</time></trkpt><trkpt lat="44.2578966" lon="11.741348"><ele>85.42857142857143</ele><time>2026-04-25T11:01:09.007Z</time></trkpt><trkpt lat="44.2579548" lon="11.7412723"><ele>85.0</ele><time>2026-04-25T11:01:13.061Z</time></trkpt><trkpt lat="44.2580206" lon="11.7412294"><ele>85.0</ele><time>2026-04-25T11:01:20.1Z</time></trkpt><trkpt lat="44.2580895" lon="11.7412611"><ele>85.0</ele><time>2026-04-25T11:01:25.102Z</time></trkpt><trkpt lat="44.2581444" lon="11.7413047"><ele>85.0</ele><time>2026-04-25T11:01:30.082Z</time></trkpt><trkpt lat="44.2581893" lon="11.7413837"><ele>85.0</ele><time>2026-04-25T11:01:36.095Z</time></trkpt><trkpt lat="44.2582264" lon="11.7414817"><ele>85.0</ele><time>2026-04-25T11:01:42.068Z</time></trkpt><trkpt lat="44.2582476" lon="11.7415741"><ele>85.0</ele><time>2026-04-25T11:01:48.101Z</time></trkpt><trkpt lat="44.2582799" lon="11.7416693"><ele>85.0</ele><time>2026-04-25T11:01:54.085Z</time></trkpt><trkpt lat="44.2583131" lon="11.7417513"><ele>85.0</ele><time>2026-04-25T11:02:00.082Z</time></trkpt><trkpt lat="44.2583429" lon="11.7418381"><ele>85.0</ele><time>2026-04-25T11:02:06.077Z</time></trkpt><trkpt lat="44.2583611" lon="11.7419287"><ele>85.0</ele><time>2026-04-25T11:02:12.056Z</time></trkpt><trkpt lat="44.2583852" lon="11.742018"><ele>85.0</ele><time>2026-04-25T11:02:17.001Z</time></trkpt><trkpt lat="44.2583961" lon="11.7421168"><ele>85.0</ele><time>2026-04-25T11:02:22.075Z</time></trkpt><trkpt lat="44.2584127" lon="11.7422132"><ele>85.0</ele><time>2026-04-25T11:02:27.095Z</time></trkpt><trkpt lat="44.2584279" lon="11.7423064"><ele>85.0</ele><time>2026-04-25T11:02:32.023Z</time></trkpt><trkpt lat="44.2584472" lon="11.7424047"><ele>85.0</ele><time>2026-04-25T11:02:38.074Z</time></trkpt><trkpt lat="44.2584662" lon="11.7424898"><ele>85.0</ele><time>2026-04-25T11:02:43.075Z</time></trkpt><trkpt lat="44.2584852" lon="11.742575"><ele>85.0</ele><time>2026-04-25T11:02:48.084Z</time></trkpt><trkpt lat="44.2585054" lon="11.7426675"><ele>85.0</ele><time>2026-04-25T11:02:53.086Z</time></trkpt><trkpt lat="44.2585211" lon="11.7427582"><ele>85.0</ele><time>2026-04-25T11:02:58.08Z</time></trkpt><trkpt lat="44.2585434" lon="11.7428584"><ele>85.0</ele><time>2026-04-25T11:03:04.1Z</time></trkpt><trkpt lat="44.2585679" lon="11.7429403"><ele>85.0</ele><time>2026-04-25T11:03:09.088Z</time></trkpt><trkpt lat="44.2585926" lon="11.7430263"><ele>84.85714285714286</ele><time>2026-04-25T11:03:15.059Z</time></trkpt><trkpt lat="44.2586201" lon="11.74312"><ele>84.71428571428571</ele><time>2026-04-25T11:03:21.076Z</time></trkpt><trkpt lat="44.2586426" lon="11.7432058"><ele>84.57142857142857</ele><time>2026-04-25T11:03:26.091Z</time></trkpt><trkpt lat="44.2586763" lon="11.743285"><ele>84.42857142857143</ele><time>2026-04-25T11:03:31.125Z</time></trkpt><trkpt lat="44.2587106" lon="11.743373"><ele>84.28571428571428</ele><time>2026-04-25T11:03:36.071Z</time></trkpt><trkpt lat="44.2587443" lon="11.7434622"><ele>84.14285714285714</ele><time>2026-04-25T11:03:41.108Z</time></trkpt><trkpt lat="44.2587765" lon="11.7435423"><ele>84.0</ele><time>2026-04-25T11:03:47.105Z</time></trkpt><trkpt lat="44.2588183" lon="11.7436253"><ele>83.42857142857143</ele><time>2026-04-25T11:03:53.083Z</time></trkpt><trkpt lat="44.2588628" lon="11.7437089"><ele>82.85714285714286</ele><time>2026-04-25T11:03:59.075Z</time></trkpt><trkpt lat="44.2589106" lon="11.7437894"><ele>82.28571428571428</ele><time>2026-04-25T11:04:05.049Z</time></trkpt><trkpt lat="44.2589605" lon="11.7438591"><ele>81.71428571428572</ele><time>2026-04-25T11:04:10.047Z</time></trkpt><trkpt lat="44.2590099" lon="11.7439218"><ele>81.14285714285714</ele><time>2026-04-25T11:04:15.059Z</time></trkpt><trkpt lat="44.2590527" lon="11.7439999"><ele>80.57142857142857</ele><time>2026-04-25T11:04:21.07Z</time></trkpt><trkpt lat="44.2591006" lon="11.744062"><ele>80.0</ele><time>2026-04-25T11:04:26.085Z</time></trkpt><trkpt lat="44.2591593" lon="11.7441148"><ele>82.14285714285714</ele><time>2026-04-25T11:04:31.067Z</time></trkpt><trkpt lat="44.2592073" lon="11.744177"><ele>84.28571428571429</ele><time>2026-04-25T11:04:36.113Z</time></trkpt><trkpt lat="44.2592667" lon="11.7442243"><ele>86.42857142857143</ele><time>2026-04-25T11:04:42.068Z</time></trkpt><trkpt lat="44.2593298" lon="11.7442688"><ele>88.57142857142857</ele><time>2026-04-25T11:04:48.029Z</time></trkpt><trkpt lat="44.2593948" lon="11.7443199"><ele>90.71428571428572</ele><time>2026-04-25T11:04:54.101Z</time></trkpt><trkpt lat="44.2594536" lon="11.7443722"><ele>92.85714285714286</ele><time>2026-04-25T11:05:00.097Z</time></trkpt><trkpt lat="44.2595192" lon="11.7443945"><ele>95.0</ele><time>2026-04-25T11:05:05.093Z</time></trkpt><trkpt lat="44.2595821" lon="11.7444187"><ele>95.0</ele><time>2026-04-25T11:05:11.077Z</time></trkpt><trkpt lat="44.2596508" lon="11.7444645"><ele>95.0</ele><time>2026-04-25T11:05:17.144Z</time></trkpt><trkpt lat="44.2597248" lon="11.7445194"><ele>95.0</ele><time>2026-04-25T11:05:21.065Z</time></trkpt><trkpt lat="44.2597845" lon="11.7445485"><ele>95.0</ele><time>2026-04-25T11:05:24.057Z</time></trkpt><trkpt lat="44.2598455" lon="11.7445841"><ele>95.0</ele><time>2026-04-25T11:05:27.022Z</time></trkpt><trkpt lat="44.2599148" lon="11.7446244"><ele>95.0</ele><time>2026-04-25T11:05:30.115Z</time></trkpt><trkpt lat="44.259975" lon="11.7446625"><ele>95.0</ele><time>2026-04-25T11:05:33.081Z</time></trkpt><trkpt lat="44.2600433" lon="11.7447026"><ele>95.28571428571429</ele><time>2026-04-25T11:05:36.127Z</time></trkpt><trkpt lat="44.260114" lon="11.7447358"><ele>95.57142857142858</ele><time>2026-04-25T11:05:39.112Z</time></trkpt><trkpt lat="44.2601795" lon="11.744773"><ele>95.85714285714286</ele><time>2026-04-25T11:05:42.041Z</time></trkpt><trkpt lat="44.2602566" lon="11.744819"><ele>96.14285714285714</ele><time>2026-04-25T11:05:46.1Z</time></trkpt><trkpt lat="44.2603177" lon="11.7448611"><ele>96.42857142857143</ele><time>2026-04-25T11:05:49.101Z</time></trkpt><trkpt lat="44.2603799" lon="11.7448967"><ele>96.71428571428571</ele><time>2026-04-25T11:05:52.095Z</time></trkpt><trkpt lat="44.2604405" lon="11.7449303"><ele>97.0</ele><time>2026-04-25T11:05:55.102Z</time></trkpt><trkpt lat="44.2605146" lon="11.7449763"><ele>97.0</ele><time>2026-04-25T11:05:59.076Z</time></trkpt><trkpt lat="44.2605768" lon="11.7450143"><ele>97.0</ele><time>2026-04-25T11:06:02.126Z</time></trkpt><trkpt lat="44.2606394" lon="11.7450487"><ele>97.0</ele><time>2026-04-25T11:06:05.05Z</time></trkpt><trkpt lat="44.2607037" lon="11.745073"><ele>97.0</ele><time>2026-04-25T11:06:08.122Z</time></trkpt><trkpt lat="44.2607732" lon="11.7451103"><ele>97.0</ele><time>2026-04-25T11:06:12.091Z</time></trkpt><trkpt lat="44.2608426" lon="11.7451605"><ele>97.0</ele><time>2026-04-25T11:06:16Z</time></trkpt><trkpt lat="44.2609009" lon="11.7451999"><ele>97.0</ele><time>2026-04-25T11:06:19.093Z</time></trkpt><trkpt lat="44.2609692" lon="11.7452425"><ele>96.57142857142857</ele><time>2026-04-25T11:06:23.006Z</time></trkpt><trkpt lat="44.2610305" lon="11.7452829"><ele>96.14285714285715</ele><time>2026-04-25T11:06:27.001Z</time></trkpt><trkpt lat="44.2611002" lon="11.7453424"><ele>95.71428571428572</ele><time>2026-04-25T11:06:31.085Z</time></trkpt><trkpt lat="44.261169" lon="11.7454004"><ele>95.28571428571428</ele><time>2026-04-25T11:06:35.095Z</time></trkpt><trkpt lat="44.2612263" lon="11.7454457"><ele>94.85714285714286</ele><time>2026-04-25T11:06:38.034Z</time></trkpt><trkpt lat="44.2612839" lon="11.7455059"><ele>94.42857142857143</ele><time>2026-04-25T11:06:41.095Z</time></trkpt><trkpt lat="44.2613506" lon="11.7455473"><ele>94.0</ele><time>2026-04-25T11:06:44.026Z</time></trkpt><trkpt lat="44.2614094" lon="11.7455969"><ele>93.85714285714286</ele><time>2026-04-25T11:06:47.129Z</time></trkpt><trkpt lat="44.2614803" lon="11.7456591"><ele>93.71428571428571</ele><time>2026-04-25T11:06:51.01Z</time></trkpt><trkpt lat="44.2615402" lon="11.7457045"><ele>93.57142857142858</ele><time>2026-04-25T11:06:54.098Z</time></trkpt><trkpt lat="44.2616035" lon="11.7457487"><ele>93.42857142857143</ele><time>2026-04-25T11:06:57.076Z</time></trkpt><trkpt lat="44.2616597" lon="11.745794"><ele>93.28571428571429</ele><time>2026-04-25T11:07:00.089Z</time></trkpt><trkpt lat="44.2617166" lon="11.7458383"><ele>93.14285714285715</ele><time>2026-04-25T11:07:02.987Z</time></trkpt><trkpt lat="44.2617738" lon="11.7458855"><ele>93.0</ele><time>2026-04-25T11:07:06.093Z</time></trkpt><trkpt lat="44.2618304" lon="11.7459308"><ele>93.00000000000001</ele><time>2026-04-25T11:07:09.09Z</time></trkpt><trkpt lat="44.2618927" lon="11.7459957"><ele>93.0</ele><time>2026-04-25T11:07:13.097Z</time></trkpt><trkpt lat="44.2619612" lon="11.7460541"><ele>93.0</ele><time>2026-04-25T11:07:17.041Z</time></trkpt><trkpt lat="44.2620179" lon="11.7460982"><ele>93.0</ele><time>2026-04-25T11:07:20.076Z</time></trkpt><trkpt lat="44.2620776" lon="11.746153"><ele>93.0</ele><time>2026-04-25T11:07:23.008Z</time></trkpt><trkpt lat="44.2621363" lon="11.7462095"><ele>93.00000000000001</ele><time>2026-04-25T11:07:26.094Z</time></trkpt><trkpt lat="44.2621945" lon="11.746261"><ele>93.0</ele><time>2026-04-25T11:07:29.003Z</time></trkpt><trkpt lat="44.2622582" lon="11.7463188"><ele>92.85714285714286</ele><time>2026-04-25T11:07:32.15Z</time></trkpt><trkpt lat="44.2623174" lon="11.7463625"><ele>92.71428571428572</ele><time>2026-04-25T11:07:35.072Z</time></trkpt><trkpt lat="44.2623778" lon="11.746415"><ele>92.57142857142858</ele><time>2026-04-25T11:07:38.155Z</time></trkpt><trkpt lat="44.2624339" lon="11.7464667"><ele>92.42857142857143</ele><time>2026-04-25T11:07:41.086Z</time></trkpt><trkpt lat="44.2624943" lon="11.7465285"><ele>92.28571428571428</ele><time>2026-04-25T11:07:44.086Z</time></trkpt><trkpt lat="44.262555" lon="11.7465806"><ele>92.14285714285715</ele><time>2026-04-25T11:07:47.104Z</time></trkpt><trkpt lat="44.2626151" lon="11.7466341"><ele>92.0</ele><time>2026-04-25T11:07:50.105Z</time></trkpt><trkpt lat="44.2626759" lon="11.7466899"><ele>92.0</ele><time>2026-04-25T11:07:53.08Z</time></trkpt><trkpt lat="44.2627354" lon="11.7467339"><ele>92.0</ele><time>2026-04-25T11:07:56.094Z</time></trkpt><trkpt lat="44.2627945" lon="11.7467765"><ele>92.0</ele><time>2026-04-25T11:07:59.085Z</time></trkpt><trkpt lat="44.2628504" lon="11.7468325"><ele>92.0</ele><time>2026-04-25T11:08:02.122Z</time></trkpt><trkpt lat="44.2629047" lon="11.7468772"><ele>92.0</ele><time>2026-04-25T11:08:05.077Z</time></trkpt><trkpt lat="44.2629609" lon="11.7469281"><ele>92.0</ele><time>2026-04-25T11:08:08.086Z</time></trkpt><trkpt lat="44.263028" lon="11.7469778"><ele>92.0</ele><time>2026-04-25T11:08:12.068Z</time></trkpt><trkpt lat="44.2631013" lon="11.7470325"><ele>91.71428571428572</ele><time>2026-04-25T11:08:16.056Z</time></trkpt><trkpt lat="44.263171" lon="11.7470772"><ele>91.42857142857142</ele><time>2026-04-25T11:08:20.123Z</time></trkpt><trkpt lat="44.2632333" lon="11.7471383"><ele>91.14285714285714</ele><time>2026-04-25T11:08:24.041Z</time></trkpt><trkpt lat="44.2632974" lon="11.7472029"><ele>90.85714285714286</ele><time>2026-04-25T11:08:28.089Z</time></trkpt><trkpt lat="44.2633646" lon="11.7472597"><ele>90.57142857142858</ele><time>2026-04-25T11:08:32.104Z</time></trkpt><trkpt lat="44.26342" lon="11.7473029"><ele>90.28571428571428</ele><time>2026-04-25T11:08:34.988Z</time></trkpt><trkpt lat="44.2634782" lon="11.747349"><ele>90.0</ele><time>2026-04-25T11:08:38.102Z</time></trkpt><trkpt lat="44.2635324" lon="11.7473977"><ele>90.0</ele><time>2026-04-25T11:08:41.023Z</time></trkpt><trkpt lat="44.26359" lon="11.7474467"><ele>90.0</ele><time>2026-04-25T11:08:45.083Z</time></trkpt><trkpt lat="44.2636522" lon="11.7474957"><ele>90.0</ele><time>2026-04-25T11:08:51.09Z</time></trkpt><trkpt lat="44.263712" lon="11.7475581"><ele>90.0</ele><time>2026-04-25T11:08:57.119Z</time></trkpt><trkpt lat="44.2637639" lon="11.7476261"><ele>90.0</ele><time>2026-04-25T11:09:03.109Z</time></trkpt><trkpt lat="44.2638525" lon="11.7477028"><ele>90.0</ele><time>2026-04-25T11:09:32.081Z</time></trkpt><trkpt lat="44.2639135" lon="11.7477361"><ele>90.0</ele><time>2026-04-25T11:09:39.095Z</time></trkpt><trkpt lat="44.2639771" lon="11.7477701"><ele>90.0</ele><time>2026-04-25T11:09:45.073Z</time></trkpt><trkpt lat="44.2640306" lon="11.7478166"><ele>90.0</ele><time>2026-04-25T11:09:55.092Z</time></trkpt><trkpt lat="44.2641027" lon="11.7478326"><ele>90.0</ele><time>2026-04-25T11:10:03.101Z</time></trkpt><trkpt lat="44.2641712" lon="11.7478646"><ele>90.0</ele><time>2026-04-25T11:10:09.092Z</time></trkpt><trkpt lat="44.2642345" lon="11.7478943"><ele>90.0</ele><time>2026-04-25T11:10:15.088Z</time></trkpt><trkpt lat="44.264301" lon="11.7479351"><ele>90.0</ele><time>2026-04-25T11:10:21.11Z</time></trkpt><trkpt lat="44.264368" lon="11.7479674"><ele>90.0</ele><time>2026-04-25T11:10:27.069Z</time></trkpt><trkpt lat="44.2644308" lon="11.7480032"><ele>90.0</ele><time>2026-04-25T11:10:32.079Z</time></trkpt><trkpt lat="44.2644984" lon="11.7480324"><ele>90.0</ele><time>2026-04-25T11:10:37.085Z</time></trkpt><trkpt lat="44.2645562" lon="11.748071"><ele>90.0</ele><time>2026-04-25T11:10:42.072Z</time></trkpt><trkpt lat="44.2646157" lon="11.7481083"><ele>90.0</ele><time>2026-04-25T11:10:47.076Z</time></trkpt><trkpt lat="44.2646767" lon="11.7481595"><ele>90.0</ele><time>2026-04-25T11:10:53.104Z</time></trkpt><trkpt lat="44.2647348" lon="11.7482112"><ele>90.0</ele><time>2026-04-25T11:10:59.095Z</time></trkpt><trkpt lat="44.264801" lon="11.7482656"><ele>89.85714285714285</ele><time>2026-04-25T11:11:05.108Z</time></trkpt><trkpt lat="44.2648577" lon="11.7483188"><ele>89.71428571428572</ele><time>2026-04-25T11:11:08.066Z</time></trkpt><trkpt lat="44.2649155" lon="11.748354"><ele>89.57142857142857</ele><time>2026-04-25T11:11:10.967Z</time></trkpt><trkpt lat="44.2649663" lon="11.7484291"><ele>89.42857142857142</ele><time>2026-04-25T11:11:15.119Z</time></trkpt><trkpt lat="44.2650165" lon="11.7484844"><ele>89.28571428571428</ele><time>2026-04-25T11:11:18.124Z</time></trkpt><trkpt lat="44.2650863" lon="11.7485553"><ele>89.14285714285714</ele><time>2026-04-25T11:11:22.053Z</time></trkpt><trkpt lat="44.2651417" lon="11.7486024"><ele>89.0</ele><time>2026-04-25T11:11:25.084Z</time></trkpt><trkpt lat="44.2651985" lon="11.7486426"><ele>88.85714285714285</ele><time>2026-04-25T11:11:28.043Z</time></trkpt><trkpt lat="44.265251" lon="11.7486941"><ele>88.71428571428571</ele><time>2026-04-25T11:11:31.096Z</time></trkpt><trkpt lat="44.2653092" lon="11.7487721"><ele>88.57142857142857</ele><time>2026-04-25T11:11:35.028Z</time></trkpt><trkpt lat="44.265358" lon="11.7488358"><ele>88.42857142857142</ele><time>2026-04-25T11:11:38.071Z</time></trkpt><trkpt lat="44.2653987" lon="11.7489147"><ele>88.28571428571428</ele><time>2026-04-25T11:11:41.009Z</time></trkpt><trkpt lat="44.2654431" lon="11.7489798"><ele>88.14285714285714</ele><time>2026-04-25T11:11:44.158Z</time></trkpt><trkpt lat="44.2654975" lon="11.7490564"><ele>88.0</ele><time>2026-04-25T11:11:48.004Z</time></trkpt><trkpt lat="44.2655679" lon="11.7491237"><ele>88.0</ele><time>2026-04-25T11:11:52.093Z</time></trkpt><trkpt lat="44.2656267" lon="11.7491715"><ele>88.0</ele><time>2026-04-25T11:11:55.092Z</time></trkpt><trkpt lat="44.2656849" lon="11.7492191"><ele>88.0</ele><time>2026-04-25T11:11:58.093Z</time></trkpt><trkpt lat="44.265738" lon="11.7492667"><ele>88.0</ele><time>2026-04-25T11:12:01.011Z</time></trkpt><trkpt lat="44.2657931" lon="11.7493197"><ele>88.0</ele><time>2026-04-25T11:12:04.104Z</time></trkpt><trkpt lat="44.2658495" lon="11.7493667"><ele>88.0</ele><time>2026-04-25T11:12:07.111Z</time></trkpt><trkpt lat="44.2659056" lon="11.7494284"><ele>88.0</ele><time>2026-04-25T11:12:11.107Z</time></trkpt><trkpt lat="44.2659606" lon="11.7495028"><ele>87.83333333333333</ele><time>2026-04-25T11:12:15.105Z</time></trkpt><trkpt lat="44.2660127" lon="11.7495568"><ele>87.66666666666666</ele><time>2026-04-25T11:12:19.094Z</time></trkpt><trkpt lat="44.2660767" lon="11.7496236"><ele>87.5</ele><time>2026-04-25T11:12:23.079Z</time></trkpt><trkpt lat="44.2661493" lon="11.7496857"><ele>87.33333333333333</ele><time>2026-04-25T11:12:27.069Z</time></trkpt><trkpt lat="44.2662108" lon="11.7497286"><ele>87.16666666666667</ele><time>2026-04-25T11:12:30.104Z</time></trkpt><trkpt lat="44.2662779" lon="11.7497914"><ele>87.0</ele><time>2026-04-25T11:12:34.071Z</time></trkpt><trkpt lat="44.2663479" lon="11.7498575"><ele>87.0</ele><time>2026-04-25T11:12:38.092Z</time></trkpt><trkpt lat="44.266404" lon="11.7498974"><ele>87.0</ele><time>2026-04-25T11:12:41.087Z</time></trkpt><trkpt lat="44.2664613" lon="11.7499348"><ele>87.0</ele><time>2026-04-25T11:12:44.083Z</time></trkpt><trkpt lat="44.2665232" lon="11.7499661"><ele>87.0</ele><time>2026-04-25T11:12:47.111Z</time></trkpt><trkpt lat="44.2666005" lon="11.74997"><ele>87.0</ele><time>2026-04-25T11:12:51.085Z</time></trkpt><trkpt lat="44.2666691" lon="11.7499424"><ele>87.0</ele><time>2026-04-25T11:12:55.086Z</time></trkpt><trkpt lat="44.266734" lon="11.7498913"><ele>87.0</ele><time>2026-04-25T11:12:59.079Z</time></trkpt><trkpt lat="44.2668011" lon="11.7498348"><ele>87.14285714285714</ele><time>2026-04-25T11:13:03.099Z</time></trkpt><trkpt lat="44.2668662" lon="11.7497889"><ele>87.28571428571429</ele><time>2026-04-25T11:13:07.069Z</time></trkpt><trkpt lat="44.2669301" lon="11.7497417"><ele>87.42857142857143</ele><time>2026-04-25T11:13:11.098Z</time></trkpt><trkpt lat="44.2669984" lon="11.7497152"><ele>87.57142857142857</ele><time>2026-04-25T11:13:14.983Z</time></trkpt><trkpt lat="44.2670738" lon="11.7496931"><ele>87.71428571428571</ele><time>2026-04-25T11:13:19.086Z</time></trkpt><trkpt lat="44.2671455" lon="11.7496883"><ele>87.85714285714286</ele><time>2026-04-25T11:13:22.006Z</time></trkpt><trkpt lat="44.2672295" lon="11.7497005"><ele>88.0</ele><time>2026-04-25T11:13:24.824Z</time></trkpt><trkpt lat="44.2672914" lon="11.7497168"><ele>87.57142857142857</ele><time>2026-04-25T11:13:27.095Z</time></trkpt><trkpt lat="44.2673652" lon="11.749741"><ele>87.14285714285714</ele><time>2026-04-25T11:13:30.104Z</time></trkpt><trkpt lat="44.2674344" lon="11.7497767"><ele>86.71428571428572</ele><time>2026-04-25T11:13:33.115Z</time></trkpt><trkpt lat="44.2674964" lon="11.7498171"><ele>86.28571428571428</ele><time>2026-04-25T11:13:36.098Z</time></trkpt><trkpt lat="44.2675736" lon="11.7498659"><ele>85.85714285714285</ele><time>2026-04-25T11:13:40.01Z</time></trkpt><trkpt lat="44.2676366" lon="11.7499141"><ele>85.42857142857143</ele><time>2026-04-25T11:13:43.132Z</time></trkpt><trkpt lat="44.2676903" lon="11.7499644"><ele>85.0</ele><time>2026-04-25T11:13:46.075Z</time></trkpt><trkpt lat="44.2677457" lon="11.7500113"><ele>85.0</ele><time>2026-04-25T11:13:49.083Z</time></trkpt><trkpt lat="44.2678155" lon="11.7500618"><ele>85.0</ele><time>2026-04-25T11:13:53.004Z</time></trkpt><trkpt lat="44.2678763" lon="11.7501029"><ele>85.0</ele><time>2026-04-25T11:13:56.117Z</time></trkpt><trkpt lat="44.267937" lon="11.7501441"><ele>85.0</ele><time>2026-04-25T11:13:59.006Z</time></trkpt><trkpt lat="44.2680006" lon="11.7501794"><ele>85.0</ele><time>2026-04-25T11:14:02.103Z</time></trkpt><trkpt lat="44.2680623" lon="11.7502084"><ele>85.0</ele><time>2026-04-25T11:14:05.06Z</time></trkpt><trkpt lat="44.2681336" lon="11.7502391"><ele>85.0</ele><time>2026-04-25T11:14:09.08Z</time></trkpt><trkpt lat="44.2682083" lon="11.7502754"><ele>85.0</ele><time>2026-04-25T11:14:13.141Z</time></trkpt><trkpt lat="44.2682861" lon="11.7503041"><ele>85.0</ele><time>2026-04-25T11:14:17.105Z</time></trkpt><trkpt lat="44.2683627" lon="11.750331"><ele>85.0</ele><time>2026-04-25T11:14:21.071Z</time></trkpt><trkpt lat="44.2684299" lon="11.750353"><ele>85.0</ele><time>2026-04-25T11:14:24.084Z</time></trkpt><trkpt lat="44.2685115" lon="11.7503945"><ele>85.0</ele><time>2026-04-25T11:14:27.969Z</time></trkpt><trkpt lat="44.2685842" lon="11.750426"><ele>85.0</ele><time>2026-04-25T11:14:31.126Z</time></trkpt><trkpt lat="44.2686468" lon="11.7504504"><ele>85.0</ele><time>2026-04-25T11:14:34.106Z</time></trkpt><trkpt lat="44.2687109" lon="11.7504881"><ele>85.0</ele><time>2026-04-25T11:14:37.168Z</time></trkpt><trkpt lat="44.2687662" lon="11.7505333"><ele>85.0</ele><time>2026-04-25T11:14:40.076Z</time></trkpt><trkpt lat="44.2688122" lon="11.750597"><ele>85.0</ele><time>2026-04-25T11:14:43.114Z</time></trkpt><trkpt lat="44.2688081" lon="11.7507103"><ele>85.0</ele><time>2026-04-25T11:14:47.086Z</time></trkpt><trkpt lat="44.2687862" lon="11.750804"><ele>85.0</ele><time>2026-04-25T11:14:50.084Z</time></trkpt><trkpt lat="44.2687556" lon="11.7508862"><ele>85.0</ele><time>2026-04-25T11:14:54.158Z</time></trkpt><trkpt lat="44.2687262" lon="11.7509877"><ele>84.83333333333333</ele><time>2026-04-25T11:14:58.025Z</time></trkpt><trkpt lat="44.2686838" lon="11.7510859"><ele>84.66666666666666</ele><time>2026-04-25T11:15:02.104Z</time></trkpt><trkpt lat="44.2686498" lon="11.7511638"><ele>84.5</ele><time>2026-04-25T11:15:05.091Z</time></trkpt><trkpt lat="44.2686105" lon="11.7512592"><ele>84.33333333333333</ele><time>2026-04-25T11:15:09.068Z</time></trkpt><trkpt lat="44.2685698" lon="11.7513529"><ele>84.16666666666667</ele><time>2026-04-25T11:15:13.092Z</time></trkpt><trkpt lat="44.2685306" lon="11.7514273"><ele>84.0</ele><time>2026-04-25T11:15:17.054Z</time></trkpt><trkpt lat="44.268483" lon="11.7515229"><ele>84.0</ele><time>2026-04-25T11:15:21.124Z</time></trkpt><trkpt lat="44.2684482" lon="11.7516209"><ele>84.0</ele><time>2026-04-25T11:15:25.097Z</time></trkpt><trkpt lat="44.2684244" lon="11.7517107"><ele>84.0</ele><time>2026-04-25T11:15:28.124Z</time></trkpt><trkpt lat="44.2683874" lon="11.7517987"><ele>84.0</ele><time>2026-04-25T11:15:31.07Z</time></trkpt><trkpt lat="44.2683426" lon="11.751886"><ele>84.0</ele><time>2026-04-25T11:15:34.104Z</time></trkpt><trkpt lat="44.2683048" lon="11.7519662"><ele>84.0</ele><time>2026-04-25T11:15:37.007Z</time></trkpt><trkpt lat="44.2682613" lon="11.7520425"><ele>84.0</ele><time>2026-04-25T11:15:40.108Z</time></trkpt><trkpt lat="44.2682124" lon="11.752156"><ele>83.85714285714286</ele><time>2026-04-25T11:15:44.127Z</time></trkpt><trkpt lat="44.2681736" lon="11.7522563"><ele>83.71428571428572</ele><time>2026-04-25T11:15:48.003Z</time></trkpt><trkpt lat="44.2681477" lon="11.7523425"><ele>83.57142857142857</ele><time>2026-04-25T11:15:51.11Z</time></trkpt><trkpt lat="44.2681086" lon="11.752437"><ele>83.42857142857143</ele><time>2026-04-25T11:15:55.112Z</time></trkpt><trkpt lat="44.2680823" lon="11.7525241"><ele>83.28571428571429</ele><time>2026-04-25T11:15:59.124Z</time></trkpt><trkpt lat="44.2680685" lon="11.7526299"><ele>83.14285714285714</ele><time>2026-04-25T11:16:03.101Z</time></trkpt><trkpt lat="44.2680634" lon="11.7527353"><ele>83.0</ele><time>2026-04-25T11:16:07.126Z</time></trkpt><trkpt lat="44.2680559" lon="11.7528359"><ele>82.71428571428571</ele><time>2026-04-25T11:16:11.084Z</time></trkpt><trkpt lat="44.2680444" lon="11.7529496"><ele>82.42857142857143</ele><time>2026-04-25T11:16:15.048Z</time></trkpt><trkpt lat="44.2680338" lon="11.7530368"><ele>82.14285714285714</ele><time>2026-04-25T11:16:18.067Z</time></trkpt><trkpt lat="44.2680126" lon="11.7531505"><ele>81.85714285714286</ele><time>2026-04-25T11:16:22.12Z</time></trkpt><trkpt lat="44.2679997" lon="11.7532403"><ele>81.57142857142857</ele><time>2026-04-25T11:16:24.989Z</time></trkpt><trkpt lat="44.2679914" lon="11.7533335"><ele>81.28571428571429</ele><time>2026-04-25T11:16:29.115Z</time></trkpt><trkpt lat="44.2679821" lon="11.7534316"><ele>81.0</ele><time>2026-04-25T11:16:33.103Z</time></trkpt><trkpt lat="44.2679709" lon="11.7535504"><ele>80.83333333333333</ele><time>2026-04-25T11:16:37.083Z</time></trkpt><trkpt lat="44.2679585" lon="11.7536609"><ele>80.66666666666667</ele><time>2026-04-25T11:16:42.07Z</time></trkpt><trkpt lat="44.2679479" lon="11.7537597"><ele>80.5</ele><time>2026-04-25T11:16:46.07Z</time></trkpt><trkpt lat="44.2679378" lon="11.7538708"><ele>80.33333333333334</ele><time>2026-04-25T11:16:50.101Z</time></trkpt><trkpt lat="44.2679225" lon="11.7539821"><ele>80.16666666666667</ele><time>2026-04-25T11:16:54.1Z</time></trkpt><trkpt lat="44.2679089" lon="11.7540934"><ele>80.0</ele><time>2026-04-25T11:16:58.101Z</time></trkpt><trkpt lat="44.267895" lon="11.7541958"><ele>80.0</ele><time>2026-04-25T11:17:02.074Z</time></trkpt><trkpt lat="44.2678805" lon="11.7543044"><ele>80.0</ele><time>2026-04-25T11:17:06.107Z</time></trkpt><trkpt lat="44.267872" lon="11.7544124"><ele>80.0</ele><time>2026-04-25T11:17:10.024Z</time></trkpt><trkpt lat="44.2678657" lon="11.7545135"><ele>80.0</ele><time>2026-04-25T11:17:14.107Z</time></trkpt><trkpt lat="44.2678618" lon="11.7546017"><ele>80.0</ele><time>2026-04-25T11:17:17.079Z</time></trkpt><trkpt lat="44.2678584" lon="11.7546926"><ele>80.0</ele><time>2026-04-25T11:17:20.102Z</time></trkpt><trkpt lat="44.2678455" lon="11.7547926"><ele>80.0</ele><time>2026-04-25T11:17:24.107Z</time></trkpt><trkpt lat="44.267828" lon="11.7548837"><ele>80.0</ele><time>2026-04-25T11:17:27.805Z</time></trkpt><trkpt lat="44.2678196" lon="11.7549762"><ele>80.0</ele><time>2026-04-25T11:17:31.041Z</time></trkpt><trkpt lat="44.2678202" lon="11.755094"><ele>80.0</ele><time>2026-04-25T11:17:35.089Z</time></trkpt><trkpt lat="44.2678279" lon="11.755187"><ele>80.0</ele><time>2026-04-25T11:17:38.148Z</time></trkpt><trkpt lat="44.2678396" lon="11.755298"><ele>80.0</ele><time>2026-04-25T11:17:42.07Z</time></trkpt><trkpt lat="44.2678605" lon="11.7553985"><ele>80.0</ele><time>2026-04-25T11:17:46.009Z</time></trkpt><trkpt lat="44.2678816" lon="11.7555048"><ele>79.83333333333334</ele><time>2026-04-25T11:17:50.094Z</time></trkpt><trkpt lat="44.2678968" lon="11.7556145"><ele>79.66666666666667</ele><time>2026-04-25T11:17:54.09Z</time></trkpt><trkpt lat="44.2679061" lon="11.7557115"><ele>79.5</ele><time>2026-04-25T11:17:57.081Z</time></trkpt><trkpt lat="44.2679065" lon="11.7558185"><ele>79.33333333333333</ele><time>2026-04-25T11:18:01.032Z</time></trkpt><trkpt lat="44.2679067" lon="11.7559212"><ele>79.16666666666666</ele><time>2026-04-25T11:18:05.104Z</time></trkpt><trkpt lat="44.2679049" lon="11.7560366"><ele>79.0</ele><time>2026-04-25T11:18:09.1Z</time></trkpt><trkpt lat="44.2679007" lon="11.7561419"><ele>77.66666666666666</ele><time>2026-04-25T11:18:13.067Z</time></trkpt><trkpt lat="44.2678955" lon="11.7562616"><ele>76.33333333333333</ele><time>2026-04-25T11:18:17.121Z</time></trkpt><trkpt lat="44.2678829" lon="11.7563718"><ele>75.0</ele><time>2026-04-25T11:18:21.006Z</time></trkpt><trkpt lat="44.2678857" lon="11.7564827"><ele>73.66666666666667</ele><time>2026-04-25T11:18:25.069Z</time></trkpt><trkpt lat="44.2679042" lon="11.756589"><ele>72.33333333333334</ele><time>2026-04-25T11:18:29.03Z</time></trkpt><trkpt lat="44.2679209" lon="11.7566744"><ele>71.0</ele><time>2026-04-25T11:18:32.086Z</time></trkpt><trkpt lat="44.2679321" lon="11.7567616"><ele>71.0</ele><time>2026-04-25T11:18:34.96Z</time></trkpt><trkpt lat="44.2679382" lon="11.756865"><ele>71.0</ele><time>2026-04-25T11:18:38.084Z</time></trkpt><trkpt lat="44.2679433" lon="11.7569569"><ele>71.0</ele><time>2026-04-25T11:18:41.028Z</time></trkpt><trkpt lat="44.2679457" lon="11.7570505"><ele>71.0</ele><time>2026-04-25T11:18:44.08Z</time></trkpt><trkpt lat="44.2679512" lon="11.7571389"><ele>71.0</ele><time>2026-04-25T11:18:46.976Z</time></trkpt><trkpt lat="44.2679541" lon="11.7572329"><ele>71.0</ele><time>2026-04-25T11:18:50.067Z</time></trkpt><trkpt lat="44.2679508" lon="11.757332"><ele>71.0</ele><time>2026-04-25T11:18:53.074Z</time></trkpt><trkpt lat="44.2679411" lon="11.7574198"><ele>69.85714285714286</ele><time>2026-04-25T11:18:55.93Z</time></trkpt><trkpt lat="44.2679338" lon="11.7575309"><ele>68.71428571428571</ele><time>2026-04-25T11:18:59.096Z</time></trkpt><trkpt lat="44.2679374" lon="11.7576297"><ele>67.57142857142857</ele><time>2026-04-25T11:19:02.1Z</time></trkpt><trkpt lat="44.2679409" lon="11.7577258"><ele>66.42857142857143</ele><time>2026-04-25T11:19:05.077Z</time></trkpt><trkpt lat="44.2679361" lon="11.7578237"><ele>65.28571428571428</ele><time>2026-04-25T11:19:08.087Z</time></trkpt><trkpt lat="44.2679438" lon="11.7579161"><ele>64.14285714285714</ele><time>2026-04-25T11:19:12.093Z</time></trkpt><trkpt lat="44.2679434" lon="11.7580139"><ele>63.0</ele><time>2026-04-25T11:19:16.093Z</time></trkpt><trkpt lat="44.2679205" lon="11.7581054"><ele>62.714285714285715</ele><time>2026-04-25T11:19:19.081Z</time></trkpt><trkpt lat="44.2678934" lon="11.7582034"><ele>62.42857142857143</ele><time>2026-04-25T11:19:22.087Z</time></trkpt><trkpt lat="44.2678719" lon="11.7583016"><ele>62.14285714285714</ele><time>2026-04-25T11:19:25.102Z</time></trkpt><trkpt lat="44.2678579" lon="11.7584029"><ele>61.857142857142854</ele><time>2026-04-25T11:19:28.105Z</time></trkpt><trkpt lat="44.2678488" lon="11.7584995"><ele>61.57142857142857</ele><time>2026-04-25T11:19:30.964Z</time></trkpt><trkpt lat="44.2678204" lon="11.7585935"><ele>61.28571428571428</ele><time>2026-04-25T11:19:34.095Z</time></trkpt><trkpt lat="44.2677882" lon="11.7586807"><ele>60.99999999999999</ele><time>2026-04-25T11:19:36.986Z</time></trkpt><trkpt lat="44.2677361" lon="11.7587775"><ele>60.85714285714285</ele><time>2026-04-25T11:19:40.088Z</time></trkpt><trkpt lat="44.2676918" lon="11.7588629"><ele>60.71428571428571</ele><time>2026-04-25T11:19:43.065Z</time></trkpt><trkpt lat="44.2676514" lon="11.7589472"><ele>60.57142857142857</ele><time>2026-04-25T11:19:46.129Z</time></trkpt><trkpt lat="44.2676191" lon="11.7590291"><ele>60.42857142857142</ele><time>2026-04-25T11:19:49.071Z</time></trkpt><trkpt lat="44.26759" lon="11.759135"><ele>60.28571428571428</ele><time>2026-04-25T11:19:52.123Z</time></trkpt><trkpt lat="44.2675741" lon="11.7592329"><ele>60.142857142857146</ele><time>2026-04-25T11:19:55.081Z</time></trkpt><trkpt lat="44.2675672" lon="11.75933"><ele>60.0</ele><time>2026-04-25T11:19:58.043Z</time></trkpt><trkpt lat="44.2675815" lon="11.7594244"><ele>59.57142857142857</ele><time>2026-04-25T11:20:01.083Z</time></trkpt><trkpt lat="44.2676027" lon="11.7595214"><ele>59.14285714285714</ele><time>2026-04-25T11:20:04.093Z</time></trkpt><trkpt lat="44.2676253" lon="11.7596196"><ele>58.71428571428571</ele><time>2026-04-25T11:20:07.021Z</time></trkpt><trkpt lat="44.2676524" lon="11.7597308"><ele>58.285714285714285</ele><time>2026-04-25T11:20:10.111Z</time></trkpt><trkpt lat="44.2676779" lon="11.7598338"><ele>57.85714285714285</ele><time>2026-04-25T11:20:13.145Z</time></trkpt><trkpt lat="44.2676963" lon="11.7599274"><ele>57.42857142857142</ele><time>2026-04-25T11:20:16.093Z</time></trkpt><trkpt lat="44.2677171" lon="11.7600222"><ele>57.0</ele><time>2026-04-25T11:20:19.11Z</time></trkpt><trkpt lat="44.2677343" lon="11.7601251"><ele>57.0</ele><time>2026-04-25T11:20:22.984Z</time></trkpt><trkpt lat="44.2677566" lon="11.7602128"><ele>56.99999999999999</ele><time>2026-04-25T11:20:26.121Z</time></trkpt><trkpt lat="44.2677829" lon="11.7603154"><ele>57.0</ele><time>2026-04-25T11:20:30.098Z</time></trkpt><trkpt lat="44.2678053" lon="11.7603994"><ele>57.0</ele><time>2026-04-25T11:20:33.072Z</time></trkpt><trkpt lat="44.2678201" lon="11.7604917"><ele>56.99999999999999</ele><time>2026-04-25T11:20:36.08Z</time></trkpt><trkpt lat="44.2678378" lon="11.7605805"><ele>57.0</ele><time>2026-04-25T11:20:39.074Z</time></trkpt><trkpt lat="44.2678565" lon="11.7606762"><ele>57.0</ele><time>2026-04-25T11:20:42.07Z</time></trkpt><trkpt lat="44.2678707" lon="11.7607663"><ele>57.0</ele><time>2026-04-25T11:20:45.094Z</time></trkpt><trkpt lat="44.2678884" lon="11.7608537"><ele>56.99999999999999</ele><time>2026-04-25T11:20:47.99Z</time></trkpt><trkpt lat="44.2679051" lon="11.760941"><ele>57.0</ele><time>2026-04-25T11:20:51.08Z</time></trkpt><trkpt lat="44.2679316" lon="11.7610616"><ele>57.0</ele><time>2026-04-25T11:20:55.121Z</time></trkpt><trkpt lat="44.26796" lon="11.7611565"><ele>56.99999999999999</ele><time>2026-04-25T11:21:00.087Z</time></trkpt><trkpt lat="44.2679856" lon="11.7612523"><ele>57.0</ele><time>2026-04-25T11:21:06.109Z</time></trkpt><trkpt lat="44.2680072" lon="11.761336"><ele>57.0</ele><time>2026-04-25T11:21:11.085Z</time></trkpt><trkpt lat="44.2680374" lon="11.7614202"><ele>57.57142857142857</ele><time>2026-04-25T11:21:17.054Z</time></trkpt><trkpt lat="44.2680763" lon="11.761492"><ele>58.14285714285714</ele><time>2026-04-25T11:21:23.097Z</time></trkpt><trkpt lat="44.2681173" lon="11.7615803"><ele>58.71428571428571</ele><time>2026-04-25T11:21:29.086Z</time></trkpt><trkpt lat="44.2681624" lon="11.761659"><ele>59.28571428571428</ele><time>2026-04-25T11:21:35.077Z</time></trkpt><trkpt lat="44.2682069" lon="11.7617251"><ele>59.857142857142854</ele><time>2026-04-25T11:21:40.088Z</time></trkpt><trkpt lat="44.268264" lon="11.7617954"><ele>60.428571428571416</ele><time>2026-04-25T11:21:46.077Z</time></trkpt><trkpt lat="44.2683137" lon="11.7618584"><ele>60.99999999999999</ele><time>2026-04-25T11:21:51.068Z</time></trkpt><trkpt lat="44.2683703" lon="11.7619118"><ele>63.28571428571428</ele><time>2026-04-25T11:21:56.092Z</time></trkpt><trkpt lat="44.2684246" lon="11.7619734"><ele>65.57142857142857</ele><time>2026-04-25T11:22:02.109Z</time></trkpt><trkpt lat="44.2684752" lon="11.7620322"><ele>67.85714285714286</ele><time>2026-04-25T11:22:07.098Z</time></trkpt><trkpt lat="44.268532" lon="11.7620792"><ele>70.14285714285714</ele><time>2026-04-25T11:22:12.112Z</time></trkpt><trkpt lat="44.2685906" lon="11.7621412"><ele>72.42857142857143</ele><time>2026-04-25T11:22:18.092Z</time></trkpt><trkpt lat="44.2686522" lon="11.7621979"><ele>74.71428571428571</ele><time>2026-04-25T11:22:23.969Z</time></trkpt><trkpt lat="44.2687113" lon="11.7622409"><ele>77.0</ele><time>2026-04-25T11:22:28.985Z</time></trkpt><trkpt lat="44.268779" lon="11.7622987"><ele>77.0</ele><time>2026-04-25T11:22:35.05Z</time></trkpt><trkpt lat="44.2688313" lon="11.7623658"><ele>77.0</ele><time>2026-04-25T11:22:42.072Z</time></trkpt><trkpt lat="44.2688888" lon="11.7624099"><ele>77.0</ele><time>2026-04-25T11:22:47.082Z</time></trkpt><trkpt lat="44.2689622" lon="11.7624369"><ele>77.0</ele><time>2026-04-25T11:22:52.054Z</time></trkpt><trkpt lat="44.2690357" lon="11.762449"><ele>77.0</ele><time>2026-04-25T11:22:56.057Z</time></trkpt><trkpt lat="44.2691021" lon="11.7624665"><ele>77.0</ele><time>2026-04-25T11:23:00.117Z</time></trkpt><trkpt lat="44.2691637" lon="11.7625015"><ele>77.0</ele><time>2026-04-25T11:23:05.109Z</time></trkpt><trkpt lat="44.2692271" lon="11.7625367"><ele>77.85714285714286</ele><time>2026-04-25T11:23:10.139Z</time></trkpt><trkpt lat="44.2692853" lon="11.7625928"><ele>78.71428571428572</ele><time>2026-04-25T11:23:16.083Z</time></trkpt><trkpt lat="44.2693415" lon="11.7626519"><ele>79.57142857142857</ele><time>2026-04-25T11:23:23.083Z</time></trkpt><trkpt lat="44.2694016" lon="11.7627157"><ele>80.42857142857143</ele><time>2026-04-25T11:23:29.043Z</time></trkpt><trkpt lat="44.2694504" lon="11.7627733"><ele>81.28571428571429</ele><time>2026-04-25T11:23:34.084Z</time></trkpt><trkpt lat="44.2695044" lon="11.7628413"><ele>82.14285714285714</ele><time>2026-04-25T11:23:39.118Z</time></trkpt><trkpt lat="44.2695599" lon="11.762897"><ele>83.0</ele><time>2026-04-25T11:23:44.123Z</time></trkpt><trkpt lat="44.2696191" lon="11.7629501"><ele>83.0</ele><time>2026-04-25T11:23:49.105Z</time></trkpt><trkpt lat="44.2696854" lon="11.7630047"><ele>83.0</ele><time>2026-04-25T11:23:55.086Z</time></trkpt><trkpt lat="44.2697489" lon="11.7630367"><ele>83.0</ele><time>2026-04-25T11:24:00.079Z</time></trkpt><trkpt lat="44.2698171" lon="11.7630756"><ele>83.0</ele><time>2026-04-25T11:24:06.074Z</time></trkpt><trkpt lat="44.2698778" lon="11.7631223"><ele>83.0</ele><time>2026-04-25T11:24:10.144Z</time></trkpt><trkpt lat="44.269936" lon="11.7631785"><ele>83.0</ele><time>2026-04-25T11:24:12.988Z</time></trkpt><trkpt lat="44.2700109" lon="11.7632292"><ele>83.0</ele><time>2026-04-25T11:24:16.069Z</time></trkpt><trkpt lat="44.2700811" lon="11.7632785"><ele>81.85714285714285</ele><time>2026-04-25T11:24:19.06Z</time></trkpt><trkpt lat="44.2701438" lon="11.7633395"><ele>80.71428571428572</ele><time>2026-04-25T11:24:22.028Z</time></trkpt><trkpt lat="44.2702089" lon="11.7633971"><ele>79.57142857142857</ele><time>2026-04-25T11:24:25.085Z</time></trkpt><trkpt lat="44.2702668" lon="11.763453"><ele>78.42857142857142</ele><time>2026-04-25T11:24:28.063Z</time></trkpt><trkpt lat="44.2703246" lon="11.7635122"><ele>77.28571428571428</ele><time>2026-04-25T11:24:31.101Z</time></trkpt><trkpt lat="44.2703734" lon="11.7635705"><ele>76.14285714285714</ele><time>2026-04-25T11:24:34.103Z</time></trkpt><trkpt lat="44.2704387" lon="11.7636409"><ele>75.0</ele><time>2026-04-25T11:24:38.071Z</time></trkpt><trkpt lat="44.2705165" lon="11.7637002"><ele>75.0</ele><time>2026-04-25T11:24:42.084Z</time></trkpt><trkpt lat="44.2705819" lon="11.7637425"><ele>75.0</ele><time>2026-04-25T11:24:45.084Z</time></trkpt><trkpt lat="44.2706554" lon="11.7637795"><ele>75.0</ele><time>2026-04-25T11:24:48.084Z</time></trkpt><trkpt lat="44.2707305" lon="11.763824"><ele>75.0</ele><time>2026-04-25T11:24:51.072Z</time></trkpt><trkpt lat="44.2707988" lon="11.7638632"><ele>75.0</ele><time>2026-04-25T11:24:54.042Z</time></trkpt><trkpt lat="44.2708594" lon="11.7638956"><ele>75.0</ele><time>2026-04-25T11:24:57.083Z</time></trkpt><trkpt lat="44.2709314" lon="11.763943"><ele>73.57142857142857</ele><time>2026-04-25T11:25:01.022Z</time></trkpt><trkpt lat="44.2709935" lon="11.7639747"><ele>72.14285714285714</ele><time>2026-04-25T11:25:04.075Z</time></trkpt><trkpt lat="44.2710599" lon="11.7639993"><ele>70.71428571428572</ele><time>2026-04-25T11:25:07.074Z</time></trkpt><trkpt lat="44.2711251" lon="11.76402"><ele>69.28571428571428</ele><time>2026-04-25T11:25:10.102Z</time></trkpt><trkpt lat="44.2711895" lon="11.7640398"><ele>67.85714285714286</ele><time>2026-04-25T11:25:13.1Z</time></trkpt><trkpt lat="44.2712517" lon="11.764054"><ele>66.42857142857143</ele><time>2026-04-25T11:25:16.116Z</time></trkpt><trkpt lat="44.271331" lon="11.764071"><ele>65.0</ele><time>2026-04-25T11:25:20.099Z</time></trkpt><trkpt lat="44.2713944" lon="11.7640821"><ele>64.00000000000001</ele><time>2026-04-25T11:25:23.08Z</time></trkpt><trkpt lat="44.2714746" lon="11.7641031"><ele>63.0</ele><time>2026-04-25T11:25:27.06Z</time></trkpt><trkpt lat="44.2715372" lon="11.7641192"><ele>62.00000000000001</ele><time>2026-04-25T11:25:30.117Z</time></trkpt><trkpt lat="44.2716203" lon="11.764134"><ele>61.00000000000001</ele><time>2026-04-25T11:25:34.001Z</time></trkpt><trkpt lat="44.2716929" lon="11.7641403"><ele>60.0</ele><time>2026-04-25T11:25:37.079Z</time></trkpt><trkpt lat="44.2717635" lon="11.7641467"><ele>59.00000000000001</ele><time>2026-04-25T11:25:40.088Z</time></trkpt><trkpt lat="44.2718327" lon="11.7641637"><ele>58.00000000000001</ele><time>2026-04-25T11:25:43.082Z</time></trkpt><trkpt lat="44.2719098" lon="11.7641833"><ele>58.00000000000001</ele><time>2026-04-25T11:25:46.098Z</time></trkpt><trkpt lat="44.271986" lon="11.7641999"><ele>58.0</ele><time>2026-04-25T11:25:49.118Z</time></trkpt><trkpt lat="44.2720596" lon="11.7642168"><ele>58.00000000000001</ele><time>2026-04-25T11:25:52.071Z</time></trkpt><trkpt lat="44.2721281" lon="11.7642478"><ele>58.00000000000001</ele><time>2026-04-25T11:25:55.072Z</time></trkpt><trkpt lat="44.2721921" lon="11.7642851"><ele>58.0</ele><time>2026-04-25T11:25:58.085Z</time></trkpt><trkpt lat="44.27226" lon="11.7643289"><ele>58.00000000000001</ele><time>2026-04-25T11:26:01.084Z</time></trkpt><trkpt lat="44.2723194" lon="11.7643731"><ele>58.00000000000001</ele><time>2026-04-25T11:26:04.111Z</time></trkpt><trkpt lat="44.2723734" lon="11.7644289"><ele>57.57142857142858</ele><time>2026-04-25T11:26:07.087Z</time></trkpt><trkpt lat="44.2724322" lon="11.7644906"><ele>57.142857142857146</ele><time>2026-04-25T11:26:10.056Z</time></trkpt><trkpt lat="44.2724864" lon="11.7645588"><ele>56.714285714285715</ele><time>2026-04-25T11:26:13.1Z</time></trkpt><trkpt lat="44.2725382" lon="11.764614"><ele>56.28571428571429</ele><time>2026-04-25T11:26:16.099Z</time></trkpt><trkpt lat="44.2725905" lon="11.7646727"><ele>55.85714285714286</ele><time>2026-04-25T11:26:19.095Z</time></trkpt><trkpt lat="44.2726586" lon="11.7647479"><ele>55.42857142857142</ele><time>2026-04-25T11:26:23.1Z</time></trkpt><trkpt lat="44.2727271" lon="11.764812"><ele>55.0</ele><time>2026-04-25T11:26:27.081Z</time></trkpt><trkpt lat="44.2727784" lon="11.7648675"><ele>54.99999999999999</ele><time>2026-04-25T11:26:30.094Z</time></trkpt><trkpt lat="44.2728385" lon="11.7649398"><ele>55.0</ele><time>2026-04-25T11:26:34.079Z</time></trkpt><trkpt lat="44.272889" lon="11.7650023"><ele>55.0</ele><time>2026-04-25T11:26:37.154Z</time></trkpt><trkpt lat="44.2729489" lon="11.7650743"><ele>55.0</ele><time>2026-04-25T11:26:41.094Z</time></trkpt><trkpt lat="44.2730019" lon="11.7651283"><ele>55.0</ele><time>2026-04-25T11:26:44.112Z</time></trkpt><trkpt lat="44.2730606" lon="11.7652036"><ele>54.99999999999999</ele><time>2026-04-25T11:26:48.041Z</time></trkpt><trkpt lat="44.2731142" lon="11.7652722"><ele>55.0</ele><time>2026-04-25T11:26:51.984Z</time></trkpt><trkpt lat="44.2731669" lon="11.7653263"><ele>54.99999999999999</ele><time>2026-04-25T11:26:55.096Z</time></trkpt><trkpt lat="44.2732282" lon="11.7653957"><ele>55.0</ele><time>2026-04-25T11:26:59.1Z</time></trkpt><trkpt lat="44.2732948" lon="11.765466"><ele>55.0</ele><time>2026-04-25T11:27:03.082Z</time></trkpt><trkpt lat="44.273344" lon="11.7655218"><ele>55.0</ele><time>2026-04-25T11:27:06.119Z</time></trkpt><trkpt lat="44.2733972" lon="11.7656085"><ele>54.99999999999999</ele><time>2026-04-25T11:27:10.068Z</time></trkpt><trkpt lat="44.2734424" lon="11.7656847"><ele>55.0</ele><time>2026-04-25T11:27:14.074Z</time></trkpt><trkpt lat="44.2734717" lon="11.7657775"><ele>54.99999999999999</ele><time>2026-04-25T11:27:20.12Z</time></trkpt><trkpt lat="44.2734903" lon="11.7658843"><ele>55.0</ele><time>2026-04-25T11:27:26.123Z</time></trkpt><trkpt lat="44.2735115" lon="11.7659754"><ele>55.0</ele><time>2026-04-25T11:27:31.07Z</time></trkpt><trkpt lat="44.2735167" lon="11.76607"><ele>55.0</ele><time>2026-04-25T11:27:36.111Z</time></trkpt><trkpt lat="44.2735084" lon="11.7661681"><ele>55.0</ele><time>2026-04-25T11:27:42.09Z</time></trkpt><trkpt lat="44.2735003" lon="11.7662565"><ele>54.99999999999999</ele><time>2026-04-25T11:27:47.09Z</time></trkpt><trkpt lat="44.2734928" lon="11.7663516"><ele>55.0</ele><time>2026-04-25T11:27:52.068Z</time></trkpt><trkpt lat="44.2734826" lon="11.7664581"><ele>55.28571428571428</ele><time>2026-04-25T11:27:58.061Z</time></trkpt><trkpt lat="44.2734803" lon="11.7665624"><ele>55.57142857142857</ele><time>2026-04-25T11:28:04.093Z</time></trkpt><trkpt lat="44.2734894" lon="11.7666535"><ele>55.857142857142854</ele><time>2026-04-25T11:28:09.087Z</time></trkpt><trkpt lat="44.2735194" lon="11.7667389"><ele>56.14285714285714</ele><time>2026-04-25T11:28:15.091Z</time></trkpt><trkpt lat="44.2735628" lon="11.7668188"><ele>56.42857142857142</ele><time>2026-04-25T11:28:21.103Z</time></trkpt><trkpt lat="44.2736128" lon="11.7668995"><ele>56.71428571428571</ele><time>2026-04-25T11:28:27.095Z</time></trkpt><trkpt lat="44.2736674" lon="11.766976"><ele>57.0</ele><time>2026-04-25T11:28:33.094Z</time></trkpt><trkpt lat="44.2737137" lon="11.7670404"><ele>57.14285714285714</ele><time>2026-04-25T11:28:38.113Z</time></trkpt><trkpt lat="44.2737661" lon="11.7671068"><ele>57.28571428571428</ele><time>2026-04-25T11:28:43.117Z</time></trkpt><trkpt lat="44.2738198" lon="11.7671681"><ele>57.42857142857143</ele><time>2026-04-25T11:28:48.028Z</time></trkpt><trkpt lat="44.2738652" lon="11.767234"><ele>57.57142857142857</ele><time>2026-04-25T11:28:53.111Z</time></trkpt><trkpt lat="44.2739139" lon="11.7673009"><ele>57.714285714285715</ele><time>2026-04-25T11:28:58.084Z</time></trkpt><trkpt lat="44.2739605" lon="11.7673652"><ele>57.85714285714286</ele><time>2026-04-25T11:29:03.023Z</time></trkpt><trkpt lat="44.274015" lon="11.7674395"><ele>58.00000000000001</ele><time>2026-04-25T11:29:09.119Z</time></trkpt><trkpt lat="44.2740656" lon="11.7675036"><ele>58.00000000000001</ele><time>2026-04-25T11:29:14.067Z</time></trkpt><trkpt lat="44.2741219" lon="11.7675734"><ele>58.0</ele><time>2026-04-25T11:29:20.092Z</time></trkpt><trkpt lat="44.2741813" lon="11.7676262"><ele>58.00000000000001</ele><time>2026-04-25T11:29:25.093Z</time></trkpt><trkpt lat="44.2742404" lon="11.7676841"><ele>58.00000000000001</ele><time>2026-04-25T11:29:30.083Z</time></trkpt><trkpt lat="44.2742916" lon="11.7677382"><ele>58.0</ele><time>2026-04-25T11:29:35.068Z</time></trkpt><trkpt lat="44.2743469" lon="11.7677985"><ele>58.00000000000001</ele><time>2026-04-25T11:29:40.089Z</time></trkpt><trkpt lat="44.2743947" lon="11.7678627"><ele>58.00000000000001</ele><time>2026-04-25T11:29:45.088Z</time></trkpt><trkpt lat="44.2744464" lon="11.7679183"><ele>58.71428571428572</ele><time>2026-04-25T11:29:50.062Z</time></trkpt><trkpt lat="44.2745038" lon="11.7679721"><ele>59.42857142857143</ele><time>2026-04-25T11:29:55.081Z</time></trkpt><trkpt lat="44.2745726" lon="11.7680379"><ele>60.142857142857146</ele><time>2026-04-25T11:30:00.072Z</time></trkpt><trkpt lat="44.2746253" lon="11.76809"><ele>60.85714285714286</ele><time>2026-04-25T11:30:03.09Z</time></trkpt><trkpt lat="44.2746905" lon="11.7681528"><ele>61.57142857142857</ele><time>2026-04-25T11:30:07.079Z</time></trkpt><trkpt lat="44.2747459" lon="11.7682166"><ele>62.285714285714285</ele><time>2026-04-25T11:30:11.082Z</time></trkpt><trkpt lat="44.2747932" lon="11.7682793"><ele>63.0</ele><time>2026-04-25T11:30:14.118Z</time></trkpt><trkpt lat="44.2748411" lon="11.7683364"><ele>63.0</ele><time>2026-04-25T11:30:17.057Z</time></trkpt><trkpt lat="44.2749018" lon="11.7684017"><ele>63.0</ele><time>2026-04-25T11:30:21.101Z</time></trkpt><trkpt lat="44.2749721" lon="11.7684428"><ele>63.0</ele><time>2026-04-25T11:30:25.072Z</time></trkpt><trkpt lat="44.2750483" lon="11.7684805"><ele>63.0</ele><time>2026-04-25T11:30:29.055Z</time></trkpt><trkpt lat="44.2751153" lon="11.76853"><ele>63.0</ele><time>2026-04-25T11:30:33.084Z</time></trkpt><trkpt lat="44.2751834" lon="11.7685611"><ele>63.0</ele><time>2026-04-25T11:30:37.088Z</time></trkpt><trkpt lat="44.2752555" lon="11.7685922"><ele>63.57142857142857</ele><time>2026-04-25T11:30:41.082Z</time></trkpt><trkpt lat="44.275329" lon="11.7685897"><ele>64.14285714285714</ele><time>2026-04-25T11:30:47.075Z</time></trkpt><trkpt lat="44.2753992" lon="11.7686039"><ele>64.71428571428572</ele><time>2026-04-25T11:30:52.084Z</time></trkpt><trkpt lat="44.2754672" lon="11.7686155"><ele>65.28571428571428</ele><time>2026-04-25T11:30:57.081Z</time></trkpt><trkpt lat="44.2755324" lon="11.7686338"><ele>65.85714285714286</ele><time>2026-04-25T11:31:02.099Z</time></trkpt><trkpt lat="44.2755999" lon="11.7686488"><ele>66.42857142857143</ele><time>2026-04-25T11:31:07.088Z</time></trkpt><trkpt lat="44.2756632" lon="11.7686768"><ele>67.0</ele><time>2026-04-25T11:31:12.103Z</time></trkpt><trkpt lat="44.2757227" lon="11.7687074"><ele>67.0</ele><time>2026-04-25T11:31:17.001Z</time></trkpt><trkpt lat="44.2757888" lon="11.7687352"><ele>67.0</ele><time>2026-04-25T11:31:21.997Z</time></trkpt><trkpt lat="44.2758572" lon="11.7687832"><ele>67.0</ele><time>2026-04-25T11:31:26.987Z</time></trkpt><trkpt lat="44.2759171" lon="11.7688206"><ele>67.0</ele><time>2026-04-25T11:31:31.895Z</time></trkpt><trkpt lat="44.2759743" lon="11.7688626"><ele>67.0</ele><time>2026-04-25T11:31:36.8Z</time></trkpt><trkpt lat="44.2760336" lon="11.7689134"><ele>67.0</ele><time>2026-04-25T11:31:42.083Z</time></trkpt><trkpt lat="44.2760927" lon="11.7689579"><ele>67.0</ele><time>2026-04-25T11:31:47.094Z</time></trkpt><trkpt lat="44.2761499" lon="11.7690053"><ele>67.0</ele><time>2026-04-25T11:31:52.093Z</time></trkpt><trkpt lat="44.2762009" lon="11.7690616"><ele>67.0</ele><time>2026-04-25T11:31:57.036Z</time></trkpt><trkpt lat="44.2762631" lon="11.7691208"><ele>67.0</ele><time>2026-04-25T11:32:03.128Z</time></trkpt><trkpt lat="44.2763269" lon="11.769179"><ele>67.0</ele><time>2026-04-25T11:32:09.125Z</time></trkpt><trkpt lat="44.276389" lon="11.7692349"><ele>67.0</ele><time>2026-04-25T11:32:15.114Z</time></trkpt><trkpt lat="44.2764517" lon="11.7692828"><ele>67.0</ele><time>2026-04-25T11:32:21.116Z</time></trkpt><trkpt lat="44.2765027" lon="11.7693354"><ele>67.0</ele><time>2026-04-25T11:32:26.103Z</time></trkpt><trkpt lat="44.2765575" lon="11.7693858"><ele>67.28571428571429</ele><time>2026-04-25T11:32:30.999Z</time></trkpt><trkpt lat="44.2766107" lon="11.7694392"><ele>67.57142857142857</ele><time>2026-04-25T11:32:36.109Z</time></trkpt><trkpt lat="44.2766633" lon="11.7694899"><ele>67.85714285714286</ele><time>2026-04-25T11:32:41.144Z</time></trkpt><trkpt lat="44.2767178" lon="11.7695367"><ele>68.14285714285714</ele><time>2026-04-25T11:32:46.104Z</time></trkpt><trkpt lat="44.2767726" lon="11.7695849"><ele>68.42857142857143</ele><time>2026-04-25T11:32:51.112Z</time></trkpt><trkpt lat="44.2768273" lon="11.7696354"><ele>68.71428571428572</ele><time>2026-04-25T11:32:56.112Z</time></trkpt><trkpt lat="44.2768891" lon="11.7696932"><ele>69.0</ele><time>2026-04-25T11:33:01.061Z</time></trkpt><trkpt lat="44.2769478" lon="11.7697377"><ele>69.0</ele><time>2026-04-25T11:33:04.066Z</time></trkpt><trkpt lat="44.277015" lon="11.7697978"><ele>69.0</ele><time>2026-04-25T11:33:08.093Z</time></trkpt><trkpt lat="44.2770682" lon="11.7698507"><ele>69.0</ele><time>2026-04-25T11:33:11.102Z</time></trkpt><trkpt lat="44.2771183" lon="11.7699098"><ele>69.0</ele><time>2026-04-25T11:33:14.079Z</time></trkpt><trkpt lat="44.2771665" lon="11.7699701"><ele>69.0</ele><time>2026-04-25T11:33:17.084Z</time></trkpt><trkpt lat="44.2772341" lon="11.7700344"><ele>69.0</ele><time>2026-04-25T11:33:21.082Z</time></trkpt><trkpt lat="44.2772895" lon="11.7700887"><ele>69.0</ele><time>2026-04-25T11:33:24.138Z</time></trkpt><trkpt lat="44.2773423" lon="11.7701484"><ele>68.85714285714286</ele><time>2026-04-25T11:33:27.09Z</time></trkpt><trkpt lat="44.2773946" lon="11.7702098"><ele>68.71428571428572</ele><time>2026-04-25T11:33:30.117Z</time></trkpt><trkpt lat="44.2774436" lon="11.7702683"><ele>68.57142857142857</ele><time>2026-04-25T11:33:33.016Z</time></trkpt><trkpt lat="44.2774981" lon="11.7703199"><ele>68.42857142857143</ele><time>2026-04-25T11:33:36.097Z</time></trkpt><trkpt lat="44.2775486" lon="11.7703753"><ele>68.28571428571428</ele><time>2026-04-25T11:33:39.085Z</time></trkpt><trkpt lat="44.2776001" lon="11.7704527"><ele>68.14285714285714</ele><time>2026-04-25T11:33:43.068Z</time></trkpt><trkpt lat="44.2776602" lon="11.7705168"><ele>68.0</ele><time>2026-04-25T11:33:47.088Z</time></trkpt><trkpt lat="44.2777142" lon="11.7705637"><ele>67.99999999999999</ele><time>2026-04-25T11:33:50.018Z</time></trkpt><trkpt lat="44.277775" lon="11.7706142"><ele>68.0</ele><time>2026-04-25T11:33:55.122Z</time></trkpt><trkpt lat="44.2778317" lon="11.7706838"><ele>68.0</ele><time>2026-04-25T11:34:01.119Z</time></trkpt><trkpt lat="44.2778812" lon="11.7707488"><ele>68.0</ele><time>2026-04-25T11:34:06.114Z</time></trkpt><trkpt lat="44.2779356" lon="11.7707931"><ele>68.0</ele><time>2026-04-25T11:34:11.114Z</time></trkpt><trkpt lat="44.2779873" lon="11.7708544"><ele>67.99999999999999</ele><time>2026-04-25T11:34:17.079Z</time></trkpt><trkpt lat="44.2780386" lon="11.7709109"><ele>68.0</ele><time>2026-04-25T11:34:22.1Z</time></trkpt><trkpt lat="44.2780905" lon="11.7709677"><ele>68.28571428571428</ele><time>2026-04-25T11:34:27.087Z</time></trkpt><trkpt lat="44.2781487" lon="11.7710285"><ele>68.57142857142857</ele><time>2026-04-25T11:34:33.1Z</time></trkpt><trkpt lat="44.2782055" lon="11.7710782"><ele>68.85714285714286</ele><time>2026-04-25T11:34:38.063Z</time></trkpt><trkpt lat="44.2782596" lon="11.7711275"><ele>69.14285714285714</ele><time>2026-04-25T11:34:43.094Z</time></trkpt><trkpt lat="44.2783158" lon="11.7711784"><ele>69.42857142857143</ele><time>2026-04-25T11:34:48.681Z</time></trkpt><trkpt lat="44.2783704" lon="11.7712223"><ele>69.71428571428571</ele><time>2026-04-25T11:34:54.096Z</time></trkpt><trkpt lat="44.2784272" lon="11.7712641"><ele>70.0</ele><time>2026-04-25T11:34:59.094Z</time></trkpt><trkpt lat="44.2784909" lon="11.7713214"><ele>70.0</ele><time>2026-04-25T11:35:05.087Z</time></trkpt><trkpt lat="44.278553" lon="11.771367"><ele>70.0</ele><time>2026-04-25T11:35:11.095Z</time></trkpt><trkpt lat="44.2786165" lon="11.7714"><ele>70.0</ele><time>2026-04-25T11:35:16.118Z</time></trkpt><trkpt lat="44.2786831" lon="11.7714292"><ele>70.0</ele><time>2026-04-25T11:35:21.111Z</time></trkpt><trkpt lat="44.2787407" lon="11.771485"><ele>70.0</ele><time>2026-04-25T11:35:27.105Z</time></trkpt><trkpt lat="44.2788074" lon="11.7715313"><ele>70.0</ele><time>2026-04-25T11:35:32.115Z</time></trkpt><trkpt lat="44.2788751" lon="11.7715594"><ele>70.0</ele><time>2026-04-25T11:35:35.103Z</time></trkpt><trkpt lat="44.2789401" lon="11.7716047"><ele>69.83333333333333</ele><time>2026-04-25T11:35:39.09Z</time></trkpt><trkpt lat="44.2790237" lon="11.7716372"><ele>69.66666666666666</ele><time>2026-04-25T11:35:43.09Z</time></trkpt><trkpt lat="44.2790923" lon="11.7716796"><ele>69.5</ele><time>2026-04-25T11:35:47.082Z</time></trkpt><trkpt lat="44.2791625" lon="11.771731"><ele>69.33333333333333</ele><time>2026-04-25T11:35:51.087Z</time></trkpt><trkpt lat="44.2792232" lon="11.771772"><ele>69.16666666666667</ele><time>2026-04-25T11:35:54.115Z</time></trkpt><trkpt lat="44.2792942" lon="11.7718164"><ele>69.0</ele><time>2026-04-25T11:35:58.041Z</time></trkpt><trkpt lat="44.2793683" lon="11.7718575"><ele>69.5</ele><time>2026-04-25T11:36:02.097Z</time></trkpt><trkpt lat="44.2794417" lon="11.7719085"><ele>70.0</ele><time>2026-04-25T11:36:06.088Z</time></trkpt><trkpt lat="44.2795124" lon="11.771964"><ele>70.5</ele><time>2026-04-25T11:36:10.102Z</time></trkpt><trkpt lat="44.2795791" lon="11.7720177"><ele>71.0</ele><time>2026-04-25T11:36:14.076Z</time></trkpt><trkpt lat="44.2796469" lon="11.7720696"><ele>71.5</ele><time>2026-04-25T11:36:18.087Z</time></trkpt><trkpt lat="44.2797105" lon="11.7721153"><ele>72.0</ele><time>2026-04-25T11:36:22.096Z</time></trkpt><trkpt lat="44.2797792" lon="11.7721686"><ele>72.00000000000001</ele><time>2026-04-25T11:36:26.102Z</time></trkpt><trkpt lat="44.279837" lon="11.7722185"><ele>72.0</ele><time>2026-04-25T11:36:29.026Z</time></trkpt><trkpt lat="44.2798956" lon="11.772257"><ele>72.0</ele><time>2026-04-25T11:36:32.1Z</time></trkpt><trkpt lat="44.2799532" lon="11.7723047"><ele>72.0</ele><time>2026-04-25T11:36:35.014Z</time></trkpt><trkpt lat="44.2800089" lon="11.7723491"><ele>72.0</ele><time>2026-04-25T11:36:38.095Z</time></trkpt><trkpt lat="44.2800876" lon="11.7724133"><ele>72.00000000000001</ele><time>2026-04-25T11:36:42.101Z</time></trkpt><trkpt lat="44.2801502" lon="11.7724656"><ele>72.0</ele><time>2026-04-25T11:36:46.081Z</time></trkpt><trkpt lat="44.2802056" lon="11.7725128"><ele>72.0</ele><time>2026-04-25T11:36:49.103Z</time></trkpt><trkpt lat="44.2802785" lon="11.7725714"><ele>72.0</ele><time>2026-04-25T11:36:53.061Z</time></trkpt><trkpt lat="44.2803498" lon="11.7726288"><ele>72.0</ele><time>2026-04-25T11:36:57.075Z</time></trkpt><trkpt lat="44.2804176" lon="11.7726821"><ele>72.0</ele><time>2026-04-25T11:37:01.096Z</time></trkpt><trkpt lat="44.2804881" lon="11.7727386"><ele>72.0</ele><time>2026-04-25T11:37:05.093Z</time></trkpt><trkpt lat="44.2805543" lon="11.7727914"><ele>72.0</ele><time>2026-04-25T11:37:08.999Z</time></trkpt><trkpt lat="44.2806187" lon="11.7728493"><ele>71.33333333333333</ele><time>2026-04-25T11:37:13.091Z</time></trkpt><trkpt lat="44.2806846" lon="11.7729049"><ele>70.66666666666667</ele><time>2026-04-25T11:37:17.064Z</time></trkpt><trkpt lat="44.2807504" lon="11.7729531"><ele>70.0</ele><time>2026-04-25T11:37:21.099Z</time></trkpt><trkpt lat="44.2808166" lon="11.7730056"><ele>69.33333333333334</ele><time>2026-04-25T11:37:25.083Z</time></trkpt><trkpt lat="44.2808781" lon="11.7730517"><ele>68.66666666666667</ele><time>2026-04-25T11:37:28.994Z</time></trkpt><trkpt lat="44.2809471" lon="11.7731016"><ele>68.0</ele><time>2026-04-25T11:37:33.097Z</time></trkpt><trkpt lat="44.2810165" lon="11.7731506"><ele>68.0</ele><time>2026-04-25T11:37:37.081Z</time></trkpt><trkpt lat="44.281091" lon="11.7732061"><ele>68.0</ele><time>2026-04-25T11:37:41.113Z</time></trkpt><trkpt lat="44.2811564" lon="11.7732537"><ele>68.0</ele><time>2026-04-25T11:37:45.061Z</time></trkpt><trkpt lat="44.2812256" lon="11.7733087"><ele>68.0</ele><time>2026-04-25T11:37:49.017Z</time></trkpt><trkpt lat="44.2812854" lon="11.7733503"><ele>68.0</ele><time>2026-04-25T11:37:52.12Z</time></trkpt><trkpt lat="44.2813613" lon="11.7734001"><ele>68.0</ele><time>2026-04-25T11:37:56.036Z</time></trkpt><trkpt lat="44.281429" lon="11.7734385"><ele>67.85714285714285</ele><time>2026-04-25T11:37:59.088Z</time></trkpt><trkpt lat="44.2814928" lon="11.7734798"><ele>67.71428571428571</ele><time>2026-04-25T11:38:02.101Z</time></trkpt><trkpt lat="44.2815679" lon="11.7735194"><ele>67.57142857142857</ele><time>2026-04-25T11:38:06.063Z</time></trkpt><trkpt lat="44.2816313" lon="11.7735559"><ele>67.42857142857142</ele><time>2026-04-25T11:38:09.099Z</time></trkpt><trkpt lat="44.2816953" lon="11.7736015"><ele>67.28571428571428</ele><time>2026-04-25T11:38:12.084Z</time></trkpt><trkpt lat="44.2817573" lon="11.773638"><ele>67.14285714285714</ele><time>2026-04-25T11:38:15.071Z</time></trkpt><trkpt lat="44.2818228" lon="11.7736702"><ele>67.0</ele><time>2026-04-25T11:38:18.153Z</time></trkpt><trkpt lat="44.2819001" lon="11.7737038"><ele>67.33333333333333</ele><time>2026-04-25T11:38:22.042Z</time></trkpt><trkpt lat="44.2819703" lon="11.7737502"><ele>67.66666666666666</ele><time>2026-04-25T11:38:25.998Z</time></trkpt><trkpt lat="44.2820419" lon="11.7737686"><ele>68.0</ele><time>2026-04-25T11:38:30.075Z</time></trkpt><trkpt lat="44.2821201" lon="11.7738079"><ele>68.33333333333333</ele><time>2026-04-25T11:38:34.094Z</time></trkpt><trkpt lat="44.2821956" lon="11.7738485"><ele>68.66666666666667</ele><time>2026-04-25T11:38:38.09Z</time></trkpt><trkpt lat="44.2822762" lon="11.7738934"><ele>69.0</ele><time>2026-04-25T11:38:42.077Z</time></trkpt><trkpt lat="44.2823361" lon="11.7739211"><ele>69.0</ele><time>2026-04-25T11:38:45.1Z</time></trkpt><trkpt lat="44.2823954" lon="11.7739667"><ele>69.0</ele><time>2026-04-25T11:38:48.092Z</time></trkpt><trkpt lat="44.282456" lon="11.7740119"><ele>69.0</ele><time>2026-04-25T11:38:51.037Z</time></trkpt><trkpt lat="44.2825143" lon="11.7740576"><ele>69.0</ele><time>2026-04-25T11:38:54.099Z</time></trkpt><trkpt lat="44.2825712" lon="11.7741055"><ele>69.0</ele><time>2026-04-25T11:38:57.058Z</time></trkpt><trkpt lat="44.2826255" lon="11.7741553"><ele>69.0</ele><time>2026-04-25T11:39:00.096Z</time></trkpt><trkpt lat="44.2826831" lon="11.7741956"><ele>69.0</ele><time>2026-04-25T11:39:03.094Z</time></trkpt><trkpt lat="44.282751" lon="11.7742515"><ele>69.0</ele><time>2026-04-25T11:39:07.002Z</time></trkpt><trkpt lat="44.2828114" lon="11.7742937"><ele>69.0</ele><time>2026-04-25T11:39:10.083Z</time></trkpt><trkpt lat="44.2828837" lon="11.7743509"><ele>69.0</ele><time>2026-04-25T11:39:14.115Z</time></trkpt><trkpt lat="44.2829504" lon="11.7744046"><ele>69.0</ele><time>2026-04-25T11:39:18.026Z</time></trkpt><trkpt lat="44.2830119" lon="11.7744603"><ele>69.0</ele><time>2026-04-25T11:39:21.076Z</time></trkpt><trkpt lat="44.2830718" lon="11.7745083"><ele>69.0</ele><time>2026-04-25T11:39:24.034Z</time></trkpt><trkpt lat="44.2831284" lon="11.7745571"><ele>69.0</ele><time>2026-04-25T11:39:27.05Z</time></trkpt><trkpt lat="44.2831862" lon="11.7746122"><ele>68.71428571428572</ele><time>2026-04-25T11:39:30.055Z</time></trkpt><trkpt lat="44.2832545" lon="11.7746654"><ele>68.42857142857143</ele><time>2026-04-25T11:39:34.073Z</time></trkpt><trkpt lat="44.2833112" lon="11.7747111"><ele>68.14285714285714</ele><time>2026-04-25T11:39:37.089Z</time></trkpt><trkpt lat="44.2833849" lon="11.774764"><ele>67.85714285714286</ele><time>2026-04-25T11:39:41.06Z</time></trkpt><trkpt lat="44.2834448" lon="11.7748149"><ele>67.57142857142857</ele><time>2026-04-25T11:39:44.094Z</time></trkpt><trkpt lat="44.2835077" lon="11.7748704"><ele>67.28571428571429</ele><time>2026-04-25T11:39:47.052Z</time></trkpt><trkpt lat="44.2835691" lon="11.7749222"><ele>67.0</ele><time>2026-04-25T11:39:50.091Z</time></trkpt><trkpt lat="44.2836311" lon="11.7749729"><ele>67.0</ele><time>2026-04-25T11:39:53.061Z</time></trkpt><trkpt lat="44.2836879" lon="11.7750169"><ele>67.0</ele><time>2026-04-25T11:39:56.077Z</time></trkpt><trkpt lat="44.2837419" lon="11.7750636"><ele>67.0</ele><time>2026-04-25T11:39:59.062Z</time></trkpt><trkpt lat="44.2837987" lon="11.775107"><ele>67.0</ele><time>2026-04-25T11:40:02.099Z</time></trkpt><trkpt lat="44.2838571" lon="11.7751594"><ele>67.0</ele><time>2026-04-25T11:40:05.116Z</time></trkpt><trkpt lat="44.283921" lon="11.7752199"><ele>67.0</ele><time>2026-04-25T11:40:09.022Z</time></trkpt><trkpt lat="44.2839972" lon="11.775275"><ele>67.0</ele><time>2026-04-25T11:40:13.101Z</time></trkpt><trkpt lat="44.2840657" lon="11.775331"><ele>66.83333333333333</ele><time>2026-04-25T11:40:17.072Z</time></trkpt><trkpt lat="44.2841331" lon="11.7753916"><ele>66.66666666666666</ele><time>2026-04-25T11:40:21.101Z</time></trkpt><trkpt lat="44.2842048" lon="11.7754388"><ele>66.5</ele><time>2026-04-25T11:40:25.078Z</time></trkpt><trkpt lat="44.2842616" lon="11.7755018"><ele>66.33333333333333</ele><time>2026-04-25T11:40:29.057Z</time></trkpt><trkpt lat="44.2843312" lon="11.7755567"><ele>66.16666666666667</ele><time>2026-04-25T11:40:33.065Z</time></trkpt><trkpt lat="44.2844001" lon="11.7756122"><ele>66.0</ele><time>2026-04-25T11:40:37.068Z</time></trkpt><trkpt lat="44.2844561" lon="11.7756607"><ele>66.0</ele><time>2026-04-25T11:40:40.046Z</time></trkpt><trkpt lat="44.2845129" lon="11.7757018"><ele>66.0</ele><time>2026-04-25T11:40:43.077Z</time></trkpt><trkpt lat="44.2845743" lon="11.7757503"><ele>66.0</ele><time>2026-04-25T11:40:46.121Z</time></trkpt><trkpt lat="44.2846503" lon="11.7758064"><ele>66.0</ele><time>2026-04-25T11:40:50.022Z</time></trkpt><trkpt lat="44.2847053" lon="11.7758499"><ele>66.0</ele><time>2026-04-25T11:40:53.092Z</time></trkpt><trkpt lat="44.2847754" lon="11.7759053"><ele>66.0</ele><time>2026-04-25T11:40:57.057Z</time></trkpt><trkpt lat="44.2848347" lon="11.7759509"><ele>66.0</ele><time>2026-04-25T11:41:00.062Z</time></trkpt><trkpt lat="44.2848976" lon="11.7760072"><ele>65.71428571428571</ele><time>2026-04-25T11:41:04.114Z</time></trkpt><trkpt lat="44.2849682" lon="11.776066"><ele>65.42857142857143</ele><time>2026-04-25T11:41:08.085Z</time></trkpt><trkpt lat="44.2850409" lon="11.7761271"><ele>65.14285714285714</ele><time>2026-04-25T11:41:12.016Z</time></trkpt><trkpt lat="44.2851056" lon="11.7761715"><ele>64.85714285714286</ele><time>2026-04-25T11:41:17.101Z</time></trkpt><trkpt lat="44.2851676" lon="11.7762091"><ele>64.57142857142857</ele><time>2026-04-25T11:41:22.107Z</time></trkpt><trkpt lat="44.2852234" lon="11.7762539"><ele>64.28571428571428</ele><time>2026-04-25T11:41:27.079Z</time></trkpt><trkpt lat="44.2852791" lon="11.7762962"><ele>64.0</ele><time>2026-04-25T11:41:32.066Z</time></trkpt><trkpt lat="44.2853367" lon="11.7763428"><ele>64.0</ele><time>2026-04-25T11:41:37.072Z</time></trkpt><trkpt lat="44.2854001" lon="11.7763932"><ele>63.99999999999999</ele><time>2026-04-25T11:41:43.106Z</time></trkpt><trkpt lat="44.2854595" lon="11.7764401"><ele>64.0</ele><time>2026-04-25T11:41:48.107Z</time></trkpt><trkpt lat="44.2855168" lon="11.7764818"><ele>64.0</ele><time>2026-04-25T11:41:51.092Z</time></trkpt><trkpt lat="44.2855775" lon="11.776529"><ele>63.99999999999999</ele><time>2026-04-25T11:41:54.033Z</time></trkpt><trkpt lat="44.2856404" lon="11.7765745"><ele>64.0</ele><time>2026-04-25T11:41:57.083Z</time></trkpt><trkpt lat="44.2856982" lon="11.7766207"><ele>64.0</ele><time>2026-04-25T11:42:00.04Z</time></trkpt><trkpt lat="44.2857572" lon="11.7766639"><ele>64.0</ele><time>2026-04-25T11:42:03.075Z</time></trkpt><trkpt lat="44.2858322" lon="11.7767136"><ele>63.99999999999999</ele><time>2026-04-25T11:42:07.08Z</time></trkpt><trkpt lat="44.2858881" lon="11.776759"><ele>64.0</ele><time>2026-04-25T11:42:10.085Z</time></trkpt><trkpt lat="44.2859437" lon="11.7768092"><ele>64.0</ele><time>2026-04-25T11:42:13.088Z</time></trkpt><trkpt lat="44.2859995" lon="11.7768562"><ele>63.99999999999999</ele><time>2026-04-25T11:42:16.106Z</time></trkpt><trkpt lat="44.2860559" lon="11.7768982"><ele>64.0</ele><time>2026-04-25T11:42:19.157Z</time></trkpt><trkpt lat="44.2861089" lon="11.7769501"><ele>64.0</ele><time>2026-04-25T11:42:23.062Z</time></trkpt><trkpt lat="44.2861778" lon="11.7769972"><ele>64.0</ele><time>2026-04-25T11:42:29.115Z</time></trkpt><trkpt lat="44.2862432" lon="11.777039"><ele>63.99999999999999</ele><time>2026-04-25T11:42:35.097Z</time></trkpt><trkpt lat="44.2863001" lon="11.7770961"><ele>64.0</ele><time>2026-04-25T11:42:41.1Z</time></trkpt><trkpt lat="44.2863574" lon="11.7771426"><ele>64.0</ele><time>2026-04-25T11:42:47.082Z</time></trkpt><trkpt lat="44.2864166" lon="11.7771907"><ele>63.99999999999999</ele><time>2026-04-25T11:42:52.065Z</time></trkpt><trkpt lat="44.2864725" lon="11.7772329"><ele>64.0</ele><time>2026-04-25T11:42:57.101Z</time></trkpt><trkpt lat="44.2865365" lon="11.7772745"><ele>64.0</ele><time>2026-04-25T11:43:02.146Z</time></trkpt><trkpt lat="44.2866011" lon="11.7773272"><ele>63.57142857142857</ele><time>2026-04-25T11:43:08.116Z</time></trkpt><trkpt lat="44.2866751" lon="11.7773849"><ele>63.14285714285714</ele><time>2026-04-25T11:43:12.101Z</time></trkpt><trkpt lat="44.2867438" lon="11.777434"><ele>62.71428571428571</ele><time>2026-04-25T11:43:15.108Z</time></trkpt><trkpt lat="44.2868069" lon="11.7774838"><ele>62.28571428571428</ele><time>2026-04-25T11:43:18.079Z</time></trkpt><trkpt lat="44.2868692" lon="11.7775304"><ele>61.857142857142854</ele><time>2026-04-25T11:43:21.117Z</time></trkpt><trkpt lat="44.2869315" lon="11.7775774"><ele>61.428571428571416</ele><time>2026-04-25T11:43:24.084Z</time></trkpt><trkpt lat="44.2869931" lon="11.7776209"><ele>60.99999999999999</ele><time>2026-04-25T11:43:27.094Z</time></trkpt><trkpt lat="44.2870539" lon="11.7776613"><ele>61.14285714285714</ele><time>2026-04-25T11:43:30.047Z</time></trkpt><trkpt lat="44.2871153" lon="11.7777054"><ele>61.285714285714285</ele><time>2026-04-25T11:43:33.103Z</time></trkpt><trkpt lat="44.2871739" lon="11.7777489"><ele>61.42857142857143</ele><time>2026-04-25T11:43:36.016Z</time></trkpt><trkpt lat="44.2872445" lon="11.7778101"><ele>61.57142857142857</ele><time>2026-04-25T11:43:40.1Z</time></trkpt><trkpt lat="44.2873166" lon="11.7778651"><ele>61.71428571428572</ele><time>2026-04-25T11:43:44.081Z</time></trkpt><trkpt lat="44.2873918" lon="11.7779151"><ele>61.85714285714286</ele><time>2026-04-25T11:43:48.005Z</time></trkpt><trkpt lat="44.2874467" lon="11.7779627"><ele>62.0</ele><time>2026-04-25T11:43:51.115Z</time></trkpt><trkpt lat="44.2875025" lon="11.7780048"><ele>61.57142857142858</ele><time>2026-04-25T11:43:54.075Z</time></trkpt><trkpt lat="44.2875585" lon="11.7780494"><ele>61.14285714285715</ele><time>2026-04-25T11:43:57.094Z</time></trkpt><trkpt lat="44.2876119" lon="11.7780964"><ele>60.714285714285715</ele><time>2026-04-25T11:43:59.957Z</time></trkpt><trkpt lat="44.2876756" lon="11.7781427"><ele>60.28571428571429</ele><time>2026-04-25T11:44:03.116Z</time></trkpt><trkpt lat="44.2877323" lon="11.7781913"><ele>59.85714285714286</ele><time>2026-04-25T11:44:06.088Z</time></trkpt><trkpt lat="44.2877882" lon="11.7782453"><ele>59.42857142857143</ele><time>2026-04-25T11:44:09.128Z</time></trkpt><trkpt lat="44.2878561" lon="11.7782993"><ele>59.0</ele><time>2026-04-25T11:44:13.074Z</time></trkpt><trkpt lat="44.2879183" lon="11.778348"><ele>59.0</ele><time>2026-04-25T11:44:16.114Z</time></trkpt><trkpt lat="44.2879759" lon="11.7783949"><ele>59.0</ele><time>2026-04-25T11:44:19.099Z</time></trkpt><trkpt lat="44.2880289" lon="11.7784457"><ele>59.0</ele><time>2026-04-25T11:44:22.114Z</time></trkpt><trkpt lat="44.2880919" lon="11.7785216"><ele>59.0</ele><time>2026-04-25T11:44:25.956Z</time></trkpt><trkpt lat="44.2881537" lon="11.7785719"><ele>59.0</ele><time>2026-04-25T11:44:29.113Z</time></trkpt><trkpt lat="44.2882085" lon="11.7786234"><ele>59.0</ele><time>2026-04-25T11:44:32.07Z</time></trkpt><trkpt lat="44.288265" lon="11.7786838"><ele>59.0</ele><time>2026-04-25T11:44:35.076Z</time></trkpt><trkpt lat="44.2883142" lon="11.7787424"><ele>58.857142857142854</ele><time>2026-04-25T11:44:38.092Z</time></trkpt><trkpt lat="44.2883644" lon="11.7787967"><ele>58.71428571428572</ele><time>2026-04-25T11:44:41.056Z</time></trkpt><trkpt lat="44.2884274" lon="11.7788669"><ele>58.57142857142858</ele><time>2026-04-25T11:44:44.979Z</time></trkpt><trkpt lat="44.2884808" lon="11.7789231"><ele>58.42857142857143</ele><time>2026-04-25T11:44:48.156Z</time></trkpt><trkpt lat="44.2885425" lon="11.7789755"><ele>58.28571428571429</ele><time>2026-04-25T11:44:52.096Z</time></trkpt><trkpt lat="44.288597" lon="11.779031"><ele>58.14285714285715</ele><time>2026-04-25T11:44:56.022Z</time></trkpt><trkpt lat="44.2886634" lon="11.7790841"><ele>58.00000000000001</ele><time>2026-04-25T11:45:00.072Z</time></trkpt><trkpt lat="44.2887207" lon="11.7791211"><ele>58.00000000000001</ele><time>2026-04-25T11:45:03.1Z</time></trkpt><trkpt lat="44.2887775" lon="11.7791783"><ele>58.0</ele><time>2026-04-25T11:45:07.916Z</time></trkpt><trkpt lat="44.2888324" lon="11.7792554"><ele>58.00000000000001</ele><time>2026-04-25T11:45:13.094Z</time></trkpt><trkpt lat="44.2888803" lon="11.7793198"><ele>58.00000000000001</ele><time>2026-04-25T11:45:18.094Z</time></trkpt><trkpt lat="44.2889313" lon="11.7793815"><ele>58.0</ele><time>2026-04-25T11:45:23.093Z</time></trkpt><trkpt lat="44.2889837" lon="11.7794373"><ele>58.00000000000001</ele><time>2026-04-25T11:45:28.095Z</time></trkpt><trkpt lat="44.2890413" lon="11.7795012"><ele>58.00000000000001</ele><time>2026-04-25T11:45:34.116Z</time></trkpt><trkpt lat="44.2891059" lon="11.7795677"><ele>58.28571428571429</ele><time>2026-04-25T11:45:40.078Z</time></trkpt><trkpt lat="44.289167" lon="11.7796279"><ele>58.57142857142857</ele><time>2026-04-25T11:45:46.092Z</time></trkpt><trkpt lat="44.2892234" lon="11.7796731"><ele>58.85714285714286</ele><time>2026-04-25T11:45:51.08Z</time></trkpt><trkpt lat="44.2892795" lon="11.779728"><ele>59.142857142857146</ele><time>2026-04-25T11:45:56.083Z</time></trkpt><trkpt lat="44.2893348" lon="11.7797831"><ele>59.42857142857143</ele><time>2026-04-25T11:46:01.074Z</time></trkpt><trkpt lat="44.2893892" lon="11.7798274"><ele>59.714285714285715</ele><time>2026-04-25T11:46:04.088Z</time></trkpt><trkpt lat="44.2894526" lon="11.7798881"><ele>60.0</ele><time>2026-04-25T11:46:07.04Z</time></trkpt><trkpt lat="44.2895146" lon="11.7799471"><ele>60.0</ele><time>2026-04-25T11:46:10.123Z</time></trkpt><trkpt lat="44.2895708" lon="11.7800023"><ele>60.0</ele><time>2026-04-25T11:46:13.101Z</time></trkpt><trkpt lat="44.2896263" lon="11.7800578"><ele>60.0</ele><time>2026-04-25T11:46:16.082Z</time></trkpt><trkpt lat="44.2896811" lon="11.7801179"><ele>60.0</ele><time>2026-04-25T11:46:18.98Z</time></trkpt><trkpt lat="44.2897418" lon="11.780165"><ele>60.0</ele><time>2026-04-25T11:46:22.102Z</time></trkpt><trkpt lat="44.2898182" lon="11.7802143"><ele>60.0</ele><time>2026-04-25T11:46:26.08Z</time></trkpt><trkpt lat="44.2898718" lon="11.7802612"><ele>60.0</ele><time>2026-04-25T11:46:29.095Z</time></trkpt><trkpt lat="44.2899366" lon="11.7803028"><ele>59.57142857142857</ele><time>2026-04-25T11:46:32.103Z</time></trkpt><trkpt lat="44.2899979" lon="11.7803291"><ele>59.14285714285714</ele><time>2026-04-25T11:46:35.099Z</time></trkpt><trkpt lat="44.2900597" lon="11.7803459"><ele>58.71428571428571</ele><time>2026-04-25T11:46:38.096Z</time></trkpt><trkpt lat="44.2901342" lon="11.7803608"><ele>58.285714285714285</ele><time>2026-04-25T11:46:42.042Z</time></trkpt><trkpt lat="44.2902174" lon="11.780358"><ele>57.85714285714285</ele><time>2026-04-25T11:46:46.097Z</time></trkpt><trkpt lat="44.2902841" lon="11.7803599"><ele>57.42857142857142</ele><time>2026-04-25T11:46:49.061Z</time></trkpt><trkpt lat="44.2903703" lon="11.7803515"><ele>57.0</ele><time>2026-04-25T11:46:53.113Z</time></trkpt><trkpt lat="44.2904518" lon="11.7803374"><ele>57.0</ele><time>2026-04-25T11:46:57.104Z</time></trkpt><trkpt lat="44.2905356" lon="11.7803209"><ele>57.0</ele><time>2026-04-25T11:47:01.076Z</time></trkpt><trkpt lat="44.2906172" lon="11.7803025"><ele>57.0</ele><time>2026-04-25T11:47:05.083Z</time></trkpt><trkpt lat="44.2906862" lon="11.7802979"><ele>57.0</ele><time>2026-04-25T11:47:08.161Z</time></trkpt><trkpt lat="44.2907719" lon="11.7803051"><ele>57.0</ele><time>2026-04-25T11:47:12.037Z</time></trkpt><trkpt lat="44.2908506" lon="11.7803402"><ele>57.0</ele><time>2026-04-25T11:47:16.067Z</time></trkpt><trkpt lat="44.2909115" lon="11.780377"><ele>57.0</ele><time>2026-04-25T11:47:19.154Z</time></trkpt><trkpt lat="44.2909781" lon="11.7804287"><ele>56.99999999999999</ele><time>2026-04-25T11:47:23.12Z</time></trkpt><trkpt lat="44.2910543" lon="11.7804673"><ele>57.0</ele><time>2026-04-25T11:47:26.974Z</time></trkpt><trkpt lat="44.2911129" lon="11.7805027"><ele>57.0</ele><time>2026-04-25T11:47:30.103Z</time></trkpt><trkpt lat="44.2911748" lon="11.7805405"><ele>56.99999999999999</ele><time>2026-04-25T11:47:34.077Z</time></trkpt><trkpt lat="44.2912368" lon="11.7805892"><ele>57.0</ele><time>2026-04-25T11:47:40.137Z</time></trkpt><trkpt lat="44.2912954" lon="11.7806411"><ele>57.0</ele><time>2026-04-25T11:47:46.126Z</time></trkpt><trkpt lat="44.2913474" lon="11.7806938"><ele>57.0</ele><time>2026-04-25T11:47:51.081Z</time></trkpt><trkpt lat="44.2913991" lon="11.7807455"><ele>56.99999999999999</ele><time>2026-04-25T11:47:56.049Z</time></trkpt><trkpt lat="44.2914521" lon="11.7808052"><ele>57.0</ele><time>2026-04-25T11:48:01.015Z</time></trkpt><trkpt lat="44.2914992" lon="11.7808643"><ele>57.0</ele><time>2026-04-25T11:48:06.095Z</time></trkpt><trkpt lat="44.2915424" lon="11.7809302"><ele>56.99999999999999</ele><time>2026-04-25T11:48:11.075Z</time></trkpt><trkpt lat="44.2915801" lon="11.781014"><ele>57.0</ele><time>2026-04-25T11:48:16.104Z</time></trkpt><trkpt lat="44.2916192" lon="11.7810997"><ele>57.0</ele><time>2026-04-25T11:48:21.087Z</time></trkpt><trkpt lat="44.2916601" lon="11.7811787"><ele>56.57142857142857</ele><time>2026-04-25T11:48:26.12Z</time></trkpt><trkpt lat="44.2916958" lon="11.7812568"><ele>56.14285714285714</ele><time>2026-04-25T11:48:31.117Z</time></trkpt><trkpt lat="44.2917356" lon="11.7813521"><ele>55.71428571428571</ele><time>2026-04-25T11:48:36.087Z</time></trkpt><trkpt lat="44.2917727" lon="11.7814327"><ele>55.285714285714285</ele><time>2026-04-25T11:48:39.082Z</time></trkpt><trkpt lat="44.2918163" lon="11.781513"><ele>54.857142857142854</ele><time>2026-04-25T11:48:42.083Z</time></trkpt><trkpt lat="44.2918564" lon="11.7815975"><ele>54.42857142857143</ele><time>2026-04-25T11:48:45.117Z</time></trkpt><trkpt lat="44.2918913" lon="11.7816856"><ele>54.0</ele><time>2026-04-25T11:48:48.113Z</time></trkpt><trkpt lat="44.2919253" lon="11.7817764"><ele>54.333333333333336</ele><time>2026-04-25T11:48:51.108Z</time></trkpt><trkpt lat="44.2919566" lon="11.7818575"><ele>54.66666666666667</ele><time>2026-04-25T11:48:54.039Z</time></trkpt><trkpt lat="44.2919874" lon="11.7819597"><ele>55.0</ele><time>2026-04-25T11:48:58.062Z</time></trkpt><trkpt lat="44.292023" lon="11.7820612"><ele>55.333333333333336</ele><time>2026-04-25T11:49:02.085Z</time></trkpt><trkpt lat="44.2920725" lon="11.7821543"><ele>55.66666666666667</ele><time>2026-04-25T11:49:06.121Z</time></trkpt><trkpt lat="44.2921145" lon="11.7822409"><ele>56.0</ele><time>2026-04-25T11:49:10.085Z</time></trkpt><trkpt lat="44.2921557" lon="11.7823134"><ele>56.0</ele><time>2026-04-25T11:49:14.997Z</time></trkpt><trkpt lat="44.2921921" lon="11.7823881"><ele>56.0</ele><time>2026-04-25T11:49:20.025Z</time></trkpt><trkpt lat="44.2922359" lon="11.7824574"><ele>56.0</ele><time>2026-04-25T11:49:25.073Z</time></trkpt><trkpt lat="44.2922894" lon="11.7825141"><ele>56.0</ele><time>2026-04-25T11:49:30.117Z</time></trkpt><trkpt lat="44.2923398" lon="11.782572"><ele>56.0</ele><time>2026-04-25T11:49:35.04Z</time></trkpt><trkpt lat="44.2923997" lon="11.7826281"><ele>56.0</ele><time>2026-04-25T11:49:41.09Z</time></trkpt><trkpt lat="44.2924532" lon="11.7826907"><ele>56.0</ele><time>2026-04-25T11:49:48.096Z</time></trkpt><trkpt lat="44.2925161" lon="11.7827309"><ele>56.0</ele><time>2026-04-25T11:50:10.103Z</time></trkpt><trkpt lat="44.2925676" lon="11.7828129"><ele>56.0</ele><time>2026-04-25T11:50:16.114Z</time></trkpt><trkpt lat="44.2926186" lon="11.7828815"><ele>56.0</ele><time>2026-04-25T11:50:21.123Z</time></trkpt><trkpt lat="44.2926733" lon="11.7829359"><ele>56.0</ele><time>2026-04-25T11:50:26.105Z</time></trkpt><trkpt lat="44.2927357" lon="11.782986"><ele>56.0</ele><time>2026-04-25T11:50:31.038Z</time></trkpt><trkpt lat="44.2927901" lon="11.7830449"><ele>56.0</ele><time>2026-04-25T11:50:34.071Z</time></trkpt><trkpt lat="44.2928412" lon="11.7830998"><ele>56.0</ele><time>2026-04-25T11:50:37.022Z</time></trkpt><trkpt lat="44.2929029" lon="11.7831456"><ele>56.0</ele><time>2026-04-25T11:50:40.09Z</time></trkpt><trkpt lat="44.2929662" lon="11.7831835"><ele>56.0</ele><time>2026-04-25T11:50:43.024Z</time></trkpt><trkpt lat="44.2930372" lon="11.7832162"><ele>56.0</ele><time>2026-04-25T11:50:46.109Z</time></trkpt><trkpt lat="44.2931069" lon="11.7832375"><ele>56.0</ele><time>2026-04-25T11:50:49.089Z</time></trkpt><trkpt lat="44.2931761" lon="11.7832645"><ele>56.0</ele><time>2026-04-25T11:50:52.166Z</time></trkpt><trkpt lat="44.2932512" lon="11.783289"><ele>56.0</ele><time>2026-04-25T11:50:56.002Z</time></trkpt><trkpt lat="44.2933347" lon="11.7832834"><ele>56.0</ele><time>2026-04-25T11:51:00.091Z</time></trkpt><trkpt lat="44.2934128" lon="11.7832824"><ele>55.00000000000001</ele><time>2026-04-25T11:51:04.071Z</time></trkpt><trkpt lat="44.2934761" lon="11.7832894"><ele>54.0</ele><time>2026-04-25T11:51:07.071Z</time></trkpt><trkpt lat="44.2935595" lon="11.7832843"><ele>53.0</ele><time>2026-04-25T11:51:11.088Z</time></trkpt><trkpt lat="44.2936383" lon="11.7832639"><ele>52.0</ele><time>2026-04-25T11:51:15.131Z</time></trkpt><trkpt lat="44.2937182" lon="11.7832266"><ele>51.00000000000001</ele><time>2026-04-25T11:51:19.07Z</time></trkpt><trkpt lat="44.293786" lon="11.7831791"><ele>50.0</ele><time>2026-04-25T11:51:23.109Z</time></trkpt><trkpt lat="44.2938629" lon="11.7831225"><ele>49.42857142857143</ele><time>2026-04-25T11:51:27.041Z</time></trkpt><trkpt lat="44.293925" lon="11.7830984"><ele>48.85714285714286</ele><time>2026-04-25T11:51:30.089Z</time></trkpt><trkpt lat="44.2939978" lon="11.7830634"><ele>48.28571428571429</ele><time>2026-04-25T11:51:34.096Z</time></trkpt><trkpt lat="44.2940688" lon="11.783024"><ele>47.714285714285715</ele><time>2026-04-25T11:51:38.114Z</time></trkpt><trkpt lat="44.2941274" lon="11.7829916"><ele>47.14285714285714</ele><time>2026-04-25T11:51:41.075Z</time></trkpt><trkpt lat="44.2941865" lon="11.7829502"><ele>46.57142857142858</ele><time>2026-04-25T11:51:44.115Z</time></trkpt><trkpt lat="44.2942539" lon="11.7829053"><ele>46.0</ele><time>2026-04-25T11:51:48.09Z</time></trkpt><trkpt lat="44.2943314" lon="11.7828701"><ele>46.0</ele><time>2026-04-25T11:51:52.1Z</time></trkpt><trkpt lat="44.2943879" lon="11.7828264"><ele>46.0</ele><time>2026-04-25T11:51:54.994Z</time></trkpt><trkpt lat="44.2944234" lon="11.7827526"><ele>46.0</ele><time>2026-04-25T11:51:58.078Z</time></trkpt><trkpt lat="44.2944586" lon="11.7826501"><ele>46.0</ele><time>2026-04-25T11:52:02.102Z</time></trkpt><trkpt lat="44.2944856" lon="11.7825391"><ele>46.0</ele><time>2026-04-25T11:52:06.073Z</time></trkpt><trkpt lat="44.2945069" lon="11.782444"><ele>46.0</ele><time>2026-04-25T11:52:09.154Z</time></trkpt><trkpt lat="44.2945353" lon="11.782342"><ele>46.0</ele><time>2026-04-25T11:52:13.083Z</time></trkpt><trkpt lat="44.2945724" lon="11.7822688"><ele>46.0</ele><time>2026-04-25T11:52:16.11Z</time></trkpt><trkpt lat="44.2946185" lon="11.7821922"><ele>46.0</ele><time>2026-04-25T11:52:19.107Z</time></trkpt><trkpt lat="44.2946643" lon="11.7821236"><ele>46.0</ele><time>2026-04-25T11:52:22.106Z</time></trkpt><trkpt lat="44.2947084" lon="11.7820552"><ele>46.0</ele><time>2026-04-25T11:52:25.042Z</time></trkpt><trkpt lat="44.2947582" lon="11.7819661"><ele>46.0</ele><time>2026-04-25T11:52:29.082Z</time></trkpt><trkpt lat="44.2948224" lon="11.7818839"><ele>46.0</ele><time>2026-04-25T11:52:33.174Z</time></trkpt><trkpt lat="44.2948825" lon="11.7818112"><ele>45.714285714285715</ele><time>2026-04-25T11:52:37.098Z</time></trkpt><trkpt lat="44.2949297" lon="11.7817509"><ele>45.42857142857142</ele><time>2026-04-25T11:52:40.059Z</time></trkpt><trkpt lat="44.2949802" lon="11.7816907"><ele>45.14285714285714</ele><time>2026-04-25T11:52:43.163Z</time></trkpt><trkpt lat="44.2950422" lon="11.7816132"><ele>44.85714285714286</ele><time>2026-04-25T11:52:47.036Z</time></trkpt><trkpt lat="44.2950877" lon="11.7815428"><ele>44.57142857142857</ele><time>2026-04-25T11:52:50.108Z</time></trkpt><trkpt lat="44.2951489" lon="11.7814615"><ele>44.285714285714285</ele><time>2026-04-25T11:52:54.114Z</time></trkpt><trkpt lat="44.2951999" lon="11.781386"><ele>44.0</ele><time>2026-04-25T11:52:58.079Z</time></trkpt><trkpt lat="44.2952535" lon="11.7813085"><ele>44.0</ele><time>2026-04-25T11:53:02.048Z</time></trkpt><trkpt lat="44.2953111" lon="11.7812309"><ele>44.0</ele><time>2026-04-25T11:53:06.061Z</time></trkpt><trkpt lat="44.295364" lon="11.7811557"><ele>44.0</ele><time>2026-04-25T11:53:10.116Z</time></trkpt><trkpt lat="44.2954235" lon="11.7810844"><ele>44.0</ele><time>2026-04-25T11:53:14.018Z</time></trkpt><trkpt lat="44.2954846" lon="11.7810074"><ele>44.0</ele><time>2026-04-25T11:53:18.119Z</time></trkpt><trkpt lat="44.2955457" lon="11.7809417"><ele>44.0</ele><time>2026-04-25T11:53:22.079Z</time></trkpt><trkpt lat="44.2956007" lon="11.780898"><ele>44.5</ele><time>2026-04-25T11:53:25.041Z</time></trkpt><trkpt lat="44.2956672" lon="11.7808303"><ele>45.0</ele><time>2026-04-25T11:53:29.083Z</time></trkpt><trkpt lat="44.295734" lon="11.7807628"><ele>45.5</ele><time>2026-04-25T11:53:33.086Z</time></trkpt><trkpt lat="44.2958008" lon="11.7806894"><ele>46.0</ele><time>2026-04-25T11:53:37.127Z</time></trkpt><trkpt lat="44.2958576" lon="11.7806171"><ele>46.5</ele><time>2026-04-25T11:53:41.061Z</time></trkpt><trkpt lat="44.2959253" lon="11.7805906"><ele>47.0</ele><time>2026-04-25T11:53:45.081Z</time></trkpt><trkpt lat="44.2960064" lon="11.7806184"><ele>47.0</ele><time>2026-04-25T11:53:49.098Z</time></trkpt><trkpt lat="44.2960795" lon="11.7806485"><ele>47.0</ele><time>2026-04-25T11:53:53.093Z</time></trkpt><trkpt lat="44.29614" lon="11.7806793"><ele>47.0</ele><time>2026-04-25T11:53:57.105Z</time></trkpt><trkpt lat="44.2962108" lon="11.7807157"><ele>47.0</ele><time>2026-04-25T11:54:01.08Z</time></trkpt><trkpt lat="44.296289" lon="11.7807563"><ele>47.0</ele><time>2026-04-25T11:54:05.09Z</time></trkpt><trkpt lat="44.2963628" lon="11.7807992"><ele>47.0</ele><time>2026-04-25T11:54:09.106Z</time></trkpt><trkpt lat="44.2964255" lon="11.7808182"><ele>47.0</ele><time>2026-04-25T11:54:11.993Z</time></trkpt><trkpt lat="44.2965043" lon="11.7808402"><ele>47.0</ele><time>2026-04-25T11:54:16.02Z</time></trkpt><trkpt lat="44.2965728" lon="11.7808653"><ele>47.0</ele><time>2026-04-25T11:54:21.084Z</time></trkpt><trkpt lat="44.2966375" lon="11.7808882"><ele>47.0</ele><time>2026-04-25T11:54:26.074Z</time></trkpt><trkpt lat="44.2967058" lon="11.7809168"><ele>47.0</ele><time>2026-04-25T11:54:32.102Z</time></trkpt><trkpt lat="44.2967733" lon="11.7809374"><ele>47.0</ele><time>2026-04-25T11:54:38.079Z</time></trkpt><trkpt lat="44.2968443" lon="11.7809672"><ele>47.0</ele><time>2026-04-25T11:54:43.091Z</time></trkpt><trkpt lat="44.2969178" lon="11.7810063"><ele>47.0</ele><time>2026-04-25T11:54:48.108Z</time></trkpt><trkpt lat="44.2969863" lon="11.7810309"><ele>47.0</ele><time>2026-04-25T11:54:51.055Z</time></trkpt><trkpt lat="44.2970552" lon="11.7810662"><ele>47.0</ele><time>2026-04-25T11:54:54.091Z</time></trkpt><trkpt lat="44.2971209" lon="11.7811054"><ele>47.0</ele><time>2026-04-25T11:54:57.082Z</time></trkpt><trkpt lat="44.2971832" lon="11.7811335"><ele>47.0</ele><time>2026-04-25T11:55:00.111Z</time></trkpt><trkpt lat="44.2972614" lon="11.7811625"><ele>47.0</ele><time>2026-04-25T11:55:04.094Z</time></trkpt><trkpt lat="44.2973372" lon="11.7811875"><ele>47.0</ele><time>2026-04-25T11:55:08.097Z</time></trkpt><trkpt lat="44.2974175" lon="11.7812193"><ele>46.714285714285715</ele><time>2026-04-25T11:55:12.044Z</time></trkpt><trkpt lat="44.2974815" lon="11.7812555"><ele>46.42857142857143</ele><time>2026-04-25T11:55:15.115Z</time></trkpt><trkpt lat="44.2975413" lon="11.7813015"><ele>46.14285714285714</ele><time>2026-04-25T11:55:18.083Z</time></trkpt><trkpt lat="44.2976012" lon="11.7813288"><ele>45.85714285714286</ele><time>2026-04-25T11:55:21.08Z</time></trkpt><trkpt lat="44.2976621" lon="11.7813618"><ele>45.57142857142858</ele><time>2026-04-25T11:55:24.055Z</time></trkpt><trkpt lat="44.2977411" lon="11.7814021"><ele>45.285714285714285</ele><time>2026-04-25T11:55:28.085Z</time></trkpt><trkpt lat="44.2978056" lon="11.7814427"><ele>45.0</ele><time>2026-04-25T11:55:31.122Z</time></trkpt><trkpt lat="44.2978649" lon="11.7814873"><ele>45.0</ele><time>2026-04-25T11:55:35.006Z</time></trkpt><trkpt lat="44.2979238" lon="11.7815322"><ele>45.0</ele><time>2026-04-25T11:55:39.112Z</time></trkpt><trkpt lat="44.2979985" lon="11.7815844"><ele>45.0</ele><time>2026-04-25T11:55:43.117Z</time></trkpt><trkpt lat="44.2980666" lon="11.7816365"><ele>45.0</ele><time>2026-04-25T11:55:47.047Z</time></trkpt><trkpt lat="44.2981326" lon="11.7816933"><ele>45.0</ele><time>2026-04-25T11:55:51.091Z</time></trkpt><trkpt lat="44.2982011" lon="11.7817532"><ele>45.0</ele><time>2026-04-25T11:55:55.125Z</time></trkpt><trkpt lat="44.2982592" lon="11.7818128"><ele>45.5</ele><time>2026-04-25T11:55:59.118Z</time></trkpt><trkpt lat="44.2983224" lon="11.7818711"><ele>46.0</ele><time>2026-04-25T11:56:03.077Z</time></trkpt><trkpt lat="44.2983884" lon="11.7819368"><ele>46.5</ele><time>2026-04-25T11:56:07.102Z</time></trkpt><trkpt lat="44.2984488" lon="11.7819971"><ele>47.0</ele><time>2026-04-25T11:56:11.002Z</time></trkpt><trkpt lat="44.2985151" lon="11.7820603"><ele>47.5</ele><time>2026-04-25T11:56:15.086Z</time></trkpt><trkpt lat="44.2985789" lon="11.7821211"><ele>48.0</ele><time>2026-04-25T11:56:19.103Z</time></trkpt><trkpt lat="44.2986318" lon="11.7821698"><ele>48.0</ele><time>2026-04-25T11:56:22.101Z</time></trkpt><trkpt lat="44.2987002" lon="11.7822278"><ele>48.0</ele><time>2026-04-25T11:56:26.001Z</time></trkpt><trkpt lat="44.2987721" lon="11.7822884"><ele>48.0</ele><time>2026-04-25T11:56:30.121Z</time></trkpt><trkpt lat="44.2988192" lon="11.7823483"><ele>48.0</ele><time>2026-04-25T11:56:33.083Z</time></trkpt><trkpt lat="44.2988857" lon="11.7824088"><ele>48.0</ele><time>2026-04-25T11:56:37.021Z</time></trkpt><trkpt lat="44.2989488" lon="11.7824756"><ele>48.0</ele><time>2026-04-25T11:56:41.073Z</time></trkpt><trkpt lat="44.2990142" lon="11.7825271"><ele>47.857142857142854</ele><time>2026-04-25T11:56:45.102Z</time></trkpt><trkpt lat="44.2990687" lon="11.7825714"><ele>47.714285714285715</ele><time>2026-04-25T11:56:48.037Z</time></trkpt><trkpt lat="44.2991321" lon="11.7826208"><ele>47.57142857142857</ele><time>2026-04-25T11:56:52.069Z</time></trkpt><trkpt lat="44.2991997" lon="11.7826729"><ele>47.42857142857143</ele><time>2026-04-25T11:56:56.108Z</time></trkpt><trkpt lat="44.2992588" lon="11.7827353"><ele>47.285714285714285</ele><time>2026-04-25T11:57:00.116Z</time></trkpt><trkpt lat="44.2993228" lon="11.7827925"><ele>47.14285714285714</ele><time>2026-04-25T11:57:05.101Z</time></trkpt><trkpt lat="44.2993826" lon="11.7828451"><ele>47.0</ele><time>2026-04-25T11:57:11.113Z</time></trkpt><trkpt lat="44.2994419" lon="11.7828975"><ele>46.857142857142854</ele><time>2026-04-25T11:57:16.097Z</time></trkpt><trkpt lat="44.2995111" lon="11.782952"><ele>46.71428571428571</ele><time>2026-04-25T11:57:22.102Z</time></trkpt><trkpt lat="44.2995724" lon="11.7830111"><ele>46.57142857142857</ele><time>2026-04-25T11:57:28.113Z</time></trkpt><trkpt lat="44.2996306" lon="11.7830687"><ele>46.42857142857143</ele><time>2026-04-25T11:57:34.074Z</time></trkpt><trkpt lat="44.2996898" lon="11.7831384"><ele>46.285714285714285</ele><time>2026-04-25T11:57:40.035Z</time></trkpt><trkpt lat="44.2997391" lon="11.7832086"><ele>46.142857142857146</ele><time>2026-04-25T11:57:43.093Z</time></trkpt><trkpt lat="44.2997905" lon="11.7832606"><ele>46.0</ele><time>2026-04-25T11:57:46.019Z</time></trkpt><trkpt lat="44.2998555" lon="11.783325"><ele>46.142857142857146</ele><time>2026-04-25T11:57:50.064Z</time></trkpt><trkpt lat="44.2998996" lon="11.7833927"><ele>46.285714285714285</ele><time>2026-04-25T11:57:53.128Z</time></trkpt><trkpt lat="44.2999492" lon="11.7834834"><ele>46.42857142857143</ele><time>2026-04-25T11:57:57.083Z</time></trkpt><trkpt lat="44.300003" lon="11.7835702"><ele>46.57142857142857</ele><time>2026-04-25T11:58:01.095Z</time></trkpt><trkpt lat="44.3000577" lon="11.7836587"><ele>46.71428571428571</ele><time>2026-04-25T11:58:05.09Z</time></trkpt><trkpt lat="44.3001001" lon="11.783729"><ele>46.857142857142854</ele><time>2026-04-25T11:58:08.051Z</time></trkpt><trkpt lat="44.3001477" lon="11.7838018"><ele>47.0</ele><time>2026-04-25T11:58:11.074Z</time></trkpt><trkpt lat="44.3001963" lon="11.783859"><ele>47.0</ele><time>2026-04-25T11:58:14.077Z</time></trkpt><trkpt lat="44.3002523" lon="11.7839282"><ele>47.0</ele><time>2026-04-25T11:58:17.997Z</time></trkpt><trkpt lat="44.3003193" lon="11.7839904"><ele>47.0</ele><time>2026-04-25T11:58:22.081Z</time></trkpt><trkpt lat="44.3003832" lon="11.7840576"><ele>47.0</ele><time>2026-04-25T11:58:26.116Z</time></trkpt><trkpt lat="44.3004336" lon="11.78412"><ele>47.0</ele><time>2026-04-25T11:58:29.078Z</time></trkpt><trkpt lat="44.3004792" lon="11.7841839"><ele>47.0</ele><time>2026-04-25T11:58:32.056Z</time></trkpt><trkpt lat="44.3005196" lon="11.7842542"><ele>47.0</ele><time>2026-04-25T11:58:35.074Z</time></trkpt><trkpt lat="44.3005644" lon="11.784326"><ele>46.83333333333333</ele><time>2026-04-25T11:58:39.105Z</time></trkpt><trkpt lat="44.3006114" lon="11.7844236"><ele>46.666666666666664</ele><time>2026-04-25T11:58:43.082Z</time></trkpt><trkpt lat="44.300665" lon="11.7845229"><ele>46.5</ele><time>2026-04-25T11:58:47.098Z</time></trkpt><trkpt lat="44.300707" lon="11.7845982"><ele>46.333333333333336</ele><time>2026-04-25T11:58:50.103Z</time></trkpt><trkpt lat="44.3007503" lon="11.7846935"><ele>46.16666666666667</ele><time>2026-04-25T11:58:54.091Z</time></trkpt><trkpt lat="44.3007902" lon="11.7847849"><ele>46.0</ele><time>2026-04-25T11:58:58.088Z</time></trkpt><trkpt lat="44.3008356" lon="11.784873"><ele>46.0</ele><time>2026-04-25T11:59:02.084Z</time></trkpt><trkpt lat="44.30089" lon="11.784962"><ele>46.0</ele><time>2026-04-25T11:59:06.07Z</time></trkpt><trkpt lat="44.3009382" lon="11.7850515"><ele>46.0</ele><time>2026-04-25T11:59:10.073Z</time></trkpt><trkpt lat="44.3009763" lon="11.7851312"><ele>46.0</ele><time>2026-04-25T11:59:13.123Z</time></trkpt><trkpt lat="44.3010191" lon="11.785214"><ele>46.0</ele><time>2026-04-25T11:59:17.002Z</time></trkpt><trkpt lat="44.3010711" lon="11.7853032"><ele>46.0</ele><time>2026-04-25T11:59:21.098Z</time></trkpt><trkpt lat="44.3011217" lon="11.7853831"><ele>46.0</ele><time>2026-04-25T11:59:25.091Z</time></trkpt><trkpt lat="44.3011741" lon="11.785466"><ele>46.0</ele><time>2026-04-25T11:59:29.096Z</time></trkpt><trkpt lat="44.3012199" lon="11.7855561"><ele>46.0</ele><time>2026-04-25T11:59:33.111Z</time></trkpt><trkpt lat="44.301267" lon="11.7856431"><ele>46.0</ele><time>2026-04-25T11:59:37.024Z</time></trkpt><trkpt lat="44.3013198" lon="11.7857163"><ele>46.0</ele><time>2026-04-25T11:59:40.981Z</time></trkpt><trkpt lat="44.3013737" lon="11.7857953"><ele>46.0</ele><time>2026-04-25T11:59:45.093Z</time></trkpt><trkpt lat="44.3014264" lon="11.7858872"><ele>46.0</ele><time>2026-04-25T11:59:49.108Z</time></trkpt><trkpt lat="44.301471" lon="11.7859623"><ele>46.0</ele><time>2026-04-25T11:59:52.086Z</time></trkpt><trkpt lat="44.3015126" lon="11.7860382"><ele>46.0</ele><time>2026-04-25T11:59:55.086Z</time></trkpt><trkpt lat="44.3015481" lon="11.7861193"><ele>46.0</ele><time>2026-04-25T11:59:58.041Z</time></trkpt><trkpt lat="44.3015896" lon="11.7861938"><ele>46.0</ele><time>2026-04-25T12:00:01.104Z</time></trkpt><trkpt lat="44.3016304" lon="11.7862645"><ele>46.0</ele><time>2026-04-25T12:00:04.075Z</time></trkpt><trkpt lat="44.3016776" lon="11.7863556"><ele>46.0</ele><time>2026-04-25T12:00:08.038Z</time></trkpt><trkpt lat="44.3017257" lon="11.7864466"><ele>45.833333333333336</ele><time>2026-04-25T12:00:12.071Z</time></trkpt><trkpt lat="44.301766" lon="11.7865202"><ele>45.66666666666667</ele><time>2026-04-25T12:00:15.103Z</time></trkpt><trkpt lat="44.3018136" lon="11.7866017"><ele>45.5</ele><time>2026-04-25T12:00:19.041Z</time></trkpt><trkpt lat="44.3018631" lon="11.7866902"><ele>45.333333333333336</ele><time>2026-04-25T12:00:23.087Z</time></trkpt><trkpt lat="44.3019096" lon="11.7867864"><ele>45.166666666666664</ele><time>2026-04-25T12:00:27.144Z</time></trkpt><trkpt lat="44.3019534" lon="11.7868828"><ele>45.0</ele><time>2026-04-25T12:00:31.092Z</time></trkpt><trkpt lat="44.301988" lon="11.7869641"><ele>45.0</ele><time>2026-04-25T12:00:34.088Z</time></trkpt><trkpt lat="44.3020204" lon="11.7870411"><ele>45.0</ele><time>2026-04-25T12:00:37.118Z</time></trkpt><trkpt lat="44.3020692" lon="11.7871282"><ele>45.0</ele><time>2026-04-25T12:00:41.087Z</time></trkpt><trkpt lat="44.3021116" lon="11.7872155"><ele>45.0</ele><time>2026-04-25T12:00:45.02Z</time></trkpt><trkpt lat="44.302154" lon="11.7872993"><ele>45.0</ele><time>2026-04-25T12:00:48.047Z</time></trkpt><trkpt lat="44.3021968" lon="11.7873833"><ele>45.0</ele><time>2026-04-25T12:00:52.096Z</time></trkpt><trkpt lat="44.3022457" lon="11.7874694"><ele>45.0</ele><time>2026-04-25T12:00:56.029Z</time></trkpt><trkpt lat="44.3022994" lon="11.7875612"><ele>45.0</ele><time>2026-04-25T12:01:00.074Z</time></trkpt><trkpt lat="44.3023378" lon="11.7876373"><ele>45.0</ele><time>2026-04-25T12:01:03.146Z</time></trkpt><trkpt lat="44.30238" lon="11.7877092"><ele>45.0</ele><time>2026-04-25T12:01:06.077Z</time></trkpt><trkpt lat="44.3024317" lon="11.7877904"><ele>45.0</ele><time>2026-04-25T12:01:10.09Z</time></trkpt><trkpt lat="44.3024811" lon="11.7878751"><ele>45.0</ele><time>2026-04-25T12:01:14.105Z</time></trkpt><trkpt lat="44.3025378" lon="11.7879496"><ele>45.0</ele><time>2026-04-25T12:01:18.146Z</time></trkpt><trkpt lat="44.3025975" lon="11.7880225"><ele>45.0</ele><time>2026-04-25T12:01:22.082Z</time></trkpt><trkpt lat="44.3026568" lon="11.788101"><ele>45.0</ele><time>2026-04-25T12:01:26.006Z</time></trkpt><trkpt lat="44.3026992" lon="11.7881939"><ele>45.0</ele><time>2026-04-25T12:01:30.073Z</time></trkpt><trkpt lat="44.3027487" lon="11.7882651"><ele>45.0</ele><time>2026-04-25T12:01:34.074Z</time></trkpt><trkpt lat="44.3028076" lon="11.7883412"><ele>45.0</ele><time>2026-04-25T12:01:38.093Z</time></trkpt><trkpt lat="44.3028554" lon="11.7884013"><ele>45.0</ele><time>2026-04-25T12:01:41.083Z</time></trkpt><trkpt lat="44.3028986" lon="11.7884681"><ele>45.0</ele><time>2026-04-25T12:01:44.105Z</time></trkpt><trkpt lat="44.3029474" lon="11.7885359"><ele>45.0</ele><time>2026-04-25T12:01:47.084Z</time></trkpt><trkpt lat="44.3029987" lon="11.7886047"><ele>44.857142857142854</ele><time>2026-04-25T12:01:50.107Z</time></trkpt><trkpt lat="44.3030443" lon="11.7886684"><ele>44.714285714285715</ele><time>2026-04-25T12:01:53.067Z</time></trkpt><trkpt lat="44.3031024" lon="11.788739"><ele>44.57142857142857</ele><time>2026-04-25T12:01:57.019Z</time></trkpt><trkpt lat="44.3031495" lon="11.7887996"><ele>44.42857142857143</ele><time>2026-04-25T12:02:00.108Z</time></trkpt><trkpt lat="44.3032013" lon="11.7888525"><ele>44.285714285714285</ele><time>2026-04-25T12:02:03.095Z</time></trkpt><trkpt lat="44.3032567" lon="11.7889043"><ele>44.142857142857146</ele><time>2026-04-25T12:02:06.028Z</time></trkpt><trkpt lat="44.3033168" lon="11.7889564"><ele>44.0</ele><time>2026-04-25T12:02:09.094Z</time></trkpt><trkpt lat="44.3033765" lon="11.7890087"><ele>44.0</ele><time>2026-04-25T12:02:12.079Z</time></trkpt><trkpt lat="44.3034386" lon="11.7890435"><ele>44.0</ele><time>2026-04-25T12:02:15.104Z</time></trkpt><trkpt lat="44.3035065" lon="11.7890604"><ele>44.0</ele><time>2026-04-25T12:02:18.093Z</time></trkpt><trkpt lat="44.3035705" lon="11.7890647"><ele>44.0</ele><time>2026-04-25T12:02:21.041Z</time></trkpt><trkpt lat="44.3036468" lon="11.7890415"><ele>44.0</ele><time>2026-04-25T12:02:25.103Z</time></trkpt><trkpt lat="44.3037169" lon="11.7890068"><ele>44.0</ele><time>2026-04-25T12:02:29.086Z</time></trkpt><trkpt lat="44.3037933" lon="11.788973"><ele>44.0</ele><time>2026-04-25T12:02:33.114Z</time></trkpt><trkpt lat="44.3038678" lon="11.788972"><ele>43.85714285714286</ele><time>2026-04-25T12:02:37.117Z</time></trkpt><trkpt lat="44.3039457" lon="11.7889684"><ele>43.714285714285715</ele><time>2026-04-25T12:02:41.064Z</time></trkpt><trkpt lat="44.3040095" lon="11.7889364"><ele>43.57142857142857</ele><time>2026-04-25T12:02:44.089Z</time></trkpt><trkpt lat="44.3040741" lon="11.7889159"><ele>43.42857142857143</ele><time>2026-04-25T12:02:47.074Z</time></trkpt><trkpt lat="44.3041526" lon="11.7889065"><ele>43.285714285714285</ele><time>2026-04-25T12:02:51.098Z</time></trkpt><trkpt lat="44.3042277" lon="11.7889103"><ele>43.142857142857146</ele><time>2026-04-25T12:02:55.08Z</time></trkpt><trkpt lat="44.3043081" lon="11.7889284"><ele>43.0</ele><time>2026-04-25T12:02:59.041Z</time></trkpt><trkpt lat="44.3043864" lon="11.78897"><ele>43.0</ele><time>2026-04-25T12:03:04.086Z</time></trkpt><trkpt lat="44.3044609" lon="11.7890075"><ele>43.0</ele><time>2026-04-25T12:03:08.017Z</time></trkpt><trkpt lat="44.3045287" lon="11.7890576"><ele>43.0</ele><time>2026-04-25T12:03:12.021Z</time></trkpt><trkpt lat="44.3045962" lon="11.7891252"><ele>43.0</ele><time>2026-04-25T12:03:16.1Z</time></trkpt><trkpt lat="44.3046587" lon="11.7891971"><ele>43.0</ele><time>2026-04-25T12:03:20.114Z</time></trkpt><trkpt lat="44.3047172" lon="11.7892661"><ele>43.0</ele><time>2026-04-25T12:03:24.099Z</time></trkpt><trkpt lat="44.304767" lon="11.7893388"><ele>43.16666666666667</ele><time>2026-04-25T12:03:28.086Z</time></trkpt><trkpt lat="44.3048177" lon="11.7894238"><ele>43.333333333333336</ele><time>2026-04-25T12:03:32.097Z</time></trkpt><trkpt lat="44.3048684" lon="11.7895166"><ele>43.5</ele><time>2026-04-25T12:03:36.119Z</time></trkpt><trkpt lat="44.3049111" lon="11.789614"><ele>43.666666666666664</ele><time>2026-04-25T12:03:40.095Z</time></trkpt><trkpt lat="44.3049541" lon="11.7897127"><ele>43.83333333333333</ele><time>2026-04-25T12:03:44.065Z</time></trkpt><trkpt lat="44.3049839" lon="11.7898139"><ele>44.0</ele><time>2026-04-25T12:03:48.061Z</time></trkpt><trkpt lat="44.3050026" lon="11.7899169"><ele>44.0</ele><time>2026-04-25T12:03:51.998Z</time></trkpt><trkpt lat="44.3050075" lon="11.7900065"><ele>44.0</ele><time>2026-04-25T12:03:55.096Z</time></trkpt><trkpt lat="44.305008" lon="11.7901154"><ele>44.0</ele><time>2026-04-25T12:03:59.093Z</time></trkpt><trkpt lat="44.3050011" lon="11.7902184"><ele>44.0</ele><time>2026-04-25T12:04:03.087Z</time></trkpt><trkpt lat="44.3050048" lon="11.7903227"><ele>44.0</ele><time>2026-04-25T12:04:07.086Z</time></trkpt><trkpt lat="44.3050075" lon="11.7904144"><ele>44.0</ele><time>2026-04-25T12:04:10.083Z</time></trkpt><trkpt lat="44.3050062" lon="11.7905081"><ele>44.0</ele><time>2026-04-25T12:04:13.061Z</time></trkpt><trkpt lat="44.3050046" lon="11.7906017"><ele>44.0</ele><time>2026-04-25T12:04:16.102Z</time></trkpt><trkpt lat="44.3050013" lon="11.7907048"><ele>44.0</ele><time>2026-04-25T12:04:19.108Z</time></trkpt><trkpt lat="44.3049947" lon="11.7908197"><ele>44.0</ele><time>2026-04-25T12:04:23.105Z</time></trkpt><trkpt lat="44.3049854" lon="11.7909322"><ele>44.0</ele><time>2026-04-25T12:04:27.159Z</time></trkpt><trkpt lat="44.3049928" lon="11.7910258"><ele>44.0</ele><time>2026-04-25T12:04:31.099Z</time></trkpt><trkpt lat="44.3050038" lon="11.7911412"><ele>44.0</ele><time>2026-04-25T12:04:35.082Z</time></trkpt><trkpt lat="44.3050108" lon="11.7912319"><ele>44.33333333333333</ele><time>2026-04-25T12:04:38.088Z</time></trkpt><trkpt lat="44.3050416" lon="11.7913362"><ele>44.666666666666664</ele><time>2026-04-25T12:04:42.107Z</time></trkpt><trkpt lat="44.3050816" lon="11.7914229"><ele>45.0</ele><time>2026-04-25T12:04:46.094Z</time></trkpt><trkpt lat="44.3051417" lon="11.7915046"><ele>45.333333333333336</ele><time>2026-04-25T12:04:50.069Z</time></trkpt><trkpt lat="44.3052094" lon="11.7915646"><ele>45.66666666666667</ele><time>2026-04-25T12:04:54.026Z</time></trkpt><trkpt lat="44.3052857" lon="11.7916013"><ele>46.0</ele><time>2026-04-25T12:04:57.988Z</time></trkpt><trkpt lat="44.3053463" lon="11.7916378"><ele>46.0</ele><time>2026-04-25T12:05:01.128Z</time></trkpt><trkpt lat="44.3054232" lon="11.7916814"><ele>46.0</ele><time>2026-04-25T12:05:05.104Z</time></trkpt><trkpt lat="44.3054977" lon="11.7917328"><ele>46.0</ele><time>2026-04-25T12:05:09.083Z</time></trkpt><trkpt lat="44.3055647" lon="11.791757"><ele>46.0</ele><time>2026-04-25T12:05:12.129Z</time></trkpt><trkpt lat="44.3056273" lon="11.7917747"><ele>46.0</ele><time>2026-04-25T12:05:15.108Z</time></trkpt><trkpt lat="44.3057016" lon="11.7917974"><ele>46.0</ele><time>2026-04-25T12:05:19.001Z</time></trkpt><trkpt lat="44.3057645" lon="11.7918274"><ele>46.0</ele><time>2026-04-25T12:05:22.097Z</time></trkpt><trkpt lat="44.3058278" lon="11.7918486"><ele>45.85714285714286</ele><time>2026-04-25T12:05:25.102Z</time></trkpt><trkpt lat="44.3058973" lon="11.7918975"><ele>45.71428571428571</ele><time>2026-04-25T12:05:29.036Z</time></trkpt><trkpt lat="44.3059644" lon="11.7919512"><ele>45.57142857142857</ele><time>2026-04-25T12:05:33.003Z</time></trkpt><trkpt lat="44.3060315" lon="11.7919892"><ele>45.42857142857143</ele><time>2026-04-25T12:05:40.097Z</time></trkpt><trkpt lat="44.3060921" lon="11.792025"><ele>45.28571428571429</ele><time>2026-04-25T12:05:46.101Z</time></trkpt><trkpt lat="44.3061529" lon="11.792064"><ele>45.14285714285714</ele><time>2026-04-25T12:05:52.11Z</time></trkpt><trkpt lat="44.3062156" lon="11.7920908"><ele>45.0</ele><time>2026-04-25T12:06:09.076Z</time></trkpt><trkpt lat="44.3062788" lon="11.7921241"><ele>45.0</ele><time>2026-04-25T12:06:15.066Z</time></trkpt><trkpt lat="44.3063485" lon="11.7921512"><ele>45.0</ele><time>2026-04-25T12:06:21.125Z</time></trkpt><trkpt lat="44.3064137" lon="11.7921996"><ele>45.0</ele><time>2026-04-25T12:06:27.134Z</time></trkpt><trkpt lat="44.3064743" lon="11.7922376"><ele>45.0</ele><time>2026-04-25T12:06:32.105Z</time></trkpt><trkpt lat="44.3065324" lon="11.7922828"><ele>45.0</ele><time>2026-04-25T12:06:37.116Z</time></trkpt><trkpt lat="44.3066005" lon="11.7923273"><ele>45.0</ele><time>2026-04-25T12:06:43.076Z</time></trkpt><trkpt lat="44.3066565" lon="11.7923973"><ele>45.0</ele><time>2026-04-25T12:06:48.101Z</time></trkpt><trkpt lat="44.3067107" lon="11.7924609"><ele>45.0</ele><time>2026-04-25T12:06:51.098Z</time></trkpt><trkpt lat="44.3067635" lon="11.7925204"><ele>45.0</ele><time>2026-04-25T12:06:54.123Z</time></trkpt><trkpt lat="44.3068112" lon="11.7925788"><ele>45.0</ele><time>2026-04-25T12:06:56.967Z</time></trkpt><trkpt lat="44.3068701" lon="11.7926444"><ele>45.0</ele><time>2026-04-25T12:07:01.097Z</time></trkpt><trkpt lat="44.3069246" lon="11.7927"><ele>45.0</ele><time>2026-04-25T12:07:05.051Z</time></trkpt><trkpt lat="44.3069713" lon="11.7927605"><ele>45.0</ele><time>2026-04-25T12:07:08.112Z</time></trkpt><trkpt lat="44.3070184" lon="11.7928241"><ele>45.0</ele><time>2026-04-25T12:07:11.096Z</time></trkpt><trkpt lat="44.307077" lon="11.7928879"><ele>45.0</ele><time>2026-04-25T12:07:15.002Z</time></trkpt><trkpt lat="44.3071311" lon="11.7929576"><ele>45.0</ele><time>2026-04-25T12:07:19.093Z</time></trkpt><trkpt lat="44.3071908" lon="11.7930243"><ele>45.0</ele><time>2026-04-25T12:07:23.104Z</time></trkpt><trkpt lat="44.307248" lon="11.7930862"><ele>45.0</ele><time>2026-04-25T12:07:27.065Z</time></trkpt><trkpt lat="44.307318" lon="11.7931328"><ele>45.0</ele><time>2026-04-25T12:07:31.101Z</time></trkpt><trkpt lat="44.3073866" lon="11.7931588"><ele>45.0</ele><time>2026-04-25T12:07:35.003Z</time></trkpt><trkpt lat="44.3074614" lon="11.7931476"><ele>45.0</ele><time>2026-04-25T12:07:39.055Z</time></trkpt><trkpt lat="44.3075266" lon="11.7931027"><ele>45.166666666666664</ele><time>2026-04-25T12:07:43.109Z</time></trkpt><trkpt lat="44.3075924" lon="11.7930576"><ele>45.333333333333336</ele><time>2026-04-25T12:07:47.099Z</time></trkpt><trkpt lat="44.3076779" lon="11.793011"><ele>45.5</ele><time>2026-04-25T12:07:51.048Z</time></trkpt><trkpt lat="44.3077474" lon="11.7929887"><ele>45.66666666666667</ele><time>2026-04-25T12:07:55.076Z</time></trkpt><trkpt lat="44.3078127" lon="11.7929823"><ele>45.833333333333336</ele><time>2026-04-25T12:07:58.123Z</time></trkpt><trkpt lat="44.3078932" lon="11.7929839"><ele>46.0</ele><time>2026-04-25T12:08:02.056Z</time></trkpt><trkpt lat="44.3079587" lon="11.7930072"><ele>46.0</ele><time>2026-04-25T12:08:05.087Z</time></trkpt><trkpt lat="44.3080206" lon="11.7930381"><ele>46.0</ele><time>2026-04-25T12:08:08.047Z</time></trkpt><trkpt lat="44.3080811" lon="11.793067"><ele>46.0</ele><time>2026-04-25T12:08:11.077Z</time></trkpt><trkpt lat="44.3081508" lon="11.7931091"><ele>46.0</ele><time>2026-04-25T12:08:15.108Z</time></trkpt><trkpt lat="44.30821" lon="11.793145"><ele>46.0</ele><time>2026-04-25T12:08:18.019Z</time></trkpt><trkpt lat="44.3082693" lon="11.7931824"><ele>46.0</ele><time>2026-04-25T12:08:21.083Z</time></trkpt><trkpt lat="44.3083322" lon="11.7932189"><ele>46.0</ele><time>2026-04-25T12:08:24.087Z</time></trkpt><trkpt lat="44.308405" lon="11.7932641"><ele>45.714285714285715</ele><time>2026-04-25T12:08:28.117Z</time></trkpt><trkpt lat="44.3084629" lon="11.793302"><ele>45.42857142857142</ele><time>2026-04-25T12:08:31.091Z</time></trkpt><trkpt lat="44.3085211" lon="11.793337"><ele>45.14285714285714</ele><time>2026-04-25T12:08:34.001Z</time></trkpt><trkpt lat="44.3085818" lon="11.7933626"><ele>44.85714285714286</ele><time>2026-04-25T12:08:37.1Z</time></trkpt><trkpt lat="44.3086434" lon="11.793385"><ele>44.57142857142857</ele><time>2026-04-25T12:08:40.083Z</time></trkpt><trkpt lat="44.3087215" lon="11.7934197"><ele>44.285714285714285</ele><time>2026-04-25T12:08:44.071Z</time></trkpt><trkpt lat="44.3087865" lon="11.793455"><ele>44.0</ele><time>2026-04-25T12:08:47.07Z</time></trkpt><trkpt lat="44.3088548" lon="11.7935111"><ele>43.85714285714286</ele><time>2026-04-25T12:08:51.108Z</time></trkpt><trkpt lat="44.3089205" lon="11.7935661"><ele>43.714285714285715</ele><time>2026-04-25T12:08:55Z</time></trkpt><trkpt lat="44.3089734" lon="11.7936239"><ele>43.57142857142857</ele><time>2026-04-25T12:08:58.099Z</time></trkpt><trkpt lat="44.3090378" lon="11.7936842"><ele>43.42857142857143</ele><time>2026-04-25T12:09:02.077Z</time></trkpt><trkpt lat="44.3090917" lon="11.7937451"><ele>43.285714285714285</ele><time>2026-04-25T12:09:06.082Z</time></trkpt><trkpt lat="44.3091645" lon="11.7937842"><ele>43.142857142857146</ele><time>2026-04-25T12:09:10.089Z</time></trkpt><trkpt lat="44.3092377" lon="11.7938146"><ele>43.0</ele><time>2026-04-25T12:09:14.092Z</time></trkpt><trkpt lat="44.3093106" lon="11.7938036"><ele>43.0</ele><time>2026-04-25T12:09:18.107Z</time></trkpt><trkpt lat="44.3093853" lon="11.7937754"><ele>43.0</ele><time>2026-04-25T12:09:22.103Z</time></trkpt><trkpt lat="44.3094573" lon="11.7937425"><ele>43.0</ele><time>2026-04-25T12:09:26.091Z</time></trkpt><trkpt lat="44.3095258" lon="11.7937215"><ele>43.0</ele><time>2026-04-25T12:09:30.016Z</time></trkpt><trkpt lat="44.3095947" lon="11.7936944"><ele>43.0</ele><time>2026-04-25T12:09:34.021Z</time></trkpt><trkpt lat="44.3096727" lon="11.7936632"><ele>43.0</ele><time>2026-04-25T12:09:38.083Z</time></trkpt><trkpt lat="44.3097553" lon="11.7936521"><ele>43.00000000000001</ele><time>2026-04-25T12:09:42.075Z</time></trkpt><trkpt lat="44.3098215" lon="11.7936575"><ele>43.0</ele><time>2026-04-25T12:09:45.043Z</time></trkpt><trkpt lat="44.3099021" lon="11.7936478"><ele>43.0</ele><time>2026-04-25T12:09:49.01Z</time></trkpt><trkpt lat="44.3099791" lon="11.7936311"><ele>43.0</ele><time>2026-04-25T12:09:53.099Z</time></trkpt><trkpt lat="44.3100529" lon="11.7936143"><ele>43.0</ele><time>2026-04-25T12:09:57.104Z</time></trkpt><trkpt lat="44.3101222" lon="11.7935916"><ele>43.00000000000001</ele><time>2026-04-25T12:10:01.084Z</time></trkpt><trkpt lat="44.3101931" lon="11.793584"><ele>43.0</ele><time>2026-04-25T12:10:05.06Z</time></trkpt><trkpt lat="44.310271" lon="11.7935779"><ele>43.00000000000001</ele><time>2026-04-25T12:10:08.995Z</time></trkpt><trkpt lat="44.3103537" lon="11.7935757"><ele>43.0</ele><time>2026-04-25T12:10:13.084Z</time></trkpt><trkpt lat="44.310418" lon="11.7935784"><ele>43.0</ele><time>2026-04-25T12:10:16.096Z</time></trkpt><trkpt lat="44.3104934" lon="11.7935801"><ele>43.0</ele><time>2026-04-25T12:10:20.03Z</time></trkpt><trkpt lat="44.3105575" lon="11.7935695"><ele>43.0</ele><time>2026-04-25T12:10:23.104Z</time></trkpt><trkpt lat="44.3106216" lon="11.7935649"><ele>43.00000000000001</ele><time>2026-04-25T12:10:26.111Z</time></trkpt><trkpt lat="44.3107063" lon="11.7935593"><ele>43.0</ele><time>2026-04-25T12:10:30.044Z</time></trkpt><trkpt lat="44.3107884" lon="11.7935467"><ele>43.0</ele><time>2026-04-25T12:10:34.054Z</time></trkpt><trkpt lat="44.3108695" lon="11.7935338"><ele>43.0</ele><time>2026-04-25T12:10:38.09Z</time></trkpt><trkpt lat="44.3109486" lon="11.7935158"><ele>43.0</ele><time>2026-04-25T12:10:43.112Z</time></trkpt><trkpt lat="44.3110301" lon="11.793506"><ele>43.0</ele><time>2026-04-25T12:10:47.098Z</time></trkpt><trkpt lat="44.3110952" lon="11.7934992"><ele>43.0</ele><time>2026-04-25T12:10:50.085Z</time></trkpt><trkpt lat="44.3111731" lon="11.7934945"><ele>43.0</ele><time>2026-04-25T12:10:54.036Z</time></trkpt><trkpt lat="44.3112395" lon="11.793492"><ele>43.00000000000001</ele><time>2026-04-25T12:10:58.088Z</time></trkpt><trkpt lat="44.311315" lon="11.7934741"><ele>43.0</ele><time>2026-04-25T12:11:02.077Z</time></trkpt><trkpt lat="44.3113799" lon="11.793462"><ele>43.0</ele><time>2026-04-25T12:11:05.136Z</time></trkpt><trkpt lat="44.3114576" lon="11.793466"><ele>43.0</ele><time>2026-04-25T12:11:09.109Z</time></trkpt><trkpt lat="44.3115307" lon="11.7934764"><ele>43.0</ele><time>2026-04-25T12:11:13.072Z</time></trkpt><trkpt lat="44.3115998" lon="11.7934978"><ele>43.00000000000001</ele><time>2026-04-25T12:11:17.038Z</time></trkpt><trkpt lat="44.3116709" lon="11.7935108"><ele>43.0</ele><time>2026-04-25T12:11:21.037Z</time></trkpt><trkpt lat="44.3117322" lon="11.793531"><ele>43.00000000000001</ele><time>2026-04-25T12:11:25.071Z</time></trkpt><trkpt lat="44.3117986" lon="11.7935518"><ele>43.0</ele><time>2026-04-25T12:11:31.097Z</time></trkpt><trkpt lat="44.3118652" lon="11.7935597"><ele>43.0</ele><time>2026-04-25T12:11:37.105Z</time></trkpt><trkpt lat="44.3119266" lon="11.793581"><ele>43.0</ele><time>2026-04-25T12:11:43.1Z</time></trkpt><trkpt lat="44.3119963" lon="11.7936003"><ele>43.0</ele><time>2026-04-25T12:11:49.055Z</time></trkpt><trkpt lat="44.3120656" lon="11.7936154"><ele>43.00000000000001</ele><time>2026-04-25T12:11:55.116Z</time></trkpt><trkpt lat="44.3121398" lon="11.7936359"><ele>43.0</ele><time>2026-04-25T12:12:01.119Z</time></trkpt><trkpt lat="44.3122113" lon="11.7936606"><ele>43.142857142857146</ele><time>2026-04-25T12:12:06.114Z</time></trkpt><trkpt lat="44.3122754" lon="11.793674"><ele>43.285714285714285</ele><time>2026-04-25T12:12:09.13Z</time></trkpt><trkpt lat="44.312352" lon="11.7936827"><ele>43.42857142857143</ele><time>2026-04-25T12:12:13.084Z</time></trkpt><trkpt lat="44.3124155" lon="11.7936865"><ele>43.57142857142857</ele><time>2026-04-25T12:12:15.926Z</time></trkpt><trkpt lat="44.3124831" lon="11.7936872"><ele>43.714285714285715</ele><time>2026-04-25T12:12:19.109Z</time></trkpt><trkpt lat="44.3125623" lon="11.7936989"><ele>43.85714285714286</ele><time>2026-04-25T12:12:23.085Z</time></trkpt><trkpt lat="44.3126391" lon="11.7937036"><ele>44.0</ele><time>2026-04-25T12:12:27.106Z</time></trkpt><trkpt lat="44.3127027" lon="11.7937026"><ele>44.0</ele><time>2026-04-25T12:12:30.086Z</time></trkpt><trkpt lat="44.3127673" lon="11.7937011"><ele>44.0</ele><time>2026-04-25T12:12:33.096Z</time></trkpt><trkpt lat="44.3128479" lon="11.7936997"><ele>44.0</ele><time>2026-04-25T12:12:37.111Z</time></trkpt><trkpt lat="44.3129329" lon="11.7936988"><ele>44.0</ele><time>2026-04-25T12:12:41.106Z</time></trkpt><trkpt lat="44.3130049" lon="11.7936981"><ele>44.0</ele><time>2026-04-25T12:12:45.086Z</time></trkpt><trkpt lat="44.3130843" lon="11.7936946"><ele>44.0</ele><time>2026-04-25T12:12:49.089Z</time></trkpt><trkpt lat="44.3131477" lon="11.7936835"><ele>44.0</ele><time>2026-04-25T12:12:52.15Z</time></trkpt><trkpt lat="44.3132316" lon="11.7936756"><ele>44.0</ele><time>2026-04-25T12:12:56.038Z</time></trkpt><trkpt lat="44.3132953" lon="11.7936756"><ele>44.0</ele><time>2026-04-25T12:12:59.089Z</time></trkpt><trkpt lat="44.313376" lon="11.793679"><ele>44.0</ele><time>2026-04-25T12:13:03.093Z</time></trkpt><trkpt lat="44.313436" lon="11.7937069"><ele>44.0</ele><time>2026-04-25T12:13:06.053Z</time></trkpt><trkpt lat="44.3135002" lon="11.7937106"><ele>44.0</ele><time>2026-04-25T12:13:09.089Z</time></trkpt><trkpt lat="44.3135722" lon="11.7937039"><ele>44.0</ele><time>2026-04-25T12:13:13.095Z</time></trkpt><trkpt lat="44.3136523" lon="11.7937129"><ele>44.0</ele><time>2026-04-25T12:13:17.097Z</time></trkpt><trkpt lat="44.3137196" lon="11.793726"><ele>44.0</ele><time>2026-04-25T12:13:21.071Z</time></trkpt><trkpt lat="44.3137954" lon="11.7937468"><ele>44.0</ele><time>2026-04-25T12:13:24.997Z</time></trkpt><trkpt lat="44.3138597" lon="11.7937752"><ele>44.0</ele><time>2026-04-25T12:13:28.1Z</time></trkpt><trkpt lat="44.3139206" lon="11.7938142"><ele>44.0</ele><time>2026-04-25T12:13:31.117Z</time></trkpt><trkpt lat="44.3139802" lon="11.7938459"><ele>44.0</ele><time>2026-04-25T12:13:34.079Z</time></trkpt><trkpt lat="44.3140478" lon="11.7938698"><ele>44.0</ele><time>2026-04-25T12:13:38.093Z</time></trkpt><trkpt lat="44.3141121" lon="11.7938962"><ele>44.0</ele><time>2026-04-25T12:13:42.086Z</time></trkpt><trkpt lat="44.3141871" lon="11.7939229"><ele>44.0</ele><time>2026-04-25T12:13:46.091Z</time></trkpt><trkpt lat="44.3142553" lon="11.7939429"><ele>44.0</ele><time>2026-04-25T12:13:49.095Z</time></trkpt><trkpt lat="44.3143175" lon="11.7940047"><ele>44.0</ele><time>2026-04-25T12:13:53.093Z</time></trkpt><trkpt lat="44.3142983" lon="11.79409"><ele>44.0</ele><time>2026-04-25T12:13:56.085Z</time></trkpt><trkpt lat="44.3142587" lon="11.7941749"><ele>44.0</ele><time>2026-04-25T12:14:00.102Z</time></trkpt><trkpt lat="44.3142319" lon="11.7942577"><ele>44.0</ele><time>2026-04-25T12:14:03.112Z</time></trkpt><trkpt lat="44.3142074" lon="11.7943401"><ele>44.0</ele><time>2026-04-25T12:14:06.077Z</time></trkpt><trkpt lat="44.3141642" lon="11.7944254"><ele>43.85714285714286</ele><time>2026-04-25T12:14:10.073Z</time></trkpt><trkpt lat="44.3141393" lon="11.7945112"><ele>43.714285714285715</ele><time>2026-04-25T12:14:13.074Z</time></trkpt><trkpt lat="44.3141127" lon="11.7945929"><ele>43.57142857142857</ele><time>2026-04-25T12:14:16.082Z</time></trkpt><trkpt lat="44.3140776" lon="11.79469"><ele>43.42857142857143</ele><time>2026-04-25T12:14:20.068Z</time></trkpt><trkpt lat="44.3140499" lon="11.7947903"><ele>43.285714285714285</ele><time>2026-04-25T12:14:24.099Z</time></trkpt><trkpt lat="44.3140195" lon="11.7948702"><ele>43.142857142857146</ele><time>2026-04-25T12:14:27.093Z</time></trkpt><trkpt lat="44.3139856" lon="11.7949444"><ele>43.0</ele><time>2026-04-25T12:14:30.055Z</time></trkpt><trkpt lat="44.3139409" lon="11.7950345"><ele>42.833333333333336</ele><time>2026-04-25T12:14:34.089Z</time></trkpt><trkpt lat="44.3138977" lon="11.7951068"><ele>42.66666666666667</ele><time>2026-04-25T12:14:38.056Z</time></trkpt><trkpt lat="44.3139107" lon="11.7952091"><ele>42.5</ele><time>2026-04-25T12:14:42.083Z</time></trkpt><trkpt lat="44.3139862" lon="11.7952522"><ele>42.333333333333336</ele><time>2026-04-25T12:14:46.071Z</time></trkpt><trkpt lat="44.3140628" lon="11.7953046"><ele>42.166666666666664</ele><time>2026-04-25T12:14:52.114Z</time></trkpt><trkpt lat="44.3141184" lon="11.7953672"><ele>42.0</ele><time>2026-04-25T12:14:56.094Z</time></trkpt><trkpt lat="44.3141843" lon="11.7954152"><ele>42.285714285714285</ele><time>2026-04-25T12:15:00.057Z</time></trkpt><trkpt lat="44.3142492" lon="11.7954655"><ele>42.57142857142857</ele><time>2026-04-25T12:15:04.046Z</time></trkpt><trkpt lat="44.3142998" lon="11.7955269"><ele>42.85714285714286</ele><time>2026-04-25T12:15:08.053Z</time></trkpt><trkpt lat="44.3143645" lon="11.7955798"><ele>43.14285714285714</ele><time>2026-04-25T12:15:12.013Z</time></trkpt><trkpt lat="44.3144272" lon="11.7956336"><ele>43.42857142857143</ele><time>2026-04-25T12:15:15.077Z</time></trkpt><trkpt lat="44.3144877" lon="11.7957001"><ele>43.714285714285715</ele><time>2026-04-25T12:15:18.095Z</time></trkpt><trkpt lat="44.3145507" lon="11.7957364"><ele>44.0</ele><time>2026-04-25T12:15:21.088Z</time></trkpt><trkpt lat="44.3146111" lon="11.7957882"><ele>44.0</ele><time>2026-04-25T12:15:24.07Z</time></trkpt><trkpt lat="44.3146752" lon="11.7958378"><ele>44.0</ele><time>2026-04-25T12:15:28.1Z</time></trkpt><trkpt lat="44.3147359" lon="11.7958875"><ele>44.0</ele><time>2026-04-25T12:15:32.084Z</time></trkpt><trkpt lat="44.3148056" lon="11.7959453"><ele>44.0</ele><time>2026-04-25T12:15:36.054Z</time></trkpt><trkpt lat="44.3148733" lon="11.795992"><ele>44.0</ele><time>2026-04-25T12:15:39.989Z</time></trkpt><trkpt lat="44.3149463" lon="11.7960392"><ele>44.0</ele><time>2026-04-25T12:15:44.1Z</time></trkpt><trkpt lat="44.3150151" lon="11.7960897"><ele>44.166666666666664</ele><time>2026-04-25T12:15:48.115Z</time></trkpt><trkpt lat="44.3150828" lon="11.7961444"><ele>44.33333333333333</ele><time>2026-04-25T12:15:52.106Z</time></trkpt><trkpt lat="44.3151546" lon="11.7961995"><ele>44.5</ele><time>2026-04-25T12:15:56.085Z</time></trkpt><trkpt lat="44.3152236" lon="11.796257"><ele>44.666666666666664</ele><time>2026-04-25T12:16:00.076Z</time></trkpt><trkpt lat="44.3152945" lon="11.7963191"><ele>44.833333333333336</ele><time>2026-04-25T12:16:04.076Z</time></trkpt><trkpt lat="44.3153505" lon="11.7963673"><ele>45.0</ele><time>2026-04-25T12:16:07.067Z</time></trkpt><trkpt lat="44.3154132" lon="11.7964169"><ele>45.0</ele><time>2026-04-25T12:16:10.101Z</time></trkpt><trkpt lat="44.3154901" lon="11.7964735"><ele>45.0</ele><time>2026-04-25T12:16:14.088Z</time></trkpt><trkpt lat="44.3155557" lon="11.796528"><ele>45.0</ele><time>2026-04-25T12:16:17.973Z</time></trkpt><trkpt lat="44.3156283" lon="11.7965777"><ele>45.0</ele><time>2026-04-25T12:16:22.102Z</time></trkpt><trkpt lat="44.3156878" lon="11.7966284"><ele>45.0</ele><time>2026-04-25T12:16:26.082Z</time></trkpt><trkpt lat="44.3157651" lon="11.7966736"><ele>45.0</ele><time>2026-04-25T12:16:30.132Z</time></trkpt><trkpt lat="44.3158207" lon="11.7967202"><ele>44.714285714285715</ele><time>2026-04-25T12:16:33.108Z</time></trkpt><trkpt lat="44.3158771" lon="11.7967661"><ele>44.42857142857143</ele><time>2026-04-25T12:16:36.111Z</time></trkpt><trkpt lat="44.3159469" lon="11.7968213"><ele>44.142857142857146</ele><time>2026-04-25T12:16:40.093Z</time></trkpt><trkpt lat="44.3160125" lon="11.7968651"><ele>43.85714285714286</ele><time>2026-04-25T12:16:43.994Z</time></trkpt><trkpt lat="44.3160688" lon="11.7969117"><ele>43.57142857142857</ele><time>2026-04-25T12:16:47.103Z</time></trkpt><trkpt lat="44.3161402" lon="11.7969754"><ele>43.28571428571429</ele><time>2026-04-25T12:16:51.088Z</time></trkpt><trkpt lat="44.3161994" lon="11.7970216"><ele>43.0</ele><time>2026-04-25T12:16:54.103Z</time></trkpt><trkpt lat="44.3162582" lon="11.7970709"><ele>42.85714285714286</ele><time>2026-04-25T12:16:57.097Z</time></trkpt><trkpt lat="44.31632" lon="11.7971238"><ele>42.714285714285715</ele><time>2026-04-25T12:17:00.012Z</time></trkpt><trkpt lat="44.3163862" lon="11.7971877"><ele>42.57142857142857</ele><time>2026-04-25T12:17:03.098Z</time></trkpt><trkpt lat="44.3164497" lon="11.7972391"><ele>42.42857142857143</ele><time>2026-04-25T12:17:06.071Z</time></trkpt><trkpt lat="44.3165085" lon="11.7972861"><ele>42.285714285714285</ele><time>2026-04-25T12:17:09.083Z</time></trkpt><trkpt lat="44.3165642" lon="11.7973302"><ele>42.142857142857146</ele><time>2026-04-25T12:17:12.11Z</time></trkpt><trkpt lat="44.3166337" lon="11.797383"><ele>42.0</ele><time>2026-04-25T12:17:15.994Z</time></trkpt><trkpt lat="44.3166931" lon="11.7974231"><ele>42.285714285714285</ele><time>2026-04-25T12:17:19.127Z</time></trkpt><trkpt lat="44.3167492" lon="11.7974653"><ele>42.57142857142857</ele><time>2026-04-25T12:17:22.036Z</time></trkpt><trkpt lat="44.3168071" lon="11.7975085"><ele>42.85714285714286</ele><time>2026-04-25T12:17:25.101Z</time></trkpt><trkpt lat="44.3168608" lon="11.7975559"><ele>43.14285714285714</ele><time>2026-04-25T12:17:28.102Z</time></trkpt><trkpt lat="44.3169305" lon="11.7976179"><ele>43.42857142857143</ele><time>2026-04-25T12:17:32.067Z</time></trkpt><trkpt lat="44.3169919" lon="11.7976751"><ele>43.714285714285715</ele><time>2026-04-25T12:17:35.111Z</time></trkpt><trkpt lat="44.317057" lon="11.7977262"><ele>44.0</ele><time>2026-04-25T12:17:38.084Z</time></trkpt><trkpt lat="44.3171202" lon="11.7977778"><ele>44.0</ele><time>2026-04-25T12:17:41.086Z</time></trkpt><trkpt lat="44.3171753" lon="11.797829"><ele>44.0</ele><time>2026-04-25T12:17:44.09Z</time></trkpt><trkpt lat="44.3172347" lon="11.7978807"><ele>44.0</ele><time>2026-04-25T12:17:47.093Z</time></trkpt><trkpt lat="44.3173001" lon="11.7979382"><ele>44.0</ele><time>2026-04-25T12:17:50.073Z</time></trkpt><trkpt lat="44.3173618" lon="11.7979934"><ele>44.0</ele><time>2026-04-25T12:17:53.119Z</time></trkpt><trkpt lat="44.3174173" lon="11.7980575"><ele>44.0</ele><time>2026-04-25T12:17:56.083Z</time></trkpt><trkpt lat="44.3174814" lon="11.7981213"><ele>44.0</ele><time>2026-04-25T12:17:59.116Z</time></trkpt><trkpt lat="44.3175462" lon="11.7981708"><ele>44.166666666666664</ele><time>2026-04-25T12:18:02.008Z</time></trkpt><trkpt lat="44.3176136" lon="11.7982285"><ele>44.33333333333333</ele><time>2026-04-25T12:18:06.102Z</time></trkpt><trkpt lat="44.3176908" lon="11.7982866"><ele>44.5</ele><time>2026-04-25T12:18:10.081Z</time></trkpt><trkpt lat="44.3177537" lon="11.7983345"><ele>44.666666666666664</ele><time>2026-04-25T12:18:13.057Z</time></trkpt><trkpt lat="44.3178272" lon="11.7983839"><ele>44.833333333333336</ele><time>2026-04-25T12:18:16.016Z</time></trkpt><trkpt lat="44.3179113" lon="11.7984457"><ele>45.0</ele><time>2026-04-25T12:18:19.112Z</time></trkpt><trkpt lat="44.3179857" lon="11.7984987"><ele>45.0</ele><time>2026-04-25T12:18:22.087Z</time></trkpt><trkpt lat="44.3180478" lon="11.7985501"><ele>45.0</ele><time>2026-04-25T12:18:24.976Z</time></trkpt><trkpt lat="44.3181195" lon="11.7986048"><ele>45.0</ele><time>2026-04-25T12:18:28.064Z</time></trkpt><trkpt lat="44.3181977" lon="11.798668"><ele>45.0</ele><time>2026-04-25T12:18:31.01Z</time></trkpt><trkpt lat="44.318257" lon="11.7987231"><ele>45.0</ele><time>2026-04-25T12:18:32.976Z</time></trkpt><trkpt lat="44.3183152" lon="11.79878"><ele>45.0</ele><time>2026-04-25T12:18:34.975Z</time></trkpt><trkpt lat="44.3183751" lon="11.7988405"><ele>45.0</ele><time>2026-04-25T12:18:36.99Z</time></trkpt><trkpt lat="44.3184395" lon="11.7988984"><ele>45.0</ele><time>2026-04-25T12:18:38.99Z</time></trkpt><trkpt lat="44.318508" lon="11.7989542"><ele>45.0</ele><time>2026-04-25T12:18:40.978Z</time></trkpt><trkpt lat="44.3185743" lon="11.7990029"><ele>45.0</ele><time>2026-04-25T12:18:42.901Z</time></trkpt><trkpt lat="44.3186354" lon="11.799048"><ele>45.0</ele><time>2026-04-25T12:18:44.795Z</time></trkpt><trkpt lat="44.3186914" lon="11.7990963"><ele>45.0</ele><time>2026-04-25T12:18:46.732Z</time></trkpt><trkpt lat="44.3187455" lon="11.7991451"><ele>45.0</ele><time>2026-04-25T12:18:48.673Z</time></trkpt><trkpt lat="44.318804" lon="11.7992069"><ele>45.0</ele><time>2026-04-25T12:18:50.598Z</time></trkpt><trkpt lat="44.3188787" lon="11.7992768"><ele>45.0</ele><time>2026-04-25T12:18:52.513Z</time></trkpt><trkpt lat="44.3189606" lon="11.7993256"><ele>45.0</ele><time>2026-04-25T12:18:54.471Z</time></trkpt><trkpt lat="44.3190277" lon="11.7993552"><ele>45.0</ele><time>2026-04-25T12:18:56.452Z</time></trkpt><trkpt lat="44.319083" lon="11.7994101"><ele>45.0</ele><time>2026-04-25T12:19:05.082Z</time></trkpt><trkpt lat="44.3191145" lon="11.7993114"><ele>45.0</ele><time>2026-04-25T12:19:34.085Z</time></trkpt><trkpt lat="44.3191517" lon="11.7992311"><ele>47.0</ele><time>2026-04-25T12:20:15.077Z</time></trkpt><trkpt lat="44.3192183" lon="11.799199"><ele>47.0</ele><time>2026-04-25T12:20:32.029Z</time></trkpt><trkpt lat="44.3192237" lon="11.7990613"><ele>47.0</ele><time>2026-04-25T12:20:41.033Z</time></trkpt></trkseg></trk></gpx>